<?xml version='1.0' encoding='UTF-8'?><gpx version="1.1" creator="JPX - https://github.com/jenetics/jpx" xmlns="http://www.topografix.com/GPX/1/1"><trk><trkseg><trkpt lat="43.4570599" lon="11.9016897"><ele>269.0</ele><time>2026-04-29T10:32:46.916Z</time></trkpt><trkpt lat="43.4570915" lon="11.9015607"><ele>269.0</ele><time>2026-04-29T10:34:50.335Z</time></trkpt><trkpt lat="43.4571988" lon="11.9015523"><ele>269.0</ele><time>2026-04-29T10:34:51.354Z</time></trkpt><trkpt lat="43.457305" lon="11.9015842"><ele>269.0</ele><time>2026-04-29T10:34:52.41Z</time></trkpt><trkpt lat="43.4574112" lon="11.90164"><ele>269.0</ele><time>2026-04-29T10:34:53.471Z</time></trkpt><trkpt lat="43.4574932" lon="11.9016817"><ele>269.0</ele><time>2026-04-29T10:34:54.411Z</time></trkpt><trkpt lat="43.457593" lon="11.9017258"><ele>269.0</ele><time>2026-04-29T10:34:56.624Z</time></trkpt><trkpt lat="43.4576677" lon="11.9016709"><ele>269.0</ele><time>2026-04-29T10:34:58.606Z</time></trkpt><trkpt lat="43.4577096" lon="11.9015721"><ele>269.0</ele><time>2026-04-29T10:34:59.622Z</time></trkpt><trkpt lat="43.4577366" lon="11.9014706"><ele>269.0</ele><time>2026-04-29T10:35:00.601Z</time></trkpt><trkpt lat="43.4577682" lon="11.9013506"><ele>269.0</ele><time>2026-04-29T10:35:01.647Z</time></trkpt><trkpt lat="43.4578015" lon="11.9012288"><ele>269.0</ele><time>2026-04-29T10:35:02.604Z</time></trkpt><trkpt lat="43.4578379" lon="11.9011005"><ele>269.0</ele><time>2026-04-29T10:35:03.599Z</time></trkpt><trkpt lat="43.4578745" lon="11.9009781"><ele>269.0</ele><time>2026-04-29T10:35:04.603Z</time></trkpt><trkpt lat="43.4579096" lon="11.9008528"><ele>269.0</ele><time>2026-04-29T10:35:05.62Z</time></trkpt><trkpt lat="43.4579419" lon="11.9007398"><ele>269.0</ele><time>2026-04-29T10:35:06.589Z</time></trkpt><trkpt lat="43.4579722" lon="11.9006346"><ele>268.83333333333337</ele><time>2026-04-29T10:35:07.586Z</time></trkpt><trkpt lat="43.4579972" lon="11.9005475"><ele>268.6666666666667</ele><time>2026-04-29T10:35:08.58Z</time></trkpt><trkpt lat="43.4580175" lon="11.9004406"><ele>268.5</ele><time>2026-04-29T10:35:10.574Z</time></trkpt><trkpt lat="43.4579854" lon="11.9003509"><ele>268.3333333333333</ele><time>2026-04-29T10:35:13.59Z</time></trkpt><trkpt lat="43.4578809" lon="11.9002631"><ele>268.16666666666663</ele><time>2026-04-29T10:35:15.577Z</time></trkpt><trkpt lat="43.4578067" lon="11.9002141"><ele>268.0</ele><time>2026-04-29T10:35:16.588Z</time></trkpt><trkpt lat="43.4577257" lon="11.9001694"><ele>267.75</ele><time>2026-04-29T10:35:17.6Z</time></trkpt><trkpt lat="43.4576334" lon="11.9001236"><ele>267.5</ele><time>2026-04-29T10:35:18.581Z</time></trkpt><trkpt lat="43.4575251" lon="11.9000686"><ele>267.25</ele><time>2026-04-29T10:35:19.606Z</time></trkpt><trkpt lat="43.4574126" lon="11.90001"><ele>267.0</ele><time>2026-04-29T10:35:20.59Z</time></trkpt><trkpt lat="43.4572879" lon="11.8999453"><ele>266.8</ele><time>2026-04-29T10:35:21.597Z</time></trkpt><trkpt lat="43.4571729" lon="11.8998813"><ele>266.6</ele><time>2026-04-29T10:35:22.602Z</time></trkpt><trkpt lat="43.4570756" lon="11.899828"><ele>266.40000000000003</ele><time>2026-04-29T10:35:23.608Z</time></trkpt><trkpt lat="43.4570029" lon="11.8997873"><ele>266.2</ele><time>2026-04-29T10:35:24.593Z</time></trkpt><trkpt lat="43.4569292" lon="11.8996952"><ele>266.0</ele><time>2026-04-29T10:35:26.589Z</time></trkpt><trkpt lat="43.4569501" lon="11.8995043"><ele>266.0</ele><time>2026-04-29T10:35:28.605Z</time></trkpt><trkpt lat="43.456977" lon="11.8993683"><ele>266.0</ele><time>2026-04-29T10:35:29.609Z</time></trkpt><trkpt lat="43.4570092" lon="11.8992042"><ele>266.0</ele><time>2026-04-29T10:35:30.622Z</time></trkpt><trkpt lat="43.457044" lon="11.8990203"><ele>266.0</ele><time>2026-04-29T10:35:31.619Z</time></trkpt><trkpt lat="43.4570805" lon="11.8988263"><ele>265.75</ele><time>2026-04-29T10:35:32.591Z</time></trkpt><trkpt lat="43.4571165" lon="11.8986277"><ele>265.5</ele><time>2026-04-29T10:35:33.579Z</time></trkpt><trkpt lat="43.4571549" lon="11.8984419"><ele>265.25</ele><time>2026-04-29T10:35:34.626Z</time></trkpt><trkpt lat="43.4571956" lon="11.8983111"><ele>265.0</ele><time>2026-04-29T10:35:35.597Z</time></trkpt><trkpt lat="43.457239" lon="11.89823"><ele>265.3333333333333</ele><time>2026-04-29T10:35:36.584Z</time></trkpt><trkpt lat="43.4573023" lon="11.8981586"><ele>265.66666666666663</ele><time>2026-04-29T10:35:37.607Z</time></trkpt><trkpt lat="43.4573786" lon="11.8980899"><ele>266.0</ele><time>2026-04-29T10:35:38.589Z</time></trkpt><trkpt lat="43.4574313" lon="11.8980031"><ele>266.3333333333333</ele><time>2026-04-29T10:35:39.59Z</time></trkpt><trkpt lat="43.4574492" lon="11.8979014"><ele>266.6666666666667</ele><time>2026-04-29T10:35:40.584Z</time></trkpt><trkpt lat="43.457438" lon="11.8977911"><ele>267.0</ele><time>2026-04-29T10:35:41.596Z</time></trkpt><trkpt lat="43.4573993" lon="11.8976736"><ele>266.75</ele><time>2026-04-29T10:35:42.609Z</time></trkpt><trkpt lat="43.4573681" lon="11.8975394"><ele>266.5</ele><time>2026-04-29T10:35:43.597Z</time></trkpt><trkpt lat="43.4573695" lon="11.8973872"><ele>266.25</ele><time>2026-04-29T10:35:44.591Z</time></trkpt><trkpt lat="43.4574049" lon="11.8972282"><ele>266.0</ele><time>2026-04-29T10:35:45.575Z</time></trkpt><trkpt lat="43.4574595" lon="11.897059"><ele>266.0</ele><time>2026-04-29T10:35:46.586Z</time></trkpt><trkpt lat="43.4575203" lon="11.8968725"><ele>266.0</ele><time>2026-04-29T10:35:47.611Z</time></trkpt><trkpt lat="43.457582" lon="11.896679"><ele>266.0</ele><time>2026-04-29T10:35:48.598Z</time></trkpt><trkpt lat="43.4576443" lon="11.8964776"><ele>266.0</ele><time>2026-04-29T10:35:49.578Z</time></trkpt><trkpt lat="43.4577121" lon="11.8962579"><ele>266.0</ele><time>2026-04-29T10:35:50.603Z</time></trkpt><trkpt lat="43.4577817" lon="11.8960371"><ele>266.0</ele><time>2026-04-29T10:35:51.607Z</time></trkpt><trkpt lat="43.4578523" lon="11.8958087"><ele>266.0</ele><time>2026-04-29T10:35:52.613Z</time></trkpt><trkpt lat="43.4579253" lon="11.8955767"><ele>266.0</ele><time>2026-04-29T10:35:53.623Z</time></trkpt><trkpt lat="43.4579993" lon="11.8953452"><ele>266.0</ele><time>2026-04-29T10:35:54.619Z</time></trkpt><trkpt lat="43.4580619" lon="11.895122"><ele>265.33333333333337</ele><time>2026-04-29T10:35:55.577Z</time></trkpt><trkpt lat="43.4580962" lon="11.8948914"><ele>264.6666666666667</ele><time>2026-04-29T10:35:56.598Z</time></trkpt><trkpt lat="43.45809" lon="11.8946784"><ele>264.0</ele><time>2026-04-29T10:35:57.601Z</time></trkpt><trkpt lat="43.4580587" lon="11.8944774"><ele>264.0</ele><time>2026-04-29T10:35:58.594Z</time></trkpt><trkpt lat="43.4579779" lon="11.8943017"><ele>264.0</ele><time>2026-04-29T10:35:59.607Z</time></trkpt><trkpt lat="43.4578725" lon="11.8941428"><ele>264.0</ele><time>2026-04-29T10:36:00.598Z</time></trkpt><trkpt lat="43.4577434" lon="11.8940007"><ele>264.0</ele><time>2026-04-29T10:36:01.604Z</time></trkpt><trkpt lat="43.4576098" lon="11.8938692"><ele>264.0</ele><time>2026-04-29T10:36:02.58Z</time></trkpt><trkpt lat="43.4574624" lon="11.8937295"><ele>264.0</ele><time>2026-04-29T10:36:03.606Z</time></trkpt><trkpt lat="43.4573183" lon="11.8935886"><ele>264.0</ele><time>2026-04-29T10:36:04.594Z</time></trkpt><trkpt lat="43.457174" lon="11.8934474"><ele>264.0</ele><time>2026-04-29T10:36:05.617Z</time></trkpt><trkpt lat="43.4570396" lon="11.8933149"><ele>264.0</ele><time>2026-04-29T10:36:06.63Z</time></trkpt><trkpt lat="43.4569108" lon="11.8931891"><ele>264.3333333333333</ele><time>2026-04-29T10:36:07.591Z</time></trkpt><trkpt lat="43.4567741" lon="11.8930563"><ele>264.66666666666663</ele><time>2026-04-29T10:36:08.608Z</time></trkpt><trkpt lat="43.4566465" lon="11.8929332"><ele>265.0</ele><time>2026-04-29T10:36:09.611Z</time></trkpt><trkpt lat="43.4565294" lon="11.8928198"><ele>265.0</ele><time>2026-04-29T10:36:10.604Z</time></trkpt><trkpt lat="43.4564248" lon="11.8927158"><ele>265.0</ele><time>2026-04-29T10:36:11.612Z</time></trkpt><trkpt lat="43.4563357" lon="11.8926289"><ele>265.0</ele><time>2026-04-29T10:36:12.599Z</time></trkpt><trkpt lat="43.456263" lon="11.8925542"><ele>265.0</ele><time>2026-04-29T10:36:13.598Z</time></trkpt><trkpt lat="43.4562069" lon="11.8924947"><ele>265.0</ele><time>2026-04-29T10:36:14.594Z</time></trkpt><trkpt lat="43.4561535" lon="11.8924395"><ele>264.6</ele><time>2026-04-29T10:36:16.593Z</time></trkpt><trkpt lat="43.4560961" lon="11.8923875"><ele>264.2</ele><time>2026-04-29T10:36:48.602Z</time></trkpt><trkpt lat="43.4559909" lon="11.8922845"><ele>263.8</ele><time>2026-04-29T10:36:50.607Z</time></trkpt><trkpt lat="43.4559188" lon="11.8922134"><ele>263.4</ele><time>2026-04-29T10:36:51.618Z</time></trkpt><trkpt lat="43.4558379" lon="11.8921323"><ele>263.0</ele><time>2026-04-29T10:36:52.61Z</time></trkpt><trkpt lat="43.4557492" lon="11.8920359"><ele>263.0</ele><time>2026-04-29T10:36:53.593Z</time></trkpt><trkpt lat="43.4556544" lon="11.8919286"><ele>263.0</ele><time>2026-04-29T10:36:54.615Z</time></trkpt><trkpt lat="43.4555715" lon="11.8918383"><ele>263.0</ele><time>2026-04-29T10:36:55.59Z</time></trkpt><trkpt lat="43.4554929" lon="11.8917505"><ele>263.0</ele><time>2026-04-29T10:36:56.611Z</time></trkpt><trkpt lat="43.4554113" lon="11.8916625"><ele>263.0</ele><time>2026-04-29T10:36:57.598Z</time></trkpt><trkpt lat="43.4553253" lon="11.8915673"><ele>263.0</ele><time>2026-04-29T10:36:58.592Z</time></trkpt><trkpt lat="43.4552494" lon="11.8914794"><ele>263.0</ele><time>2026-04-29T10:36:59.597Z</time></trkpt><trkpt lat="43.4551878" lon="11.891413"><ele>263.0</ele><time>2026-04-29T10:37:00.627Z</time></trkpt><trkpt lat="43.4551103" lon="11.8913394"><ele>263.0</ele><time>2026-04-29T10:37:02.596Z</time></trkpt><trkpt lat="43.4550319" lon="11.8912673"><ele>263.0</ele><time>2026-04-29T10:37:04.594Z</time></trkpt><trkpt lat="43.4549777" lon="11.891213"><ele>263.0</ele><time>2026-04-29T10:37:05.607Z</time></trkpt><trkpt lat="43.45491" lon="11.8911388"><ele>263.0</ele><time>2026-04-29T10:37:06.609Z</time></trkpt><trkpt lat="43.4548419" lon="11.8910464"><ele>263.0</ele><time>2026-04-29T10:37:07.59Z</time></trkpt><trkpt lat="43.4547576" lon="11.8909291"><ele>263.0</ele><time>2026-04-29T10:37:08.621Z</time></trkpt><trkpt lat="43.4546648" lon="11.8907993"><ele>263.0</ele><time>2026-04-29T10:37:09.603Z</time></trkpt><trkpt lat="43.4545731" lon="11.8906489"><ele>262.75</ele><time>2026-04-29T10:37:10.588Z</time></trkpt><trkpt lat="43.4544864" lon="11.8904733"><ele>262.5</ele><time>2026-04-29T10:37:11.588Z</time></trkpt><trkpt lat="43.4544165" lon="11.8903064"><ele>262.25</ele><time>2026-04-29T10:37:12.588Z</time></trkpt><trkpt lat="43.4543718" lon="11.8901559"><ele>262.0</ele><time>2026-04-29T10:37:13.624Z</time></trkpt><trkpt lat="43.4543517" lon="11.8900458"><ele>261.8333333333333</ele><time>2026-04-29T10:37:14.599Z</time></trkpt><trkpt lat="43.4543494" lon="11.8899458"><ele>261.66666666666663</ele><time>2026-04-29T10:37:15.618Z</time></trkpt><trkpt lat="43.4543617" lon="11.889858"><ele>261.5</ele><time>2026-04-29T10:37:16.601Z</time></trkpt><trkpt lat="43.4543757" lon="11.889761"><ele>261.3333333333333</ele><time>2026-04-29T10:37:17.614Z</time></trkpt><trkpt lat="43.454371" lon="11.8896521"><ele>261.1666666666667</ele><time>2026-04-29T10:37:18.579Z</time></trkpt><trkpt lat="43.4543311" lon="11.8895313"><ele>261.0</ele><time>2026-04-29T10:37:19.589Z</time></trkpt><trkpt lat="43.4542599" lon="11.8893991"><ele>261.25</ele><time>2026-04-29T10:37:20.594Z</time></trkpt><trkpt lat="43.4541955" lon="11.8892374"><ele>261.5</ele><time>2026-04-29T10:37:21.611Z</time></trkpt><trkpt lat="43.4541537" lon="11.8890491"><ele>261.75</ele><time>2026-04-29T10:37:22.578Z</time></trkpt><trkpt lat="43.4541208" lon="11.8888222"><ele>262.0</ele><time>2026-04-29T10:37:23.596Z</time></trkpt><trkpt lat="43.4540944" lon="11.8885699"><ele>262.66666666666663</ele><time>2026-04-29T10:37:24.626Z</time></trkpt><trkpt lat="43.4540696" lon="11.8883081"><ele>263.3333333333333</ele><time>2026-04-29T10:37:25.617Z</time></trkpt><trkpt lat="43.4540419" lon="11.8880503"><ele>264.0</ele><time>2026-04-29T10:37:26.608Z</time></trkpt><trkpt lat="43.4540178" lon="11.8878083"><ele>264.0</ele><time>2026-04-29T10:37:27.593Z</time></trkpt><trkpt lat="43.453995" lon="11.8875737"><ele>264.0</ele><time>2026-04-29T10:37:28.616Z</time></trkpt><trkpt lat="43.4539738" lon="11.8873636"><ele>264.0</ele><time>2026-04-29T10:37:29.603Z</time></trkpt><trkpt lat="43.4539554" lon="11.8871769"><ele>264.0</ele><time>2026-04-29T10:37:30.58Z</time></trkpt><trkpt lat="43.4539377" lon="11.8869986"><ele>264.0</ele><time>2026-04-29T10:37:31.618Z</time></trkpt><trkpt lat="43.453919" lon="11.8868431"><ele>264.0</ele><time>2026-04-29T10:37:32.598Z</time></trkpt><trkpt lat="43.4538979" lon="11.8866807"><ele>264.0</ele><time>2026-04-29T10:37:33.581Z</time></trkpt><trkpt lat="43.4538697" lon="11.8865024"><ele>263.75</ele><time>2026-04-29T10:37:34.616Z</time></trkpt><trkpt lat="43.4538393" lon="11.8863289"><ele>263.5</ele><time>2026-04-29T10:37:35.592Z</time></trkpt><trkpt lat="43.4538083" lon="11.8861476"><ele>263.25</ele><time>2026-04-29T10:37:36.596Z</time></trkpt><trkpt lat="43.4537775" lon="11.8859808"><ele>263.0</ele><time>2026-04-29T10:37:37.602Z</time></trkpt><trkpt lat="43.4537453" lon="11.8858127"><ele>262.0</ele><time>2026-04-29T10:37:38.634Z</time></trkpt><trkpt lat="43.4537128" lon="11.8856475"><ele>261.0</ele><time>2026-04-29T10:37:39.621Z</time></trkpt><trkpt lat="43.4536755" lon="11.8854734"><ele>260.0</ele><time>2026-04-29T10:37:40.599Z</time></trkpt><trkpt lat="43.453626" lon="11.8852756"><ele>259.0</ele><time>2026-04-29T10:37:41.595Z</time></trkpt><trkpt lat="43.4535672" lon="11.8850592"><ele>259.0</ele><time>2026-04-29T10:37:42.601Z</time></trkpt><trkpt lat="43.453507" lon="11.8848312"><ele>259.0</ele><time>2026-04-29T10:37:43.604Z</time></trkpt><trkpt lat="43.4534478" lon="11.884614"><ele>259.0</ele><time>2026-04-29T10:37:44.62Z</time></trkpt><trkpt lat="43.4533893" lon="11.884419"><ele>259.5</ele><time>2026-04-29T10:37:45.623Z</time></trkpt><trkpt lat="43.453335" lon="11.8842512"><ele>260.0</ele><time>2026-04-29T10:37:46.621Z</time></trkpt><trkpt lat="43.4532868" lon="11.8841089"><ele>260.5</ele><time>2026-04-29T10:37:47.603Z</time></trkpt><trkpt lat="43.45324" lon="11.8839727"><ele>261.0</ele><time>2026-04-29T10:37:48.613Z</time></trkpt><trkpt lat="43.4531928" lon="11.8838433"><ele>261.0</ele><time>2026-04-29T10:37:49.603Z</time></trkpt><trkpt lat="43.4531402" lon="11.8837107"><ele>261.0</ele><time>2026-04-29T10:37:50.595Z</time></trkpt><trkpt lat="43.4530774" lon="11.8835643"><ele>261.0</ele><time>2026-04-29T10:37:51.595Z</time></trkpt><trkpt lat="43.4530071" lon="11.8833977"><ele>261.0</ele><time>2026-04-29T10:37:52.608Z</time></trkpt><trkpt lat="43.4529329" lon="11.8832235"><ele>260.0</ele><time>2026-04-29T10:37:53.608Z</time></trkpt><trkpt lat="43.4528506" lon="11.8830388"><ele>259.0</ele><time>2026-04-29T10:37:54.605Z</time></trkpt><trkpt lat="43.452765" lon="11.8828332"><ele>258.0</ele><time>2026-04-29T10:37:55.61Z</time></trkpt><trkpt lat="43.4526858" lon="11.8826333"><ele>258.0</ele><time>2026-04-29T10:37:56.601Z</time></trkpt><trkpt lat="43.4526118" lon="11.8824453"><ele>258.0</ele><time>2026-04-29T10:37:57.605Z</time></trkpt><trkpt lat="43.4525459" lon="11.8822725"><ele>258.0</ele><time>2026-04-29T10:37:58.595Z</time></trkpt><trkpt lat="43.4524847" lon="11.8821091"><ele>258.0</ele><time>2026-04-29T10:37:59.601Z</time></trkpt><trkpt lat="43.452425" lon="11.8819601"><ele>258.0</ele><time>2026-04-29T10:38:00.608Z</time></trkpt><trkpt lat="43.4523697" lon="11.8818257"><ele>258.0</ele><time>2026-04-29T10:38:01.624Z</time></trkpt><trkpt lat="43.4523247" lon="11.8817086"><ele>258.0</ele><time>2026-04-29T10:38:02.6Z</time></trkpt><trkpt lat="43.4522872" lon="11.8815978"><ele>258.0</ele><time>2026-04-29T10:38:03.591Z</time></trkpt><trkpt lat="43.452243" lon="11.8814893"><ele>258.0</ele><time>2026-04-29T10:38:04.613Z</time></trkpt><trkpt lat="43.4521923" lon="11.8813902"><ele>258.0</ele><time>2026-04-29T10:38:05.598Z</time></trkpt><trkpt lat="43.4521434" lon="11.8812938"><ele>258.0</ele><time>2026-04-29T10:38:06.612Z</time></trkpt><trkpt lat="43.4521164" lon="11.8812068"><ele>258.0</ele><time>2026-04-29T10:38:07.602Z</time></trkpt><trkpt lat="43.4521323" lon="11.8810516"><ele>258.0</ele><time>2026-04-29T10:38:09.596Z</time></trkpt><trkpt lat="43.4521405" lon="11.8809284"><ele>258.0</ele><time>2026-04-29T10:38:11.606Z</time></trkpt><trkpt lat="43.4521015" lon="11.8808139"><ele>258.0</ele><time>2026-04-29T10:38:14.601Z</time></trkpt><trkpt lat="43.4520944" lon="11.8807094"><ele>257.2</ele><time>2026-04-29T10:38:18.594Z</time></trkpt><trkpt lat="43.452053" lon="11.8806385"><ele>256.4</ele><time>2026-04-29T10:38:24.611Z</time></trkpt><trkpt lat="43.4520092" lon="11.8804802"><ele>255.59999999999997</ele><time>2026-04-29T10:40:33.585Z</time></trkpt><trkpt lat="43.4519156" lon="11.8804788"><ele>254.79999999999998</ele><time>2026-04-29T10:40:35.596Z</time></trkpt><trkpt lat="43.4518321" lon="11.880451"><ele>254.0</ele><time>2026-04-29T10:40:44.626Z</time></trkpt><trkpt lat="43.4517811" lon="11.880281"><ele>254.0</ele><time>2026-04-29T10:40:46.598Z</time></trkpt><trkpt lat="43.4517455" lon="11.8801693"><ele>253.99999999999997</ele><time>2026-04-29T10:40:47.607Z</time></trkpt><trkpt lat="43.4517036" lon="11.8800491"><ele>253.99999999999997</ele><time>2026-04-29T10:40:48.61Z</time></trkpt><trkpt lat="43.4516596" lon="11.8799193"><ele>254.0</ele><time>2026-04-29T10:40:49.603Z</time></trkpt><trkpt lat="43.4516167" lon="11.879779"><ele>254.0</ele><time>2026-04-29T10:40:50.585Z</time></trkpt><trkpt lat="43.4515873" lon="11.8796401"><ele>254.0</ele><time>2026-04-29T10:40:51.591Z</time></trkpt><trkpt lat="43.4515799" lon="11.879517"><ele>253.99999999999997</ele><time>2026-04-29T10:40:52.586Z</time></trkpt><trkpt lat="43.4515929" lon="11.8794193"><ele>253.99999999999997</ele><time>2026-04-29T10:40:53.59Z</time></trkpt><trkpt lat="43.4516477" lon="11.8793109"><ele>254.0</ele><time>2026-04-29T10:40:55.59Z</time></trkpt><trkpt lat="43.4517397" lon="11.8791949"><ele>254.0</ele><time>2026-04-29T10:40:57.612Z</time></trkpt><trkpt lat="43.451805" lon="11.8791112"><ele>254.16666666666669</ele><time>2026-04-29T10:40:58.618Z</time></trkpt><trkpt lat="43.4518657" lon="11.8790136"><ele>254.33333333333334</ele><time>2026-04-29T10:40:59.603Z</time></trkpt><trkpt lat="43.4519064" lon="11.878912"><ele>254.5</ele><time>2026-04-29T10:41:00.597Z</time></trkpt><trkpt lat="43.4519291" lon="11.878798"><ele>254.66666666666669</ele><time>2026-04-29T10:41:01.637Z</time></trkpt><trkpt lat="43.4519332" lon="11.8786831"><ele>254.83333333333334</ele><time>2026-04-29T10:41:02.616Z</time></trkpt><trkpt lat="43.4519135" lon="11.8785704"><ele>255.0</ele><time>2026-04-29T10:41:03.593Z</time></trkpt><trkpt lat="43.4518805" lon="11.8784661"><ele>255.16666666666666</ele><time>2026-04-29T10:41:04.588Z</time></trkpt><trkpt lat="43.4518381" lon="11.8783774"><ele>255.33333333333331</ele><time>2026-04-29T10:41:05.59Z</time></trkpt><trkpt lat="43.4517846" lon="11.8783043"><ele>255.5</ele><time>2026-04-29T10:41:06.59Z</time></trkpt><trkpt lat="43.4517208" lon="11.8782406"><ele>255.66666666666666</ele><time>2026-04-29T10:41:07.599Z</time></trkpt><trkpt lat="43.4516462" lon="11.8781946"><ele>255.83333333333331</ele><time>2026-04-29T10:41:08.597Z</time></trkpt><trkpt lat="43.4515641" lon="11.8781582"><ele>256.0</ele><time>2026-04-29T10:41:09.604Z</time></trkpt><trkpt lat="43.4514832" lon="11.8781076"><ele>256.0</ele><time>2026-04-29T10:41:10.626Z</time></trkpt><trkpt lat="43.451413" lon="11.8780391"><ele>256.0</ele><time>2026-04-29T10:41:11.602Z</time></trkpt><trkpt lat="43.4513504" lon="11.8779517"><ele>256.0</ele><time>2026-04-29T10:41:12.599Z</time></trkpt><trkpt lat="43.4512913" lon="11.8778534"><ele>256.0</ele><time>2026-04-29T10:41:13.594Z</time></trkpt><trkpt lat="43.4512297" lon="11.8777416"><ele>256.0</ele><time>2026-04-29T10:41:14.619Z</time></trkpt><trkpt lat="43.4511719" lon="11.8776218"><ele>256.5</ele><time>2026-04-29T10:41:15.595Z</time></trkpt><trkpt lat="43.4511088" lon="11.8774853"><ele>257.0</ele><time>2026-04-29T10:41:16.617Z</time></trkpt><trkpt lat="43.4510452" lon="11.877348"><ele>257.5</ele><time>2026-04-29T10:41:17.601Z</time></trkpt><trkpt lat="43.4509798" lon="11.8771996"><ele>258.0</ele><time>2026-04-29T10:41:18.603Z</time></trkpt><trkpt lat="43.450911" lon="11.8770463"><ele>258.0</ele><time>2026-04-29T10:41:19.608Z</time></trkpt><trkpt lat="43.4508409" lon="11.876893"><ele>258.0</ele><time>2026-04-29T10:41:20.587Z</time></trkpt><trkpt lat="43.4507675" lon="11.8767268"><ele>258.0</ele><time>2026-04-29T10:41:21.605Z</time></trkpt><trkpt lat="43.4506944" lon="11.87656"><ele>258.0</ele><time>2026-04-29T10:41:22.603Z</time></trkpt><trkpt lat="43.4506269" lon="11.8764034"><ele>258.0</ele><time>2026-04-29T10:41:23.601Z</time></trkpt><trkpt lat="43.4505617" lon="11.8762499"><ele>258.0</ele><time>2026-04-29T10:41:24.604Z</time></trkpt><trkpt lat="43.4504918" lon="11.8760898"><ele>258.0</ele><time>2026-04-29T10:41:25.609Z</time></trkpt><trkpt lat="43.4504187" lon="11.8759242"><ele>258.0</ele><time>2026-04-29T10:41:26.603Z</time></trkpt><trkpt lat="43.450343" lon="11.8757468"><ele>258.0</ele><time>2026-04-29T10:41:27.619Z</time></trkpt><trkpt lat="43.4502691" lon="11.8755694"><ele>258.0</ele><time>2026-04-29T10:41:28.601Z</time></trkpt><trkpt lat="43.4501944" lon="11.875383"><ele>258.0</ele><time>2026-04-29T10:41:29.61Z</time></trkpt><trkpt lat="43.450124" lon="11.8751964"><ele>258.0</ele><time>2026-04-29T10:41:30.623Z</time></trkpt><trkpt lat="43.4500613" lon="11.8750255"><ele>258.0</ele><time>2026-04-29T10:41:31.598Z</time></trkpt><trkpt lat="43.450002" lon="11.8748555"><ele>258.0</ele><time>2026-04-29T10:41:32.608Z</time></trkpt><trkpt lat="43.4499435" lon="11.8746862"><ele>258.0</ele><time>2026-04-29T10:41:33.602Z</time></trkpt><trkpt lat="43.4498851" lon="11.8745151"><ele>258.0</ele><time>2026-04-29T10:41:34.591Z</time></trkpt><trkpt lat="43.4498243" lon="11.8743352"><ele>258.0</ele><time>2026-04-29T10:41:35.619Z</time></trkpt><trkpt lat="43.4497646" lon="11.8741598"><ele>258.0</ele><time>2026-04-29T10:41:36.611Z</time></trkpt><trkpt lat="43.4497044" lon="11.8739845"><ele>258.0</ele><time>2026-04-29T10:41:37.594Z</time></trkpt><trkpt lat="43.4496425" lon="11.8738032"><ele>257.75</ele><time>2026-04-29T10:41:38.596Z</time></trkpt><trkpt lat="43.4495809" lon="11.8736246"><ele>257.5</ele><time>2026-04-29T10:41:39.579Z</time></trkpt><trkpt lat="43.4495163" lon="11.8734397"><ele>257.25</ele><time>2026-04-29T10:41:40.592Z</time></trkpt><trkpt lat="43.4494529" lon="11.8732551"><ele>257.0</ele><time>2026-04-29T10:41:41.606Z</time></trkpt><trkpt lat="43.4493909" lon="11.8730768"><ele>257.0</ele><time>2026-04-29T10:41:42.6Z</time></trkpt><trkpt lat="43.4493281" lon="11.8728933"><ele>257.0</ele><time>2026-04-29T10:41:43.638Z</time></trkpt><trkpt lat="43.449272" lon="11.8727237"><ele>257.0</ele><time>2026-04-29T10:41:44.606Z</time></trkpt><trkpt lat="43.4492256" lon="11.8725475"><ele>257.0</ele><time>2026-04-29T10:41:45.6Z</time></trkpt><trkpt lat="43.4492011" lon="11.8723649"><ele>257.0</ele><time>2026-04-29T10:41:46.617Z</time></trkpt><trkpt lat="43.4492116" lon="11.8721875"><ele>257.0</ele><time>2026-04-29T10:41:47.624Z</time></trkpt><trkpt lat="43.4492481" lon="11.8720163"><ele>257.0</ele><time>2026-04-29T10:41:48.621Z</time></trkpt><trkpt lat="43.4493064" lon="11.8718522"><ele>257.0</ele><time>2026-04-29T10:41:49.62Z</time></trkpt><trkpt lat="43.4493753" lon="11.8716927"><ele>257.0</ele><time>2026-04-29T10:41:50.61Z</time></trkpt><trkpt lat="43.4494525" lon="11.8715284"><ele>257.0</ele><time>2026-04-29T10:41:51.613Z</time></trkpt><trkpt lat="43.4495361" lon="11.8713637"><ele>257.0</ele><time>2026-04-29T10:41:52.615Z</time></trkpt><trkpt lat="43.4496246" lon="11.871203"><ele>257.0</ele><time>2026-04-29T10:41:53.607Z</time></trkpt><trkpt lat="43.449718" lon="11.8710374"><ele>256.6666666666667</ele><time>2026-04-29T10:41:54.615Z</time></trkpt><trkpt lat="43.4498155" lon="11.8708674"><ele>256.3333333333333</ele><time>2026-04-29T10:41:55.6Z</time></trkpt><trkpt lat="43.4499281" lon="11.870674"><ele>256.0</ele><time>2026-04-29T10:41:56.614Z</time></trkpt><trkpt lat="43.4500471" lon="11.8704664"><ele>256.0</ele><time>2026-04-29T10:41:57.607Z</time></trkpt><trkpt lat="43.4501733" lon="11.8702415"><ele>256.0</ele><time>2026-04-29T10:41:58.614Z</time></trkpt><trkpt lat="43.4503011" lon="11.8700114"><ele>256.0</ele><time>2026-04-29T10:41:59.593Z</time></trkpt><trkpt lat="43.4504403" lon="11.8697598"><ele>256.0</ele><time>2026-04-29T10:42:00.625Z</time></trkpt><trkpt lat="43.4505745" lon="11.8695202"><ele>256.0</ele><time>2026-04-29T10:42:01.592Z</time></trkpt><trkpt lat="43.4507179" lon="11.8692641"><ele>256.0</ele><time>2026-04-29T10:42:02.611Z</time></trkpt><trkpt lat="43.4508562" lon="11.8690228"><ele>256.0</ele><time>2026-04-29T10:42:03.618Z</time></trkpt><trkpt lat="43.450988" lon="11.8687978"><ele>256.0</ele><time>2026-04-29T10:42:04.604Z</time></trkpt><trkpt lat="43.4511102" lon="11.8685883"><ele>255.66666666666666</ele><time>2026-04-29T10:42:05.599Z</time></trkpt><trkpt lat="43.4512218" lon="11.8683954"><ele>255.33333333333331</ele><time>2026-04-29T10:42:06.595Z</time></trkpt><trkpt lat="43.4513276" lon="11.8682122"><ele>255.0</ele><time>2026-04-29T10:42:07.63Z</time></trkpt><trkpt lat="43.4514178" lon="11.868054"><ele>254.75</ele><time>2026-04-29T10:42:08.611Z</time></trkpt><trkpt lat="43.451501" lon="11.8679087"><ele>254.5</ele><time>2026-04-29T10:42:09.602Z</time></trkpt><trkpt lat="43.4515813" lon="11.8677717"><ele>254.25</ele><time>2026-04-29T10:42:10.611Z</time></trkpt><trkpt lat="43.4516598" lon="11.8676435"><ele>254.0</ele><time>2026-04-29T10:42:11.632Z</time></trkpt><trkpt lat="43.4517295" lon="11.8675337"><ele>254.0</ele><time>2026-04-29T10:42:12.611Z</time></trkpt><trkpt lat="43.4517934" lon="11.8674345"><ele>253.99999999999997</ele><time>2026-04-29T10:42:13.609Z</time></trkpt><trkpt lat="43.4518551" lon="11.8673449"><ele>253.99999999999997</ele><time>2026-04-29T10:42:14.61Z</time></trkpt><trkpt lat="43.4519091" lon="11.8672661"><ele>254.0</ele><time>2026-04-29T10:42:15.66Z</time></trkpt><trkpt lat="43.4519817" lon="11.8671545"><ele>254.0</ele><time>2026-04-29T10:42:17.603Z</time></trkpt><trkpt lat="43.4520372" lon="11.8670472"><ele>254.0</ele><time>2026-04-29T10:42:19.632Z</time></trkpt><trkpt lat="43.4520788" lon="11.8669792"><ele>253.99999999999997</ele><time>2026-04-29T10:42:20.597Z</time></trkpt><trkpt lat="43.4521239" lon="11.8669082"><ele>253.99999999999997</ele><time>2026-04-29T10:42:21.63Z</time></trkpt><trkpt lat="43.4522218" lon="11.8667697"><ele>254.0</ele><time>2026-04-29T10:42:23.626Z</time></trkpt><trkpt lat="43.4522866" lon="11.8666667"><ele>254.0</ele><time>2026-04-29T10:42:24.635Z</time></trkpt><trkpt lat="43.4523707" lon="11.8665382"><ele>253.0</ele><time>2026-04-29T10:42:25.603Z</time></trkpt><trkpt lat="43.4524852" lon="11.8663954"><ele>252.0</ele><time>2026-04-29T10:42:26.625Z</time></trkpt><trkpt lat="43.4526117" lon="11.8662488"><ele>251.0</ele><time>2026-04-29T10:42:27.621Z</time></trkpt><trkpt lat="43.4527322" lon="11.8661023"><ele>251.0</ele><time>2026-04-29T10:42:28.617Z</time></trkpt><trkpt lat="43.4528424" lon="11.8659747"><ele>251.0</ele><time>2026-04-29T10:42:29.614Z</time></trkpt><trkpt lat="43.4529409" lon="11.8658726"><ele>251.0</ele><time>2026-04-29T10:42:30.618Z</time></trkpt><trkpt lat="43.453026" lon="11.8657958"><ele>251.0</ele><time>2026-04-29T10:42:31.59Z</time></trkpt><trkpt lat="43.4531202" lon="11.8657371"><ele>251.20000000000002</ele><time>2026-04-29T10:42:32.625Z</time></trkpt><trkpt lat="43.4532282" lon="11.8657071"><ele>251.40000000000003</ele><time>2026-04-29T10:42:33.618Z</time></trkpt><trkpt lat="43.453334" lon="11.8656643"><ele>251.6</ele><time>2026-04-29T10:42:34.643Z</time></trkpt><trkpt lat="43.4534151" lon="11.8655813"><ele>251.8</ele><time>2026-04-29T10:42:35.621Z</time></trkpt><trkpt lat="43.4534789" lon="11.8654612"><ele>252.0</ele><time>2026-04-29T10:42:36.619Z</time></trkpt><trkpt lat="43.4535274" lon="11.8653099"><ele>252.0</ele><time>2026-04-29T10:42:37.617Z</time></trkpt><trkpt lat="43.4535895" lon="11.8651502"><ele>252.0</ele><time>2026-04-29T10:42:38.61Z</time></trkpt><trkpt lat="43.4536794" lon="11.8649983"><ele>252.0</ele><time>2026-04-29T10:42:39.621Z</time></trkpt><trkpt lat="43.4537902" lon="11.8648603"><ele>252.0</ele><time>2026-04-29T10:42:40.598Z</time></trkpt><trkpt lat="43.453921" lon="11.8647201"><ele>253.0</ele><time>2026-04-29T10:42:41.622Z</time></trkpt><trkpt lat="43.4540539" lon="11.8645896"><ele>254.0</ele><time>2026-04-29T10:42:42.597Z</time></trkpt><trkpt lat="43.454197" lon="11.8644577"><ele>255.0</ele><time>2026-04-29T10:42:43.597Z</time></trkpt><trkpt lat="43.4543433" lon="11.86433"><ele>255.0</ele><time>2026-04-29T10:42:44.592Z</time></trkpt><trkpt lat="43.4544953" lon="11.8642036"><ele>255.0</ele><time>2026-04-29T10:42:45.604Z</time></trkpt><trkpt lat="43.4546489" lon="11.8640798"><ele>255.0</ele><time>2026-04-29T10:42:46.627Z</time></trkpt><trkpt lat="43.4547896" lon="11.8639721"><ele>254.33333333333331</ele><time>2026-04-29T10:42:47.597Z</time></trkpt><trkpt lat="43.4549332" lon="11.8638608"><ele>253.66666666666666</ele><time>2026-04-29T10:42:48.593Z</time></trkpt><trkpt lat="43.4550782" lon="11.8637484"><ele>253.0</ele><time>2026-04-29T10:42:49.602Z</time></trkpt><trkpt lat="43.4552245" lon="11.8636368"><ele>253.0</ele><time>2026-04-29T10:42:50.615Z</time></trkpt><trkpt lat="43.4553703" lon="11.8635285"><ele>253.0</ele><time>2026-04-29T10:42:51.631Z</time></trkpt><trkpt lat="43.455507" lon="11.8634282"><ele>253.0</ele><time>2026-04-29T10:42:52.598Z</time></trkpt><trkpt lat="43.4556518" lon="11.8633272"><ele>252.33333333333331</ele><time>2026-04-29T10:42:53.617Z</time></trkpt><trkpt lat="43.4557953" lon="11.8632295"><ele>251.66666666666669</ele><time>2026-04-29T10:42:54.615Z</time></trkpt><trkpt lat="43.4559405" lon="11.8631308"><ele>251.0</ele><time>2026-04-29T10:42:55.606Z</time></trkpt><trkpt lat="43.4560946" lon="11.8630283"><ele>251.0</ele><time>2026-04-29T10:42:56.612Z</time></trkpt><trkpt lat="43.4562583" lon="11.8629247"><ele>251.0</ele><time>2026-04-29T10:42:57.635Z</time></trkpt><trkpt lat="43.4564181" lon="11.8628277"><ele>251.0</ele><time>2026-04-29T10:42:58.599Z</time></trkpt><trkpt lat="43.4565921" lon="11.8627279"><ele>251.0</ele><time>2026-04-29T10:42:59.611Z</time></trkpt><trkpt lat="43.4567656" lon="11.8626321"><ele>251.0</ele><time>2026-04-29T10:43:00.604Z</time></trkpt><trkpt lat="43.4569454" lon="11.8625393"><ele>251.0</ele><time>2026-04-29T10:43:01.601Z</time></trkpt><trkpt lat="43.4571237" lon="11.8624449"><ele>250.33333333333334</ele><time>2026-04-29T10:43:02.59Z</time></trkpt><trkpt lat="43.4573104" lon="11.8623538"><ele>249.66666666666669</ele><time>2026-04-29T10:43:03.605Z</time></trkpt><trkpt lat="43.4574978" lon="11.8622644"><ele>249.0</ele><time>2026-04-29T10:43:04.618Z</time></trkpt><trkpt lat="43.4576851" lon="11.8621777"><ele>249.0</ele><time>2026-04-29T10:43:05.62Z</time></trkpt><trkpt lat="43.4578722" lon="11.8620941"><ele>249.0</ele><time>2026-04-29T10:43:06.621Z</time></trkpt><trkpt lat="43.4580561" lon="11.8620159"><ele>249.0</ele><time>2026-04-29T10:43:07.622Z</time></trkpt><trkpt lat="43.4582281" lon="11.8619457"><ele>248.75</ele><time>2026-04-29T10:43:08.614Z</time></trkpt><trkpt lat="43.4583845" lon="11.8618854"><ele>248.5</ele><time>2026-04-29T10:43:09.622Z</time></trkpt><trkpt lat="43.4585182" lon="11.8618381"><ele>248.25</ele><time>2026-04-29T10:43:10.631Z</time></trkpt><trkpt lat="43.4586276" lon="11.8618074"><ele>248.0</ele><time>2026-04-29T10:43:11.609Z</time></trkpt><trkpt lat="43.4587205" lon="11.8617955"><ele>248.33333333333334</ele><time>2026-04-29T10:43:12.598Z</time></trkpt><trkpt lat="43.4587955" lon="11.8618051"><ele>248.66666666666669</ele><time>2026-04-29T10:43:13.599Z</time></trkpt><trkpt lat="43.4588731" lon="11.8618396"><ele>249.0</ele><time>2026-04-29T10:43:15.643Z</time></trkpt><trkpt lat="43.4589339" lon="11.8618823"><ele>249.33333333333331</ele><time>2026-04-29T10:43:17.619Z</time></trkpt><trkpt lat="43.4589899" lon="11.8619317"><ele>249.66666666666666</ele><time>2026-04-29T10:43:18.618Z</time></trkpt><trkpt lat="43.4590586" lon="11.8619903"><ele>250.0</ele><time>2026-04-29T10:43:19.604Z</time></trkpt><trkpt lat="43.4591585" lon="11.8620475"><ele>250.0</ele><time>2026-04-29T10:43:20.612Z</time></trkpt><trkpt lat="43.4592747" lon="11.8620574"><ele>250.0</ele><time>2026-04-29T10:43:21.639Z</time></trkpt><trkpt lat="43.4593917" lon="11.8620141"><ele>250.0</ele><time>2026-04-29T10:43:22.621Z</time></trkpt><trkpt lat="43.4594977" lon="11.8619201"><ele>250.0</ele><time>2026-04-29T10:43:23.609Z</time></trkpt><trkpt lat="43.4595878" lon="11.8617869"><ele>250.0</ele><time>2026-04-29T10:43:24.592Z</time></trkpt><trkpt lat="43.4596844" lon="11.861642"><ele>250.0</ele><time>2026-04-29T10:43:25.609Z</time></trkpt><trkpt lat="43.4598004" lon="11.8615489"><ele>250.0</ele><time>2026-04-29T10:43:26.613Z</time></trkpt><trkpt lat="43.4599349" lon="11.8615028"><ele>250.0</ele><time>2026-04-29T10:43:27.614Z</time></trkpt><trkpt lat="43.4600875" lon="11.8614745"><ele>250.0</ele><time>2026-04-29T10:43:28.624Z</time></trkpt><trkpt lat="43.4602425" lon="11.8614515"><ele>250.0</ele><time>2026-04-29T10:43:29.613Z</time></trkpt><trkpt lat="43.4604035" lon="11.8614265"><ele>250.0</ele><time>2026-04-29T10:43:30.602Z</time></trkpt><trkpt lat="43.4605691" lon="11.8613961"><ele>250.0</ele><time>2026-04-29T10:43:31.606Z</time></trkpt><trkpt lat="43.4607405" lon="11.8613661"><ele>250.0</ele><time>2026-04-29T10:43:32.619Z</time></trkpt><trkpt lat="43.4609174" lon="11.8613427"><ele>250.0</ele><time>2026-04-29T10:43:33.62Z</time></trkpt><trkpt lat="43.4610981" lon="11.8613246"><ele>249.33333333333331</ele><time>2026-04-29T10:43:34.607Z</time></trkpt><trkpt lat="43.4612885" lon="11.8613074"><ele>248.66666666666669</ele><time>2026-04-29T10:43:35.616Z</time></trkpt><trkpt lat="43.4614818" lon="11.8612906"><ele>248.0</ele><time>2026-04-29T10:43:36.617Z</time></trkpt><trkpt lat="43.4616765" lon="11.8612767"><ele>248.0</ele><time>2026-04-29T10:43:37.613Z</time></trkpt><trkpt lat="43.461876" lon="11.8612653"><ele>248.0</ele><time>2026-04-29T10:43:38.62Z</time></trkpt><trkpt lat="43.4620735" lon="11.8612557"><ele>248.0</ele><time>2026-04-29T10:43:39.596Z</time></trkpt><trkpt lat="43.4622813" lon="11.8612448"><ele>248.33333333333334</ele><time>2026-04-29T10:43:40.606Z</time></trkpt><trkpt lat="43.4624886" lon="11.8612312"><ele>248.66666666666669</ele><time>2026-04-29T10:43:41.597Z</time></trkpt><trkpt lat="43.4627076" lon="11.8612128"><ele>249.0</ele><time>2026-04-29T10:43:42.627Z</time></trkpt><trkpt lat="43.4629224" lon="11.861193"><ele>249.0</ele><time>2026-04-29T10:43:43.62Z</time></trkpt><trkpt lat="43.4631369" lon="11.8611729"><ele>249.0</ele><time>2026-04-29T10:43:44.603Z</time></trkpt><trkpt lat="43.4633578" lon="11.8611501"><ele>249.0</ele><time>2026-04-29T10:43:45.607Z</time></trkpt><trkpt lat="43.4635799" lon="11.8611256"><ele>249.0</ele><time>2026-04-29T10:43:46.606Z</time></trkpt><trkpt lat="43.4638027" lon="11.8611036"><ele>249.0</ele><time>2026-04-29T10:43:47.606Z</time></trkpt><trkpt lat="43.4640309" lon="11.8610838"><ele>249.0</ele><time>2026-04-29T10:43:48.625Z</time></trkpt><trkpt lat="43.4642531" lon="11.8610651"><ele>249.0</ele><time>2026-04-29T10:43:49.623Z</time></trkpt><trkpt lat="43.4644714" lon="11.8610455"><ele>249.0</ele><time>2026-04-29T10:43:50.609Z</time></trkpt><trkpt lat="43.4646951" lon="11.8610247"><ele>249.33333333333331</ele><time>2026-04-29T10:43:51.618Z</time></trkpt><trkpt lat="43.4649177" lon="11.8610035"><ele>249.66666666666666</ele><time>2026-04-29T10:43:52.624Z</time></trkpt><trkpt lat="43.4651404" lon="11.8609836"><ele>250.0</ele><time>2026-04-29T10:43:53.626Z</time></trkpt><trkpt lat="43.4653599" lon="11.860967"><ele>250.0</ele><time>2026-04-29T10:43:54.612Z</time></trkpt><trkpt lat="43.4655826" lon="11.8609539"><ele>250.0</ele><time>2026-04-29T10:43:55.609Z</time></trkpt><trkpt lat="43.4658112" lon="11.8609454"><ele>250.5</ele><time>2026-04-29T10:43:56.628Z</time></trkpt><trkpt lat="43.4660324" lon="11.8609418"><ele>251.0</ele><time>2026-04-29T10:43:57.606Z</time></trkpt><trkpt lat="43.4662611" lon="11.8609444"><ele>250.33333333333334</ele><time>2026-04-29T10:43:58.62Z</time></trkpt><trkpt lat="43.4664833" lon="11.8609528"><ele>249.66666666666669</ele><time>2026-04-29T10:43:59.609Z</time></trkpt><trkpt lat="43.4667009" lon="11.8609647"><ele>249.0</ele><time>2026-04-29T10:44:00.622Z</time></trkpt><trkpt lat="43.4669054" lon="11.8609813"><ele>249.0</ele><time>2026-04-29T10:44:01.609Z</time></trkpt><trkpt lat="43.4671057" lon="11.8610047"><ele>249.0</ele><time>2026-04-29T10:44:02.61Z</time></trkpt><trkpt lat="43.4672997" lon="11.8610327"><ele>249.0</ele><time>2026-04-29T10:44:03.615Z</time></trkpt><trkpt lat="43.4674738" lon="11.8610531"><ele>249.0</ele><time>2026-04-29T10:44:04.606Z</time></trkpt><trkpt lat="43.4676463" lon="11.8610816"><ele>249.0</ele><time>2026-04-29T10:44:05.639Z</time></trkpt><trkpt lat="43.4677995" lon="11.861108"><ele>249.0</ele><time>2026-04-29T10:44:06.622Z</time></trkpt><trkpt lat="43.4679437" lon="11.8611328"><ele>249.0</ele><time>2026-04-29T10:44:07.607Z</time></trkpt><trkpt lat="43.4680743" lon="11.8611545"><ele>249.0</ele><time>2026-04-29T10:44:08.56Z</time></trkpt><trkpt lat="43.4682047" lon="11.8611787"><ele>249.0</ele><time>2026-04-29T10:44:09.537Z</time></trkpt><trkpt lat="43.4683364" lon="11.8612052"><ele>249.0</ele><time>2026-04-29T10:44:10.547Z</time></trkpt><trkpt lat="43.4684645" lon="11.8612341"><ele>249.0</ele><time>2026-04-29T10:44:11.549Z</time></trkpt><trkpt lat="43.4685863" lon="11.8612622"><ele>248.99999999999997</ele><time>2026-04-29T10:44:12.561Z</time></trkpt><trkpt lat="43.4686955" lon="11.861287"><ele>248.99999999999997</ele><time>2026-04-29T10:44:13.548Z</time></trkpt><trkpt lat="43.4687998" lon="11.8613133"><ele>249.0</ele><time>2026-04-29T10:44:14.56Z</time></trkpt><trkpt lat="43.46889" lon="11.861341"><ele>249.0</ele><time>2026-04-29T10:44:15.555Z</time></trkpt><trkpt lat="43.4689751" lon="11.8613656"><ele>249.0</ele><time>2026-04-29T10:44:16.573Z</time></trkpt><trkpt lat="43.4690493" lon="11.8613904"><ele>249.0</ele><time>2026-04-29T10:44:17.59Z</time></trkpt><trkpt lat="43.4691123" lon="11.8614086"><ele>249.0</ele><time>2026-04-29T10:44:18.566Z</time></trkpt><trkpt lat="43.4692096" lon="11.8614509"><ele>249.0</ele><time>2026-04-29T10:44:20.571Z</time></trkpt><trkpt lat="43.4693202" lon="11.861473"><ele>249.0</ele><time>2026-04-29T10:44:22.576Z</time></trkpt><trkpt lat="43.4694022" lon="11.8614829"><ele>249.0</ele><time>2026-04-29T10:44:23.552Z</time></trkpt><trkpt lat="43.4694847" lon="11.8615174"><ele>249.0</ele><time>2026-04-29T10:44:24.555Z</time></trkpt><trkpt lat="43.4695873" lon="11.8615432"><ele>248.99999999999997</ele><time>2026-04-29T10:44:25.568Z</time></trkpt><trkpt lat="43.4696768" lon="11.8615515"><ele>248.99999999999997</ele><time>2026-04-29T10:44:26.562Z</time></trkpt><trkpt lat="43.4697606" lon="11.8615666"><ele>249.0</ele><time>2026-04-29T10:44:27.562Z</time></trkpt><trkpt lat="43.4698536" lon="11.8615983"><ele>249.0</ele><time>2026-04-29T10:44:28.558Z</time></trkpt><trkpt lat="43.469928" lon="11.8616255"><ele>248.79999999999998</ele><time>2026-04-29T10:44:29.563Z</time></trkpt><trkpt lat="43.4700103" lon="11.8616522"><ele>248.59999999999997</ele><time>2026-04-29T10:44:30.577Z</time></trkpt><trkpt lat="43.470095" lon="11.8616779"><ele>248.4</ele><time>2026-04-29T10:44:31.564Z</time></trkpt><trkpt lat="43.4701888" lon="11.8617019"><ele>248.2</ele><time>2026-04-29T10:44:32.561Z</time></trkpt><trkpt lat="43.4702846" lon="11.8617296"><ele>248.0</ele><time>2026-04-29T10:44:33.554Z</time></trkpt><trkpt lat="43.470397" lon="11.8617685"><ele>248.25</ele><time>2026-04-29T10:44:34.568Z</time></trkpt><trkpt lat="43.4705328" lon="11.8618117"><ele>248.5</ele><time>2026-04-29T10:44:35.562Z</time></trkpt><trkpt lat="43.470679" lon="11.8618498"><ele>248.75</ele><time>2026-04-29T10:44:36.591Z</time></trkpt><trkpt lat="43.4708158" lon="11.8618878"><ele>249.0</ele><time>2026-04-29T10:44:37.559Z</time></trkpt><trkpt lat="43.4709498" lon="11.8619255"><ele>249.0</ele><time>2026-04-29T10:44:38.567Z</time></trkpt><trkpt lat="43.4710724" lon="11.8619621"><ele>248.99999999999997</ele><time>2026-04-29T10:44:39.561Z</time></trkpt><trkpt lat="43.4711815" lon="11.8619999"><ele>248.99999999999997</ele><time>2026-04-29T10:44:40.546Z</time></trkpt><trkpt lat="43.4712768" lon="11.8620298"><ele>249.0</ele><time>2026-04-29T10:44:41.574Z</time></trkpt><trkpt lat="43.4713595" lon="11.8620562"><ele>249.0</ele><time>2026-04-29T10:44:42.548Z</time></trkpt><trkpt lat="43.4714358" lon="11.8620779"><ele>249.16666666666666</ele><time>2026-04-29T10:44:43.549Z</time></trkpt><trkpt lat="43.4715073" lon="11.8620991"><ele>249.33333333333331</ele><time>2026-04-29T10:44:44.545Z</time></trkpt><trkpt lat="43.4715775" lon="11.8621199"><ele>249.5</ele><time>2026-04-29T10:44:45.557Z</time></trkpt><trkpt lat="43.4716495" lon="11.8621425"><ele>249.66666666666666</ele><time>2026-04-29T10:44:46.543Z</time></trkpt><trkpt lat="43.471725" lon="11.8621638"><ele>249.83333333333331</ele><time>2026-04-29T10:44:47.542Z</time></trkpt><trkpt lat="43.4718" lon="11.8621896"><ele>250.0</ele><time>2026-04-29T10:44:48.547Z</time></trkpt><trkpt lat="43.4718749" lon="11.8622214"><ele>249.99999999999997</ele><time>2026-04-29T10:44:49.541Z</time></trkpt><trkpt lat="43.4719494" lon="11.8622582"><ele>250.0</ele><time>2026-04-29T10:44:50.551Z</time></trkpt><trkpt lat="43.4720138" lon="11.8622939"><ele>250.0</ele><time>2026-04-29T10:44:51.542Z</time></trkpt><trkpt lat="43.472078" lon="11.8623304"><ele>250.0</ele><time>2026-04-29T10:44:52.554Z</time></trkpt><trkpt lat="43.4721402" lon="11.8623659"><ele>249.99999999999997</ele><time>2026-04-29T10:44:53.556Z</time></trkpt><trkpt lat="43.472245" lon="11.8624237"><ele>250.0</ele><time>2026-04-29T10:44:55.547Z</time></trkpt><trkpt lat="43.4723215" lon="11.8624713"><ele>249.4</ele><time>2026-04-29T10:44:57.547Z</time></trkpt><trkpt lat="43.4723964" lon="11.8625277"><ele>248.8</ele><time>2026-04-29T10:45:00.558Z</time></trkpt><trkpt lat="43.4724491" lon="11.862593"><ele>248.2</ele><time>2026-04-29T10:45:18.545Z</time></trkpt><trkpt lat="43.472514" lon="11.8626506"><ele>247.6</ele><time>2026-04-29T10:45:19.549Z</time></trkpt><trkpt lat="43.4725987" lon="11.862721"><ele>247.0</ele><time>2026-04-29T10:45:20.556Z</time></trkpt><trkpt lat="43.4727077" lon="11.8628131"><ele>246.66666666666666</ele><time>2026-04-29T10:45:21.552Z</time></trkpt><trkpt lat="43.4728315" lon="11.8629235"><ele>246.33333333333331</ele><time>2026-04-29T10:45:22.547Z</time></trkpt><trkpt lat="43.4729698" lon="11.8630432"><ele>246.0</ele><time>2026-04-29T10:45:23.547Z</time></trkpt><trkpt lat="43.473117" lon="11.8631684"><ele>246.0</ele><time>2026-04-29T10:45:24.539Z</time></trkpt><trkpt lat="43.4732748" lon="11.8633002"><ele>246.0</ele><time>2026-04-29T10:45:25.556Z</time></trkpt><trkpt lat="43.4734399" lon="11.8634376"><ele>246.0</ele><time>2026-04-29T10:45:26.549Z</time></trkpt><trkpt lat="43.4736066" lon="11.8635785"><ele>245.66666666666669</ele><time>2026-04-29T10:45:27.544Z</time></trkpt><trkpt lat="43.4737772" lon="11.8637251"><ele>245.33333333333334</ele><time>2026-04-29T10:45:28.551Z</time></trkpt><trkpt lat="43.4739536" lon="11.8638806"><ele>245.0</ele><time>2026-04-29T10:45:29.559Z</time></trkpt><trkpt lat="43.4741338" lon="11.8640388"><ele>245.0</ele><time>2026-04-29T10:45:30.547Z</time></trkpt><trkpt lat="43.4743182" lon="11.8641983"><ele>245.0</ele><time>2026-04-29T10:45:31.551Z</time></trkpt><trkpt lat="43.4745063" lon="11.8643619"><ele>245.0</ele><time>2026-04-29T10:45:32.555Z</time></trkpt><trkpt lat="43.4747028" lon="11.8645243"><ele>245.5</ele><time>2026-04-29T10:45:33.557Z</time></trkpt><trkpt lat="43.4749058" lon="11.8646823"><ele>246.0</ele><time>2026-04-29T10:45:34.554Z</time></trkpt><trkpt lat="43.4751159" lon="11.8648417"><ele>246.0</ele><time>2026-04-29T10:45:35.564Z</time></trkpt><trkpt lat="43.475323" lon="11.8649928"><ele>246.0</ele><time>2026-04-29T10:45:36.547Z</time></trkpt><trkpt lat="43.4755383" lon="11.865149"><ele>247.0</ele><time>2026-04-29T10:45:37.558Z</time></trkpt><trkpt lat="43.4757504" lon="11.8653074"><ele>248.0</ele><time>2026-04-29T10:45:38.552Z</time></trkpt><trkpt lat="43.4759627" lon="11.8654697"><ele>248.0</ele><time>2026-04-29T10:45:39.541Z</time></trkpt><trkpt lat="43.4761776" lon="11.8656384"><ele>248.0</ele><time>2026-04-29T10:45:40.54Z</time></trkpt><trkpt lat="43.4763978" lon="11.86581"><ele>248.5</ele><time>2026-04-29T10:45:41.55Z</time></trkpt><trkpt lat="43.4766162" lon="11.8659772"><ele>249.0</ele><time>2026-04-29T10:45:42.544Z</time></trkpt><trkpt lat="43.4768352" lon="11.8661459"><ele>249.0</ele><time>2026-04-29T10:45:43.559Z</time></trkpt><trkpt lat="43.4770393" lon="11.8663056"><ele>249.0</ele><time>2026-04-29T10:45:44.551Z</time></trkpt><trkpt lat="43.4772312" lon="11.8664584"><ele>249.0</ele><time>2026-04-29T10:45:45.552Z</time></trkpt><trkpt lat="43.4774061" lon="11.8666049"><ele>249.0</ele><time>2026-04-29T10:45:46.556Z</time></trkpt><trkpt lat="43.477559" lon="11.8667412"><ele>249.0</ele><time>2026-04-29T10:45:47.553Z</time></trkpt><trkpt lat="43.4776837" lon="11.8668624"><ele>248.79999999999998</ele><time>2026-04-29T10:45:48.541Z</time></trkpt><trkpt lat="43.4777825" lon="11.8669702"><ele>248.59999999999997</ele><time>2026-04-29T10:45:49.557Z</time></trkpt><trkpt lat="43.4778521" lon="11.867074"><ele>248.4</ele><time>2026-04-29T10:45:50.547Z</time></trkpt><trkpt lat="43.4778912" lon="11.8672331"><ele>248.2</ele><time>2026-04-29T10:45:52.541Z</time></trkpt><trkpt lat="43.4779268" lon="11.8673468"><ele>248.0</ele><time>2026-04-29T10:45:53.544Z</time></trkpt><trkpt lat="43.4779947" lon="11.8674588"><ele>248.0</ele><time>2026-04-29T10:45:54.544Z</time></trkpt><trkpt lat="43.4780846" lon="11.8675436"><ele>248.0</ele><time>2026-04-29T10:45:55.561Z</time></trkpt><trkpt lat="43.4782003" lon="11.8675981"><ele>248.0</ele><time>2026-04-29T10:45:56.568Z</time></trkpt><trkpt lat="43.4783227" lon="11.8676031"><ele>248.0</ele><time>2026-04-29T10:45:57.555Z</time></trkpt><trkpt lat="43.4784436" lon="11.8675753"><ele>248.0</ele><time>2026-04-29T10:45:58.61Z</time></trkpt><trkpt lat="43.4785435" lon="11.8675229"><ele>248.0</ele><time>2026-04-29T10:45:59.542Z</time></trkpt><trkpt lat="43.4786605" lon="11.8674798"><ele>248.0</ele><time>2026-04-29T10:46:00.555Z</time></trkpt><trkpt lat="43.4787669" lon="11.867471"><ele>248.0</ele><time>2026-04-29T10:46:01.55Z</time></trkpt><trkpt lat="43.478884" lon="11.8675088"><ele>248.25</ele><time>2026-04-29T10:46:02.56Z</time></trkpt><trkpt lat="43.4790082" lon="11.8675773"><ele>248.5</ele><time>2026-04-29T10:46:03.546Z</time></trkpt><trkpt lat="43.4791364" lon="11.8676706"><ele>248.75</ele><time>2026-04-29T10:46:04.553Z</time></trkpt><trkpt lat="43.4792737" lon="11.8677786"><ele>249.0</ele><time>2026-04-29T10:46:05.548Z</time></trkpt><trkpt lat="43.4794231" lon="11.8678962"><ele>248.33333333333331</ele><time>2026-04-29T10:46:06.551Z</time></trkpt><trkpt lat="43.479583" lon="11.8680188"><ele>247.66666666666666</ele><time>2026-04-29T10:46:07.558Z</time></trkpt><trkpt lat="43.4797507" lon="11.8681474"><ele>247.0</ele><time>2026-04-29T10:46:08.557Z</time></trkpt><trkpt lat="43.4799251" lon="11.8682853"><ele>247.0</ele><time>2026-04-29T10:46:09.55Z</time></trkpt><trkpt lat="43.4801026" lon="11.868426"><ele>247.0</ele><time>2026-04-29T10:46:10.55Z</time></trkpt><trkpt lat="43.4802865" lon="11.8685749"><ele>247.0</ele><time>2026-04-29T10:46:11.564Z</time></trkpt><trkpt lat="43.4804721" lon="11.8687245"><ele>247.0</ele><time>2026-04-29T10:46:12.563Z</time></trkpt><trkpt lat="43.4806526" lon="11.8688713"><ele>247.0</ele><time>2026-04-29T10:46:13.558Z</time></trkpt><trkpt lat="43.480838" lon="11.869018"><ele>247.0</ele><time>2026-04-29T10:46:14.543Z</time></trkpt><trkpt lat="43.4810296" lon="11.8691712"><ele>247.33333333333331</ele><time>2026-04-29T10:46:15.549Z</time></trkpt><trkpt lat="43.4812239" lon="11.8693212"><ele>247.66666666666669</ele><time>2026-04-29T10:46:16.549Z</time></trkpt><trkpt lat="43.4814219" lon="11.869473"><ele>248.0</ele><time>2026-04-29T10:46:17.556Z</time></trkpt><trkpt lat="43.4816219" lon="11.8696252"><ele>248.5</ele><time>2026-04-29T10:46:18.563Z</time></trkpt><trkpt lat="43.4818211" lon="11.869774"><ele>249.0</ele><time>2026-04-29T10:46:19.557Z</time></trkpt><trkpt lat="43.4820168" lon="11.8699282"><ele>250.0</ele><time>2026-04-29T10:46:20.549Z</time></trkpt><trkpt lat="43.4822144" lon="11.870079"><ele>251.0</ele><time>2026-04-29T10:46:21.547Z</time></trkpt><trkpt lat="43.4824143" lon="11.870232"><ele>251.0</ele><time>2026-04-29T10:46:22.548Z</time></trkpt><trkpt lat="43.4826159" lon="11.8703856"><ele>251.0</ele><time>2026-04-29T10:46:23.558Z</time></trkpt><trkpt lat="43.4828086" lon="11.8705365"><ele>251.0</ele><time>2026-04-29T10:46:24.546Z</time></trkpt><trkpt lat="43.4830065" lon="11.8706879"><ele>251.0</ele><time>2026-04-29T10:46:25.555Z</time></trkpt><trkpt lat="43.4832075" lon="11.8708412"><ele>250.0</ele><time>2026-04-29T10:46:26.568Z</time></trkpt><trkpt lat="43.4834046" lon="11.8709971"><ele>249.0</ele><time>2026-04-29T10:46:27.563Z</time></trkpt><trkpt lat="43.4836077" lon="11.8711528"><ele>249.66666666666669</ele><time>2026-04-29T10:46:28.566Z</time></trkpt><trkpt lat="43.4837882" lon="11.8713033"><ele>250.33333333333334</ele><time>2026-04-29T10:46:29.545Z</time></trkpt><trkpt lat="43.4839351" lon="11.8714484"><ele>251.0</ele><time>2026-04-29T10:46:30.551Z</time></trkpt><trkpt lat="43.4840604" lon="11.8715923"><ele>251.0</ele><time>2026-04-29T10:46:31.543Z</time></trkpt><trkpt lat="43.4841762" lon="11.8717313"><ele>251.0</ele><time>2026-04-29T10:46:32.547Z</time></trkpt><trkpt lat="43.4842878" lon="11.8718665"><ele>251.0</ele><time>2026-04-29T10:46:33.553Z</time></trkpt><trkpt lat="43.4843917" lon="11.8720004"><ele>251.0</ele><time>2026-04-29T10:46:34.547Z</time></trkpt><trkpt lat="43.4844858" lon="11.8721364"><ele>251.0</ele><time>2026-04-29T10:46:35.557Z</time></trkpt><trkpt lat="43.484575" lon="11.8722698"><ele>251.0</ele><time>2026-04-29T10:46:36.566Z</time></trkpt><trkpt lat="43.4846631" lon="11.8724002"><ele>251.0</ele><time>2026-04-29T10:46:37.549Z</time></trkpt><trkpt lat="43.484756" lon="11.8725377"><ele>251.0</ele><time>2026-04-29T10:46:38.557Z</time></trkpt><trkpt lat="43.4848467" lon="11.8726797"><ele>251.0</ele><time>2026-04-29T10:46:39.554Z</time></trkpt><trkpt lat="43.4849375" lon="11.8728379"><ele>251.0</ele><time>2026-04-29T10:46:40.561Z</time></trkpt><trkpt lat="43.4850228" lon="11.8729992"><ele>251.0</ele><time>2026-04-29T10:46:41.548Z</time></trkpt><trkpt lat="43.48511" lon="11.873173"><ele>251.0</ele><time>2026-04-29T10:46:42.567Z</time></trkpt><trkpt lat="43.485191" lon="11.8733469"><ele>251.0</ele><time>2026-04-29T10:46:43.551Z</time></trkpt><trkpt lat="43.4852704" lon="11.8735198"><ele>251.0</ele><time>2026-04-29T10:46:44.558Z</time></trkpt><trkpt lat="43.4853471" lon="11.8736983"><ele>251.0</ele><time>2026-04-29T10:46:45.558Z</time></trkpt><trkpt lat="43.4854146" lon="11.8738712"><ele>251.0</ele><time>2026-04-29T10:46:46.572Z</time></trkpt><trkpt lat="43.4854772" lon="11.8740437"><ele>251.0</ele><time>2026-04-29T10:46:47.57Z</time></trkpt><trkpt lat="43.4855377" lon="11.8742255"><ele>251.0</ele><time>2026-04-29T10:46:48.563Z</time></trkpt><trkpt lat="43.4855944" lon="11.8744047"><ele>251.0</ele><time>2026-04-29T10:46:49.554Z</time></trkpt><trkpt lat="43.4856457" lon="11.8745746"><ele>251.0</ele><time>2026-04-29T10:46:50.561Z</time></trkpt><trkpt lat="43.4856942" lon="11.8747481"><ele>251.0</ele><time>2026-04-29T10:46:51.548Z</time></trkpt><trkpt lat="43.485737" lon="11.8749192"><ele>251.0</ele><time>2026-04-29T10:46:52.554Z</time></trkpt><trkpt lat="43.4857733" lon="11.8750864"><ele>251.0</ele><time>2026-04-29T10:46:53.564Z</time></trkpt><trkpt lat="43.4858008" lon="11.8752414"><ele>251.0</ele><time>2026-04-29T10:46:54.556Z</time></trkpt><trkpt lat="43.4858214" lon="11.8753868"><ele>250.83333333333334</ele><time>2026-04-29T10:46:55.543Z</time></trkpt><trkpt lat="43.4858368" lon="11.8755181"><ele>250.66666666666669</ele><time>2026-04-29T10:46:56.574Z</time></trkpt><trkpt lat="43.485841" lon="11.8756284"><ele>250.5</ele><time>2026-04-29T10:46:57.553Z</time></trkpt><trkpt lat="43.4858342" lon="11.8757234"><ele>250.33333333333331</ele><time>2026-04-29T10:46:58.556Z</time></trkpt><trkpt lat="43.4858099" lon="11.8758147"><ele>250.16666666666666</ele><time>2026-04-29T10:46:59.566Z</time></trkpt><trkpt lat="43.4857735" lon="11.8759096"><ele>250.0</ele><time>2026-04-29T10:47:00.56Z</time></trkpt><trkpt lat="43.4857293" lon="11.8760058"><ele>250.4</ele><time>2026-04-29T10:47:01.545Z</time></trkpt><trkpt lat="43.4856888" lon="11.8761052"><ele>250.8</ele><time>2026-04-29T10:47:02.567Z</time></trkpt><trkpt lat="43.4856747" lon="11.8762186"><ele>251.2</ele><time>2026-04-29T10:47:03.55Z</time></trkpt><trkpt lat="43.4856872" lon="11.8763554"><ele>251.6</ele><time>2026-04-29T10:47:04.543Z</time></trkpt><trkpt lat="43.4857304" lon="11.876493"><ele>252.0</ele><time>2026-04-29T10:47:05.539Z</time></trkpt><trkpt lat="43.4858043" lon="11.8766102"><ele>252.0</ele><time>2026-04-29T10:47:06.557Z</time></trkpt><trkpt lat="43.4859004" lon="11.8766828"><ele>252.0</ele><time>2026-04-29T10:47:07.552Z</time></trkpt><trkpt lat="43.4860081" lon="11.8767"><ele>252.0</ele><time>2026-04-29T10:47:08.555Z</time></trkpt><trkpt lat="43.4861048" lon="11.8766746"><ele>252.0</ele><time>2026-04-29T10:47:09.544Z</time></trkpt><trkpt lat="43.4861991" lon="11.8765931"><ele>252.0</ele><time>2026-04-29T10:47:10.546Z</time></trkpt><trkpt lat="43.4862954" lon="11.8764857"><ele>252.0</ele><time>2026-04-29T10:47:11.555Z</time></trkpt><trkpt lat="43.4863973" lon="11.8763668"><ele>252.0</ele><time>2026-04-29T10:47:12.562Z</time></trkpt><trkpt lat="43.4865166" lon="11.8762587"><ele>252.0</ele><time>2026-04-29T10:47:13.551Z</time></trkpt><trkpt lat="43.4866557" lon="11.8761794"><ele>252.0</ele><time>2026-04-29T10:47:14.552Z</time></trkpt><trkpt lat="43.4868204" lon="11.8761171"><ele>252.0</ele><time>2026-04-29T10:47:15.563Z</time></trkpt><trkpt lat="43.4869871" lon="11.8760701"><ele>252.0</ele><time>2026-04-29T10:47:16.543Z</time></trkpt><trkpt lat="43.4871784" lon="11.8760297"><ele>252.0</ele><time>2026-04-29T10:47:17.569Z</time></trkpt><trkpt lat="43.4874511" lon="11.8759746"><ele>252.5</ele><time>2026-04-29T10:47:18.903Z</time></trkpt><trkpt lat="43.4877312" lon="11.8759112"><ele>253.0</ele><time>2026-04-29T10:47:20.592Z</time></trkpt><trkpt lat="43.4879282" lon="11.8758677"><ele>253.0</ele><time>2026-04-29T10:47:21.626Z</time></trkpt><trkpt lat="43.4881028" lon="11.8758297"><ele>253.0</ele><time>2026-04-29T10:47:22.609Z</time></trkpt><trkpt lat="43.4882652" lon="11.8757911"><ele>253.0</ele><time>2026-04-29T10:47:23.607Z</time></trkpt><trkpt lat="43.4884047" lon="11.8757586"><ele>253.0</ele><time>2026-04-29T10:47:24.589Z</time></trkpt><trkpt lat="43.4885337" lon="11.8757244"><ele>253.0</ele><time>2026-04-29T10:47:25.616Z</time></trkpt><trkpt lat="43.4886602" lon="11.8756833"><ele>253.0</ele><time>2026-04-29T10:47:26.609Z</time></trkpt><trkpt lat="43.4887922" lon="11.8756446"><ele>253.0</ele><time>2026-04-29T10:47:27.554Z</time></trkpt><trkpt lat="43.4889411" lon="11.8756195"><ele>253.33333333333331</ele><time>2026-04-29T10:47:28.556Z</time></trkpt><trkpt lat="43.4890942" lon="11.875595"><ele>253.66666666666669</ele><time>2026-04-29T10:47:29.547Z</time></trkpt><trkpt lat="43.4892496" lon="11.8755638"><ele>254.0</ele><time>2026-04-29T10:47:30.554Z</time></trkpt><trkpt lat="43.4894007" lon="11.8755377"><ele>254.0</ele><time>2026-04-29T10:47:31.549Z</time></trkpt><trkpt lat="43.4895525" lon="11.875531"><ele>254.0</ele><time>2026-04-29T10:47:32.562Z</time></trkpt><trkpt lat="43.4897089" lon="11.8755532"><ele>254.0</ele><time>2026-04-29T10:47:33.55Z</time></trkpt><trkpt lat="43.4898523" lon="11.8755986"><ele>253.5</ele><time>2026-04-29T10:47:34.55Z</time></trkpt><trkpt lat="43.4899807" lon="11.8756592"><ele>253.0</ele><time>2026-04-29T10:47:35.55Z</time></trkpt><trkpt lat="43.4900984" lon="11.8757369"><ele>252.5</ele><time>2026-04-29T10:47:36.55Z</time></trkpt><trkpt lat="43.4902028" lon="11.8758254"><ele>252.0</ele><time>2026-04-29T10:47:37.564Z</time></trkpt><trkpt lat="43.4902976" lon="11.8759182"><ele>252.0</ele><time>2026-04-29T10:47:38.547Z</time></trkpt><trkpt lat="43.4904009" lon="11.8760003"><ele>252.0</ele><time>2026-04-29T10:47:39.553Z</time></trkpt><trkpt lat="43.4905111" lon="11.8760455"><ele>252.0</ele><time>2026-04-29T10:47:40.552Z</time></trkpt><trkpt lat="43.4906138" lon="11.8760402"><ele>252.0</ele><time>2026-04-29T10:47:41.552Z</time></trkpt><trkpt lat="43.4906976" lon="11.8759911"><ele>252.0</ele><time>2026-04-29T10:47:42.551Z</time></trkpt><trkpt lat="43.4907517" lon="11.8758976"><ele>252.25</ele><time>2026-04-29T10:47:43.545Z</time></trkpt><trkpt lat="43.490792" lon="11.8757697"><ele>252.5</ele><time>2026-04-29T10:47:44.541Z</time></trkpt><trkpt lat="43.4908421" lon="11.8756258"><ele>252.75</ele><time>2026-04-29T10:47:45.561Z</time></trkpt><trkpt lat="43.4909068" lon="11.8754814"><ele>253.0</ele><time>2026-04-29T10:47:46.549Z</time></trkpt><trkpt lat="43.4910042" lon="11.8753444"><ele>253.0</ele><time>2026-04-29T10:47:47.565Z</time></trkpt><trkpt lat="43.4911131" lon="11.8752281"><ele>253.0</ele><time>2026-04-29T10:47:48.551Z</time></trkpt><trkpt lat="43.4912317" lon="11.8751336"><ele>253.0</ele><time>2026-04-29T10:47:49.574Z</time></trkpt><trkpt lat="43.4913461" lon="11.8750625"><ele>253.0</ele><time>2026-04-29T10:47:50.557Z</time></trkpt><trkpt lat="43.4914555" lon="11.8750168"><ele>253.0</ele><time>2026-04-29T10:47:51.552Z</time></trkpt><trkpt lat="43.4915674" lon="11.8749878"><ele>253.0</ele><time>2026-04-29T10:47:52.549Z</time></trkpt><trkpt lat="43.4916739" lon="11.8749663"><ele>253.0</ele><time>2026-04-29T10:47:53.561Z</time></trkpt><trkpt lat="43.4917775" lon="11.8749505"><ele>253.0</ele><time>2026-04-29T10:47:54.587Z</time></trkpt><trkpt lat="43.4918725" lon="11.8749402"><ele>253.0</ele><time>2026-04-29T10:47:55.553Z</time></trkpt><trkpt lat="43.4919802" lon="11.8749374"><ele>252.75</ele><time>2026-04-29T10:47:56.554Z</time></trkpt><trkpt lat="43.492093" lon="11.8749303"><ele>252.5</ele><time>2026-04-29T10:47:57.552Z</time></trkpt><trkpt lat="43.4922292" lon="11.8749146"><ele>252.25</ele><time>2026-04-29T10:47:58.563Z</time></trkpt><trkpt lat="43.4923752" lon="11.8748846"><ele>252.0</ele><time>2026-04-29T10:47:59.569Z</time></trkpt><trkpt lat="43.4925616" lon="11.8748315"><ele>252.0</ele><time>2026-04-29T10:48:00.889Z</time></trkpt><trkpt lat="43.4928815" lon="11.8747735"><ele>252.0</ele><time>2026-04-29T10:48:02.6Z</time></trkpt><trkpt lat="43.4930312" lon="11.8747374"><ele>252.5</ele><time>2026-04-29T10:48:03.608Z</time></trkpt><trkpt lat="43.4931686" lon="11.8747033"><ele>253.0</ele><time>2026-04-29T10:48:04.612Z</time></trkpt><trkpt lat="43.4932943" lon="11.8746709"><ele>253.5</ele><time>2026-04-29T10:48:05.612Z</time></trkpt><trkpt lat="43.49341" lon="11.8746418"><ele>254.0</ele><time>2026-04-29T10:48:06.606Z</time></trkpt><trkpt lat="43.4935199" lon="11.874617"><ele>254.0</ele><time>2026-04-29T10:48:07.594Z</time></trkpt><trkpt lat="43.4936223" lon="11.8745948"><ele>253.99999999999997</ele><time>2026-04-29T10:48:08.616Z</time></trkpt><trkpt lat="43.4937196" lon="11.8745739"><ele>253.99999999999997</ele><time>2026-04-29T10:48:09.617Z</time></trkpt><trkpt lat="43.493818" lon="11.8745531"><ele>254.0</ele><time>2026-04-29T10:48:10.555Z</time></trkpt><trkpt lat="43.4939134" lon="11.8745334"><ele>254.0</ele><time>2026-04-29T10:48:11.553Z</time></trkpt><trkpt lat="43.494008" lon="11.8745195"><ele>254.00000000000003</ele><time>2026-04-29T10:48:12.578Z</time></trkpt><trkpt lat="43.4940895" lon="11.8745073"><ele>254.0</ele><time>2026-04-29T10:48:13.567Z</time></trkpt><trkpt lat="43.4941653" lon="11.8744893"><ele>254.0</ele><time>2026-04-29T10:48:14.566Z</time></trkpt><trkpt lat="43.4942304" lon="11.8744771"><ele>254.0</ele><time>2026-04-29T10:48:15.56Z</time></trkpt><trkpt lat="43.4942961" lon="11.8744627"><ele>254.00000000000003</ele><time>2026-04-29T10:48:17.57Z</time></trkpt><trkpt lat="43.4943817" lon="11.8744418"><ele>254.0</ele><time>2026-04-29T10:48:24.572Z</time></trkpt><trkpt lat="43.4944717" lon="11.8744205"><ele>254.00000000000003</ele><time>2026-04-29T10:48:26.566Z</time></trkpt><trkpt lat="43.4945426" lon="11.8744002"><ele>254.0</ele><time>2026-04-29T10:48:27.555Z</time></trkpt><trkpt lat="43.4946081" lon="11.8743876"><ele>254.0</ele><time>2026-04-29T10:48:28.562Z</time></trkpt><trkpt lat="43.4946845" lon="11.8743684"><ele>254.0</ele><time>2026-04-29T10:48:29.56Z</time></trkpt><trkpt lat="43.4947674" lon="11.8743536"><ele>254.00000000000003</ele><time>2026-04-29T10:48:30.559Z</time></trkpt><trkpt lat="43.494857" lon="11.8743378"><ele>254.0</ele><time>2026-04-29T10:48:31.547Z</time></trkpt><trkpt lat="43.4949569" lon="11.8743149"><ele>253.5</ele><time>2026-04-29T10:48:32.556Z</time></trkpt><trkpt lat="43.4950636" lon="11.8742843"><ele>253.0</ele><time>2026-04-29T10:48:33.55Z</time></trkpt><trkpt lat="43.4951796" lon="11.874256"><ele>252.5</ele><time>2026-04-29T10:48:34.565Z</time></trkpt><trkpt lat="43.4953004" lon="11.8742239"><ele>252.0</ele><time>2026-04-29T10:48:35.566Z</time></trkpt><trkpt lat="43.495421" lon="11.8741887"><ele>251.66666666666669</ele><time>2026-04-29T10:48:36.547Z</time></trkpt><trkpt lat="43.4955695" lon="11.874148"><ele>251.33333333333334</ele><time>2026-04-29T10:48:37.558Z</time></trkpt><trkpt lat="43.4957463" lon="11.8741103"><ele>251.0</ele><time>2026-04-29T10:48:38.543Z</time></trkpt><trkpt lat="43.4959696" lon="11.8740742"><ele>251.0</ele><time>2026-04-29T10:48:39.553Z</time></trkpt><trkpt lat="43.4962293" lon="11.8740271"><ele>251.0</ele><time>2026-04-29T10:48:40.571Z</time></trkpt><trkpt lat="43.4965001" lon="11.8739682"><ele>251.5</ele><time>2026-04-29T10:48:41.567Z</time></trkpt><trkpt lat="43.4967886" lon="11.8739063"><ele>252.0</ele><time>2026-04-29T10:48:42.553Z</time></trkpt><trkpt lat="43.4970855" lon="11.8738386"><ele>252.0</ele><time>2026-04-29T10:48:43.556Z</time></trkpt><trkpt lat="43.4973689" lon="11.8737771"><ele>252.0</ele><time>2026-04-29T10:48:44.542Z</time></trkpt><trkpt lat="43.497659" lon="11.8737211"><ele>252.0</ele><time>2026-04-29T10:48:45.608Z</time></trkpt><trkpt lat="43.4979123" lon="11.8736711"><ele>252.0</ele><time>2026-04-29T10:48:46.562Z</time></trkpt><trkpt lat="43.4981696" lon="11.8736275"><ele>252.5</ele><time>2026-04-29T10:48:47.549Z</time></trkpt><trkpt lat="43.4984247" lon="11.8735834"><ele>253.0</ele><time>2026-04-29T10:48:48.548Z</time></trkpt><trkpt lat="43.4986851" lon="11.8735329"><ele>253.0</ele><time>2026-04-29T10:48:49.57Z</time></trkpt><trkpt lat="43.4989299" lon="11.8734816"><ele>253.0</ele><time>2026-04-29T10:48:50.546Z</time></trkpt><trkpt lat="43.499179" lon="11.8734255"><ele>252.5</ele><time>2026-04-29T10:48:51.544Z</time></trkpt><trkpt lat="43.4994285" lon="11.8733694"><ele>252.0</ele><time>2026-04-29T10:48:52.545Z</time></trkpt><trkpt lat="43.4996744" lon="11.8733128"><ele>251.5</ele><time>2026-04-29T10:48:53.555Z</time></trkpt><trkpt lat="43.4999158" lon="11.8732604"><ele>251.0</ele><time>2026-04-29T10:48:54.544Z</time></trkpt><trkpt lat="43.5001566" lon="11.8732074"><ele>251.0</ele><time>2026-04-29T10:48:55.539Z</time></trkpt><trkpt lat="43.5004045" lon="11.8731521"><ele>251.0</ele><time>2026-04-29T10:48:56.565Z</time></trkpt><trkpt lat="43.5006457" lon="11.8731008"><ele>252.0</ele><time>2026-04-29T10:48:57.561Z</time></trkpt><trkpt lat="43.5008909" lon="11.8730487"><ele>253.0</ele><time>2026-04-29T10:48:58.571Z</time></trkpt><trkpt lat="43.5011262" lon="11.8730002"><ele>253.5</ele><time>2026-04-29T10:48:59.55Z</time></trkpt><trkpt lat="43.5013669" lon="11.8729513"><ele>254.0</ele><time>2026-04-29T10:49:00.561Z</time></trkpt><trkpt lat="43.5016007" lon="11.8728996"><ele>254.0</ele><time>2026-04-29T10:49:01.545Z</time></trkpt><trkpt lat="43.5018392" lon="11.8728471"><ele>254.0</ele><time>2026-04-29T10:49:02.556Z</time></trkpt><trkpt lat="43.5020766" lon="11.8727916"><ele>253.5</ele><time>2026-04-29T10:49:03.556Z</time></trkpt><trkpt lat="43.5023131" lon="11.8727318"><ele>253.0</ele><time>2026-04-29T10:49:04.557Z</time></trkpt><trkpt lat="43.5025479" lon="11.8726724"><ele>253.0</ele><time>2026-04-29T10:49:05.56Z</time></trkpt><trkpt lat="43.502777" lon="11.8726171"><ele>253.0</ele><time>2026-04-29T10:49:06.548Z</time></trkpt><trkpt lat="43.5030105" lon="11.8725633"><ele>253.0</ele><time>2026-04-29T10:49:07.553Z</time></trkpt><trkpt lat="43.5032448" lon="11.8725094"><ele>253.0</ele><time>2026-04-29T10:49:08.547Z</time></trkpt><trkpt lat="43.5034815" lon="11.8724576"><ele>253.0</ele><time>2026-04-29T10:49:09.547Z</time></trkpt><trkpt lat="43.5037225" lon="11.8724052"><ele>253.0</ele><time>2026-04-29T10:49:10.555Z</time></trkpt><trkpt lat="43.5039639" lon="11.8723538"><ele>253.0</ele><time>2026-04-29T10:49:11.562Z</time></trkpt><trkpt lat="43.5042011" lon="11.8723002"><ele>253.0</ele><time>2026-04-29T10:49:12.555Z</time></trkpt><trkpt lat="43.5044318" lon="11.8722516"><ele>254.0</ele><time>2026-04-29T10:49:13.548Z</time></trkpt><trkpt lat="43.5046518" lon="11.8722019"><ele>255.0</ele><time>2026-04-29T10:49:14.539Z</time></trkpt><trkpt lat="43.5048749" lon="11.8721425"><ele>255.0</ele><time>2026-04-29T10:49:15.561Z</time></trkpt><trkpt lat="43.5050978" lon="11.8720864"><ele>255.0</ele><time>2026-04-29T10:49:16.551Z</time></trkpt><trkpt lat="43.5053305" lon="11.8720296"><ele>254.5</ele><time>2026-04-29T10:49:17.548Z</time></trkpt><trkpt lat="43.5055741" lon="11.8719716"><ele>254.0</ele><time>2026-04-29T10:49:18.559Z</time></trkpt><trkpt lat="43.5058227" lon="11.8719177"><ele>254.0</ele><time>2026-04-29T10:49:19.556Z</time></trkpt><trkpt lat="43.5060777" lon="11.8718615"><ele>254.0</ele><time>2026-04-29T10:49:20.547Z</time></trkpt><trkpt lat="43.5063383" lon="11.8718053"><ele>254.0</ele><time>2026-04-29T10:49:21.556Z</time></trkpt><trkpt lat="43.5065901" lon="11.8717561"><ele>254.0</ele><time>2026-04-29T10:49:22.556Z</time></trkpt><trkpt lat="43.5068202" lon="11.8717128"><ele>254.0</ele><time>2026-04-29T10:49:23.544Z</time></trkpt><trkpt lat="43.5070312" lon="11.8716704"><ele>254.0</ele><time>2026-04-29T10:49:24.558Z</time></trkpt><trkpt lat="43.50722" lon="11.8716324"><ele>254.0</ele><time>2026-04-29T10:49:25.544Z</time></trkpt><trkpt lat="43.5074012" lon="11.8715953"><ele>255.0</ele><time>2026-04-29T10:49:26.56Z</time></trkpt><trkpt lat="43.5075638" lon="11.8715632"><ele>256.0</ele><time>2026-04-29T10:49:27.546Z</time></trkpt><trkpt lat="43.507724" lon="11.8715283"><ele>257.0</ele><time>2026-04-29T10:49:28.548Z</time></trkpt><trkpt lat="43.5078772" lon="11.8714969"><ele>256.6666666666667</ele><time>2026-04-29T10:49:29.548Z</time></trkpt><trkpt lat="43.5080308" lon="11.8714696"><ele>256.3333333333333</ele><time>2026-04-29T10:49:30.548Z</time></trkpt><trkpt lat="43.5081898" lon="11.8714402"><ele>256.0</ele><time>2026-04-29T10:49:31.566Z</time></trkpt><trkpt lat="43.5083462" lon="11.8714094"><ele>256.0</ele><time>2026-04-29T10:49:32.568Z</time></trkpt><trkpt lat="43.5085101" lon="11.8713777"><ele>256.0</ele><time>2026-04-29T10:49:33.549Z</time></trkpt><trkpt lat="43.5086872" lon="11.8713447"><ele>256.0</ele><time>2026-04-29T10:49:34.558Z</time></trkpt><trkpt lat="43.5088689" lon="11.8713062"><ele>256.3333333333333</ele><time>2026-04-29T10:49:35.549Z</time></trkpt><trkpt lat="43.5090505" lon="11.8712667"><ele>256.6666666666667</ele><time>2026-04-29T10:49:36.558Z</time></trkpt><trkpt lat="43.5092148" lon="11.8712274"><ele>257.0</ele><time>2026-04-29T10:49:37.559Z</time></trkpt><trkpt lat="43.5093792" lon="11.8711973"><ele>257.0</ele><time>2026-04-29T10:49:38.556Z</time></trkpt><trkpt lat="43.5095417" lon="11.8711683"><ele>257.0</ele><time>2026-04-29T10:49:39.546Z</time></trkpt><trkpt lat="43.509709" lon="11.8711402"><ele>257.0</ele><time>2026-04-29T10:49:40.555Z</time></trkpt><trkpt lat="43.5098564" lon="11.8711103"><ele>256.75</ele><time>2026-04-29T10:49:41.568Z</time></trkpt><trkpt lat="43.5099987" lon="11.8710842"><ele>256.5</ele><time>2026-04-29T10:49:42.558Z</time></trkpt><trkpt lat="43.5101151" lon="11.8710575"><ele>256.25</ele><time>2026-04-29T10:49:43.561Z</time></trkpt><trkpt lat="43.5102437" lon="11.8710255"><ele>256.0</ele><time>2026-04-29T10:49:44.557Z</time></trkpt><trkpt lat="43.5103729" lon="11.8709958"><ele>256.5</ele><time>2026-04-29T10:49:45.563Z</time></trkpt><trkpt lat="43.5105118" lon="11.8709664"><ele>257.0</ele><time>2026-04-29T10:49:46.57Z</time></trkpt><trkpt lat="43.5106528" lon="11.8709355"><ele>257.5</ele><time>2026-04-29T10:49:47.581Z</time></trkpt><trkpt lat="43.5107787" lon="11.8708993"><ele>258.0</ele><time>2026-04-29T10:49:48.566Z</time></trkpt><trkpt lat="43.5108856" lon="11.8708747"><ele>258.0</ele><time>2026-04-29T10:49:49.566Z</time></trkpt><trkpt lat="43.5109699" lon="11.870855"><ele>258.0</ele><time>2026-04-29T10:49:50.563Z</time></trkpt><trkpt lat="43.5110346" lon="11.870839"><ele>258.0</ele><time>2026-04-29T10:49:51.567Z</time></trkpt><trkpt lat="43.5111405" lon="11.8708159"><ele>258.0</ele><time>2026-04-29T10:49:53.551Z</time></trkpt><trkpt lat="43.5112196" lon="11.8707954"><ele>258.0</ele><time>2026-04-29T10:49:55.573Z</time></trkpt><trkpt lat="43.5113163" lon="11.8707735"><ele>258.0</ele><time>2026-04-29T10:49:57.549Z</time></trkpt><trkpt lat="43.5114291" lon="11.8707487"><ele>258.0</ele><time>2026-04-29T10:49:59.551Z</time></trkpt><trkpt lat="43.5114931" lon="11.8707322"><ele>258.0</ele><time>2026-04-29T10:50:00.57Z</time></trkpt><trkpt lat="43.5115693" lon="11.8707169"><ele>258.0</ele><time>2026-04-29T10:50:01.577Z</time></trkpt><trkpt lat="43.5116618" lon="11.8706971"><ele>258.0</ele><time>2026-04-29T10:50:02.566Z</time></trkpt><trkpt lat="43.5117676" lon="11.8706778"><ele>258.0</ele><time>2026-04-29T10:50:03.567Z</time></trkpt><trkpt lat="43.5118841" lon="11.8706537"><ele>258.0</ele><time>2026-04-29T10:50:04.545Z</time></trkpt><trkpt lat="43.5120117" lon="11.870629"><ele>258.0</ele><time>2026-04-29T10:50:05.557Z</time></trkpt><trkpt lat="43.5121443" lon="11.8706052"><ele>258.0</ele><time>2026-04-29T10:50:06.549Z</time></trkpt><trkpt lat="43.512287" lon="11.8705752"><ele>258.0</ele><time>2026-04-29T10:50:07.566Z</time></trkpt><trkpt lat="43.5124288" lon="11.8705408"><ele>257.6666666666667</ele><time>2026-04-29T10:50:08.56Z</time></trkpt><trkpt lat="43.5125774" lon="11.8705062"><ele>257.33333333333337</ele><time>2026-04-29T10:50:09.567Z</time></trkpt><trkpt lat="43.5127226" lon="11.870475"><ele>257.0</ele><time>2026-04-29T10:50:10.548Z</time></trkpt><trkpt lat="43.5128763" lon="11.8704447"><ele>257.6666666666667</ele><time>2026-04-29T10:50:11.557Z</time></trkpt><trkpt lat="43.5130327" lon="11.8704116"><ele>258.3333333333333</ele><time>2026-04-29T10:50:12.558Z</time></trkpt><trkpt lat="43.5131795" lon="11.8703806"><ele>259.0</ele><time>2026-04-29T10:50:13.542Z</time></trkpt><trkpt lat="43.5133336" lon="11.8703456"><ele>259.0</ele><time>2026-04-29T10:50:14.557Z</time></trkpt><trkpt lat="43.5134923" lon="11.8703076"><ele>259.0</ele><time>2026-04-29T10:50:15.569Z</time></trkpt><trkpt lat="43.5136523" lon="11.8702698"><ele>259.0</ele><time>2026-04-29T10:50:16.556Z</time></trkpt><trkpt lat="43.5138218" lon="11.8702282"><ele>258.66666666666663</ele><time>2026-04-29T10:50:17.576Z</time></trkpt><trkpt lat="43.5139976" lon="11.8701715"><ele>258.3333333333333</ele><time>2026-04-29T10:50:18.549Z</time></trkpt><trkpt lat="43.5142024" lon="11.8701095"><ele>258.0</ele><time>2026-04-29T10:50:19.566Z</time></trkpt><trkpt lat="43.5144212" lon="11.8700482"><ele>258.0</ele><time>2026-04-29T10:50:20.579Z</time></trkpt><trkpt lat="43.5146433" lon="11.8699891"><ele>258.0</ele><time>2026-04-29T10:50:21.569Z</time></trkpt><trkpt lat="43.51487" lon="11.8699298"><ele>258.0</ele><time>2026-04-29T10:50:22.554Z</time></trkpt><trkpt lat="43.5150857" lon="11.8698628"><ele>258.0</ele><time>2026-04-29T10:50:23.567Z</time></trkpt><trkpt lat="43.5152945" lon="11.8697996"><ele>258.0</ele><time>2026-04-29T10:50:24.568Z</time></trkpt><trkpt lat="43.5155055" lon="11.8697457"><ele>257.3333333333333</ele><time>2026-04-29T10:50:25.577Z</time></trkpt><trkpt lat="43.5156908" lon="11.8696691"><ele>256.66666666666663</ele><time>2026-04-29T10:50:26.566Z</time></trkpt><trkpt lat="43.5158977" lon="11.8696058"><ele>256.0</ele><time>2026-04-29T10:50:27.561Z</time></trkpt><trkpt lat="43.5160962" lon="11.8695479"><ele>255.66666666666666</ele><time>2026-04-29T10:50:28.559Z</time></trkpt><trkpt lat="43.5162942" lon="11.8694998"><ele>255.33333333333331</ele><time>2026-04-29T10:50:29.548Z</time></trkpt><trkpt lat="43.5164854" lon="11.8694579"><ele>255.0</ele><time>2026-04-29T10:50:30.552Z</time></trkpt><trkpt lat="43.5166665" lon="11.869412"><ele>255.0</ele><time>2026-04-29T10:50:31.551Z</time></trkpt><trkpt lat="43.516837" lon="11.8693636"><ele>255.0</ele><time>2026-04-29T10:50:32.569Z</time></trkpt><trkpt lat="43.5169996" lon="11.8693157"><ele>255.0</ele><time>2026-04-29T10:50:33.59Z</time></trkpt><trkpt lat="43.5171528" lon="11.8692784"><ele>256.0</ele><time>2026-04-29T10:50:34.575Z</time></trkpt><trkpt lat="43.5173068" lon="11.8692413"><ele>257.0</ele><time>2026-04-29T10:50:35.547Z</time></trkpt><trkpt lat="43.5174793" lon="11.8691997"><ele>258.0</ele><time>2026-04-29T10:50:36.555Z</time></trkpt><trkpt lat="43.5176778" lon="11.8691388"><ele>258.0</ele><time>2026-04-29T10:50:37.583Z</time></trkpt><trkpt lat="43.5178857" lon="11.8690825"><ele>258.0</ele><time>2026-04-29T10:50:38.569Z</time></trkpt><trkpt lat="43.5181131" lon="11.8690288"><ele>258.0</ele><time>2026-04-29T10:50:39.574Z</time></trkpt><trkpt lat="43.5183436" lon="11.8689712"><ele>257.0</ele><time>2026-04-29T10:50:40.565Z</time></trkpt><trkpt lat="43.5185662" lon="11.8689155"><ele>256.0</ele><time>2026-04-29T10:50:41.562Z</time></trkpt><trkpt lat="43.5187845" lon="11.8688636"><ele>255.0</ele><time>2026-04-29T10:50:42.573Z</time></trkpt><trkpt lat="43.5189992" lon="11.8688189"><ele>254.66666666666669</ele><time>2026-04-29T10:50:43.576Z</time></trkpt><trkpt lat="43.5192088" lon="11.8687823"><ele>254.33333333333334</ele><time>2026-04-29T10:50:44.559Z</time></trkpt><trkpt lat="43.5194113" lon="11.868748"><ele>254.0</ele><time>2026-04-29T10:50:45.569Z</time></trkpt><trkpt lat="43.5195995" lon="11.8687217"><ele>253.33333333333334</ele><time>2026-04-29T10:50:46.55Z</time></trkpt><trkpt lat="43.5197872" lon="11.8687039"><ele>252.66666666666669</ele><time>2026-04-29T10:50:47.558Z</time></trkpt><trkpt lat="43.5199884" lon="11.8686902"><ele>252.0</ele><time>2026-04-29T10:50:48.567Z</time></trkpt><trkpt lat="43.5202088" lon="11.8686801"><ele>250.0</ele><time>2026-04-29T10:50:49.585Z</time></trkpt><trkpt lat="43.5204348" lon="11.8686734"><ele>248.0</ele><time>2026-04-29T10:50:50.553Z</time></trkpt><trkpt lat="43.5206799" lon="11.8686703"><ele>248.0</ele><time>2026-04-29T10:50:51.555Z</time></trkpt><trkpt lat="43.520931" lon="11.8686698"><ele>248.0</ele><time>2026-04-29T10:50:52.564Z</time></trkpt><trkpt lat="43.5211765" lon="11.8686652"><ele>248.0</ele><time>2026-04-29T10:50:53.568Z</time></trkpt><trkpt lat="43.521416" lon="11.8686619"><ele>248.0</ele><time>2026-04-29T10:50:54.555Z</time></trkpt><trkpt lat="43.5216661" lon="11.8686543"><ele>248.0</ele><time>2026-04-29T10:50:55.593Z</time></trkpt><trkpt lat="43.5219002" lon="11.868649"><ele>248.0</ele><time>2026-04-29T10:50:56.575Z</time></trkpt><trkpt lat="43.5221442" lon="11.8686419"><ele>248.5</ele><time>2026-04-29T10:50:57.586Z</time></trkpt><trkpt lat="43.5223782" lon="11.8686363"><ele>249.0</ele><time>2026-04-29T10:50:58.557Z</time></trkpt><trkpt lat="43.5226294" lon="11.8686317"><ele>249.0</ele><time>2026-04-29T10:50:59.59Z</time></trkpt><trkpt lat="43.5228668" lon="11.868627"><ele>249.0</ele><time>2026-04-29T10:51:00.561Z</time></trkpt><trkpt lat="43.5231219" lon="11.8686212"><ele>249.0</ele><time>2026-04-29T10:51:01.563Z</time></trkpt><trkpt lat="43.5233751" lon="11.8686198"><ele>249.0</ele><time>2026-04-29T10:51:02.56Z</time></trkpt><trkpt lat="43.5236315" lon="11.8686151"><ele>250.0</ele><time>2026-04-29T10:51:03.574Z</time></trkpt><trkpt lat="43.5238787" lon="11.8686123"><ele>251.0</ele><time>2026-04-29T10:51:04.563Z</time></trkpt><trkpt lat="43.5241248" lon="11.8686101"><ele>251.0</ele><time>2026-04-29T10:51:05.543Z</time></trkpt><trkpt lat="43.5243835" lon="11.8686059"><ele>251.0</ele><time>2026-04-29T10:51:06.579Z</time></trkpt><trkpt lat="43.5246278" lon="11.8686058"><ele>252.5</ele><time>2026-04-29T10:51:07.56Z</time></trkpt><trkpt lat="43.5248752" lon="11.8686033"><ele>254.0</ele><time>2026-04-29T10:51:08.559Z</time></trkpt><trkpt lat="43.525126" lon="11.8685991"><ele>254.0</ele><time>2026-04-29T10:51:09.576Z</time></trkpt><trkpt lat="43.5253724" lon="11.8685938"><ele>254.0</ele><time>2026-04-29T10:51:10.568Z</time></trkpt><trkpt lat="43.5256152" lon="11.8685879"><ele>253.0</ele><time>2026-04-29T10:51:11.558Z</time></trkpt><trkpt lat="43.5258635" lon="11.8685848"><ele>252.0</ele><time>2026-04-29T10:51:12.562Z</time></trkpt><trkpt lat="43.5261094" lon="11.8685807"><ele>253.0</ele><time>2026-04-29T10:51:13.563Z</time></trkpt><trkpt lat="43.5263555" lon="11.8685759"><ele>254.0</ele><time>2026-04-29T10:51:14.555Z</time></trkpt><trkpt lat="43.5265983" lon="11.8685681"><ele>254.0</ele><time>2026-04-29T10:51:15.55Z</time></trkpt><trkpt lat="43.5268512" lon="11.8685541"><ele>254.0</ele><time>2026-04-29T10:51:16.581Z</time></trkpt><trkpt lat="43.5270906" lon="11.8685438"><ele>253.5</ele><time>2026-04-29T10:51:17.553Z</time></trkpt><trkpt lat="43.5273437" lon="11.868539"><ele>253.0</ele><time>2026-04-29T10:51:18.579Z</time></trkpt><trkpt lat="43.5275875" lon="11.8685323"><ele>253.0</ele><time>2026-04-29T10:51:19.575Z</time></trkpt><trkpt lat="43.5278296" lon="11.868519"><ele>253.0</ele><time>2026-04-29T10:51:20.573Z</time></trkpt><trkpt lat="43.5280702" lon="11.8684957"><ele>254.0</ele><time>2026-04-29T10:51:21.556Z</time></trkpt><trkpt lat="43.5283166" lon="11.8684602"><ele>255.0</ele><time>2026-04-29T10:51:22.553Z</time></trkpt><trkpt lat="43.5285667" lon="11.8684104"><ele>256.0</ele><time>2026-04-29T10:51:23.551Z</time></trkpt><trkpt lat="43.5288218" lon="11.8683551"><ele>257.0</ele><time>2026-04-29T10:51:24.564Z</time></trkpt><trkpt lat="43.5290691" lon="11.8682946"><ele>257.0</ele><time>2026-04-29T10:51:25.559Z</time></trkpt><trkpt lat="43.5293156" lon="11.8682291"><ele>257.0</ele><time>2026-04-29T10:51:26.558Z</time></trkpt><trkpt lat="43.5295599" lon="11.8681631"><ele>257.0</ele><time>2026-04-29T10:51:27.554Z</time></trkpt><trkpt lat="43.5298071" lon="11.868093"><ele>257.0</ele><time>2026-04-29T10:51:28.551Z</time></trkpt><trkpt lat="43.530055" lon="11.8680207"><ele>257.0</ele><time>2026-04-29T10:51:29.553Z</time></trkpt><trkpt lat="43.5303019" lon="11.8679473"><ele>257.0</ele><time>2026-04-29T10:51:30.557Z</time></trkpt><trkpt lat="43.5305446" lon="11.8678732"><ele>256.5</ele><time>2026-04-29T10:51:31.542Z</time></trkpt><trkpt lat="43.5307978" lon="11.8677998"><ele>256.0</ele><time>2026-04-29T10:51:32.552Z</time></trkpt><trkpt lat="43.5310468" lon="11.8677273"><ele>256.5</ele><time>2026-04-29T10:51:33.547Z</time></trkpt><trkpt lat="43.5313058" lon="11.8676504"><ele>257.0</ele><time>2026-04-29T10:51:34.583Z</time></trkpt><trkpt lat="43.5315547" lon="11.867576"><ele>257.0</ele><time>2026-04-29T10:51:35.565Z</time></trkpt><trkpt lat="43.531806" lon="11.8675018"><ele>257.0</ele><time>2026-04-29T10:51:36.551Z</time></trkpt><trkpt lat="43.5320642" lon="11.8674263"><ele>257.0</ele><time>2026-04-29T10:51:37.565Z</time></trkpt><trkpt lat="43.5323279" lon="11.8673512"><ele>257.0</ele><time>2026-04-29T10:51:38.592Z</time></trkpt><trkpt lat="43.5325797" lon="11.8672788"><ele>257.0</ele><time>2026-04-29T10:51:39.559Z</time></trkpt><trkpt lat="43.5328432" lon="11.8672074"><ele>257.0</ele><time>2026-04-29T10:51:40.566Z</time></trkpt><trkpt lat="43.5331017" lon="11.8671355"><ele>257.5</ele><time>2026-04-29T10:51:41.554Z</time></trkpt><trkpt lat="43.5333607" lon="11.8670589"><ele>258.0</ele><time>2026-04-29T10:51:42.561Z</time></trkpt><trkpt lat="43.5336229" lon="11.8669804"><ele>258.5</ele><time>2026-04-29T10:51:43.581Z</time></trkpt><trkpt lat="43.5338712" lon="11.8669059"><ele>259.0</ele><time>2026-04-29T10:51:44.553Z</time></trkpt><trkpt lat="43.5341292" lon="11.8668309"><ele>258.5</ele><time>2026-04-29T10:51:45.552Z</time></trkpt><trkpt lat="43.5343895" lon="11.8667571"><ele>258.0</ele><time>2026-04-29T10:51:46.556Z</time></trkpt><trkpt lat="43.5346458" lon="11.8666836"><ele>257.5</ele><time>2026-04-29T10:51:47.54Z</time></trkpt><trkpt lat="43.5349138" lon="11.8666051"><ele>257.0</ele><time>2026-04-29T10:51:48.563Z</time></trkpt><trkpt lat="43.5351721" lon="11.8665317"><ele>256.0</ele><time>2026-04-29T10:51:49.552Z</time></trkpt><trkpt lat="43.5354325" lon="11.8664558"><ele>255.0</ele><time>2026-04-29T10:51:50.554Z</time></trkpt><trkpt lat="43.535696" lon="11.8663762"><ele>255.0</ele><time>2026-04-29T10:51:51.57Z</time></trkpt><trkpt lat="43.5359473" lon="11.8662951"><ele>255.0</ele><time>2026-04-29T10:51:52.55Z</time></trkpt><trkpt lat="43.5362045" lon="11.8662037"><ele>253.5</ele><time>2026-04-29T10:51:53.553Z</time></trkpt><trkpt lat="43.5364612" lon="11.8661012"><ele>252.0</ele><time>2026-04-29T10:51:54.575Z</time></trkpt><trkpt lat="43.5367046" lon="11.8659913"><ele>252.0</ele><time>2026-04-29T10:51:55.567Z</time></trkpt><trkpt lat="43.5369487" lon="11.8658706"><ele>252.0</ele><time>2026-04-29T10:51:56.57Z</time></trkpt><trkpt lat="43.5371849" lon="11.8657449"><ele>253.0</ele><time>2026-04-29T10:51:57.552Z</time></trkpt><trkpt lat="43.5374263" lon="11.8656065"><ele>254.0</ele><time>2026-04-29T10:51:58.566Z</time></trkpt><trkpt lat="43.5376602" lon="11.8654654"><ele>254.0</ele><time>2026-04-29T10:51:59.547Z</time></trkpt><trkpt lat="43.5378956" lon="11.8653154"><ele>254.0</ele><time>2026-04-29T10:52:00.554Z</time></trkpt><trkpt lat="43.5381306" lon="11.8651581"><ele>256.5</ele><time>2026-04-29T10:52:01.569Z</time></trkpt><trkpt lat="43.5383549" lon="11.8650085"><ele>259.0</ele><time>2026-04-29T10:52:02.556Z</time></trkpt><trkpt lat="43.5385763" lon="11.8648585"><ele>259.5</ele><time>2026-04-29T10:52:03.549Z</time></trkpt><trkpt lat="43.5387987" lon="11.864707"><ele>260.0</ele><time>2026-04-29T10:52:04.567Z</time></trkpt><trkpt lat="43.5390154" lon="11.86456"><ele>260.0</ele><time>2026-04-29T10:52:05.581Z</time></trkpt><trkpt lat="43.5392223" lon="11.8644216"><ele>260.0</ele><time>2026-04-29T10:52:06.573Z</time></trkpt><trkpt lat="43.5394265" lon="11.8642881"><ele>259.5</ele><time>2026-04-29T10:52:07.559Z</time></trkpt><trkpt lat="43.5396357" lon="11.8641504"><ele>259.0</ele><time>2026-04-29T10:52:08.562Z</time></trkpt><trkpt lat="43.5398371" lon="11.8640168"><ele>259.0</ele><time>2026-04-29T10:52:09.548Z</time></trkpt><trkpt lat="43.5400456" lon="11.8638777"><ele>259.0</ele><time>2026-04-29T10:52:10.571Z</time></trkpt><trkpt lat="43.5402522" lon="11.8637435"><ele>259.66666666666663</ele><time>2026-04-29T10:52:11.577Z</time></trkpt><trkpt lat="43.5404508" lon="11.8636124"><ele>260.3333333333333</ele><time>2026-04-29T10:52:12.569Z</time></trkpt><trkpt lat="43.5406465" lon="11.8634832"><ele>261.0</ele><time>2026-04-29T10:52:13.559Z</time></trkpt><trkpt lat="43.5408376" lon="11.8633623"><ele>261.0</ele><time>2026-04-29T10:52:14.568Z</time></trkpt><trkpt lat="43.5410223" lon="11.8632491"><ele>261.0</ele><time>2026-04-29T10:52:15.542Z</time></trkpt><trkpt lat="43.5412081" lon="11.8631307"><ele>261.0</ele><time>2026-04-29T10:52:16.555Z</time></trkpt><trkpt lat="43.5413878" lon="11.8630139"><ele>260.3333333333333</ele><time>2026-04-29T10:52:17.566Z</time></trkpt><trkpt lat="43.541565" lon="11.8628961"><ele>259.66666666666663</ele><time>2026-04-29T10:52:18.568Z</time></trkpt><trkpt lat="43.541744" lon="11.8627797"><ele>259.0</ele><time>2026-04-29T10:52:19.574Z</time></trkpt><trkpt lat="43.5419196" lon="11.8626661"><ele>258.66666666666663</ele><time>2026-04-29T10:52:20.555Z</time></trkpt><trkpt lat="43.5421029" lon="11.8625482"><ele>258.3333333333333</ele><time>2026-04-29T10:52:21.558Z</time></trkpt><trkpt lat="43.5422908" lon="11.8624209"><ele>258.0</ele><time>2026-04-29T10:52:22.569Z</time></trkpt><trkpt lat="43.5424751" lon="11.8622994"><ele>258.0</ele><time>2026-04-29T10:52:23.554Z</time></trkpt><trkpt lat="43.5426579" lon="11.8621787"><ele>258.0</ele><time>2026-04-29T10:52:24.56Z</time></trkpt><trkpt lat="43.5428389" lon="11.8620633"><ele>258.0</ele><time>2026-04-29T10:52:25.566Z</time></trkpt><trkpt lat="43.5430234" lon="11.8619485"><ele>258.0</ele><time>2026-04-29T10:52:26.568Z</time></trkpt><trkpt lat="43.5432039" lon="11.861828"><ele>258.0</ele><time>2026-04-29T10:52:27.556Z</time></trkpt><trkpt lat="43.543392" lon="11.8616988"><ele>258.0</ele><time>2026-04-29T10:52:28.574Z</time></trkpt><trkpt lat="43.5435775" lon="11.8615685"><ele>259.0</ele><time>2026-04-29T10:52:29.554Z</time></trkpt><trkpt lat="43.5437721" lon="11.8614326"><ele>260.0</ele><time>2026-04-29T10:52:30.57Z</time></trkpt><trkpt lat="43.5439615" lon="11.8612952"><ele>261.0</ele><time>2026-04-29T10:52:31.549Z</time></trkpt><trkpt lat="43.5441543" lon="11.8611465"><ele>261.0</ele><time>2026-04-29T10:52:32.545Z</time></trkpt><trkpt lat="43.5443477" lon="11.8609892"><ele>261.0</ele><time>2026-04-29T10:52:33.555Z</time></trkpt><trkpt lat="43.5445286" lon="11.8608346"><ele>261.0</ele><time>2026-04-29T10:52:34.557Z</time></trkpt><trkpt lat="43.5447039" lon="11.8606803"><ele>260.6666666666667</ele><time>2026-04-29T10:52:35.554Z</time></trkpt><trkpt lat="43.5448818" lon="11.8605149"><ele>260.33333333333337</ele><time>2026-04-29T10:52:36.569Z</time></trkpt><trkpt lat="43.5450536" lon="11.8603435"><ele>260.0</ele><time>2026-04-29T10:52:37.555Z</time></trkpt><trkpt lat="43.5452289" lon="11.8601621"><ele>260.0</ele><time>2026-04-29T10:52:38.551Z</time></trkpt><trkpt lat="43.545407" lon="11.8599699"><ele>260.0</ele><time>2026-04-29T10:52:39.572Z</time></trkpt><trkpt lat="43.545577" lon="11.8597753"><ele>260.0</ele><time>2026-04-29T10:52:40.564Z</time></trkpt><trkpt lat="43.5457481" lon="11.8595741"><ele>260.0</ele><time>2026-04-29T10:52:41.548Z</time></trkpt><trkpt lat="43.5459249" lon="11.8593621"><ele>260.0</ele><time>2026-04-29T10:52:42.557Z</time></trkpt><trkpt lat="43.5461036" lon="11.8591479"><ele>259.5</ele><time>2026-04-29T10:52:43.571Z</time></trkpt><trkpt lat="43.5462807" lon="11.8589307"><ele>259.0</ele><time>2026-04-29T10:52:44.572Z</time></trkpt><trkpt lat="43.5464551" lon="11.8587171"><ele>259.0</ele><time>2026-04-29T10:52:45.553Z</time></trkpt><trkpt lat="43.5466345" lon="11.8584907"><ele>259.0</ele><time>2026-04-29T10:52:46.561Z</time></trkpt><trkpt lat="43.5468133" lon="11.8582629"><ele>259.0</ele><time>2026-04-29T10:52:47.561Z</time></trkpt><trkpt lat="43.5469886" lon="11.8580352"><ele>259.0</ele><time>2026-04-29T10:52:48.552Z</time></trkpt><trkpt lat="43.5471689" lon="11.8578033"><ele>258.0</ele><time>2026-04-29T10:52:49.559Z</time></trkpt><trkpt lat="43.5473464" lon="11.8575784"><ele>257.0</ele><time>2026-04-29T10:52:50.552Z</time></trkpt><trkpt lat="43.5475253" lon="11.8573495"><ele>257.0</ele><time>2026-04-29T10:52:51.561Z</time></trkpt><trkpt lat="43.5477025" lon="11.8571267"><ele>257.0</ele><time>2026-04-29T10:52:52.567Z</time></trkpt><trkpt lat="43.5478772" lon="11.8569104"><ele>258.0</ele><time>2026-04-29T10:52:53.554Z</time></trkpt><trkpt lat="43.548057" lon="11.8566922"><ele>259.0</ele><time>2026-04-29T10:52:54.57Z</time></trkpt><trkpt lat="43.5482334" lon="11.8564876"><ele>259.0</ele><time>2026-04-29T10:52:55.559Z</time></trkpt><trkpt lat="43.5484149" lon="11.856294"><ele>259.0</ele><time>2026-04-29T10:52:56.55Z</time></trkpt><trkpt lat="43.5486074" lon="11.8561039"><ele>258.5</ele><time>2026-04-29T10:52:57.564Z</time></trkpt><trkpt lat="43.5488003" lon="11.8559193"><ele>258.0</ele><time>2026-04-29T10:52:58.564Z</time></trkpt><trkpt lat="43.5489971" lon="11.8557399"><ele>258.0</ele><time>2026-04-29T10:52:59.575Z</time></trkpt><trkpt lat="43.5491945" lon="11.8555689"><ele>258.0</ele><time>2026-04-29T10:53:00.559Z</time></trkpt><trkpt lat="43.5493988" lon="11.8554025"><ele>258.5</ele><time>2026-04-29T10:53:01.56Z</time></trkpt><trkpt lat="43.549607" lon="11.8552415"><ele>259.0</ele><time>2026-04-29T10:53:02.551Z</time></trkpt><trkpt lat="43.5498269" lon="11.855081"><ele>257.5</ele><time>2026-04-29T10:53:03.567Z</time></trkpt><trkpt lat="43.5500579" lon="11.8549274"><ele>256.0</ele><time>2026-04-29T10:53:04.588Z</time></trkpt><trkpt lat="43.5502833" lon="11.8547877"><ele>257.0</ele><time>2026-04-29T10:53:05.559Z</time></trkpt><trkpt lat="43.5505185" lon="11.854646"><ele>258.0</ele><time>2026-04-29T10:53:06.567Z</time></trkpt><trkpt lat="43.5507538" lon="11.8545047"><ele>258.0</ele><time>2026-04-29T10:53:07.567Z</time></trkpt><trkpt lat="43.5509894" lon="11.8543607"><ele>258.0</ele><time>2026-04-29T10:53:08.564Z</time></trkpt><trkpt lat="43.5512216" lon="11.8542173"><ele>258.5</ele><time>2026-04-29T10:53:09.561Z</time></trkpt><trkpt lat="43.5514615" lon="11.8540648"><ele>259.0</ele><time>2026-04-29T10:53:10.566Z</time></trkpt><trkpt lat="43.5517163" lon="11.853897"><ele>259.0</ele><time>2026-04-29T10:53:11.573Z</time></trkpt><trkpt lat="43.5519868" lon="11.8537242"><ele>259.0</ele><time>2026-04-29T10:53:12.564Z</time></trkpt><trkpt lat="43.5522596" lon="11.8535522"><ele>258.0</ele><time>2026-04-29T10:53:13.549Z</time></trkpt><trkpt lat="43.5525496" lon="11.853384"><ele>257.0</ele><time>2026-04-29T10:53:14.597Z</time></trkpt><trkpt lat="43.5527982" lon="11.8532341"><ele>258.5</ele><time>2026-04-29T10:53:15.552Z</time></trkpt><trkpt lat="43.5530485" lon="11.8530851"><ele>260.0</ele><time>2026-04-29T10:53:16.562Z</time></trkpt><trkpt lat="43.5532902" lon="11.8529412"><ele>260.0</ele><time>2026-04-29T10:53:17.561Z</time></trkpt><trkpt lat="43.5535246" lon="11.8528001"><ele>260.0</ele><time>2026-04-29T10:53:18.55Z</time></trkpt><trkpt lat="43.5537517" lon="11.8526594"><ele>259.0</ele><time>2026-04-29T10:53:19.542Z</time></trkpt><trkpt lat="43.5539812" lon="11.8525181"><ele>258.0</ele><time>2026-04-29T10:53:20.56Z</time></trkpt><trkpt lat="43.5541991" lon="11.852384"><ele>258.0</ele><time>2026-04-29T10:53:21.544Z</time></trkpt><trkpt lat="43.554417" lon="11.8522508"><ele>258.0</ele><time>2026-04-29T10:53:22.541Z</time></trkpt><trkpt lat="43.5546281" lon="11.8521246"><ele>258.3333333333333</ele><time>2026-04-29T10:53:23.554Z</time></trkpt><trkpt lat="43.5548299" lon="11.8520077"><ele>258.66666666666663</ele><time>2026-04-29T10:53:24.537Z</time></trkpt><trkpt lat="43.5550248" lon="11.8518897"><ele>259.0</ele><time>2026-04-29T10:53:25.539Z</time></trkpt><trkpt lat="43.5552166" lon="11.8517762"><ele>259.0</ele><time>2026-04-29T10:53:26.55Z</time></trkpt><trkpt lat="43.5553985" lon="11.8516608"><ele>259.0</ele><time>2026-04-29T10:53:27.554Z</time></trkpt><trkpt lat="43.5555714" lon="11.8515609"><ele>259.0</ele><time>2026-04-29T10:53:28.554Z</time></trkpt><trkpt lat="43.5557468" lon="11.8514621"><ele>259.0</ele><time>2026-04-29T10:53:29.544Z</time></trkpt><trkpt lat="43.5559303" lon="11.8513563"><ele>259.0</ele><time>2026-04-29T10:53:30.546Z</time></trkpt><trkpt lat="43.5561116" lon="11.8512469"><ele>259.0</ele><time>2026-04-29T10:53:31.567Z</time></trkpt><trkpt lat="43.5562826" lon="11.8511467"><ele>259.0</ele><time>2026-04-29T10:53:32.564Z</time></trkpt><trkpt lat="43.5564437" lon="11.8510494"><ele>259.0</ele><time>2026-04-29T10:53:33.551Z</time></trkpt><trkpt lat="43.5566052" lon="11.8509422"><ele>259.0</ele><time>2026-04-29T10:53:34.555Z</time></trkpt><trkpt lat="43.5567682" lon="11.8508319"><ele>259.0</ele><time>2026-04-29T10:53:35.552Z</time></trkpt><trkpt lat="43.5569492" lon="11.850715"><ele>259.0</ele><time>2026-04-29T10:53:36.565Z</time></trkpt><trkpt lat="43.5571287" lon="11.8506012"><ele>259.0</ele><time>2026-04-29T10:53:37.552Z</time></trkpt><trkpt lat="43.5573159" lon="11.8504805"><ele>259.0</ele><time>2026-04-29T10:53:38.553Z</time></trkpt><trkpt lat="43.5575062" lon="11.850361"><ele>259.0</ele><time>2026-04-29T10:53:39.563Z</time></trkpt><trkpt lat="43.5576856" lon="11.8502444"><ele>259.0</ele><time>2026-04-29T10:53:40.556Z</time></trkpt><trkpt lat="43.5578553" lon="11.8501378"><ele>258.3333333333333</ele><time>2026-04-29T10:53:41.548Z</time></trkpt><trkpt lat="43.5580223" lon="11.8500293"><ele>257.6666666666667</ele><time>2026-04-29T10:53:42.553Z</time></trkpt><trkpt lat="43.558192" lon="11.8499223"><ele>257.0</ele><time>2026-04-29T10:53:43.566Z</time></trkpt><trkpt lat="43.558359" lon="11.8498174"><ele>257.0</ele><time>2026-04-29T10:53:44.553Z</time></trkpt><trkpt lat="43.5585288" lon="11.8497158"><ele>257.0</ele><time>2026-04-29T10:53:45.54Z</time></trkpt><trkpt lat="43.5587055" lon="11.8496068"><ele>257.0</ele><time>2026-04-29T10:53:46.553Z</time></trkpt><trkpt lat="43.5588842" lon="11.849498"><ele>257.0</ele><time>2026-04-29T10:53:47.555Z</time></trkpt><trkpt lat="43.5590735" lon="11.8493876"><ele>257.0</ele><time>2026-04-29T10:53:48.564Z</time></trkpt><trkpt lat="43.5592671" lon="11.8492827"><ele>257.0</ele><time>2026-04-29T10:53:49.568Z</time></trkpt><trkpt lat="43.5594594" lon="11.8491905"><ele>255.66666666666669</ele><time>2026-04-29T10:53:50.556Z</time></trkpt><trkpt lat="43.5596511" lon="11.8491099"><ele>254.33333333333331</ele><time>2026-04-29T10:53:51.553Z</time></trkpt><trkpt lat="43.5598496" lon="11.8490447"><ele>253.0</ele><time>2026-04-29T10:53:52.569Z</time></trkpt><trkpt lat="43.5600483" lon="11.8489991"><ele>253.0</ele><time>2026-04-29T10:53:53.567Z</time></trkpt><trkpt lat="43.5602448" lon="11.8489725"><ele>253.0</ele><time>2026-04-29T10:53:54.548Z</time></trkpt><trkpt lat="43.5604408" lon="11.8489591"><ele>253.0</ele><time>2026-04-29T10:53:55.564Z</time></trkpt><trkpt lat="43.5606367" lon="11.8489588"><ele>252.0</ele><time>2026-04-29T10:53:56.57Z</time></trkpt><trkpt lat="43.5608346" lon="11.8489721"><ele>251.0</ele><time>2026-04-29T10:53:57.566Z</time></trkpt><trkpt lat="43.5610312" lon="11.8489945"><ele>250.0</ele><time>2026-04-29T10:53:58.553Z</time></trkpt><trkpt lat="43.5612259" lon="11.8490334"><ele>253.0</ele><time>2026-04-29T10:53:59.556Z</time></trkpt><trkpt lat="43.5614201" lon="11.8490811"><ele>256.0</ele><time>2026-04-29T10:54:00.563Z</time></trkpt><trkpt lat="43.5616049" lon="11.8491376"><ele>259.0</ele><time>2026-04-29T10:54:01.562Z</time></trkpt><trkpt lat="43.5617906" lon="11.8492094"><ele>258.66666666666663</ele><time>2026-04-29T10:54:02.572Z</time></trkpt><trkpt lat="43.5619776" lon="11.8492966"><ele>258.3333333333333</ele><time>2026-04-29T10:54:03.584Z</time></trkpt><trkpt lat="43.5621559" lon="11.8493931"><ele>258.0</ele><time>2026-04-29T10:54:04.571Z</time></trkpt><trkpt lat="43.5623379" lon="11.8495073"><ele>258.0</ele><time>2026-04-29T10:54:05.571Z</time></trkpt><trkpt lat="43.5625106" lon="11.8496357"><ele>258.0</ele><time>2026-04-29T10:54:06.553Z</time></trkpt><trkpt lat="43.5626889" lon="11.8497848"><ele>258.0</ele><time>2026-04-29T10:54:07.555Z</time></trkpt><trkpt lat="43.5628639" lon="11.8499426"><ele>259.0</ele><time>2026-04-29T10:54:08.562Z</time></trkpt><trkpt lat="43.563026" lon="11.8501031"><ele>260.0</ele><time>2026-04-29T10:54:09.55Z</time></trkpt><trkpt lat="43.5631847" lon="11.8502791"><ele>261.0</ele><time>2026-04-29T10:54:10.569Z</time></trkpt><trkpt lat="43.5633234" lon="11.8504507"><ele>262.0</ele><time>2026-04-29T10:54:11.549Z</time></trkpt><trkpt lat="43.5634584" lon="11.8506357"><ele>263.0</ele><time>2026-04-29T10:54:12.554Z</time></trkpt><trkpt lat="43.5635891" lon="11.8508277"><ele>264.0</ele><time>2026-04-29T10:54:13.574Z</time></trkpt><trkpt lat="43.563712" lon="11.851026"><ele>271.0</ele><time>2026-04-29T10:54:14.563Z</time></trkpt><trkpt lat="43.5638338" lon="11.8512397"><ele>278.0</ele><time>2026-04-29T10:54:15.555Z</time></trkpt><trkpt lat="43.5639529" lon="11.8514726"><ele>285.0</ele><time>2026-04-29T10:54:16.565Z</time></trkpt><trkpt lat="43.5640643" lon="11.8517149"><ele>282.3333333333333</ele><time>2026-04-29T10:54:17.56Z</time></trkpt><trkpt lat="43.5641681" lon="11.8519675"><ele>279.66666666666663</ele><time>2026-04-29T10:54:18.566Z</time></trkpt><trkpt lat="43.5642642" lon="11.852228"><ele>277.0</ele><time>2026-04-29T10:54:19.578Z</time></trkpt><trkpt lat="43.5643446" lon="11.852487"><ele>273.66666666666663</ele><time>2026-04-29T10:54:20.551Z</time></trkpt><trkpt lat="43.5644181" lon="11.8527527"><ele>270.3333333333333</ele><time>2026-04-29T10:54:21.577Z</time></trkpt><trkpt lat="43.5644776" lon="11.853004"><ele>267.0</ele><time>2026-04-29T10:54:22.554Z</time></trkpt><trkpt lat="43.5645375" lon="11.853275"><ele>270.0</ele><time>2026-04-29T10:54:23.593Z</time></trkpt><trkpt lat="43.5645928" lon="11.8535372"><ele>273.0</ele><time>2026-04-29T10:54:24.578Z</time></trkpt><trkpt lat="43.5646488" lon="11.8538064"><ele>276.0</ele><time>2026-04-29T10:54:25.58Z</time></trkpt><trkpt lat="43.5647075" lon="11.8540776"><ele>273.3333333333333</ele><time>2026-04-29T10:54:26.582Z</time></trkpt><trkpt lat="43.5647694" lon="11.8543507"><ele>270.66666666666663</ele><time>2026-04-29T10:54:27.592Z</time></trkpt><trkpt lat="43.5648287" lon="11.8546119"><ele>268.0</ele><time>2026-04-29T10:54:28.572Z</time></trkpt><trkpt lat="43.564887" lon="11.8548715"><ele>267.0</ele><time>2026-04-29T10:54:29.569Z</time></trkpt><trkpt lat="43.5649481" lon="11.8551304"><ele>266.0</ele><time>2026-04-29T10:54:30.563Z</time></trkpt><trkpt lat="43.5650067" lon="11.8553885"><ele>265.0</ele><time>2026-04-29T10:54:31.572Z</time></trkpt><trkpt lat="43.5650642" lon="11.8556553"><ele>265.0</ele><time>2026-04-29T10:54:32.571Z</time></trkpt><trkpt lat="43.5651299" lon="11.8559344"><ele>265.0</ele><time>2026-04-29T10:54:33.55Z</time></trkpt><trkpt lat="43.5652053" lon="11.8562512"><ele>264.5</ele><time>2026-04-29T10:54:34.551Z</time></trkpt><trkpt lat="43.5652939" lon="11.8566229"><ele>264.0</ele><time>2026-04-29T10:54:35.579Z</time></trkpt><trkpt lat="43.5653759" lon="11.857007"><ele>269.0</ele><time>2026-04-29T10:54:36.573Z</time></trkpt><trkpt lat="43.5654551" lon="11.857379"><ele>274.0</ele><time>2026-04-29T10:54:37.558Z</time></trkpt><trkpt lat="43.5655379" lon="11.8577524"><ele>274.0</ele><time>2026-04-29T10:54:38.559Z</time></trkpt><trkpt lat="43.5656304" lon="11.8581067"><ele>274.0</ele><time>2026-04-29T10:54:39.561Z</time></trkpt><trkpt lat="43.5657274" lon="11.858428"><ele>272.5</ele><time>2026-04-29T10:54:40.575Z</time></trkpt><trkpt lat="43.5658291" lon="11.8587181"><ele>271.0</ele><time>2026-04-29T10:54:41.593Z</time></trkpt><trkpt lat="43.565932" lon="11.8589856"><ele>271.0</ele><time>2026-04-29T10:54:42.566Z</time></trkpt><trkpt lat="43.5660445" lon="11.8592552"><ele>271.0</ele><time>2026-04-29T10:54:43.557Z</time></trkpt><trkpt lat="43.5661762" lon="11.8595485"><ele>268.5</ele><time>2026-04-29T10:54:44.556Z</time></trkpt><trkpt lat="43.5663089" lon="11.8598626"><ele>266.0</ele><time>2026-04-29T10:54:45.555Z</time></trkpt><trkpt lat="43.5664467" lon="11.860209"><ele>266.0</ele><time>2026-04-29T10:54:46.572Z</time></trkpt><trkpt lat="43.5665844" lon="11.86055"><ele>266.0</ele><time>2026-04-29T10:54:47.557Z</time></trkpt><trkpt lat="43.5667237" lon="11.8608893"><ele>264.5</ele><time>2026-04-29T10:54:48.551Z</time></trkpt><trkpt lat="43.5668702" lon="11.8612164"><ele>263.0</ele><time>2026-04-29T10:54:49.574Z</time></trkpt><trkpt lat="43.5670108" lon="11.8615415"><ele>263.5</ele><time>2026-04-29T10:54:50.563Z</time></trkpt><trkpt lat="43.5671492" lon="11.8618788"><ele>264.0</ele><time>2026-04-29T10:54:51.577Z</time></trkpt><trkpt lat="43.567285" lon="11.8622066"><ele>264.0</ele><time>2026-04-29T10:54:52.563Z</time></trkpt><trkpt lat="43.5674273" lon="11.862546"><ele>264.0</ele><time>2026-04-29T10:54:53.565Z</time></trkpt><trkpt lat="43.5675704" lon="11.8628856"><ele>264.0</ele><time>2026-04-29T10:54:54.577Z</time></trkpt><trkpt lat="43.5677004" lon="11.8632149"><ele>264.0</ele><time>2026-04-29T10:54:55.565Z</time></trkpt><trkpt lat="43.567831" lon="11.863537"><ele>263.5</ele><time>2026-04-29T10:54:56.562Z</time></trkpt><trkpt lat="43.5679669" lon="11.8638664"><ele>263.0</ele><time>2026-04-29T10:54:57.568Z</time></trkpt><trkpt lat="43.5681109" lon="11.8641984"><ele>263.0</ele><time>2026-04-29T10:54:58.59Z</time></trkpt><trkpt lat="43.5682469" lon="11.8645257"><ele>263.0</ele><time>2026-04-29T10:54:59.572Z</time></trkpt><trkpt lat="43.5683798" lon="11.8648609"><ele>263.0</ele><time>2026-04-29T10:55:00.56Z</time></trkpt><trkpt lat="43.5685106" lon="11.8651928"><ele>263.0</ele><time>2026-04-29T10:55:01.567Z</time></trkpt><trkpt lat="43.5686404" lon="11.8655087"><ele>263.5</ele><time>2026-04-29T10:55:02.582Z</time></trkpt><trkpt lat="43.5687599" lon="11.8657906"><ele>264.0</ele><time>2026-04-29T10:55:03.558Z</time></trkpt><trkpt lat="43.5688742" lon="11.8660544"><ele>263.3333333333333</ele><time>2026-04-29T10:55:04.565Z</time></trkpt><trkpt lat="43.5689812" lon="11.8662997"><ele>262.66666666666663</ele><time>2026-04-29T10:55:05.575Z</time></trkpt><trkpt lat="43.5690754" lon="11.8665248"><ele>262.0</ele><time>2026-04-29T10:55:06.559Z</time></trkpt><trkpt lat="43.5691699" lon="11.8667485"><ele>261.3333333333333</ele><time>2026-04-29T10:55:07.564Z</time></trkpt><trkpt lat="43.5692577" lon="11.866958"><ele>260.6666666666667</ele><time>2026-04-29T10:55:08.555Z</time></trkpt><trkpt lat="43.5693411" lon="11.8671548"><ele>260.0</ele><time>2026-04-29T10:55:09.557Z</time></trkpt><trkpt lat="43.5694192" lon="11.8673398"><ele>260.0</ele><time>2026-04-29T10:55:10.547Z</time></trkpt><trkpt lat="43.5694968" lon="11.8675247"><ele>260.0</ele><time>2026-04-29T10:55:11.573Z</time></trkpt><trkpt lat="43.5695647" lon="11.8676925"><ele>260.0</ele><time>2026-04-29T10:55:12.563Z</time></trkpt><trkpt lat="43.5696348" lon="11.8678626"><ele>260.0</ele><time>2026-04-29T10:55:13.575Z</time></trkpt><trkpt lat="43.5696988" lon="11.8680212"><ele>260.6</ele><time>2026-04-29T10:55:14.57Z</time></trkpt><trkpt lat="43.5697615" lon="11.8681726"><ele>261.2</ele><time>2026-04-29T10:55:15.567Z</time></trkpt><trkpt lat="43.5698226" lon="11.8683087"><ele>261.8</ele><time>2026-04-29T10:55:16.567Z</time></trkpt><trkpt lat="43.5698781" lon="11.868425"><ele>262.4</ele><time>2026-04-29T10:55:17.571Z</time></trkpt><trkpt lat="43.5699172" lon="11.8685212"><ele>263.0</ele><time>2026-04-29T10:55:18.57Z</time></trkpt><trkpt lat="43.5699167" lon="11.8686986"><ele>263.33333333333337</ele><time>2026-04-29T10:55:20.577Z</time></trkpt><trkpt lat="43.5698889" lon="11.868781"><ele>263.6666666666667</ele><time>2026-04-29T10:55:21.573Z</time></trkpt><trkpt lat="43.5698528" lon="11.8688661"><ele>264.0</ele><time>2026-04-29T10:55:22.546Z</time></trkpt><trkpt lat="43.5698239" lon="11.8689537"><ele>264.3333333333333</ele><time>2026-04-29T10:55:23.573Z</time></trkpt><trkpt lat="43.5698219" lon="11.8691068"><ele>264.66666666666663</ele><time>2026-04-29T10:55:25.56Z</time></trkpt><trkpt lat="43.5699041" lon="11.8692085"><ele>265.0</ele><time>2026-04-29T10:55:27.579Z</time></trkpt><trkpt lat="43.5699652" lon="11.8692348"><ele>265.0</ele><time>2026-04-29T10:55:28.56Z</time></trkpt><trkpt lat="43.5700334" lon="11.8692468"><ele>265.0</ele><time>2026-04-29T10:55:29.57Z</time></trkpt><trkpt lat="43.5701036" lon="11.8692464"><ele>265.0</ele><time>2026-04-29T10:55:30.547Z</time></trkpt><trkpt lat="43.5702244" lon="11.8692651"><ele>265.0</ele><time>2026-04-29T10:55:32.574Z</time></trkpt><trkpt lat="43.5703034" lon="11.8692944"><ele>265.0</ele><time>2026-04-29T10:55:33.576Z</time></trkpt><trkpt lat="43.5703915" lon="11.8693298"><ele>265.0</ele><time>2026-04-29T10:55:34.565Z</time></trkpt><trkpt lat="43.5704831" lon="11.8693666"><ele>265.5</ele><time>2026-04-29T10:55:35.554Z</time></trkpt><trkpt lat="43.5705794" lon="11.8694177"><ele>266.0</ele><time>2026-04-29T10:55:36.563Z</time></trkpt><trkpt lat="43.5706802" lon="11.8694794"><ele>266.5</ele><time>2026-04-29T10:55:37.592Z</time></trkpt><trkpt lat="43.5707802" lon="11.8695548"><ele>267.0</ele><time>2026-04-29T10:55:38.555Z</time></trkpt><trkpt lat="43.5708984" lon="11.8696468"><ele>267.0</ele><time>2026-04-29T10:55:39.555Z</time></trkpt><trkpt lat="43.5710278" lon="11.8697563"><ele>267.0</ele><time>2026-04-29T10:55:40.568Z</time></trkpt><trkpt lat="43.5711681" lon="11.8698766"><ele>267.0</ele><time>2026-04-29T10:55:41.576Z</time></trkpt><trkpt lat="43.571314" lon="11.8700049"><ele>267.3333333333333</ele><time>2026-04-29T10:55:42.586Z</time></trkpt><trkpt lat="43.5714549" lon="11.870138"><ele>267.66666666666663</ele><time>2026-04-29T10:55:43.562Z</time></trkpt><trkpt lat="43.5715931" lon="11.8702693"><ele>268.0</ele><time>2026-04-29T10:55:44.565Z</time></trkpt><trkpt lat="43.5717256" lon="11.8703894"><ele>268.0</ele><time>2026-04-29T10:55:45.56Z</time></trkpt><trkpt lat="43.5718528" lon="11.8705017"><ele>268.0</ele><time>2026-04-29T10:55:46.56Z</time></trkpt><trkpt lat="43.5719743" lon="11.8706063"><ele>268.0</ele><time>2026-04-29T10:55:47.554Z</time></trkpt><trkpt lat="43.5720941" lon="11.8707109"><ele>268.0</ele><time>2026-04-29T10:55:48.559Z</time></trkpt><trkpt lat="43.5722149" lon="11.8708163"><ele>268.25</ele><time>2026-04-29T10:55:49.552Z</time></trkpt><trkpt lat="43.5723423" lon="11.8709278"><ele>268.5</ele><time>2026-04-29T10:55:50.582Z</time></trkpt><trkpt lat="43.5724592" lon="11.8710291"><ele>268.75</ele><time>2026-04-29T10:55:51.555Z</time></trkpt><trkpt lat="43.5725858" lon="11.8711396"><ele>269.0</ele><time>2026-04-29T10:55:52.612Z</time></trkpt><trkpt lat="43.5726968" lon="11.8712369"><ele>269.0</ele><time>2026-04-29T10:55:53.55Z</time></trkpt><trkpt lat="43.5728136" lon="11.8713399"><ele>269.0</ele><time>2026-04-29T10:55:54.55Z</time></trkpt><trkpt lat="43.5729372" lon="11.8714459"><ele>269.0</ele><time>2026-04-29T10:55:55.547Z</time></trkpt><trkpt lat="43.57306" lon="11.8715509"><ele>269.0</ele><time>2026-04-29T10:55:56.554Z</time></trkpt><trkpt lat="43.5731847" lon="11.8716625"><ele>269.0</ele><time>2026-04-29T10:55:57.571Z</time></trkpt><trkpt lat="43.5733072" lon="11.8717683"><ele>269.0</ele><time>2026-04-29T10:55:58.591Z</time></trkpt><trkpt lat="43.5734256" lon="11.8718696"><ele>269.0</ele><time>2026-04-29T10:55:59.569Z</time></trkpt><trkpt lat="43.5735531" lon="11.8719713"><ele>269.0</ele><time>2026-04-29T10:56:00.559Z</time></trkpt><trkpt lat="43.5736862" lon="11.8720672"><ele>269.75</ele><time>2026-04-29T10:56:01.568Z</time></trkpt><trkpt lat="43.5738126" lon="11.8721469"><ele>270.5</ele><time>2026-04-29T10:56:02.553Z</time></trkpt><trkpt lat="43.5739428" lon="11.8722123"><ele>271.25</ele><time>2026-04-29T10:56:03.555Z</time></trkpt><trkpt lat="43.574082" lon="11.8722686"><ele>272.0</ele><time>2026-04-29T10:56:04.589Z</time></trkpt><trkpt lat="43.5742149" lon="11.8723179"><ele>272.0</ele><time>2026-04-29T10:56:05.561Z</time></trkpt><trkpt lat="43.5743528" lon="11.8723583"><ele>272.0</ele><time>2026-04-29T10:56:06.559Z</time></trkpt><trkpt lat="43.5744915" lon="11.8723918"><ele>272.0</ele><time>2026-04-29T10:56:07.557Z</time></trkpt><trkpt lat="43.5746292" lon="11.8724173"><ele>272.0</ele><time>2026-04-29T10:56:08.556Z</time></trkpt><trkpt lat="43.5747671" lon="11.8724307"><ele>272.0</ele><time>2026-04-29T10:56:09.552Z</time></trkpt><trkpt lat="43.5749102" lon="11.8724256"><ele>272.0</ele><time>2026-04-29T10:56:10.574Z</time></trkpt><trkpt lat="43.5750514" lon="11.8724021"><ele>272.0</ele><time>2026-04-29T10:56:11.565Z</time></trkpt><trkpt lat="43.5751959" lon="11.8723728"><ele>272.0</ele><time>2026-04-29T10:56:12.57Z</time></trkpt><trkpt lat="43.5753296" lon="11.8723261"><ele>272.0</ele><time>2026-04-29T10:56:13.556Z</time></trkpt><trkpt lat="43.5754782" lon="11.8722711"><ele>272.0</ele><time>2026-04-29T10:56:14.549Z</time></trkpt><trkpt lat="43.575651" lon="11.8722138"><ele>272.0</ele><time>2026-04-29T10:56:15.553Z</time></trkpt><trkpt lat="43.5758479" lon="11.8721602"><ele>272.0</ele><time>2026-04-29T10:56:16.561Z</time></trkpt><trkpt lat="43.5760635" lon="11.8721139"><ele>272.0</ele><time>2026-04-29T10:56:17.597Z</time></trkpt><trkpt lat="43.5762728" lon="11.8720756"><ele>272.0</ele><time>2026-04-29T10:56:18.555Z</time></trkpt><trkpt lat="43.5765041" lon="11.8720286"><ele>272.6666666666667</ele><time>2026-04-29T10:56:19.579Z</time></trkpt><trkpt lat="43.576725" lon="11.8719777"><ele>273.3333333333333</ele><time>2026-04-29T10:56:20.576Z</time></trkpt><trkpt lat="43.5769358" lon="11.8719287"><ele>274.0</ele><time>2026-04-29T10:56:21.573Z</time></trkpt><trkpt lat="43.577142" lon="11.8718818"><ele>274.0</ele><time>2026-04-29T10:56:22.559Z</time></trkpt><trkpt lat="43.5773546" lon="11.8718333"><ele>274.0</ele><time>2026-04-29T10:56:23.58Z</time></trkpt><trkpt lat="43.5775553" lon="11.8717837"><ele>274.0</ele><time>2026-04-29T10:56:24.577Z</time></trkpt><trkpt lat="43.5777495" lon="11.8717396"><ele>273.3333333333333</ele><time>2026-04-29T10:56:25.585Z</time></trkpt><trkpt lat="43.5779316" lon="11.8716992"><ele>272.6666666666667</ele><time>2026-04-29T10:56:26.557Z</time></trkpt><trkpt lat="43.5781174" lon="11.8716548"><ele>272.0</ele><time>2026-04-29T10:56:27.577Z</time></trkpt><trkpt lat="43.5783004" lon="11.8716165"><ele>272.0</ele><time>2026-04-29T10:56:28.571Z</time></trkpt><trkpt lat="43.5784813" lon="11.8715863"><ele>272.0</ele><time>2026-04-29T10:56:29.554Z</time></trkpt><trkpt lat="43.5786754" lon="11.8715679"><ele>272.0</ele><time>2026-04-29T10:56:30.592Z</time></trkpt><trkpt lat="43.578856" lon="11.8715696"><ele>271.6666666666667</ele><time>2026-04-29T10:56:31.551Z</time></trkpt><trkpt lat="43.5790456" lon="11.8715851"><ele>271.3333333333333</ele><time>2026-04-29T10:56:32.6Z</time></trkpt><trkpt lat="43.5792117" lon="11.8716127"><ele>271.0</ele><time>2026-04-29T10:56:33.584Z</time></trkpt><trkpt lat="43.5793733" lon="11.8716589"><ele>271.0</ele><time>2026-04-29T10:56:34.569Z</time></trkpt><trkpt lat="43.5795314" lon="11.8717168"><ele>271.0</ele><time>2026-04-29T10:56:35.555Z</time></trkpt><trkpt lat="43.5796935" lon="11.8717797"><ele>271.0</ele><time>2026-04-29T10:56:36.572Z</time></trkpt><trkpt lat="43.579848" lon="11.871843"><ele>271.0</ele><time>2026-04-29T10:56:37.558Z</time></trkpt><trkpt lat="43.5800025" lon="11.8719088"><ele>271.0</ele><time>2026-04-29T10:56:38.569Z</time></trkpt><trkpt lat="43.5801652" lon="11.8719778"><ele>271.0</ele><time>2026-04-29T10:56:39.561Z</time></trkpt><trkpt lat="43.5803151" lon="11.8720376"><ele>271.3333333333333</ele><time>2026-04-29T10:56:40.557Z</time></trkpt><trkpt lat="43.5804715" lon="11.8721004"><ele>271.6666666666667</ele><time>2026-04-29T10:56:41.565Z</time></trkpt><trkpt lat="43.5806238" lon="11.8721643"><ele>272.0</ele><time>2026-04-29T10:56:42.568Z</time></trkpt><trkpt lat="43.5807816" lon="11.8722298"><ele>272.0</ele><time>2026-04-29T10:56:43.564Z</time></trkpt><trkpt lat="43.5809494" lon="11.8722914"><ele>272.0</ele><time>2026-04-29T10:56:44.558Z</time></trkpt><trkpt lat="43.5811372" lon="11.8723569"><ele>272.0</ele><time>2026-04-29T10:56:45.568Z</time></trkpt><trkpt lat="43.5813437" lon="11.8724385"><ele>272.5</ele><time>2026-04-29T10:56:46.568Z</time></trkpt><trkpt lat="43.5815581" lon="11.8725256"><ele>273.0</ele><time>2026-04-29T10:56:47.559Z</time></trkpt><trkpt lat="43.5817847" lon="11.8726163"><ele>273.5</ele><time>2026-04-29T10:56:48.555Z</time></trkpt><trkpt lat="43.5820215" lon="11.8727134"><ele>274.0</ele><time>2026-04-29T10:56:49.56Z</time></trkpt><trkpt lat="43.5822588" lon="11.8728055"><ele>274.0</ele><time>2026-04-29T10:56:50.558Z</time></trkpt><trkpt lat="43.5824948" lon="11.8728933"><ele>274.0</ele><time>2026-04-29T10:56:51.562Z</time></trkpt><trkpt lat="43.5827267" lon="11.8729794"><ele>274.0</ele><time>2026-04-29T10:56:52.569Z</time></trkpt><trkpt lat="43.5829519" lon="11.873065"><ele>274.0</ele><time>2026-04-29T10:56:53.558Z</time></trkpt><trkpt lat="43.5831782" lon="11.8731503"><ele>274.0</ele><time>2026-04-29T10:56:54.56Z</time></trkpt><trkpt lat="43.5834015" lon="11.8732304"><ele>274.0</ele><time>2026-04-29T10:56:55.557Z</time></trkpt><trkpt lat="43.5836228" lon="11.8733105"><ele>273.0</ele><time>2026-04-29T10:56:56.559Z</time></trkpt><trkpt lat="43.5838429" lon="11.8733934"><ele>272.0</ele><time>2026-04-29T10:56:57.561Z</time></trkpt><trkpt lat="43.5840614" lon="11.873476"><ele>272.0</ele><time>2026-04-29T10:56:58.56Z</time></trkpt><trkpt lat="43.5842831" lon="11.8735599"><ele>272.0</ele><time>2026-04-29T10:56:59.565Z</time></trkpt><trkpt lat="43.5845051" lon="11.8736475"><ele>272.0</ele><time>2026-04-29T10:57:00.574Z</time></trkpt><trkpt lat="43.5847224" lon="11.8737387"><ele>272.0</ele><time>2026-04-29T10:57:01.57Z</time></trkpt><trkpt lat="43.5849384" lon="11.8738414"><ele>272.0</ele><time>2026-04-29T10:57:02.559Z</time></trkpt><trkpt lat="43.5851648" lon="11.8739619"><ele>272.0</ele><time>2026-04-29T10:57:03.562Z</time></trkpt><trkpt lat="43.5853919" lon="11.874089"><ele>272.0</ele><time>2026-04-29T10:57:04.557Z</time></trkpt><trkpt lat="43.5856153" lon="11.8742187"><ele>272.0</ele><time>2026-04-29T10:57:05.564Z</time></trkpt><trkpt lat="43.5858251" lon="11.8743454"><ele>272.0</ele><time>2026-04-29T10:57:06.559Z</time></trkpt><trkpt lat="43.5860362" lon="11.8744677"><ele>272.0</ele><time>2026-04-29T10:57:07.556Z</time></trkpt><trkpt lat="43.5862371" lon="11.8745868"><ele>272.0</ele><time>2026-04-29T10:57:08.558Z</time></trkpt><trkpt lat="43.5864337" lon="11.8747008"><ele>272.33333333333337</ele><time>2026-04-29T10:57:09.565Z</time></trkpt><trkpt lat="43.5866162" lon="11.8748117"><ele>272.6666666666667</ele><time>2026-04-29T10:57:10.553Z</time></trkpt><trkpt lat="43.5867996" lon="11.8749258"><ele>273.0</ele><time>2026-04-29T10:57:11.586Z</time></trkpt><trkpt lat="43.5869663" lon="11.8750246"><ele>275.0</ele><time>2026-04-29T10:57:12.563Z</time></trkpt><trkpt lat="43.5871418" lon="11.8751262"><ele>277.0</ele><time>2026-04-29T10:57:13.557Z</time></trkpt><trkpt lat="43.5873177" lon="11.8752193"><ele>279.0</ele><time>2026-04-29T10:57:14.561Z</time></trkpt><trkpt lat="43.5874968" lon="11.8753004"><ele>279.0</ele><time>2026-04-29T10:57:15.56Z</time></trkpt><trkpt lat="43.5876659" lon="11.8753772"><ele>279.0</ele><time>2026-04-29T10:57:16.557Z</time></trkpt><trkpt lat="43.587844" lon="11.8754609"><ele>279.0</ele><time>2026-04-29T10:57:17.581Z</time></trkpt><trkpt lat="43.5880094" lon="11.8755502"><ele>278.0</ele><time>2026-04-29T10:57:18.567Z</time></trkpt><trkpt lat="43.5881749" lon="11.8756483"><ele>277.0</ele><time>2026-04-29T10:57:19.555Z</time></trkpt><trkpt lat="43.5883428" lon="11.8757632"><ele>276.0</ele><time>2026-04-29T10:57:20.57Z</time></trkpt><trkpt lat="43.5885219" lon="11.8759046"><ele>276.3333333333333</ele><time>2026-04-29T10:57:21.641Z</time></trkpt><trkpt lat="43.5886653" lon="11.8760387"><ele>276.66666666666663</ele><time>2026-04-29T10:57:22.551Z</time></trkpt><trkpt lat="43.5888136" lon="11.876179"><ele>277.0</ele><time>2026-04-29T10:57:23.566Z</time></trkpt><trkpt lat="43.5889444" lon="11.8763216"><ele>277.0</ele><time>2026-04-29T10:57:24.582Z</time></trkpt><trkpt lat="43.5890869" lon="11.8764812"><ele>277.0</ele><time>2026-04-29T10:57:25.553Z</time></trkpt><trkpt lat="43.589229" lon="11.8766426"><ele>277.0</ele><time>2026-04-29T10:57:26.56Z</time></trkpt><trkpt lat="43.5893749" lon="11.8768034"><ele>275.66666666666663</ele><time>2026-04-29T10:57:27.562Z</time></trkpt><trkpt lat="43.5895279" lon="11.8769357"><ele>274.3333333333333</ele><time>2026-04-29T10:57:28.571Z</time></trkpt><trkpt lat="43.5896682" lon="11.8770177"><ele>273.0</ele><time>2026-04-29T10:57:29.58Z</time></trkpt><trkpt lat="43.5898327" lon="11.8770946"><ele>273.0</ele><time>2026-04-29T10:57:30.576Z</time></trkpt><trkpt lat="43.5899982" lon="11.8771597"><ele>273.0</ele><time>2026-04-29T10:57:31.553Z</time></trkpt><trkpt lat="43.5901726" lon="11.8772278"><ele>273.0</ele><time>2026-04-29T10:57:32.588Z</time></trkpt><trkpt lat="43.5903479" lon="11.8772939"><ele>272.0</ele><time>2026-04-29T10:57:33.579Z</time></trkpt><trkpt lat="43.5905177" lon="11.8773675"><ele>271.0</ele><time>2026-04-29T10:57:34.559Z</time></trkpt><trkpt lat="43.5906945" lon="11.8774476"><ele>270.0</ele><time>2026-04-29T10:57:35.559Z</time></trkpt><trkpt lat="43.5908699" lon="11.8775399"><ele>270.6666666666667</ele><time>2026-04-29T10:57:36.562Z</time></trkpt><trkpt lat="43.5910507" lon="11.8776442"><ele>271.33333333333337</ele><time>2026-04-29T10:57:37.586Z</time></trkpt><trkpt lat="43.5912163" lon="11.8777538"><ele>272.0</ele><time>2026-04-29T10:57:38.564Z</time></trkpt><trkpt lat="43.5913879" lon="11.8778682"><ele>272.0</ele><time>2026-04-29T10:57:39.58Z</time></trkpt><trkpt lat="43.5915504" lon="11.8779697"><ele>272.0</ele><time>2026-04-29T10:57:40.569Z</time></trkpt><trkpt lat="43.5917145" lon="11.8780736"><ele>272.0</ele><time>2026-04-29T10:57:41.572Z</time></trkpt><trkpt lat="43.5918687" lon="11.8781721"><ele>272.0</ele><time>2026-04-29T10:57:42.584Z</time></trkpt><trkpt lat="43.592013" lon="11.8782647"><ele>272.0</ele><time>2026-04-29T10:57:43.566Z</time></trkpt><trkpt lat="43.5921644" lon="11.8783638"><ele>272.0</ele><time>2026-04-29T10:57:44.598Z</time></trkpt><trkpt lat="43.5923176" lon="11.8784547"><ele>273.6666666666667</ele><time>2026-04-29T10:57:45.586Z</time></trkpt><trkpt lat="43.5924854" lon="11.8785314"><ele>275.3333333333333</ele><time>2026-04-29T10:57:46.565Z</time></trkpt><trkpt lat="43.592673" lon="11.8786164"><ele>277.0</ele><time>2026-04-29T10:57:47.585Z</time></trkpt><trkpt lat="43.5928657" lon="11.8786953"><ele>277.0</ele><time>2026-04-29T10:57:48.572Z</time></trkpt><trkpt lat="43.5930547" lon="11.878782"><ele>277.0</ele><time>2026-04-29T10:57:49.556Z</time></trkpt><trkpt lat="43.5932426" lon="11.8788813"><ele>277.0</ele><time>2026-04-29T10:57:50.561Z</time></trkpt><trkpt lat="43.5934228" lon="11.8789869"><ele>277.0</ele><time>2026-04-29T10:57:51.57Z</time></trkpt><trkpt lat="43.5935844" lon="11.8790849"><ele>277.0</ele><time>2026-04-29T10:57:52.566Z</time></trkpt><trkpt lat="43.5937431" lon="11.8791691"><ele>277.0</ele><time>2026-04-29T10:57:53.573Z</time></trkpt><trkpt lat="43.5938938" lon="11.8792371"><ele>277.0</ele><time>2026-04-29T10:57:54.573Z</time></trkpt><trkpt lat="43.5940351" lon="11.8792791"><ele>277.0</ele><time>2026-04-29T10:57:55.578Z</time></trkpt><trkpt lat="43.5941737" lon="11.87929"><ele>277.0</ele><time>2026-04-29T10:57:56.565Z</time></trkpt><trkpt lat="43.5943121" lon="11.8792745"><ele>277.0</ele><time>2026-04-29T10:57:57.554Z</time></trkpt><trkpt lat="43.5944615" lon="11.8792431"><ele>279.0</ele><time>2026-04-29T10:57:58.574Z</time></trkpt><trkpt lat="43.5946042" lon="11.8792033"><ele>281.0</ele><time>2026-04-29T10:57:59.564Z</time></trkpt><trkpt lat="43.5947556" lon="11.8791671"><ele>283.0</ele><time>2026-04-29T10:58:00.561Z</time></trkpt><trkpt lat="43.5949127" lon="11.8791313"><ele>283.0</ele><time>2026-04-29T10:58:01.566Z</time></trkpt><trkpt lat="43.5950605" lon="11.879101"><ele>283.0</ele><time>2026-04-29T10:58:02.593Z</time></trkpt><trkpt lat="43.5951966" lon="11.8790713"><ele>283.0</ele><time>2026-04-29T10:58:03.556Z</time></trkpt><trkpt lat="43.5953414" lon="11.8790287"><ele>283.0</ele><time>2026-04-29T10:58:04.581Z</time></trkpt><trkpt lat="43.5954906" lon="11.8789776"><ele>286.0</ele><time>2026-04-29T10:58:05.585Z</time></trkpt><trkpt lat="43.5956387" lon="11.8789215"><ele>289.0</ele><time>2026-04-29T10:58:06.583Z</time></trkpt><trkpt lat="43.5957966" lon="11.8788624"><ele>292.0</ele><time>2026-04-29T10:58:07.56Z</time></trkpt><trkpt lat="43.5959522" lon="11.8788028"><ele>292.0</ele><time>2026-04-29T10:58:08.566Z</time></trkpt><trkpt lat="43.596108" lon="11.8787413"><ele>292.0</ele><time>2026-04-29T10:58:09.566Z</time></trkpt><trkpt lat="43.5962546" lon="11.8786721"><ele>292.0</ele><time>2026-04-29T10:58:10.576Z</time></trkpt><trkpt lat="43.5963978" lon="11.8785977"><ele>290.3333333333333</ele><time>2026-04-29T10:58:11.56Z</time></trkpt><trkpt lat="43.5965436" lon="11.8785074"><ele>288.6666666666667</ele><time>2026-04-29T10:58:12.568Z</time></trkpt><trkpt lat="43.5966904" lon="11.8783961"><ele>287.0</ele><time>2026-04-29T10:58:13.583Z</time></trkpt><trkpt lat="43.596825" lon="11.8782715"><ele>287.0</ele><time>2026-04-29T10:58:14.567Z</time></trkpt><trkpt lat="43.5969575" lon="11.8781496"><ele>287.0</ele><time>2026-04-29T10:58:15.566Z</time></trkpt><trkpt lat="43.597078" lon="11.8780247"><ele>287.0</ele><time>2026-04-29T10:58:16.566Z</time></trkpt><trkpt lat="43.5971874" lon="11.8778822"><ele>288.33333333333337</ele><time>2026-04-29T10:58:17.562Z</time></trkpt><trkpt lat="43.5972883" lon="11.877717"><ele>289.6666666666667</ele><time>2026-04-29T10:58:18.564Z</time></trkpt><trkpt lat="43.5973836" lon="11.8775421"><ele>291.0</ele><time>2026-04-29T10:58:19.555Z</time></trkpt><trkpt lat="43.5974816" lon="11.8773585"><ele>291.0</ele><time>2026-04-29T10:58:20.577Z</time></trkpt><trkpt lat="43.5975791" lon="11.8771804"><ele>291.0</ele><time>2026-04-29T10:58:21.582Z</time></trkpt><trkpt lat="43.5976783" lon="11.8770017"><ele>291.0</ele><time>2026-04-29T10:58:22.594Z</time></trkpt><trkpt lat="43.5977778" lon="11.8768334"><ele>295.6666666666667</ele><time>2026-04-29T10:58:23.575Z</time></trkpt><trkpt lat="43.5978865" lon="11.8766635"><ele>300.33333333333337</ele><time>2026-04-29T10:58:24.57Z</time></trkpt><trkpt lat="43.5980009" lon="11.8765121"><ele>305.0</ele><time>2026-04-29T10:58:25.584Z</time></trkpt><trkpt lat="43.5981053" lon="11.8763724"><ele>305.0</ele><time>2026-04-29T10:58:26.577Z</time></trkpt><trkpt lat="43.5982001" lon="11.8762354"><ele>305.0</ele><time>2026-04-29T10:58:27.557Z</time></trkpt><trkpt lat="43.5982843" lon="11.8760887"><ele>305.0</ele><time>2026-04-29T10:58:28.565Z</time></trkpt><trkpt lat="43.5983654" lon="11.8759304"><ele>305.0</ele><time>2026-04-29T10:58:29.557Z</time></trkpt><trkpt lat="43.5984398" lon="11.8757627"><ele>299.6666666666667</ele><time>2026-04-29T10:58:30.569Z</time></trkpt><trkpt lat="43.5985158" lon="11.8755926"><ele>294.3333333333333</ele><time>2026-04-29T10:58:31.58Z</time></trkpt><trkpt lat="43.5985964" lon="11.8754162"><ele>289.0</ele><time>2026-04-29T10:58:32.582Z</time></trkpt><trkpt lat="43.5986746" lon="11.8752249"><ele>294.66666666666663</ele><time>2026-04-29T10:58:33.573Z</time></trkpt><trkpt lat="43.598746" lon="11.8750199"><ele>300.3333333333333</ele><time>2026-04-29T10:58:34.586Z</time></trkpt><trkpt lat="43.5988104" lon="11.8748133"><ele>306.0</ele><time>2026-04-29T10:58:35.558Z</time></trkpt><trkpt lat="43.5988723" lon="11.874598"><ele>306.0</ele><time>2026-04-29T10:58:36.56Z</time></trkpt><trkpt lat="43.5989313" lon="11.8743741"><ele>306.0</ele><time>2026-04-29T10:58:37.579Z</time></trkpt><trkpt lat="43.5989926" lon="11.8741495"><ele>306.0</ele><time>2026-04-29T10:58:38.591Z</time></trkpt><trkpt lat="43.599062" lon="11.8739158"><ele>302.3333333333333</ele><time>2026-04-29T10:58:39.574Z</time></trkpt><trkpt lat="43.5991123" lon="11.8736653"><ele>298.66666666666663</ele><time>2026-04-29T10:58:40.573Z</time></trkpt><trkpt lat="43.599167" lon="11.8733855"><ele>295.0</ele><time>2026-04-29T10:58:41.573Z</time></trkpt><trkpt lat="43.5992331" lon="11.8730604"><ele>289.0</ele><time>2026-04-29T10:58:42.563Z</time></trkpt><trkpt lat="43.5993064" lon="11.8726954"><ele>283.0</ele><time>2026-04-29T10:58:43.571Z</time></trkpt><trkpt lat="43.5993852" lon="11.8723204"><ele>279.5</ele><time>2026-04-29T10:58:44.595Z</time></trkpt><trkpt lat="43.5994592" lon="11.8719494"><ele>276.0</ele><time>2026-04-29T10:58:45.598Z</time></trkpt><trkpt lat="43.5995212" lon="11.871596"><ele>284.5</ele><time>2026-04-29T10:58:46.576Z</time></trkpt><trkpt lat="43.5995698" lon="11.8712374"><ele>293.0</ele><time>2026-04-29T10:58:47.576Z</time></trkpt><trkpt lat="43.5996058" lon="11.8708971"><ele>293.0</ele><time>2026-04-29T10:58:48.561Z</time></trkpt><trkpt lat="43.5996381" lon="11.8705482"><ele>293.0</ele><time>2026-04-29T10:58:49.578Z</time></trkpt><trkpt lat="43.599662" lon="11.8702049"><ele>289.0</ele><time>2026-04-29T10:58:50.584Z</time></trkpt><trkpt lat="43.5996839" lon="11.8698713"><ele>285.0</ele><time>2026-04-29T10:58:51.594Z</time></trkpt><trkpt lat="43.5997025" lon="11.8695665"><ele>285.6666666666667</ele><time>2026-04-29T10:58:52.561Z</time></trkpt><trkpt lat="43.5997232" lon="11.8692713"><ele>286.33333333333337</ele><time>2026-04-29T10:58:53.573Z</time></trkpt><trkpt lat="43.5997448" lon="11.8690004"><ele>287.0</ele><time>2026-04-29T10:58:54.576Z</time></trkpt><trkpt lat="43.5997806" lon="11.8687579"><ele>287.0</ele><time>2026-04-29T10:58:55.588Z</time></trkpt><trkpt lat="43.599855" lon="11.8685652"><ele>287.0</ele><time>2026-04-29T10:58:56.581Z</time></trkpt><trkpt lat="43.5999468" lon="11.8683836"><ele>287.0</ele><time>2026-04-29T10:58:57.573Z</time></trkpt><trkpt lat="43.6000562" lon="11.8682116"><ele>288.0</ele><time>2026-04-29T10:58:58.555Z</time></trkpt><trkpt lat="43.6001895" lon="11.8680272"><ele>289.0</ele><time>2026-04-29T10:58:59.594Z</time></trkpt><trkpt lat="43.6003218" lon="11.8678354"><ele>290.0</ele><time>2026-04-29T10:59:00.553Z</time></trkpt><trkpt lat="43.6004632" lon="11.8676384"><ele>291.6666666666667</ele><time>2026-04-29T10:59:01.562Z</time></trkpt><trkpt lat="43.6005964" lon="11.8674741"><ele>293.3333333333333</ele><time>2026-04-29T10:59:02.574Z</time></trkpt><trkpt lat="43.6007213" lon="11.8673366"><ele>295.0</ele><time>2026-04-29T10:59:03.564Z</time></trkpt><trkpt lat="43.6008506" lon="11.8672197"><ele>295.0</ele><time>2026-04-29T10:59:04.564Z</time></trkpt><trkpt lat="43.6009906" lon="11.8671143"><ele>295.0</ele><time>2026-04-29T10:59:05.564Z</time></trkpt><trkpt lat="43.6011362" lon="11.8670166"><ele>295.0</ele><time>2026-04-29T10:59:06.552Z</time></trkpt><trkpt lat="43.6012851" lon="11.8669104"><ele>295.0</ele><time>2026-04-29T10:59:07.581Z</time></trkpt><trkpt lat="43.6014187" lon="11.8668126"><ele>295.0</ele><time>2026-04-29T10:59:08.585Z</time></trkpt><trkpt lat="43.601534" lon="11.8667226"><ele>295.0</ele><time>2026-04-29T10:59:09.575Z</time></trkpt><trkpt lat="43.6016365" lon="11.8666395"><ele>295.0</ele><time>2026-04-29T10:59:10.578Z</time></trkpt><trkpt lat="43.6017373" lon="11.8665634"><ele>295.0</ele><time>2026-04-29T10:59:11.585Z</time></trkpt><trkpt lat="43.601822" lon="11.866501"><ele>295.0</ele><time>2026-04-29T10:59:12.561Z</time></trkpt><trkpt lat="43.6018981" lon="11.8664506"><ele>295.0</ele><time>2026-04-29T10:59:13.553Z</time></trkpt><trkpt lat="43.601968" lon="11.8664095"><ele>295.0</ele><time>2026-04-29T10:59:14.574Z</time></trkpt><trkpt lat="43.6020744" lon="11.8663463"><ele>295.0</ele><time>2026-04-29T10:59:16.58Z</time></trkpt><trkpt lat="43.6021363" lon="11.8663282"><ele>295.0</ele><time>2026-04-29T10:59:18.573Z</time></trkpt><trkpt lat="43.6022447" lon="11.8663115"><ele>296.25</ele><time>2026-04-29T11:00:40.582Z</time></trkpt><trkpt lat="43.6023264" lon="11.8662734"><ele>297.5</ele><time>2026-04-29T11:00:41.579Z</time></trkpt><trkpt lat="43.6024333" lon="11.8662207"><ele>298.75</ele><time>2026-04-29T11:00:42.567Z</time></trkpt><trkpt lat="43.6025606" lon="11.8661653"><ele>300.0</ele><time>2026-04-29T11:00:43.566Z</time></trkpt><trkpt lat="43.6027036" lon="11.8661123"><ele>302.3333333333333</ele><time>2026-04-29T11:00:44.557Z</time></trkpt><trkpt lat="43.6028677" lon="11.8660647"><ele>304.66666666666663</ele><time>2026-04-29T11:00:45.577Z</time></trkpt><trkpt lat="43.6030513" lon="11.8660204"><ele>307.0</ele><time>2026-04-29T11:00:46.58Z</time></trkpt><trkpt lat="43.6032556" lon="11.8659838"><ele>307.0</ele><time>2026-04-29T11:00:47.579Z</time></trkpt><trkpt lat="43.6034551" lon="11.8659614"><ele>307.0</ele><time>2026-04-29T11:00:48.559Z</time></trkpt><trkpt lat="43.6036829" lon="11.8659392"><ele>307.0</ele><time>2026-04-29T11:00:49.565Z</time></trkpt><trkpt lat="43.6039151" lon="11.8659125"><ele>296.5</ele><time>2026-04-29T11:00:50.554Z</time></trkpt><trkpt lat="43.6041493" lon="11.8658504"><ele>286.0</ele><time>2026-04-29T11:00:51.568Z</time></trkpt><trkpt lat="43.6044043" lon="11.8657625"><ele>289.0</ele><time>2026-04-29T11:00:52.568Z</time></trkpt><trkpt lat="43.604654" lon="11.8656526"><ele>292.0</ele><time>2026-04-29T11:00:53.556Z</time></trkpt><trkpt lat="43.604916" lon="11.8655456"><ele>292.0</ele><time>2026-04-29T11:00:54.6Z</time></trkpt><trkpt lat="43.6051674" lon="11.8654515"><ele>292.0</ele><time>2026-04-29T11:00:55.566Z</time></trkpt><trkpt lat="43.6054277" lon="11.8653703"><ele>298.0</ele><time>2026-04-29T11:00:56.573Z</time></trkpt><trkpt lat="43.6056733" lon="11.8652892"><ele>304.0</ele><time>2026-04-29T11:00:57.569Z</time></trkpt><trkpt lat="43.6059167" lon="11.8652093"><ele>303.0</ele><time>2026-04-29T11:00:58.565Z</time></trkpt><trkpt lat="43.6061685" lon="11.865126"><ele>302.0</ele><time>2026-04-29T11:00:59.584Z</time></trkpt><trkpt lat="43.6064076" lon="11.8650449"><ele>295.0</ele><time>2026-04-29T11:01:00.56Z</time></trkpt><trkpt lat="43.6066508" lon="11.8649599"><ele>288.0</ele><time>2026-04-29T11:01:01.574Z</time></trkpt><trkpt lat="43.60689" lon="11.8648722"><ele>289.0</ele><time>2026-04-29T11:01:02.577Z</time></trkpt><trkpt lat="43.6071299" lon="11.8647906"><ele>290.0</ele><time>2026-04-29T11:01:03.574Z</time></trkpt><trkpt lat="43.6073678" lon="11.8647122"><ele>290.0</ele><time>2026-04-29T11:01:04.561Z</time></trkpt><trkpt lat="43.6076129" lon="11.8646521"><ele>290.0</ele><time>2026-04-29T11:01:05.569Z</time></trkpt><trkpt lat="43.6078585" lon="11.8646121"><ele>291.0</ele><time>2026-04-29T11:01:06.568Z</time></trkpt><trkpt lat="43.6081055" lon="11.8645951"><ele>292.0</ele><time>2026-04-29T11:01:07.559Z</time></trkpt><trkpt lat="43.6083568" lon="11.864597"><ele>292.0</ele><time>2026-04-29T11:01:08.56Z</time></trkpt><trkpt lat="43.6086113" lon="11.8646165"><ele>292.0</ele><time>2026-04-29T11:01:09.573Z</time></trkpt><trkpt lat="43.608858" lon="11.864644"><ele>288.5</ele><time>2026-04-29T11:01:10.558Z</time></trkpt><trkpt lat="43.609121" lon="11.8646789"><ele>285.0</ele><time>2026-04-29T11:01:11.585Z</time></trkpt><trkpt lat="43.6093763" lon="11.8647152"><ele>284.5</ele><time>2026-04-29T11:01:12.573Z</time></trkpt><trkpt lat="43.6096378" lon="11.8647473"><ele>284.0</ele><time>2026-04-29T11:01:13.576Z</time></trkpt><trkpt lat="43.6098958" lon="11.8647783"><ele>284.0</ele><time>2026-04-29T11:01:14.565Z</time></trkpt><trkpt lat="43.610156" lon="11.8648125"><ele>284.0</ele><time>2026-04-29T11:01:15.56Z</time></trkpt><trkpt lat="43.6104236" lon="11.8648424"><ele>284.5</ele><time>2026-04-29T11:01:16.573Z</time></trkpt><trkpt lat="43.610688" lon="11.8648749"><ele>285.0</ele><time>2026-04-29T11:01:17.585Z</time></trkpt><trkpt lat="43.6109473" lon="11.864904"><ele>285.0</ele><time>2026-04-29T11:01:18.57Z</time></trkpt><trkpt lat="43.6112124" lon="11.8649379"><ele>285.0</ele><time>2026-04-29T11:01:19.573Z</time></trkpt><trkpt lat="43.6114819" lon="11.8649747"><ele>285.0</ele><time>2026-04-29T11:01:20.587Z</time></trkpt><trkpt lat="43.611747" lon="11.8650087"><ele>285.0</ele><time>2026-04-29T11:01:21.575Z</time></trkpt><trkpt lat="43.6120147" lon="11.8650399"><ele>286.5</ele><time>2026-04-29T11:01:22.579Z</time></trkpt><trkpt lat="43.6122762" lon="11.8650726"><ele>288.0</ele><time>2026-04-29T11:01:23.573Z</time></trkpt><trkpt lat="43.6125456" lon="11.865106"><ele>291.0</ele><time>2026-04-29T11:01:24.597Z</time></trkpt><trkpt lat="43.6127962" lon="11.8651365"><ele>294.0</ele><time>2026-04-29T11:01:25.573Z</time></trkpt><trkpt lat="43.6130436" lon="11.8651668"><ele>295.0</ele><time>2026-04-29T11:01:26.562Z</time></trkpt><trkpt lat="43.6132945" lon="11.8651875"><ele>296.0</ele><time>2026-04-29T11:01:27.561Z</time></trkpt><trkpt lat="43.6135429" lon="11.8651906"><ele>294.5</ele><time>2026-04-29T11:01:28.579Z</time></trkpt><trkpt lat="43.613786" lon="11.8651723"><ele>293.0</ele><time>2026-04-29T11:01:29.57Z</time></trkpt><trkpt lat="43.6140377" lon="11.8651205"><ele>291.5</ele><time>2026-04-29T11:01:30.586Z</time></trkpt><trkpt lat="43.6142752" lon="11.865046"><ele>290.0</ele><time>2026-04-29T11:01:31.567Z</time></trkpt><trkpt lat="43.614511" lon="11.8649476"><ele>293.0</ele><time>2026-04-29T11:01:32.564Z</time></trkpt><trkpt lat="43.6147496" lon="11.8648197"><ele>296.0</ele><time>2026-04-29T11:01:33.579Z</time></trkpt><trkpt lat="43.6149744" lon="11.8646745"><ele>296.0</ele><time>2026-04-29T11:01:34.561Z</time></trkpt><trkpt lat="43.6151955" lon="11.8644974"><ele>296.0</ele><time>2026-04-29T11:01:35.573Z</time></trkpt><trkpt lat="43.6154037" lon="11.8643005"><ele>300.5</ele><time>2026-04-29T11:01:36.562Z</time></trkpt><trkpt lat="43.6156082" lon="11.8640727"><ele>305.0</ele><time>2026-04-29T11:01:37.591Z</time></trkpt><trkpt lat="43.6157893" lon="11.8638316"><ele>305.0</ele><time>2026-04-29T11:01:38.56Z</time></trkpt><trkpt lat="43.6159552" lon="11.8635596"><ele>305.0</ele><time>2026-04-29T11:01:39.571Z</time></trkpt><trkpt lat="43.6161064" lon="11.8632733"><ele>306.0</ele><time>2026-04-29T11:01:40.566Z</time></trkpt><trkpt lat="43.6162397" lon="11.8629704"><ele>307.0</ele><time>2026-04-29T11:01:41.557Z</time></trkpt><trkpt lat="43.6163682" lon="11.8626368"><ele>301.5</ele><time>2026-04-29T11:01:42.583Z</time></trkpt><trkpt lat="43.6164952" lon="11.8623194"><ele>296.0</ele><time>2026-04-29T11:01:43.561Z</time></trkpt><trkpt lat="43.6166266" lon="11.8620007"><ele>292.0</ele><time>2026-04-29T11:01:44.563Z</time></trkpt><trkpt lat="43.6167574" lon="11.861682"><ele>288.0</ele><time>2026-04-29T11:01:45.56Z</time></trkpt><trkpt lat="43.6168928" lon="11.8613575"><ele>291.5</ele><time>2026-04-29T11:01:46.578Z</time></trkpt><trkpt lat="43.6170281" lon="11.8610444"><ele>295.0</ele><time>2026-04-29T11:01:47.576Z</time></trkpt><trkpt lat="43.617166" lon="11.8607327"><ele>295.0</ele><time>2026-04-29T11:01:48.564Z</time></trkpt><trkpt lat="43.6173088" lon="11.8604194"><ele>295.0</ele><time>2026-04-29T11:01:49.578Z</time></trkpt><trkpt lat="43.6174517" lon="11.8601176"><ele>291.5</ele><time>2026-04-29T11:01:50.566Z</time></trkpt><trkpt lat="43.617598" lon="11.8598136"><ele>288.0</ele><time>2026-04-29T11:01:51.56Z</time></trkpt><trkpt lat="43.617748" lon="11.8595071"><ele>291.0</ele><time>2026-04-29T11:01:52.561Z</time></trkpt><trkpt lat="43.6178986" lon="11.8591985"><ele>294.0</ele><time>2026-04-29T11:01:53.558Z</time></trkpt><trkpt lat="43.6180533" lon="11.8588889"><ele>294.0</ele><time>2026-04-29T11:01:54.569Z</time></trkpt><trkpt lat="43.6182066" lon="11.8585832"><ele>294.0</ele><time>2026-04-29T11:01:55.561Z</time></trkpt><trkpt lat="43.6183612" lon="11.8582746"><ele>295.0</ele><time>2026-04-29T11:01:56.57Z</time></trkpt><trkpt lat="43.618512" lon="11.8579684"><ele>296.0</ele><time>2026-04-29T11:01:57.565Z</time></trkpt><trkpt lat="43.6186628" lon="11.8576573"><ele>293.0</ele><time>2026-04-29T11:01:58.581Z</time></trkpt><trkpt lat="43.6188102" lon="11.8573582"><ele>290.0</ele><time>2026-04-29T11:01:59.569Z</time></trkpt><trkpt lat="43.6189573" lon="11.8570607"><ele>288.5</ele><time>2026-04-29T11:02:00.562Z</time></trkpt><trkpt lat="43.6191092" lon="11.8567589"><ele>287.0</ele><time>2026-04-29T11:02:01.573Z</time></trkpt><trkpt lat="43.6192594" lon="11.8564584"><ele>287.0</ele><time>2026-04-29T11:02:02.581Z</time></trkpt><trkpt lat="43.6194093" lon="11.856164"><ele>287.0</ele><time>2026-04-29T11:02:03.571Z</time></trkpt><trkpt lat="43.6195604" lon="11.8558697"><ele>289.5</ele><time>2026-04-29T11:02:04.569Z</time></trkpt><trkpt lat="43.6197108" lon="11.8555737"><ele>292.0</ele><time>2026-04-29T11:02:05.567Z</time></trkpt><trkpt lat="43.6198579" lon="11.8552792"><ele>289.5</ele><time>2026-04-29T11:02:06.564Z</time></trkpt><trkpt lat="43.6200084" lon="11.8549773"><ele>287.0</ele><time>2026-04-29T11:02:07.585Z</time></trkpt><trkpt lat="43.6201542" lon="11.85469"><ele>287.0</ele><time>2026-04-29T11:02:08.565Z</time></trkpt><trkpt lat="43.6203064" lon="11.8543907"><ele>287.0</ele><time>2026-04-29T11:02:09.587Z</time></trkpt><trkpt lat="43.6204566" lon="11.8540965"><ele>288.0</ele><time>2026-04-29T11:02:10.584Z</time></trkpt><trkpt lat="43.6206043" lon="11.8537989"><ele>289.0</ele><time>2026-04-29T11:02:11.579Z</time></trkpt><trkpt lat="43.6207526" lon="11.8535088"><ele>288.0</ele><time>2026-04-29T11:02:12.565Z</time></trkpt><trkpt lat="43.620913" lon="11.8532169"><ele>287.0</ele><time>2026-04-29T11:02:13.582Z</time></trkpt><trkpt lat="43.6210788" lon="11.8529477"><ele>288.5</ele><time>2026-04-29T11:02:14.561Z</time></trkpt><trkpt lat="43.6212619" lon="11.8526924"><ele>290.0</ele><time>2026-04-29T11:02:15.571Z</time></trkpt><trkpt lat="43.6214497" lon="11.852462"><ele>290.0</ele><time>2026-04-29T11:02:16.561Z</time></trkpt><trkpt lat="43.621649" lon="11.8522448"><ele>290.0</ele><time>2026-04-29T11:02:17.571Z</time></trkpt><trkpt lat="43.6218567" lon="11.8520488"><ele>291.5</ele><time>2026-04-29T11:02:18.567Z</time></trkpt><trkpt lat="43.622077" lon="11.851874"><ele>293.0</ele><time>2026-04-29T11:02:19.576Z</time></trkpt><trkpt lat="43.6223051" lon="11.8517302"><ele>293.0</ele><time>2026-04-29T11:02:20.568Z</time></trkpt><trkpt lat="43.6225476" lon="11.8516049"><ele>293.0</ele><time>2026-04-29T11:02:21.582Z</time></trkpt><trkpt lat="43.6227907" lon="11.8515021"><ele>295.0</ele><time>2026-04-29T11:02:22.567Z</time></trkpt><trkpt lat="43.6230488" lon="11.8514192"><ele>297.0</ele><time>2026-04-29T11:02:23.572Z</time></trkpt><trkpt lat="43.623308" lon="11.8513638"><ele>297.0</ele><time>2026-04-29T11:02:24.573Z</time></trkpt><trkpt lat="43.6235687" lon="11.8513344"><ele>297.0</ele><time>2026-04-29T11:02:25.581Z</time></trkpt><trkpt lat="43.6238246" lon="11.8513261"><ele>298.5</ele><time>2026-04-29T11:02:26.571Z</time></trkpt><trkpt lat="43.6240801" lon="11.8513446"><ele>300.0</ele><time>2026-04-29T11:02:27.569Z</time></trkpt><trkpt lat="43.6243362" lon="11.851392"><ele>298.5</ele><time>2026-04-29T11:02:28.571Z</time></trkpt><trkpt lat="43.6245914" lon="11.8514608"><ele>297.0</ele><time>2026-04-29T11:02:29.569Z</time></trkpt><trkpt lat="43.62485" lon="11.8515533"><ele>297.0</ele><time>2026-04-29T11:02:30.582Z</time></trkpt><trkpt lat="43.6251002" lon="11.8516579"><ele>297.0</ele><time>2026-04-29T11:02:31.567Z</time></trkpt><trkpt lat="43.6253564" lon="11.8517795"><ele>304.5</ele><time>2026-04-29T11:02:32.576Z</time></trkpt><trkpt lat="43.6256146" lon="11.8519004"><ele>312.0</ele><time>2026-04-29T11:02:33.571Z</time></trkpt><trkpt lat="43.6258747" lon="11.8520223"><ele>312.0</ele><time>2026-04-29T11:02:34.577Z</time></trkpt><trkpt lat="43.6261375" lon="11.8521444"><ele>312.0</ele><time>2026-04-29T11:02:35.586Z</time></trkpt><trkpt lat="43.6263855" lon="11.8522765"><ele>305.5</ele><time>2026-04-29T11:02:36.577Z</time></trkpt><trkpt lat="43.626628" lon="11.8524359"><ele>299.0</ele><time>2026-04-29T11:02:37.585Z</time></trkpt><trkpt lat="43.6268562" lon="11.8526177"><ele>298.0</ele><time>2026-04-29T11:02:38.578Z</time></trkpt><trkpt lat="43.6270715" lon="11.8528276"><ele>297.0</ele><time>2026-04-29T11:02:39.581Z</time></trkpt><trkpt lat="43.6272661" lon="11.853048"><ele>297.0</ele><time>2026-04-29T11:02:40.562Z</time></trkpt><trkpt lat="43.6274461" lon="11.8532808"><ele>297.0</ele><time>2026-04-29T11:02:41.552Z</time></trkpt><trkpt lat="43.6276321" lon="11.8535339"><ele>296.0</ele><time>2026-04-29T11:02:42.558Z</time></trkpt><trkpt lat="43.6278221" lon="11.8538062"><ele>295.0</ele><time>2026-04-29T11:02:43.583Z</time></trkpt><trkpt lat="43.6280029" lon="11.8540652"><ele>299.0</ele><time>2026-04-29T11:02:44.568Z</time></trkpt><trkpt lat="43.6281834" lon="11.8543283"><ele>303.0</ele><time>2026-04-29T11:02:45.578Z</time></trkpt><trkpt lat="43.6283524" lon="11.8545763"><ele>303.0</ele><time>2026-04-29T11:02:46.579Z</time></trkpt><trkpt lat="43.6285123" lon="11.8547912"><ele>303.0</ele><time>2026-04-29T11:02:47.554Z</time></trkpt><trkpt lat="43.6286869" lon="11.8549642"><ele>303.0</ele><time>2026-04-29T11:02:48.561Z</time></trkpt><trkpt lat="43.6288801" lon="11.855091"><ele>310.5</ele><time>2026-04-29T11:02:49.579Z</time></trkpt><trkpt lat="43.6290902" lon="11.8551875"><ele>318.0</ele><time>2026-04-29T11:02:50.571Z</time></trkpt><trkpt lat="43.6293147" lon="11.8552688"><ele>311.5</ele><time>2026-04-29T11:02:51.588Z</time></trkpt><trkpt lat="43.629542" lon="11.8553421"><ele>305.0</ele><time>2026-04-29T11:02:52.57Z</time></trkpt><trkpt lat="43.6297799" lon="11.8554042"><ele>305.0</ele><time>2026-04-29T11:02:53.565Z</time></trkpt><trkpt lat="43.6300261" lon="11.8554351"><ele>305.0</ele><time>2026-04-29T11:02:54.568Z</time></trkpt><trkpt lat="43.630267" lon="11.8554199"><ele>309.5</ele><time>2026-04-29T11:02:55.571Z</time></trkpt><trkpt lat="43.630527" lon="11.8553687"><ele>314.0</ele><time>2026-04-29T11:02:56.57Z</time></trkpt><trkpt lat="43.6307951" lon="11.8552973"><ele>314.0</ele><time>2026-04-29T11:02:57.573Z</time></trkpt><trkpt lat="43.6310484" lon="11.8552243"><ele>314.0</ele><time>2026-04-29T11:02:58.574Z</time></trkpt><trkpt lat="43.6312877" lon="11.8551462"><ele>306.0</ele><time>2026-04-29T11:02:59.566Z</time></trkpt><trkpt lat="43.6315239" lon="11.8550538"><ele>298.0</ele><time>2026-04-29T11:03:00.577Z</time></trkpt><trkpt lat="43.6317647" lon="11.8549458"><ele>302.0</ele><time>2026-04-29T11:03:01.559Z</time></trkpt><trkpt lat="43.6320075" lon="11.8548097"><ele>306.0</ele><time>2026-04-29T11:03:02.573Z</time></trkpt><trkpt lat="43.6322424" lon="11.8546446"><ele>306.0</ele><time>2026-04-29T11:03:03.567Z</time></trkpt><trkpt lat="43.6324677" lon="11.854447"><ele>306.0</ele><time>2026-04-29T11:03:04.575Z</time></trkpt><trkpt lat="43.6326818" lon="11.8542175"><ele>310.5</ele><time>2026-04-29T11:03:05.585Z</time></trkpt><trkpt lat="43.6328799" lon="11.8539654"><ele>315.0</ele><time>2026-04-29T11:03:06.582Z</time></trkpt><trkpt lat="43.6330682" lon="11.8536829"><ele>309.5</ele><time>2026-04-29T11:03:07.587Z</time></trkpt><trkpt lat="43.6332283" lon="11.853393"><ele>304.0</ele><time>2026-04-29T11:03:08.556Z</time></trkpt><trkpt lat="43.6333714" lon="11.8530761"><ele>304.0</ele><time>2026-04-29T11:03:09.563Z</time></trkpt><trkpt lat="43.6334995" lon="11.8527416"><ele>304.0</ele><time>2026-04-29T11:03:10.573Z</time></trkpt><trkpt lat="43.6336042" lon="11.8523822"><ele>307.5</ele><time>2026-04-29T11:03:11.591Z</time></trkpt><trkpt lat="43.6336868" lon="11.8520161"><ele>311.0</ele><time>2026-04-29T11:03:12.595Z</time></trkpt><trkpt lat="43.6337436" lon="11.8516431"><ele>311.0</ele><time>2026-04-29T11:03:13.586Z</time></trkpt><trkpt lat="43.633779" lon="11.851264"><ele>311.0</ele><time>2026-04-29T11:03:14.573Z</time></trkpt><trkpt lat="43.6337905" lon="11.8508764"><ele>311.0</ele><time>2026-04-29T11:03:15.572Z</time></trkpt><trkpt lat="43.6337786" lon="11.8504777"><ele>311.0</ele><time>2026-04-29T11:03:16.588Z</time></trkpt><trkpt lat="43.633741" lon="11.8500965"><ele>311.5</ele><time>2026-04-29T11:03:17.581Z</time></trkpt><trkpt lat="43.633689" lon="11.8497151"><ele>312.0</ele><time>2026-04-29T11:03:18.584Z</time></trkpt><trkpt lat="43.6336315" lon="11.8493406"><ele>304.0</ele><time>2026-04-29T11:03:19.573Z</time></trkpt><trkpt lat="43.6335724" lon="11.8489685"><ele>296.0</ele><time>2026-04-29T11:03:20.578Z</time></trkpt><trkpt lat="43.6335113" lon="11.8486016"><ele>297.5</ele><time>2026-04-29T11:03:21.585Z</time></trkpt><trkpt lat="43.6334509" lon="11.8482373"><ele>299.0</ele><time>2026-04-29T11:03:22.587Z</time></trkpt><trkpt lat="43.6333832" lon="11.8478721"><ele>300.0</ele><time>2026-04-29T11:03:23.606Z</time></trkpt><trkpt lat="43.6333026" lon="11.8473857"><ele>301.0</ele><time>2026-04-29T11:03:24.947Z</time></trkpt><trkpt lat="43.6332177" lon="11.8468309"><ele>301.5</ele><time>2026-04-29T11:03:26.636Z</time></trkpt><trkpt lat="43.6331636" lon="11.8464764"><ele>302.0</ele><time>2026-04-29T11:03:27.623Z</time></trkpt><trkpt lat="43.6331069" lon="11.8461211"><ele>302.5</ele><time>2026-04-29T11:03:28.637Z</time></trkpt><trkpt lat="43.6330521" lon="11.8457687"><ele>303.0</ele><time>2026-04-29T11:03:29.637Z</time></trkpt><trkpt lat="43.6330093" lon="11.8454271"><ele>302.5</ele><time>2026-04-29T11:03:30.631Z</time></trkpt><trkpt lat="43.6329855" lon="11.8451155"><ele>302.0</ele><time>2026-04-29T11:03:31.58Z</time></trkpt><trkpt lat="43.6329818" lon="11.8447953"><ele>302.0</ele><time>2026-04-29T11:03:32.576Z</time></trkpt><trkpt lat="43.6330147" lon="11.8444797"><ele>302.0</ele><time>2026-04-29T11:03:33.59Z</time></trkpt><trkpt lat="43.633088" lon="11.8441765"><ele>300.0</ele><time>2026-04-29T11:03:34.576Z</time></trkpt><trkpt lat="43.6331876" lon="11.843864"><ele>298.0</ele><time>2026-04-29T11:03:35.573Z</time></trkpt><trkpt lat="43.6333093" lon="11.8435412"><ele>298.0</ele><time>2026-04-29T11:03:36.59Z</time></trkpt><trkpt lat="43.6334343" lon="11.8432248"><ele>298.0</ele><time>2026-04-29T11:03:37.586Z</time></trkpt><trkpt lat="43.6335552" lon="11.8429107"><ele>308.0</ele><time>2026-04-29T11:03:38.568Z</time></trkpt><trkpt lat="43.6336716" lon="11.8425823"><ele>318.0</ele><time>2026-04-29T11:03:39.572Z</time></trkpt><trkpt lat="43.633785" lon="11.84226"><ele>318.0</ele><time>2026-04-29T11:03:40.594Z</time></trkpt><trkpt lat="43.6338863" lon="11.841969"><ele>318.0</ele><time>2026-04-29T11:03:41.559Z</time></trkpt><trkpt lat="43.6339906" lon="11.8416921"><ele>314.6666666666667</ele><time>2026-04-29T11:03:42.564Z</time></trkpt><trkpt lat="43.6341124" lon="11.8414398"><ele>311.33333333333337</ele><time>2026-04-29T11:03:43.572Z</time></trkpt><trkpt lat="43.6342582" lon="11.8412073"><ele>308.0</ele><time>2026-04-29T11:03:44.589Z</time></trkpt><trkpt lat="43.6344234" lon="11.8409712"><ele>311.0</ele><time>2026-04-29T11:03:45.607Z</time></trkpt><trkpt lat="43.6345947" lon="11.8407324"><ele>314.0</ele><time>2026-04-29T11:03:46.586Z</time></trkpt><trkpt lat="43.6347711" lon="11.8404877"><ele>314.0</ele><time>2026-04-29T11:03:47.581Z</time></trkpt><trkpt lat="43.6349464" lon="11.8402589"><ele>314.0</ele><time>2026-04-29T11:03:48.57Z</time></trkpt><trkpt lat="43.6351323" lon="11.840045"><ele>314.0</ele><time>2026-04-29T11:03:49.566Z</time></trkpt><trkpt lat="43.6353303" lon="11.8398429"><ele>314.0</ele><time>2026-04-29T11:03:50.588Z</time></trkpt><trkpt lat="43.6355339" lon="11.8396757"><ele>314.0</ele><time>2026-04-29T11:03:51.567Z</time></trkpt><trkpt lat="43.6357537" lon="11.8395286"><ele>314.0</ele><time>2026-04-29T11:03:52.575Z</time></trkpt><trkpt lat="43.6359796" lon="11.8394132"><ele>318.5</ele><time>2026-04-29T11:03:53.568Z</time></trkpt><trkpt lat="43.63622" lon="11.8393197"><ele>323.0</ele><time>2026-04-29T11:03:54.577Z</time></trkpt><trkpt lat="43.6364668" lon="11.8392516"><ele>313.0</ele><time>2026-04-29T11:03:55.563Z</time></trkpt><trkpt lat="43.6367151" lon="11.839181"><ele>303.0</ele><time>2026-04-29T11:03:56.583Z</time></trkpt><trkpt lat="43.6369551" lon="11.8390982"><ele>304.5</ele><time>2026-04-29T11:03:57.571Z</time></trkpt><trkpt lat="43.6371918" lon="11.838992"><ele>306.0</ele><time>2026-04-29T11:03:58.569Z</time></trkpt><trkpt lat="43.6374223" lon="11.8388765"><ele>306.0</ele><time>2026-04-29T11:03:59.586Z</time></trkpt><trkpt lat="43.6376356" lon="11.8387626"><ele>306.0</ele><time>2026-04-29T11:04:00.59Z</time></trkpt><trkpt lat="43.6378441" lon="11.8386574"><ele>306.5</ele><time>2026-04-29T11:04:01.565Z</time></trkpt><trkpt lat="43.6380663" lon="11.8385487"><ele>307.0</ele><time>2026-04-29T11:04:02.577Z</time></trkpt><trkpt lat="43.6382796" lon="11.8384471"><ele>304.66666666666663</ele><time>2026-04-29T11:04:03.561Z</time></trkpt><trkpt lat="43.6384935" lon="11.8383471"><ele>302.3333333333333</ele><time>2026-04-29T11:04:04.588Z</time></trkpt><trkpt lat="43.6386914" lon="11.8382569"><ele>300.0</ele><time>2026-04-29T11:04:05.567Z</time></trkpt><trkpt lat="43.6388877" lon="11.8381688"><ele>300.0</ele><time>2026-04-29T11:04:06.588Z</time></trkpt><trkpt lat="43.6390695" lon="11.8380908"><ele>300.0</ele><time>2026-04-29T11:04:07.578Z</time></trkpt><trkpt lat="43.6392435" lon="11.8380148"><ele>300.0</ele><time>2026-04-29T11:04:08.583Z</time></trkpt><trkpt lat="43.6393986" lon="11.8379425"><ele>300.5</ele><time>2026-04-29T11:04:09.565Z</time></trkpt><trkpt lat="43.6395513" lon="11.8378723"><ele>301.0</ele><time>2026-04-29T11:04:10.582Z</time></trkpt><trkpt lat="43.6396902" lon="11.837808"><ele>301.5</ele><time>2026-04-29T11:04:11.587Z</time></trkpt><trkpt lat="43.6398215" lon="11.8377502"><ele>302.0</ele><time>2026-04-29T11:04:12.569Z</time></trkpt><trkpt lat="43.6399518" lon="11.8376907"><ele>302.0</ele><time>2026-04-29T11:04:13.567Z</time></trkpt><trkpt lat="43.6400887" lon="11.83763"><ele>302.0</ele><time>2026-04-29T11:04:14.586Z</time></trkpt><trkpt lat="43.6402181" lon="11.8375687"><ele>302.0</ele><time>2026-04-29T11:04:15.575Z</time></trkpt><trkpt lat="43.6403456" lon="11.8375117"><ele>302.0</ele><time>2026-04-29T11:04:16.593Z</time></trkpt><trkpt lat="43.6404657" lon="11.8374565"><ele>302.0</ele><time>2026-04-29T11:04:17.573Z</time></trkpt><trkpt lat="43.6405822" lon="11.8374025"><ele>302.0</ele><time>2026-04-29T11:04:18.574Z</time></trkpt><trkpt lat="43.6406995" lon="11.8373467"><ele>302.0</ele><time>2026-04-29T11:04:19.591Z</time></trkpt><trkpt lat="43.6408184" lon="11.8372892"><ele>302.0</ele><time>2026-04-29T11:04:20.58Z</time></trkpt><trkpt lat="43.6409453" lon="11.837227"><ele>302.0</ele><time>2026-04-29T11:04:21.576Z</time></trkpt><trkpt lat="43.6410779" lon="11.8371541"><ele>302.0</ele><time>2026-04-29T11:04:22.571Z</time></trkpt><trkpt lat="43.6412244" lon="11.8370643"><ele>302.0</ele><time>2026-04-29T11:04:23.593Z</time></trkpt><trkpt lat="43.641378" lon="11.8369672"><ele>302.0</ele><time>2026-04-29T11:04:24.557Z</time></trkpt><trkpt lat="43.6415412" lon="11.8368517"><ele>302.0</ele><time>2026-04-29T11:04:25.577Z</time></trkpt><trkpt lat="43.6417049" lon="11.8367329"><ele>302.0</ele><time>2026-04-29T11:04:26.565Z</time></trkpt><trkpt lat="43.6418774" lon="11.8366031"><ele>303.0</ele><time>2026-04-29T11:04:27.591Z</time></trkpt><trkpt lat="43.6420506" lon="11.8364742"><ele>304.0</ele><time>2026-04-29T11:04:28.584Z</time></trkpt><trkpt lat="43.6422337" lon="11.8363428"><ele>305.0</ele><time>2026-04-29T11:04:29.59Z</time></trkpt><trkpt lat="43.6424111" lon="11.8362105"><ele>305.0</ele><time>2026-04-29T11:04:30.573Z</time></trkpt><trkpt lat="43.6425848" lon="11.8360829"><ele>305.0</ele><time>2026-04-29T11:04:31.578Z</time></trkpt><trkpt lat="43.6427461" lon="11.8359677"><ele>305.0</ele><time>2026-04-29T11:04:32.576Z</time></trkpt><trkpt lat="43.6428996" lon="11.8358643"><ele>304.6666666666667</ele><time>2026-04-29T11:04:33.564Z</time></trkpt><trkpt lat="43.6430492" lon="11.8357762"><ele>304.3333333333333</ele><time>2026-04-29T11:04:34.573Z</time></trkpt><trkpt lat="43.643186" lon="11.8356993"><ele>304.0</ele><time>2026-04-29T11:04:35.561Z</time></trkpt><trkpt lat="43.6433164" lon="11.8356238"><ele>304.0</ele><time>2026-04-29T11:04:36.569Z</time></trkpt><trkpt lat="43.6434359" lon="11.8355578"><ele>304.0</ele><time>2026-04-29T11:04:37.57Z</time></trkpt><trkpt lat="43.6435538" lon="11.8354929"><ele>304.0</ele><time>2026-04-29T11:04:38.567Z</time></trkpt><trkpt lat="43.6436773" lon="11.8354312"><ele>304.0</ele><time>2026-04-29T11:04:39.577Z</time></trkpt><trkpt lat="43.6438104" lon="11.8353619"><ele>305.3333333333333</ele><time>2026-04-29T11:04:40.58Z</time></trkpt><trkpt lat="43.6439491" lon="11.8352983"><ele>306.6666666666667</ele><time>2026-04-29T11:04:41.557Z</time></trkpt><trkpt lat="43.6441016" lon="11.8352417"><ele>308.0</ele><time>2026-04-29T11:04:42.578Z</time></trkpt><trkpt lat="43.6442605" lon="11.835203"><ele>308.0</ele><time>2026-04-29T11:04:43.578Z</time></trkpt><trkpt lat="43.6444299" lon="11.8351768"><ele>308.0</ele><time>2026-04-29T11:04:44.574Z</time></trkpt><trkpt lat="43.6446158" lon="11.8351588"><ele>308.0</ele><time>2026-04-29T11:04:45.585Z</time></trkpt><trkpt lat="43.6448189" lon="11.8351376"><ele>306.0</ele><time>2026-04-29T11:04:46.577Z</time></trkpt><trkpt lat="43.6450536" lon="11.8351067"><ele>304.0</ele><time>2026-04-29T11:04:47.593Z</time></trkpt><trkpt lat="43.6453167" lon="11.8350806"><ele>304.0</ele><time>2026-04-29T11:04:48.577Z</time></trkpt><trkpt lat="43.6455958" lon="11.835059"><ele>304.0</ele><time>2026-04-29T11:04:49.573Z</time></trkpt><trkpt lat="43.6458819" lon="11.8350415"><ele>302.0</ele><time>2026-04-29T11:04:50.593Z</time></trkpt><trkpt lat="43.6461384" lon="11.83503"><ele>300.0</ele><time>2026-04-29T11:04:51.564Z</time></trkpt><trkpt lat="43.64639" lon="11.8350151"><ele>300.0</ele><time>2026-04-29T11:04:52.582Z</time></trkpt><trkpt lat="43.6466195" lon="11.8349999"><ele>300.0</ele><time>2026-04-29T11:04:53.588Z</time></trkpt><trkpt lat="43.6468288" lon="11.8349769"><ele>300.0</ele><time>2026-04-29T11:04:54.577Z</time></trkpt><trkpt lat="43.6470297" lon="11.8349592"><ele>300.6666666666667</ele><time>2026-04-29T11:04:55.574Z</time></trkpt><trkpt lat="43.6472237" lon="11.8349436"><ele>301.33333333333337</ele><time>2026-04-29T11:04:56.566Z</time></trkpt><trkpt lat="43.6474141" lon="11.834932"><ele>302.0</ele><time>2026-04-29T11:04:57.578Z</time></trkpt><trkpt lat="43.647594" lon="11.8349154"><ele>302.0</ele><time>2026-04-29T11:04:58.594Z</time></trkpt><trkpt lat="43.6477589" lon="11.8349022"><ele>302.0</ele><time>2026-04-29T11:04:59.573Z</time></trkpt><trkpt lat="43.6479109" lon="11.8348846"><ele>302.0</ele><time>2026-04-29T11:05:00.572Z</time></trkpt><trkpt lat="43.6480635" lon="11.8348664"><ele>302.5</ele><time>2026-04-29T11:05:01.59Z</time></trkpt><trkpt lat="43.6482043" lon="11.834851"><ele>303.0</ele><time>2026-04-29T11:05:02.562Z</time></trkpt><trkpt lat="43.6483441" lon="11.8348381"><ele>303.5</ele><time>2026-04-29T11:05:03.559Z</time></trkpt><trkpt lat="43.64848" lon="11.8348208"><ele>304.0</ele><time>2026-04-29T11:05:04.56Z</time></trkpt><trkpt lat="43.6486214" lon="11.8348011"><ele>304.0</ele><time>2026-04-29T11:05:05.561Z</time></trkpt><trkpt lat="43.6487685" lon="11.8347744"><ele>304.0</ele><time>2026-04-29T11:05:06.574Z</time></trkpt><trkpt lat="43.6489288" lon="11.8347464"><ele>304.0</ele><time>2026-04-29T11:05:07.574Z</time></trkpt><trkpt lat="43.6490981" lon="11.8347254"><ele>304.0</ele><time>2026-04-29T11:05:08.581Z</time></trkpt><trkpt lat="43.6492755" lon="11.8347053"><ele>304.0</ele><time>2026-04-29T11:05:09.573Z</time></trkpt><trkpt lat="43.6494639" lon="11.8346905"><ele>304.0</ele><time>2026-04-29T11:05:10.579Z</time></trkpt><trkpt lat="43.6496544" lon="11.8346832"><ele>304.0</ele><time>2026-04-29T11:05:11.57Z</time></trkpt><trkpt lat="43.64985" lon="11.8346837"><ele>304.0</ele><time>2026-04-29T11:05:12.572Z</time></trkpt><trkpt lat="43.6500354" lon="11.8347021"><ele>304.0</ele><time>2026-04-29T11:05:13.576Z</time></trkpt><trkpt lat="43.6502013" lon="11.8347399"><ele>303.75</ele><time>2026-04-29T11:05:14.582Z</time></trkpt><trkpt lat="43.6503415" lon="11.8347993"><ele>303.5</ele><time>2026-04-29T11:05:15.559Z</time></trkpt><trkpt lat="43.6504654" lon="11.8348611"><ele>303.25</ele><time>2026-04-29T11:05:16.568Z</time></trkpt><trkpt lat="43.6505823" lon="11.8349213"><ele>303.0</ele><time>2026-04-29T11:05:17.588Z</time></trkpt><trkpt lat="43.6506821" lon="11.8349731"><ele>303.0</ele><time>2026-04-29T11:05:18.572Z</time></trkpt><trkpt lat="43.6507798" lon="11.8350215"><ele>303.0</ele><time>2026-04-29T11:05:19.557Z</time></trkpt><trkpt lat="43.6508811" lon="11.8350642"><ele>303.0</ele><time>2026-04-29T11:05:20.564Z</time></trkpt><trkpt lat="43.6509844" lon="11.8351079"><ele>303.0</ele><time>2026-04-29T11:05:21.57Z</time></trkpt><trkpt lat="43.6510858" lon="11.8351497"><ele>303.0</ele><time>2026-04-29T11:05:22.578Z</time></trkpt><trkpt lat="43.6511902" lon="11.8351981"><ele>303.6</ele><time>2026-04-29T11:05:23.584Z</time></trkpt><trkpt lat="43.6512872" lon="11.8352436"><ele>304.20000000000005</ele><time>2026-04-29T11:05:24.572Z</time></trkpt><trkpt lat="43.6513864" lon="11.8352904"><ele>304.8</ele><time>2026-04-29T11:05:25.563Z</time></trkpt><trkpt lat="43.6514931" lon="11.83534"><ele>305.40000000000003</ele><time>2026-04-29T11:05:26.583Z</time></trkpt><trkpt lat="43.6515882" lon="11.835385"><ele>306.0</ele><time>2026-04-29T11:05:27.584Z</time></trkpt><trkpt lat="43.6516696" lon="11.8354243"><ele>306.0</ele><time>2026-04-29T11:05:28.566Z</time></trkpt><trkpt lat="43.6517555" lon="11.8354748"><ele>306.0</ele><time>2026-04-29T11:05:29.6Z</time></trkpt><trkpt lat="43.651845" lon="11.8355158"><ele>306.0</ele><time>2026-04-29T11:05:30.564Z</time></trkpt><trkpt lat="43.651958" lon="11.8355585"><ele>306.0</ele><time>2026-04-29T11:05:31.569Z</time></trkpt><trkpt lat="43.6520743" lon="11.8356037"><ele>306.0</ele><time>2026-04-29T11:05:32.578Z</time></trkpt><trkpt lat="43.6522067" lon="11.8356666"><ele>306.6666666666667</ele><time>2026-04-29T11:05:33.572Z</time></trkpt><trkpt lat="43.6523494" lon="11.8357389"><ele>307.33333333333337</ele><time>2026-04-29T11:05:34.579Z</time></trkpt><trkpt lat="43.6524954" lon="11.835819"><ele>308.0</ele><time>2026-04-29T11:05:35.566Z</time></trkpt><trkpt lat="43.6526317" lon="11.8359154"><ele>308.0</ele><time>2026-04-29T11:05:36.585Z</time></trkpt><trkpt lat="43.6527427" lon="11.8360035"><ele>308.0</ele><time>2026-04-29T11:05:37.565Z</time></trkpt><trkpt lat="43.6528687" lon="11.836105"><ele>308.0</ele><time>2026-04-29T11:05:38.575Z</time></trkpt><trkpt lat="43.6530075" lon="11.8362293"><ele>308.0</ele><time>2026-04-29T11:05:39.585Z</time></trkpt><trkpt lat="43.6531623" lon="11.836377"><ele>307.0</ele><time>2026-04-29T11:05:40.571Z</time></trkpt><trkpt lat="43.6533424" lon="11.8365634"><ele>306.0</ele><time>2026-04-29T11:05:41.567Z</time></trkpt><trkpt lat="43.6535217" lon="11.8367446"><ele>305.0</ele><time>2026-04-29T11:05:42.567Z</time></trkpt><trkpt lat="43.6536937" lon="11.8369107"><ele>305.0</ele><time>2026-04-29T11:05:43.581Z</time></trkpt><trkpt lat="43.6538459" lon="11.8370581"><ele>305.0</ele><time>2026-04-29T11:05:44.581Z</time></trkpt><trkpt lat="43.6539809" lon="11.8371849"><ele>305.0</ele><time>2026-04-29T11:05:45.57Z</time></trkpt><trkpt lat="43.6540956" lon="11.8373007"><ele>305.0</ele><time>2026-04-29T11:05:46.583Z</time></trkpt><trkpt lat="43.6541893" lon="11.8373948"><ele>305.0</ele><time>2026-04-29T11:05:47.581Z</time></trkpt><trkpt lat="43.6542654" lon="11.837478"><ele>305.0</ele><time>2026-04-29T11:05:48.59Z</time></trkpt><trkpt lat="43.6543154" lon="11.8375609"><ele>305.0</ele><time>2026-04-29T11:05:49.577Z</time></trkpt><trkpt lat="43.6543068" lon="11.8377201"><ele>305.0</ele><time>2026-04-29T11:05:51.583Z</time></trkpt><trkpt lat="43.6542566" lon="11.837805"><ele>305.33333333333337</ele><time>2026-04-29T11:05:52.584Z</time></trkpt><trkpt lat="43.6541853" lon="11.8378911"><ele>305.6666666666667</ele><time>2026-04-29T11:05:53.59Z</time></trkpt><trkpt lat="43.6541267" lon="11.8379476"><ele>306.0</ele><time>2026-04-29T11:05:54.607Z</time></trkpt><trkpt lat="43.6540717" lon="11.8379939"><ele>306.3333333333333</ele><time>2026-04-29T11:05:59.581Z</time></trkpt><trkpt lat="43.6540069" lon="11.838048"><ele>306.66666666666663</ele><time>2026-04-29T11:06:14.58Z</time></trkpt><trkpt lat="43.653905" lon="11.8381078"><ele>307.0</ele><time>2026-04-29T11:06:16.574Z</time></trkpt><trkpt lat="43.6537187" lon="11.8385873"><ele>307.0</ele><time>2026-04-29T11:06:22.581Z</time></trkpt><trkpt lat="43.653657" lon="11.8387114"><ele>307.0</ele><time>2026-04-29T11:06:24.585Z</time></trkpt><trkpt lat="43.6536169" lon="11.8387946"><ele>307.0</ele><time>2026-04-29T11:06:25.572Z</time></trkpt><trkpt lat="43.6535746" lon="11.8388914"><ele>307.0</ele><time>2026-04-29T11:06:26.569Z</time></trkpt><trkpt lat="43.6535323" lon="11.838976"><ele>307.0</ele><time>2026-04-29T11:06:27.575Z</time></trkpt><trkpt lat="43.6534934" lon="11.8390814"><ele>307.0</ele><time>2026-04-29T11:06:28.571Z</time></trkpt><trkpt lat="43.65345" lon="11.839196"><ele>307.0</ele><time>2026-04-29T11:06:29.574Z</time></trkpt><trkpt lat="43.6534109" lon="11.8392905"><ele>307.0</ele><time>2026-04-29T11:06:30.571Z</time></trkpt><trkpt lat="43.6533753" lon="11.8393918"><ele>307.0</ele><time>2026-04-29T11:06:31.579Z</time></trkpt><trkpt lat="43.6533353" lon="11.8394956"><ele>307.0</ele><time>2026-04-29T11:06:32.613Z</time></trkpt><trkpt lat="43.6533469" lon="11.8396741"><ele>307.0</ele><time>2026-04-29T11:06:34.573Z</time></trkpt><trkpt lat="43.6533873" lon="11.8397833"><ele>307.8</ele><time>2026-04-29T11:06:35.574Z</time></trkpt><trkpt lat="43.6534325" lon="11.8399124"><ele>308.6</ele><time>2026-04-29T11:06:36.588Z</time></trkpt><trkpt lat="43.6534693" lon="11.8400476"><ele>309.40000000000003</ele><time>2026-04-29T11:06:37.578Z</time></trkpt><trkpt lat="43.6534892" lon="11.8401951"><ele>310.2</ele><time>2026-04-29T11:06:38.568Z</time></trkpt><trkpt lat="43.6534931" lon="11.8403363"><ele>311.0</ele><time>2026-04-29T11:06:39.58Z</time></trkpt><trkpt lat="43.6534773" lon="11.8404819"><ele>312.0</ele><time>2026-04-29T11:06:40.559Z</time></trkpt><trkpt lat="43.6534581" lon="11.8406341"><ele>313.0</ele><time>2026-04-29T11:06:41.584Z</time></trkpt><trkpt lat="43.653438" lon="11.8408031"><ele>314.0</ele><time>2026-04-29T11:06:42.583Z</time></trkpt><trkpt lat="43.6534232" lon="11.8409762"><ele>315.0</ele><time>2026-04-29T11:06:43.57Z</time></trkpt><trkpt lat="43.6534074" lon="11.8411531"><ele>315.0</ele><time>2026-04-29T11:06:44.606Z</time></trkpt><trkpt lat="43.6533909" lon="11.8413261"><ele>315.0</ele><time>2026-04-29T11:06:45.596Z</time></trkpt><trkpt lat="43.6533769" lon="11.8415289"><ele>315.0</ele><time>2026-04-29T11:06:46.585Z</time></trkpt><trkpt lat="43.6533628" lon="11.8417566"><ele>315.0</ele><time>2026-04-29T11:06:47.575Z</time></trkpt><trkpt lat="43.6533268" lon="11.8420209"><ele>315.3333333333333</ele><time>2026-04-29T11:06:48.579Z</time></trkpt><trkpt lat="43.6532874" lon="11.8423176"><ele>315.66666666666663</ele><time>2026-04-29T11:06:49.573Z</time></trkpt><trkpt lat="43.6532519" lon="11.8426235"><ele>316.0</ele><time>2026-04-29T11:06:50.586Z</time></trkpt><trkpt lat="43.653215" lon="11.8429396"><ele>317.0</ele><time>2026-04-29T11:06:51.585Z</time></trkpt><trkpt lat="43.6531744" lon="11.8432668"><ele>318.0</ele><time>2026-04-29T11:06:52.594Z</time></trkpt><trkpt lat="43.6531299" lon="11.8435919"><ele>321.0</ele><time>2026-04-29T11:06:53.582Z</time></trkpt><trkpt lat="43.6530809" lon="11.8439202"><ele>324.0</ele><time>2026-04-29T11:06:54.578Z</time></trkpt><trkpt lat="43.6530306" lon="11.8442395"><ele>325.5</ele><time>2026-04-29T11:06:55.572Z</time></trkpt><trkpt lat="43.6529718" lon="11.8445628"><ele>327.0</ele><time>2026-04-29T11:06:56.581Z</time></trkpt><trkpt lat="43.6529155" lon="11.8448945"><ele>324.3333333333333</ele><time>2026-04-29T11:06:57.608Z</time></trkpt><trkpt lat="43.6528634" lon="11.8451941"><ele>321.66666666666663</ele><time>2026-04-29T11:06:58.59Z</time></trkpt><trkpt lat="43.6528173" lon="11.8454791"><ele>319.0</ele><time>2026-04-29T11:06:59.574Z</time></trkpt><trkpt lat="43.6527735" lon="11.8457645"><ele>320.3333333333333</ele><time>2026-04-29T11:07:00.573Z</time></trkpt><trkpt lat="43.6527115" lon="11.8460384"><ele>321.6666666666667</ele><time>2026-04-29T11:07:01.591Z</time></trkpt><trkpt lat="43.6526256" lon="11.8462837"><ele>323.0</ele><time>2026-04-29T11:07:02.565Z</time></trkpt><trkpt lat="43.6525101" lon="11.8465405"><ele>323.0</ele><time>2026-04-29T11:07:03.584Z</time></trkpt><trkpt lat="43.6523906" lon="11.8467819"><ele>323.0</ele><time>2026-04-29T11:07:04.572Z</time></trkpt><trkpt lat="43.6522596" lon="11.8470298"><ele>323.0</ele><time>2026-04-29T11:07:05.568Z</time></trkpt><trkpt lat="43.6521295" lon="11.8472834"><ele>326.0</ele><time>2026-04-29T11:07:06.588Z</time></trkpt><trkpt lat="43.6519981" lon="11.8475393"><ele>329.0</ele><time>2026-04-29T11:07:07.571Z</time></trkpt><trkpt lat="43.6518668" lon="11.8477928"><ele>329.0</ele><time>2026-04-29T11:07:08.572Z</time></trkpt><trkpt lat="43.6517411" lon="11.8480396"><ele>329.0</ele><time>2026-04-29T11:07:09.569Z</time></trkpt><trkpt lat="43.6516625" lon="11.8482245"><ele>329.0</ele><time>2026-04-29T11:07:10.577Z</time></trkpt><trkpt lat="43.6516104" lon="11.8484098"><ele>330.6666666666667</ele><time>2026-04-29T11:07:11.594Z</time></trkpt><trkpt lat="43.6516022" lon="11.8486061"><ele>332.3333333333333</ele><time>2026-04-29T11:07:12.591Z</time></trkpt><trkpt lat="43.6516259" lon="11.8488727"><ele>334.0</ele><time>2026-04-29T11:07:13.571Z</time></trkpt><trkpt lat="43.6516717" lon="11.849141"><ele>335.0</ele><time>2026-04-29T11:07:14.573Z</time></trkpt><trkpt lat="43.6517237" lon="11.8494426"><ele>336.0</ele><time>2026-04-29T11:07:15.581Z</time></trkpt><trkpt lat="43.651782" lon="11.8497594"><ele>336.0</ele><time>2026-04-29T11:07:16.579Z</time></trkpt><trkpt lat="43.6518352" lon="11.8500773"><ele>336.0</ele><time>2026-04-29T11:07:17.57Z</time></trkpt><trkpt lat="43.6518799" lon="11.8503845"><ele>336.0</ele><time>2026-04-29T11:07:18.574Z</time></trkpt><trkpt lat="43.6519003" lon="11.8507021"><ele>336.0</ele><time>2026-04-29T11:07:19.568Z</time></trkpt><trkpt lat="43.6518904" lon="11.8510315"><ele>338.5</ele><time>2026-04-29T11:07:20.566Z</time></trkpt><trkpt lat="43.6518383" lon="11.8513256"><ele>341.0</ele><time>2026-04-29T11:07:21.59Z</time></trkpt><trkpt lat="43.6517495" lon="11.8516335"><ele>345.6666666666667</ele><time>2026-04-29T11:07:22.582Z</time></trkpt><trkpt lat="43.6516245" lon="11.8518831"><ele>350.3333333333333</ele><time>2026-04-29T11:07:23.567Z</time></trkpt><trkpt lat="43.6514851" lon="11.8521214"><ele>355.0</ele><time>2026-04-29T11:07:24.564Z</time></trkpt><trkpt lat="43.6513339" lon="11.8523474"><ele>355.0</ele><time>2026-04-29T11:07:25.58Z</time></trkpt><trkpt lat="43.6511953" lon="11.8525884"><ele>355.0</ele><time>2026-04-29T11:07:26.567Z</time></trkpt><trkpt lat="43.6510762" lon="11.8528397"><ele>355.0</ele><time>2026-04-29T11:07:27.567Z</time></trkpt><trkpt lat="43.6509668" lon="11.8531059"><ele>353.0</ele><time>2026-04-29T11:07:28.582Z</time></trkpt><trkpt lat="43.6508569" lon="11.8533692"><ele>351.0</ele><time>2026-04-29T11:07:29.568Z</time></trkpt><trkpt lat="43.6507433" lon="11.8536411"><ele>349.0</ele><time>2026-04-29T11:07:30.598Z</time></trkpt><trkpt lat="43.6506031" lon="11.8539911"><ele>357.0</ele><time>2026-04-29T11:07:31.919Z</time></trkpt><trkpt lat="43.6504283" lon="11.8544181"><ele>365.0</ele><time>2026-04-29T11:07:33.628Z</time></trkpt><trkpt lat="43.6503632" lon="11.8546526"><ele>365.0</ele><time>2026-04-29T11:07:34.639Z</time></trkpt><trkpt lat="43.6503455" lon="11.8549274"><ele>365.0</ele><time>2026-04-29T11:07:35.634Z</time></trkpt><trkpt lat="43.6503539" lon="11.8551935"><ele>365.0</ele><time>2026-04-29T11:07:36.633Z</time></trkpt><trkpt lat="43.6503922" lon="11.8554592"><ele>365.6666666666667</ele><time>2026-04-29T11:07:37.62Z</time></trkpt><trkpt lat="43.6504389" lon="11.8557429"><ele>366.3333333333333</ele><time>2026-04-29T11:07:38.644Z</time></trkpt><trkpt lat="43.6504669" lon="11.8560297"><ele>367.0</ele><time>2026-04-29T11:07:39.636Z</time></trkpt><trkpt lat="43.6504867" lon="11.8563247"><ele>369.3333333333333</ele><time>2026-04-29T11:07:40.636Z</time></trkpt><trkpt lat="43.6504844" lon="11.8565917"><ele>371.6666666666667</ele><time>2026-04-29T11:07:41.658Z</time></trkpt><trkpt lat="43.6504563" lon="11.8568443"><ele>374.0</ele><time>2026-04-29T11:07:42.627Z</time></trkpt><trkpt lat="43.6503893" lon="11.8571029"><ele>376.0</ele><time>2026-04-29T11:07:43.627Z</time></trkpt><trkpt lat="43.6503263" lon="11.8573397"><ele>378.0</ele><time>2026-04-29T11:07:44.667Z</time></trkpt><trkpt lat="43.6502886" lon="11.8575401"><ele>380.0</ele><time>2026-04-29T11:07:45.637Z</time></trkpt><trkpt lat="43.6502766" lon="11.8577211"><ele>373.4</ele><time>2026-04-29T11:07:46.617Z</time></trkpt><trkpt lat="43.6502587" lon="11.8578814"><ele>366.8</ele><time>2026-04-29T11:07:47.619Z</time></trkpt><trkpt lat="43.6502179" lon="11.8580145"><ele>360.20000000000005</ele><time>2026-04-29T11:07:48.627Z</time></trkpt><trkpt lat="43.6501516" lon="11.8581139"><ele>353.6</ele><time>2026-04-29T11:07:49.633Z</time></trkpt><trkpt lat="43.6500559" lon="11.8581777"><ele>347.0</ele><time>2026-04-29T11:07:50.627Z</time></trkpt><trkpt lat="43.6499721" lon="11.858256"><ele>347.0</ele><time>2026-04-29T11:07:51.631Z</time></trkpt><trkpt lat="43.6499073" lon="11.8583955"><ele>347.0</ele><time>2026-04-29T11:07:52.628Z</time></trkpt><trkpt lat="43.6498755" lon="11.8585685"><ele>347.0</ele><time>2026-04-29T11:07:53.631Z</time></trkpt><trkpt lat="43.6498745" lon="11.858771"><ele>347.0</ele><time>2026-04-29T11:07:54.619Z</time></trkpt><trkpt lat="43.6498873" lon="11.8590032"><ele>348.0</ele><time>2026-04-29T11:07:55.631Z</time></trkpt><trkpt lat="43.6498984" lon="11.8592517"><ele>349.0</ele><time>2026-04-29T11:07:56.634Z</time></trkpt><trkpt lat="43.6498944" lon="11.8595177"><ele>350.0</ele><time>2026-04-29T11:07:57.648Z</time></trkpt><trkpt lat="43.6498627" lon="11.8597782"><ele>350.33333333333337</ele><time>2026-04-29T11:07:58.626Z</time></trkpt><trkpt lat="43.6498026" lon="11.8600467"><ele>350.6666666666667</ele><time>2026-04-29T11:07:59.641Z</time></trkpt><trkpt lat="43.6497257" lon="11.8603056"><ele>351.0</ele><time>2026-04-29T11:08:00.64Z</time></trkpt><trkpt lat="43.649657" lon="11.8605665"><ele>351.0</ele><time>2026-04-29T11:08:01.647Z</time></trkpt><trkpt lat="43.6496199" lon="11.8608222"><ele>351.0</ele><time>2026-04-29T11:08:02.659Z</time></trkpt><trkpt lat="43.649627" lon="11.8610648"><ele>351.0</ele><time>2026-04-29T11:08:03.63Z</time></trkpt><trkpt lat="43.6496546" lon="11.8613285"><ele>351.0</ele><time>2026-04-29T11:08:04.629Z</time></trkpt><trkpt lat="43.6497062" lon="11.861595"><ele>351.0</ele><time>2026-04-29T11:08:05.633Z</time></trkpt><trkpt lat="43.649761" lon="11.8618722"><ele>351.0</ele><time>2026-04-29T11:08:06.637Z</time></trkpt><trkpt lat="43.6498251" lon="11.8621472"><ele>355.3333333333333</ele><time>2026-04-29T11:08:07.624Z</time></trkpt><trkpt lat="43.6498956" lon="11.8624121"><ele>359.66666666666663</ele><time>2026-04-29T11:08:08.626Z</time></trkpt><trkpt lat="43.6499824" lon="11.8626437"><ele>364.0</ele><time>2026-04-29T11:08:09.627Z</time></trkpt><trkpt lat="43.6500917" lon="11.8628376"><ele>362.0</ele><time>2026-04-29T11:08:10.635Z</time></trkpt><trkpt lat="43.6502309" lon="11.8629948"><ele>360.0</ele><time>2026-04-29T11:08:11.636Z</time></trkpt><trkpt lat="43.6503824" lon="11.8631197"><ele>358.0</ele><time>2026-04-29T11:08:12.639Z</time></trkpt><trkpt lat="43.6505106" lon="11.8632443"><ele>358.0</ele><time>2026-04-29T11:08:13.634Z</time></trkpt><trkpt lat="43.6506267" lon="11.8633734"><ele>358.0</ele><time>2026-04-29T11:08:14.631Z</time></trkpt><trkpt lat="43.6506567" lon="11.8635472"><ele>358.0</ele><time>2026-04-29T11:08:15.628Z</time></trkpt><trkpt lat="43.6506997" lon="11.8637123"><ele>358.0</ele><time>2026-04-29T11:08:16.64Z</time></trkpt><trkpt lat="43.6507606" lon="11.8638808"><ele>360.3333333333333</ele><time>2026-04-29T11:08:17.637Z</time></trkpt><trkpt lat="43.6508488" lon="11.8640564"><ele>362.6666666666667</ele><time>2026-04-29T11:08:18.634Z</time></trkpt><trkpt lat="43.6509585" lon="11.8642391"><ele>365.0</ele><time>2026-04-29T11:08:19.62Z</time></trkpt><trkpt lat="43.651085" lon="11.8644326"><ele>366.0</ele><time>2026-04-29T11:08:20.625Z</time></trkpt><trkpt lat="43.6512186" lon="11.8646369"><ele>367.0</ele><time>2026-04-29T11:08:21.628Z</time></trkpt><trkpt lat="43.6513586" lon="11.8648437"><ele>368.0</ele><time>2026-04-29T11:08:22.637Z</time></trkpt><trkpt lat="43.6514898" lon="11.8650378"><ele>372.0</ele><time>2026-04-29T11:08:23.66Z</time></trkpt><trkpt lat="43.6516003" lon="11.8652108"><ele>376.0</ele><time>2026-04-29T11:08:24.627Z</time></trkpt><trkpt lat="43.6516937" lon="11.8653897"><ele>380.0</ele><time>2026-04-29T11:08:25.63Z</time></trkpt><trkpt lat="43.6517526" lon="11.8655811"><ele>380.0</ele><time>2026-04-29T11:08:26.616Z</time></trkpt><trkpt lat="43.6517761" lon="11.8657901"><ele>380.0</ele><time>2026-04-29T11:08:27.653Z</time></trkpt><trkpt lat="43.6517682" lon="11.8659882"><ele>380.0</ele><time>2026-04-29T11:08:28.622Z</time></trkpt><trkpt lat="43.651742" lon="11.8662025"><ele>380.33333333333337</ele><time>2026-04-29T11:08:29.634Z</time></trkpt><trkpt lat="43.6517092" lon="11.8664347"><ele>380.6666666666667</ele><time>2026-04-29T11:08:30.632Z</time></trkpt><trkpt lat="43.6516711" lon="11.8666814"><ele>381.0</ele><time>2026-04-29T11:08:31.629Z</time></trkpt><trkpt lat="43.6516338" lon="11.8669434"><ele>382.33333333333337</ele><time>2026-04-29T11:08:32.657Z</time></trkpt><trkpt lat="43.6515966" lon="11.8671985"><ele>383.6666666666667</ele><time>2026-04-29T11:08:33.627Z</time></trkpt><trkpt lat="43.6515635" lon="11.8674465"><ele>385.0</ele><time>2026-04-29T11:08:34.631Z</time></trkpt><trkpt lat="43.6515496" lon="11.867674"><ele>385.0</ele><time>2026-04-29T11:08:35.627Z</time></trkpt><trkpt lat="43.6515659" lon="11.8678929"><ele>385.0</ele><time>2026-04-29T11:08:36.646Z</time></trkpt><trkpt lat="43.6515961" lon="11.8680963"><ele>385.0</ele><time>2026-04-29T11:08:37.614Z</time></trkpt><trkpt lat="43.6516751" lon="11.8683217"><ele>384.6666666666667</ele><time>2026-04-29T11:08:38.643Z</time></trkpt><trkpt lat="43.6517804" lon="11.8685358"><ele>384.33333333333337</ele><time>2026-04-29T11:08:39.637Z</time></trkpt><trkpt lat="43.6518802" lon="11.868771"><ele>384.0</ele><time>2026-04-29T11:08:40.632Z</time></trkpt><trkpt lat="43.6519674" lon="11.8690243"><ele>380.6666666666667</ele><time>2026-04-29T11:08:41.634Z</time></trkpt><trkpt lat="43.6520347" lon="11.8692937"><ele>377.33333333333337</ele><time>2026-04-29T11:08:42.645Z</time></trkpt><trkpt lat="43.6520695" lon="11.8695751"><ele>374.0</ele><time>2026-04-29T11:08:43.647Z</time></trkpt><trkpt lat="43.6520838" lon="11.8698579"><ele>373.6666666666667</ele><time>2026-04-29T11:08:44.642Z</time></trkpt><trkpt lat="43.6520675" lon="11.870141"><ele>373.3333333333333</ele><time>2026-04-29T11:08:45.645Z</time></trkpt><trkpt lat="43.6520313" lon="11.8704009"><ele>373.0</ele><time>2026-04-29T11:08:46.634Z</time></trkpt><trkpt lat="43.6519755" lon="11.8706435"><ele>375.0</ele><time>2026-04-29T11:08:47.648Z</time></trkpt><trkpt lat="43.6519065" lon="11.8708379"><ele>377.0</ele><time>2026-04-29T11:08:48.619Z</time></trkpt><trkpt lat="43.6518316" lon="11.8710036"><ele>379.0</ele><time>2026-04-29T11:08:49.639Z</time></trkpt><trkpt lat="43.6517867" lon="11.8711558"><ele>381.0</ele><time>2026-04-29T11:08:50.639Z</time></trkpt><trkpt lat="43.6517784" lon="11.8713212"><ele>381.0</ele><time>2026-04-29T11:08:51.639Z</time></trkpt><trkpt lat="43.6517959" lon="11.8715021"><ele>381.0</ele><time>2026-04-29T11:08:52.618Z</time></trkpt><trkpt lat="43.651852" lon="11.8716647"><ele>381.0</ele><time>2026-04-29T11:08:53.625Z</time></trkpt><trkpt lat="43.6519439" lon="11.871786"><ele>381.0</ele><time>2026-04-29T11:08:54.625Z</time></trkpt><trkpt lat="43.6520652" lon="11.8718747"><ele>384.66666666666663</ele><time>2026-04-29T11:08:55.643Z</time></trkpt><trkpt lat="43.6522103" lon="11.8719302"><ele>388.3333333333333</ele><time>2026-04-29T11:08:56.624Z</time></trkpt><trkpt lat="43.6523498" lon="11.8720137"><ele>392.0</ele><time>2026-04-29T11:08:57.627Z</time></trkpt><trkpt lat="43.6524733" lon="11.8721458"><ele>392.0</ele><time>2026-04-29T11:08:58.622Z</time></trkpt><trkpt lat="43.6525954" lon="11.8723119"><ele>392.0</ele><time>2026-04-29T11:08:59.626Z</time></trkpt><trkpt lat="43.6527322" lon="11.8724496"><ele>392.0</ele><time>2026-04-29T11:09:00.616Z</time></trkpt><trkpt lat="43.652893" lon="11.872559"><ele>398.66666666666663</ele><time>2026-04-29T11:09:01.613Z</time></trkpt><trkpt lat="43.6530763" lon="11.8726116"><ele>405.33333333333337</ele><time>2026-04-29T11:09:02.629Z</time></trkpt><trkpt lat="43.6532615" lon="11.872619"><ele>412.0</ele><time>2026-04-29T11:09:03.614Z</time></trkpt><trkpt lat="43.6534596" lon="11.8726395"><ele>410.6666666666667</ele><time>2026-04-29T11:09:04.623Z</time></trkpt><trkpt lat="43.6536304" lon="11.8726576"><ele>409.33333333333337</ele><time>2026-04-29T11:09:05.616Z</time></trkpt><trkpt lat="43.6537979" lon="11.8727015"><ele>408.0</ele><time>2026-04-29T11:09:06.619Z</time></trkpt><trkpt lat="43.6539676" lon="11.8727916"><ele>408.0</ele><time>2026-04-29T11:09:07.63Z</time></trkpt><trkpt lat="43.654133" lon="11.8729045"><ele>408.0</ele><time>2026-04-29T11:09:08.635Z</time></trkpt><trkpt lat="43.6543052" lon="11.8730213"><ele>408.0</ele><time>2026-04-29T11:09:09.636Z</time></trkpt><trkpt lat="43.6544746" lon="11.8731395"><ele>409.33333333333337</ele><time>2026-04-29T11:09:10.622Z</time></trkpt><trkpt lat="43.6546617" lon="11.8732456"><ele>410.6666666666667</ele><time>2026-04-29T11:09:11.626Z</time></trkpt><trkpt lat="43.6548481" lon="11.8732707"><ele>412.0</ele><time>2026-04-29T11:09:12.625Z</time></trkpt><trkpt lat="43.6550433" lon="11.8732724"><ele>412.0</ele><time>2026-04-29T11:09:13.621Z</time></trkpt><trkpt lat="43.6552242" lon="11.8732636"><ele>412.0</ele><time>2026-04-29T11:09:14.629Z</time></trkpt><trkpt lat="43.6553893" lon="11.8732253"><ele>412.0</ele><time>2026-04-29T11:09:15.648Z</time></trkpt><trkpt lat="43.6555313" lon="11.8731355"><ele>413.25</ele><time>2026-04-29T11:09:16.647Z</time></trkpt><trkpt lat="43.655642" lon="11.8730014"><ele>414.5</ele><time>2026-04-29T11:09:17.63Z</time></trkpt><trkpt lat="43.6557357" lon="11.8728911"><ele>415.75</ele><time>2026-04-29T11:09:18.624Z</time></trkpt><trkpt lat="43.6558279" lon="11.8728308"><ele>417.0</ele><time>2026-04-29T11:09:19.614Z</time></trkpt><trkpt lat="43.6559367" lon="11.8728194"><ele>417.0</ele><time>2026-04-29T11:09:20.615Z</time></trkpt><trkpt lat="43.6560414" lon="11.8728654"><ele>417.0</ele><time>2026-04-29T11:09:21.617Z</time></trkpt><trkpt lat="43.656131" lon="11.8729689"><ele>417.0</ele><time>2026-04-29T11:09:22.62Z</time></trkpt><trkpt lat="43.6562036" lon="11.8731168"><ele>417.0</ele><time>2026-04-29T11:09:23.616Z</time></trkpt><trkpt lat="43.6562887" lon="11.873252"><ele>419.25</ele><time>2026-04-29T11:09:24.634Z</time></trkpt><trkpt lat="43.6563946" lon="11.8733306"><ele>421.5</ele><time>2026-04-29T11:09:25.623Z</time></trkpt><trkpt lat="43.6565141" lon="11.8733509"><ele>423.75</ele><time>2026-04-29T11:09:26.619Z</time></trkpt><trkpt lat="43.6566378" lon="11.8733138"><ele>426.0</ele><time>2026-04-29T11:09:27.632Z</time></trkpt><trkpt lat="43.6567515" lon="11.8732245"><ele>426.0</ele><time>2026-04-29T11:09:28.615Z</time></trkpt><trkpt lat="43.6568661" lon="11.8731072"><ele>426.0</ele><time>2026-04-29T11:09:29.621Z</time></trkpt><trkpt lat="43.6569862" lon="11.8730347"><ele>426.0</ele><time>2026-04-29T11:09:30.622Z</time></trkpt><trkpt lat="43.6571185" lon="11.8730133"><ele>426.0</ele><time>2026-04-29T11:09:31.622Z</time></trkpt><trkpt lat="43.6572726" lon="11.8730376"><ele>428.0</ele><time>2026-04-29T11:09:32.653Z</time></trkpt><trkpt lat="43.6574231" lon="11.8731049"><ele>430.0</ele><time>2026-04-29T11:09:33.638Z</time></trkpt><trkpt lat="43.6575791" lon="11.8731845"><ele>432.0</ele><time>2026-04-29T11:09:34.651Z</time></trkpt><trkpt lat="43.6577239" lon="11.873213"><ele>433.5</ele><time>2026-04-29T11:09:35.628Z</time></trkpt><trkpt lat="43.6578701" lon="11.8731788"><ele>435.0</ele><time>2026-04-29T11:09:36.631Z</time></trkpt><trkpt lat="43.6580109" lon="11.8730947"><ele>436.5</ele><time>2026-04-29T11:09:37.636Z</time></trkpt><trkpt lat="43.658135" lon="11.873002"><ele>438.0</ele><time>2026-04-29T11:09:38.625Z</time></trkpt><trkpt lat="43.6582561" lon="11.8729399"><ele>438.0</ele><time>2026-04-29T11:09:39.654Z</time></trkpt><trkpt lat="43.6583691" lon="11.8729354"><ele>437.99999999999994</ele><time>2026-04-29T11:09:40.622Z</time></trkpt><trkpt lat="43.6584721" lon="11.8729838"><ele>437.99999999999994</ele><time>2026-04-29T11:09:41.632Z</time></trkpt><trkpt lat="43.6585402" lon="11.8730789"><ele>438.0</ele><time>2026-04-29T11:09:42.622Z</time></trkpt><trkpt lat="43.6585746" lon="11.8732145"><ele>438.0</ele><time>2026-04-29T11:09:43.619Z</time></trkpt><trkpt lat="43.6585669" lon="11.873364"><ele>441.25</ele><time>2026-04-29T11:09:44.62Z</time></trkpt><trkpt lat="43.6585174" lon="11.8735182"><ele>444.5</ele><time>2026-04-29T11:09:45.609Z</time></trkpt><trkpt lat="43.6584281" lon="11.8736681"><ele>447.75</ele><time>2026-04-29T11:09:46.62Z</time></trkpt><trkpt lat="43.6583127" lon="11.8737788"><ele>451.0</ele><time>2026-04-29T11:09:47.644Z</time></trkpt><trkpt lat="43.6581813" lon="11.8738266"><ele>451.0</ele><time>2026-04-29T11:09:48.632Z</time></trkpt><trkpt lat="43.6580268" lon="11.8738404"><ele>451.0</ele><time>2026-04-29T11:09:49.665Z</time></trkpt><trkpt lat="43.6578798" lon="11.8738704"><ele>451.0</ele><time>2026-04-29T11:09:50.636Z</time></trkpt><trkpt lat="43.6577343" lon="11.8739604"><ele>450.6666666666667</ele><time>2026-04-29T11:09:51.627Z</time></trkpt><trkpt lat="43.6575789" lon="11.8741003"><ele>450.33333333333337</ele><time>2026-04-29T11:09:52.639Z</time></trkpt><trkpt lat="43.6574224" lon="11.8742525"><ele>450.0</ele><time>2026-04-29T11:09:53.635Z</time></trkpt><trkpt lat="43.6572522" lon="11.8744132"><ele>454.33333333333337</ele><time>2026-04-29T11:09:54.646Z</time></trkpt><trkpt lat="43.6570762" lon="11.874575"><ele>458.6666666666667</ele><time>2026-04-29T11:09:55.637Z</time></trkpt><trkpt lat="43.6568942" lon="11.8747411"><ele>463.0</ele><time>2026-04-29T11:09:56.647Z</time></trkpt><trkpt lat="43.6567211" lon="11.8748898"><ele>463.0</ele><time>2026-04-29T11:09:57.666Z</time></trkpt><trkpt lat="43.6565671" lon="11.8749824"><ele>463.0</ele><time>2026-04-29T11:09:58.626Z</time></trkpt><trkpt lat="43.6564037" lon="11.875018"><ele>463.0</ele><time>2026-04-29T11:09:59.635Z</time></trkpt><trkpt lat="43.6562487" lon="11.8750084"><ele>461.25</ele><time>2026-04-29T11:10:00.624Z</time></trkpt><trkpt lat="43.6561104" lon="11.8750167"><ele>459.5</ele><time>2026-04-29T11:10:01.644Z</time></trkpt><trkpt lat="43.65598" lon="11.8750807"><ele>457.75</ele><time>2026-04-29T11:10:02.627Z</time></trkpt><trkpt lat="43.6558548" lon="11.8752009"><ele>456.0</ele><time>2026-04-29T11:10:03.623Z</time></trkpt><trkpt lat="43.6557261" lon="11.8753737"><ele>461.0</ele><time>2026-04-29T11:10:04.633Z</time></trkpt><trkpt lat="43.6555885" lon="11.8755674"><ele>466.0</ele><time>2026-04-29T11:10:05.65Z</time></trkpt><trkpt lat="43.6554476" lon="11.8757619"><ele>471.0</ele><time>2026-04-29T11:10:06.64Z</time></trkpt><trkpt lat="43.6553133" lon="11.8759389"><ele>474.66666666666663</ele><time>2026-04-29T11:10:07.627Z</time></trkpt><trkpt lat="43.6551699" lon="11.8760917"><ele>478.3333333333333</ele><time>2026-04-29T11:10:08.642Z</time></trkpt><trkpt lat="43.6550108" lon="11.8761914"><ele>482.0</ele><time>2026-04-29T11:10:09.628Z</time></trkpt><trkpt lat="43.6548282" lon="11.8762419"><ele>482.0</ele><time>2026-04-29T11:10:10.646Z</time></trkpt><trkpt lat="43.6546598" lon="11.8762589"><ele>482.0</ele><time>2026-04-29T11:10:11.628Z</time></trkpt><trkpt lat="43.6545073" lon="11.8762947"><ele>482.0</ele><time>2026-04-29T11:10:12.635Z</time></trkpt><trkpt lat="43.6543775" lon="11.8763738"><ele>482.25</ele><time>2026-04-29T11:10:13.64Z</time></trkpt><trkpt lat="43.6542773" lon="11.8765065"><ele>482.5</ele><time>2026-04-29T11:10:14.66Z</time></trkpt><trkpt lat="43.6541943" lon="11.8766613"><ele>482.75</ele><time>2026-04-29T11:10:15.625Z</time></trkpt><trkpt lat="43.6540849" lon="11.8767911"><ele>483.0</ele><time>2026-04-29T11:10:16.63Z</time></trkpt><trkpt lat="43.653975" lon="11.8768807"><ele>483.0</ele><time>2026-04-29T11:10:17.654Z</time></trkpt><trkpt lat="43.6538471" lon="11.8769077"><ele>483.0</ele><time>2026-04-29T11:10:18.637Z</time></trkpt><trkpt lat="43.6536698" lon="11.8768806"><ele>483.0</ele><time>2026-04-29T11:10:19.636Z</time></trkpt><trkpt lat="43.6535011" lon="11.8768845"><ele>483.66666666666663</ele><time>2026-04-29T11:10:20.643Z</time></trkpt><trkpt lat="43.6533408" lon="11.8769327"><ele>484.3333333333333</ele><time>2026-04-29T11:10:21.644Z</time></trkpt><trkpt lat="43.6531776" lon="11.8770084"><ele>485.0</ele><time>2026-04-29T11:10:22.65Z</time></trkpt><trkpt lat="43.6530742" lon="11.8771793"><ele>485.0</ele><time>2026-04-29T11:10:23.627Z</time></trkpt><trkpt lat="43.6529688" lon="11.8773788"><ele>485.0</ele><time>2026-04-29T11:10:24.628Z</time></trkpt><trkpt lat="43.6528708" lon="11.877616"><ele>485.0</ele><time>2026-04-29T11:10:25.645Z</time></trkpt><trkpt lat="43.6527842" lon="11.8778356"><ele>487.3333333333333</ele><time>2026-04-29T11:10:26.62Z</time></trkpt><trkpt lat="43.6527044" lon="11.8780432"><ele>489.66666666666663</ele><time>2026-04-29T11:10:27.629Z</time></trkpt><trkpt lat="43.6526535" lon="11.8782387"><ele>492.0</ele><time>2026-04-29T11:10:28.627Z</time></trkpt><trkpt lat="43.6526446" lon="11.8784338"><ele>494.25</ele><time>2026-04-29T11:10:29.641Z</time></trkpt><trkpt lat="43.6526823" lon="11.8786119"><ele>496.5</ele><time>2026-04-29T11:10:30.629Z</time></trkpt><trkpt lat="43.652756" lon="11.8787694"><ele>498.75</ele><time>2026-04-29T11:10:31.634Z</time></trkpt><trkpt lat="43.6528635" lon="11.8788865"><ele>501.0</ele><time>2026-04-29T11:10:32.644Z</time></trkpt><trkpt lat="43.6529915" lon="11.8789659"><ele>501.0</ele><time>2026-04-29T11:10:33.625Z</time></trkpt><trkpt lat="43.6531733" lon="11.8789909"><ele>501.0</ele><time>2026-04-29T11:10:34.641Z</time></trkpt><trkpt lat="43.6533518" lon="11.8789794"><ele>501.0</ele><time>2026-04-29T11:10:35.632Z</time></trkpt><trkpt lat="43.6535362" lon="11.8789273"><ele>500.0</ele><time>2026-04-29T11:10:36.633Z</time></trkpt><trkpt lat="43.6537066" lon="11.8788529"><ele>499.0</ele><time>2026-04-29T11:10:37.62Z</time></trkpt><trkpt lat="43.6538712" lon="11.8787922"><ele>498.0</ele><time>2026-04-29T11:10:38.61Z</time></trkpt><trkpt lat="43.6540532" lon="11.8787586"><ele>498.0</ele><time>2026-04-29T11:10:39.647Z</time></trkpt><trkpt lat="43.6542497" lon="11.8787417"><ele>498.0</ele><time>2026-04-29T11:10:40.664Z</time></trkpt><trkpt lat="43.6544488" lon="11.878725"><ele>498.0</ele><time>2026-04-29T11:10:41.627Z</time></trkpt><trkpt lat="43.6546705" lon="11.8787041"><ele>498.66666666666663</ele><time>2026-04-29T11:10:42.634Z</time></trkpt><trkpt lat="43.6548957" lon="11.878685"><ele>499.3333333333333</ele><time>2026-04-29T11:10:43.636Z</time></trkpt><trkpt lat="43.6551044" lon="11.8786703"><ele>500.0</ele><time>2026-04-29T11:10:44.63Z</time></trkpt><trkpt lat="43.6552919" lon="11.8786565"><ele>501.0</ele><time>2026-04-29T11:10:45.618Z</time></trkpt><trkpt lat="43.6554508" lon="11.8786267"><ele>502.0</ele><time>2026-04-29T11:10:46.615Z</time></trkpt><trkpt lat="43.655574" lon="11.8785565"><ele>503.0</ele><time>2026-04-29T11:10:47.619Z</time></trkpt><trkpt lat="43.6556627" lon="11.8784337"><ele>504.0</ele><time>2026-04-29T11:10:48.625Z</time></trkpt><trkpt lat="43.6557152" lon="11.8782755"><ele>505.0</ele><time>2026-04-29T11:10:49.619Z</time></trkpt><trkpt lat="43.6557405" lon="11.8780873"><ele>506.0</ele><time>2026-04-29T11:10:50.618Z</time></trkpt><trkpt lat="43.6557663" lon="11.877895"><ele>507.0</ele><time>2026-04-29T11:10:51.616Z</time></trkpt><trkpt lat="43.655818" lon="11.8777236"><ele>508.0</ele><time>2026-04-29T11:10:52.637Z</time></trkpt><trkpt lat="43.6558895" lon="11.8776035"><ele>507.25</ele><time>2026-04-29T11:10:53.624Z</time></trkpt><trkpt lat="43.6559825" lon="11.8775349"><ele>506.5</ele><time>2026-04-29T11:10:54.631Z</time></trkpt><trkpt lat="43.6560928" lon="11.877515"><ele>505.75</ele><time>2026-04-29T11:10:55.62Z</time></trkpt><trkpt lat="43.6562219" lon="11.8775258"><ele>505.0</ele><time>2026-04-29T11:10:56.626Z</time></trkpt><trkpt lat="43.6563655" lon="11.8775498"><ele>508.33333333333337</ele><time>2026-04-29T11:10:57.613Z</time></trkpt><trkpt lat="43.6565261" lon="11.8775642"><ele>511.66666666666663</ele><time>2026-04-29T11:10:58.616Z</time></trkpt><trkpt lat="43.656703" lon="11.8775684"><ele>515.0</ele><time>2026-04-29T11:10:59.626Z</time></trkpt><trkpt lat="43.6568908" lon="11.8775648"><ele>517.0</ele><time>2026-04-29T11:11:00.624Z</time></trkpt><trkpt lat="43.6570897" lon="11.87756"><ele>519.0</ele><time>2026-04-29T11:11:01.626Z</time></trkpt><trkpt lat="43.6572888" lon="11.8775627"><ele>521.0</ele><time>2026-04-29T11:11:02.645Z</time></trkpt><trkpt lat="43.6574624" lon="11.8775683"><ele>521.0</ele><time>2026-04-29T11:11:03.628Z</time></trkpt><trkpt lat="43.6576122" lon="11.877574"><ele>521.0</ele><time>2026-04-29T11:11:04.622Z</time></trkpt><trkpt lat="43.657735" lon="11.8775833"><ele>521.0</ele><time>2026-04-29T11:11:05.639Z</time></trkpt><trkpt lat="43.6578443" lon="11.8775871"><ele>521.0</ele><time>2026-04-29T11:11:06.642Z</time></trkpt><trkpt lat="43.657957" lon="11.8775893"><ele>521.25</ele><time>2026-04-29T11:11:07.643Z</time></trkpt><trkpt lat="43.6580832" lon="11.877595"><ele>521.5</ele><time>2026-04-29T11:11:08.627Z</time></trkpt><trkpt lat="43.6582304" lon="11.8776006"><ele>521.75</ele><time>2026-04-29T11:11:09.622Z</time></trkpt><trkpt lat="43.6583967" lon="11.8776105"><ele>522.0</ele><time>2026-04-29T11:11:10.628Z</time></trkpt><trkpt lat="43.6585774" lon="11.8776225"><ele>524.3333333333334</ele><time>2026-04-29T11:11:11.628Z</time></trkpt><trkpt lat="43.6587695" lon="11.8776333"><ele>526.6666666666667</ele><time>2026-04-29T11:11:12.643Z</time></trkpt><trkpt lat="43.6589498" lon="11.8776444"><ele>529.0</ele><time>2026-04-29T11:11:13.636Z</time></trkpt><trkpt lat="43.6591101" lon="11.8776564"><ele>529.0</ele><time>2026-04-29T11:11:14.624Z</time></trkpt><trkpt lat="43.6592504" lon="11.8776808"><ele>529.0</ele><time>2026-04-29T11:11:15.656Z</time></trkpt><trkpt lat="43.659356" lon="11.8777324"><ele>529.0</ele><time>2026-04-29T11:11:16.64Z</time></trkpt><trkpt lat="43.659427" lon="11.8778117"><ele>529.0</ele><time>2026-04-29T11:11:17.625Z</time></trkpt><trkpt lat="43.659473" lon="11.877914"><ele>529.0</ele><time>2026-04-29T11:11:18.627Z</time></trkpt><trkpt lat="43.6594918" lon="11.8780433"><ele>530.5</ele><time>2026-04-29T11:11:19.623Z</time></trkpt><trkpt lat="43.6594848" lon="11.8782047"><ele>532.0</ele><time>2026-04-29T11:11:20.639Z</time></trkpt><trkpt lat="43.6594613" lon="11.8783837"><ele>533.5</ele><time>2026-04-29T11:11:21.625Z</time></trkpt><trkpt lat="43.659429" lon="11.8785871"><ele>535.0</ele><time>2026-04-29T11:11:22.647Z</time></trkpt><trkpt lat="43.6593951" lon="11.8787929"><ele>535.0</ele><time>2026-04-29T11:11:23.63Z</time></trkpt><trkpt lat="43.6593643" lon="11.8789879"><ele>535.0</ele><time>2026-04-29T11:11:24.628Z</time></trkpt><trkpt lat="43.6593423" lon="11.8791518"><ele>535.0</ele><time>2026-04-29T11:11:25.625Z</time></trkpt><trkpt lat="43.6593344" lon="11.8793071"><ele>535.0</ele><time>2026-04-29T11:11:26.648Z</time></trkpt><trkpt lat="43.6593578" lon="11.8794502"><ele>538.0</ele><time>2026-04-29T11:11:27.643Z</time></trkpt><trkpt lat="43.6594111" lon="11.8795764"><ele>541.0</ele><time>2026-04-29T11:11:28.637Z</time></trkpt><trkpt lat="43.6594919" lon="11.879682"><ele>544.0</ele><time>2026-04-29T11:11:29.65Z</time></trkpt><trkpt lat="43.6595999" lon="11.8797759"><ele>547.0</ele><time>2026-04-29T11:11:30.633Z</time></trkpt><trkpt lat="43.6597254" lon="11.8798874"><ele>548.5</ele><time>2026-04-29T11:11:31.631Z</time></trkpt><trkpt lat="43.6598594" lon="11.8800155"><ele>550.0</ele><time>2026-04-29T11:11:32.636Z</time></trkpt><trkpt lat="43.6599927" lon="11.8801257"><ele>551.5</ele><time>2026-04-29T11:11:33.636Z</time></trkpt><trkpt lat="43.6601114" lon="11.8801903"><ele>553.0</ele><time>2026-04-29T11:11:34.636Z</time></trkpt><trkpt lat="43.6602276" lon="11.8802378"><ele>557.25</ele><time>2026-04-29T11:11:35.627Z</time></trkpt><trkpt lat="43.6603573" lon="11.8802666"><ele>561.5</ele><time>2026-04-29T11:11:36.625Z</time></trkpt><trkpt lat="43.6604757" lon="11.8802382"><ele>565.75</ele><time>2026-04-29T11:11:37.628Z</time></trkpt><trkpt lat="43.6605985" lon="11.880219"><ele>570.0</ele><time>2026-04-29T11:11:38.624Z</time></trkpt><trkpt lat="43.6607225" lon="11.8802041"><ele>570.0</ele><time>2026-04-29T11:11:39.631Z</time></trkpt><trkpt lat="43.6608465" lon="11.8801902"><ele>570.0</ele><time>2026-04-29T11:11:40.627Z</time></trkpt><trkpt lat="43.6609728" lon="11.8801747"><ele>570.0</ele><time>2026-04-29T11:11:41.632Z</time></trkpt><trkpt lat="43.6610988" lon="11.8801552"><ele>570.0</ele><time>2026-04-29T11:11:42.618Z</time></trkpt><trkpt lat="43.6612153" lon="11.8801504"><ele>570.2</ele><time>2026-04-29T11:11:43.615Z</time></trkpt><trkpt lat="43.6613134" lon="11.8801791"><ele>570.4</ele><time>2026-04-29T11:11:44.628Z</time></trkpt><trkpt lat="43.6613905" lon="11.8802523"><ele>570.6</ele><time>2026-04-29T11:11:45.635Z</time></trkpt><trkpt lat="43.6614458" lon="11.8803584"><ele>570.8</ele><time>2026-04-29T11:11:46.637Z</time></trkpt><trkpt lat="43.6614842" lon="11.8804877"><ele>571.0</ele><time>2026-04-29T11:11:47.642Z</time></trkpt><trkpt lat="43.6615112" lon="11.880653"><ele>573.3333333333334</ele><time>2026-04-29T11:11:48.756Z</time></trkpt><trkpt lat="43.661518" lon="11.8809828"><ele>575.6666666666666</ele><time>2026-04-29T11:11:50.659Z</time></trkpt><trkpt lat="43.6615213" lon="11.8811483"><ele>578.0</ele><time>2026-04-29T11:11:51.64Z</time></trkpt><trkpt lat="43.6615448" lon="11.8812868"><ele>578.0</ele><time>2026-04-29T11:11:52.634Z</time></trkpt><trkpt lat="43.6616012" lon="11.8813979"><ele>578.0</ele><time>2026-04-29T11:11:53.637Z</time></trkpt><trkpt lat="43.6616843" lon="11.8814773"><ele>578.0</ele><time>2026-04-29T11:11:54.646Z</time></trkpt><trkpt lat="43.6617723" lon="11.8815083"><ele>578.0</ele><time>2026-04-29T11:11:55.63Z</time></trkpt><trkpt lat="43.6618619" lon="11.8814876"><ele>578.0</ele><time>2026-04-29T11:11:56.609Z</time></trkpt><trkpt lat="43.6619569" lon="11.881409"><ele>579.25</ele><time>2026-04-29T11:11:57.666Z</time></trkpt><trkpt lat="43.662057" lon="11.8813099"><ele>580.5</ele><time>2026-04-29T11:11:58.638Z</time></trkpt><trkpt lat="43.6621671" lon="11.8811905"><ele>581.75</ele><time>2026-04-29T11:11:59.63Z</time></trkpt><trkpt lat="43.6622751" lon="11.8810897"><ele>583.0</ele><time>2026-04-29T11:12:00.647Z</time></trkpt><trkpt lat="43.6623784" lon="11.8810193"><ele>583.0</ele><time>2026-04-29T11:12:01.618Z</time></trkpt><trkpt lat="43.6624889" lon="11.8809759"><ele>583.0</ele><time>2026-04-29T11:12:02.654Z</time></trkpt><trkpt lat="43.6626169" lon="11.8809933"><ele>583.0</ele><time>2026-04-29T11:12:03.649Z</time></trkpt><trkpt lat="43.6627384" lon="11.8810375"><ele>583.0</ele><time>2026-04-29T11:12:04.638Z</time></trkpt><trkpt lat="43.6628586" lon="11.8810958"><ele>583.5</ele><time>2026-04-29T11:12:05.619Z</time></trkpt><trkpt lat="43.6629732" lon="11.8811533"><ele>584.0</ele><time>2026-04-29T11:12:06.634Z</time></trkpt><trkpt lat="43.6630753" lon="11.8811969"><ele>584.5</ele><time>2026-04-29T11:12:07.629Z</time></trkpt><trkpt lat="43.6631802" lon="11.8812484"><ele>585.0</ele><time>2026-04-29T11:12:08.63Z</time></trkpt><trkpt lat="43.6632917" lon="11.8813122"><ele>585.0</ele><time>2026-04-29T11:12:09.637Z</time></trkpt><trkpt lat="43.6634019" lon="11.8813887"><ele>585.0</ele><time>2026-04-29T11:12:10.668Z</time></trkpt><trkpt lat="43.6635017" lon="11.881479"><ele>585.0</ele><time>2026-04-29T11:12:11.659Z</time></trkpt><trkpt lat="43.6635968" lon="11.881587"><ele>585.0</ele><time>2026-04-29T11:12:12.613Z</time></trkpt><trkpt lat="43.6636942" lon="11.8817118"><ele>585.75</ele><time>2026-04-29T11:12:13.639Z</time></trkpt><trkpt lat="43.6637933" lon="11.8818557"><ele>586.5</ele><time>2026-04-29T11:12:14.651Z</time></trkpt><trkpt lat="43.6638949" lon="11.881985"><ele>587.25</ele><time>2026-04-29T11:12:15.648Z</time></trkpt><trkpt lat="43.6639949" lon="11.8821014"><ele>588.0</ele><time>2026-04-29T11:12:16.65Z</time></trkpt><trkpt lat="43.6641044" lon="11.8822008"><ele>588.0</ele><time>2026-04-29T11:12:17.637Z</time></trkpt><trkpt lat="43.6642358" lon="11.8822738"><ele>588.0</ele><time>2026-04-29T11:12:18.63Z</time></trkpt><trkpt lat="43.6643832" lon="11.8823349"><ele>588.0</ele><time>2026-04-29T11:12:19.649Z</time></trkpt><trkpt lat="43.6645239" lon="11.8823529"><ele>588.0</ele><time>2026-04-29T11:12:20.637Z</time></trkpt><trkpt lat="43.6646513" lon="11.8823858"><ele>587.5</ele><time>2026-04-29T11:12:21.637Z</time></trkpt><trkpt lat="43.6647527" lon="11.88244"><ele>587.0</ele><time>2026-04-29T11:12:22.643Z</time></trkpt><trkpt lat="43.6648257" lon="11.8825408"><ele>586.5</ele><time>2026-04-29T11:12:23.643Z</time></trkpt><trkpt lat="43.6648951" lon="11.8826833"><ele>586.0</ele><time>2026-04-29T11:12:24.648Z</time></trkpt><trkpt lat="43.6649625" lon="11.8828543"><ele>587.3333333333334</ele><time>2026-04-29T11:12:25.646Z</time></trkpt><trkpt lat="43.6650285" lon="11.8830444"><ele>588.6666666666666</ele><time>2026-04-29T11:12:26.631Z</time></trkpt><trkpt lat="43.6650844" lon="11.8832591"><ele>590.0</ele><time>2026-04-29T11:12:27.635Z</time></trkpt><trkpt lat="43.6651238" lon="11.883482"><ele>591.5</ele><time>2026-04-29T11:12:28.632Z</time></trkpt><trkpt lat="43.6651413" lon="11.8837004"><ele>593.0</ele><time>2026-04-29T11:12:29.646Z</time></trkpt><trkpt lat="43.6651505" lon="11.8839015"><ele>594.5</ele><time>2026-04-29T11:12:30.673Z</time></trkpt><trkpt lat="43.6651724" lon="11.8840639"><ele>596.0</ele><time>2026-04-29T11:12:31.627Z</time></trkpt><trkpt lat="43.6652311" lon="11.8841985"><ele>594.25</ele><time>2026-04-29T11:12:32.637Z</time></trkpt><trkpt lat="43.6653202" lon="11.8842873"><ele>592.5</ele><time>2026-04-29T11:12:33.64Z</time></trkpt><trkpt lat="43.6654365" lon="11.8843373"><ele>590.75</ele><time>2026-04-29T11:12:34.64Z</time></trkpt><trkpt lat="43.6655606" lon="11.8843666"><ele>589.0</ele><time>2026-04-29T11:12:35.628Z</time></trkpt><trkpt lat="43.6656727" lon="11.8844202"><ele>589.0</ele><time>2026-04-29T11:12:36.639Z</time></trkpt><trkpt lat="43.6657779" lon="11.884518"><ele>589.0</ele><time>2026-04-29T11:12:37.656Z</time></trkpt><trkpt lat="43.6658759" lon="11.8846494"><ele>589.0</ele><time>2026-04-29T11:12:38.63Z</time></trkpt><trkpt lat="43.6659808" lon="11.884812"><ele>589.0</ele><time>2026-04-29T11:12:39.636Z</time></trkpt><trkpt lat="43.6661" lon="11.8849857"><ele>587.6666666666667</ele><time>2026-04-29T11:12:40.643Z</time></trkpt><trkpt lat="43.6662311" lon="11.8851572"><ele>586.3333333333334</ele><time>2026-04-29T11:12:41.635Z</time></trkpt><trkpt lat="43.6663699" lon="11.885306"><ele>585.0</ele><time>2026-04-29T11:12:42.65Z</time></trkpt><trkpt lat="43.6665113" lon="11.8854088"><ele>585.0</ele><time>2026-04-29T11:12:43.622Z</time></trkpt><trkpt lat="43.6666528" lon="11.885493"><ele>585.0</ele><time>2026-04-29T11:12:44.631Z</time></trkpt><trkpt lat="43.6667696" lon="11.8855897"><ele>585.0</ele><time>2026-04-29T11:12:45.651Z</time></trkpt><trkpt lat="43.6668448" lon="11.8857106"><ele>585.0</ele><time>2026-04-29T11:12:46.637Z</time></trkpt><trkpt lat="43.6668801" lon="11.8858536"><ele>585.0</ele><time>2026-04-29T11:12:47.638Z</time></trkpt><trkpt lat="43.6668971" lon="11.8860076"><ele>585.0</ele><time>2026-04-29T11:12:48.634Z</time></trkpt><trkpt lat="43.6669227" lon="11.8861594"><ele>585.0</ele><time>2026-04-29T11:12:49.628Z</time></trkpt><trkpt lat="43.6669821" lon="11.8862713"><ele>585.0</ele><time>2026-04-29T11:12:50.633Z</time></trkpt><trkpt lat="43.6670844" lon="11.8863624"><ele>585.0</ele><time>2026-04-29T11:12:51.646Z</time></trkpt><trkpt lat="43.6672409" lon="11.8864031"><ele>585.0</ele><time>2026-04-29T11:12:52.627Z</time></trkpt><trkpt lat="43.6673892" lon="11.886502"><ele>585.0</ele><time>2026-04-29T11:12:53.627Z</time></trkpt><trkpt lat="43.6675423" lon="11.886628"><ele>585.0</ele><time>2026-04-29T11:12:54.64Z</time></trkpt><trkpt lat="43.6676472" lon="11.8867889"><ele>583.75</ele><time>2026-04-29T11:12:55.642Z</time></trkpt><trkpt lat="43.6677534" lon="11.8869147"><ele>582.5</ele><time>2026-04-29T11:12:56.627Z</time></trkpt><trkpt lat="43.6678811" lon="11.886987"><ele>581.25</ele><time>2026-04-29T11:12:57.64Z</time></trkpt><trkpt lat="43.6680125" lon="11.8869985"><ele>580.0</ele><time>2026-04-29T11:12:58.632Z</time></trkpt><trkpt lat="43.6681637" lon="11.8870312"><ele>580.0</ele><time>2026-04-29T11:12:59.641Z</time></trkpt><trkpt lat="43.6683057" lon="11.8871001"><ele>580.0</ele><time>2026-04-29T11:13:00.649Z</time></trkpt><trkpt lat="43.6684524" lon="11.8871818"><ele>580.0</ele><time>2026-04-29T11:13:01.638Z</time></trkpt><trkpt lat="43.6685741" lon="11.8872745"><ele>580.0</ele><time>2026-04-29T11:13:02.64Z</time></trkpt><trkpt lat="43.6686702" lon="11.8874013"><ele>570.5</ele><time>2026-04-29T11:13:03.644Z</time></trkpt><trkpt lat="43.6687188" lon="11.8875344"><ele>561.0</ele><time>2026-04-29T11:13:04.629Z</time></trkpt><trkpt lat="43.6687416" lon="11.8877017"><ele>551.5</ele><time>2026-04-29T11:13:05.635Z</time></trkpt><trkpt lat="43.6687404" lon="11.8878912"><ele>542.0</ele><time>2026-04-29T11:13:06.64Z</time></trkpt><trkpt lat="43.6687131" lon="11.8880983"><ele>538.6666666666666</ele><time>2026-04-29T11:13:07.654Z</time></trkpt><trkpt lat="43.6686639" lon="11.8883137"><ele>535.3333333333334</ele><time>2026-04-29T11:13:08.629Z</time></trkpt><trkpt lat="43.6686119" lon="11.8885243"><ele>532.0</ele><time>2026-04-29T11:13:09.629Z</time></trkpt><trkpt lat="43.6685684" lon="11.8887317"><ele>547.0</ele><time>2026-04-29T11:13:10.629Z</time></trkpt><trkpt lat="43.6685425" lon="11.8889468"><ele>562.0</ele><time>2026-04-29T11:13:11.639Z</time></trkpt><trkpt lat="43.6685477" lon="11.8891625"><ele>577.0</ele><time>2026-04-29T11:13:12.635Z</time></trkpt><trkpt lat="43.6685755" lon="11.8893942"><ele>577.0</ele><time>2026-04-29T11:13:13.627Z</time></trkpt><trkpt lat="43.6685891" lon="11.8896034"><ele>577.0</ele><time>2026-04-29T11:13:14.632Z</time></trkpt><trkpt lat="43.6685652" lon="11.8897926"><ele>577.0</ele><time>2026-04-29T11:13:15.634Z</time></trkpt><trkpt lat="43.6685203" lon="11.8899757"><ele>577.0</ele><time>2026-04-29T11:13:16.634Z</time></trkpt><trkpt lat="43.668459" lon="11.8901623"><ele>572.0</ele><time>2026-04-29T11:13:17.635Z</time></trkpt><trkpt lat="43.6684293" lon="11.8903535"><ele>567.0</ele><time>2026-04-29T11:13:18.618Z</time></trkpt><trkpt lat="43.6683993" lon="11.8905375"><ele>562.0</ele><time>2026-04-29T11:13:19.643Z</time></trkpt><trkpt lat="43.6683507" lon="11.8906761"><ele>557.0</ele><time>2026-04-29T11:13:20.627Z</time></trkpt><trkpt lat="43.6682658" lon="11.8907845"><ele>557.0</ele><time>2026-04-29T11:13:21.627Z</time></trkpt><trkpt lat="43.6681535" lon="11.8908892"><ele>557.0</ele><time>2026-04-29T11:13:22.642Z</time></trkpt><trkpt lat="43.6680395" lon="11.8910089"><ele>557.0</ele><time>2026-04-29T11:13:23.636Z</time></trkpt><trkpt lat="43.6679493" lon="11.8911522"><ele>557.0</ele><time>2026-04-29T11:13:24.637Z</time></trkpt><trkpt lat="43.667883" lon="11.8913149"><ele>552.0</ele><time>2026-04-29T11:13:25.627Z</time></trkpt><trkpt lat="43.667839" lon="11.891509"><ele>547.0</ele><time>2026-04-29T11:13:26.636Z</time></trkpt><trkpt lat="43.6678085" lon="11.8917205"><ele>542.0</ele><time>2026-04-29T11:13:27.635Z</time></trkpt><trkpt lat="43.6677743" lon="11.891928"><ele>549.0</ele><time>2026-04-29T11:13:28.629Z</time></trkpt><trkpt lat="43.6677364" lon="11.8921232"><ele>556.0</ele><time>2026-04-29T11:13:29.638Z</time></trkpt><trkpt lat="43.6676955" lon="11.8923021"><ele>563.0</ele><time>2026-04-29T11:13:30.644Z</time></trkpt><trkpt lat="43.6676683" lon="11.892458"><ele>570.0</ele><time>2026-04-29T11:13:31.623Z</time></trkpt><trkpt lat="43.6676698" lon="11.8925961"><ele>570.0</ele><time>2026-04-29T11:13:32.643Z</time></trkpt><trkpt lat="43.6677079" lon="11.8927031"><ele>570.0</ele><time>2026-04-29T11:13:33.65Z</time></trkpt><trkpt lat="43.6677741" lon="11.8927675"><ele>570.0</ele><time>2026-04-29T11:13:34.634Z</time></trkpt><trkpt lat="43.6678655" lon="11.8927926"><ele>570.0</ele><time>2026-04-29T11:13:35.639Z</time></trkpt><trkpt lat="43.6679449" lon="11.8927675"><ele>570.0</ele><time>2026-04-29T11:13:36.639Z</time></trkpt><trkpt lat="43.668059" lon="11.8927211"><ele>571.5</ele><time>2026-04-29T11:13:37.667Z</time></trkpt><trkpt lat="43.6681773" lon="11.8926445"><ele>573.0</ele><time>2026-04-29T11:13:38.646Z</time></trkpt><trkpt lat="43.6683189" lon="11.892605"><ele>574.5</ele><time>2026-04-29T11:13:39.638Z</time></trkpt><trkpt lat="43.6684684" lon="11.8925956"><ele>576.0</ele><time>2026-04-29T11:13:40.638Z</time></trkpt><trkpt lat="43.6686333" lon="11.8926005"><ele>579.6666666666666</ele><time>2026-04-29T11:13:41.636Z</time></trkpt><trkpt lat="43.6688077" lon="11.8926088"><ele>583.3333333333333</ele><time>2026-04-29T11:13:42.637Z</time></trkpt><trkpt lat="43.6689789" lon="11.8925998"><ele>587.0</ele><time>2026-04-29T11:13:43.634Z</time></trkpt><trkpt lat="43.6691474" lon="11.8925544"><ele>581.25</ele><time>2026-04-29T11:13:44.633Z</time></trkpt><trkpt lat="43.6692971" lon="11.892478"><ele>575.5</ele><time>2026-04-29T11:13:45.627Z</time></trkpt><trkpt lat="43.669441" lon="11.8924324"><ele>569.75</ele><time>2026-04-29T11:13:46.628Z</time></trkpt><trkpt lat="43.6695745" lon="11.8924295"><ele>564.0</ele><time>2026-04-29T11:13:47.624Z</time></trkpt><trkpt lat="43.6697175" lon="11.8924608"><ele>564.0</ele><time>2026-04-29T11:13:48.658Z</time></trkpt><trkpt lat="43.6698713" lon="11.8924987"><ele>564.0</ele><time>2026-04-29T11:13:49.629Z</time></trkpt><trkpt lat="43.6700426" lon="11.8925451"><ele>564.0</ele><time>2026-04-29T11:13:50.646Z</time></trkpt><trkpt lat="43.6702111" lon="11.89259"><ele>570.0</ele><time>2026-04-29T11:13:51.636Z</time></trkpt><trkpt lat="43.6703896" lon="11.8926207"><ele>576.0</ele><time>2026-04-29T11:13:52.635Z</time></trkpt><trkpt lat="43.6705705" lon="11.8926298"><ele>582.0</ele><time>2026-04-29T11:13:53.651Z</time></trkpt><trkpt lat="43.6707306" lon="11.8926431"><ele>582.0</ele><time>2026-04-29T11:13:54.624Z</time></trkpt><trkpt lat="43.6708811" lon="11.8926808"><ele>582.0</ele><time>2026-04-29T11:13:55.62Z</time></trkpt><trkpt lat="43.6710311" lon="11.8927352"><ele>582.0</ele><time>2026-04-29T11:13:56.627Z</time></trkpt><trkpt lat="43.6711756" lon="11.8927882"><ele>583.0</ele><time>2026-04-29T11:13:57.626Z</time></trkpt><trkpt lat="43.6713065" lon="11.8928373"><ele>584.0</ele><time>2026-04-29T11:13:58.622Z</time></trkpt><trkpt lat="43.6714315" lon="11.8929129"><ele>585.0</ele><time>2026-04-29T11:13:59.631Z</time></trkpt><trkpt lat="43.6715527" lon="11.8930028"><ele>586.0</ele><time>2026-04-29T11:14:00.629Z</time></trkpt><trkpt lat="43.671677" lon="11.8931032"><ele>586.0</ele><time>2026-04-29T11:14:01.629Z</time></trkpt><trkpt lat="43.6718197" lon="11.893193"><ele>586.0</ele><time>2026-04-29T11:14:02.622Z</time></trkpt><trkpt lat="43.6719657" lon="11.8932914"><ele>586.0</ele><time>2026-04-29T11:14:03.62Z</time></trkpt><trkpt lat="43.6721152" lon="11.8934203"><ele>593.3333333333334</ele><time>2026-04-29T11:14:04.639Z</time></trkpt><trkpt lat="43.6722603" lon="11.8935356"><ele>600.6666666666666</ele><time>2026-04-29T11:14:05.624Z</time></trkpt><trkpt lat="43.6723985" lon="11.8936349"><ele>608.0</ele><time>2026-04-29T11:14:06.647Z</time></trkpt><trkpt lat="43.672525" lon="11.8937188"><ele>608.0</ele><time>2026-04-29T11:14:07.638Z</time></trkpt><trkpt lat="43.6726642" lon="11.8937809"><ele>608.0</ele><time>2026-04-29T11:14:08.639Z</time></trkpt><trkpt lat="43.6728006" lon="11.8938581"><ele>608.0</ele><time>2026-04-29T11:14:09.634Z</time></trkpt><trkpt lat="43.6729489" lon="11.8939585"><ele>606.5</ele><time>2026-04-29T11:14:10.648Z</time></trkpt><trkpt lat="43.6730853" lon="11.8940822"><ele>605.0</ele><time>2026-04-29T11:14:11.637Z</time></trkpt><trkpt lat="43.6732056" lon="11.8942108"><ele>603.5</ele><time>2026-04-29T11:14:12.639Z</time></trkpt><trkpt lat="43.673273" lon="11.8943608"><ele>602.0</ele><time>2026-04-29T11:14:13.635Z</time></trkpt><trkpt lat="43.6733327" lon="11.8945045"><ele>602.0</ele><time>2026-04-29T11:14:14.641Z</time></trkpt><trkpt lat="43.6733513" lon="11.894649"><ele>602.0</ele><time>2026-04-29T11:14:15.644Z</time></trkpt><trkpt lat="43.6733699" lon="11.8947992"><ele>602.0</ele><time>2026-04-29T11:14:16.656Z</time></trkpt><trkpt lat="43.6733982" lon="11.8949624"><ele>602.0</ele><time>2026-04-29T11:14:17.642Z</time></trkpt><trkpt lat="43.6734429" lon="11.8951253"><ele>601.5</ele><time>2026-04-29T11:14:18.639Z</time></trkpt><trkpt lat="43.6735047" lon="11.8952809"><ele>601.0</ele><time>2026-04-29T11:14:19.627Z</time></trkpt><trkpt lat="43.6735915" lon="11.8954124"><ele>600.5</ele><time>2026-04-29T11:14:20.636Z</time></trkpt><trkpt lat="43.673695" lon="11.8955237"><ele>600.0</ele><time>2026-04-29T11:14:21.641Z</time></trkpt><trkpt lat="43.6738329" lon="11.8955767"><ele>600.0</ele><time>2026-04-29T11:14:22.629Z</time></trkpt><trkpt lat="43.6739499" lon="11.8956314"><ele>600.0</ele><time>2026-04-29T11:14:23.645Z</time></trkpt><trkpt lat="43.6740296" lon="11.8957127"><ele>600.0</ele><time>2026-04-29T11:14:24.639Z</time></trkpt><trkpt lat="43.6740377" lon="11.8958436"><ele>600.0</ele><time>2026-04-29T11:14:26.633Z</time></trkpt><trkpt lat="43.6739238" lon="11.8958726"><ele>600.0</ele><time>2026-04-29T11:14:28.655Z</time></trkpt><trkpt lat="43.6738449" lon="11.8958434"><ele>600.0</ele><time>2026-04-29T11:14:29.638Z</time></trkpt><trkpt lat="43.6737471" lon="11.8958137"><ele>600.0</ele><time>2026-04-29T11:14:30.64Z</time></trkpt><trkpt lat="43.6736383" lon="11.8957732"><ele>600.0</ele><time>2026-04-29T11:14:31.635Z</time></trkpt><trkpt lat="43.673521" lon="11.8956901"><ele>600.0</ele><time>2026-04-29T11:14:32.657Z</time></trkpt><trkpt lat="43.6734111" lon="11.8955647"><ele>600.6666666666666</ele><time>2026-04-29T11:14:33.651Z</time></trkpt><trkpt lat="43.6733159" lon="11.8953974"><ele>601.3333333333333</ele><time>2026-04-29T11:14:34.643Z</time></trkpt><trkpt lat="43.6732379" lon="11.8952143"><ele>602.0</ele><time>2026-04-29T11:14:35.619Z</time></trkpt><trkpt lat="43.6731656" lon="11.895039"><ele>602.0</ele><time>2026-04-29T11:14:36.643Z</time></trkpt><trkpt lat="43.6730941" lon="11.8948986"><ele>602.0</ele><time>2026-04-29T11:14:37.627Z</time></trkpt><trkpt lat="43.6730044" lon="11.8947676"><ele>602.0</ele><time>2026-04-29T11:14:38.625Z</time></trkpt><trkpt lat="43.672909" lon="11.894652"><ele>602.0</ele><time>2026-04-29T11:14:39.63Z</time></trkpt><trkpt lat="43.6727942" lon="11.8945309"><ele>610.0</ele><time>2026-04-29T11:14:40.64Z</time></trkpt><trkpt lat="43.6726724" lon="11.8944245"><ele>618.0</ele><time>2026-04-29T11:14:41.664Z</time></trkpt><trkpt lat="43.6725467" lon="11.8943542"><ele>626.0</ele><time>2026-04-29T11:14:42.636Z</time></trkpt><trkpt lat="43.6723977" lon="11.894312"><ele>634.0</ele><time>2026-04-29T11:14:43.65Z</time></trkpt><trkpt lat="43.6722383" lon="11.8942985"><ele>634.0</ele><time>2026-04-29T11:14:44.62Z</time></trkpt><trkpt lat="43.6720617" lon="11.8942945"><ele>634.0</ele><time>2026-04-29T11:14:45.639Z</time></trkpt><trkpt lat="43.6718924" lon="11.894299"><ele>634.0</ele><time>2026-04-29T11:14:46.623Z</time></trkpt><trkpt lat="43.6717345" lon="11.8943322"><ele>634.5</ele><time>2026-04-29T11:14:47.646Z</time></trkpt><trkpt lat="43.671607" lon="11.8943961"><ele>635.0</ele><time>2026-04-29T11:14:48.629Z</time></trkpt><trkpt lat="43.6714878" lon="11.8944787"><ele>635.5</ele><time>2026-04-29T11:14:49.636Z</time></trkpt><trkpt lat="43.6713717" lon="11.894543"><ele>636.0</ele><time>2026-04-29T11:14:50.629Z</time></trkpt><trkpt lat="43.6712462" lon="11.8945673"><ele>636.0</ele><time>2026-04-29T11:14:51.638Z</time></trkpt><trkpt lat="43.6711085" lon="11.8945388"><ele>636.0</ele><time>2026-04-29T11:14:52.636Z</time></trkpt><trkpt lat="43.6709629" lon="11.8945158"><ele>636.0</ele><time>2026-04-29T11:14:53.657Z</time></trkpt><trkpt lat="43.670839" lon="11.8945189"><ele>636.0</ele><time>2026-04-29T11:14:54.653Z</time></trkpt><trkpt lat="43.6707273" lon="11.8945519"><ele>634.5</ele><time>2026-04-29T11:14:55.647Z</time></trkpt><trkpt lat="43.6706567" lon="11.8946341"><ele>633.0</ele><time>2026-04-29T11:14:56.651Z</time></trkpt><trkpt lat="43.6705896" lon="11.894762"><ele>631.5</ele><time>2026-04-29T11:14:57.643Z</time></trkpt><trkpt lat="43.6705189" lon="11.8949295"><ele>630.0</ele><time>2026-04-29T11:14:58.66Z</time></trkpt><trkpt lat="43.6704433" lon="11.8951056"><ele>630.0</ele><time>2026-04-29T11:14:59.628Z</time></trkpt><trkpt lat="43.6703582" lon="11.8953004"><ele>630.0</ele><time>2026-04-29T11:15:00.648Z</time></trkpt><trkpt lat="43.670272" lon="11.8955011"><ele>630.0</ele><time>2026-04-29T11:15:01.639Z</time></trkpt><trkpt lat="43.6701848" lon="11.8957062"><ele>630.0</ele><time>2026-04-29T11:15:02.637Z</time></trkpt><trkpt lat="43.6701037" lon="11.8959152"><ele>630.0</ele><time>2026-04-29T11:15:03.644Z</time></trkpt><trkpt lat="43.6700347" lon="11.8961217"><ele>630.0</ele><time>2026-04-29T11:15:04.656Z</time></trkpt><trkpt lat="43.669984" lon="11.8963093"><ele>632.6</ele><time>2026-04-29T11:15:05.648Z</time></trkpt><trkpt lat="43.6699265" lon="11.8964622"><ele>635.2</ele><time>2026-04-29T11:15:06.633Z</time></trkpt><trkpt lat="43.6698544" lon="11.8965782"><ele>637.8</ele><time>2026-04-29T11:15:07.643Z</time></trkpt><trkpt lat="43.6697733" lon="11.8966424"><ele>640.4</ele><time>2026-04-29T11:15:08.636Z</time></trkpt><trkpt lat="43.6696683" lon="11.8966624"><ele>643.0</ele><time>2026-04-29T11:15:09.62Z</time></trkpt><trkpt lat="43.6695268" lon="11.8966535"><ele>643.6666666666667</ele><time>2026-04-29T11:15:10.638Z</time></trkpt><trkpt lat="43.6693757" lon="11.8966519"><ele>644.3333333333334</ele><time>2026-04-29T11:15:11.634Z</time></trkpt><trkpt lat="43.6692095" lon="11.8966602"><ele>645.0</ele><time>2026-04-29T11:15:12.634Z</time></trkpt><trkpt lat="43.6690393" lon="11.8966686"><ele>645.0</ele><time>2026-04-29T11:15:13.63Z</time></trkpt><trkpt lat="43.6688694" lon="11.8966515"><ele>645.0</ele><time>2026-04-29T11:15:14.626Z</time></trkpt><trkpt lat="43.6686916" lon="11.8965652"><ele>645.0</ele><time>2026-04-29T11:15:15.628Z</time></trkpt><trkpt lat="43.6685331" lon="11.8965012"><ele>646.0</ele><time>2026-04-29T11:15:16.621Z</time></trkpt><trkpt lat="43.6683982" lon="11.8964682"><ele>647.0</ele><time>2026-04-29T11:15:17.62Z</time></trkpt><trkpt lat="43.6682953" lon="11.8964734"><ele>648.0</ele><time>2026-04-29T11:15:18.633Z</time></trkpt><trkpt lat="43.6682176" lon="11.8965231"><ele>649.0</ele><time>2026-04-29T11:15:19.64Z</time></trkpt><trkpt lat="43.6681505" lon="11.8965991"><ele>650.0</ele><time>2026-04-29T11:15:20.647Z</time></trkpt><trkpt lat="43.6681179" lon="11.8967022"><ele>653.8</ele><time>2026-04-29T11:15:21.596Z</time></trkpt><trkpt lat="43.6681428" lon="11.8967997"><ele>657.6</ele><time>2026-04-29T11:15:22.583Z</time></trkpt><trkpt lat="43.668197" lon="11.8968683"><ele>661.4000000000001</ele><time>2026-04-29T11:15:23.574Z</time></trkpt><trkpt lat="43.6682834" lon="11.8969105"><ele>665.2</ele><time>2026-04-29T11:15:24.593Z</time></trkpt><trkpt lat="43.6683683" lon="11.8969281"><ele>669.0</ele><time>2026-04-29T11:15:25.574Z</time></trkpt><trkpt lat="43.6685154" lon="11.8969108"><ele>668.3333333333334</ele><time>2026-04-29T11:15:26.599Z</time></trkpt><trkpt lat="43.6686833" lon="11.8968947"><ele>667.6666666666667</ele><time>2026-04-29T11:15:27.577Z</time></trkpt><trkpt lat="43.6688315" lon="11.8969443"><ele>667.0</ele><time>2026-04-29T11:15:28.589Z</time></trkpt><trkpt lat="43.6689707" lon="11.8970306"><ele>667.0</ele><time>2026-04-29T11:15:29.58Z</time></trkpt><trkpt lat="43.669126" lon="11.8971469"><ele>667.0</ele><time>2026-04-29T11:15:30.601Z</time></trkpt><trkpt lat="43.6692958" lon="11.8972748"><ele>667.0</ele><time>2026-04-29T11:15:31.591Z</time></trkpt><trkpt lat="43.6694496" lon="11.897367"><ele>664.5</ele><time>2026-04-29T11:15:32.582Z</time></trkpt><trkpt lat="43.6696551" lon="11.8973891"><ele>662.0</ele><time>2026-04-29T11:15:33.944Z</time></trkpt><trkpt lat="43.6700308" lon="11.8975331"><ele>668.6666666666666</ele><time>2026-04-29T11:15:35.644Z</time></trkpt><trkpt lat="43.6702219" lon="11.8976243"><ele>675.3333333333334</ele><time>2026-04-29T11:15:36.639Z</time></trkpt><trkpt lat="43.6704255" lon="11.8977171"><ele>682.0</ele><time>2026-04-29T11:15:37.645Z</time></trkpt><trkpt lat="43.6706361" lon="11.8977971"><ele>682.0</ele><time>2026-04-29T11:15:38.646Z</time></trkpt><trkpt lat="43.6708354" lon="11.8978427"><ele>682.0</ele><time>2026-04-29T11:15:39.634Z</time></trkpt><trkpt lat="43.6710084" lon="11.8978739"><ele>682.0</ele><time>2026-04-29T11:15:40.643Z</time></trkpt><trkpt lat="43.6711431" lon="11.8979053"><ele>681.5</ele><time>2026-04-29T11:15:41.638Z</time></trkpt><trkpt lat="43.6712482" lon="11.8979667"><ele>681.0</ele><time>2026-04-29T11:15:42.641Z</time></trkpt><trkpt lat="43.6713308" lon="11.8980773"><ele>680.5</ele><time>2026-04-29T11:15:43.66Z</time></trkpt><trkpt lat="43.6713921" lon="11.8982292"><ele>680.0</ele><time>2026-04-29T11:15:44.639Z</time></trkpt><trkpt lat="43.6714475" lon="11.8984004"><ele>683.25</ele><time>2026-04-29T11:15:45.641Z</time></trkpt><trkpt lat="43.6715227" lon="11.898524"><ele>686.5</ele><time>2026-04-29T11:15:46.657Z</time></trkpt><trkpt lat="43.6716253" lon="11.8986067"><ele>689.75</ele><time>2026-04-29T11:15:47.635Z</time></trkpt><trkpt lat="43.6717623" lon="11.8986773"><ele>693.0</ele><time>2026-04-29T11:15:48.653Z</time></trkpt><trkpt lat="43.6719102" lon="11.8987353"><ele>691.6666666666666</ele><time>2026-04-29T11:15:49.637Z</time></trkpt><trkpt lat="43.6720504" lon="11.8988063"><ele>690.3333333333333</ele><time>2026-04-29T11:15:50.645Z</time></trkpt><trkpt lat="43.6721781" lon="11.8989016"><ele>689.0</ele><time>2026-04-29T11:15:51.658Z</time></trkpt><trkpt lat="43.6723028" lon="11.8990608"><ele>689.0</ele><time>2026-04-29T11:15:52.65Z</time></trkpt><trkpt lat="43.6724391" lon="11.8992309"><ele>689.0</ele><time>2026-04-29T11:15:53.645Z</time></trkpt><trkpt lat="43.672583" lon="11.8994204"><ele>689.0</ele><time>2026-04-29T11:15:54.634Z</time></trkpt><trkpt lat="43.6727273" lon="11.8996109"><ele>691.3333333333333</ele><time>2026-04-29T11:15:55.59Z</time></trkpt><trkpt lat="43.6728872" lon="11.8998245"><ele>693.6666666666666</ele><time>2026-04-29T11:15:56.59Z</time></trkpt><trkpt lat="43.6730464" lon="11.9000357"><ele>696.0</ele><time>2026-04-29T11:15:57.596Z</time></trkpt><trkpt lat="43.6731823" lon="11.9002096"><ele>698.25</ele><time>2026-04-29T11:15:58.584Z</time></trkpt><trkpt lat="43.6733076" lon="11.9003628"><ele>700.5</ele><time>2026-04-29T11:15:59.59Z</time></trkpt><trkpt lat="43.673433" lon="11.9004919"><ele>702.75</ele><time>2026-04-29T11:16:00.592Z</time></trkpt><trkpt lat="43.673549" lon="11.9005195"><ele>705.0</ele><time>2026-04-29T11:16:01.593Z</time></trkpt><trkpt lat="43.6736811" lon="11.9004499"><ele>705.0</ele><time>2026-04-29T11:16:02.569Z</time></trkpt><trkpt lat="43.6738718" lon="11.9003904"><ele>705.0</ele><time>2026-04-29T11:16:03.577Z</time></trkpt><trkpt lat="43.6740475" lon="11.9003601"><ele>705.0</ele><time>2026-04-29T11:16:04.592Z</time></trkpt><trkpt lat="43.6741835" lon="11.9004144"><ele>705.0</ele><time>2026-04-29T11:16:05.603Z</time></trkpt><trkpt lat="43.6742656" lon="11.9005087"><ele>705.0</ele><time>2026-04-29T11:16:06.611Z</time></trkpt><trkpt lat="43.674323" lon="11.9006539"><ele>705.0</ele><time>2026-04-29T11:16:07.588Z</time></trkpt><trkpt lat="43.6743655" lon="11.9008467"><ele>705.0</ele><time>2026-04-29T11:16:08.569Z</time></trkpt><trkpt lat="43.6744277" lon="11.9010865"><ele>704.3333333333334</ele><time>2026-04-29T11:16:09.59Z</time></trkpt><trkpt lat="43.6745032" lon="11.901311"><ele>703.6666666666667</ele><time>2026-04-29T11:16:10.581Z</time></trkpt><trkpt lat="43.6745852" lon="11.9014941"><ele>703.0</ele><time>2026-04-29T11:16:11.596Z</time></trkpt><trkpt lat="43.6747035" lon="11.901606"><ele>703.0</ele><time>2026-04-29T11:16:12.596Z</time></trkpt><trkpt lat="43.6748458" lon="11.9016559"><ele>703.0</ele><time>2026-04-29T11:16:13.582Z</time></trkpt><trkpt lat="43.6751169" lon="11.9017308"><ele>703.0</ele><time>2026-04-29T11:16:14.942Z</time></trkpt><trkpt lat="43.6753449" lon="11.9018916"><ele>701.75</ele><time>2026-04-29T11:16:16.637Z</time></trkpt><trkpt lat="43.675467" lon="11.9019975"><ele>700.5</ele><time>2026-04-29T11:16:17.631Z</time></trkpt><trkpt lat="43.6755568" lon="11.9021165"><ele>699.25</ele><time>2026-04-29T11:16:18.642Z</time></trkpt><trkpt lat="43.6756146" lon="11.9022697"><ele>698.0</ele><time>2026-04-29T11:16:19.648Z</time></trkpt><trkpt lat="43.6756592" lon="11.9024691"><ele>702.0</ele><time>2026-04-29T11:16:20.644Z</time></trkpt><trkpt lat="43.6756966" lon="11.9027124"><ele>706.0</ele><time>2026-04-29T11:16:21.652Z</time></trkpt><trkpt lat="43.6757245" lon="11.9029706"><ele>710.0</ele><time>2026-04-29T11:16:22.648Z</time></trkpt><trkpt lat="43.6757484" lon="11.903208"><ele>710.0</ele><time>2026-04-29T11:16:23.649Z</time></trkpt><trkpt lat="43.6757759" lon="11.9034027"><ele>710.0</ele><time>2026-04-29T11:16:24.65Z</time></trkpt><trkpt lat="43.675825" lon="11.9035506"><ele>710.0</ele><time>2026-04-29T11:16:25.646Z</time></trkpt><trkpt lat="43.6758836" lon="11.903649"><ele>710.0</ele><time>2026-04-29T11:16:26.574Z</time></trkpt><trkpt lat="43.6759781" lon="11.9037065"><ele>712.3333333333333</ele><time>2026-04-29T11:16:27.606Z</time></trkpt><trkpt lat="43.6761125" lon="11.9037108"><ele>714.6666666666666</ele><time>2026-04-29T11:16:28.596Z</time></trkpt><trkpt lat="43.6762628" lon="11.9036118"><ele>717.0</ele><time>2026-04-29T11:16:29.933Z</time></trkpt><trkpt lat="43.676427" lon="11.9034074"><ele>717.0</ele><time>2026-04-29T11:16:31.645Z</time></trkpt><trkpt lat="43.6765548" lon="11.9033653"><ele>717.0</ele><time>2026-04-29T11:16:32.624Z</time></trkpt><trkpt lat="43.6767057" lon="11.9033979"><ele>717.0</ele><time>2026-04-29T11:16:33.646Z</time></trkpt><trkpt lat="43.6768426" lon="11.903427"><ele>717.0</ele><time>2026-04-29T11:16:34.653Z</time></trkpt><trkpt lat="43.6769613" lon="11.9034969"><ele>713.75</ele><time>2026-04-29T11:16:35.643Z</time></trkpt><trkpt lat="43.6770437" lon="11.9036085"><ele>710.5</ele><time>2026-04-29T11:16:36.651Z</time></trkpt><trkpt lat="43.6770883" lon="11.9037526"><ele>707.25</ele><time>2026-04-29T11:16:37.642Z</time></trkpt><trkpt lat="43.6770951" lon="11.903943"><ele>704.0</ele><time>2026-04-29T11:16:38.666Z</time></trkpt><trkpt lat="43.6771001" lon="11.9041147"><ele>706.5</ele><time>2026-04-29T11:16:39.629Z</time></trkpt><trkpt lat="43.6771419" lon="11.9042782"><ele>709.0</ele><time>2026-04-29T11:16:40.669Z</time></trkpt><trkpt lat="43.6772179" lon="11.9044059"><ele>711.5</ele><time>2026-04-29T11:16:41.635Z</time></trkpt><trkpt lat="43.6773202" lon="11.9045311"><ele>714.0</ele><time>2026-04-29T11:16:42.633Z</time></trkpt><trkpt lat="43.6774158" lon="11.904682"><ele>714.0</ele><time>2026-04-29T11:16:43.624Z</time></trkpt><trkpt lat="43.6774854" lon="11.904838"><ele>714.0</ele><time>2026-04-29T11:16:44.652Z</time></trkpt><trkpt lat="43.6775475" lon="11.904936"><ele>714.0</ele><time>2026-04-29T11:16:45.634Z</time></trkpt><trkpt lat="43.6776199" lon="11.9049596"><ele>714.0</ele><time>2026-04-29T11:16:46.655Z</time></trkpt><trkpt lat="43.6776792" lon="11.9049067"><ele>714.0</ele><time>2026-04-29T11:16:47.67Z</time></trkpt><trkpt lat="43.6777231" lon="11.9047962"><ele>714.0</ele><time>2026-04-29T11:16:48.639Z</time></trkpt><trkpt lat="43.6777522" lon="11.904623"><ele>714.0</ele><time>2026-04-29T11:16:49.643Z</time></trkpt><trkpt lat="43.6777683" lon="11.9044111"><ele>714.0</ele><time>2026-04-29T11:16:50.621Z</time></trkpt><trkpt lat="43.677802" lon="11.9042152"><ele>714.0</ele><time>2026-04-29T11:16:51.642Z</time></trkpt><trkpt lat="43.6778555" lon="11.9040526"><ele>713.0</ele><time>2026-04-29T11:16:52.649Z</time></trkpt><trkpt lat="43.6779274" lon="11.9039372"><ele>712.0</ele><time>2026-04-29T11:16:53.666Z</time></trkpt><trkpt lat="43.6780055" lon="11.9038841"><ele>711.0</ele><time>2026-04-29T11:16:54.63Z</time></trkpt><trkpt lat="43.6781331" lon="11.9038784"><ele>710.0</ele><time>2026-04-29T11:16:55.628Z</time></trkpt><trkpt lat="43.6782823" lon="11.9039085"><ele>710.0</ele><time>2026-04-29T11:16:56.638Z</time></trkpt><trkpt lat="43.6784469" lon="11.9039851"><ele>710.0</ele><time>2026-04-29T11:16:57.669Z</time></trkpt><trkpt lat="43.6785837" lon="11.9040757"><ele>710.0</ele><time>2026-04-29T11:16:58.64Z</time></trkpt><trkpt lat="43.6787065" lon="11.9041881"><ele>711.25</ele><time>2026-04-29T11:16:59.648Z</time></trkpt><trkpt lat="43.6788067" lon="11.9043237"><ele>712.5</ele><time>2026-04-29T11:17:00.645Z</time></trkpt><trkpt lat="43.6788825" lon="11.9044864"><ele>713.75</ele><time>2026-04-29T11:17:01.624Z</time></trkpt><trkpt lat="43.67895" lon="11.9046668"><ele>715.0</ele><time>2026-04-29T11:17:02.639Z</time></trkpt><trkpt lat="43.6790134" lon="11.90483"><ele>715.0</ele><time>2026-04-29T11:17:03.631Z</time></trkpt><trkpt lat="43.6790879" lon="11.9049668"><ele>715.0</ele><time>2026-04-29T11:17:04.662Z</time></trkpt><trkpt lat="43.679168" lon="11.9050766"><ele>715.0</ele><time>2026-04-29T11:17:05.642Z</time></trkpt><trkpt lat="43.6792502" lon="11.905173"><ele>715.0</ele><time>2026-04-29T11:17:06.643Z</time></trkpt><trkpt lat="43.6793182" lon="11.9052753"><ele>715.0</ele><time>2026-04-29T11:17:07.634Z</time></trkpt><trkpt lat="43.6793569" lon="11.9053929"><ele>716.0</ele><time>2026-04-29T11:17:08.651Z</time></trkpt><trkpt lat="43.679375" lon="11.9055152"><ele>717.0</ele><time>2026-04-29T11:17:09.663Z</time></trkpt><trkpt lat="43.679381" lon="11.9056491"><ele>718.0</ele><time>2026-04-29T11:17:10.649Z</time></trkpt><trkpt lat="43.6793814" lon="11.905781"><ele>719.0</ele><time>2026-04-29T11:17:11.644Z</time></trkpt><trkpt lat="43.6793855" lon="11.9059016"><ele>720.0</ele><time>2026-04-29T11:17:12.657Z</time></trkpt><trkpt lat="43.6793946" lon="11.9060091"><ele>721.0</ele><time>2026-04-29T11:17:13.632Z</time></trkpt><trkpt lat="43.6794218" lon="11.9061114"><ele>720.6666666666667</ele><time>2026-04-29T11:17:14.654Z</time></trkpt><trkpt lat="43.6794763" lon="11.9061824"><ele>720.3333333333334</ele><time>2026-04-29T11:17:15.646Z</time></trkpt><trkpt lat="43.6795514" lon="11.906209"><ele>720.0</ele><time>2026-04-29T11:17:16.629Z</time></trkpt><trkpt lat="43.6796329" lon="11.9061915"><ele>719.6666666666666</ele><time>2026-04-29T11:17:17.641Z</time></trkpt><trkpt lat="43.6797082" lon="11.9061494"><ele>719.3333333333333</ele><time>2026-04-29T11:17:18.649Z</time></trkpt><trkpt lat="43.6797761" lon="11.9061109"><ele>719.0</ele><time>2026-04-29T11:17:19.626Z</time></trkpt><trkpt lat="43.6798467" lon="11.9060735"><ele>719.0</ele><time>2026-04-29T11:17:20.632Z</time></trkpt><trkpt lat="43.6799237" lon="11.9060529"><ele>719.0</ele><time>2026-04-29T11:17:21.65Z</time></trkpt><trkpt lat="43.679994" lon="11.9060478"><ele>719.0</ele><time>2026-04-29T11:17:22.63Z</time></trkpt><trkpt lat="43.680068" lon="11.9060743"><ele>719.0</ele><time>2026-04-29T11:17:23.641Z</time></trkpt><trkpt lat="43.6801396" lon="11.9061239"><ele>719.0</ele><time>2026-04-29T11:17:24.643Z</time></trkpt><trkpt lat="43.6802006" lon="11.9061893"><ele>719.0</ele><time>2026-04-29T11:17:25.631Z</time></trkpt><trkpt lat="43.680256" lon="11.9062792"><ele>714.8333333333333</ele><time>2026-04-29T11:17:26.647Z</time></trkpt><trkpt lat="43.6802931" lon="11.9063958"><ele>710.6666666666666</ele><time>2026-04-29T11:17:27.692Z</time></trkpt><trkpt lat="43.6803079" lon="11.9065151"><ele>706.5</ele><time>2026-04-29T11:17:28.638Z</time></trkpt><trkpt lat="43.6803089" lon="11.9066414"><ele>702.3333333333334</ele><time>2026-04-29T11:17:29.656Z</time></trkpt><trkpt lat="43.6803035" lon="11.9067593"><ele>698.1666666666667</ele><time>2026-04-29T11:17:30.639Z</time></trkpt><trkpt lat="43.6802943" lon="11.9068825"><ele>694.0</ele><time>2026-04-29T11:17:31.647Z</time></trkpt><trkpt lat="43.6802764" lon="11.907012"><ele>700.4000000000001</ele><time>2026-04-29T11:17:32.647Z</time></trkpt><trkpt lat="43.6802476" lon="11.9071477"><ele>706.8</ele><time>2026-04-29T11:17:33.643Z</time></trkpt><trkpt lat="43.6802142" lon="11.90728"><ele>713.2</ele><time>2026-04-29T11:17:34.64Z</time></trkpt><trkpt lat="43.6801765" lon="11.9073968"><ele>719.5999999999999</ele><time>2026-04-29T11:17:35.644Z</time></trkpt><trkpt lat="43.6801424" lon="11.9075081"><ele>726.0</ele><time>2026-04-29T11:17:36.653Z</time></trkpt><trkpt lat="43.6801106" lon="11.9076224"><ele>726.3333333333334</ele><time>2026-04-29T11:17:37.646Z</time></trkpt><trkpt lat="43.6800839" lon="11.9077316"><ele>726.6666666666666</ele><time>2026-04-29T11:17:38.637Z</time></trkpt><trkpt lat="43.6800681" lon="11.9078396"><ele>727.0</ele><time>2026-04-29T11:17:39.646Z</time></trkpt><trkpt lat="43.680059" lon="11.9079513"><ele>727.3333333333333</ele><time>2026-04-29T11:17:40.667Z</time></trkpt><trkpt lat="43.6800762" lon="11.9080543"><ele>727.6666666666666</ele><time>2026-04-29T11:17:41.645Z</time></trkpt><trkpt lat="43.6801205" lon="11.9081566"><ele>728.0</ele><time>2026-04-29T11:17:42.665Z</time></trkpt><trkpt lat="43.6801905" lon="11.9082364"><ele>725.0</ele><time>2026-04-29T11:17:43.637Z</time></trkpt><trkpt lat="43.6802755" lon="11.9083048"><ele>722.0</ele><time>2026-04-29T11:17:44.643Z</time></trkpt><trkpt lat="43.6803652" lon="11.9083853"><ele>719.0</ele><time>2026-04-29T11:17:45.648Z</time></trkpt><trkpt lat="43.6804546" lon="11.9084868"><ele>716.0</ele><time>2026-04-29T11:17:46.648Z</time></trkpt><trkpt lat="43.6805412" lon="11.9086265"><ele>716.0</ele><time>2026-04-29T11:17:47.643Z</time></trkpt><trkpt lat="43.680629" lon="11.9087979"><ele>716.0</ele><time>2026-04-29T11:17:48.668Z</time></trkpt><trkpt lat="43.6807101" lon="11.908947"><ele>716.0</ele><time>2026-04-29T11:17:49.638Z</time></trkpt><trkpt lat="43.6807849" lon="11.9090775"><ele>716.0</ele><time>2026-04-29T11:17:50.656Z</time></trkpt><trkpt lat="43.6808638" lon="11.9091956"><ele>713.75</ele><time>2026-04-29T11:17:51.636Z</time></trkpt><trkpt lat="43.6809733" lon="11.9093579"><ele>711.5</ele><time>2026-04-29T11:17:52.641Z</time></trkpt><trkpt lat="43.6810795" lon="11.9095075"><ele>709.25</ele><time>2026-04-29T11:17:53.644Z</time></trkpt><trkpt lat="43.6811764" lon="11.9096242"><ele>707.0</ele><time>2026-04-29T11:17:54.642Z</time></trkpt><trkpt lat="43.6813164" lon="11.9097551"><ele>707.0</ele><time>2026-04-29T11:17:55.642Z</time></trkpt><trkpt lat="43.6814563" lon="11.9098638"><ele>707.0</ele><time>2026-04-29T11:17:56.643Z</time></trkpt><trkpt lat="43.6815652" lon="11.909965"><ele>707.0</ele><time>2026-04-29T11:17:57.643Z</time></trkpt><trkpt lat="43.6816401" lon="11.9100909"><ele>707.0</ele><time>2026-04-29T11:17:58.66Z</time></trkpt><trkpt lat="43.6816674" lon="11.9102517"><ele>708.75</ele><time>2026-04-29T11:17:59.636Z</time></trkpt><trkpt lat="43.6816683" lon="11.9104233"><ele>710.5</ele><time>2026-04-29T11:18:00.648Z</time></trkpt><trkpt lat="43.6816484" lon="11.9105985"><ele>712.25</ele><time>2026-04-29T11:18:01.651Z</time></trkpt><trkpt lat="43.6816072" lon="11.9107679"><ele>714.0</ele><time>2026-04-29T11:18:02.648Z</time></trkpt><trkpt lat="43.6815544" lon="11.9109163"><ele>714.6</ele><time>2026-04-29T11:18:03.64Z</time></trkpt><trkpt lat="43.6815075" lon="11.9110678"><ele>715.2</ele><time>2026-04-29T11:18:04.639Z</time></trkpt><trkpt lat="43.681471" lon="11.9112094"><ele>715.8000000000001</ele><time>2026-04-29T11:18:05.641Z</time></trkpt><trkpt lat="43.6814632" lon="11.911352"><ele>716.4000000000001</ele><time>2026-04-29T11:18:06.637Z</time></trkpt><trkpt lat="43.6814978" lon="11.9115052"><ele>717.0</ele><time>2026-04-29T11:18:07.64Z</time></trkpt><trkpt lat="43.6815705" lon="11.9116717"><ele>718.6666666666666</ele><time>2026-04-29T11:18:08.633Z</time></trkpt><trkpt lat="43.6816683" lon="11.9118763"><ele>720.3333333333333</ele><time>2026-04-29T11:18:09.629Z</time></trkpt><trkpt lat="43.6817763" lon="11.9121141"><ele>722.0</ele><time>2026-04-29T11:18:10.587Z</time></trkpt><trkpt lat="43.6818874" lon="11.912397"><ele>720.0</ele><time>2026-04-29T11:18:11.592Z</time></trkpt><trkpt lat="43.6820044" lon="11.9127038"><ele>718.0</ele><time>2026-04-29T11:18:12.584Z</time></trkpt><trkpt lat="43.6821728" lon="11.9131203"><ele>718.0</ele><time>2026-04-29T11:18:13.935Z</time></trkpt><trkpt lat="43.6824157" lon="11.9133733"><ele>718.0</ele><time>2026-04-29T11:18:15.654Z</time></trkpt><trkpt lat="43.6825111" lon="11.9135313"><ele>719.75</ele><time>2026-04-29T11:18:16.643Z</time></trkpt><trkpt lat="43.6825648" lon="11.913707"><ele>721.5</ele><time>2026-04-29T11:18:17.641Z</time></trkpt><trkpt lat="43.6825742" lon="11.9138804"><ele>723.25</ele><time>2026-04-29T11:18:18.629Z</time></trkpt><trkpt lat="43.6825421" lon="11.9140758"><ele>725.0</ele><time>2026-04-29T11:18:19.625Z</time></trkpt><trkpt lat="43.6824773" lon="11.9143014"><ele>725.3333333333333</ele><time>2026-04-29T11:18:20.637Z</time></trkpt><trkpt lat="43.6824256" lon="11.914516"><ele>725.6666666666666</ele><time>2026-04-29T11:18:21.648Z</time></trkpt><trkpt lat="43.6824217" lon="11.9147207"><ele>726.0</ele><time>2026-04-29T11:18:22.646Z</time></trkpt><trkpt lat="43.6824525" lon="11.9149212"><ele>725.6666666666666</ele><time>2026-04-29T11:18:23.641Z</time></trkpt><trkpt lat="43.6824719" lon="11.9151129"><ele>725.3333333333333</ele><time>2026-04-29T11:18:24.634Z</time></trkpt><trkpt lat="43.6824609" lon="11.915317"><ele>725.0</ele><time>2026-04-29T11:18:25.659Z</time></trkpt><trkpt lat="43.6824181" lon="11.915545"><ele>725.0</ele><time>2026-04-29T11:18:26.645Z</time></trkpt><trkpt lat="43.6823841" lon="11.9157989"><ele>725.0</ele><time>2026-04-29T11:18:27.643Z</time></trkpt><trkpt lat="43.6823786" lon="11.9160745"><ele>725.0</ele><time>2026-04-29T11:18:28.642Z</time></trkpt><trkpt lat="43.6823965" lon="11.9163775"><ele>726.0</ele><time>2026-04-29T11:18:29.656Z</time></trkpt><trkpt lat="43.682436" lon="11.9166776"><ele>727.0</ele><time>2026-04-29T11:18:30.632Z</time></trkpt><trkpt lat="43.6824824" lon="11.9169881"><ele>728.3333333333334</ele><time>2026-04-29T11:18:31.646Z</time></trkpt><trkpt lat="43.6825272" lon="11.9172674"><ele>729.6666666666666</ele><time>2026-04-29T11:18:32.678Z</time></trkpt><trkpt lat="43.6825608" lon="11.9174844"><ele>731.0</ele><time>2026-04-29T11:18:33.635Z</time></trkpt><trkpt lat="43.6825773" lon="11.9176882"><ele>731.0</ele><time>2026-04-29T11:18:34.648Z</time></trkpt><trkpt lat="43.6825542" lon="11.917858"><ele>731.0</ele><time>2026-04-29T11:18:35.64Z</time></trkpt><trkpt lat="43.6824902" lon="11.9180014"><ele>731.0</ele><time>2026-04-29T11:18:36.644Z</time></trkpt><trkpt lat="43.6823968" lon="11.9181375"><ele>731.0</ele><time>2026-04-29T11:18:37.632Z</time></trkpt><trkpt lat="43.682302" lon="11.9182971"><ele>732.5999999999999</ele><time>2026-04-29T11:18:38.652Z</time></trkpt><trkpt lat="43.682236" lon="11.9184561"><ele>734.2</ele><time>2026-04-29T11:18:39.649Z</time></trkpt><trkpt lat="43.6821927" lon="11.9185925"><ele>735.8</ele><time>2026-04-29T11:18:40.637Z</time></trkpt><trkpt lat="43.6821782" lon="11.9187152"><ele>737.4000000000001</ele><time>2026-04-29T11:18:41.631Z</time></trkpt><trkpt lat="43.6822051" lon="11.9188309"><ele>739.0</ele><time>2026-04-29T11:18:42.643Z</time></trkpt><trkpt lat="43.6822599" lon="11.9189152"><ele>739.0</ele><time>2026-04-29T11:18:43.637Z</time></trkpt><trkpt lat="43.6823197" lon="11.9189542"><ele>739.0</ele><time>2026-04-29T11:18:44.652Z</time></trkpt><trkpt lat="43.6823925" lon="11.91895"><ele>739.0</ele><time>2026-04-29T11:18:45.628Z</time></trkpt><trkpt lat="43.6824792" lon="11.9189172"><ele>739.0</ele><time>2026-04-29T11:18:46.638Z</time></trkpt><trkpt lat="43.6825865" lon="11.918882"><ele>739.0</ele><time>2026-04-29T11:18:47.623Z</time></trkpt><trkpt lat="43.6827151" lon="11.9188757"><ele>738.5</ele><time>2026-04-29T11:18:48.63Z</time></trkpt><trkpt lat="43.6828488" lon="11.9189128"><ele>738.0</ele><time>2026-04-29T11:18:49.638Z</time></trkpt><trkpt lat="43.6829779" lon="11.9190084"><ele>737.5</ele><time>2026-04-29T11:18:50.653Z</time></trkpt><trkpt lat="43.6830692" lon="11.9191432"><ele>737.0</ele><time>2026-04-29T11:18:51.67Z</time></trkpt><trkpt lat="43.683134" lon="11.9192793"><ele>737.0</ele><time>2026-04-29T11:18:52.632Z</time></trkpt><trkpt lat="43.683156" lon="11.9194543"><ele>737.0</ele><time>2026-04-29T11:18:53.654Z</time></trkpt><trkpt lat="43.6832089" lon="11.9195844"><ele>737.0</ele><time>2026-04-29T11:18:54.64Z</time></trkpt><trkpt lat="43.6832796" lon="11.9196988"><ele>737.0</ele><time>2026-04-29T11:18:55.651Z</time></trkpt><trkpt lat="43.6833828" lon="11.9197785"><ele>737.0</ele><time>2026-04-29T11:18:56.622Z</time></trkpt><trkpt lat="43.6835142" lon="11.9198924"><ele>737.0</ele><time>2026-04-29T11:18:57.658Z</time></trkpt><trkpt lat="43.6836401" lon="11.920042"><ele>737.0</ele><time>2026-04-29T11:18:58.646Z</time></trkpt><trkpt lat="43.6837453" lon="11.9202488"><ele>735.6666666666666</ele><time>2026-04-29T11:18:59.637Z</time></trkpt><trkpt lat="43.6838723" lon="11.9204709"><ele>734.3333333333334</ele><time>2026-04-29T11:19:00.642Z</time></trkpt><trkpt lat="43.6840041" lon="11.9207169"><ele>733.0</ele><time>2026-04-29T11:19:01.657Z</time></trkpt><trkpt lat="43.6841234" lon="11.9209519"><ele>733.0</ele><time>2026-04-29T11:19:02.657Z</time></trkpt><trkpt lat="43.6842345" lon="11.9211708"><ele>733.0</ele><time>2026-04-29T11:19:03.639Z</time></trkpt><trkpt lat="43.6843549" lon="11.921353"><ele>733.0</ele><time>2026-04-29T11:19:04.644Z</time></trkpt><trkpt lat="43.6844863" lon="11.92151"><ele>728.25</ele><time>2026-04-29T11:19:05.63Z</time></trkpt><trkpt lat="43.6846094" lon="11.9216623"><ele>723.5</ele><time>2026-04-29T11:19:06.642Z</time></trkpt><trkpt lat="43.6847084" lon="11.9217971"><ele>718.75</ele><time>2026-04-29T11:19:07.628Z</time></trkpt><trkpt lat="43.6847699" lon="11.9219298"><ele>714.0</ele><time>2026-04-29T11:19:08.652Z</time></trkpt><trkpt lat="43.6847442" lon="11.9220941"><ele>714.0</ele><time>2026-04-29T11:19:09.664Z</time></trkpt><trkpt lat="43.6847308" lon="11.9222542"><ele>714.0</ele><time>2026-04-29T11:19:10.645Z</time></trkpt><trkpt lat="43.6847383" lon="11.9224524"><ele>714.0</ele><time>2026-04-29T11:19:11.652Z</time></trkpt><trkpt lat="43.6847722" lon="11.9226716"><ele>714.0</ele><time>2026-04-29T11:19:12.643Z</time></trkpt><trkpt lat="43.6848155" lon="11.9228929"><ele>715.75</ele><time>2026-04-29T11:19:13.654Z</time></trkpt><trkpt lat="43.6848437" lon="11.9230959"><ele>717.5</ele><time>2026-04-29T11:19:14.647Z</time></trkpt><trkpt lat="43.684858" lon="11.9232807"><ele>719.25</ele><time>2026-04-29T11:19:15.628Z</time></trkpt><trkpt lat="43.6848733" lon="11.9234656"><ele>721.0</ele><time>2026-04-29T11:19:16.641Z</time></trkpt><trkpt lat="43.6848998" lon="11.9236486"><ele>721.25</ele><time>2026-04-29T11:19:17.663Z</time></trkpt><trkpt lat="43.6849382" lon="11.9238291"><ele>721.5</ele><time>2026-04-29T11:19:18.654Z</time></trkpt><trkpt lat="43.6849618" lon="11.9240121"><ele>721.75</ele><time>2026-04-29T11:19:19.666Z</time></trkpt><trkpt lat="43.6849504" lon="11.9241746"><ele>722.0</ele><time>2026-04-29T11:19:20.65Z</time></trkpt><trkpt lat="43.6849124" lon="11.9243442"><ele>722.25</ele><time>2026-04-29T11:19:21.642Z</time></trkpt><trkpt lat="43.6848864" lon="11.9245361"><ele>722.5</ele><time>2026-04-29T11:19:22.657Z</time></trkpt><trkpt lat="43.6849011" lon="11.9247316"><ele>722.75</ele><time>2026-04-29T11:19:23.657Z</time></trkpt><trkpt lat="43.6849381" lon="11.9249061"><ele>723.0</ele><time>2026-04-29T11:19:24.66Z</time></trkpt><trkpt lat="43.6849796" lon="11.9250821"><ele>723.0</ele><time>2026-04-29T11:19:25.65Z</time></trkpt><trkpt lat="43.6850141" lon="11.9252876"><ele>723.0</ele><time>2026-04-29T11:19:26.654Z</time></trkpt><trkpt lat="43.6850341" lon="11.9254719"><ele>723.0</ele><time>2026-04-29T11:19:27.658Z</time></trkpt><trkpt lat="43.685007" lon="11.9256436"><ele>723.0</ele><time>2026-04-29T11:19:28.641Z</time></trkpt><trkpt lat="43.6849492" lon="11.9258122"><ele>723.0</ele><time>2026-04-29T11:19:29.639Z</time></trkpt><trkpt lat="43.6849001" lon="11.9259687"><ele>723.0</ele><time>2026-04-29T11:19:30.63Z</time></trkpt><trkpt lat="43.6848849" lon="11.926131"><ele>723.0</ele><time>2026-04-29T11:19:31.655Z</time></trkpt><trkpt lat="43.6849054" lon="11.926262"><ele>723.0</ele><time>2026-04-29T11:19:32.641Z</time></trkpt><trkpt lat="43.6849507" lon="11.9263755"><ele>723.0</ele><time>2026-04-29T11:19:33.628Z</time></trkpt><trkpt lat="43.6849962" lon="11.9264839"><ele>723.0</ele><time>2026-04-29T11:19:34.585Z</time></trkpt><trkpt lat="43.6850726" lon="11.9266369"><ele>723.0</ele><time>2026-04-29T11:19:35.592Z</time></trkpt><trkpt lat="43.6851508" lon="11.9268235"><ele>723.0</ele><time>2026-04-29T11:19:36.58Z</time></trkpt><trkpt lat="43.685269" lon="11.9270325"><ele>724.6666666666666</ele><time>2026-04-29T11:19:37.58Z</time></trkpt><trkpt lat="43.6853875" lon="11.927248"><ele>726.3333333333333</ele><time>2026-04-29T11:19:38.602Z</time></trkpt><trkpt lat="43.6854985" lon="11.9274465"><ele>728.0</ele><time>2026-04-29T11:19:39.58Z</time></trkpt><trkpt lat="43.6856013" lon="11.9276384"><ele>728.0</ele><time>2026-04-29T11:19:40.583Z</time></trkpt><trkpt lat="43.6856813" lon="11.9278221"><ele>728.0</ele><time>2026-04-29T11:19:41.589Z</time></trkpt><trkpt lat="43.6857627" lon="11.9280003"><ele>728.0</ele><time>2026-04-29T11:19:42.616Z</time></trkpt><trkpt lat="43.685859" lon="11.9281548"><ele>728.0</ele><time>2026-04-29T11:19:43.577Z</time></trkpt><trkpt lat="43.6859854" lon="11.9283473"><ele>728.0</ele><time>2026-04-29T11:19:44.881Z</time></trkpt><trkpt lat="43.6861895" lon="11.928587"><ele>733.0</ele><time>2026-04-29T11:19:46.646Z</time></trkpt><trkpt lat="43.6862559" lon="11.9287538"><ele>738.0</ele><time>2026-04-29T11:19:47.648Z</time></trkpt><trkpt lat="43.6863172" lon="11.9289211"><ele>743.0</ele><time>2026-04-29T11:19:48.653Z</time></trkpt><trkpt lat="43.6863468" lon="11.9290755"><ele>748.0</ele><time>2026-04-29T11:19:49.647Z</time></trkpt><trkpt lat="43.6863374" lon="11.9292241"><ele>749.5</ele><time>2026-04-29T11:19:50.648Z</time></trkpt><trkpt lat="43.6862869" lon="11.9293664"><ele>751.0</ele><time>2026-04-29T11:19:51.652Z</time></trkpt><trkpt lat="43.6862084" lon="11.929506"><ele>752.5</ele><time>2026-04-29T11:19:52.663Z</time></trkpt><trkpt lat="43.6861267" lon="11.9296543"><ele>754.0</ele><time>2026-04-29T11:19:53.678Z</time></trkpt><trkpt lat="43.6860675" lon="11.9297973"><ele>751.5</ele><time>2026-04-29T11:19:54.64Z</time></trkpt><trkpt lat="43.6860243" lon="11.9299639"><ele>749.0</ele><time>2026-04-29T11:19:55.603Z</time></trkpt><trkpt lat="43.6859796" lon="11.9301463"><ele>746.5</ele><time>2026-04-29T11:19:56.584Z</time></trkpt><trkpt lat="43.6859326" lon="11.9303253"><ele>744.0</ele><time>2026-04-29T11:19:57.596Z</time></trkpt><trkpt lat="43.6858652" lon="11.9304889"><ele>744.0</ele><time>2026-04-29T11:19:58.598Z</time></trkpt><trkpt lat="43.6858013" lon="11.9306415"><ele>744.0</ele><time>2026-04-29T11:19:59.591Z</time></trkpt><trkpt lat="43.6857497" lon="11.9307939"><ele>744.0</ele><time>2026-04-29T11:20:00.59Z</time></trkpt><trkpt lat="43.6857198" lon="11.9309552"><ele>744.0</ele><time>2026-04-29T11:20:01.592Z</time></trkpt><trkpt lat="43.6856953" lon="11.9311346"><ele>745.8000000000001</ele><time>2026-04-29T11:20:02.587Z</time></trkpt><trkpt lat="43.6856797" lon="11.9313302"><ele>747.6</ele><time>2026-04-29T11:20:03.605Z</time></trkpt><trkpt lat="43.6856633" lon="11.9315093"><ele>749.4</ele><time>2026-04-29T11:20:04.593Z</time></trkpt><trkpt lat="43.6856562" lon="11.9316551"><ele>751.2</ele><time>2026-04-29T11:20:05.583Z</time></trkpt><trkpt lat="43.6856591" lon="11.9317502"><ele>753.0</ele><time>2026-04-29T11:20:06.577Z</time></trkpt><trkpt lat="43.6857305" lon="11.931855"><ele>753.0</ele><time>2026-04-29T11:20:08.598Z</time></trkpt><trkpt lat="43.6858072" lon="11.931831"><ele>753.0</ele><time>2026-04-29T11:20:09.917Z</time></trkpt><trkpt lat="43.6858145" lon="11.9316209"><ele>753.0</ele><time>2026-04-29T11:20:11.65Z</time></trkpt><trkpt lat="43.6858277" lon="11.9314794"><ele>753.0</ele><time>2026-04-29T11:20:12.646Z</time></trkpt><trkpt lat="43.6858512" lon="11.9313134"><ele>753.0</ele><time>2026-04-29T11:20:13.63Z</time></trkpt><trkpt lat="43.685893" lon="11.9311382"><ele>753.0</ele><time>2026-04-29T11:20:14.64Z</time></trkpt><trkpt lat="43.6859787" lon="11.9309405"><ele>753.0</ele><time>2026-04-29T11:20:15.656Z</time></trkpt><trkpt lat="43.6860905" lon="11.9307785"><ele>758.0</ele><time>2026-04-29T11:20:16.651Z</time></trkpt><trkpt lat="43.6862276" lon="11.930636"><ele>763.0</ele><time>2026-04-29T11:20:17.657Z</time></trkpt><trkpt lat="43.686348" lon="11.9304961"><ele>768.0</ele><time>2026-04-29T11:20:18.647Z</time></trkpt><trkpt lat="43.6864374" lon="11.9303357"><ele>768.0</ele><time>2026-04-29T11:20:19.667Z</time></trkpt><trkpt lat="43.6864883" lon="11.9301918"><ele>768.0</ele><time>2026-04-29T11:20:20.62Z</time></trkpt><trkpt lat="43.6865453" lon="11.9300746"><ele>768.0</ele><time>2026-04-29T11:20:21.664Z</time></trkpt><trkpt lat="43.6866242" lon="11.9300084"><ele>768.0</ele><time>2026-04-29T11:20:22.64Z</time></trkpt><trkpt lat="43.6867152" lon="11.9300019"><ele>768.0</ele><time>2026-04-29T11:20:23.645Z</time></trkpt><trkpt lat="43.6867825" lon="11.9300594"><ele>768.0</ele><time>2026-04-29T11:20:24.648Z</time></trkpt><trkpt lat="43.6868071" lon="11.9301537"><ele>768.0</ele><time>2026-04-29T11:20:25.665Z</time></trkpt><trkpt lat="43.6867879" lon="11.9302609"><ele>768.0</ele><time>2026-04-29T11:20:26.638Z</time></trkpt><trkpt lat="43.686744" lon="11.9303979"><ele>768.0</ele><time>2026-04-29T11:20:27.644Z</time></trkpt><trkpt lat="43.6867182" lon="11.9305766"><ele>768.0</ele><time>2026-04-29T11:20:28.681Z</time></trkpt><trkpt lat="43.6867245" lon="11.9307674"><ele>769.5999999999999</ele><time>2026-04-29T11:20:29.649Z</time></trkpt><trkpt lat="43.686734" lon="11.9309396"><ele>771.1999999999999</ele><time>2026-04-29T11:20:30.662Z</time></trkpt><trkpt lat="43.6867128" lon="11.9310833"><ele>772.8</ele><time>2026-04-29T11:20:31.657Z</time></trkpt><trkpt lat="43.6866514" lon="11.931194"><ele>774.4</ele><time>2026-04-29T11:20:32.647Z</time></trkpt><trkpt lat="43.6865545" lon="11.9312694"><ele>776.0</ele><time>2026-04-29T11:20:33.63Z</time></trkpt><trkpt lat="43.6864399" lon="11.9313479"><ele>776.0</ele><time>2026-04-29T11:20:34.658Z</time></trkpt><trkpt lat="43.686337" lon="11.9314404"><ele>776.0</ele><time>2026-04-29T11:20:35.637Z</time></trkpt><trkpt lat="43.6862571" lon="11.9315834"><ele>776.0</ele><time>2026-04-29T11:20:36.651Z</time></trkpt><trkpt lat="43.6862432" lon="11.9317722"><ele>776.0</ele><time>2026-04-29T11:20:37.654Z</time></trkpt><trkpt lat="43.686232" lon="11.9319809"><ele>776.5</ele><time>2026-04-29T11:20:38.656Z</time></trkpt><trkpt lat="43.6862263" lon="11.9321998"><ele>777.0</ele><time>2026-04-29T11:20:39.633Z</time></trkpt><trkpt lat="43.6862227" lon="11.93241"><ele>777.5</ele><time>2026-04-29T11:20:40.642Z</time></trkpt><trkpt lat="43.6862267" lon="11.9325744"><ele>778.0</ele><time>2026-04-29T11:20:41.647Z</time></trkpt><trkpt lat="43.6862467" lon="11.9326941"><ele>778.0</ele><time>2026-04-29T11:20:42.638Z</time></trkpt><trkpt lat="43.6862964" lon="11.9327662"><ele>778.0</ele><time>2026-04-29T11:20:43.655Z</time></trkpt><trkpt lat="43.6863872" lon="11.9327297"><ele>778.0</ele><time>2026-04-29T11:20:45.647Z</time></trkpt><trkpt lat="43.6863948" lon="11.9325344"><ele>778.0</ele><time>2026-04-29T11:20:47.653Z</time></trkpt><trkpt lat="43.6864138" lon="11.9324118"><ele>778.0</ele><time>2026-04-29T11:20:48.646Z</time></trkpt><trkpt lat="43.6865288" lon="11.9323163"><ele>778.0</ele><time>2026-04-29T11:20:50.643Z</time></trkpt><trkpt lat="43.6866291" lon="11.9323247"><ele>778.0</ele><time>2026-04-29T11:20:51.651Z</time></trkpt><trkpt lat="43.6867369" lon="11.9323374"><ele>778.0</ele><time>2026-04-29T11:20:52.659Z</time></trkpt><trkpt lat="43.686857" lon="11.9323215"><ele>778.0</ele><time>2026-04-29T11:20:53.634Z</time></trkpt><trkpt lat="43.6869758" lon="11.9322536"><ele>781.0</ele><time>2026-04-29T11:20:54.651Z</time></trkpt><trkpt lat="43.6870749" lon="11.9321845"><ele>784.0</ele><time>2026-04-29T11:20:55.648Z</time></trkpt><trkpt lat="43.6871492" lon="11.9321643"><ele>787.0</ele><time>2026-04-29T11:20:56.575Z</time></trkpt><trkpt lat="43.6872173" lon="11.932279"><ele>790.0</ele><time>2026-04-29T11:20:58.573Z</time></trkpt><trkpt lat="43.687162" lon="11.9324407"><ele>793.0</ele><time>2026-04-29T11:20:59.878Z</time></trkpt><trkpt lat="43.687047" lon="11.9327287"><ele>793.0</ele><time>2026-04-29T11:21:01.646Z</time></trkpt><trkpt lat="43.6869739" lon="11.9328717"><ele>793.0</ele><time>2026-04-29T11:21:02.63Z</time></trkpt><trkpt lat="43.6869593" lon="11.9330308"><ele>793.0</ele><time>2026-04-29T11:21:03.659Z</time></trkpt><trkpt lat="43.6870039" lon="11.9331709"><ele>793.0</ele><time>2026-04-29T11:21:04.651Z</time></trkpt><trkpt lat="43.6870679" lon="11.933275"><ele>793.0</ele><time>2026-04-29T11:21:05.654Z</time></trkpt><trkpt lat="43.6871619" lon="11.9333204"><ele>793.0</ele><time>2026-04-29T11:21:06.662Z</time></trkpt><trkpt lat="43.6872775" lon="11.9333298"><ele>793.0</ele><time>2026-04-29T11:21:07.65Z</time></trkpt><trkpt lat="43.6874158" lon="11.9333301"><ele>793.0</ele><time>2026-04-29T11:21:08.639Z</time></trkpt><trkpt lat="43.6875587" lon="11.9333789"><ele>792.5</ele><time>2026-04-29T11:21:09.666Z</time></trkpt><trkpt lat="43.6876515" lon="11.9334665"><ele>792.0</ele><time>2026-04-29T11:21:10.64Z</time></trkpt><trkpt lat="43.6877102" lon="11.9335885"><ele>791.5</ele><time>2026-04-29T11:21:11.635Z</time></trkpt><trkpt lat="43.6877527" lon="11.933756"><ele>791.0</ele><time>2026-04-29T11:21:12.648Z</time></trkpt><trkpt lat="43.6877927" lon="11.9339526"><ele>796.3333333333334</ele><time>2026-04-29T11:21:13.65Z</time></trkpt><trkpt lat="43.6878354" lon="11.9341621"><ele>801.6666666666667</ele><time>2026-04-29T11:21:14.629Z</time></trkpt><trkpt lat="43.6878804" lon="11.9344096"><ele>807.0</ele><time>2026-04-29T11:21:15.657Z</time></trkpt><trkpt lat="43.6879257" lon="11.9346415"><ele>807.3333333333333</ele><time>2026-04-29T11:21:16.654Z</time></trkpt><trkpt lat="43.6879712" lon="11.9348544"><ele>807.6666666666666</ele><time>2026-04-29T11:21:17.662Z</time></trkpt><trkpt lat="43.6880249" lon="11.9350462"><ele>808.0</ele><time>2026-04-29T11:21:18.635Z</time></trkpt><trkpt lat="43.6880876" lon="11.9352249"><ele>806.25</ele><time>2026-04-29T11:21:19.642Z</time></trkpt><trkpt lat="43.6881581" lon="11.9353666"><ele>804.5</ele><time>2026-04-29T11:21:20.646Z</time></trkpt><trkpt lat="43.6882513" lon="11.9354707"><ele>802.75</ele><time>2026-04-29T11:21:21.669Z</time></trkpt><trkpt lat="43.6883645" lon="11.9355309"><ele>801.0</ele><time>2026-04-29T11:21:22.666Z</time></trkpt><trkpt lat="43.6884837" lon="11.9355951"><ele>801.0</ele><time>2026-04-29T11:21:23.65Z</time></trkpt><trkpt lat="43.6885853" lon="11.9356629"><ele>801.0</ele><time>2026-04-29T11:21:24.644Z</time></trkpt><trkpt lat="43.6886803" lon="11.9358385"><ele>801.0</ele><time>2026-04-29T11:21:25.652Z</time></trkpt><trkpt lat="43.6887464" lon="11.935988"><ele>801.0</ele><time>2026-04-29T11:21:26.648Z</time></trkpt><trkpt lat="43.688812" lon="11.9361005"><ele>803.3333333333333</ele><time>2026-04-29T11:21:27.652Z</time></trkpt><trkpt lat="43.688967" lon="11.9361364"><ele>805.6666666666666</ele><time>2026-04-29T11:21:28.625Z</time></trkpt><trkpt lat="43.6891088" lon="11.9361694"><ele>808.0</ele><time>2026-04-29T11:21:29.638Z</time></trkpt><trkpt lat="43.689262" lon="11.936204"><ele>808.0</ele><time>2026-04-29T11:21:30.648Z</time></trkpt><trkpt lat="43.6894128" lon="11.9362379"><ele>808.0</ele><time>2026-04-29T11:21:31.642Z</time></trkpt><trkpt lat="43.6895406" lon="11.9362647"><ele>808.0</ele><time>2026-04-29T11:21:32.629Z</time></trkpt><trkpt lat="43.6896201" lon="11.9362202"><ele>808.0</ele><time>2026-04-29T11:21:33.63Z</time></trkpt><trkpt lat="43.6896688" lon="11.936154"><ele>808.0</ele><time>2026-04-29T11:21:34.639Z</time></trkpt><trkpt lat="43.6896727" lon="11.9360521"><ele>809.5999999999999</ele><time>2026-04-29T11:21:35.633Z</time></trkpt><trkpt lat="43.6896348" lon="11.9359579"><ele>811.1999999999999</ele><time>2026-04-29T11:21:36.635Z</time></trkpt><trkpt lat="43.6895577" lon="11.9358585"><ele>812.8</ele><time>2026-04-29T11:21:37.634Z</time></trkpt><trkpt lat="43.6894661" lon="11.9357608"><ele>814.4</ele><time>2026-04-29T11:21:38.629Z</time></trkpt><trkpt lat="43.6893986" lon="11.9356614"><ele>816.0</ele><time>2026-04-29T11:21:39.654Z</time></trkpt><trkpt lat="43.6893741" lon="11.9355419"><ele>816.0</ele><time>2026-04-29T11:21:40.657Z</time></trkpt><trkpt lat="43.689396" lon="11.9353722"><ele>816.0</ele><time>2026-04-29T11:21:41.654Z</time></trkpt><trkpt lat="43.6894368" lon="11.935191"><ele>816.0</ele><time>2026-04-29T11:21:42.64Z</time></trkpt><trkpt lat="43.6894897" lon="11.9349869"><ele>816.0</ele><time>2026-04-29T11:21:43.667Z</time></trkpt><trkpt lat="43.689548" lon="11.9347814"><ele>821.6666666666667</ele><time>2026-04-29T11:21:44.637Z</time></trkpt><trkpt lat="43.6896237" lon="11.9345544"><ele>827.3333333333334</ele><time>2026-04-29T11:21:45.651Z</time></trkpt><trkpt lat="43.6896993" lon="11.9343391"><ele>833.0</ele><time>2026-04-29T11:21:46.652Z</time></trkpt><trkpt lat="43.6897526" lon="11.9341383"><ele>833.25</ele><time>2026-04-29T11:21:47.652Z</time></trkpt><trkpt lat="43.6897884" lon="11.9339535"><ele>833.5</ele><time>2026-04-29T11:21:48.652Z</time></trkpt><trkpt lat="43.6898361" lon="11.933809"><ele>833.75</ele><time>2026-04-29T11:21:49.649Z</time></trkpt><trkpt lat="43.6899079" lon="11.933707"><ele>834.0</ele><time>2026-04-29T11:21:50.645Z</time></trkpt><trkpt lat="43.6900043" lon="11.9336507"><ele>834.0</ele><time>2026-04-29T11:21:51.649Z</time></trkpt><trkpt lat="43.6901294" lon="11.9336321"><ele>834.0</ele><time>2026-04-29T11:21:52.639Z</time></trkpt><trkpt lat="43.6902748" lon="11.9336258"><ele>834.0</ele><time>2026-04-29T11:21:53.64Z</time></trkpt><trkpt lat="43.6904362" lon="11.9336166"><ele>834.0</ele><time>2026-04-29T11:21:54.651Z</time></trkpt><trkpt lat="43.6906046" lon="11.9336078"><ele>836.0</ele><time>2026-04-29T11:21:55.638Z</time></trkpt><trkpt lat="43.6907579" lon="11.9335997"><ele>838.0</ele><time>2026-04-29T11:21:56.586Z</time></trkpt><trkpt lat="43.6909031" lon="11.9335812"><ele>840.0</ele><time>2026-04-29T11:21:57.582Z</time></trkpt><trkpt lat="43.6910209" lon="11.933528"><ele>842.0</ele><time>2026-04-29T11:21:58.602Z</time></trkpt><trkpt lat="43.6911021" lon="11.933435"><ele>844.5</ele><time>2026-04-29T11:21:59.607Z</time></trkpt><trkpt lat="43.691151" lon="11.9333119"><ele>847.0</ele><time>2026-04-29T11:22:00.612Z</time></trkpt><trkpt lat="43.6911618" lon="11.9331601"><ele>849.5</ele><time>2026-04-29T11:22:01.582Z</time></trkpt><trkpt lat="43.6911352" lon="11.9329693"><ele>852.0</ele><time>2026-04-29T11:22:02.581Z</time></trkpt><trkpt lat="43.6910913" lon="11.9327699"><ele>852.25</ele><time>2026-04-29T11:22:03.573Z</time></trkpt><trkpt lat="43.6910605" lon="11.9325751"><ele>852.5</ele><time>2026-04-29T11:22:04.595Z</time></trkpt><trkpt lat="43.6910653" lon="11.9324077"><ele>852.75</ele><time>2026-04-29T11:22:05.602Z</time></trkpt><trkpt lat="43.6911282" lon="11.9322845"><ele>853.0</ele><time>2026-04-29T11:22:06.923Z</time></trkpt><trkpt lat="43.6912941" lon="11.9322864"><ele>853.0</ele><time>2026-04-29T11:22:08.664Z</time></trkpt><trkpt lat="43.6913863" lon="11.9323645"><ele>853.0</ele><time>2026-04-29T11:22:09.647Z</time></trkpt><trkpt lat="43.6915125" lon="11.9325089"><ele>853.0</ele><time>2026-04-29T11:22:10.647Z</time></trkpt><trkpt lat="43.6916402" lon="11.9326672"><ele>853.0</ele><time>2026-04-29T11:22:11.624Z</time></trkpt><trkpt lat="43.6917855" lon="11.9328693"><ele>858.0</ele><time>2026-04-29T11:22:12.646Z</time></trkpt><trkpt lat="43.691925" lon="11.9330621"><ele>863.0</ele><time>2026-04-29T11:22:13.632Z</time></trkpt><trkpt lat="43.6920191" lon="11.9332576"><ele>868.0</ele><time>2026-04-29T11:22:14.644Z</time></trkpt><trkpt lat="43.692067" lon="11.933452"><ele>868.5</ele><time>2026-04-29T11:22:15.662Z</time></trkpt><trkpt lat="43.6920631" lon="11.9336292"><ele>869.0</ele><time>2026-04-29T11:22:16.635Z</time></trkpt><trkpt lat="43.6920226" lon="11.933799"><ele>869.5</ele><time>2026-04-29T11:22:17.643Z</time></trkpt><trkpt lat="43.6919719" lon="11.9339489"><ele>870.0</ele><time>2026-04-29T11:22:18.583Z</time></trkpt><trkpt lat="43.6919105" lon="11.9341145"><ele>869.75</ele><time>2026-04-29T11:22:19.604Z</time></trkpt><trkpt lat="43.6918754" lon="11.9342791"><ele>869.5</ele><time>2026-04-29T11:22:20.594Z</time></trkpt><trkpt lat="43.691894" lon="11.9344547"><ele>869.25</ele><time>2026-04-29T11:22:21.601Z</time></trkpt><trkpt lat="43.6919539" lon="11.9346457"><ele>869.0</ele><time>2026-04-29T11:22:22.576Z</time></trkpt><trkpt lat="43.6920337" lon="11.9348522"><ele>868.0</ele><time>2026-04-29T11:22:23.591Z</time></trkpt><trkpt lat="43.692091" lon="11.9350543"><ele>867.0</ele><time>2026-04-29T11:22:24.61Z</time></trkpt><trkpt lat="43.6921708" lon="11.9352547"><ele>866.0</ele><time>2026-04-29T11:22:25.601Z</time></trkpt><trkpt lat="43.6922764" lon="11.9354208"><ele>866.0</ele><time>2026-04-29T11:22:26.598Z</time></trkpt><trkpt lat="43.6924045" lon="11.9355886"><ele>866.0</ele><time>2026-04-29T11:22:27.606Z</time></trkpt><trkpt lat="43.6925265" lon="11.9357311"><ele>866.0</ele><time>2026-04-29T11:22:28.598Z</time></trkpt><trkpt lat="43.6926525" lon="11.9358578"><ele>868.5</ele><time>2026-04-29T11:22:29.595Z</time></trkpt><trkpt lat="43.6928137" lon="11.9359982"><ele>871.0</ele><time>2026-04-29T11:22:30.948Z</time></trkpt><trkpt lat="43.6928925" lon="11.9360466"><ele>873.5</ele><time>2026-04-29T11:22:31.657Z</time></trkpt><trkpt lat="43.6930243" lon="11.9359981"><ele>876.0</ele><time>2026-04-29T11:22:32.649Z</time></trkpt><trkpt lat="43.6931056" lon="11.9359262"><ele>876.75</ele><time>2026-04-29T11:22:33.669Z</time></trkpt><trkpt lat="43.6931851" lon="11.9358052"><ele>877.5</ele><time>2026-04-29T11:22:34.659Z</time></trkpt><trkpt lat="43.6932251" lon="11.9356549"><ele>878.25</ele><time>2026-04-29T11:22:35.642Z</time></trkpt><trkpt lat="43.6932312" lon="11.9354762"><ele>879.0</ele><time>2026-04-29T11:22:36.639Z</time></trkpt><trkpt lat="43.6932334" lon="11.9352764"><ele>879.0</ele><time>2026-04-29T11:22:37.63Z</time></trkpt><trkpt lat="43.6932474" lon="11.935052"><ele>879.0</ele><time>2026-04-29T11:22:38.648Z</time></trkpt><trkpt lat="43.6932834" lon="11.9348222"><ele>879.0</ele><time>2026-04-29T11:22:39.648Z</time></trkpt><trkpt lat="43.6933491" lon="11.9346087"><ele>879.0</ele><time>2026-04-29T11:22:40.673Z</time></trkpt><trkpt lat="43.6934397" lon="11.9344491"><ele>879.0</ele><time>2026-04-29T11:22:41.668Z</time></trkpt><trkpt lat="43.6935563" lon="11.9343296"><ele>879.0</ele><time>2026-04-29T11:22:42.658Z</time></trkpt><trkpt lat="43.6936915" lon="11.9342565"><ele>879.0</ele><time>2026-04-29T11:22:43.639Z</time></trkpt><trkpt lat="43.6938317" lon="11.9342362"><ele>881.0</ele><time>2026-04-29T11:22:44.61Z</time></trkpt><trkpt lat="43.6939713" lon="11.9342546"><ele>883.0</ele><time>2026-04-29T11:22:45.589Z</time></trkpt><trkpt lat="43.6941001" lon="11.9343199"><ele>885.0</ele><time>2026-04-29T11:22:46.573Z</time></trkpt><trkpt lat="43.6942305" lon="11.9344405"><ele>887.0</ele><time>2026-04-29T11:22:47.617Z</time></trkpt><trkpt lat="43.6943512" lon="11.9345893"><ele>890.6666666666667</ele><time>2026-04-29T11:22:48.59Z</time></trkpt><trkpt lat="43.6944822" lon="11.9347579"><ele>894.3333333333333</ele><time>2026-04-29T11:22:49.576Z</time></trkpt><trkpt lat="43.6946241" lon="11.9349239"><ele>898.0</ele><time>2026-04-29T11:22:50.584Z</time></trkpt><trkpt lat="43.6947702" lon="11.9351006"><ele>898.0</ele><time>2026-04-29T11:22:51.589Z</time></trkpt><trkpt lat="43.6949065" lon="11.9352603"><ele>898.0</ele><time>2026-04-29T11:22:52.578Z</time></trkpt><trkpt lat="43.6950249" lon="11.935414"><ele>898.0</ele><time>2026-04-29T11:22:53.579Z</time></trkpt><trkpt lat="43.6951274" lon="11.935572"><ele>898.0</ele><time>2026-04-29T11:22:54.593Z</time></trkpt><trkpt lat="43.6951917" lon="11.9357388"><ele>898.0</ele><time>2026-04-29T11:22:55.618Z</time></trkpt><trkpt lat="43.6952427" lon="11.9359862"><ele>898.0</ele><time>2026-04-29T11:22:56.928Z</time></trkpt><trkpt lat="43.6952302" lon="11.936327"><ele>898.75</ele><time>2026-04-29T11:22:58.656Z</time></trkpt><trkpt lat="43.6952213" lon="11.936507"><ele>899.5</ele><time>2026-04-29T11:22:59.637Z</time></trkpt><trkpt lat="43.6952151" lon="11.936697"><ele>900.25</ele><time>2026-04-29T11:23:00.631Z</time></trkpt><trkpt lat="43.6952093" lon="11.9368991"><ele>901.0</ele><time>2026-04-29T11:23:01.652Z</time></trkpt><trkpt lat="43.6951965" lon="11.9370982"><ele>902.0</ele><time>2026-04-29T11:23:02.659Z</time></trkpt><trkpt lat="43.6951767" lon="11.9372871"><ele>903.0</ele><time>2026-04-29T11:23:03.642Z</time></trkpt><trkpt lat="43.6951451" lon="11.9374759"><ele>904.0</ele><time>2026-04-29T11:23:04.661Z</time></trkpt><trkpt lat="43.6951058" lon="11.9376499"><ele>905.0</ele><time>2026-04-29T11:23:05.644Z</time></trkpt><trkpt lat="43.6950642" lon="11.9378208"><ele>906.0</ele><time>2026-04-29T11:23:06.659Z</time></trkpt><trkpt lat="43.6950251" lon="11.9379786"><ele>907.0</ele><time>2026-04-29T11:23:07.603Z</time></trkpt><trkpt lat="43.6949876" lon="11.9381416"><ele>908.0</ele><time>2026-04-29T11:23:08.596Z</time></trkpt><trkpt lat="43.6949564" lon="11.9382971"><ele>909.0</ele><time>2026-04-29T11:23:09.616Z</time></trkpt><trkpt lat="43.6949462" lon="11.9384273"><ele>909.0</ele><time>2026-04-29T11:23:10.589Z</time></trkpt><trkpt lat="43.694968" lon="11.9385364"><ele>909.0</ele><time>2026-04-29T11:23:11.595Z</time></trkpt><trkpt lat="43.6950247" lon="11.9386119"><ele>909.0</ele><time>2026-04-29T11:23:12.588Z</time></trkpt><trkpt lat="43.6951013" lon="11.9386428"><ele>909.0</ele><time>2026-04-29T11:23:13.608Z</time></trkpt><trkpt lat="43.6951839" lon="11.9386301"><ele>909.0</ele><time>2026-04-29T11:23:14.617Z</time></trkpt><trkpt lat="43.6952771" lon="11.9385757"><ele>909.0</ele><time>2026-04-29T11:23:15.593Z</time></trkpt><trkpt lat="43.6953486" lon="11.9384856"><ele>913.6</ele><time>2026-04-29T11:23:16.577Z</time></trkpt><trkpt lat="43.6954023" lon="11.9383649"><ele>918.2</ele><time>2026-04-29T11:23:17.615Z</time></trkpt><trkpt lat="43.6954386" lon="11.938232"><ele>922.8000000000001</ele><time>2026-04-29T11:23:18.594Z</time></trkpt><trkpt lat="43.6954722" lon="11.9381005"><ele>927.4000000000001</ele><time>2026-04-29T11:23:19.58Z</time></trkpt><trkpt lat="43.6955161" lon="11.9379751"><ele>932.0</ele><time>2026-04-29T11:23:20.576Z</time></trkpt><trkpt lat="43.6955967" lon="11.9378306"><ele>932.0</ele><time>2026-04-29T11:23:21.881Z</time></trkpt><trkpt lat="43.6957468" lon="11.9377323"><ele>932.0</ele><time>2026-04-29T11:23:23.65Z</time></trkpt><trkpt lat="43.6958493" lon="11.9376797"><ele>932.0</ele><time>2026-04-29T11:23:24.645Z</time></trkpt><trkpt lat="43.6959643" lon="11.9376191"><ele>932.0</ele><time>2026-04-29T11:23:25.684Z</time></trkpt><trkpt lat="43.6960754" lon="11.9375492"><ele>933.5</ele><time>2026-04-29T11:23:26.656Z</time></trkpt><trkpt lat="43.6961931" lon="11.9374603"><ele>935.0</ele><time>2026-04-29T11:23:27.648Z</time></trkpt><trkpt lat="43.6963118" lon="11.9373595"><ele>936.5</ele><time>2026-04-29T11:23:28.636Z</time></trkpt><trkpt lat="43.6964367" lon="11.9372505"><ele>938.0</ele><time>2026-04-29T11:23:29.646Z</time></trkpt><trkpt lat="43.6965652" lon="11.9371449"><ele>938.0</ele><time>2026-04-29T11:23:30.646Z</time></trkpt><trkpt lat="43.6966965" lon="11.9370431"><ele>938.0</ele><time>2026-04-29T11:23:31.648Z</time></trkpt><trkpt lat="43.6968254" lon="11.9369435"><ele>938.0</ele><time>2026-04-29T11:23:32.642Z</time></trkpt><trkpt lat="43.6969527" lon="11.9368534"><ele>938.0</ele><time>2026-04-29T11:23:33.597Z</time></trkpt><trkpt lat="43.6970866" lon="11.9367588"><ele>938.6666666666667</ele><time>2026-04-29T11:23:34.601Z</time></trkpt><trkpt lat="43.6972207" lon="11.9366669"><ele>939.3333333333333</ele><time>2026-04-29T11:23:35.597Z</time></trkpt><trkpt lat="43.6973514" lon="11.9365711"><ele>940.0</ele><time>2026-04-29T11:23:36.592Z</time></trkpt><trkpt lat="43.6974866" lon="11.936475"><ele>940.0</ele><time>2026-04-29T11:23:37.597Z</time></trkpt><trkpt lat="43.6976112" lon="11.9363768"><ele>940.0</ele><time>2026-04-29T11:23:38.609Z</time></trkpt><trkpt lat="43.6977256" lon="11.9362882"><ele>940.0</ele><time>2026-04-29T11:23:39.621Z</time></trkpt><trkpt lat="43.6978328" lon="11.9362209"><ele>940.0</ele><time>2026-04-29T11:23:40.6Z</time></trkpt><trkpt lat="43.6979238" lon="11.9361531"><ele>940.8</ele><time>2026-04-29T11:23:41.593Z</time></trkpt><trkpt lat="43.6980083" lon="11.9360709"><ele>941.6</ele><time>2026-04-29T11:23:42.587Z</time></trkpt><trkpt lat="43.6980706" lon="11.9359947"><ele>942.4000000000001</ele><time>2026-04-29T11:23:43.607Z</time></trkpt><trkpt lat="43.698122" lon="11.9359357"><ele>943.2</ele><time>2026-04-29T11:23:44.589Z</time></trkpt><trkpt lat="43.6982083" lon="11.9358397"><ele>944.0</ele><time>2026-04-29T11:23:46.609Z</time></trkpt><trkpt lat="43.6983072" lon="11.9357361"><ele>944.0000000000001</ele><time>2026-04-29T11:23:48.594Z</time></trkpt><trkpt lat="43.698366" lon="11.9356679"><ele>944.0</ele><time>2026-04-29T11:23:49.589Z</time></trkpt><trkpt lat="43.6984219" lon="11.9356026"><ele>944.0</ele><time>2026-04-29T11:23:50.586Z</time></trkpt><trkpt lat="43.6985024" lon="11.9355123"><ele>944.0</ele><time>2026-04-29T11:23:51.894Z</time></trkpt><trkpt lat="43.6985977" lon="11.9354062"><ele>944.0000000000001</ele><time>2026-04-29T11:23:53.658Z</time></trkpt><trkpt lat="43.6986512" lon="11.9353373"><ele>944.0</ele><time>2026-04-29T11:23:54.625Z</time></trkpt><trkpt lat="43.698704" lon="11.9352489"><ele>946.0</ele><time>2026-04-29T11:23:55.652Z</time></trkpt><trkpt lat="43.6987463" lon="11.9351501"><ele>948.0000000000001</ele><time>2026-04-29T11:23:56.628Z</time></trkpt><trkpt lat="43.6987817" lon="11.9350449"><ele>950.0000000000001</ele><time>2026-04-29T11:23:57.574Z</time></trkpt><trkpt lat="43.6988139" lon="11.9349225"><ele>952.0</ele><time>2026-04-29T11:23:58.574Z</time></trkpt><trkpt lat="43.6988405" lon="11.93479"><ele>954.0</ele><time>2026-04-29T11:23:59.595Z</time></trkpt><trkpt lat="43.6988637" lon="11.9346666"><ele>954.0</ele><time>2026-04-29T11:24:00.614Z</time></trkpt><trkpt lat="43.6988957" lon="11.9345758"><ele>954.0000000000001</ele><time>2026-04-29T11:24:01.586Z</time></trkpt><trkpt lat="43.6989496" lon="11.9345088"><ele>954.0000000000001</ele><time>2026-04-29T11:24:02.619Z</time></trkpt><trkpt lat="43.6990115" lon="11.9344804"><ele>954.0</ele><time>2026-04-29T11:24:03.591Z</time></trkpt><trkpt lat="43.6990742" lon="11.9345035"><ele>954.0</ele><time>2026-04-29T11:24:04.593Z</time></trkpt><trkpt lat="43.6991643" lon="11.9347282"><ele>954.0</ele><time>2026-04-29T11:24:07.646Z</time></trkpt><trkpt lat="43.6991784" lon="11.9348299"><ele>954.0</ele><time>2026-04-29T11:24:08.651Z</time></trkpt><trkpt lat="43.6991852" lon="11.934938"><ele>954.0</ele><time>2026-04-29T11:24:09.646Z</time></trkpt><trkpt lat="43.6991818" lon="11.9350503"><ele>954.0</ele><time>2026-04-29T11:24:10.656Z</time></trkpt><trkpt lat="43.6991692" lon="11.9351623"><ele>954.0</ele><time>2026-04-29T11:24:11.648Z</time></trkpt><trkpt lat="43.6991554" lon="11.9352645"><ele>954.0</ele><time>2026-04-29T11:24:12.647Z</time></trkpt><trkpt lat="43.6991397" lon="11.9353535"><ele>955.6</ele><time>2026-04-29T11:24:13.645Z</time></trkpt><trkpt lat="43.6991166" lon="11.9354472"><ele>957.2</ele><time>2026-04-29T11:24:14.65Z</time></trkpt><trkpt lat="43.6990735" lon="11.9355608"><ele>958.8000000000001</ele><time>2026-04-29T11:24:15.655Z</time></trkpt><trkpt lat="43.6990144" lon="11.9356964"><ele>960.4000000000001</ele><time>2026-04-29T11:24:16.608Z</time></trkpt><trkpt lat="43.6989474" lon="11.93585"><ele>962.0</ele><time>2026-04-29T11:24:17.589Z</time></trkpt><trkpt lat="43.6988692" lon="11.9360252"><ele>968.0</ele><time>2026-04-29T11:24:18.599Z</time></trkpt><trkpt lat="43.6987847" lon="11.9362232"><ele>974.0</ele><time>2026-04-29T11:24:19.595Z</time></trkpt><trkpt lat="43.6986953" lon="11.9364374"><ele>980.0</ele><time>2026-04-29T11:24:20.6Z</time></trkpt><trkpt lat="43.6986021" lon="11.9366585"><ele>978.3333333333334</ele><time>2026-04-29T11:24:21.597Z</time></trkpt><trkpt lat="43.6984999" lon="11.9368785"><ele>976.6666666666667</ele><time>2026-04-29T11:24:22.609Z</time></trkpt><trkpt lat="43.6983837" lon="11.9370666"><ele>975.0</ele><time>2026-04-29T11:24:23.594Z</time></trkpt><trkpt lat="43.6982389" lon="11.9372081"><ele>975.0</ele><time>2026-04-29T11:24:24.602Z</time></trkpt><trkpt lat="43.6980633" lon="11.9372953"><ele>975.0</ele><time>2026-04-29T11:24:25.59Z</time></trkpt><trkpt lat="43.6978754" lon="11.9373561"><ele>975.0</ele><time>2026-04-29T11:24:26.595Z</time></trkpt><trkpt lat="43.6976766" lon="11.9373978"><ele>972.3333333333333</ele><time>2026-04-29T11:24:27.6Z</time></trkpt><trkpt lat="43.697501" lon="11.9374494"><ele>969.6666666666666</ele><time>2026-04-29T11:24:28.593Z</time></trkpt><trkpt lat="43.6973487" lon="11.9375321"><ele>967.0</ele><time>2026-04-29T11:24:29.62Z</time></trkpt><trkpt lat="43.6972053" lon="11.9376405"><ele>967.0</ele><time>2026-04-29T11:24:30.61Z</time></trkpt><trkpt lat="43.6971033" lon="11.9377708"><ele>967.0</ele><time>2026-04-29T11:24:31.58Z</time></trkpt><trkpt lat="43.6970264" lon="11.9379197"><ele>967.0</ele><time>2026-04-29T11:24:32.603Z</time></trkpt><trkpt lat="43.6970141" lon="11.9380666"><ele>967.0</ele><time>2026-04-29T11:24:33.594Z</time></trkpt><trkpt lat="43.6970544" lon="11.9382156"><ele>967.0</ele><time>2026-04-29T11:24:34.942Z</time></trkpt><trkpt lat="43.6972688" lon="11.9383077"><ele>967.0</ele><time>2026-04-29T11:24:36.635Z</time></trkpt><trkpt lat="43.6974262" lon="11.9383278"><ele>967.0</ele><time>2026-04-29T11:24:37.645Z</time></trkpt><trkpt lat="43.6976053" lon="11.938349"><ele>969.3333333333333</ele><time>2026-04-29T11:24:38.631Z</time></trkpt><trkpt lat="43.6977966" lon="11.9383804"><ele>971.6666666666667</ele><time>2026-04-29T11:24:39.648Z</time></trkpt><trkpt lat="43.6979873" lon="11.9384046"><ele>974.0</ele><time>2026-04-29T11:24:40.634Z</time></trkpt><trkpt lat="43.6981932" lon="11.938427"><ele>971.6666666666667</ele><time>2026-04-29T11:24:41.646Z</time></trkpt><trkpt lat="43.6983836" lon="11.9384543"><ele>969.3333333333333</ele><time>2026-04-29T11:24:42.63Z</time></trkpt><trkpt lat="43.6985546" lon="11.9384908"><ele>967.0</ele><time>2026-04-29T11:24:43.63Z</time></trkpt><trkpt lat="43.6987026" lon="11.9385436"><ele>967.0</ele><time>2026-04-29T11:24:44.632Z</time></trkpt><trkpt lat="43.6988163" lon="11.9386047"><ele>967.0</ele><time>2026-04-29T11:24:45.641Z</time></trkpt><trkpt lat="43.698917" lon="11.9386464"><ele>967.0</ele><time>2026-04-29T11:24:46.629Z</time></trkpt><trkpt lat="43.6990208" lon="11.9386506"><ele>967.0</ele><time>2026-04-29T11:24:47.632Z</time></trkpt><trkpt lat="43.6991313" lon="11.9386379"><ele>967.0</ele><time>2026-04-29T11:24:48.643Z</time></trkpt><trkpt lat="43.6992404" lon="11.9386382"><ele>967.0</ele><time>2026-04-29T11:24:49.608Z</time></trkpt><trkpt lat="43.69935" lon="11.938679"><ele>967.0</ele><time>2026-04-29T11:24:50.584Z</time></trkpt><trkpt lat="43.6994737" lon="11.938783"><ele>967.0</ele><time>2026-04-29T11:24:51.594Z</time></trkpt><trkpt lat="43.6996009" lon="11.9389"><ele>967.0</ele><time>2026-04-29T11:24:52.58Z</time></trkpt><trkpt lat="43.6997446" lon="11.9390424"><ele>963.3333333333333</ele><time>2026-04-29T11:24:53.577Z</time></trkpt><trkpt lat="43.6999051" lon="11.9391776"><ele>959.6666666666667</ele><time>2026-04-29T11:24:54.586Z</time></trkpt><trkpt lat="43.7000645" lon="11.9392752"><ele>956.0</ele><time>2026-04-29T11:24:55.59Z</time></trkpt><trkpt lat="43.7002319" lon="11.9393211"><ele>957.6666666666667</ele><time>2026-04-29T11:24:56.58Z</time></trkpt><trkpt lat="43.7004173" lon="11.9392977"><ele>959.3333333333333</ele><time>2026-04-29T11:24:57.581Z</time></trkpt><trkpt lat="43.7006624" lon="11.9393051"><ele>961.0</ele><time>2026-04-29T11:24:58.888Z</time></trkpt><trkpt lat="43.7009193" lon="11.9392301"><ele>966.5999999999999</ele><time>2026-04-29T11:25:00.647Z</time></trkpt><trkpt lat="43.7010363" lon="11.9392039"><ele>972.1999999999999</ele><time>2026-04-29T11:25:01.642Z</time></trkpt><trkpt lat="43.7011445" lon="11.9391505"><ele>977.8000000000001</ele><time>2026-04-29T11:25:02.635Z</time></trkpt><trkpt lat="43.7011996" lon="11.9390332"><ele>983.4000000000001</ele><time>2026-04-29T11:25:03.644Z</time></trkpt><trkpt lat="43.7011908" lon="11.9388919"><ele>989.0</ele><time>2026-04-29T11:25:04.642Z</time></trkpt><trkpt lat="43.7011569" lon="11.9387717"><ele>989.0</ele><time>2026-04-29T11:25:05.643Z</time></trkpt><trkpt lat="43.7010495" lon="11.9386608"><ele>989.0</ele><time>2026-04-29T11:25:06.664Z</time></trkpt><trkpt lat="43.7009032" lon="11.9385817"><ele>989.0</ele><time>2026-04-29T11:25:07.656Z</time></trkpt><trkpt lat="43.7007599" lon="11.9384964"><ele>989.0</ele><time>2026-04-29T11:25:08.649Z</time></trkpt><trkpt lat="43.7006024" lon="11.9383987"><ele>991.6666666666667</ele><time>2026-04-29T11:25:09.655Z</time></trkpt><trkpt lat="43.700428" lon="11.9383074"><ele>994.3333333333333</ele><time>2026-04-29T11:25:10.661Z</time></trkpt><trkpt lat="43.700253" lon="11.9382073"><ele>997.0</ele><time>2026-04-29T11:25:11.641Z</time></trkpt><trkpt lat="43.7000661" lon="11.9380972"><ele>997.0</ele><time>2026-04-29T11:25:12.652Z</time></trkpt><trkpt lat="43.6998861" lon="11.937994"><ele>997.0</ele><time>2026-04-29T11:25:13.642Z</time></trkpt><trkpt lat="43.6997222" lon="11.9378972"><ele>997.0</ele><time>2026-04-29T11:25:14.636Z</time></trkpt><trkpt lat="43.6995786" lon="11.9378111"><ele>997.0</ele><time>2026-04-29T11:25:15.637Z</time></trkpt><trkpt lat="43.6994603" lon="11.9377271"><ele>997.0</ele><time>2026-04-29T11:25:16.652Z</time></trkpt><trkpt lat="43.699384" lon="11.9376284"><ele>997.0</ele><time>2026-04-29T11:25:17.651Z</time></trkpt><trkpt lat="43.6993609" lon="11.9375176"><ele>997.0</ele><time>2026-04-29T11:25:18.665Z</time></trkpt><trkpt lat="43.6993824" lon="11.9374238"><ele>997.0</ele><time>2026-04-29T11:25:19.601Z</time></trkpt><trkpt lat="43.6994394" lon="11.9373514"><ele>1000.25</ele><time>2026-04-29T11:25:20.623Z</time></trkpt><trkpt lat="43.699526" lon="11.9373342"><ele>1003.5</ele><time>2026-04-29T11:25:21.602Z</time></trkpt><trkpt lat="43.6996244" lon="11.9373773"><ele>1006.75</ele><time>2026-04-29T11:25:22.621Z</time></trkpt><trkpt lat="43.6997302" lon="11.9374516"><ele>1010.0</ele><time>2026-04-29T11:25:23.594Z</time></trkpt><trkpt lat="43.6998624" lon="11.9375457"><ele>1009.3333333333334</ele><time>2026-04-29T11:25:24.601Z</time></trkpt><trkpt lat="43.7000055" lon="11.9376255"><ele>1008.6666666666667</ele><time>2026-04-29T11:25:25.584Z</time></trkpt><trkpt lat="43.7001741" lon="11.9377028"><ele>1008.0</ele><time>2026-04-29T11:25:26.607Z</time></trkpt><trkpt lat="43.700325" lon="11.9377258"><ele>1008.0</ele><time>2026-04-29T11:25:27.596Z</time></trkpt><trkpt lat="43.7005194" lon="11.937753"><ele>1008.0</ele><time>2026-04-29T11:25:28.634Z</time></trkpt><trkpt lat="43.7007084" lon="11.9377858"><ele>1008.0</ele><time>2026-04-29T11:25:29.595Z</time></trkpt><trkpt lat="43.7009657" lon="11.9378392"><ele>1014.0</ele><time>2026-04-29T11:25:30.94Z</time></trkpt><trkpt lat="43.7013385" lon="11.9380189"><ele>1020.0</ele><time>2026-04-29T11:25:32.672Z</time></trkpt><trkpt lat="43.7015503" lon="11.9381081"><ele>1020.0</ele><time>2026-04-29T11:25:33.639Z</time></trkpt><trkpt lat="43.7017739" lon="11.9382065"><ele>1020.0</ele><time>2026-04-29T11:25:34.645Z</time></trkpt><trkpt lat="43.7019944" lon="11.9383053"><ele>1013.5</ele><time>2026-04-29T11:25:35.639Z</time></trkpt><trkpt lat="43.7022166" lon="11.9384043"><ele>1007.0</ele><time>2026-04-29T11:25:36.633Z</time></trkpt><trkpt lat="43.7024417" lon="11.9385066"><ele>1007.0</ele><time>2026-04-29T11:25:37.663Z</time></trkpt><trkpt lat="43.7026438" lon="11.9385955"><ele>1007.0</ele><time>2026-04-29T11:25:38.655Z</time></trkpt><trkpt lat="43.7028289" lon="11.938679"><ele>1007.0</ele><time>2026-04-29T11:25:39.652Z</time></trkpt><trkpt lat="43.7029833" lon="11.9387608"><ele>1010.2</ele><time>2026-04-29T11:25:40.644Z</time></trkpt><trkpt lat="43.7031038" lon="11.9388586"><ele>1013.4000000000001</ele><time>2026-04-29T11:25:41.652Z</time></trkpt><trkpt lat="43.7031845" lon="11.9389471"><ele>1016.5999999999999</ele><time>2026-04-29T11:25:42.58Z</time></trkpt><trkpt lat="43.7032513" lon="11.9390168"><ele>1019.8</ele><time>2026-04-29T11:25:43.6Z</time></trkpt><trkpt lat="43.703343" lon="11.9389646"><ele>1023.0</ele><time>2026-04-29T11:25:45.586Z</time></trkpt><trkpt lat="43.7033382" lon="11.9388501"><ele>1023.0</ele><time>2026-04-29T11:25:46.585Z</time></trkpt><trkpt lat="43.7032739" lon="11.9387608"><ele>1023.0</ele><time>2026-04-29T11:25:47.587Z</time></trkpt><trkpt lat="43.7031665" lon="11.9387304"><ele>1023.0</ele><time>2026-04-29T11:25:48.61Z</time></trkpt><trkpt lat="43.7029604" lon="11.9386904"><ele>1023.0</ele><time>2026-04-29T11:25:49.918Z</time></trkpt><trkpt lat="43.7028568" lon="11.9385234"><ele>1025.3333333333333</ele><time>2026-04-29T11:25:51.661Z</time></trkpt><trkpt lat="43.7027239" lon="11.9384051"><ele>1027.6666666666665</ele><time>2026-04-29T11:25:52.673Z</time></trkpt><trkpt lat="43.7025926" lon="11.9382825"><ele>1030.0</ele><time>2026-04-29T11:25:53.652Z</time></trkpt><trkpt lat="43.702445" lon="11.9381538"><ele>1030.0</ele><time>2026-04-29T11:25:54.647Z</time></trkpt><trkpt lat="43.7022868" lon="11.9380128"><ele>1030.0</ele><time>2026-04-29T11:25:55.646Z</time></trkpt><trkpt lat="43.7021316" lon="11.9378549"><ele>1030.0</ele><time>2026-04-29T11:25:56.637Z</time></trkpt><trkpt lat="43.7019724" lon="11.9376746"><ele>1031.0</ele><time>2026-04-29T11:25:57.668Z</time></trkpt><trkpt lat="43.7018414" lon="11.9375008"><ele>1032.0</ele><time>2026-04-29T11:25:58.642Z</time></trkpt><trkpt lat="43.7017333" lon="11.9373298"><ele>1033.0</ele><time>2026-04-29T11:25:59.65Z</time></trkpt><trkpt lat="43.7016477" lon="11.9371903"><ele>1033.0</ele><time>2026-04-29T11:26:00.661Z</time></trkpt><trkpt lat="43.7016062" lon="11.9370522"><ele>1033.0</ele><time>2026-04-29T11:26:01.613Z</time></trkpt><trkpt lat="43.701606" lon="11.936929"><ele>1033.0</ele><time>2026-04-29T11:26:02.613Z</time></trkpt><trkpt lat="43.7016608" lon="11.9368274"><ele>1033.0</ele><time>2026-04-29T11:26:03.614Z</time></trkpt><trkpt lat="43.701744" lon="11.9367513"><ele>1033.0</ele><time>2026-04-29T11:26:04.607Z</time></trkpt><trkpt lat="43.7018549" lon="11.9367245"><ele>1035.25</ele><time>2026-04-29T11:26:05.629Z</time></trkpt><trkpt lat="43.7019673" lon="11.9367591"><ele>1037.5</ele><time>2026-04-29T11:26:06.601Z</time></trkpt><trkpt lat="43.7021071" lon="11.9368231"><ele>1039.75</ele><time>2026-04-29T11:26:07.6Z</time></trkpt><trkpt lat="43.7022623" lon="11.9369049"><ele>1042.0</ele><time>2026-04-29T11:26:08.617Z</time></trkpt><trkpt lat="43.7024806" lon="11.9370151"><ele>1046.5</ele><time>2026-04-29T11:26:09.931Z</time></trkpt><trkpt lat="43.7027812" lon="11.9371785"><ele>1051.0</ele><time>2026-04-29T11:26:11.646Z</time></trkpt><trkpt lat="43.7029786" lon="11.9372617"><ele>1051.0</ele><time>2026-04-29T11:26:12.669Z</time></trkpt><trkpt lat="43.7031793" lon="11.9373147"><ele>1051.0</ele><time>2026-04-29T11:26:13.667Z</time></trkpt><trkpt lat="43.7033784" lon="11.9373403"><ele>1051.0</ele><time>2026-04-29T11:26:14.645Z</time></trkpt><trkpt lat="43.7035863" lon="11.9373678"><ele>1054.0</ele><time>2026-04-29T11:26:15.65Z</time></trkpt><trkpt lat="43.7037685" lon="11.9373958"><ele>1057.0</ele><time>2026-04-29T11:26:16.644Z</time></trkpt><trkpt lat="43.7039208" lon="11.9374131"><ele>1060.0</ele><time>2026-04-29T11:26:17.647Z</time></trkpt><trkpt lat="43.7040419" lon="11.9374069"><ele>1060.0</ele><time>2026-04-29T11:26:18.681Z</time></trkpt><trkpt lat="43.7041227" lon="11.9373582"><ele>1060.0</ele><time>2026-04-29T11:26:19.652Z</time></trkpt><trkpt lat="43.7041778" lon="11.9372635"><ele>1060.0</ele><time>2026-04-29T11:26:20.641Z</time></trkpt><trkpt lat="43.7041899" lon="11.937144"><ele>1060.0</ele><time>2026-04-29T11:26:21.646Z</time></trkpt><trkpt lat="43.7041546" lon="11.937034"><ele>1060.0</ele><time>2026-04-29T11:26:22.632Z</time></trkpt><trkpt lat="43.7040747" lon="11.9369489"><ele>1060.0</ele><time>2026-04-29T11:26:23.643Z</time></trkpt><trkpt lat="43.703968" lon="11.9368476"><ele>1060.0</ele><time>2026-04-29T11:26:24.654Z</time></trkpt><trkpt lat="43.7038484" lon="11.9367326"><ele>1060.0</ele><time>2026-04-29T11:26:25.657Z</time></trkpt><trkpt lat="43.7037275" lon="11.9365905"><ele>1060.0</ele><time>2026-04-29T11:26:26.643Z</time></trkpt><trkpt lat="43.7036088" lon="11.9364174"><ele>1058.5</ele><time>2026-04-29T11:26:27.651Z</time></trkpt><trkpt lat="43.7035046" lon="11.9362352"><ele>1057.0</ele><time>2026-04-29T11:26:28.643Z</time></trkpt><trkpt lat="43.7034219" lon="11.9360788"><ele>1055.5</ele><time>2026-04-29T11:26:29.654Z</time></trkpt><trkpt lat="43.703373" lon="11.9359536"><ele>1054.0</ele><time>2026-04-29T11:26:30.67Z</time></trkpt><trkpt lat="43.7033711" lon="11.9358553"><ele>1054.0</ele><time>2026-04-29T11:26:31.661Z</time></trkpt><trkpt lat="43.7034136" lon="11.9357883"><ele>1054.0</ele><time>2026-04-29T11:26:32.653Z</time></trkpt><trkpt lat="43.7034788" lon="11.9357682"><ele>1054.0</ele><time>2026-04-29T11:26:33.662Z</time></trkpt><trkpt lat="43.703541" lon="11.9358178"><ele>1054.0</ele><time>2026-04-29T11:26:34.658Z</time></trkpt><trkpt lat="43.7035851" lon="11.9359135"><ele>1054.0</ele><time>2026-04-29T11:26:35.658Z</time></trkpt><trkpt lat="43.7036156" lon="11.9360316"><ele>1054.0</ele><time>2026-04-29T11:26:36.665Z</time></trkpt><trkpt lat="43.7036606" lon="11.9361663"><ele>1056.5</ele><time>2026-04-29T11:26:37.647Z</time></trkpt><trkpt lat="43.7037372" lon="11.9363044"><ele>1059.0</ele><time>2026-04-29T11:26:38.638Z</time></trkpt><trkpt lat="43.7038567" lon="11.9364212"><ele>1061.5</ele><time>2026-04-29T11:26:39.658Z</time></trkpt><trkpt lat="43.7039986" lon="11.9365137"><ele>1064.0</ele><time>2026-04-29T11:26:40.658Z</time></trkpt><trkpt lat="43.7041571" lon="11.9365953"><ele>1064.0</ele><time>2026-04-29T11:26:41.647Z</time></trkpt><trkpt lat="43.7043329" lon="11.9366742"><ele>1064.0</ele><time>2026-04-29T11:26:42.65Z</time></trkpt><trkpt lat="43.7045208" lon="11.9367451"><ele>1064.0</ele><time>2026-04-29T11:26:43.669Z</time></trkpt><trkpt lat="43.7047099" lon="11.9368132"><ele>1068.6666666666667</ele><time>2026-04-29T11:26:44.663Z</time></trkpt><trkpt lat="43.704902" lon="11.9368722"><ele>1073.3333333333333</ele><time>2026-04-29T11:26:45.675Z</time></trkpt><trkpt lat="43.7050651" lon="11.9369194"><ele>1078.0</ele><time>2026-04-29T11:26:46.656Z</time></trkpt><trkpt lat="43.7052011" lon="11.9369628"><ele>1078.0</ele><time>2026-04-29T11:26:47.641Z</time></trkpt><trkpt lat="43.7053053" lon="11.9370219"><ele>1078.0</ele><time>2026-04-29T11:26:48.659Z</time></trkpt><trkpt lat="43.7053579" lon="11.9371079"><ele>1078.0</ele><time>2026-04-29T11:26:49.652Z</time></trkpt><trkpt lat="43.7053935" lon="11.9371956"><ele>1078.0</ele><time>2026-04-29T11:26:50.656Z</time></trkpt><trkpt lat="43.7053833" lon="11.9372839"><ele>1078.0</ele><time>2026-04-29T11:26:51.667Z</time></trkpt><trkpt lat="43.7053177" lon="11.9373463"><ele>1078.0</ele><time>2026-04-29T11:26:52.668Z</time></trkpt><trkpt lat="43.705186" lon="11.9374102"><ele>1078.0</ele><time>2026-04-29T11:26:53.662Z</time></trkpt><trkpt lat="43.7050637" lon="11.9374914"><ele>1078.0</ele><time>2026-04-29T11:26:54.66Z</time></trkpt><trkpt lat="43.7049774" lon="11.9375946"><ele>1078.0</ele><time>2026-04-29T11:26:55.651Z</time></trkpt><trkpt lat="43.7049564" lon="11.9377297"><ele>1078.0</ele><time>2026-04-29T11:26:56.65Z</time></trkpt><trkpt lat="43.7049791" lon="11.9378374"><ele>1078.0</ele><time>2026-04-29T11:26:57.661Z</time></trkpt><trkpt lat="43.7050315" lon="11.9379186"><ele>1076.75</ele><time>2026-04-29T11:26:58.601Z</time></trkpt><trkpt lat="43.7051313" lon="11.9379887"><ele>1075.5</ele><time>2026-04-29T11:26:59.613Z</time></trkpt><trkpt lat="43.705284" lon="11.9380679"><ele>1074.25</ele><time>2026-04-29T11:27:00.624Z</time></trkpt><trkpt lat="43.7054269" lon="11.9381542"><ele>1073.0</ele><time>2026-04-29T11:27:01.587Z</time></trkpt><trkpt lat="43.7055997" lon="11.938273"><ele>1074.3333333333335</ele><time>2026-04-29T11:27:02.593Z</time></trkpt><trkpt lat="43.7057636" lon="11.9384089"><ele>1075.6666666666667</ele><time>2026-04-29T11:27:03.601Z</time></trkpt><trkpt lat="43.7058973" lon="11.938565"><ele>1077.0</ele><time>2026-04-29T11:27:04.584Z</time></trkpt><trkpt lat="43.7060126" lon="11.9387309"><ele>1079.6</ele><time>2026-04-29T11:27:05.578Z</time></trkpt><trkpt lat="43.7061121" lon="11.9388825"><ele>1082.2</ele><time>2026-04-29T11:27:06.595Z</time></trkpt><trkpt lat="43.7061935" lon="11.9389684"><ele>1084.8</ele><time>2026-04-29T11:27:07.6Z</time></trkpt><trkpt lat="43.7062725" lon="11.9389923"><ele>1087.4</ele><time>2026-04-29T11:27:08.587Z</time></trkpt><trkpt lat="43.7063378" lon="11.9389521"><ele>1090.0</ele><time>2026-04-29T11:27:09.591Z</time></trkpt><trkpt lat="43.7063739" lon="11.938873"><ele>1090.0</ele><time>2026-04-29T11:27:10.597Z</time></trkpt><trkpt lat="43.7063818" lon="11.9387651"><ele>1090.0</ele><time>2026-04-29T11:27:11.599Z</time></trkpt><trkpt lat="43.7063333" lon="11.9386798"><ele>1090.0</ele><time>2026-04-29T11:27:12.601Z</time></trkpt><trkpt lat="43.7062377" lon="11.9385665"><ele>1090.0</ele><time>2026-04-29T11:27:13.632Z</time></trkpt><trkpt lat="43.7061157" lon="11.938408"><ele>1091.0</ele><time>2026-04-29T11:27:14.591Z</time></trkpt><trkpt lat="43.7059862" lon="11.938122"><ele>1092.0</ele><time>2026-04-29T11:27:15.905Z</time></trkpt><trkpt lat="43.7058269" lon="11.9378078"><ele>1092.0</ele><time>2026-04-29T11:27:17.648Z</time></trkpt><trkpt lat="43.7058091" lon="11.9376866"><ele>1092.0</ele><time>2026-04-29T11:27:18.656Z</time></trkpt><trkpt lat="43.7058988" lon="11.93759"><ele>1092.0</ele><time>2026-04-29T11:27:20.66Z</time></trkpt><trkpt lat="43.7059678" lon="11.9375926"><ele>1092.0</ele><time>2026-04-29T11:27:21.646Z</time></trkpt><trkpt lat="43.7060505" lon="11.9377228"><ele>1092.0</ele><time>2026-04-29T11:27:23.651Z</time></trkpt><trkpt lat="43.7060667" lon="11.9378299"><ele>1095.4</ele><time>2026-04-29T11:27:24.672Z</time></trkpt><trkpt lat="43.7060995" lon="11.9379453"><ele>1098.8000000000002</ele><time>2026-04-29T11:27:25.675Z</time></trkpt><trkpt lat="43.7061572" lon="11.9380599"><ele>1102.2</ele><time>2026-04-29T11:27:26.639Z</time></trkpt><trkpt lat="43.7062503" lon="11.9381662"><ele>1105.6000000000001</ele><time>2026-04-29T11:27:27.659Z</time></trkpt><trkpt lat="43.7063682" lon="11.9382535"><ele>1109.0</ele><time>2026-04-29T11:27:28.661Z</time></trkpt><trkpt lat="43.7064964" lon="11.9383316"><ele>1109.0</ele><time>2026-04-29T11:27:29.648Z</time></trkpt><trkpt lat="43.7066158" lon="11.9383792"><ele>1109.0</ele><time>2026-04-29T11:27:30.6Z</time></trkpt><trkpt lat="43.7067361" lon="11.9384055"><ele>1109.0</ele><time>2026-04-29T11:27:31.604Z</time></trkpt><trkpt lat="43.7068587" lon="11.9383921"><ele>1109.0</ele><time>2026-04-29T11:27:32.594Z</time></trkpt><trkpt lat="43.7069923" lon="11.9383295"><ele>1110.6666666666667</ele><time>2026-04-29T11:27:33.597Z</time></trkpt><trkpt lat="43.7071251" lon="11.9382463"><ele>1112.3333333333333</ele><time>2026-04-29T11:27:34.612Z</time></trkpt><trkpt lat="43.7072504" lon="11.9381462"><ele>1114.0</ele><time>2026-04-29T11:27:35.971Z</time></trkpt><trkpt lat="43.7074394" lon="11.9380011"><ele>1114.0</ele><time>2026-04-29T11:27:37.657Z</time></trkpt><trkpt lat="43.707527" lon="11.9379529"><ele>1114.0</ele><time>2026-04-29T11:27:38.651Z</time></trkpt><trkpt lat="43.7076182" lon="11.9379291"><ele>1114.0</ele><time>2026-04-29T11:27:39.65Z</time></trkpt><trkpt lat="43.7077046" lon="11.9379329"><ele>1114.0</ele><time>2026-04-29T11:27:40.651Z</time></trkpt><trkpt lat="43.7077846" lon="11.9379808"><ele>1114.0</ele><time>2026-04-29T11:27:41.651Z</time></trkpt><trkpt lat="43.7078599" lon="11.9380583"><ele>1115.75</ele><time>2026-04-29T11:27:42.65Z</time></trkpt><trkpt lat="43.7079417" lon="11.9381651"><ele>1117.5</ele><time>2026-04-29T11:27:43.649Z</time></trkpt><trkpt lat="43.708022" lon="11.9382921"><ele>1119.25</ele><time>2026-04-29T11:27:44.645Z</time></trkpt><trkpt lat="43.7080933" lon="11.9384309"><ele>1121.0</ele><time>2026-04-29T11:27:45.677Z</time></trkpt><trkpt lat="43.7081462" lon="11.938553"><ele>1121.0</ele><time>2026-04-29T11:27:46.646Z</time></trkpt><trkpt lat="43.7081912" lon="11.9386559"><ele>1121.0</ele><time>2026-04-29T11:27:47.616Z</time></trkpt><trkpt lat="43.7082313" lon="11.9387369"><ele>1121.0</ele><time>2026-04-29T11:27:48.605Z</time></trkpt><trkpt lat="43.7083241" lon="11.9387787"><ele>1121.0</ele><time>2026-04-29T11:27:50.612Z</time></trkpt><trkpt lat="43.7083934" lon="11.9387002"><ele>1121.0</ele><time>2026-04-29T11:27:52.616Z</time></trkpt><trkpt lat="43.7084227" lon="11.9385966"><ele>1121.0</ele><time>2026-04-29T11:27:54.6Z</time></trkpt><trkpt lat="43.7083772" lon="11.9385138"><ele>1121.0</ele><time>2026-04-29T11:27:56.598Z</time></trkpt><trkpt lat="43.7082256" lon="11.9384151"><ele>1121.0</ele><time>2026-04-29T11:27:58.93Z</time></trkpt><trkpt lat="43.708122" lon="11.9382241"><ele>1121.0</ele><time>2026-04-29T11:28:00.664Z</time></trkpt><trkpt lat="43.7080632" lon="11.9380806"><ele>1124.3999999999999</ele><time>2026-04-29T11:28:01.647Z</time></trkpt><trkpt lat="43.7079965" lon="11.9379537"><ele>1127.8</ele><time>2026-04-29T11:28:02.644Z</time></trkpt><trkpt lat="43.7079285" lon="11.9378419"><ele>1131.1999999999998</ele><time>2026-04-29T11:28:03.643Z</time></trkpt><trkpt lat="43.7078699" lon="11.937734"><ele>1134.6</ele><time>2026-04-29T11:28:04.649Z</time></trkpt><trkpt lat="43.7078147" lon="11.9376377"><ele>1138.0</ele><time>2026-04-29T11:28:05.665Z</time></trkpt><trkpt lat="43.7077646" lon="11.9375508"><ele>1136.1666666666665</ele><time>2026-04-29T11:28:06.64Z</time></trkpt><trkpt lat="43.7077216" lon="11.9374651"><ele>1134.3333333333333</ele><time>2026-04-29T11:28:07.645Z</time></trkpt><trkpt lat="43.7076857" lon="11.9373914"><ele>1132.5</ele><time>2026-04-29T11:28:08.658Z</time></trkpt><trkpt lat="43.7076442" lon="11.937253"><ele>1130.6666666666667</ele><time>2026-04-29T11:28:10.652Z</time></trkpt><trkpt lat="43.7076256" lon="11.9371347"><ele>1128.8333333333335</ele><time>2026-04-29T11:28:12.651Z</time></trkpt><trkpt lat="43.7076118" lon="11.9370305"><ele>1127.0</ele><time>2026-04-29T11:28:14.645Z</time></trkpt><trkpt lat="43.7075543" lon="11.9369722"><ele>1127.0</ele><time>2026-04-29T11:28:17.668Z</time></trkpt><trkpt lat="43.7075717" lon="11.9370869"><ele>1127.0</ele><time>2026-04-29T11:28:20.66Z</time></trkpt><trkpt lat="43.7076346" lon="11.9372414"><ele>1127.0</ele><time>2026-04-29T11:28:22.647Z</time></trkpt><trkpt lat="43.7076689" lon="11.9373396"><ele>1127.0</ele><time>2026-04-29T11:28:23.656Z</time></trkpt><trkpt lat="43.7077205" lon="11.9374435"><ele>1127.0</ele><time>2026-04-29T11:28:24.67Z</time></trkpt><trkpt lat="43.7077835" lon="11.937553"><ele>1129.2</ele><time>2026-04-29T11:28:25.669Z</time></trkpt><trkpt lat="43.7078551" lon="11.9376667"><ele>1131.4</ele><time>2026-04-29T11:28:26.654Z</time></trkpt><trkpt lat="43.7079285" lon="11.9378021"><ele>1133.6</ele><time>2026-04-29T11:28:27.699Z</time></trkpt><trkpt lat="43.707992" lon="11.9379232"><ele>1135.8</ele><time>2026-04-29T11:28:28.67Z</time></trkpt><trkpt lat="43.708054" lon="11.9380444"><ele>1138.0</ele><time>2026-04-29T11:28:29.683Z</time></trkpt><trkpt lat="43.7081115" lon="11.9381532"><ele>1138.0</ele><time>2026-04-29T11:28:30.662Z</time></trkpt><trkpt lat="43.7081731" lon="11.9382533"><ele>1138.0</ele><time>2026-04-29T11:28:31.66Z</time></trkpt><trkpt lat="43.7082399" lon="11.9383405"><ele>1138.0</ele><time>2026-04-29T11:28:32.656Z</time></trkpt><trkpt lat="43.7083037" lon="11.9384166"><ele>1138.0</ele><time>2026-04-29T11:28:33.642Z</time></trkpt><trkpt lat="43.7083744" lon="11.9384959"><ele>1138.0</ele><time>2026-04-29T11:28:34.678Z</time></trkpt><trkpt lat="43.7084057" lon="11.9385743"><ele>1138.0</ele><time>2026-04-29T11:28:35.657Z</time></trkpt><trkpt lat="43.7083926" lon="11.9387298"><ele>1134.6</ele><time>2026-04-29T11:28:37.6Z</time></trkpt><trkpt lat="43.7083411" lon="11.9387967"><ele>1131.1999999999998</ele><time>2026-04-29T11:28:38.607Z</time></trkpt><trkpt lat="43.7082294" lon="11.9387583"><ele>1127.8</ele><time>2026-04-29T11:28:40.618Z</time></trkpt><trkpt lat="43.7081836" lon="11.9386583"><ele>1124.3999999999999</ele><time>2026-04-29T11:28:41.592Z</time></trkpt><trkpt lat="43.7081308" lon="11.9385304"><ele>1121.0</ele><time>2026-04-29T11:28:42.611Z</time></trkpt><trkpt lat="43.7080754" lon="11.9384059"><ele>1119.25</ele><time>2026-04-29T11:28:43.595Z</time></trkpt><trkpt lat="43.7080027" lon="11.9382674"><ele>1117.5</ele><time>2026-04-29T11:28:44.596Z</time></trkpt><trkpt lat="43.7079228" lon="11.9381203"><ele>1115.75</ele><time>2026-04-29T11:28:45.611Z</time></trkpt><trkpt lat="43.7078131" lon="11.9379751"><ele>1114.0</ele><time>2026-04-29T11:28:46.61Z</time></trkpt><trkpt lat="43.707703" lon="11.9378801"><ele>1114.0</ele><time>2026-04-29T11:28:47.62Z</time></trkpt><trkpt lat="43.7075964" lon="11.9378335"><ele>1114.0</ele><time>2026-04-29T11:28:48.592Z</time></trkpt><trkpt lat="43.7074421" lon="11.9378876"><ele>1114.0</ele><time>2026-04-29T11:28:50.957Z</time></trkpt><trkpt lat="43.7072481" lon="11.9380583"><ele>1114.0</ele><time>2026-04-29T11:28:52.658Z</time></trkpt><trkpt lat="43.7071234" lon="11.9381586"><ele>1114.0</ele><time>2026-04-29T11:28:53.651Z</time></trkpt><trkpt lat="43.7070017" lon="11.9382491"><ele>1114.0</ele><time>2026-04-29T11:28:54.668Z</time></trkpt><trkpt lat="43.7068808" lon="11.9383147"><ele>1114.0</ele><time>2026-04-29T11:28:55.661Z</time></trkpt><trkpt lat="43.7067582" lon="11.9383492"><ele>1112.75</ele><time>2026-04-29T11:28:56.662Z</time></trkpt><trkpt lat="43.7066532" lon="11.9383556"><ele>1111.5</ele><time>2026-04-29T11:28:57.602Z</time></trkpt><trkpt lat="43.7065356" lon="11.9383249"><ele>1110.25</ele><time>2026-04-29T11:28:58.624Z</time></trkpt><trkpt lat="43.7064304" lon="11.9382688"><ele>1109.0</ele><time>2026-04-29T11:28:59.59Z</time></trkpt><trkpt lat="43.7063278" lon="11.9382021"><ele>1109.0</ele><time>2026-04-29T11:29:00.611Z</time></trkpt><trkpt lat="43.7062427" lon="11.9381386"><ele>1109.0</ele><time>2026-04-29T11:29:01.604Z</time></trkpt><trkpt lat="43.7061688" lon="11.9380598"><ele>1109.0</ele><time>2026-04-29T11:29:02.594Z</time></trkpt><trkpt lat="43.7061188" lon="11.9379635"><ele>1109.0</ele><time>2026-04-29T11:29:03.625Z</time></trkpt><trkpt lat="43.7060822" lon="11.9378485"><ele>1109.0</ele><time>2026-04-29T11:29:04.619Z</time></trkpt><trkpt lat="43.7060673" lon="11.9377392"><ele>1109.0</ele><time>2026-04-29T11:29:05.613Z</time></trkpt><trkpt lat="43.7060494" lon="11.9376488"><ele>1106.2</ele><time>2026-04-29T11:29:06.607Z</time></trkpt><trkpt lat="43.7059778" lon="11.9375436"><ele>1103.4</ele><time>2026-04-29T11:29:08.614Z</time></trkpt><trkpt lat="43.7058666" lon="11.9375468"><ele>1100.6</ele><time>2026-04-29T11:29:10.597Z</time></trkpt><trkpt lat="43.7057965" lon="11.9376042"><ele>1097.8</ele><time>2026-04-29T11:29:11.609Z</time></trkpt><trkpt lat="43.7057615" lon="11.9377101"><ele>1095.0</ele><time>2026-04-29T11:29:12.933Z</time></trkpt><trkpt lat="43.7057754" lon="11.9379254"><ele>1094.4</ele><time>2026-04-29T11:29:14.651Z</time></trkpt><trkpt lat="43.7058208" lon="11.9380597"><ele>1093.8</ele><time>2026-04-29T11:29:15.639Z</time></trkpt><trkpt lat="43.705858" lon="11.9381693"><ele>1093.2</ele><time>2026-04-29T11:29:16.649Z</time></trkpt><trkpt lat="43.7059023" lon="11.9382804"><ele>1092.6</ele><time>2026-04-29T11:29:17.668Z</time></trkpt><trkpt lat="43.7059563" lon="11.9383826"><ele>1092.0</ele><time>2026-04-29T11:29:18.657Z</time></trkpt><trkpt lat="43.706025" lon="11.9384668"><ele>1091.6666666666667</ele><time>2026-04-29T11:29:19.668Z</time></trkpt><trkpt lat="43.7061" lon="11.9385298"><ele>1091.3333333333333</ele><time>2026-04-29T11:29:20.645Z</time></trkpt><trkpt lat="43.7061754" lon="11.9385881"><ele>1091.0</ele><time>2026-04-29T11:29:21.659Z</time></trkpt><trkpt lat="43.7062401" lon="11.9386469"><ele>1090.6666666666665</ele><time>2026-04-29T11:29:22.644Z</time></trkpt><trkpt lat="43.706286" lon="11.9387177"><ele>1090.3333333333333</ele><time>2026-04-29T11:29:23.662Z</time></trkpt><trkpt lat="43.7062749" lon="11.9388658"><ele>1090.0</ele><time>2026-04-29T11:29:25.655Z</time></trkpt><trkpt lat="43.7061656" lon="11.9389102"><ele>1086.75</ele><time>2026-04-29T11:29:27.67Z</time></trkpt><trkpt lat="43.706064" lon="11.9387796"><ele>1083.5</ele><time>2026-04-29T11:29:29.683Z</time></trkpt><trkpt lat="43.7060049" lon="11.9386839"><ele>1080.25</ele><time>2026-04-29T11:29:30.674Z</time></trkpt><trkpt lat="43.7059255" lon="11.9385933"><ele>1077.0</ele><time>2026-04-29T11:29:31.624Z</time></trkpt><trkpt lat="43.7058201" lon="11.9384963"><ele>1080.75</ele><time>2026-04-29T11:29:32.62Z</time></trkpt><trkpt lat="43.7056986" lon="11.9383835"><ele>1084.5</ele><time>2026-04-29T11:29:33.595Z</time></trkpt><trkpt lat="43.7055888" lon="11.9382813"><ele>1088.25</ele><time>2026-04-29T11:29:34.6Z</time></trkpt><trkpt lat="43.7054651" lon="11.9381926"><ele>1092.0</ele><time>2026-04-29T11:29:35.611Z</time></trkpt><trkpt lat="43.7053323" lon="11.9380994"><ele>1087.25</ele><time>2026-04-29T11:29:36.602Z</time></trkpt><trkpt lat="43.7051914" lon="11.9380151"><ele>1082.5</ele><time>2026-04-29T11:29:37.608Z</time></trkpt><trkpt lat="43.7050678" lon="11.9379269"><ele>1077.75</ele><time>2026-04-29T11:29:38.625Z</time></trkpt><trkpt lat="43.7049862" lon="11.9378176"><ele>1073.0</ele><time>2026-04-29T11:29:39.613Z</time></trkpt><trkpt lat="43.7049653" lon="11.9376866"><ele>1074.25</ele><time>2026-04-29T11:29:40.602Z</time></trkpt><trkpt lat="43.7049898" lon="11.9375489"><ele>1075.5</ele><time>2026-04-29T11:29:41.608Z</time></trkpt><trkpt lat="43.7051014" lon="11.9373601"><ele>1076.75</ele><time>2026-04-29T11:29:42.964Z</time></trkpt><trkpt lat="43.7052422" lon="11.9373146"><ele>1078.0</ele><time>2026-04-29T11:29:44.64Z</time></trkpt><trkpt lat="43.7053096" lon="11.9372525"><ele>1078.0</ele><time>2026-04-29T11:29:45.661Z</time></trkpt><trkpt lat="43.7053528" lon="11.9371074"><ele>1078.0</ele><time>2026-04-29T11:29:47.659Z</time></trkpt><trkpt lat="43.7053236" lon="11.9369871"><ele>1078.0</ele><time>2026-04-29T11:29:48.653Z</time></trkpt><trkpt lat="43.7052421" lon="11.9369257"><ele>1078.0</ele><time>2026-04-29T11:29:49.664Z</time></trkpt><trkpt lat="43.7051094" lon="11.9368882"><ele>1078.0</ele><time>2026-04-29T11:29:50.647Z</time></trkpt><trkpt lat="43.7049345" lon="11.9368288"><ele>1078.0</ele><time>2026-04-29T11:29:51.648Z</time></trkpt><trkpt lat="43.7047597" lon="11.9367743"><ele>1078.0</ele><time>2026-04-29T11:29:52.678Z</time></trkpt><trkpt lat="43.7045894" lon="11.9367203"><ele>1078.0</ele><time>2026-04-29T11:29:53.65Z</time></trkpt><trkpt lat="43.7044182" lon="11.9366583"><ele>1073.3333333333333</ele><time>2026-04-29T11:29:54.646Z</time></trkpt><trkpt lat="43.7042513" lon="11.9365898"><ele>1068.6666666666667</ele><time>2026-04-29T11:29:55.651Z</time></trkpt><trkpt lat="43.7040919" lon="11.9365157"><ele>1064.0</ele><time>2026-04-29T11:29:56.671Z</time></trkpt><trkpt lat="43.7039525" lon="11.9364446"><ele>1064.0</ele><time>2026-04-29T11:29:57.666Z</time></trkpt><trkpt lat="43.703828" lon="11.9363438"><ele>1064.0</ele><time>2026-04-29T11:29:58.667Z</time></trkpt><trkpt lat="43.7037336" lon="11.9362112"><ele>1064.0</ele><time>2026-04-29T11:29:59.648Z</time></trkpt><trkpt lat="43.7036655" lon="11.936053"><ele>1064.0</ele><time>2026-04-29T11:30:00.656Z</time></trkpt><trkpt lat="43.7036201" lon="11.9358983"><ele>1061.5</ele><time>2026-04-29T11:30:01.666Z</time></trkpt><trkpt lat="43.70357" lon="11.9357849"><ele>1059.0</ele><time>2026-04-29T11:30:02.659Z</time></trkpt><trkpt lat="43.7035192" lon="11.9357031"><ele>1056.5</ele><time>2026-04-29T11:30:03.596Z</time></trkpt><trkpt lat="43.7034472" lon="11.9355946"><ele>1054.0</ele><time>2026-04-29T11:30:04.939Z</time></trkpt><trkpt lat="43.7033583" lon="11.9358699"><ele>1052.25</ele><time>2026-04-29T11:30:06.669Z</time></trkpt><trkpt lat="43.70336" lon="11.9359826"><ele>1050.5</ele><time>2026-04-29T11:30:07.64Z</time></trkpt><trkpt lat="43.7034237" lon="11.9361098"><ele>1048.75</ele><time>2026-04-29T11:30:08.671Z</time></trkpt><trkpt lat="43.7034973" lon="11.9362474"><ele>1047.0</ele><time>2026-04-29T11:30:09.676Z</time></trkpt><trkpt lat="43.7035754" lon="11.9363955"><ele>1051.3333333333333</ele><time>2026-04-29T11:30:10.664Z</time></trkpt><trkpt lat="43.7036761" lon="11.9365529"><ele>1055.6666666666665</ele><time>2026-04-29T11:30:11.669Z</time></trkpt><trkpt lat="43.703793" lon="11.9366858"><ele>1060.0</ele><time>2026-04-29T11:30:12.658Z</time></trkpt><trkpt lat="43.7039132" lon="11.9368025"><ele>1060.0</ele><time>2026-04-29T11:30:13.655Z</time></trkpt><trkpt lat="43.7040215" lon="11.9369038"><ele>1060.0</ele><time>2026-04-29T11:30:14.635Z</time></trkpt><trkpt lat="43.7041163" lon="11.9369946"><ele>1060.0</ele><time>2026-04-29T11:30:15.664Z</time></trkpt><trkpt lat="43.7041697" lon="11.9370953"><ele>1060.0</ele><time>2026-04-29T11:30:16.682Z</time></trkpt><trkpt lat="43.704185" lon="11.9372047"><ele>1060.0</ele><time>2026-04-29T11:30:17.682Z</time></trkpt><trkpt lat="43.7041527" lon="11.9373021"><ele>1060.0</ele><time>2026-04-29T11:30:18.684Z</time></trkpt><trkpt lat="43.7040743" lon="11.9373636"><ele>1060.0</ele><time>2026-04-29T11:30:19.667Z</time></trkpt><trkpt lat="43.7039546" lon="11.9373804"><ele>1060.0</ele><time>2026-04-29T11:30:20.675Z</time></trkpt><trkpt lat="43.7038188" lon="11.9373679"><ele>1060.0</ele><time>2026-04-29T11:30:21.653Z</time></trkpt><trkpt lat="43.7036559" lon="11.9373579"><ele>1057.0</ele><time>2026-04-29T11:30:22.659Z</time></trkpt><trkpt lat="43.7034791" lon="11.9373447"><ele>1054.0</ele><time>2026-04-29T11:30:23.672Z</time></trkpt><trkpt lat="43.7033002" lon="11.9373242"><ele>1051.0</ele><time>2026-04-29T11:30:24.656Z</time></trkpt><trkpt lat="43.7031237" lon="11.9372829"><ele>1051.0</ele><time>2026-04-29T11:30:25.654Z</time></trkpt><trkpt lat="43.7029544" lon="11.9372353"><ele>1051.0</ele><time>2026-04-29T11:30:26.647Z</time></trkpt><trkpt lat="43.7027851" lon="11.9371654"><ele>1051.0</ele><time>2026-04-29T11:30:27.652Z</time></trkpt><trkpt lat="43.7026131" lon="11.9370785"><ele>1048.0</ele><time>2026-04-29T11:30:28.669Z</time></trkpt><trkpt lat="43.7024442" lon="11.9369817"><ele>1045.0</ele><time>2026-04-29T11:30:29.675Z</time></trkpt><trkpt lat="43.7022868" lon="11.9368925"><ele>1042.0</ele><time>2026-04-29T11:30:30.655Z</time></trkpt><trkpt lat="43.7021421" lon="11.9368176"><ele>1042.0</ele><time>2026-04-29T11:30:31.649Z</time></trkpt><trkpt lat="43.7020102" lon="11.9367448"><ele>1042.0</ele><time>2026-04-29T11:30:32.681Z</time></trkpt><trkpt lat="43.7019018" lon="11.9367044"><ele>1042.0</ele><time>2026-04-29T11:30:33.66Z</time></trkpt><trkpt lat="43.7018017" lon="11.9366955"><ele>1042.0</ele><time>2026-04-29T11:30:34.652Z</time></trkpt><trkpt lat="43.7017125" lon="11.9367396"><ele>1042.0</ele><time>2026-04-29T11:30:35.646Z</time></trkpt><trkpt lat="43.7016408" lon="11.9368434"><ele>1040.2</ele><time>2026-04-29T11:30:36.693Z</time></trkpt><trkpt lat="43.7016057" lon="11.9369594"><ele>1038.4</ele><time>2026-04-29T11:30:37.623Z</time></trkpt><trkpt lat="43.7016227" lon="11.9370814"><ele>1036.6</ele><time>2026-04-29T11:30:38.595Z</time></trkpt><trkpt lat="43.7016747" lon="11.9372079"><ele>1034.8</ele><time>2026-04-29T11:30:39.615Z</time></trkpt><trkpt lat="43.7017451" lon="11.9373385"><ele>1033.0</ele><time>2026-04-29T11:30:40.63Z</time></trkpt><trkpt lat="43.7018337" lon="11.9374757"><ele>1032.0</ele><time>2026-04-29T11:30:41.603Z</time></trkpt><trkpt lat="43.701941" lon="11.9376247"><ele>1031.0</ele><time>2026-04-29T11:30:42.606Z</time></trkpt><trkpt lat="43.7020797" lon="11.9377681"><ele>1030.0</ele><time>2026-04-29T11:30:43.621Z</time></trkpt><trkpt lat="43.7022265" lon="11.9379267"><ele>1030.0</ele><time>2026-04-29T11:30:44.613Z</time></trkpt><trkpt lat="43.7023784" lon="11.9380807"><ele>1030.0</ele><time>2026-04-29T11:30:45.606Z</time></trkpt><trkpt lat="43.7025396" lon="11.9382316"><ele>1030.0</ele><time>2026-04-29T11:30:46.603Z</time></trkpt><trkpt lat="43.7027055" lon="11.9383709"><ele>1027.6666666666665</ele><time>2026-04-29T11:30:47.596Z</time></trkpt><trkpt lat="43.7028648" lon="11.9384992"><ele>1025.3333333333333</ele><time>2026-04-29T11:30:48.598Z</time></trkpt><trkpt lat="43.7030167" lon="11.9386157"><ele>1023.0</ele><time>2026-04-29T11:30:49.603Z</time></trkpt><trkpt lat="43.7032239" lon="11.9387459"><ele>1023.0</ele><time>2026-04-29T11:30:50.918Z</time></trkpt><trkpt lat="43.7034109" lon="11.9388167"><ele>1023.0</ele><time>2026-04-29T11:30:52.658Z</time></trkpt><trkpt lat="43.7035013" lon="11.9388943"><ele>1023.0</ele><time>2026-04-29T11:30:53.675Z</time></trkpt><trkpt lat="43.7035239" lon="11.9389823"><ele>1023.0</ele><time>2026-04-29T11:30:54.679Z</time></trkpt><trkpt lat="43.7034405" lon="11.9390287"><ele>1023.0</ele><time>2026-04-29T11:30:56.649Z</time></trkpt><trkpt lat="43.7033773" lon="11.9389633"><ele>1023.0</ele><time>2026-04-29T11:30:58.661Z</time></trkpt><trkpt lat="43.7032881" lon="11.9389168"><ele>1023.0</ele><time>2026-04-29T11:30:59.677Z</time></trkpt><trkpt lat="43.7031797" lon="11.938881"><ele>1023.0</ele><time>2026-04-29T11:31:00.662Z</time></trkpt><trkpt lat="43.703059" lon="11.9388375"><ele>1023.0</ele><time>2026-04-29T11:31:01.653Z</time></trkpt><trkpt lat="43.702924" lon="11.9387868"><ele>1026.5</ele><time>2026-04-29T11:31:02.677Z</time></trkpt><trkpt lat="43.7027159" lon="11.938686"><ele>1030.0</ele><time>2026-04-29T11:31:03.661Z</time></trkpt><trkpt lat="43.7021514" lon="11.9383614"><ele>1030.0</ele><time>2026-04-29T11:31:04.648Z</time></trkpt><trkpt lat="43.7019433" lon="11.9382615"><ele>1030.0</ele><time>2026-04-29T11:31:05.654Z</time></trkpt><trkpt lat="43.7017255" lon="11.9381588"><ele>1026.6666666666665</ele><time>2026-04-29T11:31:06.685Z</time></trkpt><trkpt lat="43.7015168" lon="11.9380653"><ele>1023.3333333333333</ele><time>2026-04-29T11:31:07.671Z</time></trkpt><trkpt lat="43.7013189" lon="11.9379733"><ele>1020.0</ele><time>2026-04-29T11:31:08.656Z</time></trkpt><trkpt lat="43.7011191" lon="11.9378887"><ele>1016.0</ele><time>2026-04-29T11:31:09.663Z</time></trkpt><trkpt lat="43.7009274" lon="11.9378178"><ele>1012.0</ele><time>2026-04-29T11:31:10.662Z</time></trkpt><trkpt lat="43.7007336" lon="11.937767"><ele>1008.0</ele><time>2026-04-29T11:31:11.67Z</time></trkpt><trkpt lat="43.7005508" lon="11.9377419"><ele>1008.0</ele><time>2026-04-29T11:31:12.66Z</time></trkpt><trkpt lat="43.7003763" lon="11.9377308"><ele>1008.0</ele><time>2026-04-29T11:31:13.646Z</time></trkpt><trkpt lat="43.7002108" lon="11.9376928"><ele>1008.0</ele><time>2026-04-29T11:31:14.66Z</time></trkpt><trkpt lat="43.7000578" lon="11.937632"><ele>1008.5</ele><time>2026-04-29T11:31:15.683Z</time></trkpt><trkpt lat="43.6999211" lon="11.9375536"><ele>1009.0</ele><time>2026-04-29T11:31:16.657Z</time></trkpt><trkpt lat="43.6998012" lon="11.9374797"><ele>1009.5</ele><time>2026-04-29T11:31:17.6Z</time></trkpt><trkpt lat="43.6996769" lon="11.9374316"><ele>1010.0</ele><time>2026-04-29T11:31:18.607Z</time></trkpt><trkpt lat="43.699569" lon="11.9373602"><ele>1010.0</ele><time>2026-04-29T11:31:19.601Z</time></trkpt><trkpt lat="43.6994718" lon="11.9373169"><ele>1010.0</ele><time>2026-04-29T11:31:20.626Z</time></trkpt><trkpt lat="43.6993866" lon="11.9373237"><ele>1010.0</ele><time>2026-04-29T11:31:21.609Z</time></trkpt><trkpt lat="43.6993182" lon="11.9373981"><ele>1010.0</ele><time>2026-04-29T11:31:22.618Z</time></trkpt><trkpt lat="43.6992943" lon="11.937507"><ele>1010.0</ele><time>2026-04-29T11:31:23.596Z</time></trkpt><trkpt lat="43.6993081" lon="11.9376359"><ele>1006.75</ele><time>2026-04-29T11:31:24.61Z</time></trkpt><trkpt lat="43.6993717" lon="11.9377277"><ele>1003.5</ele><time>2026-04-29T11:31:25.611Z</time></trkpt><trkpt lat="43.6994748" lon="11.9378095"><ele>1000.25</ele><time>2026-04-29T11:31:26.6Z</time></trkpt><trkpt lat="43.6996108" lon="11.9378885"><ele>997.0</ele><time>2026-04-29T11:31:27.607Z</time></trkpt><trkpt lat="43.699765" lon="11.9379707"><ele>997.0</ele><time>2026-04-29T11:31:28.604Z</time></trkpt><trkpt lat="43.6999323" lon="11.9380636"><ele>997.0</ele><time>2026-04-29T11:31:29.621Z</time></trkpt><trkpt lat="43.7000944" lon="11.9381478"><ele>997.0</ele><time>2026-04-29T11:31:30.591Z</time></trkpt><trkpt lat="43.7002726" lon="11.9382454"><ele>994.3333333333333</ele><time>2026-04-29T11:31:31.604Z</time></trkpt><trkpt lat="43.700446" lon="11.9383306"><ele>991.6666666666667</ele><time>2026-04-29T11:31:32.59Z</time></trkpt><trkpt lat="43.7006119" lon="11.938421"><ele>989.0</ele><time>2026-04-29T11:31:33.602Z</time></trkpt><trkpt lat="43.7007825" lon="11.9385217"><ele>989.0</ele><time>2026-04-29T11:31:34.621Z</time></trkpt><trkpt lat="43.7009222" lon="11.9386019"><ele>989.0</ele><time>2026-04-29T11:31:35.603Z</time></trkpt><trkpt lat="43.7010383" lon="11.9386754"><ele>989.0</ele><time>2026-04-29T11:31:36.62Z</time></trkpt><trkpt lat="43.7011298" lon="11.9387529"><ele>989.0</ele><time>2026-04-29T11:31:37.603Z</time></trkpt><trkpt lat="43.7011751" lon="11.9388595"><ele>989.0</ele><time>2026-04-29T11:31:38.605Z</time></trkpt><trkpt lat="43.7011496" lon="11.9390404"><ele>989.0</ele><time>2026-04-29T11:31:40.605Z</time></trkpt><trkpt lat="43.7010839" lon="11.9391307"><ele>989.0</ele><time>2026-04-29T11:31:41.619Z</time></trkpt><trkpt lat="43.7009806" lon="11.9391854"><ele>989.0</ele><time>2026-04-29T11:31:42.608Z</time></trkpt><trkpt lat="43.7008531" lon="11.939215"><ele>979.6666666666667</ele><time>2026-04-29T11:31:43.61Z</time></trkpt><trkpt lat="43.7007135" lon="11.9392176"><ele>970.3333333333333</ele><time>2026-04-29T11:31:44.591Z</time></trkpt><trkpt lat="43.7005469" lon="11.9392308"><ele>961.0</ele><time>2026-04-29T11:31:45.616Z</time></trkpt><trkpt lat="43.7003741" lon="11.939251"><ele>959.3333333333333</ele><time>2026-04-29T11:31:46.609Z</time></trkpt><trkpt lat="43.7002085" lon="11.9392604"><ele>957.6666666666667</ele><time>2026-04-29T11:31:47.605Z</time></trkpt><trkpt lat="43.7000405" lon="11.9392373"><ele>956.0</ele><time>2026-04-29T11:31:48.621Z</time></trkpt><trkpt lat="43.6998923" lon="11.9391846"><ele>964.6666666666667</ele><time>2026-04-29T11:31:49.602Z</time></trkpt><trkpt lat="43.6997497" lon="11.9390797"><ele>973.3333333333333</ele><time>2026-04-29T11:31:50.613Z</time></trkpt><trkpt lat="43.6996229" lon="11.9389656"><ele>982.0</ele><time>2026-04-29T11:31:51.603Z</time></trkpt><trkpt lat="43.6994704" lon="11.9388122"><ele>978.25</ele><time>2026-04-29T11:31:52.916Z</time></trkpt><trkpt lat="43.6992612" lon="11.938673"><ele>974.5</ele><time>2026-04-29T11:31:54.652Z</time></trkpt><trkpt lat="43.6991618" lon="11.9386045"><ele>970.75</ele><time>2026-04-29T11:31:55.671Z</time></trkpt><trkpt lat="43.699087" lon="11.9385729"><ele>967.0</ele><time>2026-04-29T11:31:56.675Z</time></trkpt><trkpt lat="43.698992" lon="11.9386087"><ele>967.0</ele><time>2026-04-29T11:31:58.674Z</time></trkpt><trkpt lat="43.6989838" lon="11.9387006"><ele>967.0</ele><time>2026-04-29T11:32:01.657Z</time></trkpt><trkpt lat="43.6990889" lon="11.938813"><ele>967.0</ele><time>2026-04-29T11:32:03.67Z</time></trkpt><trkpt lat="43.6991642" lon="11.9388803"><ele>967.0</ele><time>2026-04-29T11:32:04.662Z</time></trkpt><trkpt lat="43.6992567" lon="11.9389562"><ele>967.0</ele><time>2026-04-29T11:32:05.666Z</time></trkpt><trkpt lat="43.6993603" lon="11.9390403"><ele>964.25</ele><time>2026-04-29T11:32:06.67Z</time></trkpt><trkpt lat="43.6994741" lon="11.9391306"><ele>961.5</ele><time>2026-04-29T11:32:07.679Z</time></trkpt><trkpt lat="43.6995972" lon="11.9392218"><ele>958.75</ele><time>2026-04-29T11:32:08.665Z</time></trkpt><trkpt lat="43.6997378" lon="11.9393211"><ele>956.0</ele><time>2026-04-29T11:32:09.681Z</time></trkpt><trkpt lat="43.699886" lon="11.9394176"><ele>956.0</ele><time>2026-04-29T11:32:10.662Z</time></trkpt><trkpt lat="43.7000413" lon="11.9395177"><ele>956.0</ele><time>2026-04-29T11:32:11.653Z</time></trkpt><trkpt lat="43.7002065" lon="11.939621"><ele>956.0</ele><time>2026-04-29T11:32:12.655Z</time></trkpt><trkpt lat="43.700369" lon="11.9397205"><ele>957.6666666666667</ele><time>2026-04-29T11:32:13.661Z</time></trkpt><trkpt lat="43.7005362" lon="11.9398082"><ele>959.3333333333333</ele><time>2026-04-29T11:32:14.663Z</time></trkpt><trkpt lat="43.7007099" lon="11.9398707"><ele>961.0</ele><time>2026-04-29T11:32:15.654Z</time></trkpt><trkpt lat="43.7008978" lon="11.9399057"><ele>962.6666666666666</ele><time>2026-04-29T11:32:16.661Z</time></trkpt><trkpt lat="43.7010887" lon="11.9399215"><ele>964.3333333333333</ele><time>2026-04-29T11:32:17.659Z</time></trkpt><trkpt lat="43.7012717" lon="11.9399345"><ele>966.0</ele><time>2026-04-29T11:32:18.671Z</time></trkpt><trkpt lat="43.7014319" lon="11.9399568"><ele>966.0</ele><time>2026-04-29T11:32:19.641Z</time></trkpt><trkpt lat="43.7015835" lon="11.9400015"><ele>966.0</ele><time>2026-04-29T11:32:20.652Z</time></trkpt><trkpt lat="43.7017148" lon="11.9400967"><ele>966.0</ele><time>2026-04-29T11:32:21.636Z</time></trkpt><trkpt lat="43.7018223" lon="11.9402524"><ele>965.3333333333333</ele><time>2026-04-29T11:32:22.646Z</time></trkpt><trkpt lat="43.7019075" lon="11.940456"><ele>964.6666666666666</ele><time>2026-04-29T11:32:23.657Z</time></trkpt><trkpt lat="43.7019795" lon="11.9406784"><ele>964.0</ele><time>2026-04-29T11:32:24.643Z</time></trkpt><trkpt lat="43.7020612" lon="11.940916"><ele>963.0</ele><time>2026-04-29T11:32:25.656Z</time></trkpt><trkpt lat="43.7021524" lon="11.9411651"><ele>962.0</ele><time>2026-04-29T11:32:26.684Z</time></trkpt><trkpt lat="43.7022436" lon="11.9414117"><ele>961.0</ele><time>2026-04-29T11:32:27.682Z</time></trkpt><trkpt lat="43.702329" lon="11.9416531"><ele>956.6666666666666</ele><time>2026-04-29T11:32:28.65Z</time></trkpt><trkpt lat="43.7024127" lon="11.9418967"><ele>952.3333333333333</ele><time>2026-04-29T11:32:29.669Z</time></trkpt><trkpt lat="43.7024924" lon="11.9421206"><ele>948.0</ele><time>2026-04-29T11:32:30.66Z</time></trkpt><trkpt lat="43.7025848" lon="11.9423179"><ele>948.0</ele><time>2026-04-29T11:32:31.65Z</time></trkpt><trkpt lat="43.7027054" lon="11.942473"><ele>948.0</ele><time>2026-04-29T11:32:32.656Z</time></trkpt><trkpt lat="43.7028495" lon="11.9425776"><ele>948.0</ele><time>2026-04-29T11:32:33.645Z</time></trkpt><trkpt lat="43.7030218" lon="11.9426577"><ele>949.0</ele><time>2026-04-29T11:32:34.691Z</time></trkpt><trkpt lat="43.7031836" lon="11.9427445"><ele>950.0</ele><time>2026-04-29T11:32:35.679Z</time></trkpt><trkpt lat="43.7033376" lon="11.9428678"><ele>951.0</ele><time>2026-04-29T11:32:36.666Z</time></trkpt><trkpt lat="43.7034605" lon="11.9430335"><ele>951.0</ele><time>2026-04-29T11:32:37.66Z</time></trkpt><trkpt lat="43.7035453" lon="11.9432303"><ele>951.0</ele><time>2026-04-29T11:32:38.663Z</time></trkpt><trkpt lat="43.7035893" lon="11.9434563"><ele>951.0</ele><time>2026-04-29T11:32:39.654Z</time></trkpt><trkpt lat="43.7035917" lon="11.9437052"><ele>950.6666666666667</ele><time>2026-04-29T11:32:40.656Z</time></trkpt><trkpt lat="43.7035513" lon="11.9439535"><ele>950.3333333333334</ele><time>2026-04-29T11:32:41.645Z</time></trkpt><trkpt lat="43.7034696" lon="11.9442039"><ele>950.0</ele><time>2026-04-29T11:32:42.65Z</time></trkpt><trkpt lat="43.7033624" lon="11.9444564"><ele>952.3333333333334</ele><time>2026-04-29T11:32:43.667Z</time></trkpt><trkpt lat="43.7032546" lon="11.944707"><ele>954.6666666666667</ele><time>2026-04-29T11:32:44.666Z</time></trkpt><trkpt lat="43.7031577" lon="11.94496"><ele>957.0</ele><time>2026-04-29T11:32:45.665Z</time></trkpt><trkpt lat="43.703086" lon="11.9452034"><ele>957.3333333333333</ele><time>2026-04-29T11:32:46.661Z</time></trkpt><trkpt lat="43.7030568" lon="11.9454312"><ele>957.6666666666666</ele><time>2026-04-29T11:32:47.649Z</time></trkpt><trkpt lat="43.7030776" lon="11.9456653"><ele>958.0</ele><time>2026-04-29T11:32:48.661Z</time></trkpt><trkpt lat="43.7031292" lon="11.9459151"><ele>958.6666666666666</ele><time>2026-04-29T11:32:49.678Z</time></trkpt><trkpt lat="43.7031891" lon="11.9461687"><ele>959.3333333333333</ele><time>2026-04-29T11:32:50.657Z</time></trkpt><trkpt lat="43.7032547" lon="11.9464382"><ele>960.0</ele><time>2026-04-29T11:32:51.652Z</time></trkpt><trkpt lat="43.7033251" lon="11.9467258"><ele>961.3333333333333</ele><time>2026-04-29T11:32:52.682Z</time></trkpt><trkpt lat="43.7033924" lon="11.9470009"><ele>962.6666666666666</ele><time>2026-04-29T11:32:53.654Z</time></trkpt><trkpt lat="43.703464" lon="11.9472898"><ele>964.0</ele><time>2026-04-29T11:32:54.661Z</time></trkpt><trkpt lat="43.7035353" lon="11.9475757"><ele>969.0</ele><time>2026-04-29T11:32:55.653Z</time></trkpt><trkpt lat="43.7036064" lon="11.9478653"><ele>974.0</ele><time>2026-04-29T11:32:56.666Z</time></trkpt><trkpt lat="43.7036759" lon="11.9481457"><ele>979.0</ele><time>2026-04-29T11:32:57.66Z</time></trkpt><trkpt lat="43.7037486" lon="11.9484261"><ele>979.0</ele><time>2026-04-29T11:32:58.669Z</time></trkpt><trkpt lat="43.7038175" lon="11.9486872"><ele>979.0</ele><time>2026-04-29T11:32:59.66Z</time></trkpt><trkpt lat="43.7038853" lon="11.9489367"><ele>979.0</ele><time>2026-04-29T11:33:00.67Z</time></trkpt><trkpt lat="43.703948" lon="11.9491693"><ele>979.0</ele><time>2026-04-29T11:33:01.671Z</time></trkpt><trkpt lat="43.7040009" lon="11.9493865"><ele>979.0</ele><time>2026-04-29T11:33:02.654Z</time></trkpt><trkpt lat="43.7040302" lon="11.9496035"><ele>979.0</ele><time>2026-04-29T11:33:03.658Z</time></trkpt><trkpt lat="43.7040392" lon="11.9498126"><ele>979.0</ele><time>2026-04-29T11:33:04.618Z</time></trkpt><trkpt lat="43.7040151" lon="11.9500106"><ele>979.0</ele><time>2026-04-29T11:33:05.607Z</time></trkpt><trkpt lat="43.7039279" lon="11.9501982"><ele>979.0</ele><time>2026-04-29T11:33:06.613Z</time></trkpt><trkpt lat="43.7038072" lon="11.950346"><ele>981.0</ele><time>2026-04-29T11:33:07.621Z</time></trkpt><trkpt lat="43.7036462" lon="11.9504553"><ele>983.0</ele><time>2026-04-29T11:33:08.616Z</time></trkpt><trkpt lat="43.7034637" lon="11.9505888"><ele>985.0</ele><time>2026-04-29T11:33:09.935Z</time></trkpt><trkpt lat="43.703052" lon="11.9507583"><ele>984.0</ele><time>2026-04-29T11:33:11.655Z</time></trkpt><trkpt lat="43.7028807" lon="11.9508881"><ele>983.0</ele><time>2026-04-29T11:33:12.656Z</time></trkpt><trkpt lat="43.7027227" lon="11.9510651"><ele>982.0</ele><time>2026-04-29T11:33:13.677Z</time></trkpt><trkpt lat="43.70258" lon="11.9512748"><ele>982.0</ele><time>2026-04-29T11:33:14.662Z</time></trkpt><trkpt lat="43.7024342" lon="11.9515062"><ele>982.0</ele><time>2026-04-29T11:33:15.675Z</time></trkpt><trkpt lat="43.7022869" lon="11.9517448"><ele>982.0</ele><time>2026-04-29T11:33:16.686Z</time></trkpt><trkpt lat="43.7021481" lon="11.951974"><ele>979.3333333333333</ele><time>2026-04-29T11:33:17.695Z</time></trkpt><trkpt lat="43.7020259" lon="11.9521802"><ele>976.6666666666667</ele><time>2026-04-29T11:33:18.688Z</time></trkpt><trkpt lat="43.7019329" lon="11.9523745"><ele>974.0</ele><time>2026-04-29T11:33:19.676Z</time></trkpt><trkpt lat="43.7018842" lon="11.9525809"><ele>974.0</ele><time>2026-04-29T11:33:20.66Z</time></trkpt><trkpt lat="43.7018556" lon="11.9527907"><ele>974.0</ele><time>2026-04-29T11:33:21.601Z</time></trkpt><trkpt lat="43.7018722" lon="11.9530164"><ele>974.0</ele><time>2026-04-29T11:33:22.602Z</time></trkpt><trkpt lat="43.7019269" lon="11.9532102"><ele>978.3333333333334</ele><time>2026-04-29T11:33:23.605Z</time></trkpt><trkpt lat="43.702039" lon="11.9533944"><ele>982.6666666666667</ele><time>2026-04-29T11:33:24.621Z</time></trkpt><trkpt lat="43.7021953" lon="11.9535601"><ele>987.0</ele><time>2026-04-29T11:33:25.601Z</time></trkpt><trkpt lat="43.7023749" lon="11.9537379"><ele>987.0</ele><time>2026-04-29T11:33:26.591Z</time></trkpt><trkpt lat="43.7025761" lon="11.953958"><ele>987.0</ele><time>2026-04-29T11:33:27.601Z</time></trkpt><trkpt lat="43.7027113" lon="11.9542148"><ele>998.0</ele><time>2026-04-29T11:33:28.615Z</time></trkpt><trkpt lat="43.7027835" lon="11.9545134"><ele>1009.0</ele><time>2026-04-29T11:33:29.616Z</time></trkpt><trkpt lat="43.7027847" lon="11.9548237"><ele>1011.0</ele><time>2026-04-29T11:33:30.6Z</time></trkpt><trkpt lat="43.7028421" lon="11.9551943"><ele>1013.0</ele><time>2026-04-29T11:33:31.911Z</time></trkpt><trkpt lat="43.7025076" lon="11.9556708"><ele>1012.0</ele><time>2026-04-29T11:33:33.661Z</time></trkpt><trkpt lat="43.7023582" lon="11.9559125"><ele>1011.0</ele><time>2026-04-29T11:33:34.656Z</time></trkpt><trkpt lat="43.7022051" lon="11.9561624"><ele>1011.0</ele><time>2026-04-29T11:33:35.659Z</time></trkpt><trkpt lat="43.7020518" lon="11.9564258"><ele>1011.0</ele><time>2026-04-29T11:33:36.685Z</time></trkpt><trkpt lat="43.7019085" lon="11.956677"><ele>1010.6666666666667</ele><time>2026-04-29T11:33:37.661Z</time></trkpt><trkpt lat="43.7017732" lon="11.9569193"><ele>1010.3333333333334</ele><time>2026-04-29T11:33:38.654Z</time></trkpt><trkpt lat="43.7016424" lon="11.9571485"><ele>1010.0</ele><time>2026-04-29T11:33:39.669Z</time></trkpt><trkpt lat="43.7015184" lon="11.9573422"><ele>1010.0</ele><time>2026-04-29T11:33:40.671Z</time></trkpt><trkpt lat="43.7013829" lon="11.9574788"><ele>1010.0</ele><time>2026-04-29T11:33:41.67Z</time></trkpt><trkpt lat="43.7012306" lon="11.9575379"><ele>1010.0</ele><time>2026-04-29T11:33:42.665Z</time></trkpt><trkpt lat="43.7010824" lon="11.9575122"><ele>1010.3333333333334</ele><time>2026-04-29T11:33:43.652Z</time></trkpt><trkpt lat="43.7009335" lon="11.9574147"><ele>1010.6666666666667</ele><time>2026-04-29T11:33:44.675Z</time></trkpt><trkpt lat="43.7007841" lon="11.9572791"><ele>1011.0</ele><time>2026-04-29T11:33:45.67Z</time></trkpt><trkpt lat="43.7006247" lon="11.9571254"><ele>1011.0</ele><time>2026-04-29T11:33:46.678Z</time></trkpt><trkpt lat="43.7004634" lon="11.9569778"><ele>1011.0</ele><time>2026-04-29T11:33:47.66Z</time></trkpt><trkpt lat="43.7002978" lon="11.9568334"><ele>1011.0</ele><time>2026-04-29T11:33:48.66Z</time></trkpt><trkpt lat="43.7001344" lon="11.9566867"><ele>1013.6666666666667</ele><time>2026-04-29T11:33:49.659Z</time></trkpt><trkpt lat="43.6999726" lon="11.956534"><ele>1016.3333333333334</ele><time>2026-04-29T11:33:50.673Z</time></trkpt><trkpt lat="43.6998301" lon="11.9563902"><ele>1019.0</ele><time>2026-04-29T11:33:51.668Z</time></trkpt><trkpt lat="43.6996967" lon="11.9562593"><ele>1019.0</ele><time>2026-04-29T11:33:52.668Z</time></trkpt><trkpt lat="43.6995705" lon="11.9561508"><ele>1019.0</ele><time>2026-04-29T11:33:53.656Z</time></trkpt><trkpt lat="43.6994299" lon="11.956085"><ele>1019.0</ele><time>2026-04-29T11:33:54.67Z</time></trkpt><trkpt lat="43.6992776" lon="11.9560719"><ele>1021.0</ele><time>2026-04-29T11:33:55.674Z</time></trkpt><trkpt lat="43.6991177" lon="11.956111"><ele>1023.0</ele><time>2026-04-29T11:33:56.678Z</time></trkpt><trkpt lat="43.6989706" lon="11.9562109"><ele>1025.0</ele><time>2026-04-29T11:33:57.697Z</time></trkpt><trkpt lat="43.6988514" lon="11.956357"><ele>1025.0</ele><time>2026-04-29T11:33:58.654Z</time></trkpt><trkpt lat="43.6987541" lon="11.9565553"><ele>1025.0</ele><time>2026-04-29T11:33:59.678Z</time></trkpt><trkpt lat="43.6987036" lon="11.9567751"><ele>1025.0</ele><time>2026-04-29T11:34:00.654Z</time></trkpt><trkpt lat="43.6986977" lon="11.957021"><ele>1026.3333333333335</ele><time>2026-04-29T11:34:01.672Z</time></trkpt><trkpt lat="43.6987412" lon="11.9572532"><ele>1027.6666666666667</ele><time>2026-04-29T11:34:02.658Z</time></trkpt><trkpt lat="43.6988314" lon="11.9574749"><ele>1029.0</ele><time>2026-04-29T11:34:03.658Z</time></trkpt><trkpt lat="43.6989516" lon="11.9576954"><ele>1029.6666666666667</ele><time>2026-04-29T11:34:04.673Z</time></trkpt><trkpt lat="43.6990797" lon="11.9579182"><ele>1030.3333333333335</ele><time>2026-04-29T11:34:05.67Z</time></trkpt><trkpt lat="43.6992078" lon="11.9581476"><ele>1031.0</ele><time>2026-04-29T11:34:06.657Z</time></trkpt><trkpt lat="43.6993412" lon="11.9583884"><ele>1033.3333333333335</ele><time>2026-04-29T11:34:07.67Z</time></trkpt><trkpt lat="43.6994744" lon="11.958626"><ele>1035.6666666666667</ele><time>2026-04-29T11:34:08.668Z</time></trkpt><trkpt lat="43.6996096" lon="11.9588636"><ele>1038.0</ele><time>2026-04-29T11:34:09.664Z</time></trkpt><trkpt lat="43.6997455" lon="11.9591022"><ele>1039.0</ele><time>2026-04-29T11:34:10.658Z</time></trkpt><trkpt lat="43.6998841" lon="11.9593464"><ele>1040.0</ele><time>2026-04-29T11:34:11.666Z</time></trkpt><trkpt lat="43.7000222" lon="11.9595869"><ele>1041.0</ele><time>2026-04-29T11:34:12.663Z</time></trkpt><trkpt lat="43.7001553" lon="11.9598268"><ele>1043.0</ele><time>2026-04-29T11:34:13.65Z</time></trkpt><trkpt lat="43.7002917" lon="11.9600752"><ele>1045.0</ele><time>2026-04-29T11:34:14.674Z</time></trkpt><trkpt lat="43.7004188" lon="11.9603045"><ele>1047.0</ele><time>2026-04-29T11:34:15.611Z</time></trkpt><trkpt lat="43.7005563" lon="11.9605407"><ele>1047.0</ele><time>2026-04-29T11:34:16.627Z</time></trkpt><trkpt lat="43.7006863" lon="11.9607694"><ele>1047.0</ele><time>2026-04-29T11:34:17.615Z</time></trkpt><trkpt lat="43.7008041" lon="11.9609868"><ele>1047.0</ele><time>2026-04-29T11:34:18.589Z</time></trkpt><trkpt lat="43.7009235" lon="11.9612071"><ele>1049.0</ele><time>2026-04-29T11:34:19.607Z</time></trkpt><trkpt lat="43.7010303" lon="11.9614057"><ele>1051.0</ele><time>2026-04-29T11:34:20.604Z</time></trkpt><trkpt lat="43.7011344" lon="11.9615946"><ele>1053.0</ele><time>2026-04-29T11:34:21.621Z</time></trkpt><trkpt lat="43.7012308" lon="11.9617535"><ele>1048.6666666666667</ele><time>2026-04-29T11:34:22.597Z</time></trkpt><trkpt lat="43.7013416" lon="11.9618975"><ele>1044.3333333333335</ele><time>2026-04-29T11:34:23.617Z</time></trkpt><trkpt lat="43.7014751" lon="11.9620089"><ele>1040.0</ele><time>2026-04-29T11:34:24.639Z</time></trkpt><trkpt lat="43.7016224" lon="11.9620897"><ele>1040.0</ele><time>2026-04-29T11:34:25.637Z</time></trkpt><trkpt lat="43.7017674" lon="11.9621348"><ele>1040.0</ele><time>2026-04-29T11:34:26.611Z</time></trkpt><trkpt lat="43.701933" lon="11.9621435"><ele>1040.0</ele><time>2026-04-29T11:34:27.587Z</time></trkpt><trkpt lat="43.7021031" lon="11.9621122"><ele>1037.6666666666667</ele><time>2026-04-29T11:34:28.593Z</time></trkpt><trkpt lat="43.7022833" lon="11.9620593"><ele>1035.3333333333333</ele><time>2026-04-29T11:34:29.597Z</time></trkpt><trkpt lat="43.7024661" lon="11.9619795"><ele>1033.0</ele><time>2026-04-29T11:34:30.598Z</time></trkpt><trkpt lat="43.7026636" lon="11.9618997"><ele>1037.0</ele><time>2026-04-29T11:34:31.6Z</time></trkpt><trkpt lat="43.7028718" lon="11.9618166"><ele>1041.0</ele><time>2026-04-29T11:34:32.596Z</time></trkpt><trkpt lat="43.7030843" lon="11.9617364"><ele>1045.0</ele><time>2026-04-29T11:34:33.593Z</time></trkpt><trkpt lat="43.7033065" lon="11.9616465"><ele>1045.0</ele><time>2026-04-29T11:34:34.614Z</time></trkpt><trkpt lat="43.7035157" lon="11.9615571"><ele>1045.0</ele><time>2026-04-29T11:34:35.603Z</time></trkpt><trkpt lat="43.703729" lon="11.9614734"><ele>1045.0</ele><time>2026-04-29T11:34:36.598Z</time></trkpt><trkpt lat="43.7039296" lon="11.9613909"><ele>1040.0</ele><time>2026-04-29T11:34:37.599Z</time></trkpt><trkpt lat="43.7041296" lon="11.9613121"><ele>1035.0</ele><time>2026-04-29T11:34:38.597Z</time></trkpt><trkpt lat="43.7043341" lon="11.9612322"><ele>1030.0</ele><time>2026-04-29T11:34:39.601Z</time></trkpt><trkpt lat="43.7045367" lon="11.9611717"><ele>1026.3333333333333</ele><time>2026-04-29T11:34:40.605Z</time></trkpt><trkpt lat="43.7047336" lon="11.9611296"><ele>1022.6666666666667</ele><time>2026-04-29T11:34:41.606Z</time></trkpt><trkpt lat="43.7049414" lon="11.961136"><ele>1019.0</ele><time>2026-04-29T11:34:42.621Z</time></trkpt><trkpt lat="43.7051354" lon="11.9611955"><ele>1019.0</ele><time>2026-04-29T11:34:43.601Z</time></trkpt><trkpt lat="43.7053382" lon="11.9612969"><ele>1019.0</ele><time>2026-04-29T11:34:44.597Z</time></trkpt><trkpt lat="43.7055446" lon="11.9614097"><ele>1019.0</ele><time>2026-04-29T11:34:45.612Z</time></trkpt><trkpt lat="43.7057386" lon="11.9615233"><ele>1019.0</ele><time>2026-04-29T11:34:46.604Z</time></trkpt><trkpt lat="43.7059227" lon="11.961635"><ele>1019.0</ele><time>2026-04-29T11:34:47.607Z</time></trkpt><trkpt lat="43.706083" lon="11.9617653"><ele>1019.0</ele><time>2026-04-29T11:34:48.616Z</time></trkpt><trkpt lat="43.7062121" lon="11.9619249"><ele>1024.3333333333335</ele><time>2026-04-29T11:34:49.602Z</time></trkpt><trkpt lat="43.7063023" lon="11.962141"><ele>1029.6666666666667</ele><time>2026-04-29T11:34:50.603Z</time></trkpt><trkpt lat="43.7063615" lon="11.9623965"><ele>1035.0</ele><time>2026-04-29T11:34:51.624Z</time></trkpt><trkpt lat="43.7063694" lon="11.9626601"><ele>1036.3333333333333</ele><time>2026-04-29T11:34:52.618Z</time></trkpt><trkpt lat="43.70633" lon="11.962948"><ele>1037.6666666666665</ele><time>2026-04-29T11:34:53.625Z</time></trkpt><trkpt lat="43.7062589" lon="11.9632363"><ele>1039.0</ele><time>2026-04-29T11:34:54.613Z</time></trkpt><trkpt lat="43.7061781" lon="11.9635362"><ele>1040.5</ele><time>2026-04-29T11:34:55.602Z</time></trkpt><trkpt lat="43.7060802" lon="11.9638463"><ele>1042.0</ele><time>2026-04-29T11:34:56.614Z</time></trkpt><trkpt lat="43.7059853" lon="11.9641685"><ele>1024.5</ele><time>2026-04-29T11:34:57.623Z</time></trkpt><trkpt lat="43.705887" lon="11.9644955"><ele>1007.0</ele><time>2026-04-29T11:34:58.615Z</time></trkpt><trkpt lat="43.7057788" lon="11.9648477"><ele>1007.5</ele><time>2026-04-29T11:34:59.599Z</time></trkpt><trkpt lat="43.7056673" lon="11.9652095"><ele>1008.0</ele><time>2026-04-29T11:35:00.608Z</time></trkpt><trkpt lat="43.705559" lon="11.9655665"><ele>1007.0</ele><time>2026-04-29T11:35:01.627Z</time></trkpt><trkpt lat="43.7054504" lon="11.9659"><ele>1006.0</ele><time>2026-04-29T11:35:02.613Z</time></trkpt><trkpt lat="43.7053175" lon="11.9663354"><ele>995.5</ele><time>2026-04-29T11:35:03.958Z</time></trkpt><trkpt lat="43.7052069" lon="11.9668352"><ele>985.0</ele><time>2026-04-29T11:35:05.674Z</time></trkpt><trkpt lat="43.705168" lon="11.9671349"><ele>985.0</ele><time>2026-04-29T11:35:06.671Z</time></trkpt><trkpt lat="43.7051516" lon="11.9674463"><ele>985.0</ele><time>2026-04-29T11:35:07.663Z</time></trkpt><trkpt lat="43.7051594" lon="11.9677628"><ele>984.6666666666666</ele><time>2026-04-29T11:35:08.667Z</time></trkpt><trkpt lat="43.7051763" lon="11.9680555"><ele>984.3333333333333</ele><time>2026-04-29T11:35:09.662Z</time></trkpt><trkpt lat="43.7051852" lon="11.9683267"><ele>984.0</ele><time>2026-04-29T11:35:10.639Z</time></trkpt><trkpt lat="43.7051788" lon="11.9685875"><ele>984.0</ele><time>2026-04-29T11:35:11.613Z</time></trkpt><trkpt lat="43.705132" lon="11.9688366"><ele>984.0</ele><time>2026-04-29T11:35:12.627Z</time></trkpt><trkpt lat="43.7050405" lon="11.9690594"><ele>984.0</ele><time>2026-04-29T11:35:13.618Z</time></trkpt><trkpt lat="43.704905" lon="11.9692534"><ele>985.0</ele><time>2026-04-29T11:35:14.591Z</time></trkpt><trkpt lat="43.704731" lon="11.9694509"><ele>986.0</ele><time>2026-04-29T11:35:15.606Z</time></trkpt><trkpt lat="43.7045538" lon="11.9696437"><ele>981.0</ele><time>2026-04-29T11:35:16.589Z</time></trkpt><trkpt lat="43.704362" lon="11.9698601"><ele>976.0</ele><time>2026-04-29T11:35:17.602Z</time></trkpt><trkpt lat="43.7041673" lon="11.9700874"><ele>976.0</ele><time>2026-04-29T11:35:18.638Z</time></trkpt><trkpt lat="43.7039838" lon="11.970294"><ele>976.0</ele><time>2026-04-29T11:35:19.615Z</time></trkpt><trkpt lat="43.7038131" lon="11.9704947"><ele>976.0</ele><time>2026-04-29T11:35:20.598Z</time></trkpt><trkpt lat="43.7036399" lon="11.9706984"><ele>976.0</ele><time>2026-04-29T11:35:21.629Z</time></trkpt><trkpt lat="43.7034906" lon="11.9709058"><ele>976.0</ele><time>2026-04-29T11:35:22.631Z</time></trkpt><trkpt lat="43.7033812" lon="11.9711221"><ele>971.5</ele><time>2026-04-29T11:35:23.598Z</time></trkpt><trkpt lat="43.7032808" lon="11.9714008"><ele>967.0</ele><time>2026-04-29T11:35:24.609Z</time></trkpt><trkpt lat="43.7031949" lon="11.9717112"><ele>967.0</ele><time>2026-04-29T11:35:25.62Z</time></trkpt><trkpt lat="43.7031061" lon="11.9720242"><ele>967.0</ele><time>2026-04-29T11:35:26.604Z</time></trkpt><trkpt lat="43.7030119" lon="11.972362"><ele>967.5</ele><time>2026-04-29T11:35:27.611Z</time></trkpt><trkpt lat="43.7029179" lon="11.9727034"><ele>968.0</ele><time>2026-04-29T11:35:28.606Z</time></trkpt><trkpt lat="43.7028229" lon="11.9730583"><ele>955.0</ele><time>2026-04-29T11:35:29.62Z</time></trkpt><trkpt lat="43.7027271" lon="11.9734179"><ele>942.0</ele><time>2026-04-29T11:35:30.634Z</time></trkpt><trkpt lat="43.7026337" lon="11.9737613"><ele>942.0</ele><time>2026-04-29T11:35:31.607Z</time></trkpt><trkpt lat="43.7025399" lon="11.9741117"><ele>942.0</ele><time>2026-04-29T11:35:32.622Z</time></trkpt><trkpt lat="43.7024508" lon="11.9744431"><ele>942.0</ele><time>2026-04-29T11:35:33.608Z</time></trkpt><trkpt lat="43.7023604" lon="11.9747605"><ele>942.0</ele><time>2026-04-29T11:35:34.609Z</time></trkpt><trkpt lat="43.7022748" lon="11.9750481"><ele>942.0</ele><time>2026-04-29T11:35:35.606Z</time></trkpt><trkpt lat="43.7022014" lon="11.9753048"><ele>942.0</ele><time>2026-04-29T11:35:36.622Z</time></trkpt><trkpt lat="43.7021443" lon="11.9755256"><ele>942.0</ele><time>2026-04-29T11:35:37.61Z</time></trkpt><trkpt lat="43.7021132" lon="11.9757372"><ele>937.6666666666667</ele><time>2026-04-29T11:35:38.607Z</time></trkpt><trkpt lat="43.7021288" lon="11.9759352"><ele>933.3333333333334</ele><time>2026-04-29T11:35:39.599Z</time></trkpt><trkpt lat="43.7021904" lon="11.9761202"><ele>929.0</ele><time>2026-04-29T11:35:40.597Z</time></trkpt><trkpt lat="43.702305" lon="11.976288"><ele>929.0</ele><time>2026-04-29T11:35:41.61Z</time></trkpt><trkpt lat="43.7024579" lon="11.9764373"><ele>929.0</ele><time>2026-04-29T11:35:42.607Z</time></trkpt><trkpt lat="43.7026376" lon="11.9765837"><ele>929.0</ele><time>2026-04-29T11:35:43.611Z</time></trkpt><trkpt lat="43.7028257" lon="11.9767419"><ele>925.0</ele><time>2026-04-29T11:35:44.629Z</time></trkpt><trkpt lat="43.7030134" lon="11.9769053"><ele>921.0</ele><time>2026-04-29T11:35:45.602Z</time></trkpt><trkpt lat="43.703209" lon="11.9770887"><ele>921.0</ele><time>2026-04-29T11:35:46.606Z</time></trkpt><trkpt lat="43.7033867" lon="11.9772607"><ele>921.0</ele><time>2026-04-29T11:35:47.62Z</time></trkpt><trkpt lat="43.7035421" lon="11.9774507"><ele>921.0</ele><time>2026-04-29T11:35:48.618Z</time></trkpt><trkpt lat="43.7036677" lon="11.977667"><ele>922.0</ele><time>2026-04-29T11:35:49.616Z</time></trkpt><trkpt lat="43.7037652" lon="11.9779329"><ele>923.0</ele><time>2026-04-29T11:35:50.61Z</time></trkpt><trkpt lat="43.7038592" lon="11.9782264"><ele>924.0</ele><time>2026-04-29T11:35:51.631Z</time></trkpt><trkpt lat="43.7039448" lon="11.9785044"><ele>920.3333333333333</ele><time>2026-04-29T11:35:52.625Z</time></trkpt><trkpt lat="43.7040245" lon="11.9787514"><ele>916.6666666666666</ele><time>2026-04-29T11:35:53.609Z</time></trkpt><trkpt lat="43.7040949" lon="11.9789579"><ele>913.0</ele><time>2026-04-29T11:35:54.615Z</time></trkpt><trkpt lat="43.7041382" lon="11.9791331"><ele>908.4</ele><time>2026-04-29T11:35:55.621Z</time></trkpt><trkpt lat="43.7041407" lon="11.9792752"><ele>903.8</ele><time>2026-04-29T11:35:56.604Z</time></trkpt><trkpt lat="43.7040983" lon="11.9793957"><ele>899.2</ele><time>2026-04-29T11:35:57.618Z</time></trkpt><trkpt lat="43.7040192" lon="11.9794699"><ele>894.6</ele><time>2026-04-29T11:35:58.611Z</time></trkpt><trkpt lat="43.7039087" lon="11.9794845"><ele>890.0</ele><time>2026-04-29T11:35:59.626Z</time></trkpt><trkpt lat="43.7038085" lon="11.9794232"><ele>890.0</ele><time>2026-04-29T11:36:00.622Z</time></trkpt><trkpt lat="43.7036989" lon="11.9792799"><ele>890.0</ele><time>2026-04-29T11:36:01.629Z</time></trkpt><trkpt lat="43.7035371" lon="11.9790403"><ele>890.0</ele><time>2026-04-29T11:36:02.973Z</time></trkpt><trkpt lat="43.7032548" lon="11.9785603"><ele>893.6666666666667</ele><time>2026-04-29T11:36:04.727Z</time></trkpt><trkpt lat="43.7031204" lon="11.9783563"><ele>897.3333333333333</ele><time>2026-04-29T11:36:05.659Z</time></trkpt><trkpt lat="43.7029739" lon="11.9781402"><ele>901.0</ele><time>2026-04-29T11:36:06.683Z</time></trkpt><trkpt lat="43.702817" lon="11.9779674"><ele>897.3333333333333</ele><time>2026-04-29T11:36:07.663Z</time></trkpt><trkpt lat="43.7026642" lon="11.9778494"><ele>893.6666666666667</ele><time>2026-04-29T11:36:08.681Z</time></trkpt><trkpt lat="43.7024533" lon="11.9777445"><ele>890.0</ele><time>2026-04-29T11:36:09.675Z</time></trkpt><trkpt lat="43.7022362" lon="11.9776622"><ele>890.0</ele><time>2026-04-29T11:36:10.673Z</time></trkpt><trkpt lat="43.7020292" lon="11.9775854"><ele>890.0</ele><time>2026-04-29T11:36:11.659Z</time></trkpt><trkpt lat="43.7018269" lon="11.9775104"><ele>890.0</ele><time>2026-04-29T11:36:12.654Z</time></trkpt><trkpt lat="43.7016302" lon="11.9774342"><ele>891.6666666666667</ele><time>2026-04-29T11:36:13.668Z</time></trkpt><trkpt lat="43.7014461" lon="11.9773636"><ele>893.3333333333333</ele><time>2026-04-29T11:36:14.662Z</time></trkpt><trkpt lat="43.7012728" lon="11.9772939"><ele>895.0</ele><time>2026-04-29T11:36:15.667Z</time></trkpt><trkpt lat="43.701114" lon="11.9772325"><ele>892.75</ele><time>2026-04-29T11:36:16.671Z</time></trkpt><trkpt lat="43.7009673" lon="11.97718"><ele>890.5</ele><time>2026-04-29T11:36:17.671Z</time></trkpt><trkpt lat="43.7008311" lon="11.9771421"><ele>888.25</ele><time>2026-04-29T11:36:18.676Z</time></trkpt><trkpt lat="43.7007068" lon="11.9771395"><ele>886.0</ele><time>2026-04-29T11:36:19.676Z</time></trkpt><trkpt lat="43.700596" lon="11.9771893"><ele>886.0</ele><time>2026-04-29T11:36:20.691Z</time></trkpt><trkpt lat="43.7005082" lon="11.9772907"><ele>886.0</ele><time>2026-04-29T11:36:21.692Z</time></trkpt><trkpt lat="43.7004463" lon="11.977431"><ele>886.0</ele><time>2026-04-29T11:36:22.674Z</time></trkpt><trkpt lat="43.7004239" lon="11.9775847"><ele>886.0</ele><time>2026-04-29T11:36:23.662Z</time></trkpt><trkpt lat="43.7004374" lon="11.9777437"><ele>883.5</ele><time>2026-04-29T11:36:24.678Z</time></trkpt><trkpt lat="43.7004955" lon="11.9778965"><ele>881.0</ele><time>2026-04-29T11:36:25.676Z</time></trkpt><trkpt lat="43.7005979" lon="11.9780175"><ele>878.5</ele><time>2026-04-29T11:36:26.656Z</time></trkpt><trkpt lat="43.7007332" lon="11.9780984"><ele>876.0</ele><time>2026-04-29T11:36:27.683Z</time></trkpt><trkpt lat="43.7009024" lon="11.9781303"><ele>876.6666666666667</ele><time>2026-04-29T11:36:28.66Z</time></trkpt><trkpt lat="43.7010861" lon="11.9781557"><ele>877.3333333333334</ele><time>2026-04-29T11:36:29.659Z</time></trkpt><trkpt lat="43.7012602" lon="11.9781908"><ele>878.0</ele><time>2026-04-29T11:36:30.657Z</time></trkpt><trkpt lat="43.7014254" lon="11.9782445"><ele>878.0</ele><time>2026-04-29T11:36:31.69Z</time></trkpt><trkpt lat="43.7015717" lon="11.978336"><ele>878.0</ele><time>2026-04-29T11:36:32.664Z</time></trkpt><trkpt lat="43.7016937" lon="11.9784674"><ele>878.0</ele><time>2026-04-29T11:36:33.663Z</time></trkpt><trkpt lat="43.7017962" lon="11.9787076"><ele>877.3333333333334</ele><time>2026-04-29T11:36:34.663Z</time></trkpt><trkpt lat="43.7018597" lon="11.9789761"><ele>876.6666666666667</ele><time>2026-04-29T11:36:35.669Z</time></trkpt><trkpt lat="43.7019063" lon="11.9792755"><ele>876.0</ele><time>2026-04-29T11:36:36.665Z</time></trkpt><trkpt lat="43.7019589" lon="11.9795926"><ele>876.0</ele><time>2026-04-29T11:36:37.659Z</time></trkpt><trkpt lat="43.7020105" lon="11.9798989"><ele>876.0</ele><time>2026-04-29T11:36:38.659Z</time></trkpt><trkpt lat="43.7020614" lon="11.9801978"><ele>876.0</ele><time>2026-04-29T11:36:39.677Z</time></trkpt><trkpt lat="43.7021069" lon="11.9804706"><ele>872.6666666666667</ele><time>2026-04-29T11:36:40.667Z</time></trkpt><trkpt lat="43.7021613" lon="11.9807133"><ele>869.3333333333334</ele><time>2026-04-29T11:36:41.673Z</time></trkpt><trkpt lat="43.7022406" lon="11.9809045"><ele>866.0</ele><time>2026-04-29T11:36:42.66Z</time></trkpt><trkpt lat="43.7023617" lon="11.9810534"><ele>858.3333333333334</ele><time>2026-04-29T11:36:43.666Z</time></trkpt><trkpt lat="43.702506" lon="11.9811456"><ele>850.6666666666667</ele><time>2026-04-29T11:36:44.675Z</time></trkpt><trkpt lat="43.7026631" lon="11.9811682"><ele>843.0</ele><time>2026-04-29T11:36:45.663Z</time></trkpt><trkpt lat="43.7028387" lon="11.981129"><ele>837.3333333333333</ele><time>2026-04-29T11:36:46.683Z</time></trkpt><trkpt lat="43.7030208" lon="11.9810492"><ele>831.6666666666666</ele><time>2026-04-29T11:36:47.662Z</time></trkpt><trkpt lat="43.7032276" lon="11.9809551"><ele>826.0</ele><time>2026-04-29T11:36:48.673Z</time></trkpt><trkpt lat="43.7034478" lon="11.9808702"><ele>840.5</ele><time>2026-04-29T11:36:49.659Z</time></trkpt><trkpt lat="43.7036851" lon="11.9808157"><ele>855.0</ele><time>2026-04-29T11:36:50.663Z</time></trkpt><trkpt lat="43.7039423" lon="11.9808005"><ele>855.0</ele><time>2026-04-29T11:36:51.664Z</time></trkpt><trkpt lat="43.7042072" lon="11.9808082"><ele>855.0</ele><time>2026-04-29T11:36:52.671Z</time></trkpt><trkpt lat="43.7044584" lon="11.9808198"><ele>854.5</ele><time>2026-04-29T11:36:53.615Z</time></trkpt><trkpt lat="43.704732" lon="11.9808304"><ele>854.0</ele><time>2026-04-29T11:36:54.613Z</time></trkpt><trkpt lat="43.7049988" lon="11.9808416"><ele>843.0</ele><time>2026-04-29T11:36:55.612Z</time></trkpt><trkpt lat="43.7052679" lon="11.9808552"><ele>832.0</ele><time>2026-04-29T11:36:56.625Z</time></trkpt><trkpt lat="43.705514" lon="11.9808668"><ele>832.0</ele><time>2026-04-29T11:36:57.61Z</time></trkpt><trkpt lat="43.7057377" lon="11.9808807"><ele>832.0</ele><time>2026-04-29T11:36:58.621Z</time></trkpt><trkpt lat="43.7059323" lon="11.9808852"><ele>832.0</ele><time>2026-04-29T11:36:59.611Z</time></trkpt><trkpt lat="43.7060954" lon="11.9808992"><ele>834.5</ele><time>2026-04-29T11:37:00.611Z</time></trkpt><trkpt lat="43.7062186" lon="11.9809289"><ele>837.0</ele><time>2026-04-29T11:37:01.622Z</time></trkpt><trkpt lat="43.706299" lon="11.9809955"><ele>839.5</ele><time>2026-04-29T11:37:02.603Z</time></trkpt><trkpt lat="43.7063654" lon="11.9811164"><ele>842.0</ele><time>2026-04-29T11:37:03.594Z</time></trkpt><trkpt lat="43.7064227" lon="11.9813048"><ele>842.0</ele><time>2026-04-29T11:37:04.613Z</time></trkpt><trkpt lat="43.7064883" lon="11.9815147"><ele>842.0</ele><time>2026-04-29T11:37:05.608Z</time></trkpt><trkpt lat="43.7065204" lon="11.9817057"><ele>842.0</ele><time>2026-04-29T11:37:06.611Z</time></trkpt><trkpt lat="43.7065108" lon="11.9818654"><ele>842.0</ele><time>2026-04-29T11:37:07.612Z</time></trkpt><trkpt lat="43.7064579" lon="11.9819976"><ele>844.0</ele><time>2026-04-29T11:37:08.614Z</time></trkpt><trkpt lat="43.7063615" lon="11.982109"><ele>846.0</ele><time>2026-04-29T11:37:09.593Z</time></trkpt><trkpt lat="43.7062594" lon="11.9822376"><ele>848.0</ele><time>2026-04-29T11:37:10.593Z</time></trkpt><trkpt lat="43.7061182" lon="11.9823407"><ele>850.0</ele><time>2026-04-29T11:37:11.626Z</time></trkpt><trkpt lat="43.7059438" lon="11.9824143"><ele>850.0</ele><time>2026-04-29T11:37:12.618Z</time></trkpt><trkpt lat="43.7057674" lon="11.9824413"><ele>850.0</ele><time>2026-04-29T11:37:13.624Z</time></trkpt><trkpt lat="43.7055644" lon="11.9824776"><ele>850.0</ele><time>2026-04-29T11:37:14.616Z</time></trkpt><trkpt lat="43.7053639" lon="11.9825195"><ele>858.0</ele><time>2026-04-29T11:37:15.608Z</time></trkpt><trkpt lat="43.705126" lon="11.9825364"><ele>866.0</ele><time>2026-04-29T11:37:16.619Z</time></trkpt><trkpt lat="43.7048746" lon="11.9825487"><ele>866.0</ele><time>2026-04-29T11:37:17.599Z</time></trkpt><trkpt lat="43.7045073" lon="11.9825677"><ele>866.0</ele><time>2026-04-29T11:37:18.617Z</time></trkpt><trkpt lat="43.7041864" lon="11.9826463"><ele>860.0</ele><time>2026-04-29T11:37:19.615Z</time></trkpt><trkpt lat="43.7038935" lon="11.982781"><ele>854.0</ele><time>2026-04-29T11:37:20.618Z</time></trkpt><trkpt lat="43.7036182" lon="11.9829469"><ele>844.5</ele><time>2026-04-29T11:37:21.618Z</time></trkpt><trkpt lat="43.7033644" lon="11.9831077"><ele>835.0</ele><time>2026-04-29T11:37:22.616Z</time></trkpt><trkpt lat="43.7031494" lon="11.9832775"><ele>841.5</ele><time>2026-04-29T11:37:23.617Z</time></trkpt><trkpt lat="43.7029382" lon="11.9834526"><ele>848.0</ele><time>2026-04-29T11:37:24.615Z</time></trkpt><trkpt lat="43.7027848" lon="11.9836492"><ele>845.0</ele><time>2026-04-29T11:37:25.612Z</time></trkpt><trkpt lat="43.702722" lon="11.9838739"><ele>842.0</ele><time>2026-04-29T11:37:26.631Z</time></trkpt><trkpt lat="43.7026056" lon="11.9841185"><ele>839.0</ele><time>2026-04-29T11:37:27.62Z</time></trkpt><trkpt lat="43.7024723" lon="11.9843816"><ele>839.0</ele><time>2026-04-29T11:37:28.618Z</time></trkpt><trkpt lat="43.7022721" lon="11.9847235"><ele>839.0</ele><time>2026-04-29T11:37:29.972Z</time></trkpt><trkpt lat="43.7020131" lon="11.9852673"><ele>837.5</ele><time>2026-04-29T11:37:31.659Z</time></trkpt><trkpt lat="43.7018751" lon="11.9855292"><ele>836.0</ele><time>2026-04-29T11:37:32.67Z</time></trkpt><trkpt lat="43.7017342" lon="11.9857651"><ele>849.5</ele><time>2026-04-29T11:37:33.666Z</time></trkpt><trkpt lat="43.7015676" lon="11.9859706"><ele>863.0</ele><time>2026-04-29T11:37:34.674Z</time></trkpt><trkpt lat="43.7013697" lon="11.9861366"><ele>863.0</ele><time>2026-04-29T11:37:35.676Z</time></trkpt><trkpt lat="43.7011664" lon="11.9862696"><ele>863.0</ele><time>2026-04-29T11:37:36.62Z</time></trkpt><trkpt lat="43.7009394" lon="11.9863968"><ele>853.0</ele><time>2026-04-29T11:37:37.626Z</time></trkpt><trkpt lat="43.7007249" lon="11.9865166"><ele>843.0</ele><time>2026-04-29T11:37:38.615Z</time></trkpt><trkpt lat="43.7005143" lon="11.9866164"><ele>850.0</ele><time>2026-04-29T11:37:39.608Z</time></trkpt><trkpt lat="43.7003106" lon="11.9866809"><ele>857.0</ele><time>2026-04-29T11:37:40.614Z</time></trkpt><trkpt lat="43.7001057" lon="11.9867052"><ele>864.0</ele><time>2026-04-29T11:37:41.613Z</time></trkpt><trkpt lat="43.6998864" lon="11.9866939"><ele>848.0</ele><time>2026-04-29T11:37:42.608Z</time></trkpt><trkpt lat="43.6996608" lon="11.9866632"><ele>832.0</ele><time>2026-04-29T11:37:43.622Z</time></trkpt><trkpt lat="43.6994257" lon="11.9866305"><ele>832.0</ele><time>2026-04-29T11:37:44.627Z</time></trkpt><trkpt lat="43.6991854" lon="11.9865908"><ele>832.0</ele><time>2026-04-29T11:37:45.612Z</time></trkpt><trkpt lat="43.698936" lon="11.9865432"><ele>832.0</ele><time>2026-04-29T11:37:46.62Z</time></trkpt><trkpt lat="43.698683" lon="11.9864994"><ele>832.0</ele><time>2026-04-29T11:37:47.635Z</time></trkpt><trkpt lat="43.6984358" lon="11.9864617"><ele>838.0</ele><time>2026-04-29T11:37:48.619Z</time></trkpt><trkpt lat="43.698097" lon="11.9864129"><ele>844.0</ele><time>2026-04-29T11:37:49.968Z</time></trkpt><trkpt lat="43.697697" lon="11.9863278"><ele>844.0</ele><time>2026-04-29T11:37:51.666Z</time></trkpt><trkpt lat="43.6974787" lon="11.9862823"><ele>844.0</ele><time>2026-04-29T11:37:52.683Z</time></trkpt><trkpt lat="43.6972872" lon="11.9862535"><ele>844.0</ele><time>2026-04-29T11:37:53.667Z</time></trkpt><trkpt lat="43.6971071" lon="11.9862661"><ele>844.0</ele><time>2026-04-29T11:37:54.669Z</time></trkpt><trkpt lat="43.6969348" lon="11.9863295"><ele>844.0</ele><time>2026-04-29T11:37:55.638Z</time></trkpt><trkpt lat="43.6967622" lon="11.9864207"><ele>844.0</ele><time>2026-04-29T11:37:56.605Z</time></trkpt><trkpt lat="43.696577" lon="11.9865404"><ele>844.5</ele><time>2026-04-29T11:37:57.622Z</time></trkpt><trkpt lat="43.6963468" lon="11.9867009"><ele>845.0</ele><time>2026-04-29T11:37:58.94Z</time></trkpt><trkpt lat="43.696057" lon="11.9869537"><ele>839.6666666666667</ele><time>2026-04-29T11:38:00.681Z</time></trkpt><trkpt lat="43.6959343" lon="11.9871389"><ele>834.3333333333333</ele><time>2026-04-29T11:38:01.675Z</time></trkpt><trkpt lat="43.6958339" lon="11.9873627"><ele>829.0</ele><time>2026-04-29T11:38:02.677Z</time></trkpt><trkpt lat="43.6957431" lon="11.9876072"><ele>828.0</ele><time>2026-04-29T11:38:03.662Z</time></trkpt><trkpt lat="43.6956474" lon="11.9878708"><ele>827.0</ele><time>2026-04-29T11:38:04.663Z</time></trkpt><trkpt lat="43.695544" lon="11.9881482"><ele>826.0</ele><time>2026-04-29T11:38:05.679Z</time></trkpt><trkpt lat="43.695443" lon="11.9884214"><ele>827.3333333333333</ele><time>2026-04-29T11:38:06.667Z</time></trkpt><trkpt lat="43.6953437" lon="11.988692"><ele>828.6666666666667</ele><time>2026-04-29T11:38:07.671Z</time></trkpt><trkpt lat="43.6952502" lon="11.9889495"><ele>830.0</ele><time>2026-04-29T11:38:08.666Z</time></trkpt><trkpt lat="43.6951524" lon="11.9891996"><ele>823.3333333333334</ele><time>2026-04-29T11:38:09.666Z</time></trkpt><trkpt lat="43.6950383" lon="11.9894308"><ele>816.6666666666667</ele><time>2026-04-29T11:38:10.665Z</time></trkpt><trkpt lat="43.6949214" lon="11.9896195"><ele>810.0</ele><time>2026-04-29T11:38:11.67Z</time></trkpt><trkpt lat="43.6947848" lon="11.9897737"><ele>810.0</ele><time>2026-04-29T11:38:12.67Z</time></trkpt><trkpt lat="43.6946111" lon="11.9899007"><ele>810.0</ele><time>2026-04-29T11:38:13.66Z</time></trkpt><trkpt lat="43.6944001" lon="11.9899934"><ele>810.0</ele><time>2026-04-29T11:38:14.705Z</time></trkpt><trkpt lat="43.6941837" lon="11.990054"><ele>802.5</ele><time>2026-04-29T11:38:15.665Z</time></trkpt><trkpt lat="43.6939472" lon="11.9900967"><ele>795.0</ele><time>2026-04-29T11:38:16.663Z</time></trkpt><trkpt lat="43.6937044" lon="11.9901402"><ele>796.5</ele><time>2026-04-29T11:38:17.619Z</time></trkpt><trkpt lat="43.6934511" lon="11.9901911"><ele>798.0</ele><time>2026-04-29T11:38:18.627Z</time></trkpt><trkpt lat="43.6932184" lon="11.9902484"><ele>798.0</ele><time>2026-04-29T11:38:19.609Z</time></trkpt><trkpt lat="43.6930103" lon="11.9903014"><ele>798.0</ele><time>2026-04-29T11:38:20.611Z</time></trkpt><trkpt lat="43.692812" lon="11.9903441"><ele>798.0</ele><time>2026-04-29T11:38:21.638Z</time></trkpt><trkpt lat="43.6926452" lon="11.9903565"><ele>797.6666666666667</ele><time>2026-04-29T11:38:22.62Z</time></trkpt><trkpt lat="43.6924554" lon="11.9903144"><ele>797.3333333333334</ele><time>2026-04-29T11:38:23.623Z</time></trkpt><trkpt lat="43.6922899" lon="11.9902325"><ele>797.0</ele><time>2026-04-29T11:38:24.623Z</time></trkpt><trkpt lat="43.6921174" lon="11.9901582"><ele>797.0</ele><time>2026-04-29T11:38:25.63Z</time></trkpt><trkpt lat="43.6919332" lon="11.9900956"><ele>797.0</ele><time>2026-04-29T11:38:26.619Z</time></trkpt><trkpt lat="43.6917309" lon="11.9900921"><ele>797.0</ele><time>2026-04-29T11:38:27.621Z</time></trkpt><trkpt lat="43.6915787" lon="11.9901572"><ele>794.0</ele><time>2026-04-29T11:38:28.647Z</time></trkpt><trkpt lat="43.691386" lon="11.9902808"><ele>791.0</ele><time>2026-04-29T11:38:29.618Z</time></trkpt><trkpt lat="43.6911798" lon="11.9904435"><ele>794.5</ele><time>2026-04-29T11:38:30.619Z</time></trkpt><trkpt lat="43.6909918" lon="11.9906105"><ele>798.0</ele><time>2026-04-29T11:38:31.611Z</time></trkpt><trkpt lat="43.690767" lon="11.9908025"><ele>790.5</ele><time>2026-04-29T11:38:32.636Z</time></trkpt><trkpt lat="43.6905382" lon="11.9909823"><ele>783.0</ele><time>2026-04-29T11:38:33.618Z</time></trkpt><trkpt lat="43.690307" lon="11.9911739"><ele>789.0</ele><time>2026-04-29T11:38:34.617Z</time></trkpt><trkpt lat="43.6900748" lon="11.9913722"><ele>795.0</ele><time>2026-04-29T11:38:35.625Z</time></trkpt><trkpt lat="43.6898389" lon="11.9915699"><ele>790.5</ele><time>2026-04-29T11:38:36.624Z</time></trkpt><trkpt lat="43.6896248" lon="11.9917524"><ele>786.0</ele><time>2026-04-29T11:38:37.604Z</time></trkpt><trkpt lat="43.6894201" lon="11.9919297"><ele>786.0</ele><time>2026-04-29T11:38:38.621Z</time></trkpt><trkpt lat="43.6892303" lon="11.992083"><ele>786.0</ele><time>2026-04-29T11:38:39.61Z</time></trkpt><trkpt lat="43.6890497" lon="11.992231"><ele>786.0</ele><time>2026-04-29T11:38:40.628Z</time></trkpt><trkpt lat="43.6888914" lon="11.9923555"><ele>786.0</ele><time>2026-04-29T11:38:41.612Z</time></trkpt><trkpt lat="43.6887465" lon="11.9924426"><ele>786.0</ele><time>2026-04-29T11:38:42.602Z</time></trkpt><trkpt lat="43.6886069" lon="11.9924767"><ele>786.0</ele><time>2026-04-29T11:38:43.619Z</time></trkpt><trkpt lat="43.6884698" lon="11.9924402"><ele>786.0</ele><time>2026-04-29T11:38:44.61Z</time></trkpt><trkpt lat="43.6883169" lon="11.9923519"><ele>787.3333333333333</ele><time>2026-04-29T11:38:45.61Z</time></trkpt><trkpt lat="43.6881642" lon="11.9922493"><ele>788.6666666666666</ele><time>2026-04-29T11:38:46.624Z</time></trkpt><trkpt lat="43.687981" lon="11.9921222"><ele>790.0</ele><time>2026-04-29T11:38:47.62Z</time></trkpt><trkpt lat="43.6877868" lon="11.9919892"><ele>783.0</ele><time>2026-04-29T11:38:48.621Z</time></trkpt><trkpt lat="43.6875811" lon="11.9918424"><ele>776.0</ele><time>2026-04-29T11:38:49.621Z</time></trkpt><trkpt lat="43.6873746" lon="11.9917048"><ele>782.5</ele><time>2026-04-29T11:38:50.615Z</time></trkpt><trkpt lat="43.6871458" lon="11.9915571"><ele>789.0</ele><time>2026-04-29T11:38:51.626Z</time></trkpt><trkpt lat="43.6869282" lon="11.9914424"><ele>787.0</ele><time>2026-04-29T11:38:52.613Z</time></trkpt><trkpt lat="43.6867546" lon="11.9913761"><ele>785.0</ele><time>2026-04-29T11:38:53.611Z</time></trkpt><trkpt lat="43.6865399" lon="11.9913713"><ele>783.0</ele><time>2026-04-29T11:38:54.633Z</time></trkpt><trkpt lat="43.6863277" lon="11.9914582"><ele>783.0</ele><time>2026-04-29T11:38:55.611Z</time></trkpt><trkpt lat="43.6861167" lon="11.991578"><ele>783.0</ele><time>2026-04-29T11:38:56.611Z</time></trkpt><trkpt lat="43.685914" lon="11.9917475"><ele>776.0</ele><time>2026-04-29T11:38:57.607Z</time></trkpt><trkpt lat="43.6857062" lon="11.9919149"><ele>769.0</ele><time>2026-04-29T11:38:58.617Z</time></trkpt><trkpt lat="43.6854768" lon="11.9920797"><ele>772.5</ele><time>2026-04-29T11:38:59.616Z</time></trkpt><trkpt lat="43.6852415" lon="11.9922551"><ele>776.0</ele><time>2026-04-29T11:39:00.615Z</time></trkpt><trkpt lat="43.6850156" lon="11.9924255"><ele>771.5</ele><time>2026-04-29T11:39:01.615Z</time></trkpt><trkpt lat="43.6847802" lon="11.992632"><ele>767.0</ele><time>2026-04-29T11:39:02.931Z</time></trkpt><trkpt lat="43.6843094" lon="11.9928467"><ele>767.0</ele><time>2026-04-29T11:39:04.692Z</time></trkpt><trkpt lat="43.6840609" lon="11.9929265"><ele>767.0</ele><time>2026-04-29T11:39:05.662Z</time></trkpt><trkpt lat="43.6837691" lon="11.9930064"><ele>765.5</ele><time>2026-04-29T11:39:06.672Z</time></trkpt><trkpt lat="43.6834827" lon="11.9930908"><ele>764.0</ele><time>2026-04-29T11:39:07.679Z</time></trkpt><trkpt lat="43.6832138" lon="11.9931664"><ele>764.0</ele><time>2026-04-29T11:39:08.623Z</time></trkpt><trkpt lat="43.6829288" lon="11.9932415"><ele>764.0</ele><time>2026-04-29T11:39:09.614Z</time></trkpt><trkpt lat="43.6826451" lon="11.9933155"><ele>757.5</ele><time>2026-04-29T11:39:10.614Z</time></trkpt><trkpt lat="43.6823713" lon="11.9933865"><ele>751.0</ele><time>2026-04-29T11:39:11.614Z</time></trkpt><trkpt lat="43.6821065" lon="11.9934549"><ele>751.5</ele><time>2026-04-29T11:39:12.632Z</time></trkpt><trkpt lat="43.681862" lon="11.9935168"><ele>752.0</ele><time>2026-04-29T11:39:13.612Z</time></trkpt><trkpt lat="43.681632" lon="11.9935834"><ele>752.0</ele><time>2026-04-29T11:39:14.605Z</time></trkpt><trkpt lat="43.6814171" lon="11.9936454"><ele>752.0</ele><time>2026-04-29T11:39:15.633Z</time></trkpt><trkpt lat="43.6812337" lon="11.9937107"><ele>752.0</ele><time>2026-04-29T11:39:16.614Z</time></trkpt><trkpt lat="43.6810609" lon="11.993793"><ele>751.0</ele><time>2026-04-29T11:39:17.603Z</time></trkpt><trkpt lat="43.6808981" lon="11.9939217"><ele>750.0</ele><time>2026-04-29T11:39:18.605Z</time></trkpt><trkpt lat="43.6807843" lon="11.9940976"><ele>749.0</ele><time>2026-04-29T11:39:19.626Z</time></trkpt><trkpt lat="43.6806752" lon="11.9943212"><ele>749.0</ele><time>2026-04-29T11:39:20.618Z</time></trkpt><trkpt lat="43.6805957" lon="11.9945717"><ele>749.0</ele><time>2026-04-29T11:39:21.603Z</time></trkpt><trkpt lat="43.6805365" lon="11.9948255"><ele>749.0</ele><time>2026-04-29T11:39:22.602Z</time></trkpt><trkpt lat="43.6804847" lon="11.9950736"><ele>750.0</ele><time>2026-04-29T11:39:23.625Z</time></trkpt><trkpt lat="43.6803904" lon="11.9952861"><ele>751.0</ele><time>2026-04-29T11:39:24.622Z</time></trkpt><trkpt lat="43.6802794" lon="11.9954903"><ele>752.0</ele><time>2026-04-29T11:39:25.639Z</time></trkpt><trkpt lat="43.6801729" lon="11.9956896"><ele>746.3333333333333</ele><time>2026-04-29T11:39:26.615Z</time></trkpt><trkpt lat="43.6800606" lon="11.995896"><ele>740.6666666666666</ele><time>2026-04-29T11:39:27.606Z</time></trkpt><trkpt lat="43.6799353" lon="11.9961099"><ele>735.0</ele><time>2026-04-29T11:39:28.617Z</time></trkpt><trkpt lat="43.6797956" lon="11.9963386"><ele>735.0</ele><time>2026-04-29T11:39:29.634Z</time></trkpt><trkpt lat="43.6796332" lon="11.9965784"><ele>735.0</ele><time>2026-04-29T11:39:30.613Z</time></trkpt><trkpt lat="43.6794461" lon="11.9968465"><ele>735.5</ele><time>2026-04-29T11:39:31.618Z</time></trkpt><trkpt lat="43.6792701" lon="11.9970953"><ele>736.0</ele><time>2026-04-29T11:39:32.624Z</time></trkpt><trkpt lat="43.6790622" lon="11.9973183"><ele>727.0</ele><time>2026-04-29T11:39:33.619Z</time></trkpt><trkpt lat="43.6788745" lon="11.9975126"><ele>718.0</ele><time>2026-04-29T11:39:34.61Z</time></trkpt><trkpt lat="43.6786858" lon="11.9976679"><ele>719.5</ele><time>2026-04-29T11:39:35.629Z</time></trkpt><trkpt lat="43.6785637" lon="11.9977616"><ele>721.0</ele><time>2026-04-29T11:39:36.627Z</time></trkpt><trkpt lat="43.6784357" lon="11.9977771"><ele>722.5</ele><time>2026-04-29T11:39:37.617Z</time></trkpt><trkpt lat="43.6783039" lon="11.9977279"><ele>724.0</ele><time>2026-04-29T11:39:38.624Z</time></trkpt><trkpt lat="43.6781145" lon="11.997667"><ele>724.0</ele><time>2026-04-29T11:39:39.629Z</time></trkpt><trkpt lat="43.6779008" lon="11.9976258"><ele>724.0</ele><time>2026-04-29T11:39:40.622Z</time></trkpt><trkpt lat="43.6776658" lon="11.9976468"><ele>731.0</ele><time>2026-04-29T11:39:41.624Z</time></trkpt><trkpt lat="43.6774273" lon="11.9977755"><ele>738.0</ele><time>2026-04-29T11:39:42.62Z</time></trkpt><trkpt lat="43.6771994" lon="11.9979687"><ele>738.0</ele><time>2026-04-29T11:39:43.606Z</time></trkpt><trkpt lat="43.6772124" lon="11.9982213"><ele>738.0</ele><time>2026-04-29T11:39:44.62Z</time></trkpt><trkpt lat="43.6770811" lon="11.9984941"><ele>738.0</ele><time>2026-04-29T11:39:45.608Z</time></trkpt><trkpt lat="43.6769884" lon="11.9987683"><ele>730.0</ele><time>2026-04-29T11:39:46.632Z</time></trkpt><trkpt lat="43.6769639" lon="11.9990542"><ele>722.0</ele><time>2026-04-29T11:39:47.6Z</time></trkpt><trkpt lat="43.6769008" lon="11.9993326"><ele>714.0</ele><time>2026-04-29T11:39:48.61Z</time></trkpt><trkpt lat="43.6768646" lon="11.999436"><ele>713.4000000000001</ele><time>2026-04-29T11:39:49.607Z</time></trkpt><trkpt lat="43.6768028" lon="11.9995063"><ele>712.8</ele><time>2026-04-29T11:39:50.617Z</time></trkpt><trkpt lat="43.6767411" lon="11.9995266"><ele>712.2</ele><time>2026-04-29T11:39:51.613Z</time></trkpt><trkpt lat="43.6766566" lon="11.9995683"><ele>711.5999999999999</ele><time>2026-04-29T11:39:52.632Z</time></trkpt><trkpt lat="43.6765338" lon="11.9996492"><ele>711.0</ele><time>2026-04-29T11:39:53.617Z</time></trkpt><trkpt lat="43.6763673" lon="11.9997753"><ele>711.0</ele><time>2026-04-29T11:39:54.633Z</time></trkpt><trkpt lat="43.6761791" lon="11.99997"><ele>711.0</ele><time>2026-04-29T11:39:55.614Z</time></trkpt><trkpt lat="43.6754667" lon="12.0003619"><ele>715.0</ele><time>2026-04-29T11:39:56.624Z</time></trkpt><trkpt lat="43.6753516" lon="12.0005941"><ele>719.0</ele><time>2026-04-29T11:39:57.637Z</time></trkpt><trkpt lat="43.6752468" lon="12.0008314"><ele>723.0</ele><time>2026-04-29T11:39:58.618Z</time></trkpt><trkpt lat="43.6751061" lon="12.0011484"><ele>725.0</ele><time>2026-04-29T11:39:59.932Z</time></trkpt><trkpt lat="43.6750906" lon="12.0015819"><ele>727.0</ele><time>2026-04-29T11:40:01.667Z</time></trkpt><trkpt lat="43.6751146" lon="12.0018115"><ele>727.0</ele><time>2026-04-29T11:40:02.658Z</time></trkpt><trkpt lat="43.6751697" lon="12.0020617"><ele>727.0</ele><time>2026-04-29T11:40:03.662Z</time></trkpt><trkpt lat="43.6752443" lon="12.002333"><ele>727.0</ele><time>2026-04-29T11:40:04.669Z</time></trkpt><trkpt lat="43.6753099" lon="12.0025643"><ele>721.25</ele><time>2026-04-29T11:40:05.676Z</time></trkpt><trkpt lat="43.6753731" lon="12.002785"><ele>715.5</ele><time>2026-04-29T11:40:06.668Z</time></trkpt><trkpt lat="43.6754051" lon="12.0029916"><ele>709.75</ele><time>2026-04-29T11:40:07.669Z</time></trkpt><trkpt lat="43.6753887" lon="12.0031267"><ele>704.0</ele><time>2026-04-29T11:40:08.677Z</time></trkpt><trkpt lat="43.6753456" lon="12.0032347"><ele>704.0</ele><time>2026-04-29T11:40:09.664Z</time></trkpt><trkpt lat="43.6752939" lon="12.0032956"><ele>704.0</ele><time>2026-04-29T11:40:10.682Z</time></trkpt><trkpt lat="43.6752317" lon="12.0034682"><ele>704.0</ele><time>2026-04-29T11:40:11.675Z</time></trkpt><trkpt lat="43.6751391" lon="12.0036274"><ele>704.0</ele><time>2026-04-29T11:40:12.688Z</time></trkpt><trkpt lat="43.6750204" lon="12.0036925"><ele>707.3333333333333</ele><time>2026-04-29T11:40:13.666Z</time></trkpt><trkpt lat="43.6748657" lon="12.0037303"><ele>710.6666666666666</ele><time>2026-04-29T11:40:14.652Z</time></trkpt><trkpt lat="43.6747093" lon="12.0037024"><ele>714.0</ele><time>2026-04-29T11:40:15.675Z</time></trkpt><trkpt lat="43.674567" lon="12.0035616"><ele>715.3333333333334</ele><time>2026-04-29T11:40:16.664Z</time></trkpt><trkpt lat="43.6744094" lon="12.0033741"><ele>716.6666666666667</ele><time>2026-04-29T11:40:17.666Z</time></trkpt><trkpt lat="43.6742677" lon="12.0031834"><ele>718.0</ele><time>2026-04-29T11:40:18.659Z</time></trkpt><trkpt lat="43.6741151" lon="12.0029865"><ele>718.0</ele><time>2026-04-29T11:40:19.711Z</time></trkpt><trkpt lat="43.6739778" lon="12.0028027"><ele>718.0</ele><time>2026-04-29T11:40:20.667Z</time></trkpt><trkpt lat="43.6738043" lon="12.0026803"><ele>718.0</ele><time>2026-04-29T11:40:21.683Z</time></trkpt><trkpt lat="43.6735977" lon="12.0026007"><ele>719.6666666666667</ele><time>2026-04-29T11:40:22.654Z</time></trkpt><trkpt lat="43.6733804" lon="12.0025126"><ele>721.3333333333334</ele><time>2026-04-29T11:40:23.67Z</time></trkpt><trkpt lat="43.6732079" lon="12.0024521"><ele>723.0</ele><time>2026-04-29T11:40:24.671Z</time></trkpt><trkpt lat="43.6730434" lon="12.0023883"><ele>723.0</ele><time>2026-04-29T11:40:25.678Z</time></trkpt><trkpt lat="43.6728983" lon="12.0023332"><ele>723.0</ele><time>2026-04-29T11:40:26.605Z</time></trkpt><trkpt lat="43.672757" lon="12.0022966"><ele>723.0</ele><time>2026-04-29T11:40:27.609Z</time></trkpt><trkpt lat="43.6726463" lon="12.0023096"><ele>723.0</ele><time>2026-04-29T11:40:28.617Z</time></trkpt><trkpt lat="43.6725626" lon="12.0023802"><ele>715.3333333333334</ele><time>2026-04-29T11:40:29.619Z</time></trkpt><trkpt lat="43.672472" lon="12.0025177"><ele>707.6666666666667</ele><time>2026-04-29T11:40:30.623Z</time></trkpt><trkpt lat="43.6723635" lon="12.0027789"><ele>700.0</ele><time>2026-04-29T11:40:31.618Z</time></trkpt><trkpt lat="43.6722845" lon="12.0030314"><ele>700.0</ele><time>2026-04-29T11:40:32.613Z</time></trkpt><trkpt lat="43.6722148" lon="12.0032445"><ele>700.0</ele><time>2026-04-29T11:40:33.62Z</time></trkpt><trkpt lat="43.6721228" lon="12.0034962"><ele>700.0</ele><time>2026-04-29T11:40:34.963Z</time></trkpt><trkpt lat="43.6720187" lon="12.0038081"><ele>703.0</ele><time>2026-04-29T11:40:36.675Z</time></trkpt><trkpt lat="43.6719492" lon="12.0039893"><ele>706.0</ele><time>2026-04-29T11:40:37.659Z</time></trkpt><trkpt lat="43.6718383" lon="12.0041608"><ele>709.0</ele><time>2026-04-29T11:40:38.675Z</time></trkpt><trkpt lat="43.6717158" lon="12.0043101"><ele>701.6666666666667</ele><time>2026-04-29T11:40:39.675Z</time></trkpt><trkpt lat="43.6716004" lon="12.0044569"><ele>694.3333333333334</ele><time>2026-04-29T11:40:40.686Z</time></trkpt><trkpt lat="43.6715017" lon="12.0046181"><ele>687.0</ele><time>2026-04-29T11:40:41.669Z</time></trkpt><trkpt lat="43.6714122" lon="12.0047896"><ele>687.0</ele><time>2026-04-29T11:40:42.662Z</time></trkpt><trkpt lat="43.6713471" lon="12.0049868"><ele>687.0</ele><time>2026-04-29T11:40:43.681Z</time></trkpt><trkpt lat="43.6713254" lon="12.0052111"><ele>687.0</ele><time>2026-04-29T11:40:44.683Z</time></trkpt><trkpt lat="43.6712952" lon="12.0054127"><ele>685.6666666666666</ele><time>2026-04-29T11:40:45.658Z</time></trkpt><trkpt lat="43.6712504" lon="12.0056205"><ele>684.3333333333333</ele><time>2026-04-29T11:40:46.663Z</time></trkpt><trkpt lat="43.6711789" lon="12.0058098"><ele>683.0</ele><time>2026-04-29T11:40:47.669Z</time></trkpt><trkpt lat="43.6710911" lon="12.0059763"><ele>683.0</ele><time>2026-04-29T11:40:48.67Z</time></trkpt><trkpt lat="43.6709893" lon="12.0061405"><ele>683.0</ele><time>2026-04-29T11:40:49.684Z</time></trkpt><trkpt lat="43.6708906" lon="12.0063006"><ele>683.0</ele><time>2026-04-29T11:40:50.668Z</time></trkpt><trkpt lat="43.6707927" lon="12.0064677"><ele>683.0</ele><time>2026-04-29T11:40:51.675Z</time></trkpt><trkpt lat="43.6707072" lon="12.0066356"><ele>683.0</ele><time>2026-04-29T11:40:52.663Z</time></trkpt><trkpt lat="43.6706383" lon="12.0068138"><ele>683.0</ele><time>2026-04-29T11:40:53.675Z</time></trkpt><trkpt lat="43.6706022" lon="12.0070192"><ele>683.0</ele><time>2026-04-29T11:40:54.67Z</time></trkpt><trkpt lat="43.6706093" lon="12.0072503"><ele>678.0</ele><time>2026-04-29T11:40:55.682Z</time></trkpt><trkpt lat="43.6706426" lon="12.0074155"><ele>673.0</ele><time>2026-04-29T11:40:56.665Z</time></trkpt><trkpt lat="43.670683" lon="12.0076851"><ele>668.0</ele><time>2026-04-29T11:40:57.631Z</time></trkpt><trkpt lat="43.6707408" lon="12.0079701"><ele>665.5</ele><time>2026-04-29T11:40:58.614Z</time></trkpt><trkpt lat="43.6708833" lon="12.0082932"><ele>663.0</ele><time>2026-04-29T11:40:59.948Z</time></trkpt><trkpt lat="43.6710693" lon="12.0089258"><ele>654.0</ele><time>2026-04-29T11:41:01.667Z</time></trkpt><trkpt lat="43.6711628" lon="12.009201"><ele>645.0</ele><time>2026-04-29T11:41:02.663Z</time></trkpt><trkpt lat="43.671279" lon="12.0094404"><ele>636.0</ele><time>2026-04-29T11:41:03.672Z</time></trkpt><trkpt lat="43.6713592" lon="12.0096544"><ele>636.0</ele><time>2026-04-29T11:41:04.663Z</time></trkpt><trkpt lat="43.6714124" lon="12.0098521"><ele>636.0</ele><time>2026-04-29T11:41:05.67Z</time></trkpt><trkpt lat="43.6714242" lon="12.0100405"><ele>636.0</ele><time>2026-04-29T11:41:06.682Z</time></trkpt><trkpt lat="43.6713873" lon="12.0102329"><ele>636.0</ele><time>2026-04-29T11:41:07.674Z</time></trkpt><trkpt lat="43.671291" lon="12.0104092"><ele>637.0</ele><time>2026-04-29T11:41:08.675Z</time></trkpt><trkpt lat="43.6711547" lon="12.0105683"><ele>638.0</ele><time>2026-04-29T11:41:09.667Z</time></trkpt><trkpt lat="43.6710056" lon="12.0107461"><ele>639.0</ele><time>2026-04-29T11:41:10.67Z</time></trkpt><trkpt lat="43.6708679" lon="12.0109623"><ele>638.3333333333334</ele><time>2026-04-29T11:41:11.665Z</time></trkpt><trkpt lat="43.6707766" lon="12.0111881"><ele>637.6666666666667</ele><time>2026-04-29T11:41:12.674Z</time></trkpt><trkpt lat="43.6707348" lon="12.0114551"><ele>637.0</ele><time>2026-04-29T11:41:13.657Z</time></trkpt><trkpt lat="43.6707193" lon="12.011725"><ele>637.0</ele><time>2026-04-29T11:41:14.686Z</time></trkpt><trkpt lat="43.6706806" lon="12.0119507"><ele>637.0</ele><time>2026-04-29T11:41:15.671Z</time></trkpt><trkpt lat="43.670617" lon="12.0121528"><ele>637.0</ele><time>2026-04-29T11:41:16.667Z</time></trkpt><trkpt lat="43.6705119" lon="12.0123224"><ele>637.0</ele><time>2026-04-29T11:41:17.675Z</time></trkpt><trkpt lat="43.6703784" lon="12.0124349"><ele>637.0</ele><time>2026-04-29T11:41:18.677Z</time></trkpt><trkpt lat="43.6702298" lon="12.0124881"><ele>637.0</ele><time>2026-04-29T11:41:19.671Z</time></trkpt><trkpt lat="43.6700951" lon="12.012495"><ele>637.0</ele><time>2026-04-29T11:41:20.668Z</time></trkpt><trkpt lat="43.6698867" lon="12.0123965"><ele>640.0</ele><time>2026-04-29T11:41:21.672Z</time></trkpt><trkpt lat="43.6696927" lon="12.0122923"><ele>643.0</ele><time>2026-04-29T11:41:22.669Z</time></trkpt><trkpt lat="43.6695067" lon="12.0122108"><ele>646.0</ele><time>2026-04-29T11:41:23.677Z</time></trkpt><trkpt lat="43.669342" lon="12.0121601"><ele>646.6666666666667</ele><time>2026-04-29T11:41:24.618Z</time></trkpt><trkpt lat="43.6691808" lon="12.01214"><ele>647.3333333333334</ele><time>2026-04-29T11:41:25.634Z</time></trkpt><trkpt lat="43.6690185" lon="12.0121783"><ele>648.0</ele><time>2026-04-29T11:41:26.614Z</time></trkpt><trkpt lat="43.6688605" lon="12.0122593"><ele>648.0</ele><time>2026-04-29T11:41:27.624Z</time></trkpt><trkpt lat="43.6686327" lon="12.0124649"><ele>648.0</ele><time>2026-04-29T11:41:28.626Z</time></trkpt><trkpt lat="43.6684121" lon="12.0126469"><ele>642.6666666666666</ele><time>2026-04-29T11:41:29.603Z</time></trkpt><trkpt lat="43.6681986" lon="12.0127806"><ele>637.3333333333333</ele><time>2026-04-29T11:41:30.618Z</time></trkpt><trkpt lat="43.6680253" lon="12.0128838"><ele>632.0</ele><time>2026-04-29T11:41:31.631Z</time></trkpt><trkpt lat="43.667922" lon="12.0129749"><ele>632.0</ele><time>2026-04-29T11:41:32.625Z</time></trkpt><trkpt lat="43.6678202" lon="12.0130914"><ele>632.0</ele><time>2026-04-29T11:41:33.62Z</time></trkpt><trkpt lat="43.6677551" lon="12.0132255"><ele>632.0</ele><time>2026-04-29T11:41:34.617Z</time></trkpt><trkpt lat="43.667729" lon="12.0133774"><ele>632.0</ele><time>2026-04-29T11:41:35.611Z</time></trkpt><trkpt lat="43.6677369" lon="12.0135931"><ele>623.0</ele><time>2026-04-29T11:41:36.972Z</time></trkpt><trkpt lat="43.6678887" lon="12.0138427"><ele>614.0</ele><time>2026-04-29T11:41:38.819Z</time></trkpt><trkpt lat="43.6681604" lon="12.0139861"><ele>614.0</ele><time>2026-04-29T11:41:40.678Z</time></trkpt><trkpt lat="43.6683407" lon="12.0140454"><ele>614.0</ele><time>2026-04-29T11:41:41.658Z</time></trkpt><trkpt lat="43.6685173" lon="12.0141069"><ele>614.0</ele><time>2026-04-29T11:41:42.667Z</time></trkpt><trkpt lat="43.668662" lon="12.0141704"><ele>608.75</ele><time>2026-04-29T11:41:43.673Z</time></trkpt><trkpt lat="43.6687755" lon="12.0142704"><ele>603.5</ele><time>2026-04-29T11:41:44.684Z</time></trkpt><trkpt lat="43.6688586" lon="12.0144233"><ele>598.25</ele><time>2026-04-29T11:41:45.697Z</time></trkpt><trkpt lat="43.6689097" lon="12.0146159"><ele>593.0</ele><time>2026-04-29T11:41:46.672Z</time></trkpt><trkpt lat="43.6689149" lon="12.0148107"><ele>592.0</ele><time>2026-04-29T11:41:47.66Z</time></trkpt><trkpt lat="43.6688741" lon="12.0149944"><ele>591.0</ele><time>2026-04-29T11:41:48.658Z</time></trkpt><trkpt lat="43.6687852" lon="12.015161"><ele>590.0</ele><time>2026-04-29T11:41:49.649Z</time></trkpt><trkpt lat="43.6686479" lon="12.0153099"><ele>594.3333333333333</ele><time>2026-04-29T11:41:50.664Z</time></trkpt><trkpt lat="43.6684833" lon="12.0154257"><ele>598.6666666666666</ele><time>2026-04-29T11:41:51.665Z</time></trkpt><trkpt lat="43.6682628" lon="12.0154862"><ele>603.0</ele><time>2026-04-29T11:41:52.667Z</time></trkpt><trkpt lat="43.6680514" lon="12.0155429"><ele>603.0</ele><time>2026-04-29T11:41:53.68Z</time></trkpt><trkpt lat="43.6678654" lon="12.015619"><ele>603.0</ele><time>2026-04-29T11:41:54.676Z</time></trkpt><trkpt lat="43.6677071" lon="12.0157394"><ele>603.0</ele><time>2026-04-29T11:41:55.686Z</time></trkpt><trkpt lat="43.6675756" lon="12.0159154"><ele>602.3333333333334</ele><time>2026-04-29T11:41:56.679Z</time></trkpt><trkpt lat="43.6674561" lon="12.01613"><ele>601.6666666666667</ele><time>2026-04-29T11:41:57.661Z</time></trkpt><trkpt lat="43.6673706" lon="12.0163773"><ele>601.0</ele><time>2026-04-29T11:41:58.667Z</time></trkpt><trkpt lat="43.6673256" lon="12.0166654"><ele>597.6666666666667</ele><time>2026-04-29T11:41:59.681Z</time></trkpt><trkpt lat="43.6673001" lon="12.0169199"><ele>594.3333333333334</ele><time>2026-04-29T11:42:00.671Z</time></trkpt><trkpt lat="43.6672768" lon="12.0171626"><ele>591.0</ele><time>2026-04-29T11:42:01.681Z</time></trkpt><trkpt lat="43.6672685" lon="12.0173866"><ele>590.75</ele><time>2026-04-29T11:42:02.659Z</time></trkpt><trkpt lat="43.6672972" lon="12.0175983"><ele>590.5</ele><time>2026-04-29T11:42:03.688Z</time></trkpt><trkpt lat="43.6673514" lon="12.0177704"><ele>590.25</ele><time>2026-04-29T11:42:04.67Z</time></trkpt><trkpt lat="43.6674178" lon="12.0179345"><ele>590.0</ele><time>2026-04-29T11:42:05.671Z</time></trkpt><trkpt lat="43.6674828" lon="12.0180929"><ele>590.0</ele><time>2026-04-29T11:42:06.637Z</time></trkpt><trkpt lat="43.6675501" lon="12.0182735"><ele>590.0</ele><time>2026-04-29T11:42:07.63Z</time></trkpt><trkpt lat="43.6675958" lon="12.0184638"><ele>590.0</ele><time>2026-04-29T11:42:08.625Z</time></trkpt><trkpt lat="43.667614" lon="12.0186941"><ele>589.25</ele><time>2026-04-29T11:42:09.618Z</time></trkpt><trkpt lat="43.6676195" lon="12.0189256"><ele>588.5</ele><time>2026-04-29T11:42:10.613Z</time></trkpt><trkpt lat="43.6676084" lon="12.0191439"><ele>587.75</ele><time>2026-04-29T11:42:11.646Z</time></trkpt><trkpt lat="43.667593" lon="12.0192846"><ele>587.0</ele><time>2026-04-29T11:42:12.602Z</time></trkpt><trkpt lat="43.6675754" lon="12.0194233"><ele>586.0</ele><time>2026-04-29T11:42:13.642Z</time></trkpt><trkpt lat="43.6675516" lon="12.0195468"><ele>585.0</ele><time>2026-04-29T11:42:14.617Z</time></trkpt><trkpt lat="43.6674952" lon="12.0196525"><ele>584.0</ele><time>2026-04-29T11:42:15.619Z</time></trkpt><trkpt lat="43.6673971" lon="12.0197188"><ele>583.0</ele><time>2026-04-29T11:42:16.626Z</time></trkpt><trkpt lat="43.6672771" lon="12.0197594"><ele>582.0</ele><time>2026-04-29T11:42:17.638Z</time></trkpt><trkpt lat="43.667161" lon="12.0198274"><ele>582.0</ele><time>2026-04-29T11:42:18.63Z</time></trkpt><trkpt lat="43.6670358" lon="12.0199136"><ele>582.0</ele><time>2026-04-29T11:42:19.608Z</time></trkpt><trkpt lat="43.6669401" lon="12.020036"><ele>582.0</ele><time>2026-04-29T11:42:20.619Z</time></trkpt><trkpt lat="43.6668998" lon="12.0201827"><ele>582.0</ele><time>2026-04-29T11:42:21.607Z</time></trkpt><trkpt lat="43.6668833" lon="12.0203344"><ele>583.6</ele><time>2026-04-29T11:42:22.625Z</time></trkpt><trkpt lat="43.6669101" lon="12.020472"><ele>585.2</ele><time>2026-04-29T11:42:23.618Z</time></trkpt><trkpt lat="43.6669664" lon="12.0206021"><ele>586.8</ele><time>2026-04-29T11:42:24.644Z</time></trkpt><trkpt lat="43.6670485" lon="12.0207196"><ele>588.4</ele><time>2026-04-29T11:42:25.66Z</time></trkpt><trkpt lat="43.6671171" lon="12.0208416"><ele>590.0</ele><time>2026-04-29T11:42:26.617Z</time></trkpt><trkpt lat="43.6671765" lon="12.0209813"><ele>581.6666666666666</ele><time>2026-04-29T11:42:27.933Z</time></trkpt><trkpt lat="43.667265" lon="12.0212337"><ele>573.3333333333334</ele><time>2026-04-29T11:42:29.67Z</time></trkpt><trkpt lat="43.6672664" lon="12.0214025"><ele>565.0</ele><time>2026-04-29T11:42:30.696Z</time></trkpt><trkpt lat="43.6672321" lon="12.0216211"><ele>565.6666666666667</ele><time>2026-04-29T11:42:31.675Z</time></trkpt><trkpt lat="43.6671966" lon="12.0218475"><ele>566.3333333333334</ele><time>2026-04-29T11:42:32.684Z</time></trkpt><trkpt lat="43.6672123" lon="12.0220451"><ele>567.0</ele><time>2026-04-29T11:42:33.65Z</time></trkpt><trkpt lat="43.6673118" lon="12.0222416"><ele>567.0</ele><time>2026-04-29T11:42:34.677Z</time></trkpt><trkpt lat="43.6674076" lon="12.0224063"><ele>567.0</ele><time>2026-04-29T11:42:35.671Z</time></trkpt><trkpt lat="43.6674811" lon="12.0225465"><ele>567.0</ele><time>2026-04-29T11:42:36.679Z</time></trkpt><trkpt lat="43.667595" lon="12.0226627"><ele>567.0</ele><time>2026-04-29T11:42:37.672Z</time></trkpt><trkpt lat="43.6677437" lon="12.0227644"><ele>561.3333333333334</ele><time>2026-04-29T11:42:38.666Z</time></trkpt><trkpt lat="43.6679187" lon="12.0228411"><ele>555.6666666666667</ele><time>2026-04-29T11:42:39.667Z</time></trkpt><trkpt lat="43.6680778" lon="12.0228594"><ele>550.0</ele><time>2026-04-29T11:42:40.666Z</time></trkpt><trkpt lat="43.6682198" lon="12.0228757"><ele>550.0</ele><time>2026-04-29T11:42:41.675Z</time></trkpt><trkpt lat="43.6683394" lon="12.0228952"><ele>550.0</ele><time>2026-04-29T11:42:42.674Z</time></trkpt><trkpt lat="43.6684384" lon="12.0229156"><ele>550.0</ele><time>2026-04-29T11:42:43.689Z</time></trkpt><trkpt lat="43.6685157" lon="12.0229568"><ele>550.0</ele><time>2026-04-29T11:42:44.675Z</time></trkpt><trkpt lat="43.6685533" lon="12.0230446"><ele>550.0</ele><time>2026-04-29T11:42:45.681Z</time></trkpt><trkpt lat="43.6685356" lon="12.0231432"><ele>550.0</ele><time>2026-04-29T11:42:46.664Z</time></trkpt><trkpt lat="43.6684659" lon="12.0232104"><ele>550.0</ele><time>2026-04-29T11:42:47.671Z</time></trkpt><trkpt lat="43.6683665" lon="12.0232368"><ele>550.0</ele><time>2026-04-29T11:42:48.675Z</time></trkpt><trkpt lat="43.6682633" lon="12.0232523"><ele>550.0</ele><time>2026-04-29T11:42:49.681Z</time></trkpt><trkpt lat="43.6681606" lon="12.023275"><ele>550.0</ele><time>2026-04-29T11:42:50.686Z</time></trkpt><trkpt lat="43.6680653" lon="12.0233081"><ele>550.5</ele><time>2026-04-29T11:42:51.68Z</time></trkpt><trkpt lat="43.6679925" lon="12.0233797"><ele>551.0</ele><time>2026-04-29T11:42:52.68Z</time></trkpt><trkpt lat="43.6679622" lon="12.0234848"><ele>551.5</ele><time>2026-04-29T11:42:53.667Z</time></trkpt><trkpt lat="43.667985" lon="12.0236106"><ele>552.0</ele><time>2026-04-29T11:42:54.793Z</time></trkpt><trkpt lat="43.6681588" lon="12.0237784"><ele>552.0</ele><time>2026-04-29T11:42:56.664Z</time></trkpt><trkpt lat="43.6682893" lon="12.0238665"><ele>552.0</ele><time>2026-04-29T11:42:57.668Z</time></trkpt><trkpt lat="43.668428" lon="12.0239721"><ele>552.0</ele><time>2026-04-29T11:42:58.67Z</time></trkpt><trkpt lat="43.6685722" lon="12.0240871"><ele>546.3333333333334</ele><time>2026-04-29T11:42:59.68Z</time></trkpt><trkpt lat="43.6687057" lon="12.0242043"><ele>540.6666666666667</ele><time>2026-04-29T11:43:00.673Z</time></trkpt><trkpt lat="43.6688358" lon="12.0243501"><ele>535.0</ele><time>2026-04-29T11:43:01.661Z</time></trkpt><trkpt lat="43.6689651" lon="12.0245002"><ele>535.0</ele><time>2026-04-29T11:43:02.632Z</time></trkpt><trkpt lat="43.6690922" lon="12.0246871"><ele>535.0</ele><time>2026-04-29T11:43:03.629Z</time></trkpt><trkpt lat="43.6691836" lon="12.0248861"><ele>535.0</ele><time>2026-04-29T11:43:04.63Z</time></trkpt><trkpt lat="43.6692669" lon="12.0251059"><ele>536.0</ele><time>2026-04-29T11:43:05.622Z</time></trkpt><trkpt lat="43.6693499" lon="12.0253279"><ele>537.0</ele><time>2026-04-29T11:43:06.635Z</time></trkpt><trkpt lat="43.6694184" lon="12.0255507"><ele>538.0</ele><time>2026-04-29T11:43:07.643Z</time></trkpt><trkpt lat="43.669487" lon="12.0257512"><ele>530.6666666666667</ele><time>2026-04-29T11:43:08.626Z</time></trkpt><trkpt lat="43.6695786" lon="12.0259306"><ele>523.3333333333334</ele><time>2026-04-29T11:43:09.611Z</time></trkpt><trkpt lat="43.6696823" lon="12.0260885"><ele>516.0</ele><time>2026-04-29T11:43:10.605Z</time></trkpt><trkpt lat="43.6698013" lon="12.0262355"><ele>516.0</ele><time>2026-04-29T11:43:11.595Z</time></trkpt><trkpt lat="43.6699209" lon="12.0263892"><ele>516.0</ele><time>2026-04-29T11:43:12.645Z</time></trkpt><trkpt lat="43.670037" lon="12.0265"><ele>516.0</ele><time>2026-04-29T11:43:13.633Z</time></trkpt><trkpt lat="43.670151" lon="12.0265746"><ele>516.0</ele><time>2026-04-29T11:43:14.617Z</time></trkpt><trkpt lat="43.6702639" lon="12.026611"><ele>514.2</ele><time>2026-04-29T11:43:15.612Z</time></trkpt><trkpt lat="43.6703767" lon="12.0266204"><ele>512.4000000000001</ele><time>2026-04-29T11:43:16.612Z</time></trkpt><trkpt lat="43.6704832" lon="12.0266265"><ele>510.6</ele><time>2026-04-29T11:43:17.62Z</time></trkpt><trkpt lat="43.6705459" lon="12.026677"><ele>508.8</ele><time>2026-04-29T11:43:18.604Z</time></trkpt><trkpt lat="43.67054" lon="12.026781"><ele>507.0</ele><time>2026-04-29T11:43:19.611Z</time></trkpt><trkpt lat="43.6704748" lon="12.0269038"><ele>507.0</ele><time>2026-04-29T11:43:20.599Z</time></trkpt><trkpt lat="43.6703571" lon="12.0270499"><ele>507.0</ele><time>2026-04-29T11:43:21.611Z</time></trkpt><trkpt lat="43.6701494" lon="12.0272923"><ele>507.0</ele><time>2026-04-29T11:43:22.915Z</time></trkpt><trkpt lat="43.6698816" lon="12.0275158"><ele>508.5</ele><time>2026-04-29T11:43:24.666Z</time></trkpt><trkpt lat="43.669766" lon="12.0276551"><ele>510.0</ele><time>2026-04-29T11:43:25.683Z</time></trkpt><trkpt lat="43.6696819" lon="12.0277984"><ele>511.5</ele><time>2026-04-29T11:43:26.665Z</time></trkpt><trkpt lat="43.6696411" lon="12.027974"><ele>513.0</ele><time>2026-04-29T11:43:27.699Z</time></trkpt><trkpt lat="43.669635" lon="12.0281533"><ele>509.33333333333337</ele><time>2026-04-29T11:43:28.657Z</time></trkpt><trkpt lat="43.6696384" lon="12.0283714"><ele>505.6666666666667</ele><time>2026-04-29T11:43:29.634Z</time></trkpt><trkpt lat="43.6696516" lon="12.0286381"><ele>502.0</ele><time>2026-04-29T11:43:30.603Z</time></trkpt><trkpt lat="43.6696557" lon="12.0290709"><ele>501.0</ele><time>2026-04-29T11:43:31.934Z</time></trkpt><trkpt lat="43.6696136" lon="12.0295615"><ele>500.0</ele><time>2026-04-29T11:43:33.668Z</time></trkpt><trkpt lat="43.6696104" lon="12.0297972"><ele>498.8</ele><time>2026-04-29T11:43:34.69Z</time></trkpt><trkpt lat="43.66961" lon="12.0299808"><ele>497.6</ele><time>2026-04-29T11:43:35.698Z</time></trkpt><trkpt lat="43.669625" lon="12.0301133"><ele>496.4</ele><time>2026-04-29T11:43:36.683Z</time></trkpt><trkpt lat="43.6696806" lon="12.0302044"><ele>495.2</ele><time>2026-04-29T11:43:37.671Z</time></trkpt><trkpt lat="43.6697615" lon="12.0302262"><ele>494.0</ele><time>2026-04-29T11:43:38.683Z</time></trkpt><trkpt lat="43.6698459" lon="12.0301662"><ele>494.0</ele><time>2026-04-29T11:43:39.691Z</time></trkpt><trkpt lat="43.6699059" lon="12.03005"><ele>494.0</ele><time>2026-04-29T11:43:40.632Z</time></trkpt><trkpt lat="43.6699582" lon="12.0298595"><ele>494.0</ele><time>2026-04-29T11:43:41.611Z</time></trkpt><trkpt lat="43.6700265" lon="12.029609"><ele>494.0</ele><time>2026-04-29T11:43:42.613Z</time></trkpt><trkpt lat="43.670102" lon="12.0293736"><ele>493.66666666666663</ele><time>2026-04-29T11:43:43.604Z</time></trkpt><trkpt lat="43.6701998" lon="12.0291711"><ele>493.33333333333337</ele><time>2026-04-29T11:43:44.625Z</time></trkpt><trkpt lat="43.6703264" lon="12.029018"><ele>493.0</ele><time>2026-04-29T11:43:45.645Z</time></trkpt><trkpt lat="43.6704832" lon="12.0289335"><ele>493.0</ele><time>2026-04-29T11:43:46.638Z</time></trkpt><trkpt lat="43.6705797" lon="12.0289884"><ele>493.0</ele><time>2026-04-29T11:43:47.61Z</time></trkpt><trkpt lat="43.6707511" lon="12.0290506"><ele>493.0</ele><time>2026-04-29T11:43:48.614Z</time></trkpt><trkpt lat="43.6709345" lon="12.0291781"><ele>491.6666666666667</ele><time>2026-04-29T11:43:49.622Z</time></trkpt><trkpt lat="43.6710965" lon="12.0293344"><ele>490.33333333333337</ele><time>2026-04-29T11:43:50.628Z</time></trkpt><trkpt lat="43.6712457" lon="12.0295187"><ele>489.0</ele><time>2026-04-29T11:43:51.639Z</time></trkpt><trkpt lat="43.671397" lon="12.0297375"><ele>485.33333333333337</ele><time>2026-04-29T11:43:52.962Z</time></trkpt><trkpt lat="43.6714856" lon="12.0300212"><ele>481.6666666666667</ele><time>2026-04-29T11:43:54.689Z</time></trkpt><trkpt lat="43.6714651" lon="12.03024"><ele>478.0</ele><time>2026-04-29T11:43:55.706Z</time></trkpt><trkpt lat="43.6713903" lon="12.0304453"><ele>478.0</ele><time>2026-04-29T11:43:56.659Z</time></trkpt><trkpt lat="43.6712772" lon="12.030663"><ele>478.0</ele><time>2026-04-29T11:43:57.654Z</time></trkpt><trkpt lat="43.6711502" lon="12.0308985"><ele>478.0</ele><time>2026-04-29T11:43:58.652Z</time></trkpt><trkpt lat="43.6710124" lon="12.0311653"><ele>479.0</ele><time>2026-04-29T11:43:59.662Z</time></trkpt><trkpt lat="43.6708803" lon="12.031412"><ele>480.0</ele><time>2026-04-29T11:44:00.676Z</time></trkpt><trkpt lat="43.6707617" lon="12.0316239"><ele>481.0</ele><time>2026-04-29T11:44:01.677Z</time></trkpt><trkpt lat="43.6706656" lon="12.0318118"><ele>479.0</ele><time>2026-04-29T11:44:02.677Z</time></trkpt><trkpt lat="43.670605" lon="12.0319995"><ele>477.0</ele><time>2026-04-29T11:44:03.678Z</time></trkpt><trkpt lat="43.6705709" lon="12.0321707"><ele>475.0</ele><time>2026-04-29T11:44:04.619Z</time></trkpt><trkpt lat="43.6705591" lon="12.0323528"><ele>473.0</ele><time>2026-04-29T11:44:05.616Z</time></trkpt><trkpt lat="43.6705914" lon="12.0325322"><ele>472.66666666666663</ele><time>2026-04-29T11:44:06.617Z</time></trkpt><trkpt lat="43.670731" lon="12.0327091"><ele>472.33333333333337</ele><time>2026-04-29T11:44:07.623Z</time></trkpt><trkpt lat="43.6708538" lon="12.0329208"><ele>472.0</ele><time>2026-04-29T11:44:08.606Z</time></trkpt><trkpt lat="43.6710072" lon="12.0331707"><ele>472.5</ele><time>2026-04-29T11:44:09.637Z</time></trkpt><trkpt lat="43.6711616" lon="12.0334585"><ele>473.0</ele><time>2026-04-29T11:44:10.971Z</time></trkpt><trkpt lat="43.6710278" lon="12.0339365"><ele>470.0</ele><time>2026-04-29T11:44:12.682Z</time></trkpt><trkpt lat="43.6709384" lon="12.0341903"><ele>467.0</ele><time>2026-04-29T11:44:13.679Z</time></trkpt><trkpt lat="43.6708236" lon="12.0344362"><ele>464.0</ele><time>2026-04-29T11:44:14.658Z</time></trkpt><trkpt lat="43.6706805" lon="12.0346928"><ele>464.0</ele><time>2026-04-29T11:44:15.676Z</time></trkpt><trkpt lat="43.6705496" lon="12.0349325"><ele>464.0</ele><time>2026-04-29T11:44:16.673Z</time></trkpt><trkpt lat="43.6704357" lon="12.035148"><ele>464.0</ele><time>2026-04-29T11:44:17.658Z</time></trkpt><trkpt lat="43.6703444" lon="12.0353427"><ele>464.25</ele><time>2026-04-29T11:44:18.666Z</time></trkpt><trkpt lat="43.6702858" lon="12.0355179"><ele>464.5</ele><time>2026-04-29T11:44:19.676Z</time></trkpt><trkpt lat="43.6702652" lon="12.0356927"><ele>464.75</ele><time>2026-04-29T11:44:20.671Z</time></trkpt><trkpt lat="43.6702874" lon="12.0358859"><ele>465.0</ele><time>2026-04-29T11:44:21.686Z</time></trkpt><trkpt lat="43.6703449" lon="12.0360993"><ele>459.0</ele><time>2026-04-29T11:44:22.657Z</time></trkpt><trkpt lat="43.6704035" lon="12.0363292"><ele>453.0</ele><time>2026-04-29T11:44:23.674Z</time></trkpt><trkpt lat="43.6704531" lon="12.0365509"><ele>447.0</ele><time>2026-04-29T11:44:24.69Z</time></trkpt><trkpt lat="43.6704876" lon="12.0367497"><ele>445.75</ele><time>2026-04-29T11:44:25.66Z</time></trkpt><trkpt lat="43.6704952" lon="12.0369531"><ele>444.5</ele><time>2026-04-29T11:44:26.674Z</time></trkpt><trkpt lat="43.6704976" lon="12.0371529"><ele>443.25</ele><time>2026-04-29T11:44:27.687Z</time></trkpt><trkpt lat="43.6704526" lon="12.0373259"><ele>442.0</ele><time>2026-04-29T11:44:28.626Z</time></trkpt><trkpt lat="43.6704077" lon="12.037576"><ele>447.0</ele><time>2026-04-29T11:44:29.969Z</time></trkpt><trkpt lat="43.6701495" lon="12.0379766"><ele>452.0</ele><time>2026-04-29T11:44:31.684Z</time></trkpt><trkpt lat="43.6700543" lon="12.0381489"><ele>448.75</ele><time>2026-04-29T11:44:32.66Z</time></trkpt><trkpt lat="43.6699854" lon="12.0383193"><ele>445.5</ele><time>2026-04-29T11:44:33.685Z</time></trkpt><trkpt lat="43.6699617" lon="12.0384972"><ele>442.25</ele><time>2026-04-29T11:44:34.689Z</time></trkpt><trkpt lat="43.6699846" lon="12.0386771"><ele>439.0</ele><time>2026-04-29T11:44:35.663Z</time></trkpt><trkpt lat="43.670038" lon="12.0388828"><ele>439.0</ele><time>2026-04-29T11:44:36.68Z</time></trkpt><trkpt lat="43.6700961" lon="12.0390928"><ele>439.0</ele><time>2026-04-29T11:44:37.672Z</time></trkpt><trkpt lat="43.6701536" lon="12.0392923"><ele>439.0</ele><time>2026-04-29T11:44:38.676Z</time></trkpt><trkpt lat="43.6702018" lon="12.0394616"><ele>438.79999999999995</ele><time>2026-04-29T11:44:39.662Z</time></trkpt><trkpt lat="43.6702411" lon="12.0396123"><ele>438.59999999999997</ele><time>2026-04-29T11:44:40.685Z</time></trkpt><trkpt lat="43.6702713" lon="12.0397353"><ele>438.4</ele><time>2026-04-29T11:44:41.661Z</time></trkpt><trkpt lat="43.670296" lon="12.0398332"><ele>438.2</ele><time>2026-04-29T11:44:42.61Z</time></trkpt><trkpt lat="43.6702859" lon="12.0399463"><ele>438.0</ele><time>2026-04-29T11:44:44.606Z</time></trkpt><trkpt lat="43.6702198" lon="12.0400249"><ele>437.79999999999995</ele><time>2026-04-29T11:44:46.619Z</time></trkpt><trkpt lat="43.6701544" lon="12.0400885"><ele>437.59999999999997</ele><time>2026-04-29T11:44:47.619Z</time></trkpt><trkpt lat="43.6700586" lon="12.0401546"><ele>437.40000000000003</ele><time>2026-04-29T11:44:48.615Z</time></trkpt><trkpt lat="43.6699496" lon="12.040223"><ele>437.20000000000005</ele><time>2026-04-29T11:44:49.614Z</time></trkpt><trkpt lat="43.6698248" lon="12.0403013"><ele>437.0</ele><time>2026-04-29T11:44:50.649Z</time></trkpt><trkpt lat="43.6696963" lon="12.0403857"><ele>437.0</ele><time>2026-04-29T11:44:51.629Z</time></trkpt><trkpt lat="43.669567" lon="12.0404728"><ele>437.0</ele><time>2026-04-29T11:44:52.633Z</time></trkpt><trkpt lat="43.6694456" lon="12.0405611"><ele>437.0</ele><time>2026-04-29T11:44:53.61Z</time></trkpt><trkpt lat="43.6693185" lon="12.0406505"><ele>437.0</ele><time>2026-04-29T11:44:54.637Z</time></trkpt><trkpt lat="43.6692137" lon="12.0407242"><ele>436.75</ele><time>2026-04-29T11:44:55.614Z</time></trkpt><trkpt lat="43.6691235" lon="12.0407809"><ele>436.5</ele><time>2026-04-29T11:44:56.616Z</time></trkpt><trkpt lat="43.6690418" lon="12.0408352"><ele>436.25</ele><time>2026-04-29T11:44:57.639Z</time></trkpt><trkpt lat="43.6689337" lon="12.0409128"><ele>436.0</ele><time>2026-04-29T11:44:58.958Z</time></trkpt><trkpt lat="43.6687813" lon="12.0410159"><ele>436.0</ele><time>2026-04-29T11:45:00.672Z</time></trkpt><trkpt lat="43.6686593" lon="12.0411021"><ele>436.0</ele><time>2026-04-29T11:45:01.694Z</time></trkpt><trkpt lat="43.6685522" lon="12.041171"><ele>436.0</ele><time>2026-04-29T11:45:02.675Z</time></trkpt><trkpt lat="43.6684424" lon="12.0412386"><ele>436.0</ele><time>2026-04-29T11:45:03.676Z</time></trkpt><trkpt lat="43.6683309" lon="12.0413119"><ele>436.0</ele><time>2026-04-29T11:45:04.701Z</time></trkpt><trkpt lat="43.6682309" lon="12.0413779"><ele>436.0</ele><time>2026-04-29T11:45:05.663Z</time></trkpt><trkpt lat="43.6681306" lon="12.0414439"><ele>436.0</ele><time>2026-04-29T11:45:06.698Z</time></trkpt><trkpt lat="43.6680334" lon="12.0415083"><ele>436.0</ele><time>2026-04-29T11:45:07.683Z</time></trkpt><trkpt lat="43.6679272" lon="12.0415732"><ele>436.0</ele><time>2026-04-29T11:45:08.673Z</time></trkpt><trkpt lat="43.6678308" lon="12.0416364"><ele>435.33333333333337</ele><time>2026-04-29T11:45:09.682Z</time></trkpt><trkpt lat="43.6677488" lon="12.0416913"><ele>434.6666666666667</ele><time>2026-04-29T11:45:10.609Z</time></trkpt><trkpt lat="43.6676712" lon="12.0417612"><ele>434.0</ele><time>2026-04-29T11:45:11.636Z</time></trkpt><trkpt lat="43.6676116" lon="12.0418318"><ele>433.33333333333337</ele><time>2026-04-29T11:45:12.614Z</time></trkpt><trkpt lat="43.6675647" lon="12.0419115"><ele>432.6666666666667</ele><time>2026-04-29T11:45:13.629Z</time></trkpt><trkpt lat="43.6675296" lon="12.0420022"><ele>432.0</ele><time>2026-04-29T11:45:14.61Z</time></trkpt><trkpt lat="43.6675096" lon="12.0421016"><ele>432.0</ele><time>2026-04-29T11:45:15.625Z</time></trkpt><trkpt lat="43.6675015" lon="12.0422091"><ele>432.00000000000006</ele><time>2026-04-29T11:45:16.62Z</time></trkpt><trkpt lat="43.6674983" lon="12.0423287"><ele>432.00000000000006</ele><time>2026-04-29T11:45:17.619Z</time></trkpt><trkpt lat="43.6674964" lon="12.0424627"><ele>432.0</ele><time>2026-04-29T11:45:18.638Z</time></trkpt><trkpt lat="43.6674942" lon="12.0426031"><ele>432.0</ele><time>2026-04-29T11:45:19.618Z</time></trkpt><trkpt lat="43.6674929" lon="12.0427563"><ele>431.6</ele><time>2026-04-29T11:45:20.599Z</time></trkpt><trkpt lat="43.6674886" lon="12.0429083"><ele>431.20000000000005</ele><time>2026-04-29T11:45:21.617Z</time></trkpt><trkpt lat="43.6674858" lon="12.0430531"><ele>430.8</ele><time>2026-04-29T11:45:22.616Z</time></trkpt><trkpt lat="43.6674818" lon="12.0431973"><ele>430.4</ele><time>2026-04-29T11:45:23.634Z</time></trkpt><trkpt lat="43.6674689" lon="12.0433159"><ele>430.0</ele><time>2026-04-29T11:45:24.616Z</time></trkpt><trkpt lat="43.6674487" lon="12.0434304"><ele>430.0</ele><time>2026-04-29T11:45:25.614Z</time></trkpt><trkpt lat="43.6674186" lon="12.0435627"><ele>430.0</ele><time>2026-04-29T11:45:26.616Z</time></trkpt><trkpt lat="43.6673769" lon="12.0437052"><ele>430.0</ele><time>2026-04-29T11:45:27.631Z</time></trkpt><trkpt lat="43.6673184" lon="12.0438477"><ele>430.0</ele><time>2026-04-29T11:45:28.636Z</time></trkpt><trkpt lat="43.6672464" lon="12.0439795"><ele>430.0</ele><time>2026-04-29T11:45:29.613Z</time></trkpt><trkpt lat="43.6671579" lon="12.0441142"><ele>431.0</ele><time>2026-04-29T11:45:30.606Z</time></trkpt><trkpt lat="43.6670625" lon="12.0442536"><ele>432.0</ele><time>2026-04-29T11:45:31.617Z</time></trkpt><trkpt lat="43.6669535" lon="12.0444037"><ele>433.0</ele><time>2026-04-29T11:45:32.612Z</time></trkpt><trkpt lat="43.6668016" lon="12.0446211"><ele>433.0</ele><time>2026-04-29T11:45:33.919Z</time></trkpt><trkpt lat="43.6665627" lon="12.0449159"><ele>433.0</ele><time>2026-04-29T11:45:35.67Z</time></trkpt><trkpt lat="43.6664458" lon="12.0450653"><ele>433.6666666666667</ele><time>2026-04-29T11:45:36.66Z</time></trkpt><trkpt lat="43.6663256" lon="12.0452253"><ele>434.33333333333337</ele><time>2026-04-29T11:45:37.681Z</time></trkpt><trkpt lat="43.6662058" lon="12.0453802"><ele>435.0</ele><time>2026-04-29T11:45:38.68Z</time></trkpt><trkpt lat="43.6660822" lon="12.0455379"><ele>435.0</ele><time>2026-04-29T11:45:39.679Z</time></trkpt><trkpt lat="43.6659678" lon="12.0456932"><ele>435.0</ele><time>2026-04-29T11:45:40.671Z</time></trkpt><trkpt lat="43.6658513" lon="12.0458516"><ele>435.0</ele><time>2026-04-29T11:45:41.69Z</time></trkpt><trkpt lat="43.6657461" lon="12.0459973"><ele>435.25</ele><time>2026-04-29T11:45:42.662Z</time></trkpt><trkpt lat="43.6656404" lon="12.0461427"><ele>435.5</ele><time>2026-04-29T11:45:43.63Z</time></trkpt><trkpt lat="43.6655279" lon="12.0462877"><ele>435.75</ele><time>2026-04-29T11:45:44.63Z</time></trkpt><trkpt lat="43.665411" lon="12.0464051"><ele>436.0</ele><time>2026-04-29T11:45:45.665Z</time></trkpt><trkpt lat="43.6652787" lon="12.046476"><ele>436.5</ele><time>2026-04-29T11:45:46.618Z</time></trkpt><trkpt lat="43.6651402" lon="12.0465042"><ele>437.0</ele><time>2026-04-29T11:45:47.634Z</time></trkpt><trkpt lat="43.6650065" lon="12.0464755"><ele>437.5</ele><time>2026-04-29T11:45:48.642Z</time></trkpt><trkpt lat="43.6648797" lon="12.0464165"><ele>438.0</ele><time>2026-04-29T11:45:49.629Z</time></trkpt><trkpt lat="43.6647562" lon="12.0463458"><ele>438.0</ele><time>2026-04-29T11:45:50.659Z</time></trkpt><trkpt lat="43.6646386" lon="12.0462853"><ele>438.0</ele><time>2026-04-29T11:45:51.633Z</time></trkpt><trkpt lat="43.6645179" lon="12.0462453"><ele>438.0</ele><time>2026-04-29T11:45:52.616Z</time></trkpt><trkpt lat="43.6643762" lon="12.0462377"><ele>438.0</ele><time>2026-04-29T11:45:53.636Z</time></trkpt><trkpt lat="43.6642402" lon="12.0462769"><ele>438.0</ele><time>2026-04-29T11:45:54.614Z</time></trkpt><trkpt lat="43.6641138" lon="12.0463625"><ele>438.0</ele><time>2026-04-29T11:45:55.624Z</time></trkpt><trkpt lat="43.6640044" lon="12.046495"><ele>438.0</ele><time>2026-04-29T11:45:56.614Z</time></trkpt><trkpt lat="43.6639139" lon="12.0466709"><ele>438.0</ele><time>2026-04-29T11:45:57.647Z</time></trkpt><trkpt lat="43.6638309" lon="12.0468716"><ele>437.5</ele><time>2026-04-29T11:45:58.652Z</time></trkpt><trkpt lat="43.6637174" lon="12.0471473"><ele>437.0</ele><time>2026-04-29T11:45:59.988Z</time></trkpt><trkpt lat="43.6635797" lon="12.0474978"><ele>437.0</ele><time>2026-04-29T11:46:01.673Z</time></trkpt><trkpt lat="43.6634942" lon="12.0477081"><ele>437.0</ele><time>2026-04-29T11:46:02.681Z</time></trkpt><trkpt lat="43.6634091" lon="12.047925"><ele>437.0</ele><time>2026-04-29T11:46:03.694Z</time></trkpt><trkpt lat="43.6633199" lon="12.0481401"><ele>438.66666666666663</ele><time>2026-04-29T11:46:04.676Z</time></trkpt><trkpt lat="43.6632275" lon="12.0483706"><ele>440.33333333333337</ele><time>2026-04-29T11:46:05.677Z</time></trkpt><trkpt lat="43.6631303" lon="12.0486336"><ele>442.0</ele><time>2026-04-29T11:46:06.663Z</time></trkpt><trkpt lat="43.6630085" lon="12.0489519"><ele>444.5</ele><time>2026-04-29T11:46:07.675Z</time></trkpt><trkpt lat="43.6628566" lon="12.049301"><ele>447.0</ele><time>2026-04-29T11:46:08.698Z</time></trkpt><trkpt lat="43.6627102" lon="12.0496424"><ele>439.0</ele><time>2026-04-29T11:46:09.642Z</time></trkpt><trkpt lat="43.6625702" lon="12.0499937"><ele>431.0</ele><time>2026-04-29T11:46:10.613Z</time></trkpt><trkpt lat="43.6624347" lon="12.0503274"><ele>431.0</ele><time>2026-04-29T11:46:11.628Z</time></trkpt><trkpt lat="43.6623109" lon="12.0506219"><ele>431.0</ele><time>2026-04-29T11:46:12.625Z</time></trkpt><trkpt lat="43.6621674" lon="12.0508931"><ele>430.0</ele><time>2026-04-29T11:46:13.629Z</time></trkpt><trkpt lat="43.6619941" lon="12.0511153"><ele>429.0</ele><time>2026-04-29T11:46:14.618Z</time></trkpt><trkpt lat="43.6617834" lon="12.051297"><ele>425.5</ele><time>2026-04-29T11:46:15.619Z</time></trkpt><trkpt lat="43.6615501" lon="12.0514075"><ele>422.0</ele><time>2026-04-29T11:46:16.618Z</time></trkpt><trkpt lat="43.661291" lon="12.0514934"><ele>420.5</ele><time>2026-04-29T11:46:17.63Z</time></trkpt><trkpt lat="43.6610339" lon="12.0515926"><ele>419.0</ele><time>2026-04-29T11:46:18.618Z</time></trkpt><trkpt lat="43.6607648" lon="12.0517301"><ele>419.0</ele><time>2026-04-29T11:46:19.634Z</time></trkpt><trkpt lat="43.6605176" lon="12.0519427"><ele>419.0</ele><time>2026-04-29T11:46:20.647Z</time></trkpt><trkpt lat="43.6602837" lon="12.052176"><ele>419.0</ele><time>2026-04-29T11:46:21.643Z</time></trkpt><trkpt lat="43.6600423" lon="12.0524263"><ele>419.0</ele><time>2026-04-29T11:46:22.626Z</time></trkpt><trkpt lat="43.659809" lon="12.0526996"><ele>419.0</ele><time>2026-04-29T11:46:23.612Z</time></trkpt><trkpt lat="43.6595908" lon="12.0529734"><ele>419.0</ele><time>2026-04-29T11:46:24.642Z</time></trkpt><trkpt lat="43.6593871" lon="12.0532117"><ele>419.0</ele><time>2026-04-29T11:46:25.637Z</time></trkpt><trkpt lat="43.6591858" lon="12.053426"><ele>419.0</ele><time>2026-04-29T11:46:26.634Z</time></trkpt><trkpt lat="43.6589844" lon="12.0536108"><ele>419.0</ele><time>2026-04-29T11:46:27.628Z</time></trkpt><trkpt lat="43.658782" lon="12.053762"><ele>419.0</ele><time>2026-04-29T11:46:28.619Z</time></trkpt><trkpt lat="43.6585815" lon="12.0538513"><ele>419.0</ele><time>2026-04-29T11:46:29.622Z</time></trkpt><trkpt lat="43.6583819" lon="12.0538707"><ele>420.0</ele><time>2026-04-29T11:46:30.628Z</time></trkpt><trkpt lat="43.6581722" lon="12.0538298"><ele>421.0</ele><time>2026-04-29T11:46:31.617Z</time></trkpt><trkpt lat="43.6579293" lon="12.0537605"><ele>419.5</ele><time>2026-04-29T11:46:32.632Z</time></trkpt><trkpt lat="43.6576846" lon="12.0536949"><ele>418.0</ele><time>2026-04-29T11:46:33.632Z</time></trkpt><trkpt lat="43.6574278" lon="12.0536673"><ele>418.0</ele><time>2026-04-29T11:46:34.622Z</time></trkpt><trkpt lat="43.6571693" lon="12.0536465"><ele>418.0</ele><time>2026-04-29T11:46:35.631Z</time></trkpt><trkpt lat="43.656907" lon="12.0536229"><ele>418.0</ele><time>2026-04-29T11:46:36.645Z</time></trkpt><trkpt lat="43.6566087" lon="12.0536317"><ele>418.0</ele><time>2026-04-29T11:46:37.976Z</time></trkpt><trkpt lat="43.6560815" lon="12.0536879"><ele>418.0</ele><time>2026-04-29T11:46:39.696Z</time></trkpt><trkpt lat="43.6558324" lon="12.0537341"><ele>418.0</ele><time>2026-04-29T11:46:40.671Z</time></trkpt><trkpt lat="43.655578" lon="12.053781"><ele>418.0</ele><time>2026-04-29T11:46:41.68Z</time></trkpt><trkpt lat="43.6553246" lon="12.0538271"><ele>418.0</ele><time>2026-04-29T11:46:42.675Z</time></trkpt><trkpt lat="43.6550667" lon="12.0538766"><ele>418.0</ele><time>2026-04-29T11:46:43.691Z</time></trkpt><trkpt lat="43.6548093" lon="12.053928"><ele>418.0</ele><time>2026-04-29T11:46:44.698Z</time></trkpt><trkpt lat="43.6545612" lon="12.0539752"><ele>416.5</ele><time>2026-04-29T11:46:45.675Z</time></trkpt><trkpt lat="43.6543259" lon="12.0540231"><ele>415.0</ele><time>2026-04-29T11:46:46.622Z</time></trkpt><trkpt lat="43.654072" lon="12.0540747"><ele>415.5</ele><time>2026-04-29T11:46:47.64Z</time></trkpt><trkpt lat="43.6538224" lon="12.0541221"><ele>416.0</ele><time>2026-04-29T11:46:48.619Z</time></trkpt><trkpt lat="43.6535706" lon="12.0541695"><ele>414.5</ele><time>2026-04-29T11:46:49.62Z</time></trkpt><trkpt lat="43.6533089" lon="12.0542209"><ele>413.0</ele><time>2026-04-29T11:46:50.644Z</time></trkpt><trkpt lat="43.6530523" lon="12.0542744"><ele>413.0</ele><time>2026-04-29T11:46:51.648Z</time></trkpt><trkpt lat="43.652804" lon="12.0543244"><ele>413.0</ele><time>2026-04-29T11:46:52.624Z</time></trkpt><trkpt lat="43.6525406" lon="12.0543738"><ele>413.0</ele><time>2026-04-29T11:46:53.65Z</time></trkpt><trkpt lat="43.6522808" lon="12.0544253"><ele>413.0</ele><time>2026-04-29T11:46:54.647Z</time></trkpt><trkpt lat="43.6520268" lon="12.0544669"><ele>412.5</ele><time>2026-04-29T11:46:55.621Z</time></trkpt><trkpt lat="43.6517601" lon="12.0545076"><ele>412.0</ele><time>2026-04-29T11:46:56.634Z</time></trkpt><trkpt lat="43.6514925" lon="12.0545399"><ele>412.0</ele><time>2026-04-29T11:46:57.644Z</time></trkpt><trkpt lat="43.6512356" lon="12.0545546"><ele>412.0</ele><time>2026-04-29T11:46:58.614Z</time></trkpt><trkpt lat="43.6509664" lon="12.0545603"><ele>412.5</ele><time>2026-04-29T11:46:59.621Z</time></trkpt><trkpt lat="43.6506986" lon="12.0545623"><ele>413.0</ele><time>2026-04-29T11:47:00.609Z</time></trkpt><trkpt lat="43.6504238" lon="12.0545643"><ele>412.0</ele><time>2026-04-29T11:47:01.624Z</time></trkpt><trkpt lat="43.6501538" lon="12.0545696"><ele>411.0</ele><time>2026-04-29T11:47:02.619Z</time></trkpt><trkpt lat="43.6498838" lon="12.0545733"><ele>411.0</ele><time>2026-04-29T11:47:03.631Z</time></trkpt><trkpt lat="43.6496159" lon="12.0545755"><ele>411.0</ele><time>2026-04-29T11:47:04.637Z</time></trkpt><trkpt lat="43.64936" lon="12.0545767"><ele>410.0</ele><time>2026-04-29T11:47:05.627Z</time></trkpt><trkpt lat="43.6491069" lon="12.0545883"><ele>409.0</ele><time>2026-04-29T11:47:06.632Z</time></trkpt><trkpt lat="43.6488551" lon="12.0545964"><ele>408.0</ele><time>2026-04-29T11:47:07.617Z</time></trkpt><trkpt lat="43.6486024" lon="12.0546009"><ele>407.0</ele><time>2026-04-29T11:47:08.616Z</time></trkpt><trkpt lat="43.6483458" lon="12.0546056"><ele>407.0</ele><time>2026-04-29T11:47:09.638Z</time></trkpt><trkpt lat="43.6481023" lon="12.0546272"><ele>407.0</ele><time>2026-04-29T11:47:10.631Z</time></trkpt><trkpt lat="43.6478639" lon="12.0546816"><ele>406.0</ele><time>2026-04-29T11:47:11.62Z</time></trkpt><trkpt lat="43.6476252" lon="12.0547787"><ele>405.0</ele><time>2026-04-29T11:47:12.64Z</time></trkpt><trkpt lat="43.6474038" lon="12.0549056"><ele>408.5</ele><time>2026-04-29T11:47:13.636Z</time></trkpt><trkpt lat="43.647201" lon="12.0550475"><ele>412.0</ele><time>2026-04-29T11:47:14.619Z</time></trkpt><trkpt lat="43.6470123" lon="12.0552229"><ele>412.0</ele><time>2026-04-29T11:47:15.635Z</time></trkpt><trkpt lat="43.6468658" lon="12.0554218"><ele>412.0</ele><time>2026-04-29T11:47:16.622Z</time></trkpt><trkpt lat="43.6467481" lon="12.0556659"><ele>412.0</ele><time>2026-04-29T11:47:17.615Z</time></trkpt><trkpt lat="43.6466494" lon="12.0559627"><ele>412.0</ele><time>2026-04-29T11:47:18.641Z</time></trkpt><trkpt lat="43.6465529" lon="12.0562953"><ele>412.0</ele><time>2026-04-29T11:47:19.634Z</time></trkpt><trkpt lat="43.6464558" lon="12.0566418"><ele>412.5</ele><time>2026-04-29T11:47:20.636Z</time></trkpt><trkpt lat="43.6463567" lon="12.0570032"><ele>413.0</ele><time>2026-04-29T11:47:21.617Z</time></trkpt><trkpt lat="43.6462541" lon="12.0573727"><ele>415.5</ele><time>2026-04-29T11:47:22.626Z</time></trkpt><trkpt lat="43.646161" lon="12.0577142"><ele>418.0</ele><time>2026-04-29T11:47:23.625Z</time></trkpt><trkpt lat="43.646076" lon="12.0580353"><ele>412.5</ele><time>2026-04-29T11:47:24.63Z</time></trkpt><trkpt lat="43.6460025" lon="12.0583535"><ele>407.0</ele><time>2026-04-29T11:47:25.657Z</time></trkpt><trkpt lat="43.6459345" lon="12.0586687"><ele>407.0</ele><time>2026-04-29T11:47:26.662Z</time></trkpt><trkpt lat="43.6458994" lon="12.0589504"><ele>407.0</ele><time>2026-04-29T11:47:27.625Z</time></trkpt><trkpt lat="43.645871" lon="12.0592661"><ele>407.0</ele><time>2026-04-29T11:47:28.61Z</time></trkpt><trkpt lat="43.6458355" lon="12.0596115"><ele>408.0</ele><time>2026-04-29T11:47:29.616Z</time></trkpt><trkpt lat="43.6457959" lon="12.0599704"><ele>409.0</ele><time>2026-04-29T11:47:30.64Z</time></trkpt><trkpt lat="43.6457574" lon="12.0603189"><ele>409.0</ele><time>2026-04-29T11:47:31.63Z</time></trkpt><trkpt lat="43.6457194" lon="12.0606674"><ele>409.0</ele><time>2026-04-29T11:47:32.618Z</time></trkpt><trkpt lat="43.6456817" lon="12.0610185"><ele>409.0</ele><time>2026-04-29T11:47:33.626Z</time></trkpt><trkpt lat="43.6456468" lon="12.0613662"><ele>409.0</ele><time>2026-04-29T11:47:34.624Z</time></trkpt><trkpt lat="43.6456084" lon="12.0617093"><ele>411.0</ele><time>2026-04-29T11:47:35.615Z</time></trkpt><trkpt lat="43.6455692" lon="12.0620607"><ele>413.0</ele><time>2026-04-29T11:47:36.619Z</time></trkpt><trkpt lat="43.6455317" lon="12.0624076"><ele>413.5</ele><time>2026-04-29T11:47:37.623Z</time></trkpt><trkpt lat="43.6454905" lon="12.0627371"><ele>414.0</ele><time>2026-04-29T11:47:38.618Z</time></trkpt><trkpt lat="43.6454511" lon="12.0630452"><ele>415.0</ele><time>2026-04-29T11:47:39.627Z</time></trkpt><trkpt lat="43.6454083" lon="12.0633184"><ele>416.0</ele><time>2026-04-29T11:47:40.619Z</time></trkpt><trkpt lat="43.6453448" lon="12.0635673"><ele>417.0</ele><time>2026-04-29T11:47:41.635Z</time></trkpt><trkpt lat="43.6452504" lon="12.0637703"><ele>413.33333333333337</ele><time>2026-04-29T11:47:42.617Z</time></trkpt><trkpt lat="43.6451208" lon="12.0639396"><ele>409.6666666666667</ele><time>2026-04-29T11:47:43.639Z</time></trkpt><trkpt lat="43.6449739" lon="12.0640488"><ele>406.0</ele><time>2026-04-29T11:47:44.624Z</time></trkpt><trkpt lat="43.6447839" lon="12.064103"><ele>406.0</ele><time>2026-04-29T11:47:45.634Z</time></trkpt><trkpt lat="43.6445895" lon="12.0640887"><ele>406.0</ele><time>2026-04-29T11:47:46.637Z</time></trkpt><trkpt lat="43.6443916" lon="12.0640127"><ele>406.0</ele><time>2026-04-29T11:47:47.617Z</time></trkpt><trkpt lat="43.6441746" lon="12.0639036"><ele>406.0</ele><time>2026-04-29T11:47:48.62Z</time></trkpt><trkpt lat="43.6439598" lon="12.0637648"><ele>406.0</ele><time>2026-04-29T11:47:49.608Z</time></trkpt><trkpt lat="43.6437753" lon="12.0636377"><ele>406.0</ele><time>2026-04-29T11:47:50.624Z</time></trkpt><trkpt lat="43.6435752" lon="12.0635216"><ele>407.33333333333337</ele><time>2026-04-29T11:47:51.638Z</time></trkpt><trkpt lat="43.6434326" lon="12.0634231"><ele>408.66666666666663</ele><time>2026-04-29T11:47:52.623Z</time></trkpt><trkpt lat="43.6432726" lon="12.0633527"><ele>410.0</ele><time>2026-04-29T11:47:53.612Z</time></trkpt><trkpt lat="43.6431092" lon="12.0633211"><ele>410.0</ele><time>2026-04-29T11:47:54.62Z</time></trkpt><trkpt lat="43.6429639" lon="12.0633525"><ele>410.0</ele><time>2026-04-29T11:47:55.62Z</time></trkpt><trkpt lat="43.6428313" lon="12.0634507"><ele>410.0</ele><time>2026-04-29T11:47:56.621Z</time></trkpt><trkpt lat="43.6426455" lon="12.0636455"><ele>411.3333333333333</ele><time>2026-04-29T11:47:57.63Z</time></trkpt><trkpt lat="43.6425068" lon="12.0638689"><ele>412.66666666666663</ele><time>2026-04-29T11:47:58.618Z</time></trkpt><trkpt lat="43.6423706" lon="12.0640982"><ele>414.0</ele><time>2026-04-29T11:47:59.622Z</time></trkpt><trkpt lat="43.6422181" lon="12.0643665"><ele>414.0</ele><time>2026-04-29T11:48:00.635Z</time></trkpt><trkpt lat="43.642067" lon="12.0646343"><ele>414.0</ele><time>2026-04-29T11:48:01.62Z</time></trkpt><trkpt lat="43.6418992" lon="12.0649198"><ele>409.5</ele><time>2026-04-29T11:48:02.636Z</time></trkpt><trkpt lat="43.6417343" lon="12.0651965"><ele>405.0</ele><time>2026-04-29T11:48:03.617Z</time></trkpt><trkpt lat="43.6415693" lon="12.0654769"><ele>405.0</ele><time>2026-04-29T11:48:04.646Z</time></trkpt><trkpt lat="43.6414047" lon="12.0657456"><ele>405.0</ele><time>2026-04-29T11:48:05.642Z</time></trkpt><trkpt lat="43.6412461" lon="12.0659988"><ele>404.0</ele><time>2026-04-29T11:48:06.639Z</time></trkpt><trkpt lat="43.6410737" lon="12.0662329"><ele>403.0</ele><time>2026-04-29T11:48:07.616Z</time></trkpt><trkpt lat="43.6408801" lon="12.0664591"><ele>406.0</ele><time>2026-04-29T11:48:08.642Z</time></trkpt><trkpt lat="43.6406741" lon="12.0666519"><ele>409.0</ele><time>2026-04-29T11:48:09.619Z</time></trkpt><trkpt lat="43.6404324" lon="12.0668276"><ele>407.5</ele><time>2026-04-29T11:48:10.65Z</time></trkpt><trkpt lat="43.6401804" lon="12.0669621"><ele>406.0</ele><time>2026-04-29T11:48:11.621Z</time></trkpt><trkpt lat="43.6399039" lon="12.0670667"><ele>406.0</ele><time>2026-04-29T11:48:12.629Z</time></trkpt><trkpt lat="43.6396276" lon="12.0671488"><ele>406.0</ele><time>2026-04-29T11:48:13.625Z</time></trkpt><trkpt lat="43.6393525" lon="12.0672186"><ele>404.0</ele><time>2026-04-29T11:48:14.618Z</time></trkpt><trkpt lat="43.6390942" lon="12.0672836"><ele>402.0</ele><time>2026-04-29T11:48:15.621Z</time></trkpt><trkpt lat="43.6388554" lon="12.0673568"><ele>402.0</ele><time>2026-04-29T11:48:16.641Z</time></trkpt><trkpt lat="43.6386367" lon="12.0674194"><ele>402.0</ele><time>2026-04-29T11:48:17.63Z</time></trkpt><trkpt lat="43.6384288" lon="12.0674824"><ele>402.0</ele><time>2026-04-29T11:48:18.627Z</time></trkpt><trkpt lat="43.6382208" lon="12.0675436"><ele>403.5</ele><time>2026-04-29T11:48:19.633Z</time></trkpt><trkpt lat="43.6380089" lon="12.0676128"><ele>405.0</ele><time>2026-04-29T11:48:20.621Z</time></trkpt><trkpt lat="43.6377723" lon="12.0676764"><ele>405.0</ele><time>2026-04-29T11:48:21.649Z</time></trkpt><trkpt lat="43.6375356" lon="12.0677415"><ele>405.0</ele><time>2026-04-29T11:48:22.631Z</time></trkpt><trkpt lat="43.637292" lon="12.0678065"><ele>405.0</ele><time>2026-04-29T11:48:23.606Z</time></trkpt><trkpt lat="43.6370341" lon="12.0678804"><ele>405.0</ele><time>2026-04-29T11:48:24.621Z</time></trkpt><trkpt lat="43.6367764" lon="12.0679545"><ele>403.5</ele><time>2026-04-29T11:48:25.634Z</time></trkpt><trkpt lat="43.636517" lon="12.0680282"><ele>402.0</ele><time>2026-04-29T11:48:26.624Z</time></trkpt><trkpt lat="43.636255" lon="12.0680987"><ele>401.0</ele><time>2026-04-29T11:48:27.636Z</time></trkpt><trkpt lat="43.6359996" lon="12.0681701"><ele>400.0</ele><time>2026-04-29T11:48:28.628Z</time></trkpt><trkpt lat="43.6357517" lon="12.0682678"><ele>402.5</ele><time>2026-04-29T11:48:29.628Z</time></trkpt><trkpt lat="43.6355258" lon="12.0684038"><ele>405.0</ele><time>2026-04-29T11:48:30.628Z</time></trkpt><trkpt lat="43.635291" lon="12.0685623"><ele>405.0</ele><time>2026-04-29T11:48:31.649Z</time></trkpt><trkpt lat="43.635063" lon="12.0687261"><ele>405.0</ele><time>2026-04-29T11:48:32.635Z</time></trkpt><trkpt lat="43.6348266" lon="12.0688777"><ele>405.0</ele><time>2026-04-29T11:48:33.629Z</time></trkpt><trkpt lat="43.6345888" lon="12.069031"><ele>405.0</ele><time>2026-04-29T11:48:34.634Z</time></trkpt><trkpt lat="43.6343575" lon="12.0691828"><ele>405.5</ele><time>2026-04-29T11:48:35.621Z</time></trkpt><trkpt lat="43.6341144" lon="12.0693373"><ele>406.0</ele><time>2026-04-29T11:48:36.631Z</time></trkpt><trkpt lat="43.6338738" lon="12.0694905"><ele>402.0</ele><time>2026-04-29T11:48:37.621Z</time></trkpt><trkpt lat="43.6336344" lon="12.0696426"><ele>398.0</ele><time>2026-04-29T11:48:38.629Z</time></trkpt><trkpt lat="43.6333963" lon="12.0697906"><ele>398.0</ele><time>2026-04-29T11:48:39.627Z</time></trkpt><trkpt lat="43.6331592" lon="12.0699405"><ele>398.0</ele><time>2026-04-29T11:48:40.627Z</time></trkpt><trkpt lat="43.6329192" lon="12.0700971"><ele>400.0</ele><time>2026-04-29T11:48:41.639Z</time></trkpt><trkpt lat="43.6326994" lon="12.0702671"><ele>402.0</ele><time>2026-04-29T11:48:42.615Z</time></trkpt><trkpt lat="43.6324928" lon="12.0704781"><ele>402.0</ele><time>2026-04-29T11:48:43.641Z</time></trkpt><trkpt lat="43.6322961" lon="12.0706987"><ele>402.0</ele><time>2026-04-29T11:48:44.608Z</time></trkpt><trkpt lat="43.6320889" lon="12.0709398"><ele>401.5</ele><time>2026-04-29T11:48:45.636Z</time></trkpt><trkpt lat="43.6318821" lon="12.0711695"><ele>401.0</ele><time>2026-04-29T11:48:46.638Z</time></trkpt><trkpt lat="43.6316697" lon="12.0713957"><ele>405.5</ele><time>2026-04-29T11:48:47.654Z</time></trkpt><trkpt lat="43.6314639" lon="12.0716137"><ele>410.0</ele><time>2026-04-29T11:48:48.63Z</time></trkpt><trkpt lat="43.6312577" lon="12.0718332"><ele>404.5</ele><time>2026-04-29T11:48:49.624Z</time></trkpt><trkpt lat="43.63106" lon="12.0720532"><ele>399.0</ele><time>2026-04-29T11:48:50.637Z</time></trkpt><trkpt lat="43.6308917" lon="12.0722799"><ele>402.5</ele><time>2026-04-29T11:48:51.628Z</time></trkpt><trkpt lat="43.6307488" lon="12.0725378"><ele>406.0</ele><time>2026-04-29T11:48:52.643Z</time></trkpt><trkpt lat="43.6306183" lon="12.0728204"><ele>406.0</ele><time>2026-04-29T11:48:53.625Z</time></trkpt><trkpt lat="43.6304835" lon="12.0731279"><ele>406.0</ele><time>2026-04-29T11:48:54.649Z</time></trkpt><trkpt lat="43.6303503" lon="12.0734187"><ele>405.0</ele><time>2026-04-29T11:48:55.64Z</time></trkpt><trkpt lat="43.6302008" lon="12.0736845"><ele>404.0</ele><time>2026-04-29T11:48:56.639Z</time></trkpt><trkpt lat="43.6300238" lon="12.0739239"><ele>406.5</ele><time>2026-04-29T11:48:57.623Z</time></trkpt><trkpt lat="43.62984" lon="12.0741501"><ele>409.0</ele><time>2026-04-29T11:48:58.623Z</time></trkpt><trkpt lat="43.6296603" lon="12.0743889"><ele>409.0</ele><time>2026-04-29T11:48:59.641Z</time></trkpt><trkpt lat="43.6294962" lon="12.0746473"><ele>409.0</ele><time>2026-04-29T11:49:00.67Z</time></trkpt><trkpt lat="43.6293477" lon="12.0749084"><ele>407.0</ele><time>2026-04-29T11:49:01.635Z</time></trkpt><trkpt lat="43.629195" lon="12.0751892"><ele>405.0</ele><time>2026-04-29T11:49:02.623Z</time></trkpt><trkpt lat="43.6290376" lon="12.0754722"><ele>405.0</ele><time>2026-04-29T11:49:03.627Z</time></trkpt><trkpt lat="43.6288853" lon="12.0757384"><ele>405.0</ele><time>2026-04-29T11:49:04.64Z</time></trkpt><trkpt lat="43.6287489" lon="12.0759742"><ele>405.33333333333337</ele><time>2026-04-29T11:49:05.628Z</time></trkpt><trkpt lat="43.6286241" lon="12.0761902"><ele>405.6666666666667</ele><time>2026-04-29T11:49:06.617Z</time></trkpt><trkpt lat="43.6285075" lon="12.0763971"><ele>406.0</ele><time>2026-04-29T11:49:07.621Z</time></trkpt><trkpt lat="43.6284197" lon="12.0766048"><ele>406.0</ele><time>2026-04-29T11:49:08.636Z</time></trkpt><trkpt lat="43.6283666" lon="12.0768193"><ele>406.0</ele><time>2026-04-29T11:49:09.664Z</time></trkpt><trkpt lat="43.6283527" lon="12.0770298"><ele>406.0</ele><time>2026-04-29T11:49:10.621Z</time></trkpt><trkpt lat="43.6283914" lon="12.0772531"><ele>405.33333333333337</ele><time>2026-04-29T11:49:11.638Z</time></trkpt><trkpt lat="43.6284786" lon="12.077489"><ele>404.66666666666663</ele><time>2026-04-29T11:49:12.621Z</time></trkpt><trkpt lat="43.6286187" lon="12.0777458"><ele>404.0</ele><time>2026-04-29T11:49:13.627Z</time></trkpt><trkpt lat="43.6287537" lon="12.0780199"><ele>409.0</ele><time>2026-04-29T11:49:14.633Z</time></trkpt><trkpt lat="43.628903" lon="12.0783082"><ele>414.0</ele><time>2026-04-29T11:49:15.642Z</time></trkpt><trkpt lat="43.6290543" lon="12.0785986"><ele>414.0</ele><time>2026-04-29T11:49:16.633Z</time></trkpt><trkpt lat="43.6292115" lon="12.0788918"><ele>414.0</ele><time>2026-04-29T11:49:17.621Z</time></trkpt><trkpt lat="43.6293583" lon="12.0791939"><ele>414.0</ele><time>2026-04-29T11:49:18.614Z</time></trkpt><trkpt lat="43.6295151" lon="12.0794967"><ele>414.0</ele><time>2026-04-29T11:49:19.644Z</time></trkpt><trkpt lat="43.6296592" lon="12.0797863"><ele>414.0</ele><time>2026-04-29T11:49:20.637Z</time></trkpt><trkpt lat="43.6297911" lon="12.0800703"><ele>414.0</ele><time>2026-04-29T11:49:21.647Z</time></trkpt><trkpt lat="43.629919" lon="12.0803424"><ele>414.0</ele><time>2026-04-29T11:49:22.619Z</time></trkpt><trkpt lat="43.6300353" lon="12.0805981"><ele>414.0</ele><time>2026-04-29T11:49:23.614Z</time></trkpt><trkpt lat="43.6301356" lon="12.0808307"><ele>414.0</ele><time>2026-04-29T11:49:24.626Z</time></trkpt><trkpt lat="43.6302088" lon="12.0810515"><ele>412.66666666666663</ele><time>2026-04-29T11:49:25.612Z</time></trkpt><trkpt lat="43.6302349" lon="12.0812452"><ele>411.3333333333333</ele><time>2026-04-29T11:49:26.613Z</time></trkpt><trkpt lat="43.6302373" lon="12.0814695"><ele>410.0</ele><time>2026-04-29T11:49:27.616Z</time></trkpt><trkpt lat="43.6301884" lon="12.0816722"><ele>408.66666666666663</ele><time>2026-04-29T11:49:28.628Z</time></trkpt><trkpt lat="43.6301019" lon="12.0818575"><ele>407.33333333333337</ele><time>2026-04-29T11:49:29.62Z</time></trkpt><trkpt lat="43.6299765" lon="12.0820384"><ele>406.0</ele><time>2026-04-29T11:49:30.626Z</time></trkpt><trkpt lat="43.6298363" lon="12.0822168"><ele>406.0</ele><time>2026-04-29T11:49:31.61Z</time></trkpt><trkpt lat="43.6296905" lon="12.0824042"><ele>406.0</ele><time>2026-04-29T11:49:32.617Z</time></trkpt><trkpt lat="43.6295413" lon="12.0825956"><ele>406.0</ele><time>2026-04-29T11:49:33.626Z</time></trkpt><trkpt lat="43.629386" lon="12.0827819"><ele>405.0</ele><time>2026-04-29T11:49:34.639Z</time></trkpt><trkpt lat="43.629241" lon="12.0829303"><ele>404.0</ele><time>2026-04-29T11:49:35.622Z</time></trkpt><trkpt lat="43.6291072" lon="12.0830137"><ele>403.0</ele><time>2026-04-29T11:49:36.615Z</time></trkpt><trkpt lat="43.6289698" lon="12.0830263"><ele>403.0</ele><time>2026-04-29T11:49:37.656Z</time></trkpt><trkpt lat="43.6288309" lon="12.0829665"><ele>403.0</ele><time>2026-04-29T11:49:38.638Z</time></trkpt><trkpt lat="43.6286966" lon="12.0828233"><ele>403.0</ele><time>2026-04-29T11:49:39.647Z</time></trkpt><trkpt lat="43.6285565" lon="12.082642"><ele>404.33333333333337</ele><time>2026-04-29T11:49:40.63Z</time></trkpt><trkpt lat="43.6284166" lon="12.0824445"><ele>405.66666666666663</ele><time>2026-04-29T11:49:41.618Z</time></trkpt><trkpt lat="43.6282796" lon="12.0822448"><ele>407.0</ele><time>2026-04-29T11:49:42.639Z</time></trkpt><trkpt lat="43.6282204" lon="12.0821048"><ele>407.0</ele><time>2026-04-29T11:49:43.639Z</time></trkpt><trkpt lat="43.6281027" lon="12.0819478"><ele>407.0</ele><time>2026-04-29T11:49:44.633Z</time></trkpt><trkpt lat="43.6279816" lon="12.0817778"><ele>407.0</ele><time>2026-04-29T11:49:45.631Z</time></trkpt><trkpt lat="43.6278667" lon="12.0816134"><ele>411.0</ele><time>2026-04-29T11:49:46.626Z</time></trkpt><trkpt lat="43.6277657" lon="12.0814714"><ele>415.0</ele><time>2026-04-29T11:49:47.632Z</time></trkpt><trkpt lat="43.6276921" lon="12.0813628"><ele>419.0</ele><time>2026-04-29T11:49:48.632Z</time></trkpt><trkpt lat="43.627625" lon="12.0812613"><ele>423.0</ele><time>2026-04-29T11:49:49.627Z</time></trkpt><trkpt lat="43.6275438" lon="12.0811494"><ele>423.0</ele><time>2026-04-29T11:49:50.63Z</time></trkpt><trkpt lat="43.6274452" lon="12.0810203"><ele>423.0</ele><time>2026-04-29T11:49:51.627Z</time></trkpt><trkpt lat="43.6273077" lon="12.0808675"><ele>423.0</ele><time>2026-04-29T11:49:52.627Z</time></trkpt><trkpt lat="43.6271527" lon="12.0807208"><ele>421.0</ele><time>2026-04-29T11:49:53.639Z</time></trkpt><trkpt lat="43.6269935" lon="12.0805815"><ele>419.0</ele><time>2026-04-29T11:49:54.626Z</time></trkpt><trkpt lat="43.6268318" lon="12.0804523"><ele>417.0</ele><time>2026-04-29T11:49:55.634Z</time></trkpt><trkpt lat="43.6266712" lon="12.0803238"><ele>417.0</ele><time>2026-04-29T11:49:56.64Z</time></trkpt><trkpt lat="43.626514" lon="12.0801994"><ele>417.0</ele><time>2026-04-29T11:49:57.615Z</time></trkpt><trkpt lat="43.6263482" lon="12.0800721"><ele>417.0</ele><time>2026-04-29T11:49:58.637Z</time></trkpt><trkpt lat="43.6262002" lon="12.0799594"><ele>416.0</ele><time>2026-04-29T11:49:59.612Z</time></trkpt><trkpt lat="43.6260606" lon="12.079853"><ele>415.0</ele><time>2026-04-29T11:50:00.633Z</time></trkpt><trkpt lat="43.6259308" lon="12.0797585"><ele>414.0</ele><time>2026-04-29T11:50:01.63Z</time></trkpt><trkpt lat="43.6258012" lon="12.0796588"><ele>414.0</ele><time>2026-04-29T11:50:02.625Z</time></trkpt><trkpt lat="43.6256679" lon="12.079552"><ele>414.0</ele><time>2026-04-29T11:50:03.642Z</time></trkpt><trkpt lat="43.6255354" lon="12.0794492"><ele>414.0</ele><time>2026-04-29T11:50:04.617Z</time></trkpt><trkpt lat="43.6253996" lon="12.0793272"><ele>415.33333333333337</ele><time>2026-04-29T11:50:05.636Z</time></trkpt><trkpt lat="43.6252559" lon="12.0792056"><ele>416.6666666666667</ele><time>2026-04-29T11:50:06.62Z</time></trkpt><trkpt lat="43.6251019" lon="12.0790948"><ele>418.0</ele><time>2026-04-29T11:50:07.63Z</time></trkpt><trkpt lat="43.6249748" lon="12.0790249"><ele>418.0</ele><time>2026-04-29T11:50:08.63Z</time></trkpt><trkpt lat="43.6248318" lon="12.0789912"><ele>418.0</ele><time>2026-04-29T11:50:09.637Z</time></trkpt><trkpt lat="43.6246808" lon="12.0790027"><ele>418.0</ele><time>2026-04-29T11:50:10.625Z</time></trkpt><trkpt lat="43.6245025" lon="12.079061"><ele>420.6666666666667</ele><time>2026-04-29T11:50:11.626Z</time></trkpt><trkpt lat="43.6243251" lon="12.0791637"><ele>423.33333333333337</ele><time>2026-04-29T11:50:12.624Z</time></trkpt><trkpt lat="43.6241429" lon="12.0792997"><ele>426.0</ele><time>2026-04-29T11:50:13.615Z</time></trkpt><trkpt lat="43.6239577" lon="12.0794484"><ele>426.0</ele><time>2026-04-29T11:50:14.631Z</time></trkpt><trkpt lat="43.6237827" lon="12.0795856"><ele>426.0</ele><time>2026-04-29T11:50:15.626Z</time></trkpt><trkpt lat="43.6236229" lon="12.0797163"><ele>426.0</ele><time>2026-04-29T11:50:16.626Z</time></trkpt><trkpt lat="43.6235067" lon="12.0798541"><ele>427.33333333333337</ele><time>2026-04-29T11:50:17.634Z</time></trkpt><trkpt lat="43.6234276" lon="12.0800272"><ele>428.6666666666667</ele><time>2026-04-29T11:50:18.643Z</time></trkpt><trkpt lat="43.6233684" lon="12.080241"><ele>430.0</ele><time>2026-04-29T11:50:19.631Z</time></trkpt><trkpt lat="43.623303" lon="12.0804843"><ele>430.0</ele><time>2026-04-29T11:50:20.628Z</time></trkpt><trkpt lat="43.6232419" lon="12.0807338"><ele>430.0</ele><time>2026-04-29T11:50:21.636Z</time></trkpt><trkpt lat="43.62319" lon="12.0809736"><ele>430.0</ele><time>2026-04-29T11:50:22.622Z</time></trkpt><trkpt lat="43.623145" lon="12.081186"><ele>433.25</ele><time>2026-04-29T11:50:23.64Z</time></trkpt><trkpt lat="43.6231085" lon="12.0813648"><ele>436.5</ele><time>2026-04-29T11:50:24.62Z</time></trkpt><trkpt lat="43.6230669" lon="12.0815337"><ele>439.75</ele><time>2026-04-29T11:50:25.629Z</time></trkpt><trkpt lat="43.6230388" lon="12.0816916"><ele>443.0</ele><time>2026-04-29T11:50:26.633Z</time></trkpt><trkpt lat="43.6230047" lon="12.0818435"><ele>445.5</ele><time>2026-04-29T11:50:27.646Z</time></trkpt><trkpt lat="43.6229714" lon="12.0819869"><ele>448.0</ele><time>2026-04-29T11:50:28.628Z</time></trkpt><trkpt lat="43.622938" lon="12.082141"><ele>450.5</ele><time>2026-04-29T11:50:29.617Z</time></trkpt><trkpt lat="43.6228942" lon="12.082335"><ele>453.0</ele><time>2026-04-29T11:50:30.625Z</time></trkpt><trkpt lat="43.6228511" lon="12.0825421"><ele>450.66666666666663</ele><time>2026-04-29T11:50:31.642Z</time></trkpt><trkpt lat="43.6228098" lon="12.0827292"><ele>448.3333333333333</ele><time>2026-04-29T11:50:32.616Z</time></trkpt><trkpt lat="43.6227503" lon="12.0829247"><ele>446.0</ele><time>2026-04-29T11:50:33.614Z</time></trkpt><trkpt lat="43.6226734" lon="12.0831279"><ele>449.0</ele><time>2026-04-29T11:50:34.627Z</time></trkpt><trkpt lat="43.6225728" lon="12.0833255"><ele>452.0</ele><time>2026-04-29T11:50:35.62Z</time></trkpt><trkpt lat="43.6224309" lon="12.0835146"><ele>455.0</ele><time>2026-04-29T11:50:36.628Z</time></trkpt><trkpt lat="43.6222633" lon="12.0836737"><ele>455.0</ele><time>2026-04-29T11:50:37.624Z</time></trkpt><trkpt lat="43.6220651" lon="12.0838011"><ele>455.0</ele><time>2026-04-29T11:50:38.63Z</time></trkpt><trkpt lat="43.6218452" lon="12.083902"><ele>455.0</ele><time>2026-04-29T11:50:39.634Z</time></trkpt><trkpt lat="43.6216151" lon="12.0839774"><ele>455.0</ele><time>2026-04-29T11:50:40.63Z</time></trkpt><trkpt lat="43.6213949" lon="12.0840362"><ele>455.0</ele><time>2026-04-29T11:50:41.621Z</time></trkpt><trkpt lat="43.6211907" lon="12.0840938"><ele>455.0</ele><time>2026-04-29T11:50:42.645Z</time></trkpt><trkpt lat="43.621013" lon="12.0841418"><ele>455.0</ele><time>2026-04-29T11:50:43.637Z</time></trkpt><trkpt lat="43.6208466" lon="12.0841859"><ele>459.3333333333333</ele><time>2026-04-29T11:50:44.626Z</time></trkpt><trkpt lat="43.6206849" lon="12.0842313"><ele>463.66666666666663</ele><time>2026-04-29T11:50:45.627Z</time></trkpt><trkpt lat="43.6205235" lon="12.0842872"><ele>468.0</ele><time>2026-04-29T11:50:46.632Z</time></trkpt><trkpt lat="43.6203651" lon="12.0843582"><ele>467.0</ele><time>2026-04-29T11:50:47.623Z</time></trkpt><trkpt lat="43.6201899" lon="12.0844499"><ele>466.0</ele><time>2026-04-29T11:50:48.637Z</time></trkpt><trkpt lat="43.6200267" lon="12.0845698"><ele>465.0</ele><time>2026-04-29T11:50:49.63Z</time></trkpt><trkpt lat="43.6198761" lon="12.0847201"><ele>465.0</ele><time>2026-04-29T11:50:50.645Z</time></trkpt><trkpt lat="43.6197279" lon="12.084898"><ele>465.0</ele><time>2026-04-29T11:50:51.63Z</time></trkpt><trkpt lat="43.6195888" lon="12.0851067"><ele>465.0</ele><time>2026-04-29T11:50:52.633Z</time></trkpt><trkpt lat="43.6194574" lon="12.0853436"><ele>463.5</ele><time>2026-04-29T11:50:53.633Z</time></trkpt><trkpt lat="43.6193244" lon="12.0856021"><ele>462.0</ele><time>2026-04-29T11:50:54.619Z</time></trkpt><trkpt lat="43.6191835" lon="12.0858745"><ele>464.0</ele><time>2026-04-29T11:50:55.631Z</time></trkpt><trkpt lat="43.6190576" lon="12.0861328"><ele>466.0</ele><time>2026-04-29T11:50:56.618Z</time></trkpt><trkpt lat="43.6189366" lon="12.0863724"><ele>468.0</ele><time>2026-04-29T11:50:57.617Z</time></trkpt><trkpt lat="43.6188197" lon="12.0866081"><ele>468.66666666666663</ele><time>2026-04-29T11:50:58.631Z</time></trkpt><trkpt lat="43.6187068" lon="12.0868394"><ele>469.3333333333333</ele><time>2026-04-29T11:50:59.656Z</time></trkpt><trkpt lat="43.6186055" lon="12.0870348"><ele>470.0</ele><time>2026-04-29T11:51:00.634Z</time></trkpt><trkpt lat="43.6184972" lon="12.0872113"><ele>470.0</ele><time>2026-04-29T11:51:01.623Z</time></trkpt><trkpt lat="43.6183715" lon="12.0873405"><ele>470.0</ele><time>2026-04-29T11:51:02.63Z</time></trkpt><trkpt lat="43.6182432" lon="12.0874103"><ele>470.0</ele><time>2026-04-29T11:51:03.626Z</time></trkpt><trkpt lat="43.618104" lon="12.0874193"><ele>470.0</ele><time>2026-04-29T11:51:04.658Z</time></trkpt><trkpt lat="43.6179783" lon="12.087366"><ele>470.0</ele><time>2026-04-29T11:51:05.628Z</time></trkpt><trkpt lat="43.6178527" lon="12.08724"><ele>470.0</ele><time>2026-04-29T11:51:06.635Z</time></trkpt><trkpt lat="43.6177339" lon="12.0870706"><ele>470.0</ele><time>2026-04-29T11:51:07.642Z</time></trkpt><trkpt lat="43.6176414" lon="12.0869027"><ele>469.3333333333333</ele><time>2026-04-29T11:51:08.619Z</time></trkpt><trkpt lat="43.6175472" lon="12.0867221"><ele>468.66666666666663</ele><time>2026-04-29T11:51:09.636Z</time></trkpt><trkpt lat="43.6174027" lon="12.0864386"><ele>468.0</ele><time>2026-04-29T11:51:10.994Z</time></trkpt><trkpt lat="43.6172414" lon="12.0861551"><ele>468.0</ele><time>2026-04-29T11:51:12.684Z</time></trkpt><trkpt lat="43.6171534" lon="12.0859929"><ele>468.0</ele><time>2026-04-29T11:51:13.696Z</time></trkpt><trkpt lat="43.6170612" lon="12.0858248"><ele>468.0</ele><time>2026-04-29T11:51:14.675Z</time></trkpt><trkpt lat="43.6169527" lon="12.0856439"><ele>470.33333333333337</ele><time>2026-04-29T11:51:15.683Z</time></trkpt><trkpt lat="43.6168454" lon="12.0854664"><ele>472.6666666666667</ele><time>2026-04-29T11:51:16.631Z</time></trkpt><trkpt lat="43.6167266" lon="12.0852772"><ele>475.0</ele><time>2026-04-29T11:51:17.628Z</time></trkpt><trkpt lat="43.6166025" lon="12.085081"><ele>471.6666666666667</ele><time>2026-04-29T11:51:18.633Z</time></trkpt><trkpt lat="43.616475" lon="12.0848847"><ele>468.33333333333337</ele><time>2026-04-29T11:51:19.651Z</time></trkpt><trkpt lat="43.6163548" lon="12.0847131"><ele>465.0</ele><time>2026-04-29T11:51:20.623Z</time></trkpt><trkpt lat="43.6162417" lon="12.0846017"><ele>467.0</ele><time>2026-04-29T11:51:21.63Z</time></trkpt><trkpt lat="43.6161245" lon="12.0845285"><ele>469.0</ele><time>2026-04-29T11:51:22.628Z</time></trkpt><trkpt lat="43.6160132" lon="12.0845041"><ele>471.0</ele><time>2026-04-29T11:51:23.645Z</time></trkpt><trkpt lat="43.6158666" lon="12.0845083"><ele>473.0</ele><time>2026-04-29T11:51:24.626Z</time></trkpt><trkpt lat="43.6157488" lon="12.0845268"><ele>473.0</ele><time>2026-04-29T11:51:25.631Z</time></trkpt><trkpt lat="43.6156093" lon="12.084549"><ele>473.0</ele><time>2026-04-29T11:51:26.626Z</time></trkpt><trkpt lat="43.615526" lon="12.0845666"><ele>473.0</ele><time>2026-04-29T11:51:27.625Z</time></trkpt><trkpt lat="43.6153987" lon="12.0845896"><ele>473.0</ele><time>2026-04-29T11:51:28.648Z</time></trkpt><trkpt lat="43.615253" lon="12.0846206"><ele>470.66666666666663</ele><time>2026-04-29T11:51:29.641Z</time></trkpt><trkpt lat="43.6150872" lon="12.084644"><ele>468.33333333333337</ele><time>2026-04-29T11:51:30.657Z</time></trkpt><trkpt lat="43.6148945" lon="12.084631"><ele>466.0</ele><time>2026-04-29T11:51:31.649Z</time></trkpt><trkpt lat="43.6146993" lon="12.084585"><ele>466.0</ele><time>2026-04-29T11:51:32.64Z</time></trkpt><trkpt lat="43.6145309" lon="12.0845037"><ele>466.0</ele><time>2026-04-29T11:51:33.626Z</time></trkpt><trkpt lat="43.6143319" lon="12.084378"><ele>466.0</ele><time>2026-04-29T11:51:34.621Z</time></trkpt><trkpt lat="43.6141278" lon="12.0842427"><ele>464.5</ele><time>2026-04-29T11:51:35.63Z</time></trkpt><trkpt lat="43.613939" lon="12.0841113"><ele>463.0</ele><time>2026-04-29T11:51:36.626Z</time></trkpt><trkpt lat="43.613712" lon="12.0839647"><ele>463.75</ele><time>2026-04-29T11:51:37.948Z</time></trkpt><trkpt lat="43.6135483" lon="12.0838158"><ele>464.5</ele><time>2026-04-29T11:51:39.703Z</time></trkpt><trkpt lat="43.6134391" lon="12.0837432"><ele>465.25</ele><time>2026-04-29T11:51:40.688Z</time></trkpt><trkpt lat="43.6133237" lon="12.0836632"><ele>466.0</ele><time>2026-04-29T11:51:41.681Z</time></trkpt><trkpt lat="43.6131839" lon="12.0835663"><ele>466.0</ele><time>2026-04-29T11:51:42.705Z</time></trkpt><trkpt lat="43.6130551" lon="12.0834767"><ele>466.0</ele><time>2026-04-29T11:51:43.667Z</time></trkpt><trkpt lat="43.6129251" lon="12.0834032"><ele>466.0</ele><time>2026-04-29T11:51:44.682Z</time></trkpt><trkpt lat="43.6127914" lon="12.0833711"><ele>466.0</ele><time>2026-04-29T11:51:45.702Z</time></trkpt><trkpt lat="43.6126583" lon="12.0833797"><ele>467.75</ele><time>2026-04-29T11:51:46.682Z</time></trkpt><trkpt lat="43.6125132" lon="12.0834184"><ele>469.5</ele><time>2026-04-29T11:51:47.687Z</time></trkpt><trkpt lat="43.6123719" lon="12.0834546"><ele>471.25</ele><time>2026-04-29T11:51:48.622Z</time></trkpt><trkpt lat="43.612217" lon="12.0834931"><ele>473.0</ele><time>2026-04-29T11:51:49.634Z</time></trkpt><trkpt lat="43.6120469" lon="12.0835219"><ele>475.3333333333333</ele><time>2026-04-29T11:51:50.641Z</time></trkpt><trkpt lat="43.6118681" lon="12.0835313"><ele>477.66666666666663</ele><time>2026-04-29T11:51:51.644Z</time></trkpt><trkpt lat="43.611693" lon="12.0835096"><ele>480.0</ele><time>2026-04-29T11:51:52.623Z</time></trkpt><trkpt lat="43.6115121" lon="12.0834535"><ele>480.0</ele><time>2026-04-29T11:51:53.623Z</time></trkpt><trkpt lat="43.6113437" lon="12.0834059"><ele>480.0</ele><time>2026-04-29T11:51:54.62Z</time></trkpt><trkpt lat="43.6111789" lon="12.083358"><ele>480.0</ele><time>2026-04-29T11:51:55.654Z</time></trkpt><trkpt lat="43.6110274" lon="12.0833095"><ele>475.66666666666663</ele><time>2026-04-29T11:51:56.614Z</time></trkpt><trkpt lat="43.6108642" lon="12.0832573"><ele>471.3333333333333</ele><time>2026-04-29T11:51:57.626Z</time></trkpt><trkpt lat="43.6107033" lon="12.0832011"><ele>467.0</ele><time>2026-04-29T11:51:58.631Z</time></trkpt><trkpt lat="43.6105375" lon="12.0831424"><ele>467.0</ele><time>2026-04-29T11:51:59.649Z</time></trkpt><trkpt lat="43.6103657" lon="12.0830881"><ele>467.0</ele><time>2026-04-29T11:52:00.645Z</time></trkpt><trkpt lat="43.6101836" lon="12.0830534"><ele>467.0</ele><time>2026-04-29T11:52:01.632Z</time></trkpt><trkpt lat="43.6099958" lon="12.0830489"><ele>467.0</ele><time>2026-04-29T11:52:02.641Z</time></trkpt><trkpt lat="43.6098304" lon="12.0830811"><ele>467.0</ele><time>2026-04-29T11:52:03.65Z</time></trkpt><trkpt lat="43.6096607" lon="12.0831523"><ele>467.0</ele><time>2026-04-29T11:52:04.623Z</time></trkpt><trkpt lat="43.6094988" lon="12.0832562"><ele>470.3333333333333</ele><time>2026-04-29T11:52:05.634Z</time></trkpt><trkpt lat="43.609337" lon="12.0833707"><ele>473.66666666666663</ele><time>2026-04-29T11:52:06.624Z</time></trkpt><trkpt lat="43.6091557" lon="12.0835007"><ele>477.0</ele><time>2026-04-29T11:52:07.664Z</time></trkpt><trkpt lat="43.608992" lon="12.0836159"><ele>477.0</ele><time>2026-04-29T11:52:08.625Z</time></trkpt><trkpt lat="43.6088236" lon="12.0837342"><ele>477.0</ele><time>2026-04-29T11:52:09.632Z</time></trkpt><trkpt lat="43.6086703" lon="12.0838471"><ele>477.0</ele><time>2026-04-29T11:52:10.636Z</time></trkpt><trkpt lat="43.6085307" lon="12.0839635"><ele>477.0</ele><time>2026-04-29T11:52:11.648Z</time></trkpt><trkpt lat="43.6084177" lon="12.0840738"><ele>477.00000000000006</ele><time>2026-04-29T11:52:12.627Z</time></trkpt><trkpt lat="43.6083212" lon="12.0841651"><ele>477.00000000000006</ele><time>2026-04-29T11:52:13.635Z</time></trkpt><trkpt lat="43.6082416" lon="12.0842257"><ele>477.0</ele><time>2026-04-29T11:52:14.621Z</time></trkpt><trkpt lat="43.6081768" lon="12.084188"><ele>477.0</ele><time>2026-04-29T11:52:16.645Z</time></trkpt><trkpt lat="43.6081265" lon="12.0841338"><ele>474.6</ele><time>2026-04-29T11:52:17.642Z</time></trkpt><trkpt lat="43.6080536" lon="12.0840179"><ele>472.20000000000005</ele><time>2026-04-29T11:52:20.003Z</time></trkpt><trkpt lat="43.6079678" lon="12.0839179"><ele>469.8</ele><time>2026-04-29T11:52:22.674Z</time></trkpt><trkpt lat="43.6079101" lon="12.0838487"><ele>467.4</ele><time>2026-04-29T11:52:23.708Z</time></trkpt><trkpt lat="43.607843" lon="12.0837767"><ele>465.0</ele><time>2026-04-29T11:52:24.676Z</time></trkpt><trkpt lat="43.6077617" lon="12.0836984"><ele>463.6</ele><time>2026-04-29T11:52:25.696Z</time></trkpt><trkpt lat="43.6076845" lon="12.0836249"><ele>462.2</ele><time>2026-04-29T11:52:26.694Z</time></trkpt><trkpt lat="43.6076072" lon="12.0835558"><ele>460.79999999999995</ele><time>2026-04-29T11:52:27.673Z</time></trkpt><trkpt lat="43.607525" lon="12.0834877"><ele>459.4</ele><time>2026-04-29T11:52:28.677Z</time></trkpt><trkpt lat="43.6074446" lon="12.0834267"><ele>458.0</ele><time>2026-04-29T11:52:29.651Z</time></trkpt><trkpt lat="43.6073686" lon="12.0833732"><ele>457.99999999999994</ele><time>2026-04-29T11:52:30.634Z</time></trkpt><trkpt lat="43.6072928" lon="12.0833208"><ele>458.0</ele><time>2026-04-29T11:52:31.661Z</time></trkpt><trkpt lat="43.607229" lon="12.0832753"><ele>458.0</ele><time>2026-04-29T11:52:32.624Z</time></trkpt><trkpt lat="43.6071599" lon="12.083228"><ele>458.0</ele><time>2026-04-29T11:52:33.625Z</time></trkpt><trkpt lat="43.6070873" lon="12.083178"><ele>457.99999999999994</ele><time>2026-04-29T11:52:34.651Z</time></trkpt><trkpt lat="43.6070175" lon="12.0831296"><ele>458.0</ele><time>2026-04-29T11:52:35.626Z</time></trkpt><trkpt lat="43.6069416" lon="12.0830776"><ele>456.0</ele><time>2026-04-29T11:52:36.636Z</time></trkpt><trkpt lat="43.60686" lon="12.0830256"><ele>453.99999999999994</ele><time>2026-04-29T11:52:37.653Z</time></trkpt><trkpt lat="43.6067791" lon="12.0829724"><ele>451.99999999999994</ele><time>2026-04-29T11:52:38.647Z</time></trkpt><trkpt lat="43.6066936" lon="12.0829241"><ele>450.0</ele><time>2026-04-29T11:52:39.638Z</time></trkpt><trkpt lat="43.6065972" lon="12.0828697"><ele>448.0</ele><time>2026-04-29T11:52:40.626Z</time></trkpt><trkpt lat="43.6064865" lon="12.0828228"><ele>448.0</ele><time>2026-04-29T11:52:41.632Z</time></trkpt><trkpt lat="43.6063719" lon="12.0827882"><ele>448.0</ele><time>2026-04-29T11:52:42.629Z</time></trkpt><trkpt lat="43.6062445" lon="12.0827664"><ele>448.0</ele><time>2026-04-29T11:52:43.637Z</time></trkpt><trkpt lat="43.6061177" lon="12.082755"><ele>448.0</ele><time>2026-04-29T11:52:44.63Z</time></trkpt><trkpt lat="43.6059907" lon="12.082755"><ele>448.5</ele><time>2026-04-29T11:52:45.643Z</time></trkpt><trkpt lat="43.6058622" lon="12.0827545"><ele>449.0</ele><time>2026-04-29T11:52:46.651Z</time></trkpt><trkpt lat="43.6057414" lon="12.0827307"><ele>449.5</ele><time>2026-04-29T11:52:47.629Z</time></trkpt><trkpt lat="43.6056024" lon="12.0826847"><ele>450.0</ele><time>2026-04-29T11:52:48.633Z</time></trkpt><trkpt lat="43.6054572" lon="12.082613"><ele>451.33333333333337</ele><time>2026-04-29T11:52:49.637Z</time></trkpt><trkpt lat="43.6053067" lon="12.0825225"><ele>452.6666666666667</ele><time>2026-04-29T11:52:50.651Z</time></trkpt><trkpt lat="43.6051511" lon="12.0824293"><ele>454.0</ele><time>2026-04-29T11:52:51.634Z</time></trkpt><trkpt lat="43.6050036" lon="12.0823226"><ele>451.33333333333337</ele><time>2026-04-29T11:52:52.623Z</time></trkpt><trkpt lat="43.604872" lon="12.0821835"><ele>448.66666666666663</ele><time>2026-04-29T11:52:53.627Z</time></trkpt><trkpt lat="43.6047739" lon="12.0820109"><ele>446.0</ele><time>2026-04-29T11:52:54.658Z</time></trkpt><trkpt lat="43.6046562" lon="12.0818083"><ele>446.0</ele><time>2026-04-29T11:52:55.67Z</time></trkpt><trkpt lat="43.6045572" lon="12.0816131"><ele>446.0</ele><time>2026-04-29T11:52:56.633Z</time></trkpt><trkpt lat="43.6044687" lon="12.0814263"><ele>446.0</ele><time>2026-04-29T11:52:57.627Z</time></trkpt><trkpt lat="43.6043897" lon="12.0812734"><ele>445.8</ele><time>2026-04-29T11:52:58.639Z</time></trkpt><trkpt lat="43.6043256" lon="12.0811523"><ele>445.6</ele><time>2026-04-29T11:52:59.633Z</time></trkpt><trkpt lat="43.6042637" lon="12.0810365"><ele>445.4</ele><time>2026-04-29T11:53:00.642Z</time></trkpt><trkpt lat="43.604207" lon="12.0809179"><ele>445.2</ele><time>2026-04-29T11:53:01.63Z</time></trkpt><trkpt lat="43.6041374" lon="12.0807798"><ele>445.0</ele><time>2026-04-29T11:53:02.646Z</time></trkpt><trkpt lat="43.6040606" lon="12.0806376"><ele>444.25</ele><time>2026-04-29T11:53:03.624Z</time></trkpt><trkpt lat="43.6039741" lon="12.0804833"><ele>443.5</ele><time>2026-04-29T11:53:04.632Z</time></trkpt><trkpt lat="43.6038844" lon="12.0803144"><ele>442.75</ele><time>2026-04-29T11:53:05.638Z</time></trkpt><trkpt lat="43.603799" lon="12.08015"><ele>442.0</ele><time>2026-04-29T11:53:06.623Z</time></trkpt><trkpt lat="43.6037084" lon="12.079972"><ele>443.0</ele><time>2026-04-29T11:53:07.635Z</time></trkpt><trkpt lat="43.6036159" lon="12.0798014"><ele>444.0</ele><time>2026-04-29T11:53:08.64Z</time></trkpt><trkpt lat="43.6035222" lon="12.0796255"><ele>445.0</ele><time>2026-04-29T11:53:09.625Z</time></trkpt><trkpt lat="43.6034221" lon="12.0794374"><ele>445.0</ele><time>2026-04-29T11:53:10.639Z</time></trkpt><trkpt lat="43.6033196" lon="12.0792557"><ele>445.0</ele><time>2026-04-29T11:53:11.641Z</time></trkpt><trkpt lat="43.60322" lon="12.0790637"><ele>445.0</ele><time>2026-04-29T11:53:12.628Z</time></trkpt><trkpt lat="43.603116" lon="12.0788681"><ele>444.6666666666667</ele><time>2026-04-29T11:53:13.629Z</time></trkpt><trkpt lat="43.6030059" lon="12.0786711"><ele>444.33333333333337</ele><time>2026-04-29T11:53:14.637Z</time></trkpt><trkpt lat="43.6028893" lon="12.078479"><ele>444.0</ele><time>2026-04-29T11:53:15.635Z</time></trkpt><trkpt lat="43.6027686" lon="12.0783013"><ele>441.0</ele><time>2026-04-29T11:53:16.635Z</time></trkpt><trkpt lat="43.6026446" lon="12.0781313"><ele>438.0</ele><time>2026-04-29T11:53:17.635Z</time></trkpt><trkpt lat="43.6025247" lon="12.0779646"><ele>435.0</ele><time>2026-04-29T11:53:18.625Z</time></trkpt><trkpt lat="43.6024034" lon="12.0777947"><ele>435.0</ele><time>2026-04-29T11:53:19.643Z</time></trkpt><trkpt lat="43.6022825" lon="12.077624"><ele>435.0</ele><time>2026-04-29T11:53:20.634Z</time></trkpt><trkpt lat="43.6021679" lon="12.0774581"><ele>435.0</ele><time>2026-04-29T11:53:21.621Z</time></trkpt><trkpt lat="43.602048" lon="12.0772928"><ele>433.33333333333337</ele><time>2026-04-29T11:53:22.626Z</time></trkpt><trkpt lat="43.6019308" lon="12.0771327"><ele>431.6666666666667</ele><time>2026-04-29T11:53:23.632Z</time></trkpt><trkpt lat="43.601815" lon="12.0769746"><ele>430.0</ele><time>2026-04-29T11:53:24.633Z</time></trkpt><trkpt lat="43.6017" lon="12.0768152"><ele>430.0</ele><time>2026-04-29T11:53:25.625Z</time></trkpt><trkpt lat="43.6015674" lon="12.0766503"><ele>430.0</ele><time>2026-04-29T11:53:26.636Z</time></trkpt><trkpt lat="43.6014472" lon="12.0764847"><ele>430.0</ele><time>2026-04-29T11:53:27.631Z</time></trkpt><trkpt lat="43.6013313" lon="12.0763143"><ele>427.0</ele><time>2026-04-29T11:53:28.648Z</time></trkpt><trkpt lat="43.6012157" lon="12.0761475"><ele>424.0</ele><time>2026-04-29T11:53:29.638Z</time></trkpt><trkpt lat="43.6010959" lon="12.0759815"><ele>421.0</ele><time>2026-04-29T11:53:30.632Z</time></trkpt><trkpt lat="43.600968" lon="12.0758099"><ele>417.6666666666667</ele><time>2026-04-29T11:53:31.654Z</time></trkpt><trkpt lat="43.6008359" lon="12.0756515"><ele>414.33333333333337</ele><time>2026-04-29T11:53:32.661Z</time></trkpt><trkpt lat="43.600697" lon="12.0755157"><ele>411.0</ele><time>2026-04-29T11:53:33.64Z</time></trkpt><trkpt lat="43.6005423" lon="12.0754065"><ele>411.0</ele><time>2026-04-29T11:53:34.631Z</time></trkpt><trkpt lat="43.6003736" lon="12.075309"><ele>411.0</ele><time>2026-04-29T11:53:35.636Z</time></trkpt><trkpt lat="43.6002006" lon="12.0752262"><ele>411.0</ele><time>2026-04-29T11:53:36.638Z</time></trkpt><trkpt lat="43.6000413" lon="12.0751487"><ele>412.66666666666663</ele><time>2026-04-29T11:53:37.619Z</time></trkpt><trkpt lat="43.5998855" lon="12.0750708"><ele>414.3333333333333</ele><time>2026-04-29T11:53:38.636Z</time></trkpt><trkpt lat="43.5997297" lon="12.0749901"><ele>416.0</ele><time>2026-04-29T11:53:39.64Z</time></trkpt><trkpt lat="43.5995769" lon="12.0749073"><ele>414.0</ele><time>2026-04-29T11:53:40.632Z</time></trkpt><trkpt lat="43.5994183" lon="12.0748206"><ele>412.0</ele><time>2026-04-29T11:53:41.644Z</time></trkpt><trkpt lat="43.5992631" lon="12.0747438"><ele>410.0</ele><time>2026-04-29T11:53:42.65Z</time></trkpt><trkpt lat="43.5991154" lon="12.0746971"><ele>410.0</ele><time>2026-04-29T11:53:43.641Z</time></trkpt><trkpt lat="43.5989911" lon="12.0746905"><ele>410.0</ele><time>2026-04-29T11:53:44.637Z</time></trkpt><trkpt lat="43.5988784" lon="12.0747337"><ele>410.0</ele><time>2026-04-29T11:53:45.637Z</time></trkpt><trkpt lat="43.5987769" lon="12.0748336"><ele>410.0</ele><time>2026-04-29T11:53:46.639Z</time></trkpt><trkpt lat="43.598664" lon="12.0749872"><ele>408.75</ele><time>2026-04-29T11:53:47.632Z</time></trkpt><trkpt lat="43.5985927" lon="12.0751538"><ele>407.5</ele><time>2026-04-29T11:53:48.633Z</time></trkpt><trkpt lat="43.5985575" lon="12.0753332"><ele>406.25</ele><time>2026-04-29T11:53:49.631Z</time></trkpt><trkpt lat="43.5985641" lon="12.075492"><ele>405.0</ele><time>2026-04-29T11:53:50.622Z</time></trkpt><trkpt lat="43.5985867" lon="12.0756756"><ele>403.66666666666663</ele><time>2026-04-29T11:53:51.644Z</time></trkpt><trkpt lat="43.5986125" lon="12.0758791"><ele>402.3333333333333</ele><time>2026-04-29T11:53:52.671Z</time></trkpt><trkpt lat="43.5986538" lon="12.0760806"><ele>401.0</ele><time>2026-04-29T11:53:53.639Z</time></trkpt><trkpt lat="43.5986956" lon="12.0763077"><ele>408.66666666666663</ele><time>2026-04-29T11:53:54.635Z</time></trkpt><trkpt lat="43.5987391" lon="12.0765394"><ele>416.33333333333337</ele><time>2026-04-29T11:53:55.637Z</time></trkpt><trkpt lat="43.598782" lon="12.0767836"><ele>424.0</ele><time>2026-04-29T11:53:56.636Z</time></trkpt><trkpt lat="43.5988229" lon="12.0770275"><ele>424.33333333333337</ele><time>2026-04-29T11:53:57.623Z</time></trkpt><trkpt lat="43.5988505" lon="12.0772724"><ele>424.66666666666663</ele><time>2026-04-29T11:53:58.627Z</time></trkpt><trkpt lat="43.598886" lon="12.0775367"><ele>425.0</ele><time>2026-04-29T11:53:59.624Z</time></trkpt><trkpt lat="43.5989254" lon="12.0778061"><ele>425.3333333333333</ele><time>2026-04-29T11:54:00.627Z</time></trkpt><trkpt lat="43.5989612" lon="12.0780818"><ele>425.66666666666663</ele><time>2026-04-29T11:54:01.612Z</time></trkpt><trkpt lat="43.5990012" lon="12.078361"><ele>426.0</ele><time>2026-04-29T11:54:02.626Z</time></trkpt><trkpt lat="43.5990362" lon="12.0786423"><ele>425.0</ele><time>2026-04-29T11:54:03.631Z</time></trkpt><trkpt lat="43.5990621" lon="12.0789198"><ele>424.0</ele><time>2026-04-29T11:54:04.636Z</time></trkpt><trkpt lat="43.5990711" lon="12.0792018"><ele>423.0</ele><time>2026-04-29T11:54:05.635Z</time></trkpt><trkpt lat="43.5990582" lon="12.0795089"><ele>423.0</ele><time>2026-04-29T11:54:06.669Z</time></trkpt><trkpt lat="43.5990191" lon="12.0797765"><ele>423.0</ele><time>2026-04-29T11:54:07.632Z</time></trkpt><trkpt lat="43.5989622" lon="12.0800689"><ele>423.0</ele><time>2026-04-29T11:54:08.651Z</time></trkpt><trkpt lat="43.5989023" lon="12.0803556"><ele>423.0</ele><time>2026-04-29T11:54:09.626Z</time></trkpt><trkpt lat="43.5988498" lon="12.0806362"><ele>423.0</ele><time>2026-04-29T11:54:10.632Z</time></trkpt><trkpt lat="43.5987834" lon="12.0809303"><ele>423.0</ele><time>2026-04-29T11:54:11.643Z</time></trkpt><trkpt lat="43.5987168" lon="12.0812062"><ele>415.0</ele><time>2026-04-29T11:54:12.637Z</time></trkpt><trkpt lat="43.5986506" lon="12.0814626"><ele>407.0</ele><time>2026-04-29T11:54:13.632Z</time></trkpt><trkpt lat="43.598591" lon="12.0817234"><ele>399.0</ele><time>2026-04-29T11:54:14.628Z</time></trkpt><trkpt lat="43.5985425" lon="12.0819649"><ele>396.33333333333337</ele><time>2026-04-29T11:54:15.615Z</time></trkpt><trkpt lat="43.598499" lon="12.0821962"><ele>393.6666666666667</ele><time>2026-04-29T11:54:16.635Z</time></trkpt><trkpt lat="43.5984527" lon="12.0824111"><ele>391.0</ele><time>2026-04-29T11:54:17.641Z</time></trkpt><trkpt lat="43.5984047" lon="12.0826269"><ele>389.6666666666667</ele><time>2026-04-29T11:54:18.624Z</time></trkpt><trkpt lat="43.5983461" lon="12.0828694"><ele>388.33333333333337</ele><time>2026-04-29T11:54:19.643Z</time></trkpt><trkpt lat="43.5982917" lon="12.083114"><ele>387.0</ele><time>2026-04-29T11:54:20.628Z</time></trkpt><trkpt lat="43.5982245" lon="12.0833788"><ele>391.0</ele><time>2026-04-29T11:54:21.628Z</time></trkpt><trkpt lat="43.598166" lon="12.0836439"><ele>395.0</ele><time>2026-04-29T11:54:22.627Z</time></trkpt><trkpt lat="43.5981083" lon="12.0839061"><ele>399.0</ele><time>2026-04-29T11:54:23.63Z</time></trkpt><trkpt lat="43.598052" lon="12.0841742"><ele>404.33333333333337</ele><time>2026-04-29T11:54:24.638Z</time></trkpt><trkpt lat="43.5979945" lon="12.0844433"><ele>409.6666666666667</ele><time>2026-04-29T11:54:25.632Z</time></trkpt><trkpt lat="43.5979352" lon="12.0847251"><ele>415.0</ele><time>2026-04-29T11:54:26.651Z</time></trkpt><trkpt lat="43.5978768" lon="12.0849941"><ele>411.33333333333337</ele><time>2026-04-29T11:54:27.64Z</time></trkpt><trkpt lat="43.5978398" lon="12.0852495"><ele>407.66666666666663</ele><time>2026-04-29T11:54:28.642Z</time></trkpt><trkpt lat="43.597829" lon="12.0854774"><ele>404.0</ele><time>2026-04-29T11:54:29.647Z</time></trkpt><trkpt lat="43.5978454" lon="12.0857174"><ele>416.0</ele><time>2026-04-29T11:54:30.634Z</time></trkpt><trkpt lat="43.597882" lon="12.0859769"><ele>428.0</ele><time>2026-04-29T11:54:31.642Z</time></trkpt><trkpt lat="43.5979236" lon="12.08626"><ele>440.0</ele><time>2026-04-29T11:54:32.641Z</time></trkpt><trkpt lat="43.5979694" lon="12.0865626"><ele>439.5</ele><time>2026-04-29T11:54:33.649Z</time></trkpt><trkpt lat="43.5980114" lon="12.0868864"><ele>439.0</ele><time>2026-04-29T11:54:34.66Z</time></trkpt><trkpt lat="43.5980472" lon="12.087193"><ele>438.5</ele><time>2026-04-29T11:54:35.629Z</time></trkpt><trkpt lat="43.5980879" lon="12.0875232"><ele>438.0</ele><time>2026-04-29T11:54:36.636Z</time></trkpt><trkpt lat="43.5981263" lon="12.0878401"><ele>438.0</ele><time>2026-04-29T11:54:37.628Z</time></trkpt><trkpt lat="43.5981649" lon="12.0881505"><ele>438.0</ele><time>2026-04-29T11:54:38.635Z</time></trkpt><trkpt lat="43.5981991" lon="12.0884411"><ele>438.0</ele><time>2026-04-29T11:54:39.627Z</time></trkpt><trkpt lat="43.5982357" lon="12.0887235"><ele>438.33333333333337</ele><time>2026-04-29T11:54:40.624Z</time></trkpt><trkpt lat="43.5982928" lon="12.0889764"><ele>438.6666666666667</ele><time>2026-04-29T11:54:41.636Z</time></trkpt><trkpt lat="43.5983793" lon="12.0892128"><ele>439.0</ele><time>2026-04-29T11:54:42.634Z</time></trkpt><trkpt lat="43.5984819" lon="12.0894453"><ele>440.33333333333337</ele><time>2026-04-29T11:54:43.628Z</time></trkpt><trkpt lat="43.5986107" lon="12.0896875"><ele>441.66666666666663</ele><time>2026-04-29T11:54:44.643Z</time></trkpt><trkpt lat="43.5987372" lon="12.0899324"><ele>443.0</ele><time>2026-04-29T11:54:45.621Z</time></trkpt><trkpt lat="43.5988809" lon="12.0901893"><ele>443.0</ele><time>2026-04-29T11:54:46.631Z</time></trkpt><trkpt lat="43.5990278" lon="12.0904599"><ele>443.0</ele><time>2026-04-29T11:54:47.638Z</time></trkpt><trkpt lat="43.5991761" lon="12.0907299"><ele>435.5</ele><time>2026-04-29T11:54:48.639Z</time></trkpt><trkpt lat="43.5993319" lon="12.091"><ele>428.0</ele><time>2026-04-29T11:54:49.651Z</time></trkpt><trkpt lat="43.5994845" lon="12.0912737"><ele>430.5</ele><time>2026-04-29T11:54:50.653Z</time></trkpt><trkpt lat="43.5996276" lon="12.0915403"><ele>433.0</ele><time>2026-04-29T11:54:51.632Z</time></trkpt><trkpt lat="43.5997596" lon="12.0918179"><ele>433.0</ele><time>2026-04-29T11:54:52.653Z</time></trkpt><trkpt lat="43.5998803" lon="12.0920846"><ele>433.0</ele><time>2026-04-29T11:54:53.656Z</time></trkpt><trkpt lat="43.5999953" lon="12.092335"><ele>433.0</ele><time>2026-04-29T11:54:54.638Z</time></trkpt><trkpt lat="43.6001131" lon="12.0925876"><ele>436.6666666666667</ele><time>2026-04-29T11:54:55.634Z</time></trkpt><trkpt lat="43.60023" lon="12.09284"><ele>440.33333333333337</ele><time>2026-04-29T11:54:56.634Z</time></trkpt><trkpt lat="43.6003524" lon="12.093103"><ele>444.0</ele><time>2026-04-29T11:54:57.653Z</time></trkpt><trkpt lat="43.6004753" lon="12.0933672"><ele>436.66666666666663</ele><time>2026-04-29T11:54:58.667Z</time></trkpt><trkpt lat="43.600594" lon="12.0936196"><ele>429.3333333333333</ele><time>2026-04-29T11:54:59.632Z</time></trkpt><trkpt lat="43.6007124" lon="12.0938742"><ele>422.0</ele><time>2026-04-29T11:55:00.625Z</time></trkpt><trkpt lat="43.6008242" lon="12.0941243"><ele>418.3333333333333</ele><time>2026-04-29T11:55:01.631Z</time></trkpt><trkpt lat="43.6009375" lon="12.0943742"><ele>414.66666666666663</ele><time>2026-04-29T11:55:02.629Z</time></trkpt><trkpt lat="43.601039" lon="12.0946324"><ele>411.0</ele><time>2026-04-29T11:55:03.623Z</time></trkpt><trkpt lat="43.6011173" lon="12.0949199"><ele>410.0</ele><time>2026-04-29T11:55:04.667Z</time></trkpt><trkpt lat="43.601162" lon="12.0951974"><ele>409.0</ele><time>2026-04-29T11:55:05.627Z</time></trkpt><trkpt lat="43.6011713" lon="12.0954994"><ele>408.0</ele><time>2026-04-29T11:55:06.62Z</time></trkpt><trkpt lat="43.6011359" lon="12.0957944"><ele>404.0</ele><time>2026-04-29T11:55:07.633Z</time></trkpt><trkpt lat="43.6010598" lon="12.0960816"><ele>400.0</ele><time>2026-04-29T11:55:08.639Z</time></trkpt><trkpt lat="43.6009612" lon="12.096369"><ele>399.0</ele><time>2026-04-29T11:55:09.641Z</time></trkpt><trkpt lat="43.600862" lon="12.0966593"><ele>398.0</ele><time>2026-04-29T11:55:10.637Z</time></trkpt><trkpt lat="43.6007687" lon="12.096961"><ele>398.0</ele><time>2026-04-29T11:55:11.631Z</time></trkpt><trkpt lat="43.6006689" lon="12.0972778"><ele>398.0</ele><time>2026-04-29T11:55:12.638Z</time></trkpt><trkpt lat="43.6005764" lon="12.097587"><ele>397.0</ele><time>2026-04-29T11:55:13.62Z</time></trkpt><trkpt lat="43.6004904" lon="12.0979037"><ele>396.0</ele><time>2026-04-29T11:55:14.644Z</time></trkpt><trkpt lat="43.6003945" lon="12.0982186"><ele>395.0</ele><time>2026-04-29T11:55:15.633Z</time></trkpt><trkpt lat="43.6002942" lon="12.0985491"><ele>394.0</ele><time>2026-04-29T11:55:16.654Z</time></trkpt><trkpt lat="43.6002047" lon="12.0988554"><ele>395.5</ele><time>2026-04-29T11:55:17.614Z</time></trkpt><trkpt lat="43.6001144" lon="12.0991677"><ele>397.0</ele><time>2026-04-29T11:55:18.632Z</time></trkpt><trkpt lat="43.6000267" lon="12.0994751"><ele>397.0</ele><time>2026-04-29T11:55:19.624Z</time></trkpt><trkpt lat="43.5999384" lon="12.099778"><ele>397.0</ele><time>2026-04-29T11:55:20.631Z</time></trkpt><trkpt lat="43.5998574" lon="12.1000611"><ele>398.33333333333337</ele><time>2026-04-29T11:55:21.638Z</time></trkpt><trkpt lat="43.5997824" lon="12.1003171"><ele>399.66666666666663</ele><time>2026-04-29T11:55:22.635Z</time></trkpt><trkpt lat="43.5997075" lon="12.1005572"><ele>401.0</ele><time>2026-04-29T11:55:23.645Z</time></trkpt><trkpt lat="43.5996333" lon="12.1007741"><ele>401.66666666666663</ele><time>2026-04-29T11:55:24.637Z</time></trkpt><trkpt lat="43.5995479" lon="12.1009653"><ele>402.33333333333337</ele><time>2026-04-29T11:55:25.639Z</time></trkpt><trkpt lat="43.5994328" lon="12.1011408"><ele>403.0</ele><time>2026-04-29T11:55:26.631Z</time></trkpt><trkpt lat="43.5992825" lon="12.1012916"><ele>403.0</ele><time>2026-04-29T11:55:27.649Z</time></trkpt><trkpt lat="43.5991058" lon="12.1014036"><ele>403.0</ele><time>2026-04-29T11:55:28.639Z</time></trkpt><trkpt lat="43.5989075" lon="12.1014735"><ele>403.0</ele><time>2026-04-29T11:55:29.634Z</time></trkpt><trkpt lat="43.598699" lon="12.1014896"><ele>403.5</ele><time>2026-04-29T11:55:30.628Z</time></trkpt><trkpt lat="43.5984739" lon="12.1014593"><ele>404.0</ele><time>2026-04-29T11:55:31.628Z</time></trkpt><trkpt lat="43.598235" lon="12.101374"><ele>404.0</ele><time>2026-04-29T11:55:32.668Z</time></trkpt><trkpt lat="43.5980183" lon="12.1012763"><ele>404.0</ele><time>2026-04-29T11:55:33.635Z</time></trkpt><trkpt lat="43.5977856" lon="12.101179"><ele>407.0</ele><time>2026-04-29T11:55:34.635Z</time></trkpt><trkpt lat="43.5975519" lon="12.1010767"><ele>410.0</ele><time>2026-04-29T11:55:35.639Z</time></trkpt><trkpt lat="43.5973146" lon="12.1009758"><ele>410.0</ele><time>2026-04-29T11:55:36.652Z</time></trkpt><trkpt lat="43.5970812" lon="12.1008796"><ele>410.0</ele><time>2026-04-29T11:55:37.639Z</time></trkpt><trkpt lat="43.5968495" lon="12.1007761"><ele>407.0</ele><time>2026-04-29T11:55:38.642Z</time></trkpt><trkpt lat="43.5966284" lon="12.1006529"><ele>404.0</ele><time>2026-04-29T11:55:39.646Z</time></trkpt><trkpt lat="43.5963998" lon="12.1005136"><ele>404.0</ele><time>2026-04-29T11:55:40.638Z</time></trkpt><trkpt lat="43.5961687" lon="12.1003646"><ele>404.0</ele><time>2026-04-29T11:55:41.641Z</time></trkpt><trkpt lat="43.5959363" lon="12.1002151"><ele>404.0</ele><time>2026-04-29T11:55:42.63Z</time></trkpt><trkpt lat="43.5957034" lon="12.1000672"><ele>404.0</ele><time>2026-04-29T11:55:43.627Z</time></trkpt><trkpt lat="43.5954754" lon="12.0999226"><ele>403.5</ele><time>2026-04-29T11:55:44.63Z</time></trkpt><trkpt lat="43.5952588" lon="12.0997889"><ele>403.0</ele><time>2026-04-29T11:55:45.621Z</time></trkpt><trkpt lat="43.5950465" lon="12.0996564"><ele>403.0</ele><time>2026-04-29T11:55:46.653Z</time></trkpt><trkpt lat="43.5948598" lon="12.0995394"><ele>403.0</ele><time>2026-04-29T11:55:47.638Z</time></trkpt><trkpt lat="43.5946912" lon="12.0994387"><ele>403.0</ele><time>2026-04-29T11:55:48.623Z</time></trkpt><trkpt lat="43.5945406" lon="12.0993459"><ele>403.25</ele><time>2026-04-29T11:55:49.632Z</time></trkpt><trkpt lat="43.5944042" lon="12.0992665"><ele>403.5</ele><time>2026-04-29T11:55:50.649Z</time></trkpt><trkpt lat="43.5942844" lon="12.0991947"><ele>403.75</ele><time>2026-04-29T11:55:51.642Z</time></trkpt><trkpt lat="43.5941731" lon="12.0991294"><ele>404.0</ele><time>2026-04-29T11:55:52.641Z</time></trkpt><trkpt lat="43.5940743" lon="12.0990674"><ele>403.0</ele><time>2026-04-29T11:55:53.63Z</time></trkpt><trkpt lat="43.5939998" lon="12.0989794"><ele>402.0</ele><time>2026-04-29T11:55:54.638Z</time></trkpt><trkpt lat="43.5939342" lon="12.0988438"><ele>401.0</ele><time>2026-04-29T11:55:55.637Z</time></trkpt><trkpt lat="43.5938935" lon="12.0986655"><ele>400.0</ele><time>2026-04-29T11:55:56.636Z</time></trkpt><trkpt lat="43.5938522" lon="12.0984657"><ele>400.0</ele><time>2026-04-29T11:55:57.644Z</time></trkpt><trkpt lat="43.5938183" lon="12.0982534"><ele>400.0</ele><time>2026-04-29T11:55:58.623Z</time></trkpt><trkpt lat="43.5937938" lon="12.0980114"><ele>400.0</ele><time>2026-04-29T11:55:59.627Z</time></trkpt><trkpt lat="43.5937749" lon="12.0977627"><ele>399.25</ele><time>2026-04-29T11:56:00.64Z</time></trkpt><trkpt lat="43.5937614" lon="12.0975375"><ele>398.5</ele><time>2026-04-29T11:56:01.637Z</time></trkpt><trkpt lat="43.5937384" lon="12.0973321"><ele>397.75</ele><time>2026-04-29T11:56:02.641Z</time></trkpt><trkpt lat="43.593693" lon="12.0971695"><ele>397.0</ele><time>2026-04-29T11:56:03.624Z</time></trkpt><trkpt lat="43.5936288" lon="12.0970546"><ele>396.50000000000006</ele><time>2026-04-29T11:56:04.62Z</time></trkpt><trkpt lat="43.5935409" lon="12.0969742"><ele>396.0</ele><time>2026-04-29T11:56:05.632Z</time></trkpt><trkpt lat="43.5934491" lon="12.0969352"><ele>395.5</ele><time>2026-04-29T11:56:06.633Z</time></trkpt><trkpt lat="43.5933535" lon="12.0969189"><ele>395.0</ele><time>2026-04-29T11:56:07.629Z</time></trkpt><trkpt lat="43.5932734" lon="12.0969394"><ele>394.50000000000006</ele><time>2026-04-29T11:56:08.652Z</time></trkpt><trkpt lat="43.5932141" lon="12.0969903"><ele>394.0</ele><time>2026-04-29T11:56:09.659Z</time></trkpt><trkpt lat="43.5931371" lon="12.0971288"><ele>394.0</ele><time>2026-04-29T11:56:10.626Z</time></trkpt><trkpt lat="43.5931118" lon="12.097316"><ele>394.0</ele><time>2026-04-29T11:56:11.614Z</time></trkpt><trkpt lat="43.5931152" lon="12.0975339"><ele>394.0</ele><time>2026-04-29T11:56:12.619Z</time></trkpt><trkpt lat="43.593142" lon="12.0977706"><ele>394.0</ele><time>2026-04-29T11:56:13.625Z</time></trkpt><trkpt lat="43.5931629" lon="12.0980009"><ele>394.0</ele><time>2026-04-29T11:56:14.625Z</time></trkpt><trkpt lat="43.5931695" lon="12.0982113"><ele>394.0</ele><time>2026-04-29T11:56:15.636Z</time></trkpt><trkpt lat="43.5931454" lon="12.098375"><ele>394.0</ele><time>2026-04-29T11:56:16.63Z</time></trkpt><trkpt lat="43.593134" lon="12.098557"><ele>394.0</ele><time>2026-04-29T11:56:17.637Z</time></trkpt><trkpt lat="43.5931048" lon="12.0987235"><ele>394.0</ele><time>2026-04-29T11:56:18.637Z</time></trkpt><trkpt lat="43.5930516" lon="12.098862"><ele>394.0</ele><time>2026-04-29T11:56:19.623Z</time></trkpt><trkpt lat="43.592965" lon="12.0990045"><ele>394.0</ele><time>2026-04-29T11:56:20.643Z</time></trkpt><trkpt lat="43.5928433" lon="12.0991189"><ele>389.33333333333337</ele><time>2026-04-29T11:56:21.643Z</time></trkpt><trkpt lat="43.5927036" lon="12.0992185"><ele>384.6666666666667</ele><time>2026-04-29T11:56:22.632Z</time></trkpt><trkpt lat="43.5925538" lon="12.0993024"><ele>380.0</ele><time>2026-04-29T11:56:23.619Z</time></trkpt><trkpt lat="43.5923913" lon="12.0993901"><ele>380.0</ele><time>2026-04-29T11:56:24.646Z</time></trkpt><trkpt lat="43.5922382" lon="12.0994769"><ele>380.0</ele><time>2026-04-29T11:56:25.648Z</time></trkpt><trkpt lat="43.5920923" lon="12.0995695"><ele>380.0</ele><time>2026-04-29T11:56:26.648Z</time></trkpt><trkpt lat="43.5920201" lon="12.0996442"><ele>380.0</ele><time>2026-04-29T11:56:27.642Z</time></trkpt><trkpt lat="43.5918407" lon="12.1001427"><ele>382.33333333333337</ele><time>2026-04-29T11:56:30.689Z</time></trkpt><trkpt lat="43.5918793" lon="12.1003264"><ele>384.6666666666667</ele><time>2026-04-29T11:56:31.699Z</time></trkpt><trkpt lat="43.5919426" lon="12.1005216"><ele>387.0</ele><time>2026-04-29T11:56:32.718Z</time></trkpt><trkpt lat="43.592039" lon="12.1007607"><ele>387.0</ele><time>2026-04-29T11:56:33.671Z</time></trkpt><trkpt lat="43.5921506" lon="12.101015"><ele>387.0</ele><time>2026-04-29T11:56:34.718Z</time></trkpt><trkpt lat="43.5922434" lon="12.1012294"><ele>387.0</ele><time>2026-04-29T11:56:35.683Z</time></trkpt><trkpt lat="43.5923428" lon="12.1014679"><ele>384.3333333333333</ele><time>2026-04-29T11:56:36.718Z</time></trkpt><trkpt lat="43.5924364" lon="12.1016801"><ele>381.66666666666663</ele><time>2026-04-29T11:56:37.739Z</time></trkpt><trkpt lat="43.5925384" lon="12.1018506"><ele>379.0</ele><time>2026-04-29T11:56:38.679Z</time></trkpt><trkpt lat="43.5926589" lon="12.1020208"><ele>379.0</ele><time>2026-04-29T11:56:39.707Z</time></trkpt><trkpt lat="43.5927848" lon="12.1021969"><ele>379.0</ele><time>2026-04-29T11:56:40.706Z</time></trkpt><trkpt lat="43.5929033" lon="12.1023762"><ele>379.0</ele><time>2026-04-29T11:56:41.707Z</time></trkpt><trkpt lat="43.5930016" lon="12.1025507"><ele>380.75</ele><time>2026-04-29T11:56:42.704Z</time></trkpt><trkpt lat="43.5930877" lon="12.1027174"><ele>382.5</ele><time>2026-04-29T11:56:43.692Z</time></trkpt><trkpt lat="43.5931684" lon="12.1028865"><ele>384.25</ele><time>2026-04-29T11:56:44.713Z</time></trkpt><trkpt lat="43.593222" lon="12.1030663"><ele>386.0</ele><time>2026-04-29T11:56:45.692Z</time></trkpt><trkpt lat="43.5932491" lon="12.103269"><ele>386.0</ele><time>2026-04-29T11:56:46.685Z</time></trkpt><trkpt lat="43.5932472" lon="12.1034737"><ele>386.0</ele><time>2026-04-29T11:56:47.699Z</time></trkpt><trkpt lat="43.5932151" lon="12.1036718"><ele>386.0</ele><time>2026-04-29T11:56:48.702Z</time></trkpt><trkpt lat="43.5931492" lon="12.1038584"><ele>386.0</ele><time>2026-04-29T11:56:49.708Z</time></trkpt><trkpt lat="43.5930607" lon="12.104005"><ele>384.66666666666663</ele><time>2026-04-29T11:56:50.687Z</time></trkpt><trkpt lat="43.5929448" lon="12.1041217"><ele>383.3333333333333</ele><time>2026-04-29T11:56:51.702Z</time></trkpt><trkpt lat="43.5928049" lon="12.1041965"><ele>382.0</ele><time>2026-04-29T11:56:52.684Z</time></trkpt><trkpt lat="43.5926404" lon="12.104222"><ele>379.3333333333333</ele><time>2026-04-29T11:56:53.689Z</time></trkpt><trkpt lat="43.5924588" lon="12.1041955"><ele>376.6666666666667</ele><time>2026-04-29T11:56:54.701Z</time></trkpt><trkpt lat="43.5922697" lon="12.1041427"><ele>374.0</ele><time>2026-04-29T11:56:55.69Z</time></trkpt><trkpt lat="43.5920695" lon="12.1040783"><ele>372.33333333333337</ele><time>2026-04-29T11:56:56.711Z</time></trkpt><trkpt lat="43.5918862" lon="12.1040237"><ele>370.6666666666667</ele><time>2026-04-29T11:56:57.686Z</time></trkpt><trkpt lat="43.5917023" lon="12.1039906"><ele>369.0</ele><time>2026-04-29T11:56:58.695Z</time></trkpt><trkpt lat="43.5915255" lon="12.1039991"><ele>369.0</ele><time>2026-04-29T11:56:59.698Z</time></trkpt><trkpt lat="43.5913493" lon="12.1040512"><ele>369.0</ele><time>2026-04-29T11:57:00.697Z</time></trkpt><trkpt lat="43.5911745" lon="12.1041444"><ele>369.0</ele><time>2026-04-29T11:57:01.689Z</time></trkpt><trkpt lat="43.5910029" lon="12.1042817"><ele>369.0</ele><time>2026-04-29T11:57:02.701Z</time></trkpt><trkpt lat="43.5908311" lon="12.1044342"><ele>369.0</ele><time>2026-04-29T11:57:03.692Z</time></trkpt><trkpt lat="43.5906501" lon="12.1046014"><ele>369.0</ele><time>2026-04-29T11:57:04.701Z</time></trkpt><trkpt lat="43.5904636" lon="12.1047713"><ele>365.5</ele><time>2026-04-29T11:57:05.695Z</time></trkpt><trkpt lat="43.5902724" lon="12.1049448"><ele>362.0</ele><time>2026-04-29T11:57:06.687Z</time></trkpt><trkpt lat="43.5900784" lon="12.1051212"><ele>362.0</ele><time>2026-04-29T11:57:07.679Z</time></trkpt><trkpt lat="43.5898775" lon="12.1053037"><ele>362.0</ele><time>2026-04-29T11:57:08.693Z</time></trkpt><trkpt lat="43.5896762" lon="12.1054879"><ele>361.0</ele><time>2026-04-29T11:57:09.706Z</time></trkpt><trkpt lat="43.5894785" lon="12.1056686"><ele>360.0</ele><time>2026-04-29T11:57:10.695Z</time></trkpt><trkpt lat="43.5892829" lon="12.1058475"><ele>361.6666666666667</ele><time>2026-04-29T11:57:11.699Z</time></trkpt><trkpt lat="43.5890946" lon="12.1060117"><ele>363.33333333333337</ele><time>2026-04-29T11:57:12.699Z</time></trkpt><trkpt lat="43.5889161" lon="12.106174"><ele>365.0</ele><time>2026-04-29T11:57:13.702Z</time></trkpt><trkpt lat="43.5887546" lon="12.1063162"><ele>364.0</ele><time>2026-04-29T11:57:14.689Z</time></trkpt><trkpt lat="43.5885878" lon="12.1064701"><ele>363.0</ele><time>2026-04-29T11:57:15.7Z</time></trkpt><trkpt lat="43.5884361" lon="12.1066206"><ele>362.0</ele><time>2026-04-29T11:57:16.685Z</time></trkpt><trkpt lat="43.5882934" lon="12.1067868"><ele>362.0</ele><time>2026-04-29T11:57:17.7Z</time></trkpt><trkpt lat="43.5881688" lon="12.1069689"><ele>362.0</ele><time>2026-04-29T11:57:18.708Z</time></trkpt><trkpt lat="43.5880626" lon="12.1071683"><ele>362.0</ele><time>2026-04-29T11:57:19.691Z</time></trkpt><trkpt lat="43.5879703" lon="12.1074079"><ele>362.6666666666667</ele><time>2026-04-29T11:57:20.716Z</time></trkpt><trkpt lat="43.5878944" lon="12.1076618"><ele>363.3333333333333</ele><time>2026-04-29T11:57:21.689Z</time></trkpt><trkpt lat="43.587818" lon="12.1079476"><ele>364.0</ele><time>2026-04-29T11:57:22.708Z</time></trkpt><trkpt lat="43.5877417" lon="12.1082366"><ele>358.5</ele><time>2026-04-29T11:57:23.692Z</time></trkpt><trkpt lat="43.587658" lon="12.1085506"><ele>353.0</ele><time>2026-04-29T11:57:24.72Z</time></trkpt><trkpt lat="43.5875808" lon="12.1088531"><ele>354.0</ele><time>2026-04-29T11:57:25.692Z</time></trkpt><trkpt lat="43.5874996" lon="12.1091605"><ele>355.0</ele><time>2026-04-29T11:57:26.683Z</time></trkpt><trkpt lat="43.5874169" lon="12.1094632"><ele>355.0</ele><time>2026-04-29T11:57:27.7Z</time></trkpt><trkpt lat="43.5873405" lon="12.1097425"><ele>355.0</ele><time>2026-04-29T11:57:28.697Z</time></trkpt><trkpt lat="43.5872623" lon="12.1100108"><ele>355.0</ele><time>2026-04-29T11:57:29.682Z</time></trkpt><trkpt lat="43.5871649" lon="12.1102741"><ele>354.3333333333333</ele><time>2026-04-29T11:57:30.689Z</time></trkpt><trkpt lat="43.5870406" lon="12.1105261"><ele>353.6666666666667</ele><time>2026-04-29T11:57:31.704Z</time></trkpt><trkpt lat="43.5868921" lon="12.1107622"><ele>353.0</ele><time>2026-04-29T11:57:32.699Z</time></trkpt><trkpt lat="43.58673" lon="12.1109935"><ele>353.0</ele><time>2026-04-29T11:57:33.711Z</time></trkpt><trkpt lat="43.5865753" lon="12.1112065"><ele>353.0</ele><time>2026-04-29T11:57:34.706Z</time></trkpt><trkpt lat="43.5864378" lon="12.1114188"><ele>353.0</ele><time>2026-04-29T11:57:35.688Z</time></trkpt><trkpt lat="43.5863167" lon="12.111651"><ele>353.0</ele><time>2026-04-29T11:57:36.687Z</time></trkpt><trkpt lat="43.5862083" lon="12.1119094"><ele>353.0</ele><time>2026-04-29T11:57:37.7Z</time></trkpt><trkpt lat="43.5861125" lon="12.1121551"><ele>353.0</ele><time>2026-04-29T11:57:38.679Z</time></trkpt><trkpt lat="43.5860172" lon="12.1124085"><ele>350.33333333333337</ele><time>2026-04-29T11:57:39.727Z</time></trkpt><trkpt lat="43.5859363" lon="12.1126277"><ele>347.6666666666667</ele><time>2026-04-29T11:57:40.671Z</time></trkpt><trkpt lat="43.585854" lon="12.1128602"><ele>345.0</ele><time>2026-04-29T11:57:41.7Z</time></trkpt><trkpt lat="43.5857785" lon="12.1130786"><ele>345.0</ele><time>2026-04-29T11:57:42.702Z</time></trkpt><trkpt lat="43.5857091" lon="12.1132819"><ele>345.0</ele><time>2026-04-29T11:57:43.673Z</time></trkpt><trkpt lat="43.5856374" lon="12.1134851"><ele>345.0</ele><time>2026-04-29T11:57:44.681Z</time></trkpt><trkpt lat="43.5855742" lon="12.1136845"><ele>345.0</ele><time>2026-04-29T11:57:45.679Z</time></trkpt><trkpt lat="43.5855238" lon="12.1138917"><ele>345.0</ele><time>2026-04-29T11:57:46.69Z</time></trkpt><trkpt lat="43.5854928" lon="12.1141096"><ele>345.0</ele><time>2026-04-29T11:57:47.678Z</time></trkpt><trkpt lat="43.5854791" lon="12.1143699"><ele>345.3333333333333</ele><time>2026-04-29T11:57:48.686Z</time></trkpt><trkpt lat="43.5854676" lon="12.1146399"><ele>345.66666666666663</ele><time>2026-04-29T11:57:49.642Z</time></trkpt><trkpt lat="43.5854528" lon="12.11495"><ele>346.0</ele><time>2026-04-29T11:57:50.648Z</time></trkpt><trkpt lat="43.5854297" lon="12.1152446"><ele>346.0</ele><time>2026-04-29T11:57:51.649Z</time></trkpt><trkpt lat="43.5854028" lon="12.1155134"><ele>346.0</ele><time>2026-04-29T11:57:52.627Z</time></trkpt><trkpt lat="43.5853577" lon="12.1157769"><ele>346.0</ele><time>2026-04-29T11:57:53.616Z</time></trkpt><trkpt lat="43.5852938" lon="12.1160516"><ele>344.0</ele><time>2026-04-29T11:57:54.619Z</time></trkpt><trkpt lat="43.5851945" lon="12.1163219"><ele>342.0</ele><time>2026-04-29T11:57:55.645Z</time></trkpt><trkpt lat="43.5850843" lon="12.1165687"><ele>340.0</ele><time>2026-04-29T11:57:56.621Z</time></trkpt><trkpt lat="43.5849772" lon="12.1168143"><ele>340.0</ele><time>2026-04-29T11:57:57.639Z</time></trkpt><trkpt lat="43.584878" lon="12.117063"><ele>340.0</ele><time>2026-04-29T11:57:58.633Z</time></trkpt><trkpt lat="43.5847847" lon="12.117311"><ele>340.0</ele><time>2026-04-29T11:57:59.627Z</time></trkpt><trkpt lat="43.5846899" lon="12.1175683"><ele>341.0</ele><time>2026-04-29T11:58:00.63Z</time></trkpt><trkpt lat="43.5845939" lon="12.1178314"><ele>342.0</ele><time>2026-04-29T11:58:01.641Z</time></trkpt><trkpt lat="43.5844943" lon="12.1180979"><ele>343.0</ele><time>2026-04-29T11:58:02.642Z</time></trkpt><trkpt lat="43.5843934" lon="12.1183636"><ele>341.0</ele><time>2026-04-29T11:58:03.638Z</time></trkpt><trkpt lat="43.5842849" lon="12.1186267"><ele>339.0</ele><time>2026-04-29T11:58:04.638Z</time></trkpt><trkpt lat="43.5841676" lon="12.118883"><ele>337.0</ele><time>2026-04-29T11:58:05.638Z</time></trkpt><trkpt lat="43.5840355" lon="12.1191341"><ele>337.0</ele><time>2026-04-29T11:58:06.651Z</time></trkpt><trkpt lat="43.5838925" lon="12.1193768"><ele>337.0</ele><time>2026-04-29T11:58:07.666Z</time></trkpt><trkpt lat="43.5837538" lon="12.1196058"><ele>337.0</ele><time>2026-04-29T11:58:08.64Z</time></trkpt><trkpt lat="43.5836145" lon="12.1198372"><ele>336.66666666666663</ele><time>2026-04-29T11:58:09.638Z</time></trkpt><trkpt lat="43.5834792" lon="12.1200634"><ele>336.3333333333333</ele><time>2026-04-29T11:58:10.626Z</time></trkpt><trkpt lat="43.5833426" lon="12.120288"><ele>336.0</ele><time>2026-04-29T11:58:11.628Z</time></trkpt><trkpt lat="43.5832052" lon="12.1205194"><ele>335.6666666666667</ele><time>2026-04-29T11:58:12.648Z</time></trkpt><trkpt lat="43.5830739" lon="12.1207464"><ele>335.33333333333337</ele><time>2026-04-29T11:58:13.642Z</time></trkpt><trkpt lat="43.5829353" lon="12.1209854"><ele>335.0</ele><time>2026-04-29T11:58:14.673Z</time></trkpt><trkpt lat="43.5828031" lon="12.1212171"><ele>335.0</ele><time>2026-04-29T11:58:15.656Z</time></trkpt><trkpt lat="43.5826699" lon="12.1214432"><ele>335.0</ele><time>2026-04-29T11:58:16.637Z</time></trkpt><trkpt lat="43.58253" lon="12.1216777"><ele>335.0</ele><time>2026-04-29T11:58:17.643Z</time></trkpt><trkpt lat="43.582388" lon="12.121918"><ele>335.33333333333337</ele><time>2026-04-29T11:58:18.669Z</time></trkpt><trkpt lat="43.5822493" lon="12.1221563"><ele>335.6666666666667</ele><time>2026-04-29T11:58:19.67Z</time></trkpt><trkpt lat="43.5821172" lon="12.1223865"><ele>336.0</ele><time>2026-04-29T11:58:20.65Z</time></trkpt><trkpt lat="43.5819774" lon="12.1226207"><ele>336.0</ele><time>2026-04-29T11:58:21.644Z</time></trkpt><trkpt lat="43.5818412" lon="12.1228549"><ele>336.0</ele><time>2026-04-29T11:58:22.642Z</time></trkpt><trkpt lat="43.5817028" lon="12.1230911"><ele>336.0</ele><time>2026-04-29T11:58:23.648Z</time></trkpt><trkpt lat="43.5815672" lon="12.1233272"><ele>336.3333333333333</ele><time>2026-04-29T11:58:24.643Z</time></trkpt><trkpt lat="43.5814314" lon="12.1235651"><ele>336.66666666666663</ele><time>2026-04-29T11:58:25.633Z</time></trkpt><trkpt lat="43.5812953" lon="12.1237976"><ele>337.0</ele><time>2026-04-29T11:58:26.628Z</time></trkpt><trkpt lat="43.58116" lon="12.1240213"><ele>336.66666666666663</ele><time>2026-04-29T11:58:27.663Z</time></trkpt><trkpt lat="43.5810363" lon="12.1242215"><ele>336.3333333333333</ele><time>2026-04-29T11:58:28.65Z</time></trkpt><trkpt lat="43.5809195" lon="12.1244118"><ele>336.0</ele><time>2026-04-29T11:58:29.656Z</time></trkpt><trkpt lat="43.580819" lon="12.1245859"><ele>336.0</ele><time>2026-04-29T11:58:30.637Z</time></trkpt><trkpt lat="43.5807306" lon="12.1247487"><ele>336.0</ele><time>2026-04-29T11:58:31.649Z</time></trkpt><trkpt lat="43.5806439" lon="12.1248964"><ele>336.0</ele><time>2026-04-29T11:58:32.671Z</time></trkpt><trkpt lat="43.5805648" lon="12.1250161"><ele>336.0</ele><time>2026-04-29T11:58:33.631Z</time></trkpt><trkpt lat="43.580482" lon="12.1251201"><ele>336.4</ele><time>2026-04-29T11:58:34.659Z</time></trkpt><trkpt lat="43.5803971" lon="12.1251977"><ele>336.8</ele><time>2026-04-29T11:58:35.625Z</time></trkpt><trkpt lat="43.5803245" lon="12.1252369"><ele>337.2</ele><time>2026-04-29T11:58:36.643Z</time></trkpt><trkpt lat="43.5802189" lon="12.1252535"><ele>337.59999999999997</ele><time>2026-04-29T11:58:37.631Z</time></trkpt><trkpt lat="43.580081" lon="12.1252358"><ele>338.0</ele><time>2026-04-29T11:58:38.642Z</time></trkpt><trkpt lat="43.5799227" lon="12.125181"><ele>336.33333333333337</ele><time>2026-04-29T11:58:39.64Z</time></trkpt><trkpt lat="43.5797337" lon="12.1251033"><ele>334.6666666666667</ele><time>2026-04-29T11:58:40.634Z</time></trkpt><trkpt lat="43.5795213" lon="12.1250077"><ele>333.0</ele><time>2026-04-29T11:58:41.668Z</time></trkpt><trkpt lat="43.5793028" lon="12.124923"><ele>332.5</ele><time>2026-04-29T11:58:42.636Z</time></trkpt><trkpt lat="43.5790782" lon="12.1248418"><ele>332.0</ele><time>2026-04-29T11:58:43.633Z</time></trkpt><trkpt lat="43.5788433" lon="12.1247583"><ele>330.0</ele><time>2026-04-29T11:58:44.652Z</time></trkpt><trkpt lat="43.5786138" lon="12.124675"><ele>328.0</ele><time>2026-04-29T11:58:45.642Z</time></trkpt><trkpt lat="43.578383" lon="12.1245924"><ele>328.0</ele><time>2026-04-29T11:58:46.642Z</time></trkpt><trkpt lat="43.5781544" lon="12.1245086"><ele>328.0</ele><time>2026-04-29T11:58:47.633Z</time></trkpt><trkpt lat="43.5779207" lon="12.1244249"><ele>327.5</ele><time>2026-04-29T11:58:48.661Z</time></trkpt><trkpt lat="43.5776933" lon="12.1243444"><ele>327.0</ele><time>2026-04-29T11:58:49.656Z</time></trkpt><trkpt lat="43.5774677" lon="12.1242593"><ele>327.0</ele><time>2026-04-29T11:58:50.646Z</time></trkpt><trkpt lat="43.5772397" lon="12.1241747"><ele>327.0</ele><time>2026-04-29T11:58:51.652Z</time></trkpt><trkpt lat="43.5770125" lon="12.1240942"><ele>325.5</ele><time>2026-04-29T11:58:52.641Z</time></trkpt><trkpt lat="43.5767901" lon="12.1240064"><ele>324.0</ele><time>2026-04-29T11:58:53.64Z</time></trkpt><trkpt lat="43.5765681" lon="12.1239165"><ele>324.0</ele><time>2026-04-29T11:58:54.645Z</time></trkpt><trkpt lat="43.5763441" lon="12.1238234"><ele>324.0</ele><time>2026-04-29T11:58:55.661Z</time></trkpt><trkpt lat="43.5761314" lon="12.1237453"><ele>323.3333333333333</ele><time>2026-04-29T11:58:56.645Z</time></trkpt><trkpt lat="43.5759173" lon="12.1236888"><ele>322.66666666666663</ele><time>2026-04-29T11:58:57.632Z</time></trkpt><trkpt lat="43.5756983" lon="12.1236716"><ele>322.0</ele><time>2026-04-29T11:58:58.652Z</time></trkpt><trkpt lat="43.5754776" lon="12.1236822"><ele>321.0</ele><time>2026-04-29T11:58:59.637Z</time></trkpt><trkpt lat="43.5752353" lon="12.1237189"><ele>320.0</ele><time>2026-04-29T11:59:00.661Z</time></trkpt><trkpt lat="43.5750023" lon="12.1237725"><ele>320.0</ele><time>2026-04-29T11:59:01.645Z</time></trkpt><trkpt lat="43.5747703" lon="12.1238375"><ele>320.0</ele><time>2026-04-29T11:59:02.626Z</time></trkpt><trkpt lat="43.5745304" lon="12.1239021"><ele>319.0</ele><time>2026-04-29T11:59:03.635Z</time></trkpt><trkpt lat="43.5742988" lon="12.1239614"><ele>318.0</ele><time>2026-04-29T11:59:04.639Z</time></trkpt><trkpt lat="43.5740712" lon="12.1240166"><ele>318.0</ele><time>2026-04-29T11:59:05.637Z</time></trkpt><trkpt lat="43.5738469" lon="12.1240702"><ele>318.0</ele><time>2026-04-29T11:59:06.634Z</time></trkpt><trkpt lat="43.5736232" lon="12.124117"><ele>318.0</ele><time>2026-04-29T11:59:07.648Z</time></trkpt><trkpt lat="43.5733931" lon="12.1241453"><ele>318.0</ele><time>2026-04-29T11:59:08.649Z</time></trkpt><trkpt lat="43.5731672" lon="12.1241521"><ele>318.0</ele><time>2026-04-29T11:59:09.629Z</time></trkpt><trkpt lat="43.5729404" lon="12.1241301"><ele>318.0</ele><time>2026-04-29T11:59:10.635Z</time></trkpt><trkpt lat="43.5727172" lon="12.1240794"><ele>317.0</ele><time>2026-04-29T11:59:11.649Z</time></trkpt><trkpt lat="43.572502" lon="12.1240099"><ele>316.0</ele><time>2026-04-29T11:59:12.638Z</time></trkpt><trkpt lat="43.5722796" lon="12.1239141"><ele>316.0</ele><time>2026-04-29T11:59:13.659Z</time></trkpt><trkpt lat="43.5720773" lon="12.1237969"><ele>316.0</ele><time>2026-04-29T11:59:14.632Z</time></trkpt><trkpt lat="43.5718704" lon="12.1236515"><ele>316.0</ele><time>2026-04-29T11:59:15.651Z</time></trkpt><trkpt lat="43.5716741" lon="12.123496"><ele>316.0</ele><time>2026-04-29T11:59:16.638Z</time></trkpt><trkpt lat="43.5714782" lon="12.1233291"><ele>315.66666666666663</ele><time>2026-04-29T11:59:17.633Z</time></trkpt><trkpt lat="43.5712838" lon="12.1231653"><ele>315.3333333333333</ele><time>2026-04-29T11:59:18.65Z</time></trkpt><trkpt lat="43.5710987" lon="12.1230291"><ele>315.0</ele><time>2026-04-29T11:59:19.633Z</time></trkpt><trkpt lat="43.5709132" lon="12.122919"><ele>314.6666666666667</ele><time>2026-04-29T11:59:20.649Z</time></trkpt><trkpt lat="43.5707518" lon="12.1228657"><ele>314.33333333333337</ele><time>2026-04-29T11:59:21.652Z</time></trkpt><trkpt lat="43.5705883" lon="12.1228534"><ele>314.0</ele><time>2026-04-29T11:59:22.657Z</time></trkpt><trkpt lat="43.5704341" lon="12.1228921"><ele>314.6666666666667</ele><time>2026-04-29T11:59:23.637Z</time></trkpt><trkpt lat="43.5702454" lon="12.1229772"><ele>315.3333333333333</ele><time>2026-04-29T11:59:24.667Z</time></trkpt><trkpt lat="43.5700839" lon="12.1230915"><ele>316.0</ele><time>2026-04-29T11:59:25.633Z</time></trkpt><trkpt lat="43.5698981" lon="12.1232534"><ele>316.0</ele><time>2026-04-29T11:59:26.66Z</time></trkpt><trkpt lat="43.5697133" lon="12.1234163"><ele>316.0</ele><time>2026-04-29T11:59:27.633Z</time></trkpt><trkpt lat="43.5695251" lon="12.1235793"><ele>316.0</ele><time>2026-04-29T11:59:28.654Z</time></trkpt><trkpt lat="43.5693604" lon="12.1237289"><ele>315.0</ele><time>2026-04-29T11:59:29.649Z</time></trkpt><trkpt lat="43.5692264" lon="12.1238482"><ele>314.0</ele><time>2026-04-29T11:59:30.635Z</time></trkpt><trkpt lat="43.5691056" lon="12.1239497"><ele>313.0</ele><time>2026-04-29T11:59:31.645Z</time></trkpt><trkpt lat="43.5690171" lon="12.1240133"><ele>312.0</ele><time>2026-04-29T11:59:32.661Z</time></trkpt><trkpt lat="43.568935" lon="12.1240415"><ele>312.0</ele><time>2026-04-29T11:59:33.641Z</time></trkpt><trkpt lat="43.5688616" lon="12.1240417"><ele>312.0</ele><time>2026-04-29T11:59:35.669Z</time></trkpt><trkpt lat="43.5687818" lon="12.1240083"><ele>312.0</ele><time>2026-04-29T11:59:41.651Z</time></trkpt><trkpt lat="43.5687207" lon="12.1239487"><ele>312.0</ele><time>2026-04-29T11:59:42.647Z</time></trkpt><trkpt lat="43.5686488" lon="12.123851"><ele>312.0</ele><time>2026-04-29T11:59:43.648Z</time></trkpt><trkpt lat="43.5685555" lon="12.1237048"><ele>311.6666666666667</ele><time>2026-04-29T11:59:44.667Z</time></trkpt><trkpt lat="43.5684679" lon="12.1235447"><ele>311.33333333333337</ele><time>2026-04-29T11:59:45.649Z</time></trkpt><trkpt lat="43.5683784" lon="12.123371"><ele>311.0</ele><time>2026-04-29T11:59:46.63Z</time></trkpt><trkpt lat="43.5682891" lon="12.1231749"><ele>311.0</ele><time>2026-04-29T11:59:47.65Z</time></trkpt><trkpt lat="43.5681926" lon="12.1229732"><ele>311.0</ele><time>2026-04-29T11:59:48.649Z</time></trkpt><trkpt lat="43.5680967" lon="12.1227859"><ele>311.0</ele><time>2026-04-29T11:59:49.626Z</time></trkpt><trkpt lat="43.5680119" lon="12.1226173"><ele>311.0</ele><time>2026-04-29T11:59:50.639Z</time></trkpt><trkpt lat="43.5679472" lon="12.1224892"><ele>311.0</ele><time>2026-04-29T11:59:51.633Z</time></trkpt><trkpt lat="43.5678907" lon="12.122372"><ele>311.0</ele><time>2026-04-29T11:59:52.642Z</time></trkpt><trkpt lat="43.5678633" lon="12.1222809"><ele>311.0</ele><time>2026-04-29T11:59:53.638Z</time></trkpt><trkpt lat="43.5678541" lon="12.1221915"><ele>311.0</ele><time>2026-04-29T11:59:59.644Z</time></trkpt><trkpt lat="43.5678784" lon="12.1220639"><ele>311.0</ele><time>2026-04-29T12:00:01.633Z</time></trkpt><trkpt lat="43.5678863" lon="12.1219201"><ele>310.40000000000003</ele><time>2026-04-29T12:00:03.64Z</time></trkpt><trkpt lat="43.5678205" lon="12.1217833"><ele>309.8</ele><time>2026-04-29T12:00:05.633Z</time></trkpt><trkpt lat="43.5677428" lon="12.1217426"><ele>309.20000000000005</ele><time>2026-04-29T12:00:06.65Z</time></trkpt><trkpt lat="43.5676634" lon="12.121744"><ele>308.6</ele><time>2026-04-29T12:00:07.638Z</time></trkpt><trkpt lat="43.567569" lon="12.1217699"><ele>308.0</ele><time>2026-04-29T12:00:08.64Z</time></trkpt><trkpt lat="43.5674615" lon="12.1217883"><ele>308.0</ele><time>2026-04-29T12:00:09.639Z</time></trkpt><trkpt lat="43.5673533" lon="12.1217785"><ele>308.0</ele><time>2026-04-29T12:00:10.641Z</time></trkpt><trkpt lat="43.5672452" lon="12.1217375"><ele>308.0</ele><time>2026-04-29T12:00:11.638Z</time></trkpt><trkpt lat="43.567136" lon="12.1216748"><ele>308.0</ele><time>2026-04-29T12:00:12.627Z</time></trkpt><trkpt lat="43.5670219" lon="12.1216029"><ele>308.25</ele><time>2026-04-29T12:00:13.647Z</time></trkpt><trkpt lat="43.5669006" lon="12.1215264"><ele>308.5</ele><time>2026-04-29T12:00:14.642Z</time></trkpt><trkpt lat="43.5667813" lon="12.1214577"><ele>308.75</ele><time>2026-04-29T12:00:15.677Z</time></trkpt><trkpt lat="43.5666739" lon="12.1214005"><ele>309.0</ele><time>2026-04-29T12:00:16.642Z</time></trkpt><trkpt lat="43.5665428" lon="12.1213389"><ele>309.0</ele><time>2026-04-29T12:00:17.643Z</time></trkpt><trkpt lat="43.5664213" lon="12.121282"><ele>309.0</ele><time>2026-04-29T12:00:18.634Z</time></trkpt><trkpt lat="43.5662938" lon="12.1212182"><ele>309.0</ele><time>2026-04-29T12:00:19.645Z</time></trkpt><trkpt lat="43.5661637" lon="12.1211498"><ele>309.0</ele><time>2026-04-29T12:00:20.64Z</time></trkpt><trkpt lat="43.566027" lon="12.1210849"><ele>309.3333333333333</ele><time>2026-04-29T12:00:21.631Z</time></trkpt><trkpt lat="43.565863" lon="12.1210156"><ele>309.66666666666663</ele><time>2026-04-29T12:00:22.639Z</time></trkpt><trkpt lat="43.565687" lon="12.1209319"><ele>310.0</ele><time>2026-04-29T12:00:23.654Z</time></trkpt><trkpt lat="43.5655017" lon="12.1208327"><ele>309.66666666666663</ele><time>2026-04-29T12:00:24.635Z</time></trkpt><trkpt lat="43.5653128" lon="12.1207299"><ele>309.3333333333333</ele><time>2026-04-29T12:00:25.631Z</time></trkpt><trkpt lat="43.5651172" lon="12.1206183"><ele>309.0</ele><time>2026-04-29T12:00:26.629Z</time></trkpt><trkpt lat="43.5649219" lon="12.1205066"><ele>309.0</ele><time>2026-04-29T12:00:27.637Z</time></trkpt><trkpt lat="43.564732" lon="12.1203856"><ele>309.0</ele><time>2026-04-29T12:00:28.635Z</time></trkpt><trkpt lat="43.5645418" lon="12.1202366"><ele>309.0</ele><time>2026-04-29T12:00:29.661Z</time></trkpt><trkpt lat="43.5643641" lon="12.1200641"><ele>309.3333333333333</ele><time>2026-04-29T12:00:30.645Z</time></trkpt><trkpt lat="43.5642051" lon="12.1198644"><ele>309.66666666666663</ele><time>2026-04-29T12:00:31.64Z</time></trkpt><trkpt lat="43.5640538" lon="12.1196388"><ele>310.0</ele><time>2026-04-29T12:00:32.641Z</time></trkpt><trkpt lat="43.5639133" lon="12.1194177"><ele>310.0</ele><time>2026-04-29T12:00:33.64Z</time></trkpt><trkpt lat="43.5637802" lon="12.1192109"><ele>310.0</ele><time>2026-04-29T12:00:34.637Z</time></trkpt><trkpt lat="43.5636521" lon="12.1190105"><ele>310.0</ele><time>2026-04-29T12:00:35.649Z</time></trkpt><trkpt lat="43.563535" lon="12.118833"><ele>309.3333333333333</ele><time>2026-04-29T12:00:36.664Z</time></trkpt><trkpt lat="43.5634343" lon="12.1186875"><ele>308.6666666666667</ele><time>2026-04-29T12:00:37.64Z</time></trkpt><trkpt lat="43.5633327" lon="12.118535"><ele>308.0</ele><time>2026-04-29T12:00:38.637Z</time></trkpt><trkpt lat="43.5632249" lon="12.1183687"><ele>308.33333333333337</ele><time>2026-04-29T12:00:39.631Z</time></trkpt><trkpt lat="43.5631006" lon="12.1181872"><ele>308.6666666666667</ele><time>2026-04-29T12:00:40.639Z</time></trkpt><trkpt lat="43.5629634" lon="12.1179903"><ele>309.0</ele><time>2026-04-29T12:00:41.636Z</time></trkpt><trkpt lat="43.5628154" lon="12.1177811"><ele>309.0</ele><time>2026-04-29T12:00:42.645Z</time></trkpt><trkpt lat="43.5626618" lon="12.1175617"><ele>309.0</ele><time>2026-04-29T12:00:43.665Z</time></trkpt><trkpt lat="43.5625133" lon="12.1173491"><ele>309.0</ele><time>2026-04-29T12:00:44.629Z</time></trkpt><trkpt lat="43.5623573" lon="12.1171414"><ele>308.6666666666667</ele><time>2026-04-29T12:00:45.644Z</time></trkpt><trkpt lat="43.5622163" lon="12.1169536"><ele>308.33333333333337</ele><time>2026-04-29T12:00:46.633Z</time></trkpt><trkpt lat="43.5620881" lon="12.1167822"><ele>308.0</ele><time>2026-04-29T12:00:47.628Z</time></trkpt><trkpt lat="43.5619702" lon="12.1166281"><ele>308.25</ele><time>2026-04-29T12:00:48.634Z</time></trkpt><trkpt lat="43.5618597" lon="12.1164884"><ele>308.5</ele><time>2026-04-29T12:00:49.662Z</time></trkpt><trkpt lat="43.5617652" lon="12.1163664"><ele>308.75</ele><time>2026-04-29T12:00:50.632Z</time></trkpt><trkpt lat="43.5616654" lon="12.1162386"><ele>309.0</ele><time>2026-04-29T12:00:51.656Z</time></trkpt><trkpt lat="43.5615697" lon="12.1161124"><ele>309.0</ele><time>2026-04-29T12:00:52.641Z</time></trkpt><trkpt lat="43.5614604" lon="12.1159736"><ele>309.0</ele><time>2026-04-29T12:00:53.633Z</time></trkpt><trkpt lat="43.561363" lon="12.1158374"><ele>309.0</ele><time>2026-04-29T12:00:54.642Z</time></trkpt><trkpt lat="43.5612888" lon="12.1157146"><ele>309.0</ele><time>2026-04-29T12:00:55.643Z</time></trkpt><trkpt lat="43.5612471" lon="12.1156159"><ele>309.0</ele><time>2026-04-29T12:00:56.644Z</time></trkpt><trkpt lat="43.5612122" lon="12.1155155"><ele>309.0</ele><time>2026-04-29T12:00:58.641Z</time></trkpt><trkpt lat="43.5611911" lon="12.1154"><ele>309.0</ele><time>2026-04-29T12:01:01.649Z</time></trkpt><trkpt lat="43.5611595" lon="12.1153179"><ele>309.0</ele><time>2026-04-29T12:01:02.67Z</time></trkpt><trkpt lat="43.5610615" lon="12.1152714"><ele>309.0</ele><time>2026-04-29T12:01:04.644Z</time></trkpt><trkpt lat="43.5609759" lon="12.1152669"><ele>309.0</ele><time>2026-04-29T12:01:05.642Z</time></trkpt><trkpt lat="43.5608865" lon="12.1152438"><ele>308.75</ele><time>2026-04-29T12:01:06.636Z</time></trkpt><trkpt lat="43.5607856" lon="12.1151815"><ele>308.5</ele><time>2026-04-29T12:01:07.645Z</time></trkpt><trkpt lat="43.5606708" lon="12.1150791"><ele>308.25</ele><time>2026-04-29T12:01:08.644Z</time></trkpt><trkpt lat="43.5605595" lon="12.1149577"><ele>308.0</ele><time>2026-04-29T12:01:09.64Z</time></trkpt><trkpt lat="43.560449" lon="12.1148259"><ele>308.6666666666667</ele><time>2026-04-29T12:01:10.636Z</time></trkpt><trkpt lat="43.5603476" lon="12.114701"><ele>309.3333333333333</ele><time>2026-04-29T12:01:11.642Z</time></trkpt><trkpt lat="43.5602364" lon="12.1145661"><ele>310.0</ele><time>2026-04-29T12:01:12.636Z</time></trkpt><trkpt lat="43.5601058" lon="12.1144193"><ele>310.0</ele><time>2026-04-29T12:01:13.655Z</time></trkpt><trkpt lat="43.5599683" lon="12.1142505"><ele>310.0</ele><time>2026-04-29T12:01:14.651Z</time></trkpt><trkpt lat="43.5598356" lon="12.1140743"><ele>310.0</ele><time>2026-04-29T12:01:15.648Z</time></trkpt><trkpt lat="43.5596969" lon="12.113885"><ele>310.0</ele><time>2026-04-29T12:01:16.639Z</time></trkpt><trkpt lat="43.5595579" lon="12.1136952"><ele>310.0</ele><time>2026-04-29T12:01:17.64Z</time></trkpt><trkpt lat="43.5594285" lon="12.1135255"><ele>310.0</ele><time>2026-04-29T12:01:18.637Z</time></trkpt><trkpt lat="43.5593093" lon="12.1133641"><ele>310.5</ele><time>2026-04-29T12:01:19.649Z</time></trkpt><trkpt lat="43.5592041" lon="12.1132085"><ele>311.0</ele><time>2026-04-29T12:01:20.639Z</time></trkpt><trkpt lat="43.559107" lon="12.1130495"><ele>311.5</ele><time>2026-04-29T12:01:21.641Z</time></trkpt><trkpt lat="43.5590147" lon="12.1129043"><ele>312.0</ele><time>2026-04-29T12:01:22.655Z</time></trkpt><trkpt lat="43.5589211" lon="12.1127797"><ele>312.0</ele><time>2026-04-29T12:01:23.637Z</time></trkpt><trkpt lat="43.5588266" lon="12.1126718"><ele>312.0</ele><time>2026-04-29T12:01:24.659Z</time></trkpt><trkpt lat="43.5587521" lon="12.1125776"><ele>312.0</ele><time>2026-04-29T12:01:25.637Z</time></trkpt><trkpt lat="43.5586891" lon="12.1124923"><ele>312.0</ele><time>2026-04-29T12:01:26.646Z</time></trkpt><trkpt lat="43.5586434" lon="12.1124181"><ele>312.0</ele><time>2026-04-29T12:01:27.643Z</time></trkpt><trkpt lat="43.558611" lon="12.1123396"><ele>312.0</ele><time>2026-04-29T12:01:28.664Z</time></trkpt><trkpt lat="43.5585819" lon="12.1121764"><ele>311.75</ele><time>2026-04-29T12:01:30.638Z</time></trkpt><trkpt lat="43.558555" lon="12.1120617"><ele>311.5</ele><time>2026-04-29T12:01:31.64Z</time></trkpt><trkpt lat="43.5584942" lon="12.1119419"><ele>311.25</ele><time>2026-04-29T12:01:32.661Z</time></trkpt><trkpt lat="43.5583963" lon="12.1118248"><ele>311.0</ele><time>2026-04-29T12:01:33.646Z</time></trkpt><trkpt lat="43.558268" lon="12.1117412"><ele>311.0</ele><time>2026-04-29T12:01:34.655Z</time></trkpt><trkpt lat="43.558142" lon="12.1116699"><ele>311.0</ele><time>2026-04-29T12:01:35.63Z</time></trkpt><trkpt lat="43.5580071" lon="12.1116164"><ele>311.0</ele><time>2026-04-29T12:01:36.629Z</time></trkpt><trkpt lat="43.5578775" lon="12.1115492"><ele>311.0</ele><time>2026-04-29T12:01:37.648Z</time></trkpt><trkpt lat="43.5577637" lon="12.111438"><ele>311.0</ele><time>2026-04-29T12:01:38.643Z</time></trkpt><trkpt lat="43.5576473" lon="12.1112937"><ele>311.0</ele><time>2026-04-29T12:01:39.633Z</time></trkpt><trkpt lat="43.55752" lon="12.1111296"><ele>311.0</ele><time>2026-04-29T12:01:40.644Z</time></trkpt><trkpt lat="43.5573859" lon="12.1109642"><ele>311.0</ele><time>2026-04-29T12:01:41.639Z</time></trkpt><trkpt lat="43.557246" lon="12.1107841"><ele>311.0</ele><time>2026-04-29T12:01:42.635Z</time></trkpt><trkpt lat="43.5571024" lon="12.1106072"><ele>311.0</ele><time>2026-04-29T12:01:43.643Z</time></trkpt><trkpt lat="43.5569514" lon="12.1104236"><ele>310.33333333333337</ele><time>2026-04-29T12:01:44.653Z</time></trkpt><trkpt lat="43.5567996" lon="12.1102368"><ele>309.6666666666667</ele><time>2026-04-29T12:01:45.645Z</time></trkpt><trkpt lat="43.5566379" lon="12.1100445"><ele>309.0</ele><time>2026-04-29T12:01:46.646Z</time></trkpt><trkpt lat="43.5564817" lon="12.1098379"><ele>309.0</ele><time>2026-04-29T12:01:47.634Z</time></trkpt><trkpt lat="43.5563205" lon="12.1096167"><ele>309.0</ele><time>2026-04-29T12:01:48.627Z</time></trkpt><trkpt lat="43.5561512" lon="12.1093945"><ele>308.6666666666667</ele><time>2026-04-29T12:01:49.655Z</time></trkpt><trkpt lat="43.555992" lon="12.1091942"><ele>308.33333333333337</ele><time>2026-04-29T12:01:50.648Z</time></trkpt><trkpt lat="43.5558389" lon="12.1090014"><ele>308.0</ele><time>2026-04-29T12:01:51.649Z</time></trkpt><trkpt lat="43.555696" lon="12.1088191"><ele>309.0</ele><time>2026-04-29T12:01:52.648Z</time></trkpt><trkpt lat="43.5555584" lon="12.1086508"><ele>310.0</ele><time>2026-04-29T12:01:53.647Z</time></trkpt><trkpt lat="43.5554293" lon="12.1084944"><ele>311.0</ele><time>2026-04-29T12:01:54.626Z</time></trkpt><trkpt lat="43.5553046" lon="12.1083365"><ele>311.0</ele><time>2026-04-29T12:01:55.664Z</time></trkpt><trkpt lat="43.5551952" lon="12.1081946"><ele>311.0</ele><time>2026-04-29T12:01:56.653Z</time></trkpt><trkpt lat="43.5551005" lon="12.108069"><ele>311.0</ele><time>2026-04-29T12:01:57.635Z</time></trkpt><trkpt lat="43.5550215" lon="12.1079534"><ele>311.0</ele><time>2026-04-29T12:01:58.648Z</time></trkpt><trkpt lat="43.5549622" lon="12.1078466"><ele>311.0</ele><time>2026-04-29T12:01:59.637Z</time></trkpt><trkpt lat="43.5549233" lon="12.1077413"><ele>311.0</ele><time>2026-04-29T12:02:00.639Z</time></trkpt><trkpt lat="43.554894" lon="12.1076294"><ele>311.0</ele><time>2026-04-29T12:02:01.632Z</time></trkpt><trkpt lat="43.5548703" lon="12.1075123"><ele>311.0</ele><time>2026-04-29T12:02:02.636Z</time></trkpt><trkpt lat="43.5548403" lon="12.1074064"><ele>311.0</ele><time>2026-04-29T12:02:03.627Z</time></trkpt><trkpt lat="43.5547986" lon="12.1073313"><ele>311.0</ele><time>2026-04-29T12:02:04.637Z</time></trkpt><trkpt lat="43.5547384" lon="12.1072697"><ele>310.83333333333337</ele><time>2026-04-29T12:02:05.631Z</time></trkpt><trkpt lat="43.5546572" lon="12.1072365"><ele>310.6666666666667</ele><time>2026-04-29T12:02:06.637Z</time></trkpt><trkpt lat="43.5545649" lon="12.1072282"><ele>310.5</ele><time>2026-04-29T12:02:07.658Z</time></trkpt><trkpt lat="43.5544737" lon="12.1072192"><ele>310.3333333333333</ele><time>2026-04-29T12:02:08.641Z</time></trkpt><trkpt lat="43.5543924" lon="12.107207"><ele>310.16666666666663</ele><time>2026-04-29T12:02:09.639Z</time></trkpt><trkpt lat="43.5543016" lon="12.1071737"><ele>310.0</ele><time>2026-04-29T12:02:10.635Z</time></trkpt><trkpt lat="43.5542124" lon="12.1071275"><ele>309.75</ele><time>2026-04-29T12:02:11.655Z</time></trkpt><trkpt lat="43.554117" lon="12.1070647"><ele>309.5</ele><time>2026-04-29T12:02:12.639Z</time></trkpt><trkpt lat="43.554019" lon="12.106992"><ele>309.25</ele><time>2026-04-29T12:02:13.631Z</time></trkpt><trkpt lat="43.5539124" lon="12.1069106"><ele>309.0</ele><time>2026-04-29T12:02:14.637Z</time></trkpt><trkpt lat="43.5537961" lon="12.1068287"><ele>308.6666666666667</ele><time>2026-04-29T12:02:15.633Z</time></trkpt><trkpt lat="43.553662" lon="12.1067366"><ele>308.33333333333337</ele><time>2026-04-29T12:02:16.662Z</time></trkpt><trkpt lat="43.5535236" lon="12.1066448"><ele>308.0</ele><time>2026-04-29T12:02:17.638Z</time></trkpt><trkpt lat="43.5533576" lon="12.1065461"><ele>308.0</ele><time>2026-04-29T12:02:18.65Z</time></trkpt><trkpt lat="43.5531873" lon="12.1064382"><ele>308.0</ele><time>2026-04-29T12:02:19.64Z</time></trkpt><trkpt lat="43.5529894" lon="12.1063132"><ele>308.0</ele><time>2026-04-29T12:02:20.657Z</time></trkpt><trkpt lat="43.5527816" lon="12.1061892"><ele>308.0</ele><time>2026-04-29T12:02:21.635Z</time></trkpt><trkpt lat="43.5525583" lon="12.1060528"><ele>308.0</ele><time>2026-04-29T12:02:22.647Z</time></trkpt><trkpt lat="43.5523431" lon="12.1059108"><ele>308.0</ele><time>2026-04-29T12:02:23.64Z</time></trkpt><trkpt lat="43.5521457" lon="12.1057546"><ele>308.0</ele><time>2026-04-29T12:02:24.638Z</time></trkpt><trkpt lat="43.5519402" lon="12.1055992"><ele>307.6666666666667</ele><time>2026-04-29T12:02:25.643Z</time></trkpt><trkpt lat="43.5517499" lon="12.1054664"><ele>307.3333333333333</ele><time>2026-04-29T12:02:26.642Z</time></trkpt><trkpt lat="43.5515729" lon="12.1053498"><ele>307.0</ele><time>2026-04-29T12:02:27.629Z</time></trkpt><trkpt lat="43.5514" lon="12.1052313"><ele>307.0</ele><time>2026-04-29T12:02:28.64Z</time></trkpt><trkpt lat="43.5512226" lon="12.1051102"><ele>307.0</ele><time>2026-04-29T12:02:29.634Z</time></trkpt><trkpt lat="43.5510383" lon="12.1049807"><ele>307.0</ele><time>2026-04-29T12:02:30.639Z</time></trkpt><trkpt lat="43.5508295" lon="12.1048457"><ele>307.0</ele><time>2026-04-29T12:02:31.637Z</time></trkpt><trkpt lat="43.5506075" lon="12.1047031"><ele>307.0</ele><time>2026-04-29T12:02:32.638Z</time></trkpt><trkpt lat="43.550366" lon="12.1045533"><ele>307.0</ele><time>2026-04-29T12:02:33.665Z</time></trkpt><trkpt lat="43.5501221" lon="12.1044013"><ele>307.0</ele><time>2026-04-29T12:02:34.649Z</time></trkpt><trkpt lat="43.5498816" lon="12.1042446"><ele>307.0</ele><time>2026-04-29T12:02:35.64Z</time></trkpt><trkpt lat="43.5496411" lon="12.1040904"><ele>307.0</ele><time>2026-04-29T12:02:36.641Z</time></trkpt><trkpt lat="43.5493941" lon="12.1039303"><ele>307.0</ele><time>2026-04-29T12:02:37.647Z</time></trkpt><trkpt lat="43.5491459" lon="12.103769"><ele>307.0</ele><time>2026-04-29T12:02:38.657Z</time></trkpt><trkpt lat="43.5489013" lon="12.103601"><ele>307.5</ele><time>2026-04-29T12:02:39.651Z</time></trkpt><trkpt lat="43.5486589" lon="12.1034345"><ele>308.0</ele><time>2026-04-29T12:02:40.646Z</time></trkpt><trkpt lat="43.5484111" lon="12.1032703"><ele>308.5</ele><time>2026-04-29T12:02:41.643Z</time></trkpt><trkpt lat="43.5481629" lon="12.1031105"><ele>309.0</ele><time>2026-04-29T12:02:42.636Z</time></trkpt><trkpt lat="43.547909" lon="12.1029504"><ele>308.5</ele><time>2026-04-29T12:02:43.65Z</time></trkpt><trkpt lat="43.5476596" lon="12.1028016"><ele>308.0</ele><time>2026-04-29T12:02:44.633Z</time></trkpt><trkpt lat="43.5474052" lon="12.1026571"><ele>308.0</ele><time>2026-04-29T12:02:45.637Z</time></trkpt><trkpt lat="43.547149" lon="12.1025165"><ele>308.0</ele><time>2026-04-29T12:02:46.646Z</time></trkpt><trkpt lat="43.5468926" lon="12.102381"><ele>307.5</ele><time>2026-04-29T12:02:47.661Z</time></trkpt><trkpt lat="43.5466392" lon="12.102247"><ele>307.0</ele><time>2026-04-29T12:02:48.668Z</time></trkpt><trkpt lat="43.5463981" lon="12.1021189"><ele>307.0</ele><time>2026-04-29T12:02:49.635Z</time></trkpt><trkpt lat="43.5461395" lon="12.1019849"><ele>307.0</ele><time>2026-04-29T12:02:50.669Z</time></trkpt><trkpt lat="43.5458919" lon="12.101858"><ele>307.0</ele><time>2026-04-29T12:02:51.665Z</time></trkpt><trkpt lat="43.5456461" lon="12.1017336"><ele>307.0</ele><time>2026-04-29T12:02:52.659Z</time></trkpt><trkpt lat="43.5454076" lon="12.1016128"><ele>307.0</ele><time>2026-04-29T12:02:53.647Z</time></trkpt><trkpt lat="43.5451701" lon="12.101495"><ele>307.0</ele><time>2026-04-29T12:02:54.648Z</time></trkpt><trkpt lat="43.5449306" lon="12.1013748"><ele>307.0</ele><time>2026-04-29T12:02:55.656Z</time></trkpt><trkpt lat="43.5446962" lon="12.1012527"><ele>307.0</ele><time>2026-04-29T12:02:56.633Z</time></trkpt><trkpt lat="43.5444543" lon="12.1011233"><ele>307.0</ele><time>2026-04-29T12:02:57.642Z</time></trkpt><trkpt lat="43.5442182" lon="12.1009992"><ele>307.0</ele><time>2026-04-29T12:02:58.661Z</time></trkpt><trkpt lat="43.5439995" lon="12.100881"><ele>307.0</ele><time>2026-04-29T12:02:59.652Z</time></trkpt><trkpt lat="43.5437905" lon="12.100769"><ele>307.0</ele><time>2026-04-29T12:03:00.652Z</time></trkpt><trkpt lat="43.5435906" lon="12.1006675"><ele>307.0</ele><time>2026-04-29T12:03:01.644Z</time></trkpt><trkpt lat="43.5433991" lon="12.1005703"><ele>307.3333333333333</ele><time>2026-04-29T12:03:02.673Z</time></trkpt><trkpt lat="43.5432391" lon="12.1004846"><ele>307.6666666666667</ele><time>2026-04-29T12:03:03.661Z</time></trkpt><trkpt lat="43.5430985" lon="12.1004088"><ele>308.0</ele><time>2026-04-29T12:03:04.65Z</time></trkpt><trkpt lat="43.5429716" lon="12.1003383"><ele>307.75</ele><time>2026-04-29T12:03:05.644Z</time></trkpt><trkpt lat="43.5428577" lon="12.1002796"><ele>307.5</ele><time>2026-04-29T12:03:06.648Z</time></trkpt><trkpt lat="43.5427519" lon="12.1002275"><ele>307.25</ele><time>2026-04-29T12:03:07.645Z</time></trkpt><trkpt lat="43.5426441" lon="12.1001737"><ele>307.0</ele><time>2026-04-29T12:03:08.637Z</time></trkpt><trkpt lat="43.5425383" lon="12.1001181"><ele>307.0</ele><time>2026-04-29T12:03:09.64Z</time></trkpt><trkpt lat="43.542427" lon="12.1000613"><ele>307.0</ele><time>2026-04-29T12:03:10.653Z</time></trkpt><trkpt lat="43.5423179" lon="12.1000035"><ele>307.0</ele><time>2026-04-29T12:03:11.63Z</time></trkpt><trkpt lat="43.5422" lon="12.0999435"><ele>307.0</ele><time>2026-04-29T12:03:12.659Z</time></trkpt><trkpt lat="43.5420807" lon="12.0998816"><ele>307.25</ele><time>2026-04-29T12:03:13.64Z</time></trkpt><trkpt lat="43.5419564" lon="12.0998134"><ele>307.5</ele><time>2026-04-29T12:03:14.645Z</time></trkpt><trkpt lat="43.5418302" lon="12.0997442"><ele>307.75</ele><time>2026-04-29T12:03:15.667Z</time></trkpt><trkpt lat="43.5417113" lon="12.0996819"><ele>308.0</ele><time>2026-04-29T12:03:16.65Z</time></trkpt><trkpt lat="43.5416032" lon="12.0996476"><ele>308.0</ele><time>2026-04-29T12:03:17.643Z</time></trkpt><trkpt lat="43.5414448" lon="12.0995807"><ele>308.0</ele><time>2026-04-29T12:03:18.659Z</time></trkpt><trkpt lat="43.5412717" lon="12.099496"><ele>308.0</ele><time>2026-04-29T12:03:19.644Z</time></trkpt><trkpt lat="43.5410642" lon="12.0993924"><ele>308.0</ele><time>2026-04-29T12:03:20.673Z</time></trkpt><trkpt lat="43.5408494" lon="12.0992782"><ele>308.0</ele><time>2026-04-29T12:03:21.64Z</time></trkpt><trkpt lat="43.540616" lon="12.0991642"><ele>308.0</ele><time>2026-04-29T12:03:22.663Z</time></trkpt><trkpt lat="43.5403873" lon="12.0990604"><ele>308.0</ele><time>2026-04-29T12:03:23.637Z</time></trkpt><trkpt lat="43.5401378" lon="12.0989385"><ele>308.5</ele><time>2026-04-29T12:03:24.645Z</time></trkpt><trkpt lat="43.5399041" lon="12.0988067"><ele>309.0</ele><time>2026-04-29T12:03:25.633Z</time></trkpt><trkpt lat="43.5396585" lon="12.0986547"><ele>309.0</ele><time>2026-04-29T12:03:26.636Z</time></trkpt><trkpt lat="43.5394289" lon="12.0984723"><ele>309.0</ele><time>2026-04-29T12:03:27.64Z</time></trkpt><trkpt lat="43.5392239" lon="12.0982594"><ele>309.0</ele><time>2026-04-29T12:03:28.643Z</time></trkpt><trkpt lat="43.538989" lon="12.0979866"><ele>309.0</ele><time>2026-04-29T12:03:29.638Z</time></trkpt><trkpt lat="43.5387756" lon="12.097712"><ele>309.5</ele><time>2026-04-29T12:03:30.65Z</time></trkpt><trkpt lat="43.5385611" lon="12.0974208"><ele>310.0</ele><time>2026-04-29T12:03:31.66Z</time></trkpt><trkpt lat="43.5383523" lon="12.0971366"><ele>310.0</ele><time>2026-04-29T12:03:32.631Z</time></trkpt><trkpt lat="43.5381427" lon="12.0968543"><ele>310.0</ele><time>2026-04-29T12:03:33.687Z</time></trkpt><trkpt lat="43.5379503" lon="12.0966038"><ele>309.5</ele><time>2026-04-29T12:03:34.652Z</time></trkpt><trkpt lat="43.5377564" lon="12.0963424"><ele>309.0</ele><time>2026-04-29T12:03:35.646Z</time></trkpt><trkpt lat="43.5375641" lon="12.0960809"><ele>309.0</ele><time>2026-04-29T12:03:36.643Z</time></trkpt><trkpt lat="43.5373637" lon="12.0958165"><ele>309.0</ele><time>2026-04-29T12:03:37.675Z</time></trkpt><trkpt lat="43.5371724" lon="12.0955573"><ele>309.0</ele><time>2026-04-29T12:03:38.678Z</time></trkpt><trkpt lat="43.5369902" lon="12.0953126"><ele>309.0</ele><time>2026-04-29T12:03:39.638Z</time></trkpt><trkpt lat="43.5367928" lon="12.0950519"><ele>309.0</ele><time>2026-04-29T12:03:40.662Z</time></trkpt><trkpt lat="43.5366" lon="12.0947994"><ele>309.0</ele><time>2026-04-29T12:03:41.645Z</time></trkpt><trkpt lat="43.5364038" lon="12.0945436"><ele>310.0</ele><time>2026-04-29T12:03:42.645Z</time></trkpt><trkpt lat="43.5362106" lon="12.0942829"><ele>311.0</ele><time>2026-04-29T12:03:43.642Z</time></trkpt><trkpt lat="43.5360268" lon="12.094013"><ele>311.0</ele><time>2026-04-29T12:03:44.653Z</time></trkpt><trkpt lat="43.5358585" lon="12.0937322"><ele>311.0</ele><time>2026-04-29T12:03:45.652Z</time></trkpt><trkpt lat="43.5356963" lon="12.0934537"><ele>311.0</ele><time>2026-04-29T12:03:46.638Z</time></trkpt><trkpt lat="43.5355339" lon="12.0931633"><ele>311.0</ele><time>2026-04-29T12:03:47.665Z</time></trkpt><trkpt lat="43.5353872" lon="12.0928955"><ele>313.33333333333337</ele><time>2026-04-29T12:03:48.645Z</time></trkpt><trkpt lat="43.5352386" lon="12.0926522"><ele>315.6666666666667</ele><time>2026-04-29T12:03:49.65Z</time></trkpt><trkpt lat="43.535076" lon="12.0924666"><ele>318.0</ele><time>2026-04-29T12:03:50.664Z</time></trkpt><trkpt lat="43.5349145" lon="12.0923112"><ele>318.0</ele><time>2026-04-29T12:03:51.66Z</time></trkpt><trkpt lat="43.5347659" lon="12.0921761"><ele>318.0</ele><time>2026-04-29T12:03:52.638Z</time></trkpt><trkpt lat="43.5346262" lon="12.0920548"><ele>318.0</ele><time>2026-04-29T12:03:53.658Z</time></trkpt><trkpt lat="43.5345093" lon="12.0919603"><ele>319.2</ele><time>2026-04-29T12:03:54.638Z</time></trkpt><trkpt lat="43.5344099" lon="12.0918782"><ele>320.4</ele><time>2026-04-29T12:03:55.654Z</time></trkpt><trkpt lat="43.534325" lon="12.091805"><ele>321.59999999999997</ele><time>2026-04-29T12:03:56.633Z</time></trkpt><trkpt lat="43.5342463" lon="12.0917364"><ele>322.8</ele><time>2026-04-29T12:03:57.651Z</time></trkpt><trkpt lat="43.5341779" lon="12.0916739"><ele>324.0</ele><time>2026-04-29T12:03:58.629Z</time></trkpt><trkpt lat="43.5341185" lon="12.0916103"><ele>323.6666666666667</ele><time>2026-04-29T12:03:59.635Z</time></trkpt><trkpt lat="43.5340646" lon="12.0915537"><ele>323.3333333333333</ele><time>2026-04-29T12:04:00.638Z</time></trkpt><trkpt lat="43.5340036" lon="12.0915056"><ele>323.0</ele><time>2026-04-29T12:04:02.662Z</time></trkpt><trkpt lat="43.533908" lon="12.0914223"><ele>322.66666666666663</ele><time>2026-04-29T12:04:13.634Z</time></trkpt><trkpt lat="43.5338316" lon="12.0913569"><ele>322.3333333333333</ele><time>2026-04-29T12:04:14.667Z</time></trkpt><trkpt lat="43.5337437" lon="12.091282"><ele>322.0</ele><time>2026-04-29T12:04:15.639Z</time></trkpt><trkpt lat="43.5336278" lon="12.0911883"><ele>321.66666666666663</ele><time>2026-04-29T12:04:16.665Z</time></trkpt><trkpt lat="43.5334925" lon="12.091074"><ele>321.3333333333333</ele><time>2026-04-29T12:04:17.659Z</time></trkpt><trkpt lat="43.5333505" lon="12.0909545"><ele>321.0</ele><time>2026-04-29T12:04:18.671Z</time></trkpt><trkpt lat="43.533201" lon="12.0908269"><ele>320.3333333333333</ele><time>2026-04-29T12:04:19.654Z</time></trkpt><trkpt lat="43.5330404" lon="12.0906879"><ele>319.66666666666663</ele><time>2026-04-29T12:04:20.649Z</time></trkpt><trkpt lat="43.5328743" lon="12.0905432"><ele>319.0</ele><time>2026-04-29T12:04:21.641Z</time></trkpt><trkpt lat="43.5327012" lon="12.0903836"><ele>319.0</ele><time>2026-04-29T12:04:22.649Z</time></trkpt><trkpt lat="43.5325244" lon="12.0902224"><ele>319.0</ele><time>2026-04-29T12:04:23.643Z</time></trkpt><trkpt lat="43.5323421" lon="12.0900553"><ele>319.0</ele><time>2026-04-29T12:04:24.657Z</time></trkpt><trkpt lat="43.5321597" lon="12.089891"><ele>319.0</ele><time>2026-04-29T12:04:25.649Z</time></trkpt><trkpt lat="43.5319727" lon="12.089723"><ele>319.0</ele><time>2026-04-29T12:04:26.645Z</time></trkpt><trkpt lat="43.5317835" lon="12.0895497"><ele>319.0</ele><time>2026-04-29T12:04:27.658Z</time></trkpt><trkpt lat="43.5315983" lon="12.0893794"><ele>319.0</ele><time>2026-04-29T12:04:28.659Z</time></trkpt><trkpt lat="43.5314128" lon="12.0892168"><ele>319.0</ele><time>2026-04-29T12:04:29.64Z</time></trkpt><trkpt lat="43.5312227" lon="12.0890553"><ele>319.0</ele><time>2026-04-29T12:04:30.658Z</time></trkpt><trkpt lat="43.531048" lon="12.0888965"><ele>319.0</ele><time>2026-04-29T12:04:31.652Z</time></trkpt><trkpt lat="43.5308839" lon="12.0887278"><ele>319.0</ele><time>2026-04-29T12:04:32.656Z</time></trkpt><trkpt lat="43.5307352" lon="12.0885405"><ele>319.0</ele><time>2026-04-29T12:04:33.646Z</time></trkpt><trkpt lat="43.5305942" lon="12.0883216"><ele>319.0</ele><time>2026-04-29T12:04:34.752Z</time></trkpt><trkpt lat="43.530412" lon="12.0879301"><ele>320.0</ele><time>2026-04-29T12:04:36.658Z</time></trkpt><trkpt lat="43.5303359" lon="12.0877262"><ele>321.0</ele><time>2026-04-29T12:04:37.643Z</time></trkpt><trkpt lat="43.5302654" lon="12.0875096"><ele>322.0</ele><time>2026-04-29T12:04:38.654Z</time></trkpt><trkpt lat="43.5302058" lon="12.0872804"><ele>323.0</ele><time>2026-04-29T12:04:39.665Z</time></trkpt><trkpt lat="43.5301642" lon="12.0870632"><ele>324.0</ele><time>2026-04-29T12:04:40.644Z</time></trkpt><trkpt lat="43.5301279" lon="12.0868269"><ele>325.0</ele><time>2026-04-29T12:04:41.656Z</time></trkpt><trkpt lat="43.5300982" lon="12.086573"><ele>328.0</ele><time>2026-04-29T12:04:42.657Z</time></trkpt><trkpt lat="43.5300737" lon="12.0862817"><ele>331.0</ele><time>2026-04-29T12:04:43.66Z</time></trkpt><trkpt lat="43.5300478" lon="12.0859525"><ele>333.5</ele><time>2026-04-29T12:04:44.67Z</time></trkpt><trkpt lat="43.5300287" lon="12.0856032"><ele>336.0</ele><time>2026-04-29T12:04:45.65Z</time></trkpt><trkpt lat="43.5300163" lon="12.0852346"><ele>338.5</ele><time>2026-04-29T12:04:46.651Z</time></trkpt><trkpt lat="43.529995" lon="12.0848649"><ele>341.0</ele><time>2026-04-29T12:04:47.632Z</time></trkpt><trkpt lat="43.5299677" lon="12.0844797"><ele>345.5</ele><time>2026-04-29T12:04:48.634Z</time></trkpt><trkpt lat="43.5299406" lon="12.0840917"><ele>350.0</ele><time>2026-04-29T12:04:49.645Z</time></trkpt><trkpt lat="43.529911" lon="12.0837192"><ele>350.0</ele><time>2026-04-29T12:04:50.634Z</time></trkpt><trkpt lat="43.5298831" lon="12.0833373"><ele>350.0</ele><time>2026-04-29T12:04:51.649Z</time></trkpt><trkpt lat="43.5298608" lon="12.0829765"><ele>352.5</ele><time>2026-04-29T12:04:52.632Z</time></trkpt><trkpt lat="43.5298384" lon="12.0826046"><ele>355.0</ele><time>2026-04-29T12:04:53.643Z</time></trkpt><trkpt lat="43.5298139" lon="12.0822398"><ele>355.0</ele><time>2026-04-29T12:04:54.654Z</time></trkpt><trkpt lat="43.5297875" lon="12.0818772"><ele>355.0</ele><time>2026-04-29T12:04:55.664Z</time></trkpt><trkpt lat="43.5297632" lon="12.0815242"><ele>355.0</ele><time>2026-04-29T12:04:56.644Z</time></trkpt><trkpt lat="43.5297388" lon="12.0811607"><ele>355.0</ele><time>2026-04-29T12:04:57.641Z</time></trkpt><trkpt lat="43.529716" lon="12.0807903"><ele>361.0</ele><time>2026-04-29T12:04:58.651Z</time></trkpt><trkpt lat="43.5296899" lon="12.080426"><ele>367.0</ele><time>2026-04-29T12:04:59.644Z</time></trkpt><trkpt lat="43.5296655" lon="12.0800514"><ele>369.0</ele><time>2026-04-29T12:05:00.668Z</time></trkpt><trkpt lat="43.5296428" lon="12.0797019"><ele>371.0</ele><time>2026-04-29T12:05:01.633Z</time></trkpt><trkpt lat="43.5296171" lon="12.0793386"><ele>373.0</ele><time>2026-04-29T12:05:02.649Z</time></trkpt><trkpt lat="43.5295704" lon="12.0790009"><ele>375.0</ele><time>2026-04-29T12:05:03.653Z</time></trkpt><trkpt lat="43.5294916" lon="12.0786736"><ele>376.0</ele><time>2026-04-29T12:05:04.652Z</time></trkpt><trkpt lat="43.5293822" lon="12.078368"><ele>377.0</ele><time>2026-04-29T12:05:05.641Z</time></trkpt><trkpt lat="43.529242" lon="12.0780918"><ele>377.5</ele><time>2026-04-29T12:05:06.643Z</time></trkpt><trkpt lat="43.5290781" lon="12.0778406"><ele>378.0</ele><time>2026-04-29T12:05:07.637Z</time></trkpt><trkpt lat="43.5288891" lon="12.0776234"><ele>378.5</ele><time>2026-04-29T12:05:08.641Z</time></trkpt><trkpt lat="43.528659" lon="12.0774429"><ele>379.0</ele><time>2026-04-29T12:05:09.637Z</time></trkpt><trkpt lat="43.5284122" lon="12.0773088"><ele>376.5</ele><time>2026-04-29T12:05:10.657Z</time></trkpt><trkpt lat="43.5281614" lon="12.0772196"><ele>374.0</ele><time>2026-04-29T12:05:11.644Z</time></trkpt><trkpt lat="43.5278738" lon="12.0771985"><ele>372.0</ele><time>2026-04-29T12:05:12.637Z</time></trkpt><trkpt lat="43.5275892" lon="12.0772257"><ele>370.0</ele><time>2026-04-29T12:05:13.639Z</time></trkpt><trkpt lat="43.5273288" lon="12.0772953"><ele>370.0</ele><time>2026-04-29T12:05:14.646Z</time></trkpt><trkpt lat="43.5270842" lon="12.0773902"><ele>370.0</ele><time>2026-04-29T12:05:15.638Z</time></trkpt><trkpt lat="43.5268379" lon="12.0774778"><ele>370.5</ele><time>2026-04-29T12:05:16.64Z</time></trkpt><trkpt lat="43.5265955" lon="12.0775573"><ele>371.0</ele><time>2026-04-29T12:05:17.645Z</time></trkpt><trkpt lat="43.5263524" lon="12.0776387"><ele>369.75</ele><time>2026-04-29T12:05:18.663Z</time></trkpt><trkpt lat="43.5261454" lon="12.0777082"><ele>368.5</ele><time>2026-04-29T12:05:19.673Z</time></trkpt><trkpt lat="43.5260743" lon="12.0777331"><ele>367.25</ele><time>2026-04-29T12:05:20.654Z</time></trkpt><trkpt lat="43.5259724" lon="12.077747"><ele>366.0</ele><time>2026-04-29T12:05:21.645Z</time></trkpt><trkpt lat="43.5258727" lon="12.0777752"><ele>366.0</ele><time>2026-04-29T12:05:22.648Z</time></trkpt><trkpt lat="43.5257315" lon="12.0777839"><ele>366.0</ele><time>2026-04-29T12:05:23.662Z</time></trkpt><trkpt lat="43.5255567" lon="12.0778051"><ele>366.0</ele><time>2026-04-29T12:05:24.656Z</time></trkpt><trkpt lat="43.5253867" lon="12.0778337"><ele>364.3333333333333</ele><time>2026-04-29T12:05:25.639Z</time></trkpt><trkpt lat="43.5251987" lon="12.0779104"><ele>362.66666666666663</ele><time>2026-04-29T12:05:26.639Z</time></trkpt><trkpt lat="43.524981" lon="12.0779727"><ele>361.0</ele><time>2026-04-29T12:05:27.654Z</time></trkpt><trkpt lat="43.5247981" lon="12.0780106"><ele>361.0</ele><time>2026-04-29T12:05:28.641Z</time></trkpt><trkpt lat="43.5246204" lon="12.0780549"><ele>361.0</ele><time>2026-04-29T12:05:29.654Z</time></trkpt><trkpt lat="43.524467" lon="12.0780868"><ele>361.0</ele><time>2026-04-29T12:05:30.645Z</time></trkpt><trkpt lat="43.5243189" lon="12.0781182"><ele>359.66666666666663</ele><time>2026-04-29T12:05:31.644Z</time></trkpt><trkpt lat="43.5241698" lon="12.0781273"><ele>358.3333333333333</ele><time>2026-04-29T12:05:32.638Z</time></trkpt><trkpt lat="43.5240153" lon="12.078141"><ele>357.0</ele><time>2026-04-29T12:05:33.631Z</time></trkpt><trkpt lat="43.523847" lon="12.0781615"><ele>356.3333333333333</ele><time>2026-04-29T12:05:34.65Z</time></trkpt><trkpt lat="43.5236764" lon="12.0782065"><ele>355.66666666666663</ele><time>2026-04-29T12:05:35.655Z</time></trkpt><trkpt lat="43.523502" lon="12.0782484"><ele>355.0</ele><time>2026-04-29T12:05:36.643Z</time></trkpt><trkpt lat="43.5233228" lon="12.078293"><ele>355.0</ele><time>2026-04-29T12:05:37.643Z</time></trkpt><trkpt lat="43.5231432" lon="12.0783349"><ele>355.0</ele><time>2026-04-29T12:05:38.631Z</time></trkpt><trkpt lat="43.5229592" lon="12.0783763"><ele>355.0</ele><time>2026-04-29T12:05:39.647Z</time></trkpt><trkpt lat="43.5227806" lon="12.0784148"><ele>353.3333333333333</ele><time>2026-04-29T12:05:40.649Z</time></trkpt><trkpt lat="43.522604" lon="12.0784534"><ele>351.6666666666667</ele><time>2026-04-29T12:05:41.656Z</time></trkpt><trkpt lat="43.5224308" lon="12.0784896"><ele>350.0</ele><time>2026-04-29T12:05:42.647Z</time></trkpt><trkpt lat="43.5222501" lon="12.0785316"><ele>350.0</ele><time>2026-04-29T12:05:43.641Z</time></trkpt><trkpt lat="43.5220706" lon="12.0785684"><ele>350.0</ele><time>2026-04-29T12:05:44.658Z</time></trkpt><trkpt lat="43.5218988" lon="12.0786105"><ele>350.0</ele><time>2026-04-29T12:05:45.64Z</time></trkpt><trkpt lat="43.5217189" lon="12.078652"><ele>348.0</ele><time>2026-04-29T12:05:46.645Z</time></trkpt><trkpt lat="43.5215367" lon="12.0786903"><ele>346.0</ele><time>2026-04-29T12:05:47.634Z</time></trkpt><trkpt lat="43.521345" lon="12.0787291"><ele>344.0</ele><time>2026-04-29T12:05:48.653Z</time></trkpt><trkpt lat="43.5211515" lon="12.0787652"><ele>343.6666666666667</ele><time>2026-04-29T12:05:49.663Z</time></trkpt><trkpt lat="43.5209536" lon="12.0787981"><ele>343.3333333333333</ele><time>2026-04-29T12:05:50.661Z</time></trkpt><trkpt lat="43.5207505" lon="12.0788302"><ele>343.0</ele><time>2026-04-29T12:05:51.648Z</time></trkpt><trkpt lat="43.5205325" lon="12.0788568"><ele>346.0</ele><time>2026-04-29T12:05:52.64Z</time></trkpt><trkpt lat="43.5202945" lon="12.0788849"><ele>349.0</ele><time>2026-04-29T12:05:53.663Z</time></trkpt><trkpt lat="43.5200503" lon="12.0789228"><ele>349.0</ele><time>2026-04-29T12:05:54.636Z</time></trkpt><trkpt lat="43.5197832" lon="12.0789749"><ele>349.0</ele><time>2026-04-29T12:05:55.658Z</time></trkpt><trkpt lat="43.519547" lon="12.079024"><ele>350.3333333333333</ele><time>2026-04-29T12:05:56.637Z</time></trkpt><trkpt lat="43.5193381" lon="12.0790704"><ele>351.6666666666667</ele><time>2026-04-29T12:05:57.644Z</time></trkpt><trkpt lat="43.5191556" lon="12.079117"><ele>353.0</ele><time>2026-04-29T12:05:58.643Z</time></trkpt><trkpt lat="43.5189948" lon="12.0791602"><ele>351.75</ele><time>2026-04-29T12:05:59.665Z</time></trkpt><trkpt lat="43.5188701" lon="12.0792007"><ele>350.5</ele><time>2026-04-29T12:06:00.638Z</time></trkpt><trkpt lat="43.5187504" lon="12.0792503"><ele>349.25</ele><time>2026-04-29T12:06:01.63Z</time></trkpt><trkpt lat="43.5186716" lon="12.0793169"><ele>348.0</ele><time>2026-04-29T12:06:02.646Z</time></trkpt><trkpt lat="43.5185158" lon="12.0794053"><ele>348.0</ele><time>2026-04-29T12:06:03.664Z</time></trkpt><trkpt lat="43.5183632" lon="12.0795099"><ele>348.0</ele><time>2026-04-29T12:06:04.631Z</time></trkpt><trkpt lat="43.5182061" lon="12.0796372"><ele>348.0</ele><time>2026-04-29T12:06:05.647Z</time></trkpt><trkpt lat="43.5180536" lon="12.0797984"><ele>351.0</ele><time>2026-04-29T12:06:06.636Z</time></trkpt><trkpt lat="43.5178774" lon="12.0799977"><ele>354.0</ele><time>2026-04-29T12:06:07.641Z</time></trkpt><trkpt lat="43.5176896" lon="12.0802313"><ele>354.0</ele><time>2026-04-29T12:06:08.639Z</time></trkpt><trkpt lat="43.5174726" lon="12.0804802"><ele>354.0</ele><time>2026-04-29T12:06:09.656Z</time></trkpt><trkpt lat="43.5172699" lon="12.0807375"><ele>354.0</ele><time>2026-04-29T12:06:10.639Z</time></trkpt><trkpt lat="43.5170492" lon="12.0809872"><ele>354.0</ele><time>2026-04-29T12:06:11.655Z</time></trkpt><trkpt lat="43.516874" lon="12.0812006"><ele>354.0</ele><time>2026-04-29T12:06:12.628Z</time></trkpt><trkpt lat="43.516715" lon="12.0813909"><ele>354.0</ele><time>2026-04-29T12:06:13.643Z</time></trkpt><trkpt lat="43.5165797" lon="12.0815394"><ele>354.0</ele><time>2026-04-29T12:06:14.637Z</time></trkpt><trkpt lat="43.5164674" lon="12.0816544"><ele>353.6</ele><time>2026-04-29T12:06:15.647Z</time></trkpt><trkpt lat="43.5163441" lon="12.0817448"><ele>353.2</ele><time>2026-04-29T12:06:16.651Z</time></trkpt><trkpt lat="43.5162497" lon="12.0817819"><ele>352.8</ele><time>2026-04-29T12:06:17.648Z</time></trkpt><trkpt lat="43.5161622" lon="12.0817817"><ele>352.40000000000003</ele><time>2026-04-29T12:06:18.66Z</time></trkpt><trkpt lat="43.5161002" lon="12.0817477"><ele>352.0</ele><time>2026-04-29T12:06:19.634Z</time></trkpt><trkpt lat="43.5160368" lon="12.0816932"><ele>352.0</ele><time>2026-04-29T12:06:20.639Z</time></trkpt><trkpt lat="43.5159588" lon="12.0816332"><ele>352.0</ele><time>2026-04-29T12:06:21.654Z</time></trkpt><trkpt lat="43.515863" lon="12.0816173"><ele>352.0</ele><time>2026-04-29T12:06:22.666Z</time></trkpt><trkpt lat="43.5157673" lon="12.0816487"><ele>352.0</ele><time>2026-04-29T12:06:23.64Z</time></trkpt><trkpt lat="43.5156696" lon="12.0817037"><ele>352.0</ele><time>2026-04-29T12:06:24.656Z</time></trkpt><trkpt lat="43.5155727" lon="12.0817806"><ele>352.0</ele><time>2026-04-29T12:06:25.651Z</time></trkpt><trkpt lat="43.5154582" lon="12.0818536"><ele>352.0</ele><time>2026-04-29T12:06:26.649Z</time></trkpt><trkpt lat="43.5153165" lon="12.081892"><ele>352.0</ele><time>2026-04-29T12:06:27.645Z</time></trkpt><trkpt lat="43.515127" lon="12.0819184"><ele>350.66666666666663</ele><time>2026-04-29T12:06:28.67Z</time></trkpt><trkpt lat="43.5149266" lon="12.0819256"><ele>349.3333333333333</ele><time>2026-04-29T12:06:29.625Z</time></trkpt><trkpt lat="43.5147111" lon="12.0819293"><ele>348.0</ele><time>2026-04-29T12:06:30.635Z</time></trkpt><trkpt lat="43.514502" lon="12.0819266"><ele>345.0</ele><time>2026-04-29T12:06:31.645Z</time></trkpt><trkpt lat="43.5143016" lon="12.0819276"><ele>342.0</ele><time>2026-04-29T12:06:32.638Z</time></trkpt><trkpt lat="43.5140998" lon="12.0819291"><ele>339.0</ele><time>2026-04-29T12:06:33.673Z</time></trkpt><trkpt lat="43.5139041" lon="12.0819461"><ele>337.5</ele><time>2026-04-29T12:06:34.669Z</time></trkpt><trkpt lat="43.5136385" lon="12.0820168"><ele>336.0</ele><time>2026-04-29T12:06:35.998Z</time></trkpt><trkpt lat="43.5134213" lon="12.0821895"><ele>336.0</ele><time>2026-04-29T12:06:37.727Z</time></trkpt><trkpt lat="43.5132802" lon="12.0823171"><ele>336.0</ele><time>2026-04-29T12:06:38.707Z</time></trkpt><trkpt lat="43.5131304" lon="12.0824813"><ele>336.0</ele><time>2026-04-29T12:06:39.738Z</time></trkpt><trkpt lat="43.5129993" lon="12.082651"><ele>336.0</ele><time>2026-04-29T12:06:40.713Z</time></trkpt><trkpt lat="43.5128716" lon="12.0828236"><ele>336.0</ele><time>2026-04-29T12:06:41.709Z</time></trkpt><trkpt lat="43.5127441" lon="12.0829963"><ele>336.0</ele><time>2026-04-29T12:06:42.687Z</time></trkpt><trkpt lat="43.5126041" lon="12.0831787"><ele>333.0</ele><time>2026-04-29T12:06:43.719Z</time></trkpt><trkpt lat="43.5124667" lon="12.0833554"><ele>330.0</ele><time>2026-04-29T12:06:44.707Z</time></trkpt><trkpt lat="43.512327" lon="12.0835352"><ele>327.0</ele><time>2026-04-29T12:06:45.709Z</time></trkpt><trkpt lat="43.5121879" lon="12.0837119"><ele>324.6666666666667</ele><time>2026-04-29T12:06:46.698Z</time></trkpt><trkpt lat="43.5120386" lon="12.0838914"><ele>322.33333333333337</ele><time>2026-04-29T12:06:47.707Z</time></trkpt><trkpt lat="43.5118749" lon="12.0840546"><ele>320.0</ele><time>2026-04-29T12:06:48.707Z</time></trkpt><trkpt lat="43.5116967" lon="12.0841961"><ele>319.0</ele><time>2026-04-29T12:06:49.704Z</time></trkpt><trkpt lat="43.5115075" lon="12.0843089"><ele>318.0</ele><time>2026-04-29T12:06:50.707Z</time></trkpt><trkpt lat="43.5113161" lon="12.0843924"><ele>317.0</ele><time>2026-04-29T12:06:51.7Z</time></trkpt><trkpt lat="43.5111198" lon="12.0844452"><ele>315.0</ele><time>2026-04-29T12:06:52.699Z</time></trkpt><trkpt lat="43.5109265" lon="12.0844697"><ele>313.0</ele><time>2026-04-29T12:06:53.694Z</time></trkpt><trkpt lat="43.5107269" lon="12.0844631"><ele>311.0</ele><time>2026-04-29T12:06:54.72Z</time></trkpt><trkpt lat="43.5105284" lon="12.0844381"><ele>311.0</ele><time>2026-04-29T12:06:55.717Z</time></trkpt><trkpt lat="43.5103328" lon="12.0844107"><ele>311.0</ele><time>2026-04-29T12:06:56.699Z</time></trkpt><trkpt lat="43.5101344" lon="12.0843801"><ele>311.0</ele><time>2026-04-29T12:06:57.703Z</time></trkpt><trkpt lat="43.509932" lon="12.0843468"><ele>311.0</ele><time>2026-04-29T12:06:58.709Z</time></trkpt><trkpt lat="43.5097222" lon="12.0843105"><ele>311.0</ele><time>2026-04-29T12:06:59.706Z</time></trkpt><trkpt lat="43.5095089" lon="12.0842714"><ele>311.0</ele><time>2026-04-29T12:07:00.689Z</time></trkpt><trkpt lat="43.5092737" lon="12.0842162"><ele>310.5</ele><time>2026-04-29T12:07:01.716Z</time></trkpt><trkpt lat="43.5090479" lon="12.0841513"><ele>310.0</ele><time>2026-04-29T12:07:02.638Z</time></trkpt><trkpt lat="43.5087786" lon="12.0840559"><ele>310.0</ele><time>2026-04-29T12:07:03.646Z</time></trkpt><trkpt lat="43.5084947" lon="12.0839388"><ele>310.0</ele><time>2026-04-29T12:07:04.647Z</time></trkpt><trkpt lat="43.5081995" lon="12.0838132"><ele>309.0</ele><time>2026-04-29T12:07:05.647Z</time></trkpt><trkpt lat="43.5078842" lon="12.0836822"><ele>308.0</ele><time>2026-04-29T12:07:06.66Z</time></trkpt><trkpt lat="43.5075736" lon="12.0835639"><ele>308.0</ele><time>2026-04-29T12:07:07.656Z</time></trkpt><trkpt lat="43.5072549" lon="12.0834572"><ele>308.0</ele><time>2026-04-29T12:07:08.639Z</time></trkpt><trkpt lat="43.5069225" lon="12.0833475"><ele>308.5</ele><time>2026-04-29T12:07:09.647Z</time></trkpt><trkpt lat="43.506595" lon="12.0832173"><ele>309.0</ele><time>2026-04-29T12:07:10.666Z</time></trkpt><trkpt lat="43.5062765" lon="12.083078"><ele>309.5</ele><time>2026-04-29T12:07:11.659Z</time></trkpt><trkpt lat="43.5059634" lon="12.0829473"><ele>310.0</ele><time>2026-04-29T12:07:12.662Z</time></trkpt><trkpt lat="43.5056682" lon="12.0828349"><ele>310.0</ele><time>2026-04-29T12:07:13.645Z</time></trkpt><trkpt lat="43.5053739" lon="12.0827274"><ele>310.0</ele><time>2026-04-29T12:07:14.656Z</time></trkpt><trkpt lat="43.5050863" lon="12.0826199"><ele>310.0</ele><time>2026-04-29T12:07:15.657Z</time></trkpt><trkpt lat="43.5048008" lon="12.0825129"><ele>310.0</ele><time>2026-04-29T12:07:16.65Z</time></trkpt><trkpt lat="43.5045076" lon="12.0823995"><ele>309.5</ele><time>2026-04-29T12:07:17.657Z</time></trkpt><trkpt lat="43.5042224" lon="12.0822888"><ele>309.0</ele><time>2026-04-29T12:07:18.639Z</time></trkpt><trkpt lat="43.5039324" lon="12.0821743"><ele>309.0</ele><time>2026-04-29T12:07:19.636Z</time></trkpt><trkpt lat="43.5036316" lon="12.082059"><ele>309.0</ele><time>2026-04-29T12:07:20.676Z</time></trkpt><trkpt lat="43.5033553" lon="12.0819573"><ele>309.0</ele><time>2026-04-29T12:07:21.654Z</time></trkpt><trkpt lat="43.5030911" lon="12.08187"><ele>309.0</ele><time>2026-04-29T12:07:22.634Z</time></trkpt><trkpt lat="43.5028269" lon="12.0818077"><ele>310.0</ele><time>2026-04-29T12:07:23.652Z</time></trkpt><trkpt lat="43.5025717" lon="12.0817873"><ele>311.0</ele><time>2026-04-29T12:07:24.648Z</time></trkpt><trkpt lat="43.5023137" lon="12.081814"><ele>311.0</ele><time>2026-04-29T12:07:25.671Z</time></trkpt><trkpt lat="43.5020705" lon="12.0818851"><ele>311.0</ele><time>2026-04-29T12:07:26.638Z</time></trkpt><trkpt lat="43.5018251" lon="12.0820027"><ele>311.0</ele><time>2026-04-29T12:07:27.67Z</time></trkpt><trkpt lat="43.5016004" lon="12.0821565"><ele>311.0</ele><time>2026-04-29T12:07:28.645Z</time></trkpt><trkpt lat="43.5013805" lon="12.0823547"><ele>315.5</ele><time>2026-04-29T12:07:29.649Z</time></trkpt><trkpt lat="43.5011694" lon="12.0825948"><ele>320.0</ele><time>2026-04-29T12:07:30.658Z</time></trkpt><trkpt lat="43.5009689" lon="12.0828766"><ele>320.0</ele><time>2026-04-29T12:07:31.671Z</time></trkpt><trkpt lat="43.5007808" lon="12.0831605"><ele>320.0</ele><time>2026-04-29T12:07:32.641Z</time></trkpt><trkpt lat="43.5005894" lon="12.0834587"><ele>330.0</ele><time>2026-04-29T12:07:33.645Z</time></trkpt><trkpt lat="43.5004125" lon="12.0837501"><ele>340.0</ele><time>2026-04-29T12:07:34.634Z</time></trkpt><trkpt lat="43.5002294" lon="12.0840273"><ele>337.5</ele><time>2026-04-29T12:07:35.646Z</time></trkpt><trkpt lat="43.5000555" lon="12.0842788"><ele>335.0</ele><time>2026-04-29T12:07:36.661Z</time></trkpt><trkpt lat="43.4998958" lon="12.0844883"><ele>335.0</ele><time>2026-04-29T12:07:37.626Z</time></trkpt><trkpt lat="43.4997176" lon="12.0846847"><ele>335.0</ele><time>2026-04-29T12:07:38.646Z</time></trkpt><trkpt lat="43.4995344" lon="12.0848355"><ele>335.0</ele><time>2026-04-29T12:07:39.659Z</time></trkpt><trkpt lat="43.4993189" lon="12.0849569"><ele>335.33333333333337</ele><time>2026-04-29T12:07:40.636Z</time></trkpt><trkpt lat="43.4991043" lon="12.0850244"><ele>335.6666666666667</ele><time>2026-04-29T12:07:41.64Z</time></trkpt><trkpt lat="43.4988758" lon="12.0850488"><ele>336.0</ele><time>2026-04-29T12:07:42.667Z</time></trkpt><trkpt lat="43.4986432" lon="12.0850275"><ele>338.5</ele><time>2026-04-29T12:07:43.645Z</time></trkpt><trkpt lat="43.4983946" lon="12.0849587"><ele>341.0</ele><time>2026-04-29T12:07:44.661Z</time></trkpt><trkpt lat="43.498136" lon="12.0848427"><ele>343.0</ele><time>2026-04-29T12:07:45.666Z</time></trkpt><trkpt lat="43.4978878" lon="12.0847209"><ele>345.0</ele><time>2026-04-29T12:07:46.637Z</time></trkpt><trkpt lat="43.497646" lon="12.084595"><ele>345.0</ele><time>2026-04-29T12:07:47.64Z</time></trkpt><trkpt lat="43.4974209" lon="12.0844632"><ele>345.0</ele><time>2026-04-29T12:07:48.651Z</time></trkpt><trkpt lat="43.4972115" lon="12.0843014"><ele>340.0</ele><time>2026-04-29T12:07:49.65Z</time></trkpt><trkpt lat="43.4969946" lon="12.0840974"><ele>335.0</ele><time>2026-04-29T12:07:50.677Z</time></trkpt><trkpt lat="43.4967814" lon="12.0838871"><ele>335.0</ele><time>2026-04-29T12:07:51.654Z</time></trkpt><trkpt lat="43.4965555" lon="12.0836774"><ele>335.0</ele><time>2026-04-29T12:07:52.649Z</time></trkpt><trkpt lat="43.4962973" lon="12.0834819"><ele>334.5</ele><time>2026-04-29T12:07:53.646Z</time></trkpt><trkpt lat="43.4960181" lon="12.0833203"><ele>334.0</ele><time>2026-04-29T12:07:54.648Z</time></trkpt><trkpt lat="43.4957261" lon="12.0831924"><ele>334.0</ele><time>2026-04-29T12:07:55.654Z</time></trkpt><trkpt lat="43.49543" lon="12.0830742"><ele>334.0</ele><time>2026-04-29T12:07:56.656Z</time></trkpt><trkpt lat="43.4951524" lon="12.0829665"><ele>330.0</ele><time>2026-04-29T12:07:57.641Z</time></trkpt><trkpt lat="43.4948694" lon="12.0828607"><ele>326.0</ele><time>2026-04-29T12:07:58.647Z</time></trkpt><trkpt lat="43.4945841" lon="12.0827499"><ele>324.0</ele><time>2026-04-29T12:07:59.658Z</time></trkpt><trkpt lat="43.4942977" lon="12.0826358"><ele>322.0</ele><time>2026-04-29T12:08:00.684Z</time></trkpt><trkpt lat="43.4940368" lon="12.0825369"><ele>322.0</ele><time>2026-04-29T12:08:01.643Z</time></trkpt><trkpt lat="43.4937748" lon="12.0824367"><ele>322.0</ele><time>2026-04-29T12:08:02.653Z</time></trkpt><trkpt lat="43.4935285" lon="12.0823298"><ele>326.5</ele><time>2026-04-29T12:08:03.678Z</time></trkpt><trkpt lat="43.4933072" lon="12.0822055"><ele>331.0</ele><time>2026-04-29T12:08:04.665Z</time></trkpt><trkpt lat="43.4930995" lon="12.0820447"><ele>326.0</ele><time>2026-04-29T12:08:05.642Z</time></trkpt><trkpt lat="43.4929015" lon="12.0818268"><ele>321.0</ele><time>2026-04-29T12:08:06.647Z</time></trkpt><trkpt lat="43.4927184" lon="12.0815617"><ele>321.0</ele><time>2026-04-29T12:08:07.678Z</time></trkpt><trkpt lat="43.4925482" lon="12.0812728"><ele>321.0</ele><time>2026-04-29T12:08:08.652Z</time></trkpt><trkpt lat="43.4923697" lon="12.0809678"><ele>322.0</ele><time>2026-04-29T12:08:09.644Z</time></trkpt><trkpt lat="43.4921762" lon="12.0806563"><ele>323.0</ele><time>2026-04-29T12:08:10.656Z</time></trkpt><trkpt lat="43.49198" lon="12.0803709"><ele>323.0</ele><time>2026-04-29T12:08:11.638Z</time></trkpt><trkpt lat="43.491768" lon="12.0801073"><ele>323.0</ele><time>2026-04-29T12:08:12.629Z</time></trkpt><trkpt lat="43.4915415" lon="12.07989"><ele>324.5</ele><time>2026-04-29T12:08:13.642Z</time></trkpt><trkpt lat="43.4913052" lon="12.0797066"><ele>326.0</ele><time>2026-04-29T12:08:14.647Z</time></trkpt><trkpt lat="43.4910435" lon="12.0795663"><ele>322.0</ele><time>2026-04-29T12:08:15.646Z</time></trkpt><trkpt lat="43.490772" lon="12.0794687"><ele>318.0</ele><time>2026-04-29T12:08:16.665Z</time></trkpt><trkpt lat="43.4905025" lon="12.0793972"><ele>319.0</ele><time>2026-04-29T12:08:17.652Z</time></trkpt><trkpt lat="43.4902304" lon="12.0793335"><ele>320.0</ele><time>2026-04-29T12:08:18.643Z</time></trkpt><trkpt lat="43.4899489" lon="12.0792763"><ele>320.0</ele><time>2026-04-29T12:08:19.633Z</time></trkpt><trkpt lat="43.489675" lon="12.0792241"><ele>320.0</ele><time>2026-04-29T12:08:20.643Z</time></trkpt><trkpt lat="43.4894185" lon="12.0791742"><ele>320.5</ele><time>2026-04-29T12:08:21.644Z</time></trkpt><trkpt lat="43.4891765" lon="12.0791239"><ele>321.0</ele><time>2026-04-29T12:08:22.646Z</time></trkpt><trkpt lat="43.4889376" lon="12.0790953"><ele>326.0</ele><time>2026-04-29T12:08:23.637Z</time></trkpt><trkpt lat="43.4886949" lon="12.0791047"><ele>331.0</ele><time>2026-04-29T12:08:24.636Z</time></trkpt><trkpt lat="43.4884519" lon="12.0791626"><ele>331.0</ele><time>2026-04-29T12:08:25.658Z</time></trkpt><trkpt lat="43.4882094" lon="12.0792697"><ele>331.0</ele><time>2026-04-29T12:08:26.648Z</time></trkpt><trkpt lat="43.4879786" lon="12.0794109"><ele>333.5</ele><time>2026-04-29T12:08:27.638Z</time></trkpt><trkpt lat="43.4877651" lon="12.0795748"><ele>336.0</ele><time>2026-04-29T12:08:28.635Z</time></trkpt><trkpt lat="43.4875609" lon="12.0797268"><ele>336.0</ele><time>2026-04-29T12:08:29.657Z</time></trkpt><trkpt lat="43.4873734" lon="12.0798354"><ele>336.0</ele><time>2026-04-29T12:08:30.667Z</time></trkpt><trkpt lat="43.4872106" lon="12.0798773"><ele>336.0</ele><time>2026-04-29T12:08:31.639Z</time></trkpt><trkpt lat="43.4870521" lon="12.0798606"><ele>331.6666666666667</ele><time>2026-04-29T12:08:32.65Z</time></trkpt><trkpt lat="43.4869215" lon="12.0797941"><ele>327.33333333333337</ele><time>2026-04-29T12:08:33.656Z</time></trkpt><trkpt lat="43.4867771" lon="12.0796388"><ele>323.0</ele><time>2026-04-29T12:08:34.99Z</time></trkpt><trkpt lat="43.4863606" lon="12.0792377"><ele>321.0</ele><time>2026-04-29T12:08:36.706Z</time></trkpt><trkpt lat="43.4861721" lon="12.0790363"><ele>319.0</ele><time>2026-04-29T12:08:37.712Z</time></trkpt><trkpt lat="43.4859753" lon="12.078852"><ele>319.0</ele><time>2026-04-29T12:08:38.715Z</time></trkpt><trkpt lat="43.4857861" lon="12.0786954"><ele>319.0</ele><time>2026-04-29T12:08:39.702Z</time></trkpt><trkpt lat="43.4856029" lon="12.0785774"><ele>319.0</ele><time>2026-04-29T12:08:40.689Z</time></trkpt><trkpt lat="43.4854188" lon="12.078477"><ele>318.0</ele><time>2026-04-29T12:08:41.719Z</time></trkpt><trkpt lat="43.4852413" lon="12.0783796"><ele>317.0</ele><time>2026-04-29T12:08:42.739Z</time></trkpt><trkpt lat="43.485087" lon="12.0782656"><ele>316.0</ele><time>2026-04-29T12:08:43.721Z</time></trkpt><trkpt lat="43.4849541" lon="12.0781212"><ele>316.0</ele><time>2026-04-29T12:08:44.717Z</time></trkpt><trkpt lat="43.4848491" lon="12.0779532"><ele>316.0</ele><time>2026-04-29T12:08:45.715Z</time></trkpt><trkpt lat="43.4847705" lon="12.0777804"><ele>316.0</ele><time>2026-04-29T12:08:46.694Z</time></trkpt><trkpt lat="43.4846928" lon="12.0776194"><ele>316.0</ele><time>2026-04-29T12:08:47.697Z</time></trkpt><trkpt lat="43.4846358" lon="12.0774523"><ele>314.25</ele><time>2026-04-29T12:08:48.712Z</time></trkpt><trkpt lat="43.4845799" lon="12.0772855"><ele>312.5</ele><time>2026-04-29T12:08:49.71Z</time></trkpt><trkpt lat="43.4845215" lon="12.0771139"><ele>310.75</ele><time>2026-04-29T12:08:50.719Z</time></trkpt><trkpt lat="43.4844636" lon="12.0769451"><ele>309.0</ele><time>2026-04-29T12:08:51.706Z</time></trkpt><trkpt lat="43.4844051" lon="12.076772"><ele>310.0</ele><time>2026-04-29T12:08:52.71Z</time></trkpt><trkpt lat="43.4843461" lon="12.0765965"><ele>311.0</ele><time>2026-04-29T12:08:53.708Z</time></trkpt><trkpt lat="43.4842863" lon="12.0764185"><ele>312.0</ele><time>2026-04-29T12:08:54.705Z</time></trkpt><trkpt lat="43.4842222" lon="12.0762317"><ele>313.0</ele><time>2026-04-29T12:08:55.732Z</time></trkpt><trkpt lat="43.4841619" lon="12.0760536"><ele>313.0</ele><time>2026-04-29T12:08:56.708Z</time></trkpt><trkpt lat="43.4840985" lon="12.0758709"><ele>313.0</ele><time>2026-04-29T12:08:57.713Z</time></trkpt><trkpt lat="43.4840316" lon="12.0756797"><ele>313.0</ele><time>2026-04-29T12:08:58.735Z</time></trkpt><trkpt lat="43.4839683" lon="12.075497"><ele>313.0</ele><time>2026-04-29T12:08:59.712Z</time></trkpt><trkpt lat="43.4839069" lon="12.0753147"><ele>313.66666666666663</ele><time>2026-04-29T12:09:00.704Z</time></trkpt><trkpt lat="43.4838426" lon="12.0751297"><ele>314.3333333333333</ele><time>2026-04-29T12:09:01.709Z</time></trkpt><trkpt lat="43.4837728" lon="12.074939"><ele>315.0</ele><time>2026-04-29T12:09:02.703Z</time></trkpt><trkpt lat="43.4836853" lon="12.0747483"><ele>315.0</ele><time>2026-04-29T12:09:03.709Z</time></trkpt><trkpt lat="43.4835844" lon="12.0745592"><ele>315.0</ele><time>2026-04-29T12:09:04.718Z</time></trkpt><trkpt lat="43.4834797" lon="12.0743787"><ele>315.0</ele><time>2026-04-29T12:09:05.711Z</time></trkpt><trkpt lat="43.4833742" lon="12.0742046"><ele>316.3333333333333</ele><time>2026-04-29T12:09:06.705Z</time></trkpt><trkpt lat="43.4832675" lon="12.0740296"><ele>317.66666666666663</ele><time>2026-04-29T12:09:07.717Z</time></trkpt><trkpt lat="43.4831661" lon="12.0738457"><ele>319.0</ele><time>2026-04-29T12:09:08.717Z</time></trkpt><trkpt lat="43.4830677" lon="12.0736619"><ele>319.0</ele><time>2026-04-29T12:09:09.699Z</time></trkpt><trkpt lat="43.4829682" lon="12.0734643"><ele>319.0</ele><time>2026-04-29T12:09:10.708Z</time></trkpt><trkpt lat="43.4828713" lon="12.0732622"><ele>319.0</ele><time>2026-04-29T12:09:11.71Z</time></trkpt><trkpt lat="43.4827779" lon="12.0730524"><ele>317.66666666666663</ele><time>2026-04-29T12:09:12.703Z</time></trkpt><trkpt lat="43.4826864" lon="12.072832"><ele>316.3333333333333</ele><time>2026-04-29T12:09:13.709Z</time></trkpt><trkpt lat="43.4825948" lon="12.0726057"><ele>315.0</ele><time>2026-04-29T12:09:14.708Z</time></trkpt><trkpt lat="43.4825006" lon="12.0723794"><ele>317.6666666666667</ele><time>2026-04-29T12:09:15.704Z</time></trkpt><trkpt lat="43.4824121" lon="12.0721572"><ele>320.33333333333337</ele><time>2026-04-29T12:09:16.702Z</time></trkpt><trkpt lat="43.4823228" lon="12.0719356"><ele>323.0</ele><time>2026-04-29T12:09:17.697Z</time></trkpt><trkpt lat="43.4822342" lon="12.071712"><ele>322.0</ele><time>2026-04-29T12:09:18.703Z</time></trkpt><trkpt lat="43.4821446" lon="12.0714873"><ele>321.0</ele><time>2026-04-29T12:09:19.704Z</time></trkpt><trkpt lat="43.4820565" lon="12.0712635"><ele>320.0</ele><time>2026-04-29T12:09:20.697Z</time></trkpt><trkpt lat="43.4819667" lon="12.0710355"><ele>316.6666666666667</ele><time>2026-04-29T12:09:21.7Z</time></trkpt><trkpt lat="43.4818768" lon="12.0708022"><ele>313.3333333333333</ele><time>2026-04-29T12:09:22.718Z</time></trkpt><trkpt lat="43.4817886" lon="12.0705722"><ele>310.0</ele><time>2026-04-29T12:09:23.708Z</time></trkpt><trkpt lat="43.4817001" lon="12.0703388"><ele>310.0</ele><time>2026-04-29T12:09:24.698Z</time></trkpt><trkpt lat="43.4816081" lon="12.0700916"><ele>310.0</ele><time>2026-04-29T12:09:25.73Z</time></trkpt><trkpt lat="43.4815251" lon="12.069849"><ele>310.0</ele><time>2026-04-29T12:09:26.718Z</time></trkpt><trkpt lat="43.4814517" lon="12.0696035"><ele>313.0</ele><time>2026-04-29T12:09:27.693Z</time></trkpt><trkpt lat="43.4813883" lon="12.0693444"><ele>316.0</ele><time>2026-04-29T12:09:28.704Z</time></trkpt><trkpt lat="43.4813326" lon="12.0690813"><ele>319.0</ele><time>2026-04-29T12:09:29.718Z</time></trkpt><trkpt lat="43.4812865" lon="12.0688373"><ele>315.3333333333333</ele><time>2026-04-29T12:09:30.654Z</time></trkpt><trkpt lat="43.481247" lon="12.0685681"><ele>311.6666666666667</ele><time>2026-04-29T12:09:31.668Z</time></trkpt><trkpt lat="43.4812207" lon="12.0683057"><ele>308.0</ele><time>2026-04-29T12:09:32.657Z</time></trkpt><trkpt lat="43.4812077" lon="12.0680427"><ele>308.0</ele><time>2026-04-29T12:09:33.642Z</time></trkpt><trkpt lat="43.4812015" lon="12.0677717"><ele>308.0</ele><time>2026-04-29T12:09:34.641Z</time></trkpt><trkpt lat="43.4812016" lon="12.0674951"><ele>308.0</ele><time>2026-04-29T12:09:35.664Z</time></trkpt><trkpt lat="43.4811961" lon="12.0672188"><ele>308.33333333333337</ele><time>2026-04-29T12:09:36.657Z</time></trkpt><trkpt lat="43.4811961" lon="12.0669401"><ele>308.6666666666667</ele><time>2026-04-29T12:09:37.642Z</time></trkpt><trkpt lat="43.481193" lon="12.0666519"><ele>309.0</ele><time>2026-04-29T12:09:38.651Z</time></trkpt><trkpt lat="43.4811758" lon="12.0663702"><ele>309.3333333333333</ele><time>2026-04-29T12:09:39.643Z</time></trkpt><trkpt lat="43.4811456" lon="12.0660847"><ele>309.66666666666663</ele><time>2026-04-29T12:09:40.665Z</time></trkpt><trkpt lat="43.4811048" lon="12.0658169"><ele>310.0</ele><time>2026-04-29T12:09:41.657Z</time></trkpt><trkpt lat="43.4810634" lon="12.0655479"><ele>310.3333333333333</ele><time>2026-04-29T12:09:42.653Z</time></trkpt><trkpt lat="43.4810185" lon="12.065268"><ele>310.6666666666667</ele><time>2026-04-29T12:09:43.658Z</time></trkpt><trkpt lat="43.4809736" lon="12.0649945"><ele>311.0</ele><time>2026-04-29T12:09:44.65Z</time></trkpt><trkpt lat="43.4809249" lon="12.0647289"><ele>311.6666666666667</ele><time>2026-04-29T12:09:45.65Z</time></trkpt><trkpt lat="43.4808856" lon="12.064458"><ele>312.3333333333333</ele><time>2026-04-29T12:09:46.632Z</time></trkpt><trkpt lat="43.4808367" lon="12.0641666"><ele>313.0</ele><time>2026-04-29T12:09:47.671Z</time></trkpt><trkpt lat="43.4807815" lon="12.0638882"><ele>315.3333333333333</ele><time>2026-04-29T12:09:48.645Z</time></trkpt><trkpt lat="43.4807108" lon="12.0636"><ele>317.6666666666667</ele><time>2026-04-29T12:09:49.674Z</time></trkpt><trkpt lat="43.4806302" lon="12.0633329"><ele>320.0</ele><time>2026-04-29T12:09:50.657Z</time></trkpt><trkpt lat="43.4805406" lon="12.0630626"><ele>319.0</ele><time>2026-04-29T12:09:51.669Z</time></trkpt><trkpt lat="43.4804485" lon="12.0628183"><ele>318.0</ele><time>2026-04-29T12:09:52.643Z</time></trkpt><trkpt lat="43.4803529" lon="12.0625826"><ele>317.0</ele><time>2026-04-29T12:09:53.655Z</time></trkpt><trkpt lat="43.4802613" lon="12.0623638"><ele>317.0</ele><time>2026-04-29T12:09:54.651Z</time></trkpt><trkpt lat="43.4801759" lon="12.0621674"><ele>317.0</ele><time>2026-04-29T12:09:55.65Z</time></trkpt><trkpt lat="43.4800991" lon="12.0619803"><ele>317.0</ele><time>2026-04-29T12:09:56.639Z</time></trkpt><trkpt lat="43.480023" lon="12.0617994"><ele>317.0</ele><time>2026-04-29T12:09:57.642Z</time></trkpt><trkpt lat="43.4799541" lon="12.061629"><ele>317.0</ele><time>2026-04-29T12:09:58.643Z</time></trkpt><trkpt lat="43.4798851" lon="12.0614557"><ele>317.0</ele><time>2026-04-29T12:09:59.658Z</time></trkpt><trkpt lat="43.4798153" lon="12.061287"><ele>317.0</ele><time>2026-04-29T12:10:00.643Z</time></trkpt><trkpt lat="43.4797413" lon="12.0611098"><ele>316.0</ele><time>2026-04-29T12:10:01.651Z</time></trkpt><trkpt lat="43.4796645" lon="12.0609253"><ele>315.0</ele><time>2026-04-29T12:10:02.654Z</time></trkpt><trkpt lat="43.4795887" lon="12.0607392"><ele>314.0</ele><time>2026-04-29T12:10:03.657Z</time></trkpt><trkpt lat="43.4795159" lon="12.0605566"><ele>314.0</ele><time>2026-04-29T12:10:04.65Z</time></trkpt><trkpt lat="43.4794446" lon="12.0603755"><ele>314.0</ele><time>2026-04-29T12:10:05.646Z</time></trkpt><trkpt lat="43.4793719" lon="12.0601932"><ele>314.0</ele><time>2026-04-29T12:10:06.659Z</time></trkpt><trkpt lat="43.4793027" lon="12.0600134"><ele>314.0</ele><time>2026-04-29T12:10:07.656Z</time></trkpt><trkpt lat="43.4792333" lon="12.059835"><ele>319.0</ele><time>2026-04-29T12:10:08.645Z</time></trkpt><trkpt lat="43.4791583" lon="12.0596537"><ele>324.0</ele><time>2026-04-29T12:10:09.666Z</time></trkpt><trkpt lat="43.4790851" lon="12.0594768"><ele>329.0</ele><time>2026-04-29T12:10:10.643Z</time></trkpt><trkpt lat="43.4790077" lon="12.0592916"><ele>331.0</ele><time>2026-04-29T12:10:11.654Z</time></trkpt><trkpt lat="43.4789301" lon="12.059104"><ele>333.0</ele><time>2026-04-29T12:10:12.64Z</time></trkpt><trkpt lat="43.47885" lon="12.0589186"><ele>335.0</ele><time>2026-04-29T12:10:13.645Z</time></trkpt><trkpt lat="43.4787683" lon="12.0587431"><ele>330.33333333333337</ele><time>2026-04-29T12:10:14.641Z</time></trkpt><trkpt lat="43.4786827" lon="12.0585737"><ele>325.6666666666667</ele><time>2026-04-29T12:10:15.651Z</time></trkpt><trkpt lat="43.4785871" lon="12.0584077"><ele>321.0</ele><time>2026-04-29T12:10:16.636Z</time></trkpt><trkpt lat="43.478484" lon="12.0582442"><ele>321.0</ele><time>2026-04-29T12:10:17.645Z</time></trkpt><trkpt lat="43.4783788" lon="12.0580817"><ele>321.0</ele><time>2026-04-29T12:10:18.663Z</time></trkpt><trkpt lat="43.4782639" lon="12.0579208"><ele>321.0</ele><time>2026-04-29T12:10:19.658Z</time></trkpt><trkpt lat="43.4781376" lon="12.0577603"><ele>321.0</ele><time>2026-04-29T12:10:20.657Z</time></trkpt><trkpt lat="43.47801" lon="12.0576155"><ele>321.0</ele><time>2026-04-29T12:10:21.642Z</time></trkpt><trkpt lat="43.4778775" lon="12.057474"><ele>321.0</ele><time>2026-04-29T12:10:22.655Z</time></trkpt><trkpt lat="43.4777436" lon="12.0573421"><ele>319.0</ele><time>2026-04-29T12:10:23.646Z</time></trkpt><trkpt lat="43.4776069" lon="12.0572159"><ele>317.0</ele><time>2026-04-29T12:10:24.652Z</time></trkpt><trkpt lat="43.4774647" lon="12.0570918"><ele>315.0</ele><time>2026-04-29T12:10:25.643Z</time></trkpt><trkpt lat="43.4773169" lon="12.0569624"><ele>315.0</ele><time>2026-04-29T12:10:26.662Z</time></trkpt><trkpt lat="43.4771721" lon="12.0568358"><ele>315.0</ele><time>2026-04-29T12:10:27.646Z</time></trkpt><trkpt lat="43.4770276" lon="12.0567016"><ele>315.0</ele><time>2026-04-29T12:10:28.646Z</time></trkpt><trkpt lat="43.4768739" lon="12.0565563"><ele>314.6666666666667</ele><time>2026-04-29T12:10:29.652Z</time></trkpt><trkpt lat="43.4767243" lon="12.0564092"><ele>314.33333333333337</ele><time>2026-04-29T12:10:30.645Z</time></trkpt><trkpt lat="43.4765745" lon="12.0562619"><ele>314.0</ele><time>2026-04-29T12:10:31.653Z</time></trkpt><trkpt lat="43.4764252" lon="12.0561207"><ele>314.0</ele><time>2026-04-29T12:10:32.646Z</time></trkpt><trkpt lat="43.4762787" lon="12.0559845"><ele>314.0</ele><time>2026-04-29T12:10:33.651Z</time></trkpt><trkpt lat="43.4761406" lon="12.0558535"><ele>314.0</ele><time>2026-04-29T12:10:34.651Z</time></trkpt><trkpt lat="43.4760086" lon="12.0557256"><ele>313.6666666666667</ele><time>2026-04-29T12:10:35.654Z</time></trkpt><trkpt lat="43.4758809" lon="12.0556017"><ele>313.3333333333333</ele><time>2026-04-29T12:10:36.652Z</time></trkpt><trkpt lat="43.4757515" lon="12.0554763"><ele>313.0</ele><time>2026-04-29T12:10:37.654Z</time></trkpt><trkpt lat="43.475617" lon="12.0553473"><ele>313.0</ele><time>2026-04-29T12:10:38.653Z</time></trkpt><trkpt lat="43.4754811" lon="12.0552091"><ele>313.0</ele><time>2026-04-29T12:10:39.654Z</time></trkpt><trkpt lat="43.4753385" lon="12.055059"><ele>313.0</ele><time>2026-04-29T12:10:40.675Z</time></trkpt><trkpt lat="43.4752075" lon="12.0549303"><ele>314.0</ele><time>2026-04-29T12:10:41.643Z</time></trkpt><trkpt lat="43.4750779" lon="12.0548059"><ele>315.0</ele><time>2026-04-29T12:10:42.646Z</time></trkpt><trkpt lat="43.474948" lon="12.0546855"><ele>316.0</ele><time>2026-04-29T12:10:43.657Z</time></trkpt><trkpt lat="43.47482" lon="12.0545638"><ele>316.0</ele><time>2026-04-29T12:10:44.648Z</time></trkpt><trkpt lat="43.4746892" lon="12.0544406"><ele>316.0</ele><time>2026-04-29T12:10:45.661Z</time></trkpt><trkpt lat="43.4745537" lon="12.0543119"><ele>316.0</ele><time>2026-04-29T12:10:46.679Z</time></trkpt><trkpt lat="43.4744273" lon="12.0541842"><ele>320.3333333333333</ele><time>2026-04-29T12:10:47.645Z</time></trkpt><trkpt lat="43.4742896" lon="12.0540503"><ele>324.6666666666667</ele><time>2026-04-29T12:10:48.649Z</time></trkpt><trkpt lat="43.4741528" lon="12.0539172"><ele>329.0</ele><time>2026-04-29T12:10:49.633Z</time></trkpt><trkpt lat="43.4740102" lon="12.0537792"><ele>329.0</ele><time>2026-04-29T12:10:50.646Z</time></trkpt><trkpt lat="43.4738674" lon="12.0536406"><ele>329.0</ele><time>2026-04-29T12:10:51.659Z</time></trkpt><trkpt lat="43.4737287" lon="12.053505"><ele>329.0</ele><time>2026-04-29T12:10:52.637Z</time></trkpt><trkpt lat="43.4735867" lon="12.0533617"><ele>327.6666666666667</ele><time>2026-04-29T12:10:53.647Z</time></trkpt><trkpt lat="43.4734466" lon="12.0532242"><ele>326.3333333333333</ele><time>2026-04-29T12:10:54.646Z</time></trkpt><trkpt lat="43.4733009" lon="12.0530782"><ele>325.0</ele><time>2026-04-29T12:10:55.671Z</time></trkpt><trkpt lat="43.4731628" lon="12.0529431"><ele>325.0</ele><time>2026-04-29T12:10:56.661Z</time></trkpt><trkpt lat="43.4730189" lon="12.0528127"><ele>325.0</ele><time>2026-04-29T12:10:57.652Z</time></trkpt><trkpt lat="43.4728702" lon="12.0526879"><ele>325.0</ele><time>2026-04-29T12:10:58.661Z</time></trkpt><trkpt lat="43.4727119" lon="12.0525789"><ele>323.3333333333333</ele><time>2026-04-29T12:10:59.656Z</time></trkpt><trkpt lat="43.4725491" lon="12.0525031"><ele>321.6666666666667</ele><time>2026-04-29T12:11:00.65Z</time></trkpt><trkpt lat="43.4723685" lon="12.0524539"><ele>320.0</ele><time>2026-04-29T12:11:01.682Z</time></trkpt><trkpt lat="43.4721893" lon="12.0524402"><ele>320.0</ele><time>2026-04-29T12:11:02.677Z</time></trkpt><trkpt lat="43.4720119" lon="12.0524453"><ele>320.0</ele><time>2026-04-29T12:11:03.667Z</time></trkpt><trkpt lat="43.471835" lon="12.0524569"><ele>320.0</ele><time>2026-04-29T12:11:04.661Z</time></trkpt><trkpt lat="43.4716606" lon="12.052466"><ele>320.0</ele><time>2026-04-29T12:11:05.666Z</time></trkpt><trkpt lat="43.4714936" lon="12.052466"><ele>320.0</ele><time>2026-04-29T12:11:06.664Z</time></trkpt><trkpt lat="43.4713267" lon="12.0524569"><ele>320.0</ele><time>2026-04-29T12:11:07.662Z</time></trkpt><trkpt lat="43.4711677" lon="12.052439"><ele>324.6666666666667</ele><time>2026-04-29T12:11:08.661Z</time></trkpt><trkpt lat="43.4710077" lon="12.0524072"><ele>329.3333333333333</ele><time>2026-04-29T12:11:09.646Z</time></trkpt><trkpt lat="43.4708588" lon="12.0523588"><ele>334.0</ele><time>2026-04-29T12:11:10.669Z</time></trkpt><trkpt lat="43.4707172" lon="12.0522782"><ele>334.0</ele><time>2026-04-29T12:11:11.663Z</time></trkpt><trkpt lat="43.470591" lon="12.0521651"><ele>334.0</ele><time>2026-04-29T12:11:12.645Z</time></trkpt><trkpt lat="43.470473" lon="12.0520095"><ele>334.0</ele><time>2026-04-29T12:11:13.666Z</time></trkpt><trkpt lat="43.4703527" lon="12.0518383"><ele>334.0</ele><time>2026-04-29T12:11:14.66Z</time></trkpt><trkpt lat="43.4702223" lon="12.0516589"><ele>334.0</ele><time>2026-04-29T12:11:15.643Z</time></trkpt><trkpt lat="43.4700753" lon="12.0514741"><ele>334.0</ele><time>2026-04-29T12:11:16.671Z</time></trkpt><trkpt lat="43.4699274" lon="12.0513072"><ele>334.0</ele><time>2026-04-29T12:11:17.643Z</time></trkpt><trkpt lat="43.4697737" lon="12.0511558"><ele>334.0</ele><time>2026-04-29T12:11:18.651Z</time></trkpt><trkpt lat="43.4696296" lon="12.0510102"><ele>334.0</ele><time>2026-04-29T12:11:19.653Z</time></trkpt><trkpt lat="43.4694887" lon="12.0508829"><ele>336.0</ele><time>2026-04-29T12:11:20.65Z</time></trkpt><trkpt lat="43.469346" lon="12.0507559"><ele>338.0</ele><time>2026-04-29T12:11:21.651Z</time></trkpt><trkpt lat="43.4691992" lon="12.0506398"><ele>340.0</ele><time>2026-04-29T12:11:22.667Z</time></trkpt><trkpt lat="43.4690644" lon="12.050538"><ele>340.0</ele><time>2026-04-29T12:11:23.659Z</time></trkpt><trkpt lat="43.468943" lon="12.0504299"><ele>340.0</ele><time>2026-04-29T12:11:24.642Z</time></trkpt><trkpt lat="43.4688167" lon="12.0502935"><ele>340.0</ele><time>2026-04-29T12:11:25.672Z</time></trkpt><trkpt lat="43.4687107" lon="12.0501482"><ele>334.66666666666663</ele><time>2026-04-29T12:11:26.65Z</time></trkpt><trkpt lat="43.4686135" lon="12.0499727"><ele>329.3333333333333</ele><time>2026-04-29T12:11:27.651Z</time></trkpt><trkpt lat="43.4685236" lon="12.0497675"><ele>324.0</ele><time>2026-04-29T12:11:28.657Z</time></trkpt><trkpt lat="43.4684391" lon="12.0495429"><ele>324.0</ele><time>2026-04-29T12:11:29.655Z</time></trkpt><trkpt lat="43.4683801" lon="12.0493306"><ele>324.0</ele><time>2026-04-29T12:11:30.651Z</time></trkpt><trkpt lat="43.4683253" lon="12.0490964"><ele>324.0</ele><time>2026-04-29T12:11:31.665Z</time></trkpt><trkpt lat="43.4682779" lon="12.0488821"><ele>328.3333333333333</ele><time>2026-04-29T12:11:32.645Z</time></trkpt><trkpt lat="43.468229" lon="12.0486661"><ele>332.66666666666663</ele><time>2026-04-29T12:11:33.647Z</time></trkpt><trkpt lat="43.4681676" lon="12.0484502"><ele>337.0</ele><time>2026-04-29T12:11:34.662Z</time></trkpt><trkpt lat="43.4680958" lon="12.048243"><ele>341.3333333333333</ele><time>2026-04-29T12:11:35.649Z</time></trkpt><trkpt lat="43.4680152" lon="12.0480558"><ele>345.6666666666667</ele><time>2026-04-29T12:11:36.644Z</time></trkpt><trkpt lat="43.4679222" lon="12.0478623"><ele>350.0</ele><time>2026-04-29T12:11:37.67Z</time></trkpt><trkpt lat="43.4678226" lon="12.0476899"><ele>346.0</ele><time>2026-04-29T12:11:38.658Z</time></trkpt><trkpt lat="43.4677165" lon="12.0475288"><ele>342.0</ele><time>2026-04-29T12:11:39.658Z</time></trkpt><trkpt lat="43.4676156" lon="12.0473692"><ele>338.0</ele><time>2026-04-29T12:11:40.643Z</time></trkpt><trkpt lat="43.4675081" lon="12.047207"><ele>338.0</ele><time>2026-04-29T12:11:41.665Z</time></trkpt><trkpt lat="43.4674012" lon="12.0470398"><ele>338.0</ele><time>2026-04-29T12:11:42.667Z</time></trkpt><trkpt lat="43.4673018" lon="12.0468834"><ele>338.0</ele><time>2026-04-29T12:11:43.646Z</time></trkpt><trkpt lat="43.4672029" lon="12.0467308"><ele>335.0</ele><time>2026-04-29T12:11:44.643Z</time></trkpt><trkpt lat="43.4671173" lon="12.0465703"><ele>332.0</ele><time>2026-04-29T12:11:45.65Z</time></trkpt><trkpt lat="43.4670381" lon="12.0463959"><ele>329.0</ele><time>2026-04-29T12:11:46.67Z</time></trkpt><trkpt lat="43.4669717" lon="12.0462186"><ele>326.0</ele><time>2026-04-29T12:11:47.671Z</time></trkpt><trkpt lat="43.4669067" lon="12.0460374"><ele>326.0</ele><time>2026-04-29T12:11:48.652Z</time></trkpt><trkpt lat="43.4668413" lon="12.0458538"><ele>326.0</ele><time>2026-04-29T12:11:49.669Z</time></trkpt><trkpt lat="43.4667715" lon="12.045675"><ele>326.0</ele><time>2026-04-29T12:11:50.653Z</time></trkpt><trkpt lat="43.4666993" lon="12.0454756"><ele>327.5</ele><time>2026-04-29T12:11:51.671Z</time></trkpt><trkpt lat="43.4666301" lon="12.0452887"><ele>329.0</ele><time>2026-04-29T12:11:52.667Z</time></trkpt><trkpt lat="43.4665646" lon="12.0450991"><ele>330.5</ele><time>2026-04-29T12:11:53.673Z</time></trkpt><trkpt lat="43.46651" lon="12.0449162"><ele>332.0</ele><time>2026-04-29T12:11:54.643Z</time></trkpt><trkpt lat="43.4664664" lon="12.0447213"><ele>333.6666666666667</ele><time>2026-04-29T12:11:55.676Z</time></trkpt><trkpt lat="43.46643" lon="12.0445241"><ele>335.3333333333333</ele><time>2026-04-29T12:11:56.651Z</time></trkpt><trkpt lat="43.4663912" lon="12.0443145"><ele>337.0</ele><time>2026-04-29T12:11:57.664Z</time></trkpt><trkpt lat="43.4663595" lon="12.0441093"><ele>337.0</ele><time>2026-04-29T12:11:58.643Z</time></trkpt><trkpt lat="43.4663365" lon="12.0438952"><ele>337.0</ele><time>2026-04-29T12:11:59.66Z</time></trkpt><trkpt lat="43.4663229" lon="12.0436816"><ele>337.0</ele><time>2026-04-29T12:12:00.671Z</time></trkpt><trkpt lat="43.4663196" lon="12.0434634"><ele>338.3333333333333</ele><time>2026-04-29T12:12:01.639Z</time></trkpt><trkpt lat="43.4663232" lon="12.0432323"><ele>339.6666666666667</ele><time>2026-04-29T12:12:02.652Z</time></trkpt><trkpt lat="43.4663299" lon="12.0430021"><ele>341.0</ele><time>2026-04-29T12:12:03.659Z</time></trkpt><trkpt lat="43.4663321" lon="12.0427772"><ele>341.0</ele><time>2026-04-29T12:12:04.646Z</time></trkpt><trkpt lat="43.4663327" lon="12.0425501"><ele>341.0</ele><time>2026-04-29T12:12:05.666Z</time></trkpt><trkpt lat="43.4663323" lon="12.0423325"><ele>341.0</ele><time>2026-04-29T12:12:06.658Z</time></trkpt><trkpt lat="43.4663234" lon="12.0421073"><ele>342.33333333333337</ele><time>2026-04-29T12:12:07.648Z</time></trkpt><trkpt lat="43.4663003" lon="12.0418849"><ele>343.6666666666667</ele><time>2026-04-29T12:12:08.654Z</time></trkpt><trkpt lat="43.466264" lon="12.041681"><ele>345.0</ele><time>2026-04-29T12:12:09.656Z</time></trkpt><trkpt lat="43.4662274" lon="12.0414859"><ele>337.6666666666667</ele><time>2026-04-29T12:12:10.643Z</time></trkpt><trkpt lat="43.4661866" lon="12.0412791"><ele>330.33333333333337</ele><time>2026-04-29T12:12:11.649Z</time></trkpt><trkpt lat="43.4661501" lon="12.0410539"><ele>323.0</ele><time>2026-04-29T12:12:12.657Z</time></trkpt><trkpt lat="43.4661045" lon="12.0408091"><ele>323.33333333333337</ele><time>2026-04-29T12:12:13.653Z</time></trkpt><trkpt lat="43.4660642" lon="12.0405861"><ele>323.6666666666667</ele><time>2026-04-29T12:12:14.645Z</time></trkpt><trkpt lat="43.4660098" lon="12.040369"><ele>324.0</ele><time>2026-04-29T12:12:15.655Z</time></trkpt><trkpt lat="43.4659459" lon="12.0401644"><ele>324.0</ele><time>2026-04-29T12:12:16.662Z</time></trkpt><trkpt lat="43.4658805" lon="12.0399684"><ele>324.0</ele><time>2026-04-29T12:12:17.665Z</time></trkpt><trkpt lat="43.4658136" lon="12.0397755"><ele>324.0</ele><time>2026-04-29T12:12:18.656Z</time></trkpt><trkpt lat="43.4657454" lon="12.0395905"><ele>325.25</ele><time>2026-04-29T12:12:19.67Z</time></trkpt><trkpt lat="43.4656979" lon="12.0394128"><ele>326.5</ele><time>2026-04-29T12:12:20.652Z</time></trkpt><trkpt lat="43.4656732" lon="12.0392315"><ele>327.75</ele><time>2026-04-29T12:12:21.651Z</time></trkpt><trkpt lat="43.465673" lon="12.0390511"><ele>329.0</ele><time>2026-04-29T12:12:22.64Z</time></trkpt><trkpt lat="43.4656866" lon="12.0388654"><ele>332.6666666666667</ele><time>2026-04-29T12:12:23.635Z</time></trkpt><trkpt lat="43.4656922" lon="12.0386542"><ele>336.3333333333333</ele><time>2026-04-29T12:12:24.65Z</time></trkpt><trkpt lat="43.4656856" lon="12.0384252"><ele>340.0</ele><time>2026-04-29T12:12:25.674Z</time></trkpt><trkpt lat="43.465658" lon="12.0382038"><ele>343.0</ele><time>2026-04-29T12:12:26.648Z</time></trkpt><trkpt lat="43.4656223" lon="12.0379781"><ele>346.0</ele><time>2026-04-29T12:12:27.646Z</time></trkpt><trkpt lat="43.4655621" lon="12.0377547"><ele>349.0</ele><time>2026-04-29T12:12:28.642Z</time></trkpt><trkpt lat="43.4654832" lon="12.0375725"><ele>346.0</ele><time>2026-04-29T12:12:29.686Z</time></trkpt><trkpt lat="43.4653701" lon="12.0374202"><ele>343.0</ele><time>2026-04-29T12:12:30.653Z</time></trkpt><trkpt lat="43.4652399" lon="12.0372931"><ele>340.0</ele><time>2026-04-29T12:12:31.646Z</time></trkpt><trkpt lat="43.4651394" lon="12.037187"><ele>337.0</ele><time>2026-04-29T12:12:32.648Z</time></trkpt><trkpt lat="43.465016" lon="12.0370647"><ele>337.0</ele><time>2026-04-29T12:12:33.643Z</time></trkpt><trkpt lat="43.4648934" lon="12.0369433"><ele>337.0</ele><time>2026-04-29T12:12:34.654Z</time></trkpt><trkpt lat="43.4647777" lon="12.0368143"><ele>337.0</ele><time>2026-04-29T12:12:35.678Z</time></trkpt><trkpt lat="43.4646877" lon="12.0366755"><ele>337.0</ele><time>2026-04-29T12:12:36.655Z</time></trkpt><trkpt lat="43.4646356" lon="12.0365177"><ele>339.0</ele><time>2026-04-29T12:12:37.663Z</time></trkpt><trkpt lat="43.4645975" lon="12.0363047"><ele>341.0</ele><time>2026-04-29T12:12:38.658Z</time></trkpt><trkpt lat="43.4646133" lon="12.0361244"><ele>343.0</ele><time>2026-04-29T12:12:39.653Z</time></trkpt><trkpt lat="43.4646716" lon="12.0359079"><ele>345.5</ele><time>2026-04-29T12:12:40.965Z</time></trkpt><trkpt lat="43.4647448" lon="12.0354812"><ele>348.0</ele><time>2026-04-29T12:12:42.713Z</time></trkpt><trkpt lat="43.4647419" lon="12.0352598"><ele>348.0</ele><time>2026-04-29T12:12:43.711Z</time></trkpt><trkpt lat="43.4647105" lon="12.0350214"><ele>348.0</ele><time>2026-04-29T12:12:44.715Z</time></trkpt><trkpt lat="43.4646598" lon="12.0348083"><ele>348.0</ele><time>2026-04-29T12:12:45.714Z</time></trkpt><trkpt lat="43.4646108" lon="12.034628"><ele>345.5</ele><time>2026-04-29T12:12:46.705Z</time></trkpt><trkpt lat="43.464564" lon="12.034442"><ele>343.0</ele><time>2026-04-29T12:12:47.711Z</time></trkpt><trkpt lat="43.4645169" lon="12.0342648"><ele>340.5</ele><time>2026-04-29T12:12:48.704Z</time></trkpt><trkpt lat="43.4644661" lon="12.0340847"><ele>338.0</ele><time>2026-04-29T12:12:49.709Z</time></trkpt><trkpt lat="43.4643856" lon="12.0339147"><ele>338.0</ele><time>2026-04-29T12:12:50.728Z</time></trkpt><trkpt lat="43.4642838" lon="12.0337741"><ele>338.0</ele><time>2026-04-29T12:12:51.713Z</time></trkpt><trkpt lat="43.4641624" lon="12.0336617"><ele>338.0</ele><time>2026-04-29T12:12:52.707Z</time></trkpt><trkpt lat="43.4640311" lon="12.0335657"><ele>338.0</ele><time>2026-04-29T12:12:53.717Z</time></trkpt><trkpt lat="43.4638998" lon="12.0334918"><ele>336.75</ele><time>2026-04-29T12:12:54.713Z</time></trkpt><trkpt lat="43.4637708" lon="12.0334252"><ele>335.5</ele><time>2026-04-29T12:12:55.744Z</time></trkpt><trkpt lat="43.4636546" lon="12.0333437"><ele>334.25</ele><time>2026-04-29T12:12:56.715Z</time></trkpt><trkpt lat="43.4635448" lon="12.0332342"><ele>333.0</ele><time>2026-04-29T12:12:57.705Z</time></trkpt><trkpt lat="43.4634453" lon="12.0330989"><ele>333.0</ele><time>2026-04-29T12:12:58.71Z</time></trkpt><trkpt lat="43.4633512" lon="12.0329452"><ele>333.0</ele><time>2026-04-29T12:12:59.723Z</time></trkpt><trkpt lat="43.4632702" lon="12.0327948"><ele>333.0</ele><time>2026-04-29T12:13:00.712Z</time></trkpt><trkpt lat="43.4632121" lon="12.03264"><ele>333.0</ele><time>2026-04-29T12:13:01.717Z</time></trkpt><trkpt lat="43.4631893" lon="12.0324686"><ele>332.75</ele><time>2026-04-29T12:13:02.72Z</time></trkpt><trkpt lat="43.4632028" lon="12.032294"><ele>332.5</ele><time>2026-04-29T12:13:03.711Z</time></trkpt><trkpt lat="43.4632456" lon="12.0321021"><ele>332.25</ele><time>2026-04-29T12:13:04.73Z</time></trkpt><trkpt lat="43.4633072" lon="12.0319034"><ele>332.0</ele><time>2026-04-29T12:13:05.734Z</time></trkpt><trkpt lat="43.4633763" lon="12.0316953"><ele>330.33333333333337</ele><time>2026-04-29T12:13:06.72Z</time></trkpt><trkpt lat="43.4634591" lon="12.0314744"><ele>328.6666666666667</ele><time>2026-04-29T12:13:07.721Z</time></trkpt><trkpt lat="43.4635394" lon="12.0312407"><ele>327.0</ele><time>2026-04-29T12:13:08.72Z</time></trkpt><trkpt lat="43.4636126" lon="12.0309891"><ele>327.0</ele><time>2026-04-29T12:13:09.723Z</time></trkpt><trkpt lat="43.4636799" lon="12.0307321"><ele>327.0</ele><time>2026-04-29T12:13:10.703Z</time></trkpt><trkpt lat="43.4637387" lon="12.0304602"><ele>327.0</ele><time>2026-04-29T12:13:11.714Z</time></trkpt><trkpt lat="43.4637952" lon="12.0302072"><ele>333.0</ele><time>2026-04-29T12:13:12.706Z</time></trkpt><trkpt lat="43.4638521" lon="12.0299597"><ele>339.0</ele><time>2026-04-29T12:13:13.707Z</time></trkpt><trkpt lat="43.4639026" lon="12.0297237"><ele>345.0</ele><time>2026-04-29T12:13:14.708Z</time></trkpt><trkpt lat="43.4639482" lon="12.0294833"><ele>345.0</ele><time>2026-04-29T12:13:15.717Z</time></trkpt><trkpt lat="43.4639872" lon="12.0292366"><ele>345.0</ele><time>2026-04-29T12:13:16.727Z</time></trkpt><trkpt lat="43.4640061" lon="12.0289909"><ele>345.0</ele><time>2026-04-29T12:13:17.711Z</time></trkpt><trkpt lat="43.4639572" lon="12.0287283"><ele>344.0</ele><time>2026-04-29T12:13:18.708Z</time></trkpt><trkpt lat="43.4639231" lon="12.0284662"><ele>343.0</ele><time>2026-04-29T12:13:19.727Z</time></trkpt><trkpt lat="43.463909" lon="12.0282229"><ele>342.0</ele><time>2026-04-29T12:13:20.726Z</time></trkpt><trkpt lat="43.4639257" lon="12.0279917"><ele>340.3333333333333</ele><time>2026-04-29T12:13:21.701Z</time></trkpt><trkpt lat="43.4639644" lon="12.0277576"><ele>338.66666666666663</ele><time>2026-04-29T12:13:22.715Z</time></trkpt><trkpt lat="43.4640279" lon="12.0275371"><ele>337.0</ele><time>2026-04-29T12:13:23.709Z</time></trkpt><trkpt lat="43.4641251" lon="12.0273364"><ele>336.0</ele><time>2026-04-29T12:13:24.715Z</time></trkpt><trkpt lat="43.4642481" lon="12.0271494"><ele>335.0</ele><time>2026-04-29T12:13:25.726Z</time></trkpt><trkpt lat="43.4643566" lon="12.0269528"><ele>334.0</ele><time>2026-04-29T12:13:26.71Z</time></trkpt><trkpt lat="43.4644443" lon="12.0267285"><ele>333.3333333333333</ele><time>2026-04-29T12:13:27.695Z</time></trkpt><trkpt lat="43.4645171" lon="12.0264845"><ele>332.6666666666667</ele><time>2026-04-29T12:13:28.69Z</time></trkpt><trkpt lat="43.4645855" lon="12.0262216"><ele>332.0</ele><time>2026-04-29T12:13:29.726Z</time></trkpt><trkpt lat="43.464642" lon="12.0259583"><ele>337.33333333333337</ele><time>2026-04-29T12:13:30.733Z</time></trkpt><trkpt lat="43.4646835" lon="12.0256899"><ele>342.6666666666667</ele><time>2026-04-29T12:13:31.733Z</time></trkpt><trkpt lat="43.4647098" lon="12.0254334"><ele>348.0</ele><time>2026-04-29T12:13:32.706Z</time></trkpt><trkpt lat="43.4647312" lon="12.0251866"><ele>345.75</ele><time>2026-04-29T12:13:33.709Z</time></trkpt><trkpt lat="43.464742" lon="12.0249657"><ele>343.5</ele><time>2026-04-29T12:13:34.706Z</time></trkpt><trkpt lat="43.464729" lon="12.0247681"><ele>341.25</ele><time>2026-04-29T12:13:35.71Z</time></trkpt><trkpt lat="43.4646819" lon="12.0245868"><ele>339.0</ele><time>2026-04-29T12:13:36.725Z</time></trkpt><trkpt lat="43.4646011" lon="12.0244276"><ele>339.6666666666667</ele><time>2026-04-29T12:13:37.71Z</time></trkpt><trkpt lat="43.4644873" lon="12.0242718"><ele>340.33333333333337</ele><time>2026-04-29T12:13:38.722Z</time></trkpt><trkpt lat="43.4643739" lon="12.0241271"><ele>341.0</ele><time>2026-04-29T12:13:39.722Z</time></trkpt><trkpt lat="43.464271" lon="12.0239926"><ele>341.0</ele><time>2026-04-29T12:13:40.71Z</time></trkpt><trkpt lat="43.464174" lon="12.0238677"><ele>341.0</ele><time>2026-04-29T12:13:41.696Z</time></trkpt><trkpt lat="43.4640756" lon="12.0237377"><ele>341.0</ele><time>2026-04-29T12:13:42.724Z</time></trkpt><trkpt lat="43.4639785" lon="12.0236088"><ele>341.0</ele><time>2026-04-29T12:13:43.705Z</time></trkpt><trkpt lat="43.4638743" lon="12.0234721"><ele>339.6666666666667</ele><time>2026-04-29T12:13:44.717Z</time></trkpt><trkpt lat="43.4637574" lon="12.0233187"><ele>338.3333333333333</ele><time>2026-04-29T12:13:45.721Z</time></trkpt><trkpt lat="43.463633" lon="12.023124"><ele>337.0</ele><time>2026-04-29T12:13:46.702Z</time></trkpt><trkpt lat="43.4635098" lon="12.0228993"><ele>337.0</ele><time>2026-04-29T12:13:47.708Z</time></trkpt><trkpt lat="43.4633984" lon="12.0226825"><ele>337.0</ele><time>2026-04-29T12:13:48.71Z</time></trkpt><trkpt lat="43.4632909" lon="12.0224695"><ele>337.0</ele><time>2026-04-29T12:13:49.697Z</time></trkpt><trkpt lat="43.4632048" lon="12.0222259"><ele>337.66666666666663</ele><time>2026-04-29T12:13:50.71Z</time></trkpt><trkpt lat="43.4631387" lon="12.0219705"><ele>338.3333333333333</ele><time>2026-04-29T12:13:51.697Z</time></trkpt><trkpt lat="43.4630592" lon="12.021708"><ele>339.0</ele><time>2026-04-29T12:13:52.718Z</time></trkpt><trkpt lat="43.4629658" lon="12.021461"><ele>337.0</ele><time>2026-04-29T12:13:53.715Z</time></trkpt><trkpt lat="43.4628566" lon="12.0212234"><ele>335.0</ele><time>2026-04-29T12:13:54.71Z</time></trkpt><trkpt lat="43.4627432" lon="12.0209922"><ele>333.0</ele><time>2026-04-29T12:13:55.701Z</time></trkpt><trkpt lat="43.462626" lon="12.0207577"><ele>333.0</ele><time>2026-04-29T12:13:56.709Z</time></trkpt><trkpt lat="43.4625067" lon="12.0205246"><ele>333.0</ele><time>2026-04-29T12:13:57.727Z</time></trkpt><trkpt lat="43.4623913" lon="12.0202969"><ele>333.0</ele><time>2026-04-29T12:13:58.721Z</time></trkpt><trkpt lat="43.4622805" lon="12.0200741"><ele>332.6666666666667</ele><time>2026-04-29T12:13:59.707Z</time></trkpt><trkpt lat="43.4621704" lon="12.0198514"><ele>332.33333333333337</ele><time>2026-04-29T12:14:00.709Z</time></trkpt><trkpt lat="43.4620616" lon="12.0196339"><ele>332.0</ele><time>2026-04-29T12:14:01.71Z</time></trkpt><trkpt lat="43.4619571" lon="12.0194237"><ele>332.0</ele><time>2026-04-29T12:14:02.724Z</time></trkpt><trkpt lat="43.4618567" lon="12.0192257"><ele>332.0</ele><time>2026-04-29T12:14:03.728Z</time></trkpt><trkpt lat="43.4617608" lon="12.0190394"><ele>332.0</ele><time>2026-04-29T12:14:04.712Z</time></trkpt><trkpt lat="43.4616608" lon="12.0188578"><ele>337.6666666666667</ele><time>2026-04-29T12:14:05.71Z</time></trkpt><trkpt lat="43.4615527" lon="12.0186938"><ele>343.3333333333333</ele><time>2026-04-29T12:14:06.719Z</time></trkpt><trkpt lat="43.4614323" lon="12.0185503"><ele>349.0</ele><time>2026-04-29T12:14:07.739Z</time></trkpt><trkpt lat="43.4613073" lon="12.0184404"><ele>347.25</ele><time>2026-04-29T12:14:08.719Z</time></trkpt><trkpt lat="43.4611747" lon="12.0183687"><ele>345.5</ele><time>2026-04-29T12:14:09.701Z</time></trkpt><trkpt lat="43.461028" lon="12.0183275"><ele>343.75</ele><time>2026-04-29T12:14:10.719Z</time></trkpt><trkpt lat="43.4609014" lon="12.0182904"><ele>342.0</ele><time>2026-04-29T12:14:11.714Z</time></trkpt><trkpt lat="43.4607766" lon="12.018256"><ele>342.6666666666667</ele><time>2026-04-29T12:14:12.703Z</time></trkpt><trkpt lat="43.4606514" lon="12.0181822"><ele>343.33333333333337</ele><time>2026-04-29T12:14:13.728Z</time></trkpt><trkpt lat="43.4605325" lon="12.0180004"><ele>344.0</ele><time>2026-04-29T12:14:14.721Z</time></trkpt><trkpt lat="43.4604046" lon="12.0178378"><ele>344.0</ele><time>2026-04-29T12:14:15.702Z</time></trkpt><trkpt lat="43.4602589" lon="12.0176671"><ele>344.0</ele><time>2026-04-29T12:14:16.713Z</time></trkpt><trkpt lat="43.4601057" lon="12.0175012"><ele>344.0</ele><time>2026-04-29T12:14:17.713Z</time></trkpt><trkpt lat="43.4599486" lon="12.0173386"><ele>345.33333333333337</ele><time>2026-04-29T12:14:18.697Z</time></trkpt><trkpt lat="43.4597782" lon="12.0171824"><ele>346.6666666666667</ele><time>2026-04-29T12:14:19.707Z</time></trkpt><trkpt lat="43.4595979" lon="12.0170423"><ele>348.0</ele><time>2026-04-29T12:14:20.717Z</time></trkpt><trkpt lat="43.4594297" lon="12.0169122"><ele>348.0</ele><time>2026-04-29T12:14:21.708Z</time></trkpt><trkpt lat="43.4592774" lon="12.0167877"><ele>348.0</ele><time>2026-04-29T12:14:22.735Z</time></trkpt><trkpt lat="43.4591354" lon="12.0166722"><ele>348.0</ele><time>2026-04-29T12:14:23.747Z</time></trkpt><trkpt lat="43.4590096" lon="12.0165825"><ele>352.5</ele><time>2026-04-29T12:14:24.698Z</time></trkpt><trkpt lat="43.4588713" lon="12.0165265"><ele>357.0</ele><time>2026-04-29T12:14:25.725Z</time></trkpt><trkpt lat="43.4587305" lon="12.0165165"><ele>361.5</ele><time>2026-04-29T12:14:26.715Z</time></trkpt><trkpt lat="43.4585979" lon="12.0165594"><ele>366.0</ele><time>2026-04-29T12:14:27.716Z</time></trkpt><trkpt lat="43.458465" lon="12.0166407"><ele>366.0</ele><time>2026-04-29T12:14:28.717Z</time></trkpt><trkpt lat="43.4583339" lon="12.0167095"><ele>366.0</ele><time>2026-04-29T12:14:29.709Z</time></trkpt><trkpt lat="43.4582261" lon="12.0167367"><ele>366.0</ele><time>2026-04-29T12:14:30.712Z</time></trkpt><trkpt lat="43.4581312" lon="12.0167215"><ele>366.0</ele><time>2026-04-29T12:14:31.693Z</time></trkpt><trkpt lat="43.4580449" lon="12.0166493"><ele>366.0</ele><time>2026-04-29T12:14:32.711Z</time></trkpt><trkpt lat="43.4578907" lon="12.0165112"><ele>363.0</ele><time>2026-04-29T12:14:33.713Z</time></trkpt><trkpt lat="43.4577693" lon="12.0163613"><ele>360.0</ele><time>2026-04-29T12:14:34.705Z</time></trkpt><trkpt lat="43.4576483" lon="12.0162007"><ele>357.0</ele><time>2026-04-29T12:14:35.71Z</time></trkpt><trkpt lat="43.4575274" lon="12.0160066"><ele>361.6666666666667</ele><time>2026-04-29T12:14:36.735Z</time></trkpt><trkpt lat="43.4574109" lon="12.0158164"><ele>366.33333333333337</ele><time>2026-04-29T12:14:37.724Z</time></trkpt><trkpt lat="43.457283" lon="12.0156346"><ele>371.0</ele><time>2026-04-29T12:14:38.708Z</time></trkpt><trkpt lat="43.4571529" lon="12.0154473"><ele>364.33333333333337</ele><time>2026-04-29T12:14:39.711Z</time></trkpt><trkpt lat="43.457041" lon="12.0152397"><ele>357.6666666666667</ele><time>2026-04-29T12:14:40.731Z</time></trkpt><trkpt lat="43.4569496" lon="12.0150175"><ele>351.0</ele><time>2026-04-29T12:14:41.73Z</time></trkpt><trkpt lat="43.4568809" lon="12.0147859"><ele>351.0</ele><time>2026-04-29T12:14:42.709Z</time></trkpt><trkpt lat="43.4568318" lon="12.0145342"><ele>351.0</ele><time>2026-04-29T12:14:43.712Z</time></trkpt><trkpt lat="43.4568048" lon="12.014272"><ele>351.0</ele><time>2026-04-29T12:14:44.718Z</time></trkpt><trkpt lat="43.4567918" lon="12.0140125"><ele>355.0</ele><time>2026-04-29T12:14:45.705Z</time></trkpt><trkpt lat="43.4567542" lon="12.0137574"><ele>359.0</ele><time>2026-04-29T12:14:46.695Z</time></trkpt><trkpt lat="43.4566773" lon="12.0135121"><ele>363.0</ele><time>2026-04-29T12:14:47.699Z</time></trkpt><trkpt lat="43.4565714" lon="12.0132855"><ele>361.6666666666667</ele><time>2026-04-29T12:14:48.71Z</time></trkpt><trkpt lat="43.456441" lon="12.0130812"><ele>360.33333333333337</ele><time>2026-04-29T12:14:49.725Z</time></trkpt><trkpt lat="43.4562975" lon="12.0128982"><ele>359.0</ele><time>2026-04-29T12:14:50.727Z</time></trkpt><trkpt lat="43.4561472" lon="12.0127261"><ele>359.0</ele><time>2026-04-29T12:14:51.725Z</time></trkpt><trkpt lat="43.4559922" lon="12.0125655"><ele>359.0</ele><time>2026-04-29T12:14:52.722Z</time></trkpt><trkpt lat="43.455827" lon="12.0124204"><ele>359.0</ele><time>2026-04-29T12:14:53.726Z</time></trkpt><trkpt lat="43.4556625" lon="12.0122946"><ele>358.0</ele><time>2026-04-29T12:14:54.699Z</time></trkpt><trkpt lat="43.455504" lon="12.01215"><ele>357.0</ele><time>2026-04-29T12:14:55.717Z</time></trkpt><trkpt lat="43.4553684" lon="12.0119703"><ele>356.0</ele><time>2026-04-29T12:14:56.745Z</time></trkpt><trkpt lat="43.455267" lon="12.0117772"><ele>356.33333333333337</ele><time>2026-04-29T12:14:57.701Z</time></trkpt><trkpt lat="43.4551865" lon="12.0115439"><ele>356.6666666666667</ele><time>2026-04-29T12:14:58.717Z</time></trkpt><trkpt lat="43.4551346" lon="12.0112941"><ele>357.0</ele><time>2026-04-29T12:14:59.706Z</time></trkpt><trkpt lat="43.4550953" lon="12.0110359"><ele>359.0</ele><time>2026-04-29T12:15:00.694Z</time></trkpt><trkpt lat="43.4550532" lon="12.0107645"><ele>361.0</ele><time>2026-04-29T12:15:01.703Z</time></trkpt><trkpt lat="43.4550149" lon="12.0104951"><ele>363.0</ele><time>2026-04-29T12:15:02.694Z</time></trkpt><trkpt lat="43.454988" lon="12.0102132"><ele>364.6666666666667</ele><time>2026-04-29T12:15:03.713Z</time></trkpt><trkpt lat="43.4549949" lon="12.0099346"><ele>366.33333333333337</ele><time>2026-04-29T12:15:04.712Z</time></trkpt><trkpt lat="43.4550018" lon="12.009653"><ele>368.0</ele><time>2026-04-29T12:15:05.705Z</time></trkpt><trkpt lat="43.4549903" lon="12.0093699"><ele>368.6666666666667</ele><time>2026-04-29T12:15:06.708Z</time></trkpt><trkpt lat="43.4549604" lon="12.0090966"><ele>369.3333333333333</ele><time>2026-04-29T12:15:07.709Z</time></trkpt><trkpt lat="43.4549213" lon="12.0088285"><ele>370.0</ele><time>2026-04-29T12:15:08.713Z</time></trkpt><trkpt lat="43.4548734" lon="12.008563"><ele>371.66666666666663</ele><time>2026-04-29T12:15:09.707Z</time></trkpt><trkpt lat="43.4548293" lon="12.0082984"><ele>373.3333333333333</ele><time>2026-04-29T12:15:10.722Z</time></trkpt><trkpt lat="43.4547851" lon="12.0080555"><ele>375.0</ele><time>2026-04-29T12:15:11.704Z</time></trkpt><trkpt lat="43.4547228" lon="12.0078365"><ele>375.0</ele><time>2026-04-29T12:15:12.724Z</time></trkpt><trkpt lat="43.4546342" lon="12.0076565"><ele>375.0</ele><time>2026-04-29T12:15:13.736Z</time></trkpt><trkpt lat="43.4545286" lon="12.0075233"><ele>375.0</ele><time>2026-04-29T12:15:14.714Z</time></trkpt><trkpt lat="43.4544095" lon="12.0074476"><ele>375.0</ele><time>2026-04-29T12:15:15.713Z</time></trkpt><trkpt lat="43.4542699" lon="12.0074086"><ele>374.3333333333333</ele><time>2026-04-29T12:15:16.707Z</time></trkpt><trkpt lat="43.4541108" lon="12.0073938"><ele>373.66666666666663</ele><time>2026-04-29T12:15:17.716Z</time></trkpt><trkpt lat="43.4539456" lon="12.0073769"><ele>373.0</ele><time>2026-04-29T12:15:18.712Z</time></trkpt><trkpt lat="43.4537762" lon="12.0073472"><ele>373.0</ele><time>2026-04-29T12:15:19.711Z</time></trkpt><trkpt lat="43.4535888" lon="12.0072943"><ele>373.0</ele><time>2026-04-29T12:15:20.744Z</time></trkpt><trkpt lat="43.4534301" lon="12.0072166"><ele>373.0</ele><time>2026-04-29T12:15:21.7Z</time></trkpt><trkpt lat="43.4532724" lon="12.0070997"><ele>373.0</ele><time>2026-04-29T12:15:22.705Z</time></trkpt><trkpt lat="43.4531657" lon="12.0069011"><ele>373.0</ele><time>2026-04-29T12:15:23.72Z</time></trkpt><trkpt lat="43.4530773" lon="12.0066919"><ele>373.0</ele><time>2026-04-29T12:15:24.729Z</time></trkpt><trkpt lat="43.4530218" lon="12.0064529"><ele>373.3333333333333</ele><time>2026-04-29T12:15:25.726Z</time></trkpt><trkpt lat="43.4530091" lon="12.0062229"><ele>373.6666666666667</ele><time>2026-04-29T12:15:26.703Z</time></trkpt><trkpt lat="43.4530327" lon="12.0060176"><ele>374.0</ele><time>2026-04-29T12:15:27.715Z</time></trkpt><trkpt lat="43.453074" lon="12.0058074"><ele>371.6666666666667</ele><time>2026-04-29T12:15:28.709Z</time></trkpt><trkpt lat="43.453163" lon="12.0056005"><ele>369.3333333333333</ele><time>2026-04-29T12:15:29.707Z</time></trkpt><trkpt lat="43.4532857" lon="12.0053802"><ele>367.0</ele><time>2026-04-29T12:15:30.711Z</time></trkpt><trkpt lat="43.4534151" lon="12.0051593"><ele>364.66666666666663</ele><time>2026-04-29T12:15:31.699Z</time></trkpt><trkpt lat="43.4535416" lon="12.0049499"><ele>362.3333333333333</ele><time>2026-04-29T12:15:32.713Z</time></trkpt><trkpt lat="43.4536457" lon="12.0047218"><ele>360.0</ele><time>2026-04-29T12:15:33.738Z</time></trkpt><trkpt lat="43.4537057" lon="12.0044934"><ele>360.0</ele><time>2026-04-29T12:15:34.706Z</time></trkpt><trkpt lat="43.453723" lon="12.0042573"><ele>360.0</ele><time>2026-04-29T12:15:35.711Z</time></trkpt><trkpt lat="43.4536945" lon="12.0040227"><ele>360.0</ele><time>2026-04-29T12:15:36.711Z</time></trkpt><trkpt lat="43.4536225" lon="12.0038118"><ele>363.6666666666667</ele><time>2026-04-29T12:15:37.715Z</time></trkpt><trkpt lat="43.4535114" lon="12.0036152"><ele>367.33333333333337</ele><time>2026-04-29T12:15:38.714Z</time></trkpt><trkpt lat="43.4533739" lon="12.0034172"><ele>371.0</ele><time>2026-04-29T12:15:39.715Z</time></trkpt><trkpt lat="43.4532275" lon="12.0032107"><ele>371.6666666666667</ele><time>2026-04-29T12:15:40.719Z</time></trkpt><trkpt lat="43.4530925" lon="12.0029968"><ele>372.3333333333333</ele><time>2026-04-29T12:15:41.701Z</time></trkpt><trkpt lat="43.4529769" lon="12.0027529"><ele>373.0</ele><time>2026-04-29T12:15:42.716Z</time></trkpt><trkpt lat="43.4528831" lon="12.0024892"><ele>373.0</ele><time>2026-04-29T12:15:43.722Z</time></trkpt><trkpt lat="43.4527923" lon="12.0022245"><ele>373.0</ele><time>2026-04-29T12:15:44.706Z</time></trkpt><trkpt lat="43.4526885" lon="12.0019516"><ele>373.0</ele><time>2026-04-29T12:15:45.717Z</time></trkpt><trkpt lat="43.4525645" lon="12.0016904"><ele>387.0</ele><time>2026-04-29T12:15:46.718Z</time></trkpt><trkpt lat="43.4524233" lon="12.0014356"><ele>401.0</ele><time>2026-04-29T12:15:47.724Z</time></trkpt><trkpt lat="43.4522747" lon="12.0011829"><ele>401.0</ele><time>2026-04-29T12:15:48.731Z</time></trkpt><trkpt lat="43.4521255" lon="12.0009338"><ele>401.0</ele><time>2026-04-29T12:15:49.725Z</time></trkpt><trkpt lat="43.4519823" lon="12.0006933"><ele>396.0</ele><time>2026-04-29T12:15:50.705Z</time></trkpt><trkpt lat="43.4518437" lon="12.0004634"><ele>391.0</ele><time>2026-04-29T12:15:51.706Z</time></trkpt><trkpt lat="43.4516965" lon="12.0002587"><ele>386.0</ele><time>2026-04-29T12:15:52.712Z</time></trkpt><trkpt lat="43.4515321" lon="12.0000737"><ele>386.0</ele><time>2026-04-29T12:15:53.724Z</time></trkpt><trkpt lat="43.4513626" lon="11.9999074"><ele>386.0</ele><time>2026-04-29T12:15:54.72Z</time></trkpt><trkpt lat="43.4511859" lon="11.999762"><ele>386.0</ele><time>2026-04-29T12:15:55.718Z</time></trkpt><trkpt lat="43.4510079" lon="11.9996585"><ele>382.66666666666663</ele><time>2026-04-29T12:15:56.711Z</time></trkpt><trkpt lat="43.450828" lon="11.9996045"><ele>379.3333333333333</ele><time>2026-04-29T12:15:57.707Z</time></trkpt><trkpt lat="43.450641" lon="11.9996011"><ele>376.0</ele><time>2026-04-29T12:15:58.724Z</time></trkpt><trkpt lat="43.4504561" lon="11.9996462"><ele>376.0</ele><time>2026-04-29T12:15:59.719Z</time></trkpt><trkpt lat="43.4502713" lon="11.9997322"><ele>376.0</ele><time>2026-04-29T12:16:00.726Z</time></trkpt><trkpt lat="43.4500982" lon="11.9998341"><ele>376.0</ele><time>2026-04-29T12:16:01.726Z</time></trkpt><trkpt lat="43.4499577" lon="11.9999224"><ele>376.0</ele><time>2026-04-29T12:16:02.717Z</time></trkpt><trkpt lat="43.449808" lon="11.9999887"><ele>376.0</ele><time>2026-04-29T12:16:03.733Z</time></trkpt><trkpt lat="43.4496543" lon="11.9999718"><ele>376.0</ele><time>2026-04-29T12:16:04.711Z</time></trkpt><trkpt lat="43.449485" lon="11.9998489"><ele>375.0</ele><time>2026-04-29T12:16:05.716Z</time></trkpt><trkpt lat="43.4493291" lon="11.9997036"><ele>374.0</ele><time>2026-04-29T12:16:06.728Z</time></trkpt><trkpt lat="43.4491901" lon="11.9995285"><ele>373.0</ele><time>2026-04-29T12:16:07.739Z</time></trkpt><trkpt lat="43.4490818" lon="11.9993288"><ele>377.3333333333333</ele><time>2026-04-29T12:16:08.709Z</time></trkpt><trkpt lat="43.4490157" lon="11.999098"><ele>381.66666666666663</ele><time>2026-04-29T12:16:09.709Z</time></trkpt><trkpt lat="43.4489827" lon="11.9988371"><ele>386.0</ele><time>2026-04-29T12:16:10.717Z</time></trkpt><trkpt lat="43.4489825" lon="11.9985753"><ele>387.3333333333333</ele><time>2026-04-29T12:16:11.725Z</time></trkpt><trkpt lat="43.4490043" lon="11.9982884"><ele>388.66666666666663</ele><time>2026-04-29T12:16:12.709Z</time></trkpt><trkpt lat="43.4490288" lon="11.9980106"><ele>390.0</ele><time>2026-04-29T12:16:13.707Z</time></trkpt><trkpt lat="43.4490607" lon="11.9976656"><ele>389.0</ele><time>2026-04-29T12:16:14.732Z</time></trkpt><trkpt lat="43.4490804" lon="11.9973282"><ele>388.0</ele><time>2026-04-29T12:16:15.703Z</time></trkpt><trkpt lat="43.4490987" lon="11.9970071"><ele>388.0</ele><time>2026-04-29T12:16:16.699Z</time></trkpt><trkpt lat="43.4491051" lon="11.9966975"><ele>388.0</ele><time>2026-04-29T12:16:17.702Z</time></trkpt><trkpt lat="43.4490756" lon="11.9963939"><ele>388.0</ele><time>2026-04-29T12:16:18.709Z</time></trkpt><trkpt lat="43.4490142" lon="11.9960871"><ele>396.0</ele><time>2026-04-29T12:16:19.706Z</time></trkpt><trkpt lat="43.4489208" lon="11.9957712"><ele>404.0</ele><time>2026-04-29T12:16:20.714Z</time></trkpt><trkpt lat="43.4488175" lon="11.9954525"><ele>393.5</ele><time>2026-04-29T12:16:21.721Z</time></trkpt><trkpt lat="43.4487119" lon="11.995138"><ele>383.0</ele><time>2026-04-29T12:16:22.709Z</time></trkpt><trkpt lat="43.4485966" lon="11.9948371"><ele>383.0</ele><time>2026-04-29T12:16:23.708Z</time></trkpt><trkpt lat="43.4484589" lon="11.9945591"><ele>383.0</ele><time>2026-04-29T12:16:24.719Z</time></trkpt><trkpt lat="43.448312" lon="11.9943206"><ele>382.0</ele><time>2026-04-29T12:16:25.715Z</time></trkpt><trkpt lat="43.4481636" lon="11.9941008"><ele>381.0</ele><time>2026-04-29T12:16:26.726Z</time></trkpt><trkpt lat="43.4480423" lon="11.993882"><ele>380.0</ele><time>2026-04-29T12:16:27.707Z</time></trkpt><trkpt lat="43.4479592" lon="11.9936623"><ele>380.0</ele><time>2026-04-29T12:16:28.713Z</time></trkpt><trkpt lat="43.4478992" lon="11.9934225"><ele>380.0</ele><time>2026-04-29T12:16:29.716Z</time></trkpt><trkpt lat="43.447831" lon="11.9931891"><ele>380.0</ele><time>2026-04-29T12:16:30.702Z</time></trkpt><trkpt lat="43.4477245" lon="11.9929615"><ele>381.0</ele><time>2026-04-29T12:16:31.708Z</time></trkpt><trkpt lat="43.4475859" lon="11.9927832"><ele>382.0</ele><time>2026-04-29T12:16:32.726Z</time></trkpt><trkpt lat="43.4473874" lon="11.9926553"><ele>383.0</ele><time>2026-04-29T12:16:33.727Z</time></trkpt><trkpt lat="43.4472717" lon="11.9927073"><ele>385.0</ele><time>2026-04-29T12:16:34.722Z</time></trkpt><trkpt lat="43.4470884" lon="11.9927551"><ele>387.0</ele><time>2026-04-29T12:16:35.722Z</time></trkpt><trkpt lat="43.4469242" lon="11.9928657"><ele>389.0</ele><time>2026-04-29T12:16:36.714Z</time></trkpt><trkpt lat="43.4467442" lon="11.9930192"><ele>389.0</ele><time>2026-04-29T12:16:37.722Z</time></trkpt><trkpt lat="43.4466185" lon="11.9931786"><ele>389.0</ele><time>2026-04-29T12:16:38.722Z</time></trkpt><trkpt lat="43.4465071" lon="11.9933481"><ele>389.0</ele><time>2026-04-29T12:16:39.724Z</time></trkpt><trkpt lat="43.4464397" lon="11.993529"><ele>387.66666666666663</ele><time>2026-04-29T12:16:40.72Z</time></trkpt><trkpt lat="43.4463336" lon="11.9936852"><ele>386.33333333333337</ele><time>2026-04-29T12:16:41.706Z</time></trkpt><trkpt lat="43.4462472" lon="11.9937965"><ele>385.0</ele><time>2026-04-29T12:16:42.703Z</time></trkpt><trkpt lat="43.4460155" lon="11.9936432"><ele>384.6666666666667</ele><time>2026-04-29T12:16:46.721Z</time></trkpt><trkpt lat="43.4459768" lon="11.993449"><ele>384.33333333333337</ele><time>2026-04-29T12:16:47.71Z</time></trkpt><trkpt lat="43.4459321" lon="11.9932153"><ele>384.0</ele><time>2026-04-29T12:16:48.724Z</time></trkpt><trkpt lat="43.4458673" lon="11.9929656"><ele>384.0</ele><time>2026-04-29T12:16:49.707Z</time></trkpt><trkpt lat="43.4457632" lon="11.9926845"><ele>384.0</ele><time>2026-04-29T12:16:50.712Z</time></trkpt><trkpt lat="43.4456345" lon="11.9923935"><ele>381.5</ele><time>2026-04-29T12:16:51.709Z</time></trkpt><trkpt lat="43.4454874" lon="11.9921074"><ele>379.0</ele><time>2026-04-29T12:16:52.722Z</time></trkpt><trkpt lat="43.4453568" lon="11.9918248"><ele>382.66666666666663</ele><time>2026-04-29T12:16:53.716Z</time></trkpt><trkpt lat="43.4452281" lon="11.9915781"><ele>386.3333333333333</ele><time>2026-04-29T12:16:54.71Z</time></trkpt><trkpt lat="43.4450812" lon="11.9914737"><ele>390.0</ele><time>2026-04-29T12:16:55.704Z</time></trkpt><trkpt lat="43.4449128" lon="11.9913647"><ele>390.0</ele><time>2026-04-29T12:16:56.727Z</time></trkpt><trkpt lat="43.4447715" lon="11.9913436"><ele>390.0</ele><time>2026-04-29T12:16:57.699Z</time></trkpt><trkpt lat="43.4445754" lon="11.991315"><ele>390.0</ele><time>2026-04-29T12:16:58.737Z</time></trkpt><trkpt lat="43.4443824" lon="11.9913025"><ele>386.3333333333333</ele><time>2026-04-29T12:16:59.707Z</time></trkpt><trkpt lat="43.4441917" lon="11.9912618"><ele>382.66666666666663</ele><time>2026-04-29T12:17:00.718Z</time></trkpt><trkpt lat="43.4440203" lon="11.9911861"><ele>379.0</ele><time>2026-04-29T12:17:01.709Z</time></trkpt><trkpt lat="43.4438278" lon="11.9910593"><ele>381.0</ele><time>2026-04-29T12:17:02.709Z</time></trkpt><trkpt lat="43.4436225" lon="11.9908916"><ele>383.0</ele><time>2026-04-29T12:17:03.727Z</time></trkpt><trkpt lat="43.4434046" lon="11.9906655"><ele>383.0</ele><time>2026-04-29T12:17:04.708Z</time></trkpt><trkpt lat="43.4432359" lon="11.9904403"><ele>383.0</ele><time>2026-04-29T12:17:05.703Z</time></trkpt><trkpt lat="43.443074" lon="11.9901965"><ele>384.33333333333337</ele><time>2026-04-29T12:17:06.713Z</time></trkpt><trkpt lat="43.4429249" lon="11.9899619"><ele>385.6666666666667</ele><time>2026-04-29T12:17:07.721Z</time></trkpt><trkpt lat="43.442785" lon="11.9897356"><ele>387.0</ele><time>2026-04-29T12:17:08.734Z</time></trkpt><trkpt lat="43.4426686" lon="11.9895181"><ele>387.0</ele><time>2026-04-29T12:17:09.717Z</time></trkpt><trkpt lat="43.4425807" lon="11.9892822"><ele>387.0</ele><time>2026-04-29T12:17:10.715Z</time></trkpt><trkpt lat="43.4425163" lon="11.9890177"><ele>387.0</ele><time>2026-04-29T12:17:11.725Z</time></trkpt><trkpt lat="43.4424638" lon="11.9887433"><ele>387.0</ele><time>2026-04-29T12:17:12.725Z</time></trkpt><trkpt lat="43.4424123" lon="11.9884548"><ele>387.0</ele><time>2026-04-29T12:17:13.719Z</time></trkpt><trkpt lat="43.4423554" lon="11.9881574"><ele>387.0</ele><time>2026-04-29T12:17:14.708Z</time></trkpt><trkpt lat="43.4422938" lon="11.9878503"><ele>390.0</ele><time>2026-04-29T12:17:15.699Z</time></trkpt><trkpt lat="43.4422292" lon="11.9875429"><ele>393.0</ele><time>2026-04-29T12:17:16.701Z</time></trkpt><trkpt lat="43.442162" lon="11.9872373"><ele>391.5</ele><time>2026-04-29T12:17:17.724Z</time></trkpt><trkpt lat="43.4420893" lon="11.9869393"><ele>390.0</ele><time>2026-04-29T12:17:18.716Z</time></trkpt><trkpt lat="43.4420106" lon="11.9866432"><ele>389.0</ele><time>2026-04-29T12:17:19.716Z</time></trkpt><trkpt lat="43.4419301" lon="11.9863437"><ele>388.0</ele><time>2026-04-29T12:17:20.718Z</time></trkpt><trkpt lat="43.441851" lon="11.9860449"><ele>389.5</ele><time>2026-04-29T12:17:21.713Z</time></trkpt><trkpt lat="43.4417738" lon="11.9857461"><ele>391.0</ele><time>2026-04-29T12:17:22.707Z</time></trkpt><trkpt lat="43.4416922" lon="11.9854415"><ele>391.0</ele><time>2026-04-29T12:17:23.721Z</time></trkpt><trkpt lat="43.4416105" lon="11.9851428"><ele>391.0</ele><time>2026-04-29T12:17:24.717Z</time></trkpt><trkpt lat="43.4415269" lon="11.9848381"><ele>393.0</ele><time>2026-04-29T12:17:25.737Z</time></trkpt><trkpt lat="43.441446" lon="11.9845387"><ele>395.0</ele><time>2026-04-29T12:17:26.732Z</time></trkpt><trkpt lat="43.4413663" lon="11.9842429"><ele>396.0</ele><time>2026-04-29T12:17:27.719Z</time></trkpt><trkpt lat="43.4412869" lon="11.9839423"><ele>397.0</ele><time>2026-04-29T12:17:28.717Z</time></trkpt><trkpt lat="43.4412104" lon="11.9836526"><ele>397.0</ele><time>2026-04-29T12:17:29.715Z</time></trkpt><trkpt lat="43.4411406" lon="11.9833729"><ele>397.0</ele><time>2026-04-29T12:17:30.704Z</time></trkpt><trkpt lat="43.4410739" lon="11.9830845"><ele>397.0</ele><time>2026-04-29T12:17:31.715Z</time></trkpt><trkpt lat="43.4410198" lon="11.9828035"><ele>396.0</ele><time>2026-04-29T12:17:32.723Z</time></trkpt><trkpt lat="43.4409819" lon="11.982531"><ele>395.0</ele><time>2026-04-29T12:17:33.72Z</time></trkpt><trkpt lat="43.4409562" lon="11.9822659"><ele>394.0</ele><time>2026-04-29T12:17:34.71Z</time></trkpt><trkpt lat="43.4409369" lon="11.9820044"><ele>394.0</ele><time>2026-04-29T12:17:35.729Z</time></trkpt><trkpt lat="43.4409258" lon="11.9817607"><ele>394.0</ele><time>2026-04-29T12:17:36.752Z</time></trkpt><trkpt lat="43.4409258" lon="11.9815442"><ele>394.0</ele><time>2026-04-29T12:17:37.742Z</time></trkpt><trkpt lat="43.4409391" lon="11.9813459"><ele>393.5</ele><time>2026-04-29T12:17:38.715Z</time></trkpt><trkpt lat="43.4409686" lon="11.9811513"><ele>393.0</ele><time>2026-04-29T12:17:39.706Z</time></trkpt><trkpt lat="43.4410065" lon="11.9809586"><ele>392.5</ele><time>2026-04-29T12:17:40.721Z</time></trkpt><trkpt lat="43.441057" lon="11.980755"><ele>392.0</ele><time>2026-04-29T12:17:41.718Z</time></trkpt><trkpt lat="43.441103" lon="11.9805533"><ele>391.66666666666663</ele><time>2026-04-29T12:17:42.709Z</time></trkpt><trkpt lat="43.44112" lon="11.9803332"><ele>391.33333333333337</ele><time>2026-04-29T12:17:43.72Z</time></trkpt><trkpt lat="43.4411371" lon="11.9801189"><ele>391.0</ele><time>2026-04-29T12:17:44.712Z</time></trkpt><trkpt lat="43.4411287" lon="11.979926"><ele>391.0</ele><time>2026-04-29T12:17:45.709Z</time></trkpt><trkpt lat="43.4411145" lon="11.979719"><ele>391.0</ele><time>2026-04-29T12:17:46.714Z</time></trkpt><trkpt lat="43.4410909" lon="11.9795157"><ele>391.0</ele><time>2026-04-29T12:17:47.715Z</time></trkpt><trkpt lat="43.44106" lon="11.9793078"><ele>392.5</ele><time>2026-04-29T12:17:48.722Z</time></trkpt><trkpt lat="43.4410173" lon="11.9791127"><ele>394.0</ele><time>2026-04-29T12:17:49.709Z</time></trkpt><trkpt lat="43.4409665" lon="11.9789225"><ele>395.5</ele><time>2026-04-29T12:17:50.718Z</time></trkpt><trkpt lat="43.4408968" lon="11.9787412"><ele>397.0</ele><time>2026-04-29T12:17:51.708Z</time></trkpt><trkpt lat="43.4408088" lon="11.9785636"><ele>397.0</ele><time>2026-04-29T12:17:52.723Z</time></trkpt><trkpt lat="43.440708" lon="11.9783968"><ele>397.0</ele><time>2026-04-29T12:17:53.735Z</time></trkpt><trkpt lat="43.4406047" lon="11.978254"><ele>397.0</ele><time>2026-04-29T12:17:54.717Z</time></trkpt><trkpt lat="43.4404922" lon="11.9781293"><ele>397.0</ele><time>2026-04-29T12:17:55.724Z</time></trkpt><trkpt lat="43.4403669" lon="11.9780218"><ele>396.25</ele><time>2026-04-29T12:17:56.729Z</time></trkpt><trkpt lat="43.440232" lon="11.9779275"><ele>395.5</ele><time>2026-04-29T12:17:57.727Z</time></trkpt><trkpt lat="43.4400929" lon="11.9778515"><ele>394.75</ele><time>2026-04-29T12:17:58.708Z</time></trkpt><trkpt lat="43.4399506" lon="11.9777944"><ele>394.0</ele><time>2026-04-29T12:17:59.711Z</time></trkpt><trkpt lat="43.4398033" lon="11.9777603"><ele>394.0</ele><time>2026-04-29T12:18:00.715Z</time></trkpt><trkpt lat="43.4396487" lon="11.9777459"><ele>394.0</ele><time>2026-04-29T12:18:01.732Z</time></trkpt><trkpt lat="43.4394959" lon="11.9777455"><ele>394.0</ele><time>2026-04-29T12:18:02.717Z</time></trkpt><trkpt lat="43.4393499" lon="11.9777494"><ele>393.75</ele><time>2026-04-29T12:18:03.712Z</time></trkpt><trkpt lat="43.439208" lon="11.9777551"><ele>393.5</ele><time>2026-04-29T12:18:04.722Z</time></trkpt><trkpt lat="43.4390661" lon="11.9777744"><ele>393.25</ele><time>2026-04-29T12:18:05.737Z</time></trkpt><trkpt lat="43.4389347" lon="11.9778132"><ele>393.0</ele><time>2026-04-29T12:18:06.702Z</time></trkpt><trkpt lat="43.4388084" lon="11.9778788"><ele>393.25</ele><time>2026-04-29T12:18:07.726Z</time></trkpt><trkpt lat="43.4386827" lon="11.9779281"><ele>393.5</ele><time>2026-04-29T12:18:08.75Z</time></trkpt><trkpt lat="43.4385613" lon="11.9779622"><ele>393.75</ele><time>2026-04-29T12:18:09.727Z</time></trkpt><trkpt lat="43.4384392" lon="11.9779725"><ele>394.0</ele><time>2026-04-29T12:18:10.714Z</time></trkpt><trkpt lat="43.4383063" lon="11.9779703"><ele>394.0</ele><time>2026-04-29T12:18:11.708Z</time></trkpt><trkpt lat="43.4381515" lon="11.9779457"><ele>394.0</ele><time>2026-04-29T12:18:12.718Z</time></trkpt><trkpt lat="43.4380097" lon="11.9779003"><ele>394.0</ele><time>2026-04-29T12:18:13.72Z</time></trkpt><trkpt lat="43.4378356" lon="11.9778379"><ele>394.6666666666667</ele><time>2026-04-29T12:18:14.719Z</time></trkpt><trkpt lat="43.4376286" lon="11.9777294"><ele>395.33333333333337</ele><time>2026-04-29T12:18:15.743Z</time></trkpt><trkpt lat="43.4374625" lon="11.9776509"><ele>396.0</ele><time>2026-04-29T12:18:16.718Z</time></trkpt><trkpt lat="43.4372955" lon="11.9775881"><ele>399.0</ele><time>2026-04-29T12:18:17.721Z</time></trkpt><trkpt lat="43.4371341" lon="11.9775514"><ele>402.0</ele><time>2026-04-29T12:18:18.717Z</time></trkpt><trkpt lat="43.4369775" lon="11.9775507"><ele>405.0</ele><time>2026-04-29T12:18:19.717Z</time></trkpt><trkpt lat="43.4368139" lon="11.9775825"><ele>405.0</ele><time>2026-04-29T12:18:20.732Z</time></trkpt><trkpt lat="43.4366626" lon="11.9776399"><ele>405.0</ele><time>2026-04-29T12:18:21.724Z</time></trkpt><trkpt lat="43.4365213" lon="11.9777291"><ele>405.0</ele><time>2026-04-29T12:18:22.713Z</time></trkpt><trkpt lat="43.4363865" lon="11.9778492"><ele>405.33333333333337</ele><time>2026-04-29T12:18:23.731Z</time></trkpt><trkpt lat="43.4362724" lon="11.9779928"><ele>405.6666666666667</ele><time>2026-04-29T12:18:24.73Z</time></trkpt><trkpt lat="43.4361716" lon="11.9781756"><ele>406.0</ele><time>2026-04-29T12:18:25.718Z</time></trkpt><trkpt lat="43.4360789" lon="11.9784193"><ele>406.0</ele><time>2026-04-29T12:18:26.733Z</time></trkpt><trkpt lat="43.4359844" lon="11.9786909"><ele>406.0</ele><time>2026-04-29T12:18:27.714Z</time></trkpt><trkpt lat="43.4358897" lon="11.9789578"><ele>406.0</ele><time>2026-04-29T12:18:28.71Z</time></trkpt><trkpt lat="43.4357937" lon="11.9792146"><ele>404.33333333333337</ele><time>2026-04-29T12:18:29.736Z</time></trkpt><trkpt lat="43.4357004" lon="11.9794512"><ele>402.66666666666663</ele><time>2026-04-29T12:18:30.752Z</time></trkpt><trkpt lat="43.4355879" lon="11.9796512"><ele>401.0</ele><time>2026-04-29T12:18:31.73Z</time></trkpt><trkpt lat="43.4354376" lon="11.9798242"><ele>401.0</ele><time>2026-04-29T12:18:32.738Z</time></trkpt><trkpt lat="43.4352637" lon="11.979954"><ele>401.0</ele><time>2026-04-29T12:18:33.732Z</time></trkpt><trkpt lat="43.4350737" lon="11.9800251"><ele>401.0</ele><time>2026-04-29T12:18:34.722Z</time></trkpt><trkpt lat="43.4348669" lon="11.9800347"><ele>401.0</ele><time>2026-04-29T12:18:35.711Z</time></trkpt><trkpt lat="43.4346383" lon="11.9799971"><ele>401.0</ele><time>2026-04-29T12:18:36.735Z</time></trkpt><trkpt lat="43.4344054" lon="11.979954"><ele>402.5</ele><time>2026-04-29T12:18:37.737Z</time></trkpt><trkpt lat="43.4341679" lon="11.9799159"><ele>404.0</ele><time>2026-04-29T12:18:38.727Z</time></trkpt><trkpt lat="43.4339202" lon="11.9798773"><ele>406.0</ele><time>2026-04-29T12:18:39.765Z</time></trkpt><trkpt lat="43.4336904" lon="11.9798395"><ele>408.0</ele><time>2026-04-29T12:18:40.723Z</time></trkpt><trkpt lat="43.4334534" lon="11.9798009"><ele>408.0</ele><time>2026-04-29T12:18:41.712Z</time></trkpt><trkpt lat="43.4332098" lon="11.9797607"><ele>408.0</ele><time>2026-04-29T12:18:42.721Z</time></trkpt><trkpt lat="43.4329641" lon="11.9797176"><ele>414.0</ele><time>2026-04-29T12:18:43.738Z</time></trkpt><trkpt lat="43.4327282" lon="11.9796773"><ele>420.0</ele><time>2026-04-29T12:18:44.715Z</time></trkpt><trkpt lat="43.4324875" lon="11.979634"><ele>420.0</ele><time>2026-04-29T12:18:45.715Z</time></trkpt><trkpt lat="43.4322424" lon="11.9795926"><ele>420.0</ele><time>2026-04-29T12:18:46.731Z</time></trkpt><trkpt lat="43.4320049" lon="11.9795538"><ele>418.0</ele><time>2026-04-29T12:18:47.715Z</time></trkpt><trkpt lat="43.4317584" lon="11.9795153"><ele>416.0</ele><time>2026-04-29T12:18:48.735Z</time></trkpt><trkpt lat="43.4315199" lon="11.9794759"><ele>410.5</ele><time>2026-04-29T12:18:49.721Z</time></trkpt><trkpt lat="43.4312798" lon="11.979433"><ele>405.0</ele><time>2026-04-29T12:18:50.714Z</time></trkpt><trkpt lat="43.4310379" lon="11.9793881"><ele>405.0</ele><time>2026-04-29T12:18:51.713Z</time></trkpt><trkpt lat="43.43079" lon="11.9793442"><ele>405.0</ele><time>2026-04-29T12:18:52.733Z</time></trkpt><trkpt lat="43.4305466" lon="11.9793003"><ele>407.5</ele><time>2026-04-29T12:18:53.731Z</time></trkpt><trkpt lat="43.4303064" lon="11.9792537"><ele>410.0</ele><time>2026-04-29T12:18:54.72Z</time></trkpt><trkpt lat="43.4300625" lon="11.9792011"><ele>407.5</ele><time>2026-04-29T12:18:55.723Z</time></trkpt><trkpt lat="43.4298234" lon="11.9791481"><ele>405.0</ele><time>2026-04-29T12:18:56.711Z</time></trkpt><trkpt lat="43.4295814" lon="11.9790992"><ele>405.0</ele><time>2026-04-29T12:18:57.712Z</time></trkpt><trkpt lat="43.4293402" lon="11.9790527"><ele>405.0</ele><time>2026-04-29T12:18:58.712Z</time></trkpt><trkpt lat="43.4291102" lon="11.9790089"><ele>405.0</ele><time>2026-04-29T12:18:59.672Z</time></trkpt><trkpt lat="43.4288805" lon="11.978955"><ele>405.0</ele><time>2026-04-29T12:19:00.663Z</time></trkpt><trkpt lat="43.4286579" lon="11.9788808"><ele>404.0</ele><time>2026-04-29T12:19:01.654Z</time></trkpt><trkpt lat="43.4284326" lon="11.9787831"><ele>403.0</ele><time>2026-04-29T12:19:02.666Z</time></trkpt><trkpt lat="43.42821" lon="11.9786601"><ele>403.0</ele><time>2026-04-29T12:19:03.656Z</time></trkpt><trkpt lat="43.4279875" lon="11.9785123"><ele>403.0</ele><time>2026-04-29T12:19:04.646Z</time></trkpt><trkpt lat="43.4277653" lon="11.9783461"><ele>404.0</ele><time>2026-04-29T12:19:05.656Z</time></trkpt><trkpt lat="43.4275568" lon="11.9781642"><ele>405.0</ele><time>2026-04-29T12:19:06.669Z</time></trkpt><trkpt lat="43.4273633" lon="11.9779746"><ele>405.0</ele><time>2026-04-29T12:19:07.657Z</time></trkpt><trkpt lat="43.4271803" lon="11.9777694"><ele>405.0</ele><time>2026-04-29T12:19:08.659Z</time></trkpt><trkpt lat="43.4269955" lon="11.9775558"><ele>405.5</ele><time>2026-04-29T12:19:09.651Z</time></trkpt><trkpt lat="43.4267964" lon="11.9773444"><ele>406.0</ele><time>2026-04-29T12:19:10.664Z</time></trkpt><trkpt lat="43.4265807" lon="11.9771483"><ele>406.0</ele><time>2026-04-29T12:19:11.664Z</time></trkpt><trkpt lat="43.4263525" lon="11.9769944"><ele>406.0</ele><time>2026-04-29T12:19:12.661Z</time></trkpt><trkpt lat="43.426094" lon="11.9768677"><ele>407.5</ele><time>2026-04-29T12:19:13.678Z</time></trkpt><trkpt lat="43.425861" lon="11.9767915"><ele>409.0</ele><time>2026-04-29T12:19:14.693Z</time></trkpt><trkpt lat="43.4256459" lon="11.9767332"><ele>408.33333333333337</ele><time>2026-04-29T12:19:15.662Z</time></trkpt><trkpt lat="43.4254397" lon="11.9766745"><ele>407.66666666666663</ele><time>2026-04-29T12:19:16.663Z</time></trkpt><trkpt lat="43.425217" lon="11.9766113"><ele>407.0</ele><time>2026-04-29T12:19:17.668Z</time></trkpt><trkpt lat="43.4249979" lon="11.9765527"><ele>407.0</ele><time>2026-04-29T12:19:18.667Z</time></trkpt><trkpt lat="43.4247765" lon="11.9765121"><ele>407.0</ele><time>2026-04-29T12:19:19.657Z</time></trkpt><trkpt lat="43.4245413" lon="11.9765007"><ele>406.66666666666663</ele><time>2026-04-29T12:19:20.681Z</time></trkpt><trkpt lat="43.4243164" lon="11.9765207"><ele>406.33333333333337</ele><time>2026-04-29T12:19:21.67Z</time></trkpt><trkpt lat="43.4240977" lon="11.9765554"><ele>406.0</ele><time>2026-04-29T12:19:22.657Z</time></trkpt><trkpt lat="43.4238856" lon="11.9765946"><ele>405.0</ele><time>2026-04-29T12:19:23.66Z</time></trkpt><trkpt lat="43.4236872" lon="11.9766294"><ele>404.0</ele><time>2026-04-29T12:19:24.674Z</time></trkpt><trkpt lat="43.4235046" lon="11.9766654"><ele>403.0</ele><time>2026-04-29T12:19:25.677Z</time></trkpt><trkpt lat="43.4233188" lon="11.976697"><ele>402.6666666666667</ele><time>2026-04-29T12:19:26.677Z</time></trkpt><trkpt lat="43.4231448" lon="11.9767243"><ele>402.33333333333337</ele><time>2026-04-29T12:19:27.67Z</time></trkpt><trkpt lat="43.4229645" lon="11.9767564"><ele>402.0</ele><time>2026-04-29T12:19:28.678Z</time></trkpt><trkpt lat="43.4227965" lon="11.9767927"><ele>403.0</ele><time>2026-04-29T12:19:29.666Z</time></trkpt><trkpt lat="43.4226286" lon="11.9768261"><ele>404.0</ele><time>2026-04-29T12:19:30.687Z</time></trkpt><trkpt lat="43.4225592" lon="11.9768376"><ele>405.0</ele><time>2026-04-29T12:19:31.679Z</time></trkpt><trkpt lat="43.4221712" lon="11.9764158"><ele>404.33333333333337</ele><time>2026-04-29T12:19:35.719Z</time></trkpt><trkpt lat="43.4221264" lon="11.9762319"><ele>403.6666666666667</ele><time>2026-04-29T12:19:36.706Z</time></trkpt><trkpt lat="43.4220883" lon="11.9760352"><ele>403.0</ele><time>2026-04-29T12:19:37.725Z</time></trkpt><trkpt lat="43.4220415" lon="11.9758181"><ele>402.6666666666667</ele><time>2026-04-29T12:19:38.707Z</time></trkpt><trkpt lat="43.4219881" lon="11.9755864"><ele>402.33333333333337</ele><time>2026-04-29T12:19:39.717Z</time></trkpt><trkpt lat="43.4219346" lon="11.9753582"><ele>402.0</ele><time>2026-04-29T12:19:40.735Z</time></trkpt><trkpt lat="43.4218888" lon="11.9751504"><ele>402.5</ele><time>2026-04-29T12:19:41.729Z</time></trkpt><trkpt lat="43.4218465" lon="11.9749571"><ele>403.0</ele><time>2026-04-29T12:19:42.713Z</time></trkpt><trkpt lat="43.4218083" lon="11.9747777"><ele>403.5</ele><time>2026-04-29T12:19:43.659Z</time></trkpt><trkpt lat="43.4217739" lon="11.9745998"><ele>404.0</ele><time>2026-04-29T12:19:44.699Z</time></trkpt><trkpt lat="43.4217419" lon="11.9744478"><ele>404.0</ele><time>2026-04-29T12:19:45.668Z</time></trkpt><trkpt lat="43.4217201" lon="11.9743061"><ele>404.0</ele><time>2026-04-29T12:19:46.662Z</time></trkpt><trkpt lat="43.4217011" lon="11.9741749"><ele>404.0</ele><time>2026-04-29T12:19:47.659Z</time></trkpt><trkpt lat="43.4216801" lon="11.9740892"><ele>404.0</ele><time>2026-04-29T12:19:48.659Z</time></trkpt><trkpt lat="43.4216593" lon="11.9739524"><ele>404.0</ele><time>2026-04-29T12:19:49.668Z</time></trkpt><trkpt lat="43.4216417" lon="11.9738092"><ele>404.5</ele><time>2026-04-29T12:19:50.657Z</time></trkpt><trkpt lat="43.4216232" lon="11.9736381"><ele>405.0</ele><time>2026-04-29T12:19:51.652Z</time></trkpt><trkpt lat="43.4216011" lon="11.9734446"><ele>405.5</ele><time>2026-04-29T12:19:52.658Z</time></trkpt><trkpt lat="43.421574" lon="11.973227"><ele>406.0</ele><time>2026-04-29T12:19:53.991Z</time></trkpt><trkpt lat="43.4215355" lon="11.9725639"><ele>406.5</ele><time>2026-04-29T12:19:55.728Z</time></trkpt><trkpt lat="43.4215155" lon="11.9722503"><ele>407.0</ele><time>2026-04-29T12:19:56.725Z</time></trkpt><trkpt lat="43.4214997" lon="11.9719427"><ele>407.3333333333333</ele><time>2026-04-29T12:19:57.736Z</time></trkpt><trkpt lat="43.4214905" lon="11.9716529"><ele>407.66666666666663</ele><time>2026-04-29T12:19:58.736Z</time></trkpt><trkpt lat="43.4214974" lon="11.9713958"><ele>408.0</ele><time>2026-04-29T12:19:59.724Z</time></trkpt><trkpt lat="43.4215346" lon="11.9711572"><ele>408.0</ele><time>2026-04-29T12:20:00.759Z</time></trkpt><trkpt lat="43.4216019" lon="11.9709342"><ele>408.0</ele><time>2026-04-29T12:20:01.731Z</time></trkpt><trkpt lat="43.4217071" lon="11.9706485"><ele>408.0</ele><time>2026-04-29T12:20:02.721Z</time></trkpt><trkpt lat="43.4218084" lon="11.9703699"><ele>409.0</ele><time>2026-04-29T12:20:03.724Z</time></trkpt><trkpt lat="43.4219039" lon="11.9701276"><ele>410.0</ele><time>2026-04-29T12:20:04.717Z</time></trkpt><trkpt lat="43.4219772" lon="11.9698946"><ele>411.0</ele><time>2026-04-29T12:20:05.719Z</time></trkpt><trkpt lat="43.4220296" lon="11.9696354"><ele>412.66666666666663</ele><time>2026-04-29T12:20:06.729Z</time></trkpt><trkpt lat="43.4220546" lon="11.9693685"><ele>414.3333333333333</ele><time>2026-04-29T12:20:07.725Z</time></trkpt><trkpt lat="43.4220471" lon="11.9691209"><ele>416.0</ele><time>2026-04-29T12:20:08.726Z</time></trkpt><trkpt lat="43.4220327" lon="11.9688273"><ele>417.66666666666663</ele><time>2026-04-29T12:20:09.759Z</time></trkpt><trkpt lat="43.4220153" lon="11.9685461"><ele>419.33333333333337</ele><time>2026-04-29T12:20:10.712Z</time></trkpt><trkpt lat="43.4219983" lon="11.9682335"><ele>421.0</ele><time>2026-04-29T12:20:11.736Z</time></trkpt><trkpt lat="43.4219815" lon="11.9679379"><ele>421.6666666666667</ele><time>2026-04-29T12:20:12.713Z</time></trkpt><trkpt lat="43.4219658" lon="11.9676364"><ele>422.33333333333337</ele><time>2026-04-29T12:20:13.721Z</time></trkpt><trkpt lat="43.4219613" lon="11.9673418"><ele>423.0</ele><time>2026-04-29T12:20:14.714Z</time></trkpt><trkpt lat="43.4219784" lon="11.9670515"><ele>424.0</ele><time>2026-04-29T12:20:15.702Z</time></trkpt><trkpt lat="43.4220188" lon="11.9667454"><ele>425.0</ele><time>2026-04-29T12:20:16.753Z</time></trkpt><trkpt lat="43.4220639" lon="11.9664655"><ele>426.0</ele><time>2026-04-29T12:20:17.713Z</time></trkpt><trkpt lat="43.4221121" lon="11.9661705"><ele>421.66666666666663</ele><time>2026-04-29T12:20:18.716Z</time></trkpt><trkpt lat="43.4221706" lon="11.9658718"><ele>417.3333333333333</ele><time>2026-04-29T12:20:19.732Z</time></trkpt><trkpt lat="43.422236" lon="11.9655855"><ele>413.0</ele><time>2026-04-29T12:20:20.709Z</time></trkpt><trkpt lat="43.4223079" lon="11.9652884"><ele>415.0</ele><time>2026-04-29T12:20:21.734Z</time></trkpt><trkpt lat="43.4223793" lon="11.9650045"><ele>417.0</ele><time>2026-04-29T12:20:22.714Z</time></trkpt><trkpt lat="43.4224589" lon="11.9647126"><ele>419.0</ele><time>2026-04-29T12:20:23.731Z</time></trkpt><trkpt lat="43.4225521" lon="11.9644359"><ele>424.5</ele><time>2026-04-29T12:20:24.714Z</time></trkpt><trkpt lat="43.4226587" lon="11.9641656"><ele>430.0</ele><time>2026-04-29T12:20:25.68Z</time></trkpt><trkpt lat="43.4227832" lon="11.9638935"><ele>430.0</ele><time>2026-04-29T12:20:26.662Z</time></trkpt><trkpt lat="43.4229184" lon="11.9636197"><ele>430.0</ele><time>2026-04-29T12:20:27.659Z</time></trkpt><trkpt lat="43.4230468" lon="11.9633436"><ele>424.5</ele><time>2026-04-29T12:20:28.668Z</time></trkpt><trkpt lat="43.4231587" lon="11.9630699"><ele>419.0</ele><time>2026-04-29T12:20:29.654Z</time></trkpt><trkpt lat="43.4232668" lon="11.9628017"><ele>419.0</ele><time>2026-04-29T12:20:30.661Z</time></trkpt><trkpt lat="43.4233677" lon="11.9625531"><ele>419.0</ele><time>2026-04-29T12:20:31.659Z</time></trkpt><trkpt lat="43.4234512" lon="11.9623051"><ele>419.0</ele><time>2026-04-29T12:20:32.677Z</time></trkpt><trkpt lat="43.4234958" lon="11.9620932"><ele>421.0</ele><time>2026-04-29T12:20:33.678Z</time></trkpt><trkpt lat="43.4235337" lon="11.9618305"><ele>423.0</ele><time>2026-04-29T12:20:34.686Z</time></trkpt><trkpt lat="43.4235432" lon="11.9615393"><ele>425.0</ele><time>2026-04-29T12:20:35.687Z</time></trkpt><trkpt lat="43.4235501" lon="11.9612455"><ele>428.0</ele><time>2026-04-29T12:20:36.679Z</time></trkpt><trkpt lat="43.4235572" lon="11.9609359"><ele>431.0</ele><time>2026-04-29T12:20:37.658Z</time></trkpt><trkpt lat="43.4235815" lon="11.9605359"><ele>436.0</ele><time>2026-04-29T12:20:38.966Z</time></trkpt><trkpt lat="43.4236332" lon="11.9599036"><ele>436.0</ele><time>2026-04-29T12:20:40.737Z</time></trkpt><trkpt lat="43.423693" lon="11.9595834"><ele>436.0</ele><time>2026-04-29T12:20:41.714Z</time></trkpt><trkpt lat="43.4237588" lon="11.9592499"><ele>432.0</ele><time>2026-04-29T12:20:42.733Z</time></trkpt><trkpt lat="43.423827" lon="11.9589253"><ele>428.0</ele><time>2026-04-29T12:20:43.726Z</time></trkpt><trkpt lat="43.4238902" lon="11.9586162"><ele>429.5</ele><time>2026-04-29T12:20:44.674Z</time></trkpt><trkpt lat="43.4239534" lon="11.9582982"><ele>431.0</ele><time>2026-04-29T12:20:45.678Z</time></trkpt><trkpt lat="43.4240112" lon="11.9580015"><ele>431.0</ele><time>2026-04-29T12:20:46.658Z</time></trkpt><trkpt lat="43.4240653" lon="11.9577091"><ele>431.0</ele><time>2026-04-29T12:20:47.667Z</time></trkpt><trkpt lat="43.4241151" lon="11.9574277"><ele>431.0</ele><time>2026-04-29T12:20:48.679Z</time></trkpt><trkpt lat="43.4241698" lon="11.9571568"><ele>431.0</ele><time>2026-04-29T12:20:49.672Z</time></trkpt><trkpt lat="43.4242417" lon="11.9569019"><ele>431.0</ele><time>2026-04-29T12:20:50.672Z</time></trkpt><trkpt lat="43.42434" lon="11.9566576"><ele>431.0</ele><time>2026-04-29T12:20:51.66Z</time></trkpt><trkpt lat="43.4244543" lon="11.9563865"><ele>433.0</ele><time>2026-04-29T12:20:52.67Z</time></trkpt><trkpt lat="43.424565" lon="11.9560869"><ele>435.0</ele><time>2026-04-29T12:20:53.68Z</time></trkpt><trkpt lat="43.4246571" lon="11.9557629"><ele>435.0</ele><time>2026-04-29T12:20:54.662Z</time></trkpt><trkpt lat="43.4247374" lon="11.9554422"><ele>435.0</ele><time>2026-04-29T12:20:55.67Z</time></trkpt><trkpt lat="43.4247979" lon="11.9551287"><ele>436.0</ele><time>2026-04-29T12:20:56.666Z</time></trkpt><trkpt lat="43.4248651" lon="11.9548117"><ele>437.0</ele><time>2026-04-29T12:20:57.667Z</time></trkpt><trkpt lat="43.4249442" lon="11.9545015"><ele>439.5</ele><time>2026-04-29T12:20:58.666Z</time></trkpt><trkpt lat="43.4250213" lon="11.9541917"><ele>442.0</ele><time>2026-04-29T12:20:59.662Z</time></trkpt><trkpt lat="43.4250953" lon="11.9538801"><ele>442.0</ele><time>2026-04-29T12:21:00.664Z</time></trkpt><trkpt lat="43.4251653" lon="11.9535697"><ele>442.0</ele><time>2026-04-29T12:21:01.674Z</time></trkpt><trkpt lat="43.4252237" lon="11.9532786"><ele>444.5</ele><time>2026-04-29T12:21:02.675Z</time></trkpt><trkpt lat="43.4253012" lon="11.9529181"><ele>447.0</ele><time>2026-04-29T12:21:04.007Z</time></trkpt><trkpt lat="43.4253855" lon="11.9525897"><ele>445.6</ele><time>2026-04-29T12:21:05.716Z</time></trkpt><trkpt lat="43.4254291" lon="11.9524255"><ele>444.20000000000005</ele><time>2026-04-29T12:21:06.705Z</time></trkpt><trkpt lat="43.4254715" lon="11.9522828"><ele>442.8</ele><time>2026-04-29T12:21:07.722Z</time></trkpt><trkpt lat="43.4255122" lon="11.9521844"><ele>441.4</ele><time>2026-04-29T12:21:08.725Z</time></trkpt><trkpt lat="43.4255641" lon="11.9521332"><ele>440.0</ele><time>2026-04-29T12:21:09.73Z</time></trkpt><trkpt lat="43.4256306" lon="11.9521104"><ele>440.0</ele><time>2026-04-29T12:21:10.708Z</time></trkpt><trkpt lat="43.4257113" lon="11.9520996"><ele>440.0</ele><time>2026-04-29T12:21:11.723Z</time></trkpt><trkpt lat="43.4257955" lon="11.9520862"><ele>440.0</ele><time>2026-04-29T12:21:12.665Z</time></trkpt><trkpt lat="43.4258937" lon="11.9520442"><ele>440.0</ele><time>2026-04-29T12:21:13.666Z</time></trkpt><trkpt lat="43.4260442" lon="11.951939"><ele>440.0</ele><time>2026-04-29T12:21:14.974Z</time></trkpt><trkpt lat="43.4259247" lon="11.9517284"><ele>442.0</ele><time>2026-04-29T12:21:16.713Z</time></trkpt><trkpt lat="43.4259431" lon="11.9515493"><ele>444.0</ele><time>2026-04-29T12:21:17.722Z</time></trkpt><trkpt lat="43.4259684" lon="11.9513566"><ele>446.0</ele><time>2026-04-29T12:21:18.731Z</time></trkpt><trkpt lat="43.4260038" lon="11.9511545"><ele>448.0</ele><time>2026-04-29T12:21:19.719Z</time></trkpt><trkpt lat="43.4260564" lon="11.9509411"><ele>449.6666666666667</ele><time>2026-04-29T12:21:20.714Z</time></trkpt><trkpt lat="43.4261211" lon="11.950723"><ele>451.33333333333337</ele><time>2026-04-29T12:21:21.727Z</time></trkpt><trkpt lat="43.4261932" lon="11.9504972"><ele>453.0</ele><time>2026-04-29T12:21:22.744Z</time></trkpt><trkpt lat="43.4262649" lon="11.9502726"><ele>453.66666666666663</ele><time>2026-04-29T12:21:23.719Z</time></trkpt><trkpt lat="43.4263385" lon="11.9500458"><ele>454.3333333333333</ele><time>2026-04-29T12:21:24.665Z</time></trkpt><trkpt lat="43.4264146" lon="11.94981"><ele>455.0</ele><time>2026-04-29T12:21:25.661Z</time></trkpt><trkpt lat="43.4264915" lon="11.9495522"><ele>455.0</ele><time>2026-04-29T12:21:26.658Z</time></trkpt><trkpt lat="43.4265635" lon="11.9492895"><ele>455.0</ele><time>2026-04-29T12:21:27.666Z</time></trkpt><trkpt lat="43.4266396" lon="11.9490239"><ele>455.0</ele><time>2026-04-29T12:21:28.664Z</time></trkpt><trkpt lat="43.4267222" lon="11.9487541"><ele>453.66666666666663</ele><time>2026-04-29T12:21:29.674Z</time></trkpt><trkpt lat="43.4268032" lon="11.9484826"><ele>452.33333333333337</ele><time>2026-04-29T12:21:30.673Z</time></trkpt><trkpt lat="43.4268841" lon="11.9482127"><ele>451.0</ele><time>2026-04-29T12:21:31.669Z</time></trkpt><trkpt lat="43.4269685" lon="11.9479255"><ele>451.0</ele><time>2026-04-29T12:21:32.667Z</time></trkpt><trkpt lat="43.427053" lon="11.9476425"><ele>451.0</ele><time>2026-04-29T12:21:33.663Z</time></trkpt><trkpt lat="43.4271433" lon="11.9473584"><ele>451.0</ele><time>2026-04-29T12:21:34.663Z</time></trkpt><trkpt lat="43.4272336" lon="11.9470703"><ele>458.0</ele><time>2026-04-29T12:21:35.664Z</time></trkpt><trkpt lat="43.42732" lon="11.9467772"><ele>465.0</ele><time>2026-04-29T12:21:36.667Z</time></trkpt><trkpt lat="43.4273927" lon="11.9464827"><ele>465.0</ele><time>2026-04-29T12:21:37.683Z</time></trkpt><trkpt lat="43.4274494" lon="11.9461801"><ele>465.0</ele><time>2026-04-29T12:21:38.675Z</time></trkpt><trkpt lat="43.4274924" lon="11.9458835"><ele>465.0</ele><time>2026-04-29T12:21:39.666Z</time></trkpt><trkpt lat="43.4275299" lon="11.9455763"><ele>464.0</ele><time>2026-04-29T12:21:40.673Z</time></trkpt><trkpt lat="43.4275467" lon="11.9452711"><ele>463.0</ele><time>2026-04-29T12:21:41.665Z</time></trkpt><trkpt lat="43.427554" lon="11.9449648"><ele>462.0</ele><time>2026-04-29T12:21:42.668Z</time></trkpt><trkpt lat="43.4275402" lon="11.9446489"><ele>460.5</ele><time>2026-04-29T12:21:43.668Z</time></trkpt><trkpt lat="43.4275226" lon="11.9443433"><ele>459.0</ele><time>2026-04-29T12:21:44.661Z</time></trkpt><trkpt lat="43.4274926" lon="11.9440336"><ele>459.0</ele><time>2026-04-29T12:21:45.68Z</time></trkpt><trkpt lat="43.4274441" lon="11.9437377"><ele>459.0</ele><time>2026-04-29T12:21:46.666Z</time></trkpt><trkpt lat="43.4273821" lon="11.9434558"><ele>459.0</ele><time>2026-04-29T12:21:47.667Z</time></trkpt><trkpt lat="43.4273083" lon="11.9431997"><ele>460.66666666666663</ele><time>2026-04-29T12:21:48.685Z</time></trkpt><trkpt lat="43.4272346" lon="11.9429776"><ele>462.3333333333333</ele><time>2026-04-29T12:21:49.663Z</time></trkpt><trkpt lat="43.4271595" lon="11.9427642"><ele>464.0</ele><time>2026-04-29T12:21:50.668Z</time></trkpt><trkpt lat="43.4270882" lon="11.9425742"><ele>463.5</ele><time>2026-04-29T12:21:51.665Z</time></trkpt><trkpt lat="43.4270265" lon="11.9424052"><ele>463.0</ele><time>2026-04-29T12:21:52.665Z</time></trkpt><trkpt lat="43.42698" lon="11.9422354"><ele>462.5</ele><time>2026-04-29T12:21:53.662Z</time></trkpt><trkpt lat="43.4269524" lon="11.9420727"><ele>462.0</ele><time>2026-04-29T12:21:54.665Z</time></trkpt><trkpt lat="43.4269492" lon="11.941917"><ele>462.0</ele><time>2026-04-29T12:21:55.652Z</time></trkpt><trkpt lat="43.4269737" lon="11.9417492"><ele>462.0</ele><time>2026-04-29T12:21:56.648Z</time></trkpt><trkpt lat="43.427026" lon="11.9415832"><ele>462.0</ele><time>2026-04-29T12:21:57.673Z</time></trkpt><trkpt lat="43.4271039" lon="11.9414205"><ele>462.0</ele><time>2026-04-29T12:21:58.664Z</time></trkpt><trkpt lat="43.4271996" lon="11.9412317"><ele>466.25</ele><time>2026-04-29T12:21:59.668Z</time></trkpt><trkpt lat="43.4272805" lon="11.9410565"><ele>470.5</ele><time>2026-04-29T12:22:00.677Z</time></trkpt><trkpt lat="43.4273709" lon="11.9409036"><ele>474.75</ele><time>2026-04-29T12:22:01.659Z</time></trkpt><trkpt lat="43.4274418" lon="11.9407538"><ele>479.0</ele><time>2026-04-29T12:22:02.676Z</time></trkpt><trkpt lat="43.4275258" lon="11.9405492"><ele>479.0</ele><time>2026-04-29T12:22:04.008Z</time></trkpt><trkpt lat="43.4277261" lon="11.9403825"><ele>479.0</ele><time>2026-04-29T12:22:05.737Z</time></trkpt><trkpt lat="43.4278301" lon="11.9402759"><ele>479.0</ele><time>2026-04-29T12:22:06.736Z</time></trkpt><trkpt lat="43.4279272" lon="11.9401654"><ele>482.2</ele><time>2026-04-29T12:22:07.723Z</time></trkpt><trkpt lat="43.4280138" lon="11.9400701"><ele>485.4</ele><time>2026-04-29T12:22:08.728Z</time></trkpt><trkpt lat="43.4280874" lon="11.9399904"><ele>488.6</ele><time>2026-04-29T12:22:09.719Z</time></trkpt><trkpt lat="43.4281607" lon="11.9399157"><ele>491.8</ele><time>2026-04-29T12:22:10.668Z</time></trkpt><trkpt lat="43.4282335" lon="11.9398459"><ele>495.0</ele><time>2026-04-29T12:22:11.664Z</time></trkpt><trkpt lat="43.4283011" lon="11.939754"><ele>495.0</ele><time>2026-04-29T12:22:12.673Z</time></trkpt><trkpt lat="43.428344" lon="11.9396353"><ele>495.0</ele><time>2026-04-29T12:22:13.658Z</time></trkpt><trkpt lat="43.4283248" lon="11.939463"><ele>495.0</ele><time>2026-04-29T12:22:15.663Z</time></trkpt><trkpt lat="43.428305" lon="11.9393271"><ele>495.0</ele><time>2026-04-29T12:22:16.659Z</time></trkpt><trkpt lat="43.4282841" lon="11.9392071"><ele>495.0</ele><time>2026-04-29T12:22:17.676Z</time></trkpt><trkpt lat="43.428246" lon="11.9390928"><ele>495.75</ele><time>2026-04-29T12:22:18.67Z</time></trkpt><trkpt lat="43.4281776" lon="11.9389904"><ele>496.5</ele><time>2026-04-29T12:22:19.667Z</time></trkpt><trkpt lat="43.4280835" lon="11.9389306"><ele>497.25</ele><time>2026-04-29T12:22:20.67Z</time></trkpt><trkpt lat="43.4279643" lon="11.9389257"><ele>498.0</ele><time>2026-04-29T12:22:21.664Z</time></trkpt><trkpt lat="43.4278314" lon="11.9389459"><ele>498.5</ele><time>2026-04-29T12:22:22.665Z</time></trkpt><trkpt lat="43.427686" lon="11.9389604"><ele>499.0</ele><time>2026-04-29T12:22:23.663Z</time></trkpt><trkpt lat="43.4275672" lon="11.9389577"><ele>499.5</ele><time>2026-04-29T12:22:24.677Z</time></trkpt><trkpt lat="43.4274755" lon="11.9389146"><ele>500.0</ele><time>2026-04-29T12:22:25.68Z</time></trkpt><trkpt lat="43.4273668" lon="11.9388032"><ele>500.0</ele><time>2026-04-29T12:22:27.001Z</time></trkpt><trkpt lat="43.427287" lon="11.9386347"><ele>500.0</ele><time>2026-04-29T12:22:28.732Z</time></trkpt><trkpt lat="43.4272032" lon="11.9385316"><ele>500.0</ele><time>2026-04-29T12:22:29.72Z</time></trkpt><trkpt lat="43.4271352" lon="11.9384161"><ele>500.0</ele><time>2026-04-29T12:22:30.727Z</time></trkpt><trkpt lat="43.427076" lon="11.9382821"><ele>500.75</ele><time>2026-04-29T12:22:31.721Z</time></trkpt><trkpt lat="43.4270315" lon="11.9381466"><ele>501.5</ele><time>2026-04-29T12:22:32.657Z</time></trkpt><trkpt lat="43.4270015" lon="11.9379849"><ele>502.25</ele><time>2026-04-29T12:22:33.669Z</time></trkpt><trkpt lat="43.4269906" lon="11.9378211"><ele>503.0</ele><time>2026-04-29T12:22:34.68Z</time></trkpt><trkpt lat="43.4269983" lon="11.93766"><ele>505.25</ele><time>2026-04-29T12:22:35.679Z</time></trkpt><trkpt lat="43.4270168" lon="11.9374959"><ele>507.5</ele><time>2026-04-29T12:22:36.65Z</time></trkpt><trkpt lat="43.4270408" lon="11.9373267"><ele>509.75</ele><time>2026-04-29T12:22:37.672Z</time></trkpt><trkpt lat="43.4270731" lon="11.9371725"><ele>512.0</ele><time>2026-04-29T12:22:38.654Z</time></trkpt><trkpt lat="43.4271291" lon="11.9370413"><ele>514.75</ele><time>2026-04-29T12:22:39.668Z</time></trkpt><trkpt lat="43.4272122" lon="11.9369288"><ele>517.5</ele><time>2026-04-29T12:22:40.655Z</time></trkpt><trkpt lat="43.4273174" lon="11.9368183"><ele>520.25</ele><time>2026-04-29T12:22:41.678Z</time></trkpt><trkpt lat="43.4274188" lon="11.9367211"><ele>523.0</ele><time>2026-04-29T12:22:42.674Z</time></trkpt><trkpt lat="43.4275145" lon="11.936631"><ele>523.75</ele><time>2026-04-29T12:22:43.658Z</time></trkpt><trkpt lat="43.4276275" lon="11.9364866"><ele>524.5</ele><time>2026-04-29T12:22:44.97Z</time></trkpt><trkpt lat="43.4275704" lon="11.9363089"><ele>525.25</ele><time>2026-04-29T12:22:46.717Z</time></trkpt><trkpt lat="43.4275131" lon="11.9361965"><ele>526.0</ele><time>2026-04-29T12:22:47.719Z</time></trkpt><trkpt lat="43.4274272" lon="11.9361037"><ele>526.0</ele><time>2026-04-29T12:22:48.722Z</time></trkpt><trkpt lat="43.4273404" lon="11.9360061"><ele>526.0</ele><time>2026-04-29T12:22:49.777Z</time></trkpt><trkpt lat="43.4272813" lon="11.9358908"><ele>526.0</ele><time>2026-04-29T12:22:50.728Z</time></trkpt><trkpt lat="43.4272354" lon="11.9357451"><ele>526.0</ele><time>2026-04-29T12:22:51.735Z</time></trkpt><trkpt lat="43.4271861" lon="11.9355642"><ele>527.0</ele><time>2026-04-29T12:22:52.715Z</time></trkpt><trkpt lat="43.4271339" lon="11.9353189"><ele>528.0</ele><time>2026-04-29T12:22:53.713Z</time></trkpt><trkpt lat="43.427087" lon="11.9350408"><ele>529.0</ele><time>2026-04-29T12:22:54.737Z</time></trkpt><trkpt lat="43.427051" lon="11.934801"><ele>530.0</ele><time>2026-04-29T12:22:55.719Z</time></trkpt><trkpt lat="43.4270387" lon="11.9345855"><ele>531.0</ele><time>2026-04-29T12:22:56.729Z</time></trkpt><trkpt lat="43.4270512" lon="11.9344031"><ele>532.0</ele><time>2026-04-29T12:22:57.724Z</time></trkpt><trkpt lat="43.4270831" lon="11.9342659"><ele>533.0</ele><time>2026-04-29T12:22:58.713Z</time></trkpt><trkpt lat="43.4271381" lon="11.9341719"><ele>533.75</ele><time>2026-04-29T12:22:59.718Z</time></trkpt><trkpt lat="43.4272163" lon="11.9341309"><ele>534.5</ele><time>2026-04-29T12:23:00.721Z</time></trkpt><trkpt lat="43.4273248" lon="11.9341453"><ele>535.25</ele><time>2026-04-29T12:23:01.726Z</time></trkpt><trkpt lat="43.4274593" lon="11.9341986"><ele>536.0</ele><time>2026-04-29T12:23:02.714Z</time></trkpt><trkpt lat="43.427618" lon="11.9342544"><ele>536.0</ele><time>2026-04-29T12:23:03.709Z</time></trkpt><trkpt lat="43.4277793" lon="11.9343056"><ele>536.0</ele><time>2026-04-29T12:23:04.745Z</time></trkpt><trkpt lat="43.4279118" lon="11.9343498"><ele>536.0</ele><time>2026-04-29T12:23:05.72Z</time></trkpt><trkpt lat="43.4280196" lon="11.9343743"><ele>536.0</ele><time>2026-04-29T12:23:06.72Z</time></trkpt><trkpt lat="43.4281085" lon="11.9343623"><ele>537.2</ele><time>2026-04-29T12:23:07.72Z</time></trkpt><trkpt lat="43.4281664" lon="11.9342975"><ele>538.4000000000001</ele><time>2026-04-29T12:23:08.721Z</time></trkpt><trkpt lat="43.4281848" lon="11.9342001"><ele>539.6</ele><time>2026-04-29T12:23:09.723Z</time></trkpt><trkpt lat="43.4281608" lon="11.9340691"><ele>540.8000000000001</ele><time>2026-04-29T12:23:10.71Z</time></trkpt><trkpt lat="43.4281092" lon="11.9339003"><ele>542.0</ele><time>2026-04-29T12:23:11.719Z</time></trkpt><trkpt lat="43.4280569" lon="11.9336894"><ele>542.0</ele><time>2026-04-29T12:23:12.718Z</time></trkpt><trkpt lat="43.4280023" lon="11.9334516"><ele>542.0</ele><time>2026-04-29T12:23:13.736Z</time></trkpt><trkpt lat="43.4279466" lon="11.9332229"><ele>542.0</ele><time>2026-04-29T12:23:14.723Z</time></trkpt><trkpt lat="43.4278952" lon="11.9329959"><ele>532.0</ele><time>2026-04-29T12:23:15.726Z</time></trkpt><trkpt lat="43.4278604" lon="11.932755"><ele>522.0</ele><time>2026-04-29T12:23:16.722Z</time></trkpt><trkpt lat="43.4278295" lon="11.9325213"><ele>512.0</ele><time>2026-04-29T12:23:17.72Z</time></trkpt><trkpt lat="43.4278087" lon="11.9322954"><ele>510.0</ele><time>2026-04-29T12:23:18.717Z</time></trkpt><trkpt lat="43.4278118" lon="11.9320757"><ele>508.0</ele><time>2026-04-29T12:23:19.723Z</time></trkpt><trkpt lat="43.4278341" lon="11.931863"><ele>506.0</ele><time>2026-04-29T12:23:20.722Z</time></trkpt><trkpt lat="43.4278661" lon="11.9316595"><ele>507.4</ele><time>2026-04-29T12:23:21.724Z</time></trkpt><trkpt lat="43.4279005" lon="11.9314788"><ele>508.8</ele><time>2026-04-29T12:23:22.723Z</time></trkpt><trkpt lat="43.4279381" lon="11.931326"><ele>510.19999999999993</ele><time>2026-04-29T12:23:23.728Z</time></trkpt><trkpt lat="43.427985" lon="11.9312102"><ele>511.59999999999997</ele><time>2026-04-29T12:23:24.712Z</time></trkpt><trkpt lat="43.4280562" lon="11.9311367"><ele>513.0</ele><time>2026-04-29T12:23:25.739Z</time></trkpt><trkpt lat="43.4281424" lon="11.9311246"><ele>513.0</ele><time>2026-04-29T12:23:26.713Z</time></trkpt><trkpt lat="43.4282445" lon="11.9311632"><ele>513.0</ele><time>2026-04-29T12:23:27.725Z</time></trkpt><trkpt lat="43.4283497" lon="11.9312247"><ele>513.0</ele><time>2026-04-29T12:23:28.689Z</time></trkpt><trkpt lat="43.4284688" lon="11.9313189"><ele>513.0</ele><time>2026-04-29T12:23:29.672Z</time></trkpt><trkpt lat="43.4285999" lon="11.9314137"><ele>513.0</ele><time>2026-04-29T12:23:30.654Z</time></trkpt><trkpt lat="43.4287565" lon="11.9314917"><ele>513.0</ele><time>2026-04-29T12:23:31.665Z</time></trkpt><trkpt lat="43.428916" lon="11.9315576"><ele>513.0</ele><time>2026-04-29T12:23:32.648Z</time></trkpt><trkpt lat="43.4290925" lon="11.9316178"><ele>509.0</ele><time>2026-04-29T12:23:33.657Z</time></trkpt><trkpt lat="43.4292643" lon="11.9317149"><ele>505.0</ele><time>2026-04-29T12:23:34.967Z</time></trkpt><trkpt lat="43.4296037" lon="11.9317953"><ele>502.33333333333337</ele><time>2026-04-29T12:23:36.704Z</time></trkpt><trkpt lat="43.4297715" lon="11.9317853"><ele>499.66666666666663</ele><time>2026-04-29T12:23:37.709Z</time></trkpt><trkpt lat="43.4299222" lon="11.9317406"><ele>497.0</ele><time>2026-04-29T12:23:38.715Z</time></trkpt><trkpt lat="43.430095" lon="11.9316641"><ele>497.0</ele><time>2026-04-29T12:23:39.705Z</time></trkpt><trkpt lat="43.4302613" lon="11.9315628"><ele>497.0</ele><time>2026-04-29T12:23:40.711Z</time></trkpt><trkpt lat="43.430436" lon="11.9314646"><ele>497.0</ele><time>2026-04-29T12:23:41.749Z</time></trkpt><trkpt lat="43.4305806" lon="11.9313483"><ele>498.66666666666663</ele><time>2026-04-29T12:23:42.722Z</time></trkpt><trkpt lat="43.4307256" lon="11.9312039"><ele>500.33333333333337</ele><time>2026-04-29T12:23:43.721Z</time></trkpt><trkpt lat="43.4308709" lon="11.931028"><ele>502.0</ele><time>2026-04-29T12:23:44.724Z</time></trkpt><trkpt lat="43.4310241" lon="11.930843"><ele>497.0</ele><time>2026-04-29T12:23:45.721Z</time></trkpt><trkpt lat="43.4311671" lon="11.9306542"><ele>492.0</ele><time>2026-04-29T12:23:46.71Z</time></trkpt><trkpt lat="43.4313047" lon="11.9304857"><ele>487.0</ele><time>2026-04-29T12:23:47.715Z</time></trkpt><trkpt lat="43.4314287" lon="11.9303352"><ele>487.0</ele><time>2026-04-29T12:23:48.709Z</time></trkpt><trkpt lat="43.4315431" lon="11.9301945"><ele>487.0</ele><time>2026-04-29T12:23:49.725Z</time></trkpt><trkpt lat="43.4316594" lon="11.9300951"><ele>487.0</ele><time>2026-04-29T12:23:50.718Z</time></trkpt><trkpt lat="43.4317801" lon="11.9300288"><ele>487.0</ele><time>2026-04-29T12:23:51.712Z</time></trkpt><trkpt lat="43.4319211" lon="11.9300014"><ele>485.0</ele><time>2026-04-29T12:23:52.722Z</time></trkpt><trkpt lat="43.432067" lon="11.9300144"><ele>483.0</ele><time>2026-04-29T12:23:53.708Z</time></trkpt><trkpt lat="43.4322322" lon="11.9300612"><ele>481.0</ele><time>2026-04-29T12:23:54.74Z</time></trkpt><trkpt lat="43.4323926" lon="11.930116"><ele>481.0</ele><time>2026-04-29T12:23:55.726Z</time></trkpt><trkpt lat="43.4325506" lon="11.9301688"><ele>481.0</ele><time>2026-04-29T12:23:56.714Z</time></trkpt><trkpt lat="43.4327037" lon="11.9301953"><ele>481.0</ele><time>2026-04-29T12:23:57.73Z</time></trkpt><trkpt lat="43.4328449" lon="11.9301798"><ele>479.5</ele><time>2026-04-29T12:23:58.747Z</time></trkpt><trkpt lat="43.4329746" lon="11.9301172"><ele>478.0</ele><time>2026-04-29T12:23:59.723Z</time></trkpt><trkpt lat="43.4330883" lon="11.9300156"><ele>476.5</ele><time>2026-04-29T12:24:00.74Z</time></trkpt><trkpt lat="43.4331706" lon="11.9298781"><ele>475.0</ele><time>2026-04-29T12:24:01.743Z</time></trkpt><trkpt lat="43.4332164" lon="11.9297121"><ele>475.0</ele><time>2026-04-29T12:24:02.715Z</time></trkpt><trkpt lat="43.4332521" lon="11.9294884"><ele>475.0</ele><time>2026-04-29T12:24:03.844Z</time></trkpt><trkpt lat="43.4332822" lon="11.9293195"><ele>475.0</ele><time>2026-04-29T12:24:04.721Z</time></trkpt><trkpt lat="43.4333185" lon="11.9291521"><ele>475.0</ele><time>2026-04-29T12:24:05.71Z</time></trkpt><trkpt lat="43.4333665" lon="11.9290219"><ele>475.0</ele><time>2026-04-29T12:24:06.729Z</time></trkpt><trkpt lat="43.4334402" lon="11.928946"><ele>475.0</ele><time>2026-04-29T12:24:07.734Z</time></trkpt><trkpt lat="43.4335297" lon="11.9289262"><ele>475.0</ele><time>2026-04-29T12:24:08.715Z</time></trkpt><trkpt lat="43.43362" lon="11.9289716"><ele>475.0</ele><time>2026-04-29T12:24:09.712Z</time></trkpt><trkpt lat="43.4337051" lon="11.9290872"><ele>475.0</ele><time>2026-04-29T12:24:10.727Z</time></trkpt><trkpt lat="43.4337854" lon="11.9292442"><ele>473.75</ele><time>2026-04-29T12:24:11.716Z</time></trkpt><trkpt lat="43.433875" lon="11.9294141"><ele>472.5</ele><time>2026-04-29T12:24:12.741Z</time></trkpt><trkpt lat="43.4339521" lon="11.9295643"><ele>471.25</ele><time>2026-04-29T12:24:13.718Z</time></trkpt><trkpt lat="43.4340241" lon="11.9296943"><ele>470.0</ele><time>2026-04-29T12:24:14.714Z</time></trkpt><trkpt lat="43.434102" lon="11.9297724"><ele>470.0</ele><time>2026-04-29T12:24:15.743Z</time></trkpt><trkpt lat="43.4342125" lon="11.9297929"><ele>470.0</ele><time>2026-04-29T12:24:16.724Z</time></trkpt><trkpt lat="43.4343273" lon="11.9297542"><ele>470.0</ele><time>2026-04-29T12:24:17.724Z</time></trkpt><trkpt lat="43.434471" lon="11.9296773"><ele>470.0</ele><time>2026-04-29T12:24:18.721Z</time></trkpt><trkpt lat="43.4346309" lon="11.9295833"><ele>468.66666666666663</ele><time>2026-04-29T12:24:19.717Z</time></trkpt><trkpt lat="43.4348086" lon="11.9294832"><ele>467.33333333333337</ele><time>2026-04-29T12:24:20.715Z</time></trkpt><trkpt lat="43.4350007" lon="11.9293757"><ele>466.0</ele><time>2026-04-29T12:24:21.734Z</time></trkpt><trkpt lat="43.4351865" lon="11.9292759"><ele>461.33333333333337</ele><time>2026-04-29T12:24:22.73Z</time></trkpt><trkpt lat="43.4353641" lon="11.9291671"><ele>456.66666666666663</ele><time>2026-04-29T12:24:23.714Z</time></trkpt><trkpt lat="43.435534" lon="11.9290383"><ele>452.0</ele><time>2026-04-29T12:24:24.705Z</time></trkpt><trkpt lat="43.435699" lon="11.928889"><ele>452.0</ele><time>2026-04-29T12:24:25.732Z</time></trkpt><trkpt lat="43.4358475" lon="11.9287391"><ele>452.0</ele><time>2026-04-29T12:24:26.708Z</time></trkpt><trkpt lat="43.4359976" lon="11.9285844"><ele>452.0</ele><time>2026-04-29T12:24:27.715Z</time></trkpt><trkpt lat="43.436149" lon="11.9284341"><ele>450.66666666666663</ele><time>2026-04-29T12:24:28.738Z</time></trkpt><trkpt lat="43.4362917" lon="11.9282952"><ele>449.33333333333337</ele><time>2026-04-29T12:24:29.724Z</time></trkpt><trkpt lat="43.4364306" lon="11.9281545"><ele>448.0</ele><time>2026-04-29T12:24:30.731Z</time></trkpt><trkpt lat="43.4365565" lon="11.9280132"><ele>448.0</ele><time>2026-04-29T12:24:31.734Z</time></trkpt><trkpt lat="43.436628" lon="11.9278443"><ele>448.0</ele><time>2026-04-29T12:24:32.745Z</time></trkpt><trkpt lat="43.4366703" lon="11.9276541"><ele>448.0</ele><time>2026-04-29T12:24:33.716Z</time></trkpt><trkpt lat="43.4366883" lon="11.9274228"><ele>444.6666666666667</ele><time>2026-04-29T12:24:34.723Z</time></trkpt><trkpt lat="43.4366949" lon="11.9271652"><ele>441.33333333333337</ele><time>2026-04-29T12:24:35.727Z</time></trkpt><trkpt lat="43.4367045" lon="11.9269154"><ele>438.0</ele><time>2026-04-29T12:24:36.716Z</time></trkpt><trkpt lat="43.4367217" lon="11.9266707"><ele>434.66666666666663</ele><time>2026-04-29T12:24:37.717Z</time></trkpt><trkpt lat="43.4367465" lon="11.9264314"><ele>431.3333333333333</ele><time>2026-04-29T12:24:38.733Z</time></trkpt><trkpt lat="43.436752" lon="11.9261973"><ele>428.0</ele><time>2026-04-29T12:24:39.721Z</time></trkpt><trkpt lat="43.4367373" lon="11.9259584"><ele>425.3333333333333</ele><time>2026-04-29T12:24:40.729Z</time></trkpt><trkpt lat="43.436699" lon="11.9257395"><ele>422.66666666666663</ele><time>2026-04-29T12:24:41.731Z</time></trkpt><trkpt lat="43.4366287" lon="11.9255302"><ele>420.0</ele><time>2026-04-29T12:24:42.726Z</time></trkpt><trkpt lat="43.4365329" lon="11.9253381"><ele>420.0</ele><time>2026-04-29T12:24:43.725Z</time></trkpt><trkpt lat="43.4364475" lon="11.9251593"><ele>420.0</ele><time>2026-04-29T12:24:44.741Z</time></trkpt><trkpt lat="43.4363891" lon="11.9249983"><ele>420.0</ele><time>2026-04-29T12:24:45.735Z</time></trkpt><trkpt lat="43.4363639" lon="11.9248436"><ele>420.0</ele><time>2026-04-29T12:24:46.734Z</time></trkpt><trkpt lat="43.4363769" lon="11.9247028"><ele>418.8</ele><time>2026-04-29T12:24:47.729Z</time></trkpt><trkpt lat="43.4364268" lon="11.924579"><ele>417.6</ele><time>2026-04-29T12:24:48.718Z</time></trkpt><trkpt lat="43.4365063" lon="11.9244866"><ele>416.4</ele><time>2026-04-29T12:24:49.706Z</time></trkpt><trkpt lat="43.4365944" lon="11.9244483"><ele>415.2</ele><time>2026-04-29T12:24:50.734Z</time></trkpt><trkpt lat="43.4366834" lon="11.9244687"><ele>414.0</ele><time>2026-04-29T12:24:51.73Z</time></trkpt><trkpt lat="43.4367758" lon="11.9245406"><ele>414.0</ele><time>2026-04-29T12:24:52.726Z</time></trkpt><trkpt lat="43.4368686" lon="11.9246632"><ele>414.0</ele><time>2026-04-29T12:24:53.735Z</time></trkpt><trkpt lat="43.4369568" lon="11.9248202"><ele>414.0</ele><time>2026-04-29T12:24:54.74Z</time></trkpt><trkpt lat="43.437066" lon="11.9249491"><ele>414.0</ele><time>2026-04-29T12:24:55.707Z</time></trkpt><trkpt lat="43.4372013" lon="11.925039"><ele>416.25</ele><time>2026-04-29T12:24:56.71Z</time></trkpt><trkpt lat="43.4373559" lon="11.9250811"><ele>418.5</ele><time>2026-04-29T12:24:57.715Z</time></trkpt><trkpt lat="43.4375021" lon="11.9251083"><ele>420.75</ele><time>2026-04-29T12:24:58.721Z</time></trkpt><trkpt lat="43.4376164" lon="11.9251461"><ele>423.0</ele><time>2026-04-29T12:24:59.711Z</time></trkpt><trkpt lat="43.4377181" lon="11.9252315"><ele>423.0</ele><time>2026-04-29T12:25:00.748Z</time></trkpt><trkpt lat="43.4377816" lon="11.9253505"><ele>423.0</ele><time>2026-04-29T12:25:01.735Z</time></trkpt><trkpt lat="43.4378143" lon="11.9255033"><ele>423.0</ele><time>2026-04-29T12:25:02.727Z</time></trkpt><trkpt lat="43.4378632" lon="11.9256347"><ele>423.0</ele><time>2026-04-29T12:25:03.713Z</time></trkpt><trkpt lat="43.4379415" lon="11.9257388"><ele>423.0</ele><time>2026-04-29T12:25:04.71Z</time></trkpt><trkpt lat="43.4380679" lon="11.9258244"><ele>423.5</ele><time>2026-04-29T12:25:05.705Z</time></trkpt><trkpt lat="43.4382098" lon="11.9259161"><ele>424.0</ele><time>2026-04-29T12:25:06.712Z</time></trkpt><trkpt lat="43.4383399" lon="11.9259851"><ele>424.5</ele><time>2026-04-29T12:25:07.706Z</time></trkpt><trkpt lat="43.4384699" lon="11.9260152"><ele>425.0</ele><time>2026-04-29T12:25:08.726Z</time></trkpt><trkpt lat="43.4386221" lon="11.9259847"><ele>425.0</ele><time>2026-04-29T12:25:09.737Z</time></trkpt><trkpt lat="43.4387819" lon="11.925935"><ele>425.0</ele><time>2026-04-29T12:25:10.716Z</time></trkpt><trkpt lat="43.4389644" lon="11.9258735"><ele>425.0</ele><time>2026-04-29T12:25:11.734Z</time></trkpt><trkpt lat="43.4391741" lon="11.9258009"><ele>411.5</ele><time>2026-04-29T12:25:12.849Z</time></trkpt><trkpt lat="43.439525" lon="11.9256814"><ele>398.0</ele><time>2026-04-29T12:25:14.713Z</time></trkpt><trkpt lat="43.4397019" lon="11.9256062"><ele>398.0</ele><time>2026-04-29T12:25:15.721Z</time></trkpt><trkpt lat="43.4398655" lon="11.9255081"><ele>398.0</ele><time>2026-04-29T12:25:16.715Z</time></trkpt><trkpt lat="43.4400116" lon="11.9253851"><ele>398.0</ele><time>2026-04-29T12:25:17.704Z</time></trkpt><trkpt lat="43.4401482" lon="11.925245"><ele>398.0</ele><time>2026-04-29T12:25:18.761Z</time></trkpt><trkpt lat="43.4402559" lon="11.9251394"><ele>398.0</ele><time>2026-04-29T12:25:19.707Z</time></trkpt><trkpt lat="43.4403673" lon="11.925067"><ele>398.0</ele><time>2026-04-29T12:25:20.731Z</time></trkpt><trkpt lat="43.4404546" lon="11.9250611"><ele>398.0</ele><time>2026-04-29T12:25:21.721Z</time></trkpt><trkpt lat="43.440533" lon="11.9251115"><ele>398.0</ele><time>2026-04-29T12:25:22.721Z</time></trkpt><trkpt lat="43.4406171" lon="11.9252175"><ele>394.75</ele><time>2026-04-29T12:25:23.738Z</time></trkpt><trkpt lat="43.4407147" lon="11.9253337"><ele>391.5</ele><time>2026-04-29T12:25:24.729Z</time></trkpt><trkpt lat="43.4408149" lon="11.9254551"><ele>388.25</ele><time>2026-04-29T12:25:25.724Z</time></trkpt><trkpt lat="43.4409026" lon="11.9255856"><ele>385.0</ele><time>2026-04-29T12:25:26.743Z</time></trkpt><trkpt lat="43.4409427" lon="11.9257353"><ele>385.0</ele><time>2026-04-29T12:25:27.749Z</time></trkpt><trkpt lat="43.4409485" lon="11.9258769"><ele>385.0</ele><time>2026-04-29T12:25:28.725Z</time></trkpt><trkpt lat="43.4409026" lon="11.9260475"><ele>385.0</ele><time>2026-04-29T12:25:29.723Z</time></trkpt><trkpt lat="43.4408572" lon="11.9262189"><ele>385.0</ele><time>2026-04-29T12:25:30.726Z</time></trkpt><trkpt lat="43.4408182" lon="11.9263861"><ele>385.0</ele><time>2026-04-29T12:25:31.737Z</time></trkpt><trkpt lat="43.4407986" lon="11.9265346"><ele>385.0</ele><time>2026-04-29T12:25:32.745Z</time></trkpt><trkpt lat="43.4408148" lon="11.9266529"><ele>385.0</ele><time>2026-04-29T12:25:33.725Z</time></trkpt><trkpt lat="43.4408623" lon="11.9267462"><ele>385.0</ele><time>2026-04-29T12:25:34.723Z</time></trkpt><trkpt lat="43.4409476" lon="11.9268126"><ele>385.0</ele><time>2026-04-29T12:25:35.723Z</time></trkpt><trkpt lat="43.4410386" lon="11.9268471"><ele>386.75</ele><time>2026-04-29T12:25:36.72Z</time></trkpt><trkpt lat="43.4411252" lon="11.9268256"><ele>388.5</ele><time>2026-04-29T12:25:37.735Z</time></trkpt><trkpt lat="43.4412184" lon="11.9267434"><ele>390.25</ele><time>2026-04-29T12:25:38.722Z</time></trkpt><trkpt lat="43.4413342" lon="11.9266579"><ele>392.0</ele><time>2026-04-29T12:25:39.736Z</time></trkpt><trkpt lat="43.441473" lon="11.9265719"><ele>387.3333333333333</ele><time>2026-04-29T12:25:40.751Z</time></trkpt><trkpt lat="43.4416239" lon="11.9265016"><ele>382.66666666666663</ele><time>2026-04-29T12:25:41.726Z</time></trkpt><trkpt lat="43.4417926" lon="11.9264478"><ele>378.0</ele><time>2026-04-29T12:25:42.73Z</time></trkpt><trkpt lat="43.4419733" lon="11.9264128"><ele>378.3333333333333</ele><time>2026-04-29T12:25:43.739Z</time></trkpt><trkpt lat="43.442144" lon="11.9263785"><ele>378.66666666666663</ele><time>2026-04-29T12:25:44.723Z</time></trkpt><trkpt lat="43.4423021" lon="11.9263503"><ele>379.0</ele><time>2026-04-29T12:25:45.738Z</time></trkpt><trkpt lat="43.4424458" lon="11.9263065"><ele>379.0</ele><time>2026-04-29T12:25:46.729Z</time></trkpt><trkpt lat="43.4425783" lon="11.9262347"><ele>379.0</ele><time>2026-04-29T12:25:47.731Z</time></trkpt><trkpt lat="43.442697" lon="11.9261331"><ele>379.0</ele><time>2026-04-29T12:25:48.723Z</time></trkpt><trkpt lat="43.4428065" lon="11.9260285"><ele>379.0</ele><time>2026-04-29T12:25:49.718Z</time></trkpt><trkpt lat="43.4428986" lon="11.9259306"><ele>375.79999999999995</ele><time>2026-04-29T12:25:50.728Z</time></trkpt><trkpt lat="43.4429752" lon="11.9258498"><ele>372.59999999999997</ele><time>2026-04-29T12:25:51.743Z</time></trkpt><trkpt lat="43.4430427" lon="11.9257774"><ele>369.4</ele><time>2026-04-29T12:25:52.729Z</time></trkpt><trkpt lat="43.4431283" lon="11.9256893"><ele>366.2</ele><time>2026-04-29T12:25:53.717Z</time></trkpt><trkpt lat="43.4432536" lon="11.9255825"><ele>363.0</ele><time>2026-04-29T12:25:54.729Z</time></trkpt><trkpt lat="43.443391" lon="11.9254896"><ele>363.0</ele><time>2026-04-29T12:25:55.739Z</time></trkpt><trkpt lat="43.4435018" lon="11.9253982"><ele>363.0</ele><time>2026-04-29T12:25:56.722Z</time></trkpt><trkpt lat="43.4435902" lon="11.9253075"><ele>363.0</ele><time>2026-04-29T12:25:57.719Z</time></trkpt><trkpt lat="43.4436425" lon="11.9251912"><ele>363.0</ele><time>2026-04-29T12:25:58.719Z</time></trkpt><trkpt lat="43.4436594" lon="11.9250331"><ele>359.0</ele><time>2026-04-29T12:25:59.716Z</time></trkpt><trkpt lat="43.4436617" lon="11.9248365"><ele>355.0</ele><time>2026-04-29T12:26:00.712Z</time></trkpt><trkpt lat="43.4436863" lon="11.92462"><ele>351.0</ele><time>2026-04-29T12:26:01.714Z</time></trkpt><trkpt lat="43.4437468" lon="11.9244046"><ele>352.5</ele><time>2026-04-29T12:26:02.724Z</time></trkpt><trkpt lat="43.4438207" lon="11.9242035"><ele>354.0</ele><time>2026-04-29T12:26:03.73Z</time></trkpt><trkpt lat="43.4438952" lon="11.9240288"><ele>355.5</ele><time>2026-04-29T12:26:04.722Z</time></trkpt><trkpt lat="43.4439766" lon="11.9238791"><ele>357.0</ele><time>2026-04-29T12:26:05.732Z</time></trkpt><trkpt lat="43.4440795" lon="11.9237532"><ele>357.0</ele><time>2026-04-29T12:26:06.741Z</time></trkpt><trkpt lat="43.4442037" lon="11.9236647"><ele>357.0</ele><time>2026-04-29T12:26:07.741Z</time></trkpt><trkpt lat="43.44433" lon="11.9235878"><ele>357.0</ele><time>2026-04-29T12:26:08.721Z</time></trkpt><trkpt lat="43.4444524" lon="11.9235187"><ele>357.0</ele><time>2026-04-29T12:26:09.723Z</time></trkpt><trkpt lat="43.444541" lon="11.9234281"><ele>351.25</ele><time>2026-04-29T12:26:10.714Z</time></trkpt><trkpt lat="43.4445992" lon="11.9232998"><ele>345.5</ele><time>2026-04-29T12:26:11.715Z</time></trkpt><trkpt lat="43.4446193" lon="11.9231357"><ele>339.75</ele><time>2026-04-29T12:26:12.723Z</time></trkpt><trkpt lat="43.4445907" lon="11.9229406"><ele>334.0</ele><time>2026-04-29T12:26:13.735Z</time></trkpt><trkpt lat="43.4445403" lon="11.9227334"><ele>331.0</ele><time>2026-04-29T12:26:14.741Z</time></trkpt><trkpt lat="43.4444798" lon="11.922517"><ele>328.0</ele><time>2026-04-29T12:26:15.721Z</time></trkpt><trkpt lat="43.4444328" lon="11.9222858"><ele>325.0</ele><time>2026-04-29T12:26:16.748Z</time></trkpt><trkpt lat="43.4444016" lon="11.922079"><ele>325.0</ele><time>2026-04-29T12:26:17.723Z</time></trkpt><trkpt lat="43.4443748" lon="11.9218858"><ele>325.0</ele><time>2026-04-29T12:26:18.723Z</time></trkpt><trkpt lat="43.444352" lon="11.9217015"><ele>325.0</ele><time>2026-04-29T12:26:19.749Z</time></trkpt><trkpt lat="43.4443535" lon="11.9215252"><ele>325.0</ele><time>2026-04-29T12:26:20.738Z</time></trkpt><trkpt lat="43.4443795" lon="11.9213559"><ele>324.0</ele><time>2026-04-29T12:26:21.728Z</time></trkpt><trkpt lat="43.4444234" lon="11.9211404"><ele>323.0</ele><time>2026-04-29T12:26:22.754Z</time></trkpt><trkpt lat="43.4444834" lon="11.9209305"><ele>322.0</ele><time>2026-04-29T12:26:23.76Z</time></trkpt><trkpt lat="43.444536" lon="11.9207529"><ele>323.25</ele><time>2026-04-29T12:26:24.727Z</time></trkpt><trkpt lat="43.4446137" lon="11.9205959"><ele>324.5</ele><time>2026-04-29T12:26:25.734Z</time></trkpt><trkpt lat="43.4447174" lon="11.9204526"><ele>325.75</ele><time>2026-04-29T12:26:26.722Z</time></trkpt><trkpt lat="43.4448374" lon="11.9203421"><ele>327.0</ele><time>2026-04-29T12:26:27.726Z</time></trkpt><trkpt lat="43.4449673" lon="11.9202759"><ele>327.0</ele><time>2026-04-29T12:26:28.733Z</time></trkpt><trkpt lat="43.445106" lon="11.9202541"><ele>327.0</ele><time>2026-04-29T12:26:29.737Z</time></trkpt><trkpt lat="43.4452543" lon="11.9202705"><ele>327.0</ele><time>2026-04-29T12:26:30.713Z</time></trkpt><trkpt lat="43.4453957" lon="11.9202929"><ele>327.0</ele><time>2026-04-29T12:26:31.732Z</time></trkpt><trkpt lat="43.4455415" lon="11.9203658"><ele>322.0</ele><time>2026-04-29T12:26:32.73Z</time></trkpt><trkpt lat="43.4456669" lon="11.9204803"><ele>317.0</ele><time>2026-04-29T12:26:33.757Z</time></trkpt><trkpt lat="43.4457762" lon="11.9206335"><ele>312.0</ele><time>2026-04-29T12:26:34.744Z</time></trkpt><trkpt lat="43.4458874" lon="11.9208076"><ele>314.3333333333333</ele><time>2026-04-29T12:26:35.732Z</time></trkpt><trkpt lat="43.4460024" lon="11.9210044"><ele>316.66666666666663</ele><time>2026-04-29T12:26:36.71Z</time></trkpt><trkpt lat="43.4461144" lon="11.9212039"><ele>319.0</ele><time>2026-04-29T12:26:37.715Z</time></trkpt><trkpt lat="43.4462182" lon="11.9213846"><ele>318.0</ele><time>2026-04-29T12:26:38.725Z</time></trkpt><trkpt lat="43.4463073" lon="11.9215395"><ele>317.0</ele><time>2026-04-29T12:26:39.712Z</time></trkpt><trkpt lat="43.4463956" lon="11.9216689"><ele>316.0</ele><time>2026-04-29T12:26:40.719Z</time></trkpt><trkpt lat="43.446501" lon="11.9217597"><ele>315.0</ele><time>2026-04-29T12:26:41.719Z</time></trkpt><trkpt lat="43.4466337" lon="11.9218164"><ele>315.0</ele><time>2026-04-29T12:26:42.715Z</time></trkpt><trkpt lat="43.4467931" lon="11.9218642"><ele>315.0</ele><time>2026-04-29T12:26:43.714Z</time></trkpt><trkpt lat="43.4469633" lon="11.9219164"><ele>315.0</ele><time>2026-04-29T12:26:44.711Z</time></trkpt><trkpt lat="43.4471297" lon="11.9219504"><ele>308.3333333333333</ele><time>2026-04-29T12:26:45.717Z</time></trkpt><trkpt lat="43.447298" lon="11.921951"><ele>301.66666666666663</ele><time>2026-04-29T12:26:46.726Z</time></trkpt><trkpt lat="43.4474878" lon="11.9219216"><ele>295.0</ele><time>2026-04-29T12:26:47.732Z</time></trkpt><trkpt lat="43.4476581" lon="11.9218578"><ele>295.0</ele><time>2026-04-29T12:26:48.706Z</time></trkpt><trkpt lat="43.4478329" lon="11.9217696"><ele>295.0</ele><time>2026-04-29T12:26:49.723Z</time></trkpt><trkpt lat="43.4479898" lon="11.9216726"><ele>295.0</ele><time>2026-04-29T12:26:50.71Z</time></trkpt><trkpt lat="43.4481321" lon="11.9215554"><ele>294.66666666666663</ele><time>2026-04-29T12:26:51.717Z</time></trkpt><trkpt lat="43.4482512" lon="11.9214154"><ele>294.3333333333333</ele><time>2026-04-29T12:26:52.724Z</time></trkpt><trkpt lat="43.4483511" lon="11.9212418"><ele>294.0</ele><time>2026-04-29T12:26:53.737Z</time></trkpt><trkpt lat="43.4484271" lon="11.9210462"><ele>294.0</ele><time>2026-04-29T12:26:54.723Z</time></trkpt><trkpt lat="43.4484888" lon="11.9208303"><ele>294.0</ele><time>2026-04-29T12:26:55.721Z</time></trkpt><trkpt lat="43.4485448" lon="11.9206059"><ele>294.0</ele><time>2026-04-29T12:26:56.724Z</time></trkpt><trkpt lat="43.4486043" lon="11.9203813"><ele>294.0</ele><time>2026-04-29T12:26:57.719Z</time></trkpt><trkpt lat="43.4486667" lon="11.9201528"><ele>294.0</ele><time>2026-04-29T12:26:58.725Z</time></trkpt><trkpt lat="43.4487318" lon="11.9199266"><ele>294.0</ele><time>2026-04-29T12:26:59.721Z</time></trkpt><trkpt lat="43.4487951" lon="11.9196929"><ele>292.3333333333333</ele><time>2026-04-29T12:27:00.722Z</time></trkpt><trkpt lat="43.4488574" lon="11.9194551"><ele>290.66666666666663</ele><time>2026-04-29T12:27:01.718Z</time></trkpt><trkpt lat="43.448922" lon="11.919213"><ele>289.0</ele><time>2026-04-29T12:27:02.717Z</time></trkpt><trkpt lat="43.44899" lon="11.9189652"><ele>288.66666666666663</ele><time>2026-04-29T12:27:03.729Z</time></trkpt><trkpt lat="43.44906" lon="11.9187131"><ele>288.3333333333333</ele><time>2026-04-29T12:27:04.741Z</time></trkpt><trkpt lat="43.4491279" lon="11.9184604"><ele>288.0</ele><time>2026-04-29T12:27:05.731Z</time></trkpt><trkpt lat="43.4491958" lon="11.9182045"><ele>288.0</ele><time>2026-04-29T12:27:06.725Z</time></trkpt><trkpt lat="43.4492651" lon="11.9179438"><ele>288.0</ele><time>2026-04-29T12:27:07.721Z</time></trkpt><trkpt lat="43.4493321" lon="11.9176856"><ele>288.0</ele><time>2026-04-29T12:27:08.736Z</time></trkpt><trkpt lat="43.4493976" lon="11.9174485"><ele>287.6666666666667</ele><time>2026-04-29T12:27:09.728Z</time></trkpt><trkpt lat="43.4494618" lon="11.9172109"><ele>287.33333333333337</ele><time>2026-04-29T12:27:10.722Z</time></trkpt><trkpt lat="43.4495221" lon="11.9169769"><ele>287.0</ele><time>2026-04-29T12:27:11.741Z</time></trkpt><trkpt lat="43.4495744" lon="11.9167568"><ele>286.0</ele><time>2026-04-29T12:27:12.719Z</time></trkpt><trkpt lat="43.4496337" lon="11.9165249"><ele>285.0</ele><time>2026-04-29T12:27:13.746Z</time></trkpt><trkpt lat="43.4497025" lon="11.916303"><ele>284.0</ele><time>2026-04-29T12:27:14.743Z</time></trkpt><trkpt lat="43.4497716" lon="11.9160802"><ele>283.0</ele><time>2026-04-29T12:27:15.729Z</time></trkpt><trkpt lat="43.4498363" lon="11.9158496"><ele>282.0</ele><time>2026-04-29T12:27:16.729Z</time></trkpt><trkpt lat="43.4498974" lon="11.9156251"><ele>281.0</ele><time>2026-04-29T12:27:17.721Z</time></trkpt><trkpt lat="43.4499565" lon="11.9154042"><ele>281.0</ele><time>2026-04-29T12:27:18.727Z</time></trkpt><trkpt lat="43.4500146" lon="11.9151896"><ele>281.0</ele><time>2026-04-29T12:27:19.734Z</time></trkpt><trkpt lat="43.4500706" lon="11.9149819"><ele>281.0</ele><time>2026-04-29T12:27:20.736Z</time></trkpt><trkpt lat="43.4501254" lon="11.9147825"><ele>281.25</ele><time>2026-04-29T12:27:21.726Z</time></trkpt><trkpt lat="43.4501763" lon="11.9145922"><ele>281.5</ele><time>2026-04-29T12:27:22.717Z</time></trkpt><trkpt lat="43.450226" lon="11.914404"><ele>281.75</ele><time>2026-04-29T12:27:23.726Z</time></trkpt><trkpt lat="43.450277" lon="11.9142187"><ele>282.0</ele><time>2026-04-29T12:27:24.729Z</time></trkpt><trkpt lat="43.4503338" lon="11.914045"><ele>282.0</ele><time>2026-04-29T12:27:25.728Z</time></trkpt><trkpt lat="43.4504015" lon="11.9138863"><ele>282.0</ele><time>2026-04-29T12:27:26.718Z</time></trkpt><trkpt lat="43.4504906" lon="11.9137425"><ele>282.0</ele><time>2026-04-29T12:27:27.715Z</time></trkpt><trkpt lat="43.4505899" lon="11.9136078"><ele>282.0</ele><time>2026-04-29T12:27:28.729Z</time></trkpt><trkpt lat="43.4506793" lon="11.9134699"><ele>281.5</ele><time>2026-04-29T12:27:29.737Z</time></trkpt><trkpt lat="43.4507567" lon="11.9133292"><ele>281.0</ele><time>2026-04-29T12:27:30.723Z</time></trkpt><trkpt lat="43.4508315" lon="11.9131793"><ele>280.5</ele><time>2026-04-29T12:27:31.724Z</time></trkpt><trkpt lat="43.450904" lon="11.9130223"><ele>280.0</ele><time>2026-04-29T12:27:32.72Z</time></trkpt><trkpt lat="43.4509798" lon="11.9128623"><ele>280.0</ele><time>2026-04-29T12:27:33.719Z</time></trkpt><trkpt lat="43.4510555" lon="11.9126952"><ele>280.0</ele><time>2026-04-29T12:27:34.718Z</time></trkpt><trkpt lat="43.4511339" lon="11.9125191"><ele>280.0</ele><time>2026-04-29T12:27:35.746Z</time></trkpt><trkpt lat="43.4512132" lon="11.9123498"><ele>280.0</ele><time>2026-04-29T12:27:36.717Z</time></trkpt><trkpt lat="43.4512996" lon="11.9121688"><ele>279.66666666666663</ele><time>2026-04-29T12:27:37.741Z</time></trkpt><trkpt lat="43.4513843" lon="11.9119917"><ele>279.3333333333333</ele><time>2026-04-29T12:27:38.723Z</time></trkpt><trkpt lat="43.4514726" lon="11.9118072"><ele>279.0</ele><time>2026-04-29T12:27:39.731Z</time></trkpt><trkpt lat="43.4515585" lon="11.9116357"><ele>279.0</ele><time>2026-04-29T12:27:40.736Z</time></trkpt><trkpt lat="43.4516434" lon="11.911472"><ele>279.0</ele><time>2026-04-29T12:27:41.742Z</time></trkpt><trkpt lat="43.4517319" lon="11.9113139"><ele>279.0</ele><time>2026-04-29T12:27:42.722Z</time></trkpt><trkpt lat="43.4518327" lon="11.9111456"><ele>279.0</ele><time>2026-04-29T12:27:43.743Z</time></trkpt><trkpt lat="43.4519329" lon="11.9109811"><ele>279.0</ele><time>2026-04-29T12:27:44.729Z</time></trkpt><trkpt lat="43.4520395" lon="11.9108069"><ele>279.0</ele><time>2026-04-29T12:27:45.741Z</time></trkpt><trkpt lat="43.4521421" lon="11.9106401"><ele>279.0</ele><time>2026-04-29T12:27:46.712Z</time></trkpt><trkpt lat="43.4522428" lon="11.9104746"><ele>278.0</ele><time>2026-04-29T12:27:47.73Z</time></trkpt><trkpt lat="43.4523367" lon="11.9103151"><ele>277.0</ele><time>2026-04-29T12:27:48.734Z</time></trkpt><trkpt lat="43.4524297" lon="11.9101513"><ele>276.0</ele><time>2026-04-29T12:27:49.737Z</time></trkpt><trkpt lat="43.4525243" lon="11.9099814"><ele>276.0</ele><time>2026-04-29T12:27:50.741Z</time></trkpt><trkpt lat="43.4526201" lon="11.9098034"><ele>276.0</ele><time>2026-04-29T12:27:51.745Z</time></trkpt><trkpt lat="43.4527148" lon="11.9096252"><ele>276.0</ele><time>2026-04-29T12:27:52.729Z</time></trkpt><trkpt lat="43.4528107" lon="11.9094395"><ele>276.0</ele><time>2026-04-29T12:27:53.729Z</time></trkpt><trkpt lat="43.4529071" lon="11.9092526"><ele>276.0</ele><time>2026-04-29T12:27:54.723Z</time></trkpt><trkpt lat="43.4530109" lon="11.90905"><ele>276.0</ele><time>2026-04-29T12:27:55.738Z</time></trkpt><trkpt lat="43.453127" lon="11.9088273"><ele>275.5</ele><time>2026-04-29T12:27:56.727Z</time></trkpt><trkpt lat="43.4532613" lon="11.9085795"><ele>275.0</ele><time>2026-04-29T12:27:57.723Z</time></trkpt><trkpt lat="43.4534044" lon="11.9083291"><ele>274.6666666666667</ele><time>2026-04-29T12:27:58.733Z</time></trkpt><trkpt lat="43.4535444" lon="11.9080839"><ele>274.3333333333333</ele><time>2026-04-29T12:27:59.746Z</time></trkpt><trkpt lat="43.4536694" lon="11.9078543"><ele>274.0</ele><time>2026-04-29T12:28:00.721Z</time></trkpt><trkpt lat="43.4537936" lon="11.9076264"><ele>273.66666666666663</ele><time>2026-04-29T12:28:01.724Z</time></trkpt><trkpt lat="43.4539167" lon="11.9074014"><ele>273.3333333333333</ele><time>2026-04-29T12:28:02.732Z</time></trkpt><trkpt lat="43.4540403" lon="11.9071782"><ele>273.0</ele><time>2026-04-29T12:28:03.733Z</time></trkpt><trkpt lat="43.4541648" lon="11.9069575"><ele>273.0</ele><time>2026-04-29T12:28:04.731Z</time></trkpt><trkpt lat="43.4542946" lon="11.9067368"><ele>273.0</ele><time>2026-04-29T12:28:05.743Z</time></trkpt><trkpt lat="43.4544241" lon="11.9065245"><ele>273.0</ele><time>2026-04-29T12:28:06.737Z</time></trkpt><trkpt lat="43.4545539" lon="11.9063096"><ele>273.0</ele><time>2026-04-29T12:28:07.743Z</time></trkpt><trkpt lat="43.4546789" lon="11.9060971"><ele>273.0</ele><time>2026-04-29T12:28:08.729Z</time></trkpt><trkpt lat="43.4548036" lon="11.9058766"><ele>273.0</ele><time>2026-04-29T12:28:09.737Z</time></trkpt><trkpt lat="43.4549214" lon="11.9056434"><ele>273.0</ele><time>2026-04-29T12:28:10.757Z</time></trkpt><trkpt lat="43.4550238" lon="11.9054107"><ele>273.0</ele><time>2026-04-29T12:28:11.738Z</time></trkpt><trkpt lat="43.455113" lon="11.9051653"><ele>273.0</ele><time>2026-04-29T12:28:12.725Z</time></trkpt><trkpt lat="43.4551848" lon="11.9049018"><ele>273.3333333333333</ele><time>2026-04-29T12:28:13.732Z</time></trkpt><trkpt lat="43.4552386" lon="11.9046366"><ele>273.66666666666663</ele><time>2026-04-29T12:28:14.734Z</time></trkpt><trkpt lat="43.4552927" lon="11.9043783"><ele>274.0</ele><time>2026-04-29T12:28:15.753Z</time></trkpt><trkpt lat="43.4553449" lon="11.9041473"><ele>273.3333333333333</ele><time>2026-04-29T12:28:16.726Z</time></trkpt><trkpt lat="43.4554151" lon="11.9039409"><ele>272.6666666666667</ele><time>2026-04-29T12:28:17.715Z</time></trkpt><trkpt lat="43.4555124" lon="11.9037645"><ele>272.0</ele><time>2026-04-29T12:28:18.729Z</time></trkpt><trkpt lat="43.455626" lon="11.9036392"><ele>270.6666666666667</ele><time>2026-04-29T12:28:19.724Z</time></trkpt><trkpt lat="43.4557554" lon="11.9035632"><ele>269.3333333333333</ele><time>2026-04-29T12:28:20.726Z</time></trkpt><trkpt lat="43.4559055" lon="11.9035325"><ele>268.0</ele><time>2026-04-29T12:28:21.743Z</time></trkpt><trkpt lat="43.4560639" lon="11.9035314"><ele>268.0</ele><time>2026-04-29T12:28:22.738Z</time></trkpt><trkpt lat="43.4562092" lon="11.9035426"><ele>268.0</ele><time>2026-04-29T12:28:23.707Z</time></trkpt><trkpt lat="43.4563467" lon="11.9035559"><ele>268.0</ele><time>2026-04-29T12:28:24.703Z</time></trkpt><trkpt lat="43.456469" lon="11.9035656"><ele>268.0</ele><time>2026-04-29T12:28:25.732Z</time></trkpt><trkpt lat="43.456546" lon="11.9035722"><ele>268.16666666666663</ele><time>2026-04-29T12:28:26.731Z</time></trkpt><trkpt lat="43.4566174" lon="11.903589"><ele>268.3333333333333</ele><time>2026-04-29T12:28:30.722Z</time></trkpt><trkpt lat="43.4566802" lon="11.903618"><ele>268.5</ele><time>2026-04-29T12:28:33.724Z</time></trkpt><trkpt lat="43.4567682" lon="11.9037039"><ele>268.6666666666667</ele><time>2026-04-29T12:28:35.716Z</time></trkpt><trkpt lat="43.4568353" lon="11.9037444"><ele>268.83333333333337</ele><time>2026-04-29T12:28:36.735Z</time></trkpt><trkpt lat="43.4569529" lon="11.9036862"><ele>269.0</ele><time>2026-04-29T12:28:38.718Z</time></trkpt><trkpt lat="43.4569698" lon="11.9035974"><ele>269.0</ele><time>2026-04-29T12:28:39.716Z</time></trkpt><trkpt lat="43.4569624" lon="11.903499"><ele>269.0</ele><time>2026-04-29T12:28:40.716Z</time></trkpt><trkpt lat="43.4569132" lon="11.9033917"><ele>269.0</ele><time>2026-04-29T12:28:41.714Z</time></trkpt><trkpt lat="43.4568635" lon="11.9032545"><ele>269.0</ele><time>2026-04-29T12:28:42.732Z</time></trkpt><trkpt lat="43.4568354" lon="11.9030819"><ele>269.0</ele><time>2026-04-29T12:28:43.747Z</time></trkpt><trkpt lat="43.4568203" lon="11.9028924"><ele>269.0</ele><time>2026-04-29T12:28:44.744Z</time></trkpt><trkpt lat="43.456806" lon="11.9027195"><ele>269.0</ele><time>2026-04-29T12:28:45.724Z</time></trkpt><trkpt lat="43.4567936" lon="11.9025608"><ele>269.0</ele><time>2026-04-29T12:28:46.744Z</time></trkpt><trkpt lat="43.4567819" lon="11.9024377"><ele>269.0</ele><time>2026-04-29T12:28:47.72Z</time></trkpt><trkpt lat="43.4568086" lon="11.9023072"><ele>269.0</ele><time>2026-04-29T12:28:49.71Z</time></trkpt><trkpt lat="43.456913" lon="11.902324"><ele>269.0</ele><time>2026-04-29T12:28:51.708Z</time></trkpt><trkpt lat="43.4569926" lon="11.9023742"><ele>269.0</ele><time>2026-04-29T12:28:52.735Z</time></trkpt><trkpt lat="43.4570842" lon="11.9024213"><ele>269.0</ele><time>2026-04-29T12:28:53.716Z</time></trkpt><trkpt lat="43.4571813" lon="11.902471"><ele>269.0</ele><time>2026-04-29T12:28:54.742Z</time></trkpt><trkpt lat="43.457264" lon="11.9025161"><ele>269.0</ele><time>2026-04-29T12:28:55.731Z</time></trkpt><trkpt lat="43.4573313" lon="11.9025487"><ele>269.0</ele><time>2026-04-29T12:28:56.705Z</time></trkpt><trkpt lat="43.4574361" lon="11.9025002"><ele>269.4</ele><time>2026-04-29T12:28:58.716Z</time></trkpt><trkpt lat="43.4574784" lon="11.9024219"><ele>269.79999999999995</ele><time>2026-04-29T12:28:59.717Z</time></trkpt><trkpt lat="43.4575145" lon="11.902304"><ele>270.20000000000005</ele><time>2026-04-29T12:29:00.709Z</time></trkpt><trkpt lat="43.4575559" lon="11.9021536"><ele>270.6</ele><time>2026-04-29T12:29:01.721Z</time></trkpt><trkpt lat="43.4576058" lon="11.9019866"><ele>271.0</ele><time>2026-04-29T12:29:02.736Z</time></trkpt><trkpt lat="43.4576517" lon="11.9018244"><ele>270.6</ele><time>2026-04-29T12:29:03.727Z</time></trkpt><trkpt lat="43.4576877" lon="11.9016709"><ele>270.20000000000005</ele><time>2026-04-29T12:29:04.709Z</time></trkpt><trkpt lat="43.457725" lon="11.9015255"><ele>269.79999999999995</ele><time>2026-04-29T12:29:05.715Z</time></trkpt><trkpt lat="43.4577672" lon="11.9013926"><ele>269.4</ele><time>2026-04-29T12:29:06.74Z</time></trkpt><trkpt lat="43.4578088" lon="11.9012799"><ele>269.0</ele><time>2026-04-29T12:29:07.73Z</time></trkpt><trkpt lat="43.457839" lon="11.9011785"><ele>269.0</ele><time>2026-04-29T12:29:08.731Z</time></trkpt><trkpt lat="43.4578008" lon="11.9010281"><ele>269.0</ele><time>2026-04-29T12:29:10.739Z</time></trkpt><trkpt lat="43.4577395" lon="11.9009822"><ele>269.0</ele><time>2026-04-29T12:29:11.717Z</time></trkpt><trkpt lat="43.4576542" lon="11.9009365"><ele>269.0</ele><time>2026-04-29T12:29:12.725Z</time></trkpt><trkpt lat="43.4575535" lon="11.9008858"><ele>269.0</ele><time>2026-04-29T12:29:13.728Z</time></trkpt><trkpt lat="43.4574409" lon="11.9008315"><ele>268.6666666666667</ele><time>2026-04-29T12:29:14.726Z</time></trkpt><trkpt lat="43.4573419" lon="11.9007815"><ele>268.33333333333337</ele><time>2026-04-29T12:29:15.722Z</time></trkpt><trkpt lat="43.4572551" lon="11.9007311"><ele>268.0</ele><time>2026-04-29T12:29:16.727Z</time></trkpt><trkpt lat="43.4571898" lon="11.9006858"><ele>267.6666666666667</ele><time>2026-04-29T12:29:17.748Z</time></trkpt><trkpt lat="43.4570978" lon="11.9007252"><ele>267.3333333333333</ele><time>2026-04-29T12:29:20.735Z</time></trkpt><trkpt lat="43.4570674" lon="11.9008099"><ele>267.0</ele><time>2026-04-29T12:29:21.738Z</time></trkpt><trkpt lat="43.4570348" lon="11.9009155"><ele>267.3333333333333</ele><time>2026-04-29T12:29:22.721Z</time></trkpt><trkpt lat="43.4569999" lon="11.9010321"><ele>267.6666666666667</ele><time>2026-04-29T12:29:23.716Z</time></trkpt><trkpt lat="43.4569659" lon="11.9011447"><ele>268.0</ele><time>2026-04-29T12:29:24.748Z</time></trkpt><trkpt lat="43.456936" lon="11.9012431"><ele>268.33333333333337</ele><time>2026-04-29T12:29:25.723Z</time></trkpt><trkpt lat="43.4569054" lon="11.9013298"><ele>268.6666666666667</ele><time>2026-04-29T12:29:26.733Z</time></trkpt><trkpt lat="43.4568456" lon="11.9014531"><ele>269.0</ele><time>2026-04-29T12:29:28.755Z</time></trkpt><trkpt lat="43.4568382" lon="11.9015502"><ele>269.0</ele><time>2026-04-29T12:29:30.729Z</time></trkpt><trkpt lat="43.4569076" lon="11.9015932"><ele>269.0</ele><time>2026-04-29T12:29:42.727Z</time></trkpt><trkpt lat="43.4569735" lon="11.901605"><ele>269.0</ele><time>2026-04-29T12:29:45.712Z</time></trkpt><trkpt lat="43.4570342" lon="11.9016347"><ele>269.0</ele><time>2026-04-29T12:29:48.72Z</time></trkpt><trkpt lat="43.4570342" lon="11.9016347"><ele>269.0</ele><time>2026-04-29T12:29:48.72Z</time></trkpt></trkseg></trk></gpx>